<?xml version='1.0' encoding='UTF-8'?><gpx version="1.1" creator="JPX - https://github.com/jenetics/jpx" xmlns="http://www.topografix.com/GPX/1/1"><trk><trkseg><trkpt lat="43.0643246" lon="12.3108996"><ele>242.0</ele><time>2026-04-02T08:05:17.694Z</time></trkpt><trkpt lat="43.0644353" lon="12.310947"><ele>242.0</ele><time>2026-04-02T08:05:20.694Z</time></trkpt><trkpt lat="43.0645357" lon="12.3110397"><ele>242.0</ele><time>2026-04-02T08:05:22.696Z</time></trkpt><trkpt lat="43.0645987" lon="12.3110993"><ele>242.0</ele><time>2026-04-02T08:05:23.697Z</time></trkpt><trkpt lat="43.0646466" lon="12.3111632"><ele>242.0</ele><time>2026-04-02T08:05:24.694Z</time></trkpt><trkpt lat="43.0647065" lon="12.3112254"><ele>242.00000000000003</ele><time>2026-04-02T08:05:25.696Z</time></trkpt><trkpt lat="43.0647567" lon="12.3113003"><ele>242.0</ele><time>2026-04-02T08:05:26.703Z</time></trkpt><trkpt lat="43.0648062" lon="12.3113609"><ele>242.0</ele><time>2026-04-02T08:05:27.693Z</time></trkpt><trkpt lat="43.0648978" lon="12.3114122"><ele>242.0</ele><time>2026-04-02T08:05:28.695Z</time></trkpt><trkpt lat="43.0649741" lon="12.3115213"><ele>242.00000000000003</ele><time>2026-04-02T08:05:30.697Z</time></trkpt><trkpt lat="43.0649745" lon="12.3116167"><ele>242.0</ele><time>2026-04-02T08:05:32.694Z</time></trkpt><trkpt lat="43.0648543" lon="12.3117059"><ele>241.8</ele><time>2026-04-02T08:05:35.701Z</time></trkpt><trkpt lat="43.0647701" lon="12.3117368"><ele>241.6</ele><time>2026-04-02T08:05:36.692Z</time></trkpt><trkpt lat="43.0646839" lon="12.3117777"><ele>241.40000000000003</ele><time>2026-04-02T08:05:37.693Z</time></trkpt><trkpt lat="43.0645927" lon="12.3118355"><ele>241.20000000000002</ele><time>2026-04-02T08:05:38.696Z</time></trkpt><trkpt lat="43.0645056" lon="12.311884"><ele>241.0</ele><time>2026-04-02T08:05:39.693Z</time></trkpt><trkpt lat="43.0644179" lon="12.3119536"><ele>241.0</ele><time>2026-04-02T08:05:40.699Z</time></trkpt><trkpt lat="43.0643218" lon="12.3120036"><ele>241.0</ele><time>2026-04-02T08:05:41.693Z</time></trkpt><trkpt lat="43.0642386" lon="12.3120198"><ele>241.0</ele><time>2026-04-02T08:05:42.694Z</time></trkpt><trkpt lat="43.0641235" lon="12.3120712"><ele>241.0</ele><time>2026-04-02T08:05:43.696Z</time></trkpt><trkpt lat="43.0639684" lon="12.3121611"><ele>240.25</ele><time>2026-04-02T08:05:44.696Z</time></trkpt><trkpt lat="43.0638334" lon="12.312245"><ele>239.5</ele><time>2026-04-02T08:05:45.692Z</time></trkpt><trkpt lat="43.0636934" lon="12.3123325"><ele>238.75</ele><time>2026-04-02T08:05:46.693Z</time></trkpt><trkpt lat="43.0635654" lon="12.3124049"><ele>238.0</ele><time>2026-04-02T08:05:47.692Z</time></trkpt><trkpt lat="43.0634283" lon="12.312497"><ele>236.66666666666666</ele><time>2026-04-02T08:05:48.703Z</time></trkpt><trkpt lat="43.063256" lon="12.312612"><ele>235.33333333333331</ele><time>2026-04-02T08:05:49.704Z</time></trkpt><trkpt lat="43.0631552" lon="12.312706"><ele>234.0</ele><time>2026-04-02T08:05:50.7Z</time></trkpt><trkpt lat="43.0630323" lon="12.3127886"><ele>234.0</ele><time>2026-04-02T08:05:51.694Z</time></trkpt><trkpt lat="43.062899" lon="12.3128949"><ele>234.0</ele><time>2026-04-02T08:05:52.695Z</time></trkpt><trkpt lat="43.0627612" lon="12.3129981"><ele>234.0</ele><time>2026-04-02T08:05:53.702Z</time></trkpt><trkpt lat="43.0626395" lon="12.3130995"><ele>235.0</ele><time>2026-04-02T08:05:54.702Z</time></trkpt><trkpt lat="43.0625102" lon="12.313189"><ele>236.0</ele><time>2026-04-02T08:05:55.696Z</time></trkpt><trkpt lat="43.0623714" lon="12.3132798"><ele>237.0</ele><time>2026-04-02T08:05:56.695Z</time></trkpt><trkpt lat="43.062234" lon="12.3133754"><ele>237.25</ele><time>2026-04-02T08:05:57.694Z</time></trkpt><trkpt lat="43.0621012" lon="12.3134713"><ele>237.5</ele><time>2026-04-02T08:05:58.701Z</time></trkpt><trkpt lat="43.0619713" lon="12.3135585"><ele>237.75</ele><time>2026-04-02T08:05:59.702Z</time></trkpt><trkpt lat="43.0618346" lon="12.3136444"><ele>238.0</ele><time>2026-04-02T08:06:00.693Z</time></trkpt><trkpt lat="43.0616944" lon="12.3137342"><ele>237.25</ele><time>2026-04-02T08:06:01.695Z</time></trkpt><trkpt lat="43.0615582" lon="12.313836"><ele>236.5</ele><time>2026-04-02T08:06:02.695Z</time></trkpt><trkpt lat="43.0614323" lon="12.3139163"><ele>235.75</ele><time>2026-04-02T08:06:03.694Z</time></trkpt><trkpt lat="43.0613218" lon="12.3139868"><ele>235.0</ele><time>2026-04-02T08:06:04.7Z</time></trkpt><trkpt lat="43.0611884" lon="12.3140659"><ele>235.0</ele><time>2026-04-02T08:06:05.695Z</time></trkpt><trkpt lat="43.0610455" lon="12.3141293"><ele>235.0</ele><time>2026-04-02T08:06:06.695Z</time></trkpt><trkpt lat="43.060907" lon="12.3142001"><ele>235.0</ele><time>2026-04-02T08:06:07.696Z</time></trkpt><trkpt lat="43.0607709" lon="12.3142606"><ele>235.0</ele><time>2026-04-02T08:06:08.697Z</time></trkpt><trkpt lat="43.0606362" lon="12.3143034"><ele>235.0</ele><time>2026-04-02T08:06:09.697Z</time></trkpt><trkpt lat="43.0604913" lon="12.3143424"><ele>235.0</ele><time>2026-04-02T08:06:10.701Z</time></trkpt><trkpt lat="43.0603468" lon="12.3143562"><ele>235.0</ele><time>2026-04-02T08:06:11.694Z</time></trkpt><trkpt lat="43.0602035" lon="12.3143652"><ele>235.0</ele><time>2026-04-02T08:06:12.696Z</time></trkpt><trkpt lat="43.0600554" lon="12.3143812"><ele>235.5</ele><time>2026-04-02T08:06:13.7Z</time></trkpt><trkpt lat="43.059922" lon="12.3144129"><ele>236.0</ele><time>2026-04-02T08:06:14.703Z</time></trkpt><trkpt lat="43.0597928" lon="12.3144614"><ele>236.5</ele><time>2026-04-02T08:06:15.7Z</time></trkpt><trkpt lat="43.0596649" lon="12.3145386"><ele>237.0</ele><time>2026-04-02T08:06:16.705Z</time></trkpt><trkpt lat="43.0595572" lon="12.314629"><ele>237.0</ele><time>2026-04-02T08:06:17.703Z</time></trkpt><trkpt lat="43.0594532" lon="12.3147229"><ele>237.0</ele><time>2026-04-02T08:06:18.707Z</time></trkpt><trkpt lat="43.0593721" lon="12.3148059"><ele>237.0</ele><time>2026-04-02T08:06:19.696Z</time></trkpt><trkpt lat="43.0592899" lon="12.3148944"><ele>237.0</ele><time>2026-04-02T08:06:20.699Z</time></trkpt><trkpt lat="43.0592181" lon="12.3149641"><ele>237.0</ele><time>2026-04-02T08:06:21.697Z</time></trkpt><trkpt lat="43.0591651" lon="12.3150347"><ele>236.99999999999997</ele><time>2026-04-02T08:06:22.704Z</time></trkpt><trkpt lat="43.0591184" lon="12.3151224"><ele>237.0</ele><time>2026-04-02T08:06:24.703Z</time></trkpt><trkpt lat="43.0590653" lon="12.3151879"><ele>236.99999999999997</ele><time>2026-04-02T08:06:26.697Z</time></trkpt><trkpt lat="43.0590372" lon="12.3152695"><ele>236.99999999999997</ele><time>2026-04-02T08:06:28.707Z</time></trkpt><trkpt lat="43.0590429" lon="12.3153649"><ele>237.0</ele><time>2026-04-02T08:06:30.698Z</time></trkpt><trkpt lat="43.0590521" lon="12.3154548"><ele>236.99999999999997</ele><time>2026-04-02T08:06:31.698Z</time></trkpt><trkpt lat="43.0590787" lon="12.3155446"><ele>236.99999999999997</ele><time>2026-04-02T08:06:32.697Z</time></trkpt><trkpt lat="43.0591084" lon="12.3156413"><ele>236.6</ele><time>2026-04-02T08:06:33.7Z</time></trkpt><trkpt lat="43.059136" lon="12.3157546"><ele>236.2</ele><time>2026-04-02T08:06:34.702Z</time></trkpt><trkpt lat="43.0591755" lon="12.3158736"><ele>235.8</ele><time>2026-04-02T08:06:35.697Z</time></trkpt><trkpt lat="43.0592202" lon="12.3159996"><ele>235.4</ele><time>2026-04-02T08:06:36.697Z</time></trkpt><trkpt lat="43.0592644" lon="12.3161236"><ele>235.0</ele><time>2026-04-02T08:06:37.701Z</time></trkpt><trkpt lat="43.0593124" lon="12.3162509"><ele>235.0</ele><time>2026-04-02T08:06:38.698Z</time></trkpt><trkpt lat="43.0593566" lon="12.3163854"><ele>235.0</ele><time>2026-04-02T08:06:39.705Z</time></trkpt><trkpt lat="43.0593915" lon="12.3165217"><ele>235.0</ele><time>2026-04-02T08:06:40.701Z</time></trkpt><trkpt lat="43.0594189" lon="12.316649"><ele>235.0</ele><time>2026-04-02T08:06:41.699Z</time></trkpt><trkpt lat="43.0594532" lon="12.3167826"><ele>235.0</ele><time>2026-04-02T08:06:42.698Z</time></trkpt><trkpt lat="43.0594875" lon="12.3169138"><ele>234.8</ele><time>2026-04-02T08:06:43.702Z</time></trkpt><trkpt lat="43.0595213" lon="12.3170513"><ele>234.6</ele><time>2026-04-02T08:06:44.698Z</time></trkpt><trkpt lat="43.0595535" lon="12.3171788"><ele>234.39999999999998</ele><time>2026-04-02T08:06:45.701Z</time></trkpt><trkpt lat="43.0595834" lon="12.3173135"><ele>234.2</ele><time>2026-04-02T08:06:46.697Z</time></trkpt><trkpt lat="43.0596089" lon="12.3174508"><ele>234.0</ele><time>2026-04-02T08:06:47.696Z</time></trkpt><trkpt lat="43.0596229" lon="12.3175959"><ele>234.0</ele><time>2026-04-02T08:06:48.701Z</time></trkpt><trkpt lat="43.0596341" lon="12.3177373"><ele>234.0</ele><time>2026-04-02T08:06:49.697Z</time></trkpt><trkpt lat="43.0596378" lon="12.3178677"><ele>234.0</ele><time>2026-04-02T08:06:50.702Z</time></trkpt><trkpt lat="43.0596416" lon="12.3179803"><ele>234.0</ele><time>2026-04-02T08:06:51.7Z</time></trkpt><trkpt lat="43.0596507" lon="12.3180886"><ele>234.0</ele><time>2026-04-02T08:06:52.702Z</time></trkpt><trkpt lat="43.0596587" lon="12.3181996"><ele>234.0</ele><time>2026-04-02T08:06:53.71Z</time></trkpt><trkpt lat="43.0596762" lon="12.3183137"><ele>234.0</ele><time>2026-04-02T08:06:54.698Z</time></trkpt><trkpt lat="43.0596915" lon="12.3184165"><ele>234.0</ele><time>2026-04-02T08:06:55.702Z</time></trkpt><trkpt lat="43.0597085" lon="12.318529"><ele>234.0</ele><time>2026-04-02T08:06:56.696Z</time></trkpt><trkpt lat="43.0597251" lon="12.3186369"><ele>234.0</ele><time>2026-04-02T08:06:57.699Z</time></trkpt><trkpt lat="43.0597382" lon="12.3187368"><ele>234.0</ele><time>2026-04-02T08:06:58.7Z</time></trkpt><trkpt lat="43.0597607" lon="12.3188523"><ele>234.0</ele><time>2026-04-02T08:06:59.704Z</time></trkpt><trkpt lat="43.0597868" lon="12.3189668"><ele>234.0</ele><time>2026-04-02T08:07:00.697Z</time></trkpt><trkpt lat="43.0598134" lon="12.3190682"><ele>234.0</ele><time>2026-04-02T08:07:01.699Z</time></trkpt><trkpt lat="43.0598302" lon="12.3191667"><ele>234.0</ele><time>2026-04-02T08:07:02.698Z</time></trkpt><trkpt lat="43.0598438" lon="12.3192749"><ele>234.0</ele><time>2026-04-02T08:07:03.695Z</time></trkpt><trkpt lat="43.0598638" lon="12.3193941"><ele>234.0</ele><time>2026-04-02T08:07:04.695Z</time></trkpt><trkpt lat="43.059881" lon="12.3195144"><ele>234.0</ele><time>2026-04-02T08:07:05.698Z</time></trkpt><trkpt lat="43.0598957" lon="12.3196386"><ele>234.2</ele><time>2026-04-02T08:07:06.694Z</time></trkpt><trkpt lat="43.0599222" lon="12.3197574"><ele>234.39999999999998</ele><time>2026-04-02T08:07:07.698Z</time></trkpt><trkpt lat="43.0599503" lon="12.3198783"><ele>234.6</ele><time>2026-04-02T08:07:08.699Z</time></trkpt><trkpt lat="43.0599779" lon="12.3199908"><ele>234.8</ele><time>2026-04-02T08:07:09.695Z</time></trkpt><trkpt lat="43.0600092" lon="12.3201065"><ele>235.0</ele><time>2026-04-02T08:07:10.698Z</time></trkpt><trkpt lat="43.0600399" lon="12.3202339"><ele>235.2</ele><time>2026-04-02T08:07:11.697Z</time></trkpt><trkpt lat="43.0600744" lon="12.3203562"><ele>235.4</ele><time>2026-04-02T08:07:12.695Z</time></trkpt><trkpt lat="43.0601077" lon="12.3204839"><ele>235.60000000000002</ele><time>2026-04-02T08:07:13.698Z</time></trkpt><trkpt lat="43.0601426" lon="12.3206142"><ele>235.8</ele><time>2026-04-02T08:07:14.702Z</time></trkpt><trkpt lat="43.0601789" lon="12.3207404"><ele>236.0</ele><time>2026-04-02T08:07:15.698Z</time></trkpt><trkpt lat="43.0602127" lon="12.3208611"><ele>236.16666666666669</ele><time>2026-04-02T08:07:16.706Z</time></trkpt><trkpt lat="43.0602442" lon="12.3209649"><ele>236.33333333333334</ele><time>2026-04-02T08:07:17.698Z</time></trkpt><trkpt lat="43.0602866" lon="12.3210591"><ele>236.5</ele><time>2026-04-02T08:07:18.699Z</time></trkpt><trkpt lat="43.0603273" lon="12.3211537"><ele>236.66666666666669</ele><time>2026-04-02T08:07:19.705Z</time></trkpt><trkpt lat="43.060368" lon="12.3212432"><ele>236.83333333333334</ele><time>2026-04-02T08:07:20.697Z</time></trkpt><trkpt lat="43.0604197" lon="12.3213334"><ele>237.0</ele><time>2026-04-02T08:07:21.699Z</time></trkpt><trkpt lat="43.0604758" lon="12.3214285"><ele>237.2</ele><time>2026-04-02T08:07:22.699Z</time></trkpt><trkpt lat="43.0605331" lon="12.3215248"><ele>237.39999999999998</ele><time>2026-04-02T08:07:23.695Z</time></trkpt><trkpt lat="43.0605886" lon="12.3216217"><ele>237.60000000000002</ele><time>2026-04-02T08:07:24.7Z</time></trkpt><trkpt lat="43.0606457" lon="12.321715"><ele>237.8</ele><time>2026-04-02T08:07:25.702Z</time></trkpt><trkpt lat="43.060706" lon="12.3218108"><ele>238.0</ele><time>2026-04-02T08:07:26.699Z</time></trkpt><trkpt lat="43.0607612" lon="12.3219152"><ele>238.60000000000002</ele><time>2026-04-02T08:07:27.695Z</time></trkpt><trkpt lat="43.060817" lon="12.3220169"><ele>239.20000000000002</ele><time>2026-04-02T08:07:28.698Z</time></trkpt><trkpt lat="43.0608727" lon="12.3221209"><ele>239.8</ele><time>2026-04-02T08:07:29.696Z</time></trkpt><trkpt lat="43.0609303" lon="12.3222157"><ele>240.4</ele><time>2026-04-02T08:07:30.697Z</time></trkpt><trkpt lat="43.0609873" lon="12.3223139"><ele>241.0</ele><time>2026-04-02T08:07:31.695Z</time></trkpt><trkpt lat="43.0610425" lon="12.3224147"><ele>241.4</ele><time>2026-04-02T08:07:32.697Z</time></trkpt><trkpt lat="43.0611031" lon="12.3225083"><ele>241.8</ele><time>2026-04-02T08:07:33.695Z</time></trkpt><trkpt lat="43.061166" lon="12.3226013"><ele>242.20000000000002</ele><time>2026-04-02T08:07:34.697Z</time></trkpt><trkpt lat="43.0612293" lon="12.3227024"><ele>242.60000000000002</ele><time>2026-04-02T08:07:35.698Z</time></trkpt><trkpt lat="43.0612978" lon="12.322805"><ele>243.0</ele><time>2026-04-02T08:07:36.696Z</time></trkpt><trkpt lat="43.0613455" lon="12.3228917"><ele>243.0</ele><time>2026-04-02T08:07:37.696Z</time></trkpt><trkpt lat="43.0614025" lon="12.3229857"><ele>243.0</ele><time>2026-04-02T08:07:38.7Z</time></trkpt><trkpt lat="43.0614473" lon="12.3230731"><ele>243.0</ele><time>2026-04-02T08:07:39.698Z</time></trkpt><trkpt lat="43.0615098" lon="12.3231746"><ele>243.0</ele><time>2026-04-02T08:07:40.7Z</time></trkpt><trkpt lat="43.0615686" lon="12.3232771"><ele>243.0</ele><time>2026-04-02T08:07:41.696Z</time></trkpt><trkpt lat="43.0616424" lon="12.3233866"><ele>243.8</ele><time>2026-04-02T08:07:42.697Z</time></trkpt><trkpt lat="43.0616964" lon="12.3234978"><ele>244.60000000000002</ele><time>2026-04-02T08:07:43.7Z</time></trkpt><trkpt lat="43.0617561" lon="12.3236039"><ele>245.39999999999998</ele><time>2026-04-02T08:07:44.699Z</time></trkpt><trkpt lat="43.0618176" lon="12.3237085"><ele>246.2</ele><time>2026-04-02T08:07:45.698Z</time></trkpt><trkpt lat="43.0618809" lon="12.3238172"><ele>247.0</ele><time>2026-04-02T08:07:46.699Z</time></trkpt><trkpt lat="43.0619401" lon="12.3239181"><ele>247.2</ele><time>2026-04-02T08:07:47.697Z</time></trkpt><trkpt lat="43.0619926" lon="12.3240205"><ele>247.39999999999998</ele><time>2026-04-02T08:07:48.696Z</time></trkpt><trkpt lat="43.0620575" lon="12.3241247"><ele>247.60000000000002</ele><time>2026-04-02T08:07:49.702Z</time></trkpt><trkpt lat="43.0621208" lon="12.3242237"><ele>247.8</ele><time>2026-04-02T08:07:50.698Z</time></trkpt><trkpt lat="43.0621831" lon="12.3243181"><ele>248.0</ele><time>2026-04-02T08:07:51.695Z</time></trkpt><trkpt lat="43.0622288" lon="12.3244042"><ele>248.0</ele><time>2026-04-02T08:07:52.694Z</time></trkpt><trkpt lat="43.0622848" lon="12.3245915"><ele>248.0</ele><time>2026-04-02T08:07:54.697Z</time></trkpt><trkpt lat="43.062298" lon="12.3247328"><ele>248.0</ele><time>2026-04-02T08:07:55.698Z</time></trkpt><trkpt lat="43.0623273" lon="12.3248887"><ele>248.0</ele><time>2026-04-02T08:07:56.704Z</time></trkpt><trkpt lat="43.0623704" lon="12.3250103"><ele>247.8</ele><time>2026-04-02T08:07:57.703Z</time></trkpt><trkpt lat="43.0624084" lon="12.32514"><ele>247.60000000000002</ele><time>2026-04-02T08:07:58.705Z</time></trkpt><trkpt lat="43.0624541" lon="12.3252635"><ele>247.39999999999998</ele><time>2026-04-02T08:07:59.695Z</time></trkpt><trkpt lat="43.0625092" lon="12.3253711"><ele>247.2</ele><time>2026-04-02T08:08:00.698Z</time></trkpt><trkpt lat="43.0625691" lon="12.3254879"><ele>247.0</ele><time>2026-04-02T08:08:01.701Z</time></trkpt><trkpt lat="43.0626306" lon="12.3255872"><ele>247.83333333333331</ele><time>2026-04-02T08:08:02.699Z</time></trkpt><trkpt lat="43.0626984" lon="12.3256732"><ele>248.66666666666666</ele><time>2026-04-02T08:08:03.694Z</time></trkpt><trkpt lat="43.0627611" lon="12.32576"><ele>249.5</ele><time>2026-04-02T08:08:04.702Z</time></trkpt><trkpt lat="43.0628311" lon="12.3258408"><ele>250.33333333333331</ele><time>2026-04-02T08:08:05.702Z</time></trkpt><trkpt lat="43.0628775" lon="12.325927"><ele>251.16666666666666</ele><time>2026-04-02T08:08:06.7Z</time></trkpt><trkpt lat="43.0629307" lon="12.326037"><ele>252.0</ele><time>2026-04-02T08:08:07.701Z</time></trkpt><trkpt lat="43.0629635" lon="12.3261275"><ele>252.0</ele><time>2026-04-02T08:08:08.701Z</time></trkpt><trkpt lat="43.0629949" lon="12.3262049"><ele>252.0</ele><time>2026-04-02T08:08:09.7Z</time></trkpt><trkpt lat="43.0630197" lon="12.3263323"><ele>252.0</ele><time>2026-04-02T08:08:11.697Z</time></trkpt><trkpt lat="43.062915" lon="12.3263154"><ele>252.0</ele><time>2026-04-02T08:08:21.701Z</time></trkpt><trkpt lat="43.0627891" lon="12.3262743"><ele>252.0</ele><time>2026-04-02T08:08:23.699Z</time></trkpt><trkpt lat="43.0627124" lon="12.32625"><ele>252.0</ele><time>2026-04-02T08:08:24.701Z</time></trkpt><trkpt lat="43.0626251" lon="12.3262237"><ele>252.0</ele><time>2026-04-02T08:08:25.695Z</time></trkpt><trkpt lat="43.0625445" lon="12.3261931"><ele>252.0</ele><time>2026-04-02T08:08:26.699Z</time></trkpt><trkpt lat="43.062464" lon="12.3261765"><ele>252.0</ele><time>2026-04-02T08:08:27.698Z</time></trkpt><trkpt lat="43.0623904" lon="12.3261611"><ele>252.0</ele><time>2026-04-02T08:08:28.705Z</time></trkpt><trkpt lat="43.0623277" lon="12.3261461"><ele>252.0</ele><time>2026-04-02T08:08:29.697Z</time></trkpt><trkpt lat="43.0622624" lon="12.3261488"><ele>251.0</ele><time>2026-04-02T08:08:30.697Z</time></trkpt><trkpt lat="43.0621999" lon="12.3261821"><ele>250.0</ele><time>2026-04-02T08:08:31.7Z</time></trkpt><trkpt lat="43.0621206" lon="12.3262488"><ele>249.0</ele><time>2026-04-02T08:08:32.7Z</time></trkpt><trkpt lat="43.0620408" lon="12.326321"><ele>248.0</ele><time>2026-04-02T08:08:33.699Z</time></trkpt><trkpt lat="43.0619645" lon="12.3263901"><ele>247.0</ele><time>2026-04-02T08:08:34.704Z</time></trkpt><trkpt lat="43.0618897" lon="12.326451"><ele>246.0</ele><time>2026-04-02T08:08:35.701Z</time></trkpt><trkpt lat="43.0618114" lon="12.3265212"><ele>245.83333333333334</ele><time>2026-04-02T08:08:36.696Z</time></trkpt><trkpt lat="43.0617305" lon="12.326586"><ele>245.66666666666669</ele><time>2026-04-02T08:08:37.696Z</time></trkpt><trkpt lat="43.0616506" lon="12.3266572"><ele>245.5</ele><time>2026-04-02T08:08:38.696Z</time></trkpt><trkpt lat="43.0615791" lon="12.3267207"><ele>245.33333333333334</ele><time>2026-04-02T08:08:39.695Z</time></trkpt><trkpt lat="43.0615112" lon="12.3267817"><ele>245.16666666666669</ele><time>2026-04-02T08:08:40.696Z</time></trkpt><trkpt lat="43.0614454" lon="12.3268455"><ele>245.0</ele><time>2026-04-02T08:08:41.698Z</time></trkpt><trkpt lat="43.0613904" lon="12.3268996"><ele>244.2</ele><time>2026-04-02T08:08:42.698Z</time></trkpt><trkpt lat="43.0612832" lon="12.3269103"><ele>243.4</ele><time>2026-04-02T08:08:44.698Z</time></trkpt><trkpt lat="43.0611924" lon="12.3267985"><ele>242.60000000000002</ele><time>2026-04-02T08:08:46.696Z</time></trkpt><trkpt lat="43.0611526" lon="12.3267017"><ele>241.8</ele><time>2026-04-02T08:08:47.705Z</time></trkpt><trkpt lat="43.0611117" lon="12.3265961"><ele>241.0</ele><time>2026-04-02T08:08:48.697Z</time></trkpt><trkpt lat="43.0610731" lon="12.326502"><ele>241.0</ele><time>2026-04-02T08:08:49.698Z</time></trkpt><trkpt lat="43.0610335" lon="12.3264241"><ele>241.00000000000003</ele><time>2026-04-02T08:08:50.697Z</time></trkpt><trkpt lat="43.060943" lon="12.3263281"><ele>241.00000000000003</ele><time>2026-04-02T08:08:52.694Z</time></trkpt><trkpt lat="43.0608274" lon="12.3263058"><ele>241.0</ele><time>2026-04-02T08:08:54.701Z</time></trkpt><trkpt lat="43.0607648" lon="12.32628"><ele>241.0</ele><time>2026-04-02T08:08:55.692Z</time></trkpt><trkpt lat="43.0606579" lon="12.3262437"><ele>241.20000000000002</ele><time>2026-04-02T08:08:57.699Z</time></trkpt><trkpt lat="43.0605613" lon="12.3262021"><ele>241.40000000000003</ele><time>2026-04-02T08:08:59.7Z</time></trkpt><trkpt lat="43.0604491" lon="12.3261475"><ele>241.6</ele><time>2026-04-02T08:09:01.702Z</time></trkpt><trkpt lat="43.060344" lon="12.3260978"><ele>241.8</ele><time>2026-04-02T08:09:03.699Z</time></trkpt><trkpt lat="43.0602494" lon="12.3260538"><ele>242.0</ele><time>2026-04-02T08:09:05.696Z</time></trkpt><trkpt lat="43.0601591" lon="12.3260017"><ele>242.00000000000003</ele><time>2026-04-02T08:09:07.7Z</time></trkpt><trkpt lat="43.0600458" lon="12.3259554"><ele>242.0</ele><time>2026-04-02T08:09:09.696Z</time></trkpt><trkpt lat="43.0599795" lon="12.3259371"><ele>242.0</ele><time>2026-04-02T08:09:10.702Z</time></trkpt><trkpt lat="43.0599118" lon="12.3259042"><ele>242.0</ele><time>2026-04-02T08:09:11.694Z</time></trkpt><trkpt lat="43.059836" lon="12.325875"><ele>242.00000000000003</ele><time>2026-04-02T08:09:12.696Z</time></trkpt><trkpt lat="43.0597692" lon="12.325845"><ele>242.0</ele><time>2026-04-02T08:09:13.697Z</time></trkpt><trkpt lat="43.0597146" lon="12.3258003"><ele>242.6</ele><time>2026-04-02T08:09:14.696Z</time></trkpt><trkpt lat="43.059611" lon="12.3256997"><ele>243.2</ele><time>2026-04-02T08:09:16.698Z</time></trkpt><trkpt lat="43.0595576" lon="12.3256272"><ele>243.8</ele><time>2026-04-02T08:09:17.699Z</time></trkpt><trkpt lat="43.0594987" lon="12.3255587"><ele>244.4</ele><time>2026-04-02T08:09:18.697Z</time></trkpt><trkpt lat="43.0593973" lon="12.3254772"><ele>245.0</ele><time>2026-04-02T08:09:20.7Z</time></trkpt><trkpt lat="43.0592977" lon="12.3254672"><ele>245.0</ele><time>2026-04-02T08:09:22.699Z</time></trkpt><trkpt lat="43.0591795" lon="12.3255393"><ele>245.0</ele><time>2026-04-02T08:09:24.701Z</time></trkpt><trkpt lat="43.0591158" lon="12.325595"><ele>245.0</ele><time>2026-04-02T08:09:25.707Z</time></trkpt><trkpt lat="43.0590275" lon="12.3256651"><ele>245.0</ele><time>2026-04-02T08:09:26.701Z</time></trkpt><trkpt lat="43.0589427" lon="12.3257381"><ele>245.0</ele><time>2026-04-02T08:09:27.701Z</time></trkpt><trkpt lat="43.0588551" lon="12.3258031"><ele>246.6</ele><time>2026-04-02T08:09:28.699Z</time></trkpt><trkpt lat="43.0587722" lon="12.3258799"><ele>248.2</ele><time>2026-04-02T08:09:29.701Z</time></trkpt><trkpt lat="43.0586838" lon="12.3259602"><ele>249.8</ele><time>2026-04-02T08:09:30.699Z</time></trkpt><trkpt lat="43.0585918" lon="12.3260349"><ele>251.4</ele><time>2026-04-02T08:09:31.696Z</time></trkpt><trkpt lat="43.058497" lon="12.3261122"><ele>253.0</ele><time>2026-04-02T08:09:32.694Z</time></trkpt><trkpt lat="43.0584146" lon="12.3261856"><ele>252.99999999999997</ele><time>2026-04-02T08:09:33.701Z</time></trkpt><trkpt lat="43.0583375" lon="12.326258"><ele>253.0</ele><time>2026-04-02T08:09:34.694Z</time></trkpt><trkpt lat="43.0582582" lon="12.3263281"><ele>253.0</ele><time>2026-04-02T08:09:35.703Z</time></trkpt><trkpt lat="43.0581879" lon="12.326387"><ele>253.0</ele><time>2026-04-02T08:09:36.701Z</time></trkpt><trkpt lat="43.0581168" lon="12.3264478"><ele>252.99999999999997</ele><time>2026-04-02T08:09:37.7Z</time></trkpt><trkpt lat="43.0580532" lon="12.3264937"><ele>253.0</ele><time>2026-04-02T08:09:38.694Z</time></trkpt><trkpt lat="43.0579883" lon="12.3265385"><ele>254.99999999999997</ele><time>2026-04-02T08:09:39.697Z</time></trkpt><trkpt lat="43.0579275" lon="12.3265665"><ele>257.0</ele><time>2026-04-02T08:09:40.698Z</time></trkpt><trkpt lat="43.0578582" lon="12.3265647"><ele>259.0</ele><time>2026-04-02T08:09:41.7Z</time></trkpt><trkpt lat="43.0577847" lon="12.3265682"><ele>261.0</ele><time>2026-04-02T08:09:42.696Z</time></trkpt><trkpt lat="43.0577027" lon="12.3265975"><ele>263.0</ele><time>2026-04-02T08:09:43.703Z</time></trkpt><trkpt lat="43.0576155" lon="12.3266247"><ele>265.0</ele><time>2026-04-02T08:09:44.701Z</time></trkpt><trkpt lat="43.0575301" lon="12.3266662"><ele>265.0</ele><time>2026-04-02T08:09:45.699Z</time></trkpt><trkpt lat="43.0574655" lon="12.3266933"><ele>265.0</ele><time>2026-04-02T08:09:46.696Z</time></trkpt><trkpt lat="43.0573977" lon="12.3267275"><ele>265.0</ele><time>2026-04-02T08:09:47.699Z</time></trkpt><trkpt lat="43.0573274" lon="12.3267741"><ele>265.0</ele><time>2026-04-02T08:09:48.704Z</time></trkpt><trkpt lat="43.0572561" lon="12.3268173"><ele>265.0</ele><time>2026-04-02T08:09:49.704Z</time></trkpt><trkpt lat="43.0571741" lon="12.3268763"><ele>265.0</ele><time>2026-04-02T08:09:50.704Z</time></trkpt><trkpt lat="43.0570879" lon="12.3269321"><ele>266.4</ele><time>2026-04-02T08:09:51.697Z</time></trkpt><trkpt lat="43.0569911" lon="12.327003"><ele>267.8</ele><time>2026-04-02T08:09:52.704Z</time></trkpt><trkpt lat="43.056897" lon="12.3270633"><ele>269.2</ele><time>2026-04-02T08:09:53.698Z</time></trkpt><trkpt lat="43.0568109" lon="12.3271376"><ele>270.6</ele><time>2026-04-02T08:09:54.698Z</time></trkpt><trkpt lat="43.0567145" lon="12.3272146"><ele>272.0</ele><time>2026-04-02T08:09:55.707Z</time></trkpt><trkpt lat="43.0566146" lon="12.3272939"><ele>273.75</ele><time>2026-04-02T08:09:56.695Z</time></trkpt><trkpt lat="43.0565103" lon="12.3273794"><ele>275.5</ele><time>2026-04-02T08:09:57.701Z</time></trkpt><trkpt lat="43.0564065" lon="12.3274708"><ele>277.25</ele><time>2026-04-02T08:09:58.696Z</time></trkpt><trkpt lat="43.056295" lon="12.3275648"><ele>279.0</ele><time>2026-04-02T08:09:59.7Z</time></trkpt><trkpt lat="43.0561858" lon="12.3276604"><ele>279.0</ele><time>2026-04-02T08:10:00.696Z</time></trkpt><trkpt lat="43.0560743" lon="12.3277612"><ele>279.0</ele><time>2026-04-02T08:10:01.698Z</time></trkpt><trkpt lat="43.0559664" lon="12.3278598"><ele>279.0</ele><time>2026-04-02T08:10:02.698Z</time></trkpt><trkpt lat="43.0558604" lon="12.3279612"><ele>279.0</ele><time>2026-04-02T08:10:03.702Z</time></trkpt><trkpt lat="43.0557493" lon="12.3280598"><ele>280.0</ele><time>2026-04-02T08:10:04.7Z</time></trkpt><trkpt lat="43.0556489" lon="12.3281535"><ele>281.0</ele><time>2026-04-02T08:10:05.701Z</time></trkpt><trkpt lat="43.0555516" lon="12.3282384"><ele>282.0</ele><time>2026-04-02T08:10:06.697Z</time></trkpt><trkpt lat="43.0554503" lon="12.32833"><ele>283.0</ele><time>2026-04-02T08:10:07.697Z</time></trkpt><trkpt lat="43.055355" lon="12.3284201"><ele>283.0</ele><time>2026-04-02T08:10:08.702Z</time></trkpt><trkpt lat="43.0552767" lon="12.328497"><ele>283.0</ele><time>2026-04-02T08:10:09.696Z</time></trkpt><trkpt lat="43.0551814" lon="12.328583"><ele>283.0</ele><time>2026-04-02T08:10:10.694Z</time></trkpt><trkpt lat="43.0550803" lon="12.3285697"><ele>283.0</ele><time>2026-04-02T08:10:11.699Z</time></trkpt><trkpt lat="43.0549808" lon="12.3285497"><ele>283.0</ele><time>2026-04-02T08:10:12.7Z</time></trkpt><trkpt lat="43.0548763" lon="12.3285118"><ele>284.0</ele><time>2026-04-02T08:10:13.699Z</time></trkpt><trkpt lat="43.0547697" lon="12.328445"><ele>285.0</ele><time>2026-04-02T08:10:14.701Z</time></trkpt><trkpt lat="43.0546512" lon="12.3283895"><ele>286.0</ele><time>2026-04-02T08:10:15.697Z</time></trkpt><trkpt lat="43.0545297" lon="12.3283421"><ele>287.0</ele><time>2026-04-02T08:10:16.697Z</time></trkpt><trkpt lat="43.0544137" lon="12.3282821"><ele>287.0</ele><time>2026-04-02T08:10:17.695Z</time></trkpt><trkpt lat="43.0542991" lon="12.3282385"><ele>287.0</ele><time>2026-04-02T08:10:18.697Z</time></trkpt><trkpt lat="43.0541644" lon="12.328188"><ele>287.0</ele><time>2026-04-02T08:10:19.696Z</time></trkpt><trkpt lat="43.054031" lon="12.3281394"><ele>287.0</ele><time>2026-04-02T08:10:20.701Z</time></trkpt><trkpt lat="43.0539111" lon="12.3280918"><ele>287.4</ele><time>2026-04-02T08:10:21.696Z</time></trkpt><trkpt lat="43.0538001" lon="12.3280467"><ele>287.79999999999995</ele><time>2026-04-02T08:10:22.7Z</time></trkpt><trkpt lat="43.0537057" lon="12.3280001"><ele>288.2</ele><time>2026-04-02T08:10:23.699Z</time></trkpt><trkpt lat="43.0536172" lon="12.3279638"><ele>288.59999999999997</ele><time>2026-04-02T08:10:24.698Z</time></trkpt><trkpt lat="43.0535398" lon="12.32794"><ele>289.0</ele><time>2026-04-02T08:10:25.707Z</time></trkpt><trkpt lat="43.0534598" lon="12.3279601"><ele>289.0</ele><time>2026-04-02T08:10:26.696Z</time></trkpt><trkpt lat="43.0534039" lon="12.3280212"><ele>289.0</ele><time>2026-04-02T08:10:27.7Z</time></trkpt><trkpt lat="43.0533533" lon="12.3281017"><ele>289.0</ele><time>2026-04-02T08:10:28.699Z</time></trkpt><trkpt lat="43.0533231" lon="12.3282346"><ele>289.0</ele><time>2026-04-02T08:10:29.7Z</time></trkpt><trkpt lat="43.0533153" lon="12.3284049"><ele>289.0</ele><time>2026-04-02T08:10:30.698Z</time></trkpt><trkpt lat="43.0532901" lon="12.3285731"><ele>290.2</ele><time>2026-04-02T08:10:31.694Z</time></trkpt><trkpt lat="43.053273" lon="12.3287263"><ele>291.4</ele><time>2026-04-02T08:10:32.698Z</time></trkpt><trkpt lat="43.0532401" lon="12.3288549"><ele>292.6</ele><time>2026-04-02T08:10:33.699Z</time></trkpt><trkpt lat="43.0532116" lon="12.3289845"><ele>293.8</ele><time>2026-04-02T08:10:34.699Z</time></trkpt><trkpt lat="43.053178" lon="12.3291012"><ele>295.0</ele><time>2026-04-02T08:10:35.701Z</time></trkpt><trkpt lat="43.0531405" lon="12.329179"><ele>295.0</ele><time>2026-04-02T08:10:36.702Z</time></trkpt><trkpt lat="43.0530679" lon="12.329185"><ele>295.0</ele><time>2026-04-02T08:10:37.701Z</time></trkpt><trkpt lat="43.0530065" lon="12.329206"><ele>295.0</ele><time>2026-04-02T08:10:38.702Z</time></trkpt><trkpt lat="43.0529438" lon="12.3291882"><ele>295.0</ele><time>2026-04-02T08:10:39.697Z</time></trkpt><trkpt lat="43.0528277" lon="12.3291515"><ele>295.0</ele><time>2026-04-02T08:10:40.701Z</time></trkpt><trkpt lat="43.0527569" lon="12.3291414"><ele>295.0</ele><time>2026-04-02T08:10:41.697Z</time></trkpt><trkpt lat="43.0526736" lon="12.3291033"><ele>295.0</ele><time>2026-04-02T08:10:42.699Z</time></trkpt><trkpt lat="43.0526129" lon="12.3290744"><ele>295.0</ele><time>2026-04-02T08:10:44.699Z</time></trkpt><trkpt lat="43.0525207" lon="12.3290318"><ele>295.0</ele><time>2026-04-02T08:10:54.698Z</time></trkpt><trkpt lat="43.0524194" lon="12.3289877"><ele>295.0</ele><time>2026-04-02T08:10:56.705Z</time></trkpt><trkpt lat="43.0523478" lon="12.3289592"><ele>295.0</ele><time>2026-04-02T08:10:57.698Z</time></trkpt><trkpt lat="43.052275" lon="12.328929"><ele>295.0</ele><time>2026-04-02T08:10:58.695Z</time></trkpt><trkpt lat="43.0521816" lon="12.3288855"><ele>295.4</ele><time>2026-04-02T08:10:59.698Z</time></trkpt><trkpt lat="43.0520753" lon="12.3288464"><ele>295.8</ele><time>2026-04-02T08:11:00.695Z</time></trkpt><trkpt lat="43.0519692" lon="12.3288144"><ele>296.2</ele><time>2026-04-02T08:11:01.696Z</time></trkpt><trkpt lat="43.0518653" lon="12.3287715"><ele>296.6</ele><time>2026-04-02T08:11:02.699Z</time></trkpt><trkpt lat="43.0517612" lon="12.3287263"><ele>297.0</ele><time>2026-04-02T08:11:03.698Z</time></trkpt><trkpt lat="43.051669" lon="12.3286985"><ele>296.8333333333333</ele><time>2026-04-02T08:11:04.698Z</time></trkpt><trkpt lat="43.0515943" lon="12.3286747"><ele>296.6666666666667</ele><time>2026-04-02T08:11:05.7Z</time></trkpt><trkpt lat="43.0515264" lon="12.3286494"><ele>296.5</ele><time>2026-04-02T08:11:06.699Z</time></trkpt><trkpt lat="43.0514167" lon="12.3286486"><ele>296.33333333333337</ele><time>2026-04-02T08:11:08.697Z</time></trkpt><trkpt lat="43.0513887" lon="12.3287457"><ele>296.1666666666667</ele><time>2026-04-02T08:11:09.709Z</time></trkpt><trkpt lat="43.0513662" lon="12.3288338"><ele>296.0</ele><time>2026-04-02T08:11:10.702Z</time></trkpt><trkpt lat="43.0513533" lon="12.328948"><ele>295.8</ele><time>2026-04-02T08:11:11.7Z</time></trkpt><trkpt lat="43.0513448" lon="12.3290688"><ele>295.6</ele><time>2026-04-02T08:11:12.699Z</time></trkpt><trkpt lat="43.0513563" lon="12.3292109"><ele>295.4</ele><time>2026-04-02T08:11:13.697Z</time></trkpt><trkpt lat="43.0513659" lon="12.3293538"><ele>295.2</ele><time>2026-04-02T08:11:14.7Z</time></trkpt><trkpt lat="43.0513732" lon="12.3294925"><ele>295.0</ele><time>2026-04-02T08:11:15.702Z</time></trkpt><trkpt lat="43.0513844" lon="12.3296094"><ele>295.0</ele><time>2026-04-02T08:11:16.701Z</time></trkpt><trkpt lat="43.0513816" lon="12.3297007"><ele>295.0</ele><time>2026-04-02T08:11:17.699Z</time></trkpt><trkpt lat="43.0513775" lon="12.3298542"><ele>295.0</ele><time>2026-04-02T08:11:19.702Z</time></trkpt><trkpt lat="43.0513605" lon="12.3299678"><ele>295.0</ele><time>2026-04-02T08:11:34.697Z</time></trkpt><trkpt lat="43.0514048" lon="12.3298414"><ele>295.0</ele><time>2026-04-02T08:11:38.704Z</time></trkpt><trkpt lat="43.0514079" lon="12.3297541"><ele>295.0</ele><time>2026-04-02T08:11:39.702Z</time></trkpt><trkpt lat="43.0513999" lon="12.3296548"><ele>295.0</ele><time>2026-04-02T08:11:40.698Z</time></trkpt><trkpt lat="43.0513911" lon="12.3295293"><ele>295.0</ele><time>2026-04-02T08:11:41.703Z</time></trkpt><trkpt lat="43.0513842" lon="12.3293869"><ele>295.0</ele><time>2026-04-02T08:11:42.695Z</time></trkpt><trkpt lat="43.0513748" lon="12.3292466"><ele>295.0</ele><time>2026-04-02T08:11:43.701Z</time></trkpt><trkpt lat="43.0513639" lon="12.3291026"><ele>295.0</ele><time>2026-04-02T08:11:44.697Z</time></trkpt><trkpt lat="43.0513564" lon="12.3289868"><ele>295.2</ele><time>2026-04-02T08:11:45.697Z</time></trkpt><trkpt lat="43.0513401" lon="12.3288559"><ele>295.4</ele><time>2026-04-02T08:11:46.696Z</time></trkpt><trkpt lat="43.0512813" lon="12.3287042"><ele>295.6</ele><time>2026-04-02T08:11:47.701Z</time></trkpt><trkpt lat="43.0512459" lon="12.328577"><ele>295.8</ele><time>2026-04-02T08:11:48.7Z</time></trkpt><trkpt lat="43.0511916" lon="12.3284339"><ele>296.0</ele><time>2026-04-02T08:11:49.7Z</time></trkpt><trkpt lat="43.0511341" lon="12.3283098"><ele>296.0</ele><time>2026-04-02T08:11:50.699Z</time></trkpt><trkpt lat="43.0510583" lon="12.3281922"><ele>296.0</ele><time>2026-04-02T08:11:51.7Z</time></trkpt><trkpt lat="43.0509718" lon="12.3281015"><ele>296.0</ele><time>2026-04-02T08:11:52.698Z</time></trkpt><trkpt lat="43.0508962" lon="12.3280349"><ele>296.0</ele><time>2026-04-02T08:11:53.704Z</time></trkpt><trkpt lat="43.050813" lon="12.3279696"><ele>296.0</ele><time>2026-04-02T08:11:54.699Z</time></trkpt><trkpt lat="43.0507493" lon="12.3279097"><ele>295.6666666666667</ele><time>2026-04-02T08:11:55.698Z</time></trkpt><trkpt lat="43.0506851" lon="12.3278553"><ele>295.33333333333337</ele><time>2026-04-02T08:11:56.696Z</time></trkpt><trkpt lat="43.0506283" lon="12.3277977"><ele>295.0</ele><time>2026-04-02T08:11:57.698Z</time></trkpt><trkpt lat="43.0505733" lon="12.3277299"><ele>294.6666666666667</ele><time>2026-04-02T08:11:58.701Z</time></trkpt><trkpt lat="43.0505085" lon="12.3276575"><ele>294.3333333333333</ele><time>2026-04-02T08:11:59.696Z</time></trkpt><trkpt lat="43.050418" lon="12.3275846"><ele>294.0</ele><time>2026-04-02T08:12:00.698Z</time></trkpt><trkpt lat="43.0503325" lon="12.3274951"><ele>294.0</ele><time>2026-04-02T08:12:01.702Z</time></trkpt><trkpt lat="43.0502371" lon="12.3274137"><ele>294.0</ele><time>2026-04-02T08:12:02.699Z</time></trkpt><trkpt lat="43.0501493" lon="12.3273424"><ele>294.0</ele><time>2026-04-02T08:12:03.7Z</time></trkpt><trkpt lat="43.0500759" lon="12.32726"><ele>294.0</ele><time>2026-04-02T08:12:04.697Z</time></trkpt><trkpt lat="43.0500118" lon="12.3271942"><ele>294.0</ele><time>2026-04-02T08:12:05.699Z</time></trkpt><trkpt lat="43.0499465" lon="12.3271312"><ele>293.8</ele><time>2026-04-02T08:12:06.704Z</time></trkpt><trkpt lat="43.0498759" lon="12.3270688"><ele>293.59999999999997</ele><time>2026-04-02T08:12:07.698Z</time></trkpt><trkpt lat="43.0497961" lon="12.3269972"><ele>293.4</ele><time>2026-04-02T08:12:08.694Z</time></trkpt><trkpt lat="43.049715" lon="12.326919"><ele>293.2</ele><time>2026-04-02T08:12:09.7Z</time></trkpt><trkpt lat="43.0496299" lon="12.3268395"><ele>293.0</ele><time>2026-04-02T08:12:10.701Z</time></trkpt><trkpt lat="43.0495491" lon="12.3267704"><ele>293.0</ele><time>2026-04-02T08:12:11.703Z</time></trkpt><trkpt lat="43.0494692" lon="12.326711"><ele>293.0</ele><time>2026-04-02T08:12:12.696Z</time></trkpt><trkpt lat="43.0494094" lon="12.3266477"><ele>293.0</ele><time>2026-04-02T08:12:13.694Z</time></trkpt><trkpt lat="43.0493587" lon="12.3265725"><ele>293.0</ele><time>2026-04-02T08:12:14.701Z</time></trkpt><trkpt lat="43.0493508" lon="12.3264827"><ele>293.0</ele><time>2026-04-02T08:12:15.701Z</time></trkpt><trkpt lat="43.0493682" lon="12.326363"><ele>293.0</ele><time>2026-04-02T08:12:16.705Z</time></trkpt><trkpt lat="43.0494095" lon="12.3262358"><ele>293.0</ele><time>2026-04-02T08:12:17.702Z</time></trkpt><trkpt lat="43.0494867" lon="12.3261009"><ele>293.0</ele><time>2026-04-02T08:12:18.696Z</time></trkpt><trkpt lat="43.0495772" lon="12.3259684"><ele>293.0</ele><time>2026-04-02T08:12:19.699Z</time></trkpt><trkpt lat="43.04966" lon="12.3258262"><ele>293.0</ele><time>2026-04-02T08:12:20.702Z</time></trkpt><trkpt lat="43.0497304" lon="12.3256829"><ele>291.8</ele><time>2026-04-02T08:12:21.706Z</time></trkpt><trkpt lat="43.0497959" lon="12.3255528"><ele>290.6</ele><time>2026-04-02T08:12:22.703Z</time></trkpt><trkpt lat="43.0498616" lon="12.3254376"><ele>289.4</ele><time>2026-04-02T08:12:23.697Z</time></trkpt><trkpt lat="43.0499062" lon="12.3253471"><ele>288.2</ele><time>2026-04-02T08:12:24.705Z</time></trkpt><trkpt lat="43.0499333" lon="12.325249"><ele>287.0</ele><time>2026-04-02T08:12:25.698Z</time></trkpt><trkpt lat="43.0499321" lon="12.3251474"><ele>287.0</ele><time>2026-04-02T08:12:26.699Z</time></trkpt><trkpt lat="43.0499054" lon="12.3250415"><ele>287.0</ele><time>2026-04-02T08:12:27.697Z</time></trkpt><trkpt lat="43.049847" lon="12.3249307"><ele>287.0</ele><time>2026-04-02T08:12:28.7Z</time></trkpt><trkpt lat="43.0497796" lon="12.3248282"><ele>287.0</ele><time>2026-04-02T08:12:29.702Z</time></trkpt><trkpt lat="43.0497013" lon="12.3247231"><ele>287.0</ele><time>2026-04-02T08:12:30.697Z</time></trkpt><trkpt lat="43.0496261" lon="12.3246093"><ele>285.5</ele><time>2026-04-02T08:12:31.704Z</time></trkpt><trkpt lat="43.0495396" lon="12.3244811"><ele>284.0</ele><time>2026-04-02T08:12:32.7Z</time></trkpt><trkpt lat="43.0494652" lon="12.3243454"><ele>282.5</ele><time>2026-04-02T08:12:33.699Z</time></trkpt><trkpt lat="43.049392" lon="12.3241957"><ele>281.0</ele><time>2026-04-02T08:12:34.696Z</time></trkpt><trkpt lat="43.0493184" lon="12.3240505"><ele>281.0</ele><time>2026-04-02T08:12:35.698Z</time></trkpt><trkpt lat="43.0492461" lon="12.323914"><ele>281.0</ele><time>2026-04-02T08:12:36.698Z</time></trkpt><trkpt lat="43.0491704" lon="12.3237817"><ele>281.0</ele><time>2026-04-02T08:12:37.697Z</time></trkpt><trkpt lat="43.0490938" lon="12.3236469"><ele>281.0</ele><time>2026-04-02T08:12:38.706Z</time></trkpt><trkpt lat="43.0490175" lon="12.3235119"><ele>281.25</ele><time>2026-04-02T08:12:39.699Z</time></trkpt><trkpt lat="43.0489473" lon="12.3233818"><ele>281.5</ele><time>2026-04-02T08:12:40.694Z</time></trkpt><trkpt lat="43.0489036" lon="12.3232252"><ele>281.75</ele><time>2026-04-02T08:12:41.7Z</time></trkpt><trkpt lat="43.0488514" lon="12.3230604"><ele>282.0</ele><time>2026-04-02T08:12:42.702Z</time></trkpt><trkpt lat="43.0487931" lon="12.3228987"><ele>282.0</ele><time>2026-04-02T08:12:43.704Z</time></trkpt><trkpt lat="43.0487368" lon="12.3227472"><ele>282.0</ele><time>2026-04-02T08:12:44.699Z</time></trkpt><trkpt lat="43.0486739" lon="12.3226179"><ele>282.0</ele><time>2026-04-02T08:12:45.697Z</time></trkpt><trkpt lat="43.0486029" lon="12.3225143"><ele>282.0</ele><time>2026-04-02T08:12:46.701Z</time></trkpt><trkpt lat="43.0485151" lon="12.3224134"><ele>282.0</ele><time>2026-04-02T08:12:47.698Z</time></trkpt><trkpt lat="43.0484016" lon="12.3223155"><ele>282.0</ele><time>2026-04-02T08:12:48.701Z</time></trkpt><trkpt lat="43.0482887" lon="12.3222048"><ele>282.0</ele><time>2026-04-02T08:12:49.708Z</time></trkpt><trkpt lat="43.0481783" lon="12.3220819"><ele>282.0</ele><time>2026-04-02T08:12:50.708Z</time></trkpt><trkpt lat="43.0480617" lon="12.3219393"><ele>281.3333333333333</ele><time>2026-04-02T08:12:51.702Z</time></trkpt><trkpt lat="43.0479556" lon="12.3217727"><ele>280.66666666666663</ele><time>2026-04-02T08:12:52.7Z</time></trkpt><trkpt lat="43.0478781" lon="12.321601"><ele>280.0</ele><time>2026-04-02T08:12:53.698Z</time></trkpt><trkpt lat="43.0478122" lon="12.3214175"><ele>278.3333333333333</ele><time>2026-04-02T08:12:54.7Z</time></trkpt><trkpt lat="43.0477514" lon="12.3212222"><ele>276.6666666666667</ele><time>2026-04-02T08:12:55.7Z</time></trkpt><trkpt lat="43.0476889" lon="12.3210149"><ele>275.0</ele><time>2026-04-02T08:12:56.699Z</time></trkpt><trkpt lat="43.0476269" lon="12.3207984"><ele>275.0</ele><time>2026-04-02T08:12:57.698Z</time></trkpt><trkpt lat="43.0475683" lon="12.3205935"><ele>275.0</ele><time>2026-04-02T08:12:58.702Z</time></trkpt><trkpt lat="43.047507" lon="12.3203924"><ele>275.0</ele><time>2026-04-02T08:12:59.699Z</time></trkpt><trkpt lat="43.0474468" lon="12.3201866"><ele>273.0</ele><time>2026-04-02T08:13:00.706Z</time></trkpt><trkpt lat="43.0473905" lon="12.3199793"><ele>271.0</ele><time>2026-04-02T08:13:01.702Z</time></trkpt><trkpt lat="43.0473387" lon="12.3197902"><ele>269.0</ele><time>2026-04-02T08:13:02.699Z</time></trkpt><trkpt lat="43.0472822" lon="12.3195986"><ele>267.75</ele><time>2026-04-02T08:13:03.7Z</time></trkpt><trkpt lat="43.0472249" lon="12.3194209"><ele>266.5</ele><time>2026-04-02T08:13:04.697Z</time></trkpt><trkpt lat="43.0471737" lon="12.3192436"><ele>265.25</ele><time>2026-04-02T08:13:05.7Z</time></trkpt><trkpt lat="43.0471252" lon="12.3190742"><ele>264.0</ele><time>2026-04-02T08:13:06.695Z</time></trkpt><trkpt lat="43.0470884" lon="12.3189351"><ele>263.3333333333333</ele><time>2026-04-02T08:13:07.701Z</time></trkpt><trkpt lat="43.0470453" lon="12.3188268"><ele>262.6666666666667</ele><time>2026-04-02T08:13:08.701Z</time></trkpt><trkpt lat="43.0469956" lon="12.3187543"><ele>262.0</ele><time>2026-04-02T08:13:09.702Z</time></trkpt><trkpt lat="43.0469046" lon="12.3187092"><ele>261.33333333333337</ele><time>2026-04-02T08:13:11.7Z</time></trkpt><trkpt lat="43.0468125" lon="12.3186974"><ele>260.6666666666667</ele><time>2026-04-02T08:13:19.701Z</time></trkpt><trkpt lat="43.0467588" lon="12.3187488"><ele>260.0</ele><time>2026-04-02T08:13:20.701Z</time></trkpt><trkpt lat="43.0466965" lon="12.3187747"><ele>261.0</ele><time>2026-04-02T08:13:21.697Z</time></trkpt><trkpt lat="43.0466146" lon="12.3188061"><ele>262.0</ele><time>2026-04-02T08:13:22.699Z</time></trkpt><trkpt lat="43.0465349" lon="12.3188384"><ele>263.0</ele><time>2026-04-02T08:13:23.698Z</time></trkpt><trkpt lat="43.0464353" lon="12.3188793"><ele>264.0</ele><time>2026-04-02T08:13:24.7Z</time></trkpt><trkpt lat="43.0463271" lon="12.3189265"><ele>265.0</ele><time>2026-04-02T08:13:25.701Z</time></trkpt><trkpt lat="43.0462142" lon="12.3189701"><ele>265.4</ele><time>2026-04-02T08:13:26.702Z</time></trkpt><trkpt lat="43.0461004" lon="12.3190142"><ele>265.8</ele><time>2026-04-02T08:13:27.695Z</time></trkpt><trkpt lat="43.0459924" lon="12.3190559"><ele>266.2</ele><time>2026-04-02T08:13:28.702Z</time></trkpt><trkpt lat="43.0458916" lon="12.3190975"><ele>266.6</ele><time>2026-04-02T08:13:29.701Z</time></trkpt><trkpt lat="43.0457904" lon="12.3191413"><ele>267.0</ele><time>2026-04-02T08:13:30.699Z</time></trkpt><trkpt lat="43.0456996" lon="12.3191795"><ele>267.0</ele><time>2026-04-02T08:13:31.702Z</time></trkpt><trkpt lat="43.0456214" lon="12.3192034"><ele>267.0</ele><time>2026-04-02T08:13:32.7Z</time></trkpt><trkpt lat="43.0455566" lon="12.3192075"><ele>267.0</ele><time>2026-04-02T08:13:33.697Z</time></trkpt><trkpt lat="43.0454723" lon="12.3191335"><ele>267.0</ele><time>2026-04-02T08:13:35.698Z</time></trkpt><trkpt lat="43.0454316" lon="12.3190383"><ele>267.0</ele><time>2026-04-02T08:13:36.697Z</time></trkpt><trkpt lat="43.0453902" lon="12.3189262"><ele>267.0</ele><time>2026-04-02T08:13:37.697Z</time></trkpt><trkpt lat="43.0453421" lon="12.3187964"><ele>266.5</ele><time>2026-04-02T08:13:38.699Z</time></trkpt><trkpt lat="43.0452938" lon="12.3186633"><ele>266.0</ele><time>2026-04-02T08:13:39.697Z</time></trkpt><trkpt lat="43.0452444" lon="12.3185135"><ele>265.5</ele><time>2026-04-02T08:13:40.7Z</time></trkpt><trkpt lat="43.0451939" lon="12.3183618"><ele>265.0</ele><time>2026-04-02T08:13:41.697Z</time></trkpt><trkpt lat="43.0451411" lon="12.3182042"><ele>264.25</ele><time>2026-04-02T08:13:42.7Z</time></trkpt><trkpt lat="43.0450837" lon="12.3180452"><ele>263.5</ele><time>2026-04-02T08:13:43.699Z</time></trkpt><trkpt lat="43.0450233" lon="12.3178898"><ele>262.75</ele><time>2026-04-02T08:13:44.702Z</time></trkpt><trkpt lat="43.0449637" lon="12.3177386"><ele>262.0</ele><time>2026-04-02T08:13:45.699Z</time></trkpt><trkpt lat="43.0449133" lon="12.3175927"><ele>261.5</ele><time>2026-04-02T08:13:46.708Z</time></trkpt><trkpt lat="43.0448634" lon="12.3174497"><ele>261.0</ele><time>2026-04-02T08:13:47.697Z</time></trkpt><trkpt lat="43.0448101" lon="12.3173096"><ele>260.5</ele><time>2026-04-02T08:13:48.701Z</time></trkpt><trkpt lat="43.0447528" lon="12.3171437"><ele>260.0</ele><time>2026-04-02T08:13:49.7Z</time></trkpt><trkpt lat="43.0446939" lon="12.3169795"><ele>260.0</ele><time>2026-04-02T08:13:50.698Z</time></trkpt><trkpt lat="43.0446365" lon="12.3168226"><ele>260.0</ele><time>2026-04-02T08:13:51.702Z</time></trkpt><trkpt lat="43.0445875" lon="12.3166804"><ele>260.0</ele><time>2026-04-02T08:13:52.704Z</time></trkpt><trkpt lat="43.0445327" lon="12.31652"><ele>260.0</ele><time>2026-04-02T08:13:53.706Z</time></trkpt><trkpt lat="43.0444791" lon="12.3163707"><ele>260.25</ele><time>2026-04-02T08:13:54.704Z</time></trkpt><trkpt lat="43.0444271" lon="12.3162194"><ele>260.5</ele><time>2026-04-02T08:13:55.696Z</time></trkpt><trkpt lat="43.0443684" lon="12.3160845"><ele>260.75</ele><time>2026-04-02T08:13:56.698Z</time></trkpt><trkpt lat="43.0443101" lon="12.3159542"><ele>261.0</ele><time>2026-04-02T08:13:57.699Z</time></trkpt><trkpt lat="43.0442612" lon="12.3158216"><ele>261.0</ele><time>2026-04-02T08:13:58.701Z</time></trkpt><trkpt lat="43.0442048" lon="12.3156831"><ele>261.0</ele><time>2026-04-02T08:13:59.703Z</time></trkpt><trkpt lat="43.0441379" lon="12.3155308"><ele>261.0</ele><time>2026-04-02T08:14:00.697Z</time></trkpt><trkpt lat="43.0440749" lon="12.3153865"><ele>261.0</ele><time>2026-04-02T08:14:01.698Z</time></trkpt><trkpt lat="43.0440012" lon="12.3152327"><ele>260.25</ele><time>2026-04-02T08:14:02.693Z</time></trkpt><trkpt lat="43.0439371" lon="12.3150751"><ele>259.5</ele><time>2026-04-02T08:14:03.695Z</time></trkpt><trkpt lat="43.0438741" lon="12.3149274"><ele>258.75</ele><time>2026-04-02T08:14:04.697Z</time></trkpt><trkpt lat="43.0438156" lon="12.3147927"><ele>258.0</ele><time>2026-04-02T08:14:05.696Z</time></trkpt><trkpt lat="43.043754" lon="12.3146543"><ele>258.0</ele><time>2026-04-02T08:14:06.701Z</time></trkpt><trkpt lat="43.0436907" lon="12.3145046"><ele>258.0</ele><time>2026-04-02T08:14:07.698Z</time></trkpt><trkpt lat="43.0436304" lon="12.3143564"><ele>258.0</ele><time>2026-04-02T08:14:08.703Z</time></trkpt><trkpt lat="43.0435719" lon="12.3142102"><ele>258.0</ele><time>2026-04-02T08:14:09.698Z</time></trkpt><trkpt lat="43.0435177" lon="12.3140817"><ele>258.0</ele><time>2026-04-02T08:14:10.697Z</time></trkpt><trkpt lat="43.0434584" lon="12.3139641"><ele>258.0</ele><time>2026-04-02T08:14:11.703Z</time></trkpt><trkpt lat="43.0434119" lon="12.3138636"><ele>258.0</ele><time>2026-04-02T08:14:12.698Z</time></trkpt><trkpt lat="43.0433728" lon="12.313767"><ele>258.0</ele><time>2026-04-02T08:14:13.702Z</time></trkpt><trkpt lat="43.0433381" lon="12.3136813"><ele>258.0</ele><time>2026-04-02T08:14:14.703Z</time></trkpt><trkpt lat="43.0432928" lon="12.3135505"><ele>258.0</ele><time>2026-04-02T08:14:16.703Z</time></trkpt><trkpt lat="43.0432554" lon="12.3134378"><ele>256.6</ele><time>2026-04-02T08:14:18.698Z</time></trkpt><trkpt lat="43.0432211" lon="12.3133585"><ele>255.20000000000002</ele><time>2026-04-02T08:14:21.701Z</time></trkpt><trkpt lat="43.0431744" lon="12.3132305"><ele>253.8</ele><time>2026-04-02T08:14:55.699Z</time></trkpt><trkpt lat="43.0431457" lon="12.313152"><ele>252.4</ele><time>2026-04-02T08:14:56.696Z</time></trkpt><trkpt lat="43.0430741" lon="12.3129669"><ele>251.0</ele><time>2026-04-02T08:14:58.694Z</time></trkpt><trkpt lat="43.0430265" lon="12.3128342"><ele>251.0</ele><time>2026-04-02T08:14:59.698Z</time></trkpt><trkpt lat="43.0429677" lon="12.3126883"><ele>251.0</ele><time>2026-04-02T08:15:00.701Z</time></trkpt><trkpt lat="43.042897" lon="12.3125555"><ele>251.0</ele><time>2026-04-02T08:15:01.703Z</time></trkpt><trkpt lat="43.0428316" lon="12.3124101"><ele>251.0</ele><time>2026-04-02T08:15:02.697Z</time></trkpt><trkpt lat="43.0427329" lon="12.3122772"><ele>251.5</ele><time>2026-04-02T08:15:03.697Z</time></trkpt><trkpt lat="43.0426571" lon="12.3121343"><ele>252.0</ele><time>2026-04-02T08:15:04.706Z</time></trkpt><trkpt lat="43.0425959" lon="12.3120003"><ele>252.5</ele><time>2026-04-02T08:15:05.698Z</time></trkpt><trkpt lat="43.0425295" lon="12.3118423"><ele>253.0</ele><time>2026-04-02T08:15:06.698Z</time></trkpt><trkpt lat="43.0424529" lon="12.3116708"><ele>252.75</ele><time>2026-04-02T08:15:07.697Z</time></trkpt><trkpt lat="43.0423841" lon="12.3115039"><ele>252.5</ele><time>2026-04-02T08:15:08.699Z</time></trkpt><trkpt lat="43.0423117" lon="12.3113312"><ele>252.25</ele><time>2026-04-02T08:15:09.698Z</time></trkpt><trkpt lat="43.0422325" lon="12.3111489"><ele>252.0</ele><time>2026-04-02T08:15:10.699Z</time></trkpt><trkpt lat="43.0421597" lon="12.3109739"><ele>252.0</ele><time>2026-04-02T08:15:11.694Z</time></trkpt><trkpt lat="43.0420974" lon="12.3108129"><ele>252.0</ele><time>2026-04-02T08:15:12.695Z</time></trkpt><trkpt lat="43.0420366" lon="12.3106658"><ele>252.0</ele><time>2026-04-02T08:15:13.703Z</time></trkpt><trkpt lat="43.0419707" lon="12.3105086"><ele>252.0</ele><time>2026-04-02T08:15:14.699Z</time></trkpt><trkpt lat="43.0418991" lon="12.31035"><ele>252.5</ele><time>2026-04-02T08:15:15.698Z</time></trkpt><trkpt lat="43.0418299" lon="12.3101932"><ele>253.0</ele><time>2026-04-02T08:15:16.699Z</time></trkpt><trkpt lat="43.04177" lon="12.3100348"><ele>253.5</ele><time>2026-04-02T08:15:17.695Z</time></trkpt><trkpt lat="43.0416919" lon="12.3098672"><ele>254.0</ele><time>2026-04-02T08:15:18.696Z</time></trkpt><trkpt lat="43.041615" lon="12.3096892"><ele>255.0</ele><time>2026-04-02T08:15:19.701Z</time></trkpt><trkpt lat="43.0415455" lon="12.3095316"><ele>255.99999999999997</ele><time>2026-04-02T08:15:20.698Z</time></trkpt><trkpt lat="43.0414856" lon="12.3093869"><ele>257.0</ele><time>2026-04-02T08:15:21.699Z</time></trkpt><trkpt lat="43.0414382" lon="12.3092687"><ele>258.0</ele><time>2026-04-02T08:15:22.699Z</time></trkpt><trkpt lat="43.0413877" lon="12.3091867"><ele>259.0</ele><time>2026-04-02T08:15:23.702Z</time></trkpt><trkpt lat="43.0413439" lon="12.3091125"><ele>259.0</ele><time>2026-04-02T08:15:24.699Z</time></trkpt><trkpt lat="43.0412325" lon="12.3090741"><ele>259.0</ele><time>2026-04-02T08:15:26.699Z</time></trkpt><trkpt lat="43.0411655" lon="12.3090952"><ele>259.0</ele><time>2026-04-02T08:15:27.698Z</time></trkpt><trkpt lat="43.0410644" lon="12.3091223"><ele>259.0</ele><time>2026-04-02T08:15:29.701Z</time></trkpt><trkpt lat="43.0409568" lon="12.3091514"><ele>259.0</ele><time>2026-04-02T08:15:31.699Z</time></trkpt><trkpt lat="43.040871" lon="12.3091868"><ele>259.0</ele><time>2026-04-02T08:15:33.697Z</time></trkpt><trkpt lat="43.0408" lon="12.3092122"><ele>259.0</ele><time>2026-04-02T08:15:35.697Z</time></trkpt><trkpt lat="43.0407356" lon="12.3092301"><ele>259.0</ele><time>2026-04-02T08:15:36.703Z</time></trkpt><trkpt lat="43.0406222" lon="12.3092487"><ele>259.0</ele><time>2026-04-02T08:15:38.697Z</time></trkpt><trkpt lat="43.0405557" lon="12.3092633"><ele>259.0</ele><time>2026-04-02T08:15:39.704Z</time></trkpt><trkpt lat="43.040493" lon="12.3092874"><ele>259.0</ele><time>2026-04-02T08:15:40.697Z</time></trkpt><trkpt lat="43.0404229" lon="12.3093085"><ele>259.0</ele><time>2026-04-02T08:15:41.702Z</time></trkpt><trkpt lat="43.0403607" lon="12.3093257"><ele>259.0</ele><time>2026-04-02T08:15:42.699Z</time></trkpt><trkpt lat="43.0402928" lon="12.309349"><ele>259.0</ele><time>2026-04-02T08:15:43.704Z</time></trkpt><trkpt lat="43.0401928" lon="12.3093875"><ele>259.0</ele><time>2026-04-02T08:15:45.695Z</time></trkpt><trkpt lat="43.0400877" lon="12.3094226"><ele>259.0</ele><time>2026-04-02T08:15:47.697Z</time></trkpt><trkpt lat="43.0399888" lon="12.3094467"><ele>259.0</ele><time>2026-04-02T08:15:49.702Z</time></trkpt><trkpt lat="43.0399266" lon="12.3094685"><ele>259.59999999999997</ele><time>2026-04-02T08:15:50.695Z</time></trkpt><trkpt lat="43.0398369" lon="12.3095193"><ele>260.2</ele><time>2026-04-02T08:15:51.698Z</time></trkpt><trkpt lat="43.0397596" lon="12.3095763"><ele>260.79999999999995</ele><time>2026-04-02T08:15:52.706Z</time></trkpt><trkpt lat="43.0396823" lon="12.309636"><ele>261.4</ele><time>2026-04-02T08:15:53.697Z</time></trkpt><trkpt lat="43.0395821" lon="12.309692"><ele>262.0</ele><time>2026-04-02T08:15:54.699Z</time></trkpt><trkpt lat="43.0394773" lon="12.309738"><ele>261.6</ele><time>2026-04-02T08:15:55.695Z</time></trkpt><trkpt lat="43.0393714" lon="12.3097617"><ele>261.2</ele><time>2026-04-02T08:15:56.697Z</time></trkpt><trkpt lat="43.0392488" lon="12.3098041"><ele>260.8</ele><time>2026-04-02T08:15:57.701Z</time></trkpt><trkpt lat="43.0391442" lon="12.309826"><ele>260.4</ele><time>2026-04-02T08:15:58.701Z</time></trkpt><trkpt lat="43.0390451" lon="12.3098333"><ele>260.0</ele><time>2026-04-02T08:15:59.696Z</time></trkpt><trkpt lat="43.0389497" lon="12.3098739"><ele>260.0</ele><time>2026-04-02T08:16:00.702Z</time></trkpt><trkpt lat="43.0388477" lon="12.3098973"><ele>260.0</ele><time>2026-04-02T08:16:01.698Z</time></trkpt><trkpt lat="43.0387535" lon="12.3099292"><ele>260.0</ele><time>2026-04-02T08:16:02.698Z</time></trkpt><trkpt lat="43.0386566" lon="12.309965"><ele>260.0</ele><time>2026-04-02T08:16:03.7Z</time></trkpt><trkpt lat="43.0385511" lon="12.3099818"><ele>260.0</ele><time>2026-04-02T08:16:04.696Z</time></trkpt><trkpt lat="43.0384447" lon="12.3100049"><ele>260.0</ele><time>2026-04-02T08:16:05.699Z</time></trkpt><trkpt lat="43.0383385" lon="12.3100256"><ele>260.0</ele><time>2026-04-02T08:16:06.696Z</time></trkpt><trkpt lat="43.0382286" lon="12.3100573"><ele>260.0</ele><time>2026-04-02T08:16:07.699Z</time></trkpt><trkpt lat="43.0381339" lon="12.3100803"><ele>260.0</ele><time>2026-04-02T08:16:08.702Z</time></trkpt><trkpt lat="43.038022" lon="12.3101021"><ele>260.0</ele><time>2026-04-02T08:16:09.698Z</time></trkpt><trkpt lat="43.0379261" lon="12.3101233"><ele>260.5</ele><time>2026-04-02T08:16:10.698Z</time></trkpt><trkpt lat="43.037823" lon="12.3101448"><ele>261.0</ele><time>2026-04-02T08:16:11.697Z</time></trkpt><trkpt lat="43.0377" lon="12.3101782"><ele>261.5</ele><time>2026-04-02T08:16:12.698Z</time></trkpt><trkpt lat="43.0375778" lon="12.3102066"><ele>262.0</ele><time>2026-04-02T08:16:13.698Z</time></trkpt><trkpt lat="43.0374509" lon="12.3102495"><ele>262.25</ele><time>2026-04-02T08:16:14.699Z</time></trkpt><trkpt lat="43.0373328" lon="12.3102876"><ele>262.5</ele><time>2026-04-02T08:16:15.699Z</time></trkpt><trkpt lat="43.0372116" lon="12.3103187"><ele>262.75</ele><time>2026-04-02T08:16:16.693Z</time></trkpt><trkpt lat="43.0370977" lon="12.3103533"><ele>263.0</ele><time>2026-04-02T08:16:17.699Z</time></trkpt><trkpt lat="43.0369951" lon="12.3103829"><ele>263.0</ele><time>2026-04-02T08:16:18.698Z</time></trkpt><trkpt lat="43.0369225" lon="12.3103986"><ele>263.0</ele><time>2026-04-02T08:16:19.7Z</time></trkpt><trkpt lat="43.0368334" lon="12.3104208"><ele>263.0</ele><time>2026-04-02T08:16:20.696Z</time></trkpt><trkpt lat="43.0367455" lon="12.3104508"><ele>263.0</ele><time>2026-04-02T08:16:21.699Z</time></trkpt><trkpt lat="43.0366482" lon="12.310483"><ele>263.0</ele><time>2026-04-02T08:16:22.697Z</time></trkpt><trkpt lat="43.0365654" lon="12.3105152"><ele>263.0</ele><time>2026-04-02T08:16:23.696Z</time></trkpt><trkpt lat="43.036489" lon="12.3105441"><ele>262.7142857142857</ele><time>2026-04-02T08:16:24.7Z</time></trkpt><trkpt lat="43.0364204" lon="12.3105817"><ele>262.4285714285714</ele><time>2026-04-02T08:16:25.703Z</time></trkpt><trkpt lat="43.0363416" lon="12.3106309"><ele>262.1428571428571</ele><time>2026-04-02T08:16:26.697Z</time></trkpt><trkpt lat="43.0362805" lon="12.3106834"><ele>261.85714285714283</ele><time>2026-04-02T08:16:27.704Z</time></trkpt><trkpt lat="43.0362269" lon="12.3107318"><ele>261.57142857142856</ele><time>2026-04-02T08:16:28.701Z</time></trkpt><trkpt lat="43.0361663" lon="12.3107846"><ele>261.2857142857143</ele><time>2026-04-02T08:16:29.707Z</time></trkpt><trkpt lat="43.0361121" lon="12.3108286"><ele>261.0</ele><time>2026-04-02T08:16:30.695Z</time></trkpt><trkpt lat="43.0360504" lon="12.3108472"><ele>261.0</ele><time>2026-04-02T08:16:31.698Z</time></trkpt><trkpt lat="43.0359386" lon="12.3108783"><ele>261.0</ele><time>2026-04-02T08:16:33.702Z</time></trkpt><trkpt lat="43.0358474" lon="12.3108679"><ele>261.0</ele><time>2026-04-02T08:16:35.698Z</time></trkpt><trkpt lat="43.035752" lon="12.3108752"><ele>261.0</ele><time>2026-04-02T08:16:37.698Z</time></trkpt><trkpt lat="43.0356178" lon="12.3108752"><ele>261.0</ele><time>2026-04-02T08:16:39.7Z</time></trkpt><trkpt lat="43.0355003" lon="12.3108758"><ele>261.5</ele><time>2026-04-02T08:16:40.703Z</time></trkpt><trkpt lat="43.0353847" lon="12.3108843"><ele>262.0</ele><time>2026-04-02T08:16:41.696Z</time></trkpt><trkpt lat="43.0352692" lon="12.3108988"><ele>262.5</ele><time>2026-04-02T08:16:42.698Z</time></trkpt><trkpt lat="43.0351621" lon="12.310914"><ele>263.0</ele><time>2026-04-02T08:16:43.702Z</time></trkpt><trkpt lat="43.0350487" lon="12.3109308"><ele>262.4</ele><time>2026-04-02T08:16:44.697Z</time></trkpt><trkpt lat="43.0349653" lon="12.3109319"><ele>261.8</ele><time>2026-04-02T08:16:45.7Z</time></trkpt><trkpt lat="43.0348888" lon="12.31095"><ele>261.2</ele><time>2026-04-02T08:16:46.698Z</time></trkpt><trkpt lat="43.0347976" lon="12.3109685"><ele>260.6</ele><time>2026-04-02T08:16:47.697Z</time></trkpt><trkpt lat="43.0347081" lon="12.3109952"><ele>260.0</ele><time>2026-04-02T08:16:48.702Z</time></trkpt><trkpt lat="43.0345992" lon="12.3110033"><ele>260.0</ele><time>2026-04-02T08:16:49.697Z</time></trkpt><trkpt lat="43.0344879" lon="12.3110138"><ele>260.0</ele><time>2026-04-02T08:16:50.699Z</time></trkpt><trkpt lat="43.0343887" lon="12.3110068"><ele>260.0</ele><time>2026-04-02T08:16:51.697Z</time></trkpt><trkpt lat="43.0342945" lon="12.3109962"><ele>260.0</ele><time>2026-04-02T08:16:52.703Z</time></trkpt><trkpt lat="43.0342035" lon="12.3109579"><ele>260.0</ele><time>2026-04-02T08:16:53.696Z</time></trkpt><trkpt lat="43.0341326" lon="12.3108841"><ele>259.0</ele><time>2026-04-02T08:16:54.697Z</time></trkpt><trkpt lat="43.0340713" lon="12.3107946"><ele>258.0</ele><time>2026-04-02T08:16:55.696Z</time></trkpt><trkpt lat="43.0339936" lon="12.310686"><ele>257.0</ele><time>2026-04-02T08:16:56.701Z</time></trkpt><trkpt lat="43.0339035" lon="12.3105542"><ele>256.0</ele><time>2026-04-02T08:16:57.696Z</time></trkpt><trkpt lat="43.0338277" lon="12.3104153"><ele>256.0</ele><time>2026-04-02T08:16:58.697Z</time></trkpt><trkpt lat="43.0337638" lon="12.3102888"><ele>256.0</ele><time>2026-04-02T08:16:59.696Z</time></trkpt><trkpt lat="43.0336971" lon="12.3101667"><ele>256.0</ele><time>2026-04-02T08:17:00.698Z</time></trkpt><trkpt lat="43.0336317" lon="12.3100518"><ele>256.0</ele><time>2026-04-02T08:17:01.705Z</time></trkpt><trkpt lat="43.0335801" lon="12.3099591"><ele>256.0</ele><time>2026-04-02T08:17:02.699Z</time></trkpt><trkpt lat="43.0335342" lon="12.3098806"><ele>255.99999999999997</ele><time>2026-04-02T08:17:03.699Z</time></trkpt><trkpt lat="43.0334926" lon="12.3097964"><ele>256.0</ele><time>2026-04-02T08:17:04.701Z</time></trkpt><trkpt lat="43.0334576" lon="12.3097245"><ele>256.0</ele><time>2026-04-02T08:17:05.7Z</time></trkpt><trkpt lat="43.0334256" lon="12.3096468"><ele>256.0</ele><time>2026-04-02T08:17:06.697Z</time></trkpt><trkpt lat="43.0333608" lon="12.3095337"><ele>255.99999999999997</ele><time>2026-04-02T08:17:08.695Z</time></trkpt><trkpt lat="43.0333079" lon="12.3094172"><ele>256.0</ele><time>2026-04-02T08:17:10.698Z</time></trkpt><trkpt lat="43.0332455" lon="12.3093297"><ele>256.0</ele><time>2026-04-02T08:17:12.7Z</time></trkpt><trkpt lat="43.0331711" lon="12.3091935"><ele>256.0</ele><time>2026-04-02T08:17:14.698Z</time></trkpt><trkpt lat="43.0331224" lon="12.3090999"><ele>256.0</ele><time>2026-04-02T08:17:15.698Z</time></trkpt><trkpt lat="43.0330682" lon="12.3090015"><ele>256.0</ele><time>2026-04-02T08:17:16.697Z</time></trkpt><trkpt lat="43.0330151" lon="12.3088989"><ele>256.0</ele><time>2026-04-02T08:17:17.696Z</time></trkpt><trkpt lat="43.0329666" lon="12.3087989"><ele>257.0</ele><time>2026-04-02T08:17:18.696Z</time></trkpt><trkpt lat="43.0329176" lon="12.3086998"><ele>258.0</ele><time>2026-04-02T08:17:19.696Z</time></trkpt><trkpt lat="43.0328544" lon="12.3085972"><ele>259.0</ele><time>2026-04-02T08:17:20.7Z</time></trkpt><trkpt lat="43.0327984" lon="12.3084846"><ele>260.0</ele><time>2026-04-02T08:17:21.7Z</time></trkpt><trkpt lat="43.0327359" lon="12.3083978"><ele>261.0</ele><time>2026-04-02T08:17:22.695Z</time></trkpt><trkpt lat="43.0326825" lon="12.3082873"><ele>261.0</ele><time>2026-04-02T08:17:23.703Z</time></trkpt><trkpt lat="43.0326394" lon="12.3082005"><ele>261.0</ele><time>2026-04-02T08:17:24.7Z</time></trkpt><trkpt lat="43.0326006" lon="12.308105"><ele>261.0</ele><time>2026-04-02T08:17:25.697Z</time></trkpt><trkpt lat="43.0325519" lon="12.3080163"><ele>261.0</ele><time>2026-04-02T08:17:26.695Z</time></trkpt><trkpt lat="43.0325091" lon="12.3079164"><ele>261.0</ele><time>2026-04-02T08:17:27.697Z</time></trkpt><trkpt lat="43.0324614" lon="12.307833"><ele>261.0</ele><time>2026-04-02T08:17:28.702Z</time></trkpt><trkpt lat="43.0324143" lon="12.3077685"><ele>260.8</ele><time>2026-04-02T08:17:29.698Z</time></trkpt><trkpt lat="43.0323411" lon="12.3076927"><ele>260.6</ele><time>2026-04-02T08:17:31.702Z</time></trkpt><trkpt lat="43.032238" lon="12.3076959"><ele>260.4</ele><time>2026-04-02T08:17:33.697Z</time></trkpt><trkpt lat="43.0320994" lon="12.3077903"><ele>260.2</ele><time>2026-04-02T08:17:35.705Z</time></trkpt><trkpt lat="43.0320354" lon="12.3078421"><ele>260.0</ele><time>2026-04-02T08:17:36.697Z</time></trkpt><trkpt lat="43.0319575" lon="12.3078948"><ele>260.0</ele><time>2026-04-02T08:17:37.696Z</time></trkpt><trkpt lat="43.0318753" lon="12.3079479"><ele>260.0</ele><time>2026-04-02T08:17:38.699Z</time></trkpt><trkpt lat="43.0318012" lon="12.3080022"><ele>260.0</ele><time>2026-04-02T08:17:39.695Z</time></trkpt><trkpt lat="43.0317056" lon="12.3080638"><ele>260.0</ele><time>2026-04-02T08:17:40.702Z</time></trkpt><trkpt lat="43.0316105" lon="12.3081079"><ele>260.0</ele><time>2026-04-02T08:17:41.697Z</time></trkpt><trkpt lat="43.0315093" lon="12.3081708"><ele>259.75</ele><time>2026-04-02T08:17:42.697Z</time></trkpt><trkpt lat="43.0314028" lon="12.3082536"><ele>259.5</ele><time>2026-04-02T08:17:43.702Z</time></trkpt><trkpt lat="43.0312908" lon="12.308353"><ele>259.25</ele><time>2026-04-02T08:17:44.696Z</time></trkpt><trkpt lat="43.0311987" lon="12.3084265"><ele>259.0</ele><time>2026-04-02T08:17:45.699Z</time></trkpt><trkpt lat="43.0311019" lon="12.3085158"><ele>259.0</ele><time>2026-04-02T08:17:46.699Z</time></trkpt><trkpt lat="43.0310052" lon="12.3085959"><ele>259.0</ele><time>2026-04-02T08:17:47.698Z</time></trkpt><trkpt lat="43.0308978" lon="12.3086852"><ele>259.0</ele><time>2026-04-02T08:17:48.695Z</time></trkpt><trkpt lat="43.0307986" lon="12.3087722"><ele>259.0</ele><time>2026-04-02T08:17:49.697Z</time></trkpt><trkpt lat="43.0306995" lon="12.3088636"><ele>259.5</ele><time>2026-04-02T08:17:50.695Z</time></trkpt><trkpt lat="43.0305984" lon="12.3089508"><ele>260.0</ele><time>2026-04-02T08:17:51.697Z</time></trkpt><trkpt lat="43.0305001" lon="12.3090379"><ele>260.5</ele><time>2026-04-02T08:17:52.695Z</time></trkpt><trkpt lat="43.030387" lon="12.3091388"><ele>261.0</ele><time>2026-04-02T08:17:53.696Z</time></trkpt><trkpt lat="43.0302819" lon="12.3092368"><ele>261.0</ele><time>2026-04-02T08:17:54.696Z</time></trkpt><trkpt lat="43.0301821" lon="12.3093251"><ele>261.0</ele><time>2026-04-02T08:17:55.696Z</time></trkpt><trkpt lat="43.0300861" lon="12.3094141"><ele>261.0</ele><time>2026-04-02T08:17:56.699Z</time></trkpt><trkpt lat="43.0299964" lon="12.3094994"><ele>261.0</ele><time>2026-04-02T08:17:57.696Z</time></trkpt><trkpt lat="43.0299189" lon="12.3095824"><ele>261.0</ele><time>2026-04-02T08:17:58.703Z</time></trkpt><trkpt lat="43.0298382" lon="12.3096659"><ele>261.2</ele><time>2026-04-02T08:17:59.7Z</time></trkpt><trkpt lat="43.0297611" lon="12.3097544"><ele>261.40000000000003</ele><time>2026-04-02T08:18:00.701Z</time></trkpt><trkpt lat="43.0297012" lon="12.30983"><ele>261.6</ele><time>2026-04-02T08:18:01.708Z</time></trkpt><trkpt lat="43.0296438" lon="12.309897"><ele>261.8</ele><time>2026-04-02T08:18:02.787Z</time></trkpt><trkpt lat="43.029535" lon="12.3099676"><ele>262.0</ele><time>2026-04-02T08:18:04.698Z</time></trkpt><trkpt lat="43.0294479" lon="12.3099217"><ele>262.0</ele><time>2026-04-02T08:18:06.695Z</time></trkpt><trkpt lat="43.0293929" lon="12.3098554"><ele>262.0</ele><time>2026-04-02T08:18:07.705Z</time></trkpt><trkpt lat="43.0293261" lon="12.3097815"><ele>262.0</ele><time>2026-04-02T08:18:08.697Z</time></trkpt><trkpt lat="43.0292605" lon="12.309717"><ele>262.0</ele><time>2026-04-02T08:18:09.705Z</time></trkpt><trkpt lat="43.0292068" lon="12.3096536"><ele>262.0</ele><time>2026-04-02T08:18:10.7Z</time></trkpt><trkpt lat="43.0291506" lon="12.3095868"><ele>262.0</ele><time>2026-04-02T08:18:11.695Z</time></trkpt><trkpt lat="43.0291042" lon="12.309518"><ele>262.0</ele><time>2026-04-02T08:18:12.698Z</time></trkpt><trkpt lat="43.0290343" lon="12.30941"><ele>262.0</ele><time>2026-04-02T08:18:14.7Z</time></trkpt><trkpt lat="43.0289561" lon="12.3093846"><ele>262.0</ele><time>2026-04-02T08:18:17.697Z</time></trkpt><trkpt lat="43.0288838" lon="12.3094284"><ele>262.0</ele><time>2026-04-02T08:19:09.695Z</time></trkpt><trkpt lat="43.0288035" lon="12.3095638"><ele>262.0</ele><time>2026-04-02T08:19:11.7Z</time></trkpt><trkpt lat="43.0287519" lon="12.3096726"><ele>261.5</ele><time>2026-04-02T08:19:12.7Z</time></trkpt><trkpt lat="43.0286888" lon="12.3098093"><ele>261.0</ele><time>2026-04-02T08:19:13.699Z</time></trkpt><trkpt lat="43.0286083" lon="12.3099718"><ele>260.5</ele><time>2026-04-02T08:19:14.703Z</time></trkpt><trkpt lat="43.0285248" lon="12.310137"><ele>260.0</ele><time>2026-04-02T08:19:15.696Z</time></trkpt><trkpt lat="43.0284438" lon="12.3103014"><ele>260.0</ele><time>2026-04-02T08:19:16.698Z</time></trkpt><trkpt lat="43.028364" lon="12.3104578"><ele>260.0</ele><time>2026-04-02T08:19:17.694Z</time></trkpt><trkpt lat="43.0282871" lon="12.3106237"><ele>260.0</ele><time>2026-04-02T08:19:18.698Z</time></trkpt><trkpt lat="43.0282032" lon="12.3107864"><ele>260.0</ele><time>2026-04-02T08:19:19.702Z</time></trkpt><trkpt lat="43.0281122" lon="12.3109501"><ele>257.75</ele><time>2026-04-02T08:19:20.698Z</time></trkpt><trkpt lat="43.0280238" lon="12.3111205"><ele>255.5</ele><time>2026-04-02T08:19:21.699Z</time></trkpt><trkpt lat="43.0279454" lon="12.3112769"><ele>253.25</ele><time>2026-04-02T08:19:22.703Z</time></trkpt><trkpt lat="43.0278558" lon="12.3114334"><ele>251.0</ele><time>2026-04-02T08:19:23.701Z</time></trkpt><trkpt lat="43.0277615" lon="12.3115932"><ele>250.25</ele><time>2026-04-02T08:19:24.695Z</time></trkpt><trkpt lat="43.0276772" lon="12.3117591"><ele>249.5</ele><time>2026-04-02T08:19:25.695Z</time></trkpt><trkpt lat="43.0275886" lon="12.3119316"><ele>248.75</ele><time>2026-04-02T08:19:26.696Z</time></trkpt><trkpt lat="43.0275049" lon="12.3120825"><ele>248.0</ele><time>2026-04-02T08:19:27.698Z</time></trkpt><trkpt lat="43.027436" lon="12.3122096"><ele>247.16666666666669</ele><time>2026-04-02T08:19:28.697Z</time></trkpt><trkpt lat="43.0273748" lon="12.3123223"><ele>246.33333333333334</ele><time>2026-04-02T08:19:29.7Z</time></trkpt><trkpt lat="43.0273268" lon="12.3124389"><ele>245.5</ele><time>2026-04-02T08:19:30.701Z</time></trkpt><trkpt lat="43.0272822" lon="12.3125277"><ele>244.66666666666669</ele><time>2026-04-02T08:19:31.697Z</time></trkpt><trkpt lat="43.0272378" lon="12.312612"><ele>243.83333333333334</ele><time>2026-04-02T08:19:32.695Z</time></trkpt><trkpt lat="43.0272009" lon="12.3126825"><ele>243.0</ele><time>2026-04-02T08:19:33.7Z</time></trkpt><trkpt lat="43.0271592" lon="12.3127691"><ele>243.0</ele><time>2026-04-02T08:19:35.7Z</time></trkpt><trkpt lat="43.0271464" lon="12.3128709"><ele>243.0</ele><time>2026-04-02T08:19:40.699Z</time></trkpt><trkpt lat="43.0272387" lon="12.3129471"><ele>243.0</ele><time>2026-04-02T08:19:42.7Z</time></trkpt><trkpt lat="43.0273081" lon="12.3129919"><ele>243.0</ele><time>2026-04-02T08:19:43.702Z</time></trkpt><trkpt lat="43.0273779" lon="12.3130417"><ele>243.0</ele><time>2026-04-02T08:19:44.699Z</time></trkpt><trkpt lat="43.02746" lon="12.3131021"><ele>243.0</ele><time>2026-04-02T08:19:45.697Z</time></trkpt><trkpt lat="43.0275451" lon="12.3131667"><ele>244.8</ele><time>2026-04-02T08:19:46.703Z</time></trkpt><trkpt lat="43.0276343" lon="12.3132301"><ele>246.60000000000002</ele><time>2026-04-02T08:19:47.699Z</time></trkpt><trkpt lat="43.027719" lon="12.3133001"><ele>248.39999999999998</ele><time>2026-04-02T08:19:48.7Z</time></trkpt><trkpt lat="43.0278014" lon="12.313377"><ele>250.2</ele><time>2026-04-02T08:19:49.701Z</time></trkpt><trkpt lat="43.0278672" lon="12.3134899"><ele>252.0</ele><time>2026-04-02T08:19:50.698Z</time></trkpt><trkpt lat="43.0279194" lon="12.3136261"><ele>252.0</ele><time>2026-04-02T08:19:51.696Z</time></trkpt><trkpt lat="43.0279726" lon="12.3137798"><ele>252.0</ele><time>2026-04-02T08:19:52.699Z</time></trkpt><trkpt lat="43.0280358" lon="12.3139279"><ele>252.0</ele><time>2026-04-02T08:19:53.703Z</time></trkpt><trkpt lat="43.028115" lon="12.3140451"><ele>252.0</ele><time>2026-04-02T08:19:54.702Z</time></trkpt><trkpt lat="43.0281974" lon="12.3141297"><ele>252.2</ele><time>2026-04-02T08:19:55.702Z</time></trkpt><trkpt lat="43.0282717" lon="12.3142259"><ele>252.39999999999998</ele><time>2026-04-02T08:19:56.696Z</time></trkpt><trkpt lat="43.0283276" lon="12.3143288"><ele>252.60000000000002</ele><time>2026-04-02T08:19:57.697Z</time></trkpt><trkpt lat="43.0283489" lon="12.3144346"><ele>252.8</ele><time>2026-04-02T08:19:58.698Z</time></trkpt><trkpt lat="43.0283351" lon="12.3145682"><ele>253.0</ele><time>2026-04-02T08:19:59.697Z</time></trkpt><trkpt lat="43.0282911" lon="12.3147102"><ele>253.25</ele><time>2026-04-02T08:20:00.697Z</time></trkpt><trkpt lat="43.0282322" lon="12.3148662"><ele>253.5</ele><time>2026-04-02T08:20:01.697Z</time></trkpt><trkpt lat="43.0281488" lon="12.3150265"><ele>253.75</ele><time>2026-04-02T08:20:02.704Z</time></trkpt><trkpt lat="43.0280591" lon="12.3151867"><ele>254.0</ele><time>2026-04-02T08:20:03.7Z</time></trkpt><trkpt lat="43.0279642" lon="12.3153683"><ele>254.0</ele><time>2026-04-02T08:20:04.702Z</time></trkpt><trkpt lat="43.0278744" lon="12.3155606"><ele>254.0</ele><time>2026-04-02T08:20:05.701Z</time></trkpt><trkpt lat="43.0277762" lon="12.315756"><ele>254.0</ele><time>2026-04-02T08:20:06.699Z</time></trkpt><trkpt lat="43.0276815" lon="12.3159643"><ele>254.33333333333334</ele><time>2026-04-02T08:20:07.695Z</time></trkpt><trkpt lat="43.0275777" lon="12.3161728"><ele>254.66666666666669</ele><time>2026-04-02T08:20:08.7Z</time></trkpt><trkpt lat="43.027472" lon="12.3163878"><ele>255.0</ele><time>2026-04-02T08:20:09.701Z</time></trkpt><trkpt lat="43.0273631" lon="12.3165962"><ele>253.66666666666669</ele><time>2026-04-02T08:20:10.7Z</time></trkpt><trkpt lat="43.0272681" lon="12.3167907"><ele>252.33333333333334</ele><time>2026-04-02T08:20:11.696Z</time></trkpt><trkpt lat="43.0271783" lon="12.316971"><ele>251.0</ele><time>2026-04-02T08:20:12.707Z</time></trkpt><trkpt lat="43.0270901" lon="12.3171388"><ele>249.66666666666669</ele><time>2026-04-02T08:20:13.696Z</time></trkpt><trkpt lat="43.0270075" lon="12.3173253"><ele>248.33333333333331</ele><time>2026-04-02T08:20:14.7Z</time></trkpt><trkpt lat="43.0269199" lon="12.3175176"><ele>247.0</ele><time>2026-04-02T08:20:15.699Z</time></trkpt><trkpt lat="43.0268183" lon="12.3177025"><ele>247.0</ele><time>2026-04-02T08:20:16.702Z</time></trkpt><trkpt lat="43.0266985" lon="12.3178858"><ele>247.0</ele><time>2026-04-02T08:20:17.698Z</time></trkpt><trkpt lat="43.0265814" lon="12.3180707"><ele>247.0</ele><time>2026-04-02T08:20:18.697Z</time></trkpt><trkpt lat="43.026453" lon="12.3182556"><ele>249.33333333333331</ele><time>2026-04-02T08:20:19.698Z</time></trkpt><trkpt lat="43.0263285" lon="12.3184362"><ele>251.66666666666669</ele><time>2026-04-02T08:20:20.702Z</time></trkpt><trkpt lat="43.0261999" lon="12.3186164"><ele>254.0</ele><time>2026-04-02T08:20:21.694Z</time></trkpt><trkpt lat="43.0260624" lon="12.3188091"><ele>254.66666666666669</ele><time>2026-04-02T08:20:22.696Z</time></trkpt><trkpt lat="43.0259358" lon="12.3189877"><ele>255.33333333333331</ele><time>2026-04-02T08:20:23.702Z</time></trkpt><trkpt lat="43.0258037" lon="12.319159"><ele>256.0</ele><time>2026-04-02T08:20:24.695Z</time></trkpt><trkpt lat="43.0256656" lon="12.3193327"><ele>256.0</ele><time>2026-04-02T08:20:25.695Z</time></trkpt><trkpt lat="43.0255356" lon="12.3195174"><ele>256.0</ele><time>2026-04-02T08:20:26.696Z</time></trkpt><trkpt lat="43.0254013" lon="12.319691"><ele>256.0</ele><time>2026-04-02T08:20:27.695Z</time></trkpt><trkpt lat="43.025289" lon="12.3198591"><ele>255.66666666666666</ele><time>2026-04-02T08:20:28.697Z</time></trkpt><trkpt lat="43.0252148" lon="12.3200384"><ele>255.33333333333331</ele><time>2026-04-02T08:20:29.7Z</time></trkpt><trkpt lat="43.0251519" lon="12.320233"><ele>255.0</ele><time>2026-04-02T08:20:30.7Z</time></trkpt><trkpt lat="43.0250931" lon="12.3204408"><ele>254.0</ele><time>2026-04-02T08:20:31.7Z</time></trkpt><trkpt lat="43.0250536" lon="12.3206446"><ele>253.0</ele><time>2026-04-02T08:20:32.695Z</time></trkpt><trkpt lat="43.0250043" lon="12.3208444"><ele>252.0</ele><time>2026-04-02T08:20:33.704Z</time></trkpt><trkpt lat="43.0249631" lon="12.3210438"><ele>252.0</ele><time>2026-04-02T08:20:34.7Z</time></trkpt><trkpt lat="43.0249338" lon="12.321243"><ele>252.0</ele><time>2026-04-02T08:20:35.701Z</time></trkpt><trkpt lat="43.0249077" lon="12.3214437"><ele>252.0</ele><time>2026-04-02T08:20:36.7Z</time></trkpt><trkpt lat="43.0248901" lon="12.3216331"><ele>252.0</ele><time>2026-04-02T08:20:37.702Z</time></trkpt><trkpt lat="43.0248706" lon="12.3217988"><ele>252.0</ele><time>2026-04-02T08:20:38.699Z</time></trkpt><trkpt lat="43.0248507" lon="12.3219467"><ele>252.0</ele><time>2026-04-02T08:20:39.694Z</time></trkpt><trkpt lat="43.0248325" lon="12.3220645"><ele>252.0</ele><time>2026-04-02T08:20:40.699Z</time></trkpt><trkpt lat="43.0248092" lon="12.3221492"><ele>252.0</ele><time>2026-04-02T08:20:41.697Z</time></trkpt><trkpt lat="43.0247716" lon="12.3222856"><ele>252.0</ele><time>2026-04-02T08:20:43.698Z</time></trkpt><trkpt lat="43.0246511" lon="12.3223347"><ele>251.83333333333334</ele><time>2026-04-02T08:20:45.704Z</time></trkpt><trkpt lat="43.0245521" lon="12.3224267"><ele>251.66666666666669</ele><time>2026-04-02T08:20:47.7Z</time></trkpt><trkpt lat="43.0245543" lon="12.3225131"><ele>251.5</ele><time>2026-04-02T08:20:48.703Z</time></trkpt><trkpt lat="43.0245416" lon="12.3226221"><ele>251.33333333333334</ele><time>2026-04-02T08:20:49.695Z</time></trkpt><trkpt lat="43.0245265" lon="12.3227178"><ele>251.16666666666669</ele><time>2026-04-02T08:20:50.698Z</time></trkpt><trkpt lat="43.0245096" lon="12.3228125"><ele>251.0</ele><time>2026-04-02T08:20:51.703Z</time></trkpt><trkpt lat="43.0245247" lon="12.3229555"><ele>251.00000000000003</ele><time>2026-04-02T08:20:53.7Z</time></trkpt><trkpt lat="43.0246005" lon="12.3230369"><ele>251.0</ele><time>2026-04-02T08:20:55.696Z</time></trkpt><trkpt lat="43.0247116" lon="12.3230129"><ele>251.0</ele><time>2026-04-02T08:20:57.699Z</time></trkpt><trkpt lat="43.0247695" lon="12.3229676"><ele>251.0</ele><time>2026-04-02T08:20:58.703Z</time></trkpt><trkpt lat="43.0248341" lon="12.3229315"><ele>251.00000000000003</ele><time>2026-04-02T08:20:59.697Z</time></trkpt><trkpt lat="43.02492" lon="12.3229617"><ele>251.0</ele><time>2026-04-02T08:21:00.706Z</time></trkpt><trkpt lat="43.0249957" lon="12.32301"><ele>251.8</ele><time>2026-04-02T08:21:01.699Z</time></trkpt><trkpt lat="43.0250754" lon="12.3230783"><ele>252.60000000000002</ele><time>2026-04-02T08:21:02.697Z</time></trkpt><trkpt lat="43.0251604" lon="12.3231622"><ele>253.4</ele><time>2026-04-02T08:21:03.703Z</time></trkpt><trkpt lat="43.0252509" lon="12.3232746"><ele>254.2</ele><time>2026-04-02T08:21:04.703Z</time></trkpt><trkpt lat="43.0253496" lon="12.3233735"><ele>255.0</ele><time>2026-04-02T08:21:05.7Z</time></trkpt><trkpt lat="43.0254742" lon="12.3234542"><ele>255.0</ele><time>2026-04-02T08:21:06.702Z</time></trkpt><trkpt lat="43.025618" lon="12.3235278"><ele>255.0</ele><time>2026-04-02T08:21:07.696Z</time></trkpt><trkpt lat="43.0257632" lon="12.3235861"><ele>255.0</ele><time>2026-04-02T08:21:08.7Z</time></trkpt><trkpt lat="43.0259073" lon="12.3236436"><ele>253.0</ele><time>2026-04-02T08:21:09.698Z</time></trkpt><trkpt lat="43.0260435" lon="12.3236923"><ele>251.0</ele><time>2026-04-02T08:21:10.7Z</time></trkpt><trkpt lat="43.0261821" lon="12.3237407"><ele>249.0</ele><time>2026-04-02T08:21:11.7Z</time></trkpt><trkpt lat="43.0263156" lon="12.323789"><ele>247.0</ele><time>2026-04-02T08:21:12.7Z</time></trkpt><trkpt lat="43.0264362" lon="12.3238127"><ele>247.0</ele><time>2026-04-02T08:21:13.698Z</time></trkpt><trkpt lat="43.0265566" lon="12.3238026"><ele>247.0</ele><time>2026-04-02T08:21:14.695Z</time></trkpt><trkpt lat="43.0266752" lon="12.32377"><ele>247.0</ele><time>2026-04-02T08:21:15.703Z</time></trkpt><trkpt lat="43.0267957" lon="12.3237078"><ele>247.0</ele><time>2026-04-02T08:21:16.699Z</time></trkpt><trkpt lat="43.0268777" lon="12.3235995"><ele>243.33333333333331</ele><time>2026-04-02T08:21:17.7Z</time></trkpt><trkpt lat="43.0269548" lon="12.3234623"><ele>239.66666666666669</ele><time>2026-04-02T08:21:18.697Z</time></trkpt><trkpt lat="43.0270692" lon="12.3232629"><ele>236.0</ele><time>2026-04-02T08:21:19.698Z</time></trkpt><trkpt lat="43.0271801" lon="12.3231031"><ele>235.0</ele><time>2026-04-02T08:21:20.695Z</time></trkpt><trkpt lat="43.0272896" lon="12.3229408"><ele>234.0</ele><time>2026-04-02T08:21:21.703Z</time></trkpt><trkpt lat="43.0274076" lon="12.3227818"><ele>233.0</ele><time>2026-04-02T08:21:22.703Z</time></trkpt><trkpt lat="43.0275219" lon="12.3226421"><ele>230.5</ele><time>2026-04-02T08:21:23.698Z</time></trkpt><trkpt lat="43.0276309" lon="12.3225735"><ele>228.0</ele><time>2026-04-02T08:21:24.697Z</time></trkpt><trkpt lat="43.0277542" lon="12.3225446"><ele>225.5</ele><time>2026-04-02T08:21:25.699Z</time></trkpt><trkpt lat="43.0278889" lon="12.3225513"><ele>223.0</ele><time>2026-04-02T08:21:26.701Z</time></trkpt><trkpt lat="43.0280386" lon="12.3225988"><ele>223.0</ele><time>2026-04-02T08:21:27.701Z</time></trkpt><trkpt lat="43.0281875" lon="12.3226459"><ele>223.0</ele><time>2026-04-02T08:21:28.697Z</time></trkpt><trkpt lat="43.0283513" lon="12.3226922"><ele>223.0</ele><time>2026-04-02T08:21:29.701Z</time></trkpt><trkpt lat="43.0285114" lon="12.3227415"><ele>222.0</ele><time>2026-04-02T08:21:30.699Z</time></trkpt><trkpt lat="43.0286754" lon="12.3227854"><ele>221.0</ele><time>2026-04-02T08:21:31.701Z</time></trkpt><trkpt lat="43.0288476" lon="12.3228333"><ele>220.0</ele><time>2026-04-02T08:21:32.7Z</time></trkpt><trkpt lat="43.0290196" lon="12.3228739"><ele>219.66666666666666</ele><time>2026-04-02T08:21:33.697Z</time></trkpt><trkpt lat="43.0291903" lon="12.3229126"><ele>219.33333333333331</ele><time>2026-04-02T08:21:34.697Z</time></trkpt><trkpt lat="43.0293582" lon="12.322947"><ele>219.0</ele><time>2026-04-02T08:21:35.7Z</time></trkpt><trkpt lat="43.0295229" lon="12.3229841"><ele>219.0</ele><time>2026-04-02T08:21:36.7Z</time></trkpt><trkpt lat="43.0296822" lon="12.3230174"><ele>219.0</ele><time>2026-04-02T08:21:37.702Z</time></trkpt><trkpt lat="43.0298117" lon="12.3230447"><ele>219.0</ele><time>2026-04-02T08:21:38.698Z</time></trkpt><trkpt lat="43.0299105" lon="12.3230799"><ele>219.0</ele><time>2026-04-02T08:21:39.703Z</time></trkpt><trkpt lat="43.0299648" lon="12.3231354"><ele>219.6</ele><time>2026-04-02T08:21:40.704Z</time></trkpt><trkpt lat="43.0299791" lon="12.3232197"><ele>220.2</ele><time>2026-04-02T08:21:41.7Z</time></trkpt><trkpt lat="43.0299707" lon="12.3233296"><ele>220.79999999999998</ele><time>2026-04-02T08:21:42.7Z</time></trkpt><trkpt lat="43.0299424" lon="12.3234527"><ele>221.39999999999998</ele><time>2026-04-02T08:21:43.701Z</time></trkpt><trkpt lat="43.0299016" lon="12.3235928"><ele>222.0</ele><time>2026-04-02T08:21:44.696Z</time></trkpt><trkpt lat="43.0298591" lon="12.3237457"><ele>223.25</ele><time>2026-04-02T08:21:45.7Z</time></trkpt><trkpt lat="43.0298127" lon="12.3239089"><ele>224.5</ele><time>2026-04-02T08:21:46.699Z</time></trkpt><trkpt lat="43.0297679" lon="12.3240767"><ele>225.75</ele><time>2026-04-02T08:21:47.699Z</time></trkpt><trkpt lat="43.0297199" lon="12.3242467"><ele>227.0</ele><time>2026-04-02T08:21:48.701Z</time></trkpt><trkpt lat="43.0296764" lon="12.3243953"><ele>227.0</ele><time>2026-04-02T08:21:49.703Z</time></trkpt><trkpt lat="43.0296415" lon="12.3245079"><ele>227.0</ele><time>2026-04-02T08:21:50.696Z</time></trkpt><trkpt lat="43.0296581" lon="12.3246633"><ele>227.0</ele><time>2026-04-02T08:21:52.698Z</time></trkpt><trkpt lat="43.0297879" lon="12.3247297"><ele>227.0</ele><time>2026-04-02T08:21:54.697Z</time></trkpt><trkpt lat="43.0298765" lon="12.3247576"><ele>227.0</ele><time>2026-04-02T08:21:55.705Z</time></trkpt><trkpt lat="43.0299673" lon="12.3247999"><ele>229.8</ele><time>2026-04-02T08:21:56.697Z</time></trkpt><trkpt lat="43.0300613" lon="12.3248437"><ele>232.6</ele><time>2026-04-02T08:21:57.698Z</time></trkpt><trkpt lat="43.0301642" lon="12.3248945"><ele>235.40000000000003</ele><time>2026-04-02T08:21:58.702Z</time></trkpt><trkpt lat="43.0302713" lon="12.3249446"><ele>238.20000000000002</ele><time>2026-04-02T08:21:59.697Z</time></trkpt><trkpt lat="43.030383" lon="12.3250032"><ele>241.0</ele><time>2026-04-02T08:22:00.699Z</time></trkpt><trkpt lat="43.0304923" lon="12.3250667"><ele>241.0</ele><time>2026-04-02T08:22:01.697Z</time></trkpt><trkpt lat="43.0306054" lon="12.325141"><ele>241.0</ele><time>2026-04-02T08:22:02.7Z</time></trkpt><trkpt lat="43.0307256" lon="12.3252286"><ele>241.0</ele><time>2026-04-02T08:22:03.702Z</time></trkpt><trkpt lat="43.0308497" lon="12.3253316"><ele>241.0</ele><time>2026-04-02T08:22:04.701Z</time></trkpt><trkpt lat="43.0309647" lon="12.3254448"><ele>242.75</ele><time>2026-04-02T08:22:05.708Z</time></trkpt><trkpt lat="43.0310791" lon="12.3255661"><ele>244.5</ele><time>2026-04-02T08:22:06.697Z</time></trkpt><trkpt lat="43.031196" lon="12.3256916"><ele>246.25</ele><time>2026-04-02T08:22:07.701Z</time></trkpt><trkpt lat="43.0313189" lon="12.3258108"><ele>248.0</ele><time>2026-04-02T08:22:08.698Z</time></trkpt><trkpt lat="43.0314265" lon="12.3259131"><ele>248.0</ele><time>2026-04-02T08:22:09.696Z</time></trkpt><trkpt lat="43.0315177" lon="12.326"><ele>248.0</ele><time>2026-04-02T08:22:10.703Z</time></trkpt><trkpt lat="43.0315968" lon="12.3260738"><ele>248.0</ele><time>2026-04-02T08:22:11.698Z</time></trkpt><trkpt lat="43.0316622" lon="12.3261359"><ele>248.0</ele><time>2026-04-02T08:22:12.696Z</time></trkpt><trkpt lat="43.0317163" lon="12.3261842"><ele>248.0</ele><time>2026-04-02T08:22:13.705Z</time></trkpt><trkpt lat="43.0317768" lon="12.3262999"><ele>248.2</ele><time>2026-04-02T08:22:15.698Z</time></trkpt><trkpt lat="43.0317058" lon="12.3264165"><ele>248.4</ele><time>2026-04-02T08:22:17.702Z</time></trkpt><trkpt lat="43.0316454" lon="12.3264964"><ele>248.59999999999997</ele><time>2026-04-02T08:22:18.698Z</time></trkpt><trkpt lat="43.0315848" lon="12.3265983"><ele>248.79999999999998</ele><time>2026-04-02T08:22:19.696Z</time></trkpt><trkpt lat="43.0315309" lon="12.3267159"><ele>249.0</ele><time>2026-04-02T08:22:20.699Z</time></trkpt><trkpt lat="43.0314831" lon="12.3268612"><ele>249.0</ele><time>2026-04-02T08:22:21.699Z</time></trkpt><trkpt lat="43.0314297" lon="12.3270175"><ele>249.0</ele><time>2026-04-02T08:22:22.698Z</time></trkpt><trkpt lat="43.0313722" lon="12.3271909"><ele>249.0</ele><time>2026-04-02T08:22:23.701Z</time></trkpt><trkpt lat="43.0313121" lon="12.3273772"><ele>249.0</ele><time>2026-04-02T08:22:24.709Z</time></trkpt><trkpt lat="43.0312473" lon="12.3275724"><ele>249.0</ele><time>2026-04-02T08:22:25.697Z</time></trkpt><trkpt lat="43.03118" lon="12.3277682"><ele>249.0</ele><time>2026-04-02T08:22:26.7Z</time></trkpt><trkpt lat="43.0311147" lon="12.3279747"><ele>249.0</ele><time>2026-04-02T08:22:27.699Z</time></trkpt><trkpt lat="43.0310494" lon="12.3281788"><ele>249.0</ele><time>2026-04-02T08:22:28.701Z</time></trkpt><trkpt lat="43.0309816" lon="12.3283673"><ele>249.0</ele><time>2026-04-02T08:22:29.703Z</time></trkpt><trkpt lat="43.0309052" lon="12.3285262"><ele>249.0</ele><time>2026-04-02T08:22:30.699Z</time></trkpt><trkpt lat="43.0308108" lon="12.3286729"><ele>249.0</ele><time>2026-04-02T08:22:31.701Z</time></trkpt><trkpt lat="43.0306982" lon="12.3287975"><ele>248.33333333333331</ele><time>2026-04-02T08:22:32.698Z</time></trkpt><trkpt lat="43.0305822" lon="12.3289254"><ele>247.66666666666666</ele><time>2026-04-02T08:22:33.7Z</time></trkpt><trkpt lat="43.0304701" lon="12.3290655"><ele>247.0</ele><time>2026-04-02T08:22:34.698Z</time></trkpt><trkpt lat="43.0303613" lon="12.3292157"><ele>247.0</ele><time>2026-04-02T08:22:35.695Z</time></trkpt><trkpt lat="43.0302608" lon="12.3293633"><ele>247.0</ele><time>2026-04-02T08:22:36.702Z</time></trkpt><trkpt lat="43.030166" lon="12.3294987"><ele>247.0</ele><time>2026-04-02T08:22:37.708Z</time></trkpt><trkpt lat="43.0300719" lon="12.3296342"><ele>247.0</ele><time>2026-04-02T08:22:38.701Z</time></trkpt><trkpt lat="43.0299658" lon="12.3297674"><ele>246.0</ele><time>2026-04-02T08:22:39.696Z</time></trkpt><trkpt lat="43.0298613" lon="12.3299068"><ele>245.0</ele><time>2026-04-02T08:22:40.706Z</time></trkpt><trkpt lat="43.0297579" lon="12.3300323"><ele>244.0</ele><time>2026-04-02T08:22:41.7Z</time></trkpt><trkpt lat="43.0296566" lon="12.3301687"><ele>243.0</ele><time>2026-04-02T08:22:42.696Z</time></trkpt><trkpt lat="43.0295579" lon="12.3302963"><ele>243.0</ele><time>2026-04-02T08:22:43.7Z</time></trkpt><trkpt lat="43.0294653" lon="12.330424"><ele>243.0</ele><time>2026-04-02T08:22:44.699Z</time></trkpt><trkpt lat="43.0293761" lon="12.3305445"><ele>243.0</ele><time>2026-04-02T08:22:45.699Z</time></trkpt><trkpt lat="43.0293042" lon="12.330632"><ele>243.0</ele><time>2026-04-02T08:22:46.696Z</time></trkpt><trkpt lat="43.0292343" lon="12.3307273"><ele>242.60000000000002</ele><time>2026-04-02T08:22:47.697Z</time></trkpt><trkpt lat="43.0291525" lon="12.3308265"><ele>242.20000000000002</ele><time>2026-04-02T08:22:48.703Z</time></trkpt><trkpt lat="43.0290748" lon="12.3309178"><ele>241.8</ele><time>2026-04-02T08:22:49.7Z</time></trkpt><trkpt lat="43.029004" lon="12.331017"><ele>241.4</ele><time>2026-04-02T08:22:50.698Z</time></trkpt><trkpt lat="43.0289393" lon="12.3311142"><ele>241.0</ele><time>2026-04-02T08:22:51.706Z</time></trkpt><trkpt lat="43.0288875" lon="12.3312284"><ele>239.5</ele><time>2026-04-02T08:22:52.698Z</time></trkpt><trkpt lat="43.0288532" lon="12.3313633"><ele>238.0</ele><time>2026-04-02T08:22:53.703Z</time></trkpt><trkpt lat="43.028827" lon="12.3315193"><ele>236.5</ele><time>2026-04-02T08:22:54.699Z</time></trkpt><trkpt lat="43.0288122" lon="12.3316935"><ele>235.0</ele><time>2026-04-02T08:22:55.697Z</time></trkpt><trkpt lat="43.0287996" lon="12.3318739"><ele>234.75</ele><time>2026-04-02T08:22:56.699Z</time></trkpt><trkpt lat="43.0287741" lon="12.3320642"><ele>234.5</ele><time>2026-04-02T08:22:57.699Z</time></trkpt><trkpt lat="43.0287561" lon="12.3322597"><ele>234.25</ele><time>2026-04-02T08:22:58.703Z</time></trkpt><trkpt lat="43.0287312" lon="12.3324516"><ele>234.0</ele><time>2026-04-02T08:22:59.702Z</time></trkpt><trkpt lat="43.0287101" lon="12.332631"><ele>232.75</ele><time>2026-04-02T08:23:00.702Z</time></trkpt><trkpt lat="43.0286924" lon="12.3328212"><ele>231.5</ele><time>2026-04-02T08:23:01.704Z</time></trkpt><trkpt lat="43.0286738" lon="12.3330155"><ele>230.25</ele><time>2026-04-02T08:23:02.7Z</time></trkpt><trkpt lat="43.0286456" lon="12.333191"><ele>229.0</ele><time>2026-04-02T08:23:03.697Z</time></trkpt><trkpt lat="43.0286274" lon="12.3333516"><ele>227.79999999999998</ele><time>2026-04-02T08:23:04.7Z</time></trkpt><trkpt lat="43.0286213" lon="12.3334981"><ele>226.59999999999997</ele><time>2026-04-02T08:23:05.701Z</time></trkpt><trkpt lat="43.0286306" lon="12.3336266"><ele>225.4</ele><time>2026-04-02T08:23:06.698Z</time></trkpt><trkpt lat="43.0286634" lon="12.3337583"><ele>224.2</ele><time>2026-04-02T08:23:07.698Z</time></trkpt><trkpt lat="43.0287269" lon="12.3338925"><ele>223.0</ele><time>2026-04-02T08:23:08.708Z</time></trkpt><trkpt lat="43.0288145" lon="12.3340219"><ele>222.25</ele><time>2026-04-02T08:23:09.7Z</time></trkpt><trkpt lat="43.0289217" lon="12.3341415"><ele>221.5</ele><time>2026-04-02T08:23:10.699Z</time></trkpt><trkpt lat="43.0290221" lon="12.3342662"><ele>220.75</ele><time>2026-04-02T08:23:11.698Z</time></trkpt><trkpt lat="43.0291197" lon="12.3343984"><ele>220.0</ele><time>2026-04-02T08:23:12.695Z</time></trkpt><trkpt lat="43.0292064" lon="12.3345363"><ele>220.0</ele><time>2026-04-02T08:23:13.7Z</time></trkpt><trkpt lat="43.0292974" lon="12.3346793"><ele>220.0</ele><time>2026-04-02T08:23:14.705Z</time></trkpt><trkpt lat="43.0293913" lon="12.3348359"><ele>220.0</ele><time>2026-04-02T08:23:15.707Z</time></trkpt><trkpt lat="43.0294861" lon="12.3350048"><ele>220.0</ele><time>2026-04-02T08:23:16.704Z</time></trkpt><trkpt lat="43.0295655" lon="12.3351568"><ele>219.2</ele><time>2026-04-02T08:23:17.694Z</time></trkpt><trkpt lat="43.0296413" lon="12.3352892"><ele>218.4</ele><time>2026-04-02T08:23:18.698Z</time></trkpt><trkpt lat="43.0297039" lon="12.3354172"><ele>217.60000000000002</ele><time>2026-04-02T08:23:19.698Z</time></trkpt><trkpt lat="43.029766" lon="12.3355255"><ele>216.8</ele><time>2026-04-02T08:23:20.703Z</time></trkpt><trkpt lat="43.0298433" lon="12.3356244"><ele>216.0</ele><time>2026-04-02T08:23:21.697Z</time></trkpt><trkpt lat="43.0299385" lon="12.335718"><ele>215.5</ele><time>2026-04-02T08:23:22.703Z</time></trkpt><trkpt lat="43.0300506" lon="12.3357976"><ele>215.0</ele><time>2026-04-02T08:23:23.698Z</time></trkpt><trkpt lat="43.0301688" lon="12.3358845"><ele>214.5</ele><time>2026-04-02T08:23:24.697Z</time></trkpt><trkpt lat="43.0302963" lon="12.3359774"><ele>214.0</ele><time>2026-04-02T08:23:25.695Z</time></trkpt><trkpt lat="43.0304218" lon="12.3360757"><ele>214.0</ele><time>2026-04-02T08:23:26.7Z</time></trkpt><trkpt lat="43.030562" lon="12.3361795"><ele>214.0</ele><time>2026-04-02T08:23:27.699Z</time></trkpt><trkpt lat="43.0306912" lon="12.3362779"><ele>214.0</ele><time>2026-04-02T08:23:28.698Z</time></trkpt><trkpt lat="43.0308104" lon="12.3363641"><ele>214.0</ele><time>2026-04-02T08:23:29.703Z</time></trkpt><trkpt lat="43.0309172" lon="12.3364522"><ele>215.25</ele><time>2026-04-02T08:23:30.703Z</time></trkpt><trkpt lat="43.031026" lon="12.3365469"><ele>216.5</ele><time>2026-04-02T08:23:31.7Z</time></trkpt><trkpt lat="43.0311269" lon="12.3366421"><ele>217.75</ele><time>2026-04-02T08:23:32.698Z</time></trkpt><trkpt lat="43.0312128" lon="12.336735"><ele>219.0</ele><time>2026-04-02T08:23:33.701Z</time></trkpt><trkpt lat="43.0312849" lon="12.3368299"><ele>219.0</ele><time>2026-04-02T08:23:34.702Z</time></trkpt><trkpt lat="43.031346" lon="12.3369335"><ele>218.99999999999997</ele><time>2026-04-02T08:23:35.696Z</time></trkpt><trkpt lat="43.0314046" lon="12.3370437"><ele>218.99999999999997</ele><time>2026-04-02T08:23:36.705Z</time></trkpt><trkpt lat="43.0314738" lon="12.337138"><ele>219.0</ele><time>2026-04-02T08:23:37.702Z</time></trkpt><trkpt lat="43.03155" lon="12.3372247"><ele>219.0</ele><time>2026-04-02T08:23:38.699Z</time></trkpt><trkpt lat="43.0316224" lon="12.337291"><ele>220.0</ele><time>2026-04-02T08:23:39.703Z</time></trkpt><trkpt lat="43.0316906" lon="12.3373342"><ele>221.0</ele><time>2026-04-02T08:23:40.7Z</time></trkpt><trkpt lat="43.0317558" lon="12.3373522"><ele>222.0</ele><time>2026-04-02T08:23:41.7Z</time></trkpt><trkpt lat="43.0318204" lon="12.3373404"><ele>223.0</ele><time>2026-04-02T08:23:42.7Z</time></trkpt><trkpt lat="43.0318859" lon="12.3373094"><ele>224.0</ele><time>2026-04-02T08:23:43.697Z</time></trkpt><trkpt lat="43.0319409" lon="12.3372548"><ele>225.0</ele><time>2026-04-02T08:23:44.699Z</time></trkpt><trkpt lat="43.0320009" lon="12.337178"><ele>226.0</ele><time>2026-04-02T08:23:45.695Z</time></trkpt><trkpt lat="43.0320725" lon="12.3371053"><ele>227.0</ele><time>2026-04-02T08:23:46.703Z</time></trkpt><trkpt lat="43.032157" lon="12.3370314"><ele>228.0</ele><time>2026-04-02T08:23:47.698Z</time></trkpt><trkpt lat="43.0322507" lon="12.3369543"><ele>229.0</ele><time>2026-04-02T08:23:48.697Z</time></trkpt><trkpt lat="43.0323607" lon="12.3368601"><ele>230.0</ele><time>2026-04-02T08:23:49.707Z</time></trkpt><trkpt lat="43.0324828" lon="12.3367601"><ele>231.66666666666669</ele><time>2026-04-02T08:23:50.702Z</time></trkpt><trkpt lat="43.0326046" lon="12.3366637"><ele>233.33333333333331</ele><time>2026-04-02T08:23:51.7Z</time></trkpt><trkpt lat="43.0327478" lon="12.3365344"><ele>235.0</ele><time>2026-04-02T08:23:52.703Z</time></trkpt><trkpt lat="43.0328968" lon="12.3364104"><ele>235.75</ele><time>2026-04-02T08:23:53.704Z</time></trkpt><trkpt lat="43.0330301" lon="12.3362916"><ele>236.5</ele><time>2026-04-02T08:23:54.699Z</time></trkpt><trkpt lat="43.0331325" lon="12.3361779"><ele>237.25</ele><time>2026-04-02T08:23:55.697Z</time></trkpt><trkpt lat="43.0332269" lon="12.3360849"><ele>238.0</ele><time>2026-04-02T08:23:56.699Z</time></trkpt><trkpt lat="43.0333295" lon="12.3359764"><ele>238.75</ele><time>2026-04-02T08:23:57.698Z</time></trkpt><trkpt lat="43.0334311" lon="12.3358701"><ele>239.5</ele><time>2026-04-02T08:23:58.701Z</time></trkpt><trkpt lat="43.0335289" lon="12.3357619"><ele>240.25</ele><time>2026-04-02T08:23:59.702Z</time></trkpt><trkpt lat="43.0336261" lon="12.3356436"><ele>241.0</ele><time>2026-04-02T08:24:00.701Z</time></trkpt><trkpt lat="43.0337188" lon="12.3355332"><ele>241.60000000000002</ele><time>2026-04-02T08:24:01.697Z</time></trkpt><trkpt lat="43.0338222" lon="12.3354145"><ele>242.20000000000002</ele><time>2026-04-02T08:24:02.699Z</time></trkpt><trkpt lat="43.0339014" lon="12.3353093"><ele>242.79999999999998</ele><time>2026-04-02T08:24:03.701Z</time></trkpt><trkpt lat="43.0339703" lon="12.3352007"><ele>243.39999999999998</ele><time>2026-04-02T08:24:04.696Z</time></trkpt><trkpt lat="43.0340285" lon="12.3351086"><ele>244.0</ele><time>2026-04-02T08:24:05.697Z</time></trkpt><trkpt lat="43.034086" lon="12.335044"><ele>244.39999999999998</ele><time>2026-04-02T08:24:06.696Z</time></trkpt><trkpt lat="43.0341665" lon="12.3350064"><ele>244.79999999999998</ele><time>2026-04-02T08:24:08.7Z</time></trkpt><trkpt lat="43.0342602" lon="12.3351275"><ele>245.20000000000002</ele><time>2026-04-02T08:24:10.697Z</time></trkpt><trkpt lat="43.0343227" lon="12.3352133"><ele>245.60000000000002</ele><time>2026-04-02T08:24:11.697Z</time></trkpt><trkpt lat="43.0343879" lon="12.335328"><ele>246.0</ele><time>2026-04-02T08:24:12.701Z</time></trkpt><trkpt lat="43.034459" lon="12.3354508"><ele>244.5</ele><time>2026-04-02T08:24:13.697Z</time></trkpt><trkpt lat="43.034545" lon="12.3355867"><ele>243.0</ele><time>2026-04-02T08:24:14.697Z</time></trkpt><trkpt lat="43.0346318" lon="12.3357057"><ele>241.5</ele><time>2026-04-02T08:24:15.699Z</time></trkpt><trkpt lat="43.0347215" lon="12.3358335"><ele>240.0</ele><time>2026-04-02T08:24:16.699Z</time></trkpt><trkpt lat="43.034789" lon="12.3359682"><ele>240.0</ele><time>2026-04-02T08:24:17.696Z</time></trkpt><trkpt lat="43.0348648" lon="12.3360964"><ele>240.0</ele><time>2026-04-02T08:24:18.698Z</time></trkpt><trkpt lat="43.0349497" lon="12.3362158"><ele>240.0</ele><time>2026-04-02T08:24:19.699Z</time></trkpt><trkpt lat="43.0350594" lon="12.3363168"><ele>240.0</ele><time>2026-04-02T08:24:20.703Z</time></trkpt><trkpt lat="43.0351539" lon="12.3364008"><ele>239.0</ele><time>2026-04-02T08:24:21.702Z</time></trkpt><trkpt lat="43.0352443" lon="12.3364763"><ele>238.0</ele><time>2026-04-02T08:24:22.702Z</time></trkpt><trkpt lat="43.0353365" lon="12.3365684"><ele>237.0</ele><time>2026-04-02T08:24:23.698Z</time></trkpt><trkpt lat="43.0354093" lon="12.3366771"><ele>236.0</ele><time>2026-04-02T08:24:24.698Z</time></trkpt><trkpt lat="43.0354877" lon="12.3367964"><ele>235.0</ele><time>2026-04-02T08:24:25.697Z</time></trkpt><trkpt lat="43.0355601" lon="12.3369335"><ele>235.0</ele><time>2026-04-02T08:24:26.699Z</time></trkpt><trkpt lat="43.0356391" lon="12.3370735"><ele>235.0</ele><time>2026-04-02T08:24:27.701Z</time></trkpt><trkpt lat="43.0357266" lon="12.3372207"><ele>235.0</ele><time>2026-04-02T08:24:28.714Z</time></trkpt><trkpt lat="43.0358074" lon="12.3373535"><ele>235.0</ele><time>2026-04-02T08:24:29.697Z</time></trkpt><trkpt lat="43.0358803" lon="12.3374738"><ele>234.66666666666666</ele><time>2026-04-02T08:24:30.702Z</time></trkpt><trkpt lat="43.0359342" lon="12.3375773"><ele>234.33333333333331</ele><time>2026-04-02T08:24:31.7Z</time></trkpt><trkpt lat="43.0359638" lon="12.3376604"><ele>234.0</ele><time>2026-04-02T08:24:32.697Z</time></trkpt><trkpt lat="43.0359256" lon="12.3377828"><ele>233.66666666666669</ele><time>2026-04-02T08:24:34.702Z</time></trkpt><trkpt lat="43.0358618" lon="12.3378521"><ele>233.33333333333334</ele><time>2026-04-02T08:24:35.7Z</time></trkpt><trkpt lat="43.0357956" lon="12.3379353"><ele>233.0</ele><time>2026-04-02T08:24:36.698Z</time></trkpt><trkpt lat="43.0357141" lon="12.3380216"><ele>232.75</ele><time>2026-04-02T08:24:37.702Z</time></trkpt><trkpt lat="43.0356277" lon="12.3381133"><ele>232.5</ele><time>2026-04-02T08:24:38.698Z</time></trkpt><trkpt lat="43.0355337" lon="12.338216"><ele>232.25</ele><time>2026-04-02T08:24:39.7Z</time></trkpt><trkpt lat="43.0354313" lon="12.3383273"><ele>232.0</ele><time>2026-04-02T08:24:40.699Z</time></trkpt><trkpt lat="43.0353192" lon="12.33845"><ele>232.0</ele><time>2026-04-02T08:24:41.698Z</time></trkpt><trkpt lat="43.0351969" lon="12.3385897"><ele>232.0</ele><time>2026-04-02T08:24:42.702Z</time></trkpt><trkpt lat="43.035079" lon="12.3387213"><ele>232.0</ele><time>2026-04-02T08:24:43.703Z</time></trkpt><trkpt lat="43.0349712" lon="12.3388374"><ele>232.0</ele><time>2026-04-02T08:24:44.696Z</time></trkpt><trkpt lat="43.0348786" lon="12.3389325"><ele>231.0</ele><time>2026-04-02T08:24:45.7Z</time></trkpt><trkpt lat="43.0347944" lon="12.3390434"><ele>230.0</ele><time>2026-04-02T08:24:46.702Z</time></trkpt><trkpt lat="43.0347225" lon="12.3391384"><ele>229.0</ele><time>2026-04-02T08:24:47.697Z</time></trkpt><trkpt lat="43.0346407" lon="12.3392056"><ele>228.0</ele><time>2026-04-02T08:24:48.697Z</time></trkpt><trkpt lat="43.0345436" lon="12.3392869"><ele>227.0</ele><time>2026-04-02T08:24:49.701Z</time></trkpt><trkpt lat="43.0344604" lon="12.3393708"><ele>227.00000000000003</ele><time>2026-04-02T08:24:50.701Z</time></trkpt><trkpt lat="43.0343752" lon="12.3394426"><ele>227.0</ele><time>2026-04-02T08:24:51.7Z</time></trkpt><trkpt lat="43.0342986" lon="12.3395301"><ele>227.0</ele><time>2026-04-02T08:24:52.701Z</time></trkpt><trkpt lat="43.0342356" lon="12.3396272"><ele>227.0</ele><time>2026-04-02T08:24:53.704Z</time></trkpt><trkpt lat="43.034178" lon="12.3397113"><ele>227.00000000000003</ele><time>2026-04-02T08:24:54.711Z</time></trkpt><trkpt lat="43.0341369" lon="12.3397851"><ele>227.0</ele><time>2026-04-02T08:24:55.698Z</time></trkpt><trkpt lat="43.0341244" lon="12.3399143"><ele>227.00000000000003</ele><time>2026-04-02T08:24:57.699Z</time></trkpt><trkpt lat="43.034209" lon="12.3400382"><ele>227.0</ele><time>2026-04-02T08:24:59.697Z</time></trkpt><trkpt lat="43.0342614" lon="12.3401011"><ele>227.0</ele><time>2026-04-02T08:25:00.705Z</time></trkpt><trkpt lat="43.0343118" lon="12.3401649"><ele>227.0</ele><time>2026-04-02T08:25:01.698Z</time></trkpt><trkpt lat="43.034366" lon="12.3402257"><ele>227.00000000000003</ele><time>2026-04-02T08:25:02.697Z</time></trkpt><trkpt lat="43.0344219" lon="12.340281"><ele>227.0</ele><time>2026-04-02T08:25:03.698Z</time></trkpt><trkpt lat="43.0344698" lon="12.3403448"><ele>227.00000000000003</ele><time>2026-04-02T08:25:04.694Z</time></trkpt><trkpt lat="43.0345042" lon="12.3404197"><ele>227.0</ele><time>2026-04-02T08:25:05.697Z</time></trkpt><trkpt lat="43.0345254" lon="12.340506"><ele>227.0</ele><time>2026-04-02T08:25:06.698Z</time></trkpt><trkpt lat="43.0345368" lon="12.340608"><ele>227.0</ele><time>2026-04-02T08:25:07.701Z</time></trkpt><trkpt lat="43.0344998" lon="12.3407541"><ele>227.00000000000003</ele><time>2026-04-02T08:25:08.698Z</time></trkpt><trkpt lat="43.0344664" lon="12.3408781"><ele>227.0</ele><time>2026-04-02T08:25:09.703Z</time></trkpt><trkpt lat="43.034419" lon="12.3409916"><ele>225.39999999999998</ele><time>2026-04-02T08:25:10.697Z</time></trkpt><trkpt lat="43.0343703" lon="12.3410842"><ele>223.79999999999998</ele><time>2026-04-02T08:25:11.698Z</time></trkpt><trkpt lat="43.0343395" lon="12.3411679"><ele>222.2</ele><time>2026-04-02T08:25:12.701Z</time></trkpt><trkpt lat="43.0343375" lon="12.3413408"><ele>220.6</ele><time>2026-04-02T08:25:14.696Z</time></trkpt><trkpt lat="43.0343606" lon="12.3414502"><ele>219.0</ele><time>2026-04-02T08:25:15.701Z</time></trkpt><trkpt lat="43.0344066" lon="12.3415674"><ele>218.75</ele><time>2026-04-02T08:25:16.697Z</time></trkpt><trkpt lat="43.0344722" lon="12.3416948"><ele>218.5</ele><time>2026-04-02T08:25:17.698Z</time></trkpt><trkpt lat="43.0345456" lon="12.3418165"><ele>218.25</ele><time>2026-04-02T08:25:18.698Z</time></trkpt><trkpt lat="43.0346245" lon="12.3419234"><ele>218.0</ele><time>2026-04-02T08:25:19.7Z</time></trkpt><trkpt lat="43.0347086" lon="12.3420216"><ele>218.0</ele><time>2026-04-02T08:25:20.696Z</time></trkpt><trkpt lat="43.0347972" lon="12.3421167"><ele>218.0</ele><time>2026-04-02T08:25:21.698Z</time></trkpt><trkpt lat="43.0348855" lon="12.3422146"><ele>218.0</ele><time>2026-04-02T08:25:22.702Z</time></trkpt><trkpt lat="43.0349778" lon="12.3423068"><ele>218.0</ele><time>2026-04-02T08:25:23.695Z</time></trkpt><trkpt lat="43.0350734" lon="12.3424133"><ele>217.60000000000002</ele><time>2026-04-02T08:25:24.696Z</time></trkpt><trkpt lat="43.0351679" lon="12.3425057"><ele>217.20000000000002</ele><time>2026-04-02T08:25:25.698Z</time></trkpt><trkpt lat="43.035252" lon="12.3425923"><ele>216.8</ele><time>2026-04-02T08:25:26.7Z</time></trkpt><trkpt lat="43.0353296" lon="12.3426722"><ele>216.4</ele><time>2026-04-02T08:25:27.698Z</time></trkpt><trkpt lat="43.0354106" lon="12.3427705"><ele>216.0</ele><time>2026-04-02T08:25:28.7Z</time></trkpt><trkpt lat="43.0355017" lon="12.3428651"><ele>216.0</ele><time>2026-04-02T08:25:29.702Z</time></trkpt><trkpt lat="43.0355981" lon="12.3429584"><ele>216.0</ele><time>2026-04-02T08:25:30.699Z</time></trkpt><trkpt lat="43.0357004" lon="12.3430422"><ele>216.0</ele><time>2026-04-02T08:25:31.7Z</time></trkpt><trkpt lat="43.0358124" lon="12.343114"><ele>216.0</ele><time>2026-04-02T08:25:32.698Z</time></trkpt><trkpt lat="43.0359284" lon="12.343165"><ele>216.25</ele><time>2026-04-02T08:25:33.7Z</time></trkpt><trkpt lat="43.0360419" lon="12.3432085"><ele>216.5</ele><time>2026-04-02T08:25:34.697Z</time></trkpt><trkpt lat="43.0361747" lon="12.3432583"><ele>216.75</ele><time>2026-04-02T08:25:35.698Z</time></trkpt><trkpt lat="43.0363111" lon="12.343298"><ele>217.0</ele><time>2026-04-02T08:25:36.704Z</time></trkpt><trkpt lat="43.0364342" lon="12.3433396"><ele>217.0</ele><time>2026-04-02T08:25:37.698Z</time></trkpt><trkpt lat="43.0365578" lon="12.3433952"><ele>217.0</ele><time>2026-04-02T08:25:38.702Z</time></trkpt><trkpt lat="43.0366889" lon="12.3434804"><ele>217.0</ele><time>2026-04-02T08:25:39.699Z</time></trkpt><trkpt lat="43.0368266" lon="12.343581"><ele>217.0</ele><time>2026-04-02T08:25:40.697Z</time></trkpt><trkpt lat="43.0369685" lon="12.3437042"><ele>217.33333333333331</ele><time>2026-04-02T08:25:41.702Z</time></trkpt><trkpt lat="43.037126" lon="12.3438353"><ele>217.66666666666669</ele><time>2026-04-02T08:25:42.699Z</time></trkpt><trkpt lat="43.0372729" lon="12.3439631"><ele>218.0</ele><time>2026-04-02T08:25:43.702Z</time></trkpt><trkpt lat="43.0373875" lon="12.3440671"><ele>218.66666666666669</ele><time>2026-04-02T08:25:44.703Z</time></trkpt><trkpt lat="43.037479" lon="12.3441465"><ele>219.33333333333334</ele><time>2026-04-02T08:25:45.701Z</time></trkpt><trkpt lat="43.037546" lon="12.3442016"><ele>220.0</ele><time>2026-04-02T08:25:46.707Z</time></trkpt><trkpt lat="43.0375977" lon="12.3442538"><ele>220.66666666666669</ele><time>2026-04-02T08:25:47.699Z</time></trkpt><trkpt lat="43.0377002" lon="12.3443427"><ele>221.33333333333334</ele><time>2026-04-02T08:25:49.703Z</time></trkpt><trkpt lat="43.0377663" lon="12.3443942"><ele>222.0</ele><time>2026-04-02T08:25:50.698Z</time></trkpt><trkpt lat="43.0378417" lon="12.3444594"><ele>222.0</ele><time>2026-04-02T08:25:51.7Z</time></trkpt><trkpt lat="43.0379155" lon="12.3445252"><ele>222.0</ele><time>2026-04-02T08:25:52.703Z</time></trkpt><trkpt lat="43.0379854" lon="12.3445746"><ele>222.0</ele><time>2026-04-02T08:25:53.701Z</time></trkpt><trkpt lat="43.0380523" lon="12.3446108"><ele>222.0</ele><time>2026-04-02T08:25:54.703Z</time></trkpt><trkpt lat="43.038116" lon="12.3446182"><ele>222.0</ele><time>2026-04-02T08:25:55.703Z</time></trkpt><trkpt lat="43.0381832" lon="12.3445854"><ele>222.0</ele><time>2026-04-02T08:25:56.701Z</time></trkpt><trkpt lat="43.0382443" lon="12.3445177"><ele>222.0</ele><time>2026-04-02T08:25:57.701Z</time></trkpt><trkpt lat="43.0383009" lon="12.3444027"><ele>222.0</ele><time>2026-04-02T08:25:58.699Z</time></trkpt><trkpt lat="43.0383704" lon="12.3442704"><ele>222.0</ele><time>2026-04-02T08:25:59.697Z</time></trkpt><trkpt lat="43.0384468" lon="12.3441415"><ele>222.0</ele><time>2026-04-02T08:26:00.697Z</time></trkpt><trkpt lat="43.0385269" lon="12.3440317"><ele>221.8</ele><time>2026-04-02T08:26:01.703Z</time></trkpt><trkpt lat="43.0386223" lon="12.3439411"><ele>221.6</ele><time>2026-04-02T08:26:02.7Z</time></trkpt><trkpt lat="43.0387194" lon="12.3438578"><ele>221.40000000000003</ele><time>2026-04-02T08:26:03.698Z</time></trkpt><trkpt lat="43.0388087" lon="12.3437899"><ele>221.20000000000002</ele><time>2026-04-02T08:26:04.699Z</time></trkpt><trkpt lat="43.0388855" lon="12.3437437"><ele>221.0</ele><time>2026-04-02T08:26:05.697Z</time></trkpt><trkpt lat="43.0390023" lon="12.3437105"><ele>221.50000000000003</ele><time>2026-04-02T08:26:07.699Z</time></trkpt><trkpt lat="43.0390999" lon="12.3437718"><ele>222.0</ele><time>2026-04-02T08:26:09.7Z</time></trkpt><trkpt lat="43.0391508" lon="12.3438286"><ele>222.5</ele><time>2026-04-02T08:26:10.697Z</time></trkpt><trkpt lat="43.039211" lon="12.3438936"><ele>223.0</ele><time>2026-04-02T08:26:11.699Z</time></trkpt><trkpt lat="43.039281" lon="12.3439646"><ele>223.50000000000003</ele><time>2026-04-02T08:26:12.708Z</time></trkpt><trkpt lat="43.0393677" lon="12.3440436"><ele>224.0</ele><time>2026-04-02T08:26:13.698Z</time></trkpt><trkpt lat="43.0394586" lon="12.3441277"><ele>224.0</ele><time>2026-04-02T08:26:14.698Z</time></trkpt><trkpt lat="43.0395561" lon="12.3442085"><ele>224.0</ele><time>2026-04-02T08:26:15.698Z</time></trkpt><trkpt lat="43.039652" lon="12.344292"><ele>224.0</ele><time>2026-04-02T08:26:16.699Z</time></trkpt><trkpt lat="43.0397521" lon="12.3443845"><ele>224.0</ele><time>2026-04-02T08:26:17.697Z</time></trkpt><trkpt lat="43.0398532" lon="12.3444974"><ele>224.0</ele><time>2026-04-02T08:26:18.698Z</time></trkpt><trkpt lat="43.0399521" lon="12.3446158"><ele>224.0</ele><time>2026-04-02T08:26:19.7Z</time></trkpt><trkpt lat="43.0400538" lon="12.3447374"><ele>224.0</ele><time>2026-04-02T08:26:20.705Z</time></trkpt><trkpt lat="43.0401585" lon="12.3448527"><ele>224.0</ele><time>2026-04-02T08:26:21.696Z</time></trkpt><trkpt lat="43.0402602" lon="12.344967"><ele>224.5</ele><time>2026-04-02T08:26:22.698Z</time></trkpt><trkpt lat="43.0403561" lon="12.345063"><ele>225.0</ele><time>2026-04-02T08:26:23.695Z</time></trkpt><trkpt lat="43.040445" lon="12.3451637"><ele>225.5</ele><time>2026-04-02T08:26:24.7Z</time></trkpt><trkpt lat="43.0405366" lon="12.3452771"><ele>226.0</ele><time>2026-04-02T08:26:25.694Z</time></trkpt><trkpt lat="43.0406205" lon="12.3453912"><ele>226.0</ele><time>2026-04-02T08:26:26.696Z</time></trkpt><trkpt lat="43.0407117" lon="12.3455159"><ele>226.0</ele><time>2026-04-02T08:26:27.697Z</time></trkpt><trkpt lat="43.0408076" lon="12.3456447"><ele>226.0</ele><time>2026-04-02T08:26:28.704Z</time></trkpt><trkpt lat="43.0408857" lon="12.345756"><ele>226.0</ele><time>2026-04-02T08:26:29.702Z</time></trkpt><trkpt lat="43.0409555" lon="12.3458681"><ele>225.5</ele><time>2026-04-02T08:26:30.702Z</time></trkpt><trkpt lat="43.0410455" lon="12.3459813"><ele>225.0</ele><time>2026-04-02T08:26:31.702Z</time></trkpt><trkpt lat="43.0411284" lon="12.3461048"><ele>224.5</ele><time>2026-04-02T08:26:32.702Z</time></trkpt><trkpt lat="43.0411963" lon="12.3462306"><ele>224.0</ele><time>2026-04-02T08:26:33.706Z</time></trkpt><trkpt lat="43.0412575" lon="12.3463602"><ele>223.75</ele><time>2026-04-02T08:26:34.699Z</time></trkpt><trkpt lat="43.04132" lon="12.3464885"><ele>223.5</ele><time>2026-04-02T08:26:35.699Z</time></trkpt><trkpt lat="43.0413856" lon="12.3466141"><ele>223.25</ele><time>2026-04-02T08:26:36.697Z</time></trkpt><trkpt lat="43.0414631" lon="12.3467344"><ele>223.0</ele><time>2026-04-02T08:26:37.698Z</time></trkpt><trkpt lat="43.0415492" lon="12.3468546"><ele>222.5</ele><time>2026-04-02T08:26:38.703Z</time></trkpt><trkpt lat="43.041641" lon="12.3469769"><ele>222.0</ele><time>2026-04-02T08:26:39.695Z</time></trkpt><trkpt lat="43.0417324" lon="12.3471007"><ele>221.5</ele><time>2026-04-02T08:26:40.7Z</time></trkpt><trkpt lat="43.0418336" lon="12.3472252"><ele>221.0</ele><time>2026-04-02T08:26:41.704Z</time></trkpt><trkpt lat="43.0419438" lon="12.3473517"><ele>221.0</ele><time>2026-04-02T08:26:42.701Z</time></trkpt><trkpt lat="43.0420682" lon="12.3474873"><ele>221.0</ele><time>2026-04-02T08:26:43.699Z</time></trkpt><trkpt lat="43.0421954" lon="12.3476423"><ele>221.0</ele><time>2026-04-02T08:26:44.699Z</time></trkpt><trkpt lat="43.042308" lon="12.3477863"><ele>221.0</ele><time>2026-04-02T08:26:45.7Z</time></trkpt><trkpt lat="43.042416" lon="12.347939"><ele>221.0</ele><time>2026-04-02T08:26:46.7Z</time></trkpt><trkpt lat="43.0425058" lon="12.3480922"><ele>221.0</ele><time>2026-04-02T08:26:47.7Z</time></trkpt><trkpt lat="43.042576" lon="12.3482711"><ele>221.0</ele><time>2026-04-02T08:26:48.699Z</time></trkpt><trkpt lat="43.04263" lon="12.3484723"><ele>221.0</ele><time>2026-04-02T08:26:49.701Z</time></trkpt><trkpt lat="43.0426699" lon="12.3486553"><ele>221.00000000000003</ele><time>2026-04-02T08:26:50.696Z</time></trkpt><trkpt lat="43.0427154" lon="12.3488029"><ele>221.00000000000003</ele><time>2026-04-02T08:26:51.698Z</time></trkpt><trkpt lat="43.0427647" lon="12.3489216"><ele>221.0</ele><time>2026-04-02T08:26:52.7Z</time></trkpt><trkpt lat="43.0428156" lon="12.3490186"><ele>221.0</ele><time>2026-04-02T08:26:53.7Z</time></trkpt><trkpt lat="43.0428942" lon="12.3491103"><ele>220.8</ele><time>2026-04-02T08:26:54.703Z</time></trkpt><trkpt lat="43.0429879" lon="12.3491979"><ele>220.60000000000002</ele><time>2026-04-02T08:26:55.702Z</time></trkpt><trkpt lat="43.0430684" lon="12.3492775"><ele>220.4</ele><time>2026-04-02T08:26:56.709Z</time></trkpt><trkpt lat="43.0431448" lon="12.3493493"><ele>220.2</ele><time>2026-04-02T08:26:57.706Z</time></trkpt><trkpt lat="43.0432118" lon="12.349408"><ele>220.0</ele><time>2026-04-02T08:26:58.696Z</time></trkpt><trkpt lat="43.0432898" lon="12.3494731"><ele>220.4</ele><time>2026-04-02T08:27:00.699Z</time></trkpt><trkpt lat="43.0433847" lon="12.3494966"><ele>220.8</ele><time>2026-04-02T08:27:07.701Z</time></trkpt><trkpt lat="43.0434964" lon="12.3494605"><ele>221.2</ele><time>2026-04-02T08:27:09.699Z</time></trkpt><trkpt lat="43.0435741" lon="12.3494742"><ele>221.6</ele><time>2026-04-02T08:27:10.707Z</time></trkpt><trkpt lat="43.0436695" lon="12.3495021"><ele>222.0</ele><time>2026-04-02T08:27:11.699Z</time></trkpt><trkpt lat="43.0437672" lon="12.3495452"><ele>222.0</ele><time>2026-04-02T08:27:12.703Z</time></trkpt><trkpt lat="43.043864" lon="12.3495795"><ele>222.0</ele><time>2026-04-02T08:27:13.696Z</time></trkpt><trkpt lat="43.0439644" lon="12.3496071"><ele>222.0</ele><time>2026-04-02T08:27:14.699Z</time></trkpt><trkpt lat="43.0440744" lon="12.3496399"><ele>222.0</ele><time>2026-04-02T08:27:15.699Z</time></trkpt><trkpt lat="43.0441772" lon="12.3496729"><ele>222.0</ele><time>2026-04-02T08:27:16.7Z</time></trkpt><trkpt lat="43.0442871" lon="12.3497107"><ele>222.75</ele><time>2026-04-02T08:27:17.696Z</time></trkpt><trkpt lat="43.0443976" lon="12.3497342"><ele>223.5</ele><time>2026-04-02T08:27:18.698Z</time></trkpt><trkpt lat="43.0445084" lon="12.3497626"><ele>224.25</ele><time>2026-04-02T08:27:19.7Z</time></trkpt><trkpt lat="43.0446206" lon="12.3497995"><ele>225.0</ele><time>2026-04-02T08:27:20.7Z</time></trkpt><trkpt lat="43.0447407" lon="12.3498323"><ele>225.0</ele><time>2026-04-02T08:27:21.698Z</time></trkpt><trkpt lat="43.0448661" lon="12.3498677"><ele>225.0</ele><time>2026-04-02T08:27:22.703Z</time></trkpt><trkpt lat="43.0449832" lon="12.3499036"><ele>225.0</ele><time>2026-04-02T08:27:23.699Z</time></trkpt><trkpt lat="43.0450998" lon="12.3499411"><ele>225.0</ele><time>2026-04-02T08:27:24.705Z</time></trkpt><trkpt lat="43.0452161" lon="12.3499705"><ele>226.0</ele><time>2026-04-02T08:27:25.7Z</time></trkpt><trkpt lat="43.0453244" lon="12.3500074"><ele>227.0</ele><time>2026-04-02T08:27:26.699Z</time></trkpt><trkpt lat="43.045431" lon="12.3500394"><ele>228.0</ele><time>2026-04-02T08:27:27.7Z</time></trkpt><trkpt lat="43.04554" lon="12.3500736"><ele>229.0</ele><time>2026-04-02T08:27:28.698Z</time></trkpt><trkpt lat="43.0456533" lon="12.3501123"><ele>230.0</ele><time>2026-04-02T08:27:29.698Z</time></trkpt><trkpt lat="43.0457518" lon="12.3501454"><ele>230.8</ele><time>2026-04-02T08:27:30.698Z</time></trkpt><trkpt lat="43.0458431" lon="12.3501713"><ele>231.6</ele><time>2026-04-02T08:27:31.697Z</time></trkpt><trkpt lat="43.0459131" lon="12.3501937"><ele>232.39999999999998</ele><time>2026-04-02T08:27:32.699Z</time></trkpt><trkpt lat="43.0460169" lon="12.350228"><ele>233.2</ele><time>2026-04-02T08:27:34.705Z</time></trkpt><trkpt lat="43.0461319" lon="12.3502604"><ele>234.0</ele><time>2026-04-02T08:27:36.698Z</time></trkpt><trkpt lat="43.0462481" lon="12.3502967"><ele>234.0</ele><time>2026-04-02T08:27:38.705Z</time></trkpt><trkpt lat="43.04631" lon="12.3503126"><ele>234.0</ele><time>2026-04-02T08:27:39.699Z</time></trkpt><trkpt lat="43.0463806" lon="12.3503319"><ele>234.0</ele><time>2026-04-02T08:27:40.7Z</time></trkpt><trkpt lat="43.0464722" lon="12.3503513"><ele>234.0</ele><time>2026-04-02T08:27:41.698Z</time></trkpt><trkpt lat="43.0465774" lon="12.350373"><ele>234.0</ele><time>2026-04-02T08:27:42.698Z</time></trkpt><trkpt lat="43.0466886" lon="12.3504015"><ele>234.0</ele><time>2026-04-02T08:27:43.697Z</time></trkpt><trkpt lat="43.0468102" lon="12.3504353"><ele>234.5</ele><time>2026-04-02T08:27:44.7Z</time></trkpt><trkpt lat="43.0469492" lon="12.3504766"><ele>235.0</ele><time>2026-04-02T08:27:45.695Z</time></trkpt><trkpt lat="43.0470967" lon="12.3505188"><ele>235.5</ele><time>2026-04-02T08:27:46.698Z</time></trkpt><trkpt lat="43.047248" lon="12.3505701"><ele>236.0</ele><time>2026-04-02T08:27:47.701Z</time></trkpt><trkpt lat="43.0474141" lon="12.350626"><ele>237.0</ele><time>2026-04-02T08:27:48.705Z</time></trkpt><trkpt lat="43.0475936" lon="12.3506672"><ele>238.0</ele><time>2026-04-02T08:27:49.698Z</time></trkpt><trkpt lat="43.0477902" lon="12.350706"><ele>239.0</ele><time>2026-04-02T08:27:50.705Z</time></trkpt><trkpt lat="43.0479819" lon="12.3507605"><ele>239.0</ele><time>2026-04-02T08:27:51.698Z</time></trkpt><trkpt lat="43.0481794" lon="12.3508205"><ele>239.0</ele><time>2026-04-02T08:27:52.7Z</time></trkpt><trkpt lat="43.0483556" lon="12.3508738"><ele>239.0</ele><time>2026-04-02T08:27:53.698Z</time></trkpt><trkpt lat="43.0485106" lon="12.3509212"><ele>241.25</ele><time>2026-04-02T08:27:54.696Z</time></trkpt><trkpt lat="43.0486615" lon="12.3509671"><ele>243.5</ele><time>2026-04-02T08:27:55.701Z</time></trkpt><trkpt lat="43.0487766" lon="12.3510086"><ele>245.75</ele><time>2026-04-02T08:27:56.698Z</time></trkpt><trkpt lat="43.0488997" lon="12.3510449"><ele>248.0</ele><time>2026-04-02T08:27:57.695Z</time></trkpt><trkpt lat="43.049025" lon="12.3510685"><ele>250.0</ele><time>2026-04-02T08:27:58.701Z</time></trkpt><trkpt lat="43.0491475" lon="12.351096"><ele>252.0</ele><time>2026-04-02T08:27:59.694Z</time></trkpt><trkpt lat="43.0492645" lon="12.3511201"><ele>254.0</ele><time>2026-04-02T08:28:00.706Z</time></trkpt><trkpt lat="43.0493711" lon="12.351156"><ele>256.0</ele><time>2026-04-02T08:28:01.699Z</time></trkpt><trkpt lat="43.0494707" lon="12.3511876"><ele>255.99999999999997</ele><time>2026-04-02T08:28:02.703Z</time></trkpt><trkpt lat="43.0495554" lon="12.3512048"><ele>256.0</ele><time>2026-04-02T08:28:03.701Z</time></trkpt><trkpt lat="43.0496408" lon="12.3512017"><ele>256.0</ele><time>2026-04-02T08:28:04.7Z</time></trkpt><trkpt lat="43.0497098" lon="12.3512093"><ele>256.0</ele><time>2026-04-02T08:28:05.701Z</time></trkpt><trkpt lat="43.0497792" lon="12.351226"><ele>255.99999999999997</ele><time>2026-04-02T08:28:06.704Z</time></trkpt><trkpt lat="43.0498037" lon="12.3513417"><ele>256.0</ele><time>2026-04-02T08:28:08.699Z</time></trkpt><trkpt lat="43.0498097" lon="12.3514762"><ele>254.99999999999997</ele><time>2026-04-02T08:28:10.698Z</time></trkpt><trkpt lat="43.0497792" lon="12.3516339"><ele>254.0</ele><time>2026-04-02T08:28:12.695Z</time></trkpt><trkpt lat="43.0497555" lon="12.3517408"><ele>253.0</ele><time>2026-04-02T08:28:14.697Z</time></trkpt><trkpt lat="43.0497322" lon="12.3518468"><ele>252.0</ele><time>2026-04-02T08:28:15.7Z</time></trkpt><trkpt lat="43.0497153" lon="12.3519442"><ele>250.99999999999997</ele><time>2026-04-02T08:28:16.699Z</time></trkpt><trkpt lat="43.0496974" lon="12.352049"><ele>250.0</ele><time>2026-04-02T08:28:17.699Z</time></trkpt><trkpt lat="43.0496494" lon="12.3522126"><ele>248.8</ele><time>2026-04-02T08:28:19.698Z</time></trkpt><trkpt lat="43.0496335" lon="12.3523217"><ele>247.6</ele><time>2026-04-02T08:28:20.706Z</time></trkpt><trkpt lat="43.0496136" lon="12.3524409"><ele>246.39999999999998</ele><time>2026-04-02T08:28:21.694Z</time></trkpt><trkpt lat="43.0495707" lon="12.3525653"><ele>245.2</ele><time>2026-04-02T08:28:22.699Z</time></trkpt><trkpt lat="43.0495338" lon="12.3526866"><ele>244.0</ele><time>2026-04-02T08:28:23.695Z</time></trkpt><trkpt lat="43.0494982" lon="12.3528137"><ele>244.0</ele><time>2026-04-02T08:28:24.698Z</time></trkpt><trkpt lat="43.0494637" lon="12.3529589"><ele>243.99999999999997</ele><time>2026-04-02T08:28:25.697Z</time></trkpt><trkpt lat="43.0494322" lon="12.3530946"><ele>243.99999999999997</ele><time>2026-04-02T08:28:26.698Z</time></trkpt><trkpt lat="43.0493949" lon="12.3532167"><ele>244.0</ele><time>2026-04-02T08:28:27.695Z</time></trkpt><trkpt lat="43.0493642" lon="12.3533404"><ele>244.0</ele><time>2026-04-02T08:28:28.7Z</time></trkpt><trkpt lat="43.0493386" lon="12.3534427"><ele>242.79999999999998</ele><time>2026-04-02T08:28:29.696Z</time></trkpt><trkpt lat="43.049314" lon="12.3535485"><ele>241.59999999999997</ele><time>2026-04-02T08:28:30.699Z</time></trkpt><trkpt lat="43.0492925" lon="12.3536523"><ele>240.4</ele><time>2026-04-02T08:28:31.697Z</time></trkpt><trkpt lat="43.0492689" lon="12.3537701"><ele>239.2</ele><time>2026-04-02T08:28:32.699Z</time></trkpt><trkpt lat="43.0492355" lon="12.3539042"><ele>238.0</ele><time>2026-04-02T08:28:33.696Z</time></trkpt><trkpt lat="43.049196" lon="12.3540391"><ele>236.25</ele><time>2026-04-02T08:28:34.705Z</time></trkpt><trkpt lat="43.0491616" lon="12.3541908"><ele>234.5</ele><time>2026-04-02T08:28:35.698Z</time></trkpt><trkpt lat="43.0491209" lon="12.3543422"><ele>232.75</ele><time>2026-04-02T08:28:36.697Z</time></trkpt><trkpt lat="43.0490799" lon="12.3544967"><ele>231.0</ele><time>2026-04-02T08:28:37.7Z</time></trkpt><trkpt lat="43.0490402" lon="12.3546622"><ele>229.0</ele><time>2026-04-02T08:28:38.699Z</time></trkpt><trkpt lat="43.0489971" lon="12.3548221"><ele>227.0</ele><time>2026-04-02T08:28:39.7Z</time></trkpt><trkpt lat="43.0489546" lon="12.3549829"><ele>225.0</ele><time>2026-04-02T08:28:40.697Z</time></trkpt><trkpt lat="43.0489086" lon="12.3551523"><ele>223.0</ele><time>2026-04-02T08:28:41.697Z</time></trkpt><trkpt lat="43.0488626" lon="12.3553076"><ele>223.0</ele><time>2026-04-02T08:28:42.699Z</time></trkpt><trkpt lat="43.0488212" lon="12.3554536"><ele>223.0</ele><time>2026-04-02T08:28:43.698Z</time></trkpt><trkpt lat="43.048789" lon="12.3555853"><ele>223.0</ele><time>2026-04-02T08:28:44.702Z</time></trkpt><trkpt lat="43.0487606" lon="12.3557079"><ele>223.0</ele><time>2026-04-02T08:28:45.701Z</time></trkpt><trkpt lat="43.0487311" lon="12.3558264"><ele>223.0</ele><time>2026-04-02T08:28:46.701Z</time></trkpt><trkpt lat="43.0487018" lon="12.3559217"><ele>223.28571428571428</ele><time>2026-04-02T08:28:47.699Z</time></trkpt><trkpt lat="43.0486583" lon="12.3559959"><ele>223.57142857142856</ele><time>2026-04-02T08:28:49.706Z</time></trkpt><trkpt lat="43.048604" lon="12.3560667"><ele>223.8571428571429</ele><time>2026-04-02T08:28:58.695Z</time></trkpt><trkpt lat="43.0485525" lon="12.3561344"><ele>224.14285714285717</ele><time>2026-04-02T08:29:01.697Z</time></trkpt><trkpt lat="43.0485288" lon="12.3562436"><ele>224.42857142857144</ele><time>2026-04-02T08:29:04.699Z</time></trkpt><trkpt lat="43.0485279" lon="12.356341"><ele>224.71428571428575</ele><time>2026-04-02T08:29:06.699Z</time></trkpt><trkpt lat="43.0485484" lon="12.3564243"><ele>225.00000000000003</ele><time>2026-04-02T08:29:07.702Z</time></trkpt><trkpt lat="43.0485756" lon="12.3565118"><ele>225.0</ele><time>2026-04-02T08:29:08.7Z</time></trkpt><trkpt lat="43.0486267" lon="12.3566082"><ele>225.0</ele><time>2026-04-02T08:29:09.698Z</time></trkpt><trkpt lat="43.0486878" lon="12.3567012"><ele>225.0</ele><time>2026-04-02T08:29:10.705Z</time></trkpt><trkpt lat="43.048772" lon="12.3567988"><ele>225.0</ele><time>2026-04-02T08:29:11.698Z</time></trkpt><trkpt lat="43.0488839" lon="12.3569049"><ele>225.0</ele><time>2026-04-02T08:29:12.699Z</time></trkpt><trkpt lat="43.0489894" lon="12.3570069"><ele>225.0</ele><time>2026-04-02T08:29:13.697Z</time></trkpt><trkpt lat="43.0490786" lon="12.3571015"><ele>225.0</ele><time>2026-04-02T08:29:14.696Z</time></trkpt><trkpt lat="43.049147" lon="12.3572002"><ele>225.0</ele><time>2026-04-02T08:29:15.696Z</time></trkpt><trkpt lat="43.0492123" lon="12.3573204"><ele>225.0</ele><time>2026-04-02T08:29:16.696Z</time></trkpt><trkpt lat="43.0492769" lon="12.357449"><ele>225.0</ele><time>2026-04-02T08:29:17.697Z</time></trkpt><trkpt lat="43.0493364" lon="12.3575649"><ele>224.4</ele><time>2026-04-02T08:29:18.699Z</time></trkpt><trkpt lat="43.0493887" lon="12.3576714"><ele>223.8</ele><time>2026-04-02T08:29:19.699Z</time></trkpt><trkpt lat="43.0494486" lon="12.3577814"><ele>223.2</ele><time>2026-04-02T08:29:20.701Z</time></trkpt><trkpt lat="43.0495062" lon="12.3578736"><ele>222.6</ele><time>2026-04-02T08:29:21.699Z</time></trkpt><trkpt lat="43.0495689" lon="12.3579672"><ele>222.0</ele><time>2026-04-02T08:29:22.697Z</time></trkpt><trkpt lat="43.0496353" lon="12.3580513"><ele>222.0</ele><time>2026-04-02T08:29:23.701Z</time></trkpt><trkpt lat="43.0497118" lon="12.3581305"><ele>222.0</ele><time>2026-04-02T08:29:24.709Z</time></trkpt><trkpt lat="43.0497906" lon="12.3582051"><ele>222.0</ele><time>2026-04-02T08:29:25.696Z</time></trkpt><trkpt lat="43.0498814" lon="12.3582823"><ele>222.0</ele><time>2026-04-02T08:29:26.704Z</time></trkpt><trkpt lat="43.0499574" lon="12.3583583"><ele>222.0</ele><time>2026-04-02T08:29:27.702Z</time></trkpt><trkpt lat="43.050026" lon="12.3584401"><ele>221.8</ele><time>2026-04-02T08:29:28.701Z</time></trkpt><trkpt lat="43.0500824" lon="12.3585104"><ele>221.6</ele><time>2026-04-02T08:29:29.699Z</time></trkpt><trkpt lat="43.0501461" lon="12.3585947"><ele>221.40000000000003</ele><time>2026-04-02T08:29:31.702Z</time></trkpt><trkpt lat="43.0502141" lon="12.35868"><ele>221.20000000000002</ele><time>2026-04-02T08:29:33.705Z</time></trkpt><trkpt lat="43.050318" lon="12.3587955"><ele>221.0</ele><time>2026-04-02T08:29:35.702Z</time></trkpt><trkpt lat="43.050384" lon="12.3588633"><ele>221.4</ele><time>2026-04-02T08:29:36.699Z</time></trkpt><trkpt lat="43.0504591" lon="12.3589433"><ele>221.8</ele><time>2026-04-02T08:29:37.698Z</time></trkpt><trkpt lat="43.0505384" lon="12.3590389"><ele>222.20000000000002</ele><time>2026-04-02T08:29:38.696Z</time></trkpt><trkpt lat="43.0506297" lon="12.3591318"><ele>222.60000000000002</ele><time>2026-04-02T08:29:39.699Z</time></trkpt><trkpt lat="43.0507188" lon="12.3592318"><ele>223.0</ele><time>2026-04-02T08:29:40.702Z</time></trkpt><trkpt lat="43.0508118" lon="12.3593303"><ele>223.2</ele><time>2026-04-02T08:29:41.699Z</time></trkpt><trkpt lat="43.0509075" lon="12.3594206"><ele>223.4</ele><time>2026-04-02T08:29:42.697Z</time></trkpt><trkpt lat="43.0509973" lon="12.3595064"><ele>223.59999999999997</ele><time>2026-04-02T08:29:43.696Z</time></trkpt><trkpt lat="43.051075" lon="12.3595891"><ele>223.79999999999998</ele><time>2026-04-02T08:29:44.708Z</time></trkpt><trkpt lat="43.0511293" lon="12.3596738"><ele>224.0</ele><time>2026-04-02T08:29:45.705Z</time></trkpt><trkpt lat="43.0511528" lon="12.3597715"><ele>224.0</ele><time>2026-04-02T08:29:46.716Z</time></trkpt><trkpt lat="43.051155" lon="12.3598837"><ele>223.99999999999997</ele><time>2026-04-02T08:29:47.697Z</time></trkpt><trkpt lat="43.0511638" lon="12.3600119"><ele>223.99999999999997</ele><time>2026-04-02T08:29:48.699Z</time></trkpt><trkpt lat="43.0511956" lon="12.3601357"><ele>224.0</ele><time>2026-04-02T08:29:49.698Z</time></trkpt><trkpt lat="43.0512434" lon="12.3602327"><ele>224.0</ele><time>2026-04-02T08:29:50.701Z</time></trkpt><trkpt lat="43.0513204" lon="12.3603253"><ele>224.0</ele><time>2026-04-02T08:29:51.698Z</time></trkpt><trkpt lat="43.0514087" lon="12.3604269"><ele>223.99999999999997</ele><time>2026-04-02T08:29:52.699Z</time></trkpt><trkpt lat="43.0514975" lon="12.3605191"><ele>223.99999999999997</ele><time>2026-04-02T08:29:53.705Z</time></trkpt><trkpt lat="43.0515752" lon="12.360612"><ele>224.0</ele><time>2026-04-02T08:29:54.705Z</time></trkpt><trkpt lat="43.0516518" lon="12.3606868"><ele>224.0</ele><time>2026-04-02T08:29:55.702Z</time></trkpt><trkpt lat="43.0517343" lon="12.3607665"><ele>224.2</ele><time>2026-04-02T08:29:56.698Z</time></trkpt><trkpt lat="43.0518173" lon="12.3608557"><ele>224.39999999999998</ele><time>2026-04-02T08:29:57.7Z</time></trkpt><trkpt lat="43.0519108" lon="12.3609529"><ele>224.6</ele><time>2026-04-02T08:29:58.701Z</time></trkpt><trkpt lat="43.0520041" lon="12.3610472"><ele>224.8</ele><time>2026-04-02T08:29:59.711Z</time></trkpt><trkpt lat="43.0520836" lon="12.3611291"><ele>225.0</ele><time>2026-04-02T08:30:00.699Z</time></trkpt><trkpt lat="43.0521674" lon="12.3612176"><ele>225.0</ele><time>2026-04-02T08:30:01.705Z</time></trkpt><trkpt lat="43.0522435" lon="12.3613011"><ele>225.0</ele><time>2026-04-02T08:30:02.706Z</time></trkpt><trkpt lat="43.0523072" lon="12.3613948"><ele>225.0</ele><time>2026-04-02T08:30:03.706Z</time></trkpt><trkpt lat="43.052355" lon="12.3614991"><ele>225.0</ele><time>2026-04-02T08:30:04.702Z</time></trkpt><trkpt lat="43.0523831" lon="12.3616132"><ele>225.0</ele><time>2026-04-02T08:30:05.696Z</time></trkpt><trkpt lat="43.0524014" lon="12.3617209"><ele>225.5</ele><time>2026-04-02T08:30:06.705Z</time></trkpt><trkpt lat="43.0523821" lon="12.3618287"><ele>226.0</ele><time>2026-04-02T08:30:07.695Z</time></trkpt><trkpt lat="43.0523565" lon="12.3619362"><ele>226.5</ele><time>2026-04-02T08:30:08.698Z</time></trkpt><trkpt lat="43.0523236" lon="12.3620379"><ele>227.0</ele><time>2026-04-02T08:30:09.7Z</time></trkpt><trkpt lat="43.0522842" lon="12.362118"><ele>227.5</ele><time>2026-04-02T08:30:10.7Z</time></trkpt><trkpt lat="43.0522431" lon="12.3621932"><ele>228.0</ele><time>2026-04-02T08:30:11.705Z</time></trkpt><trkpt lat="43.052198" lon="12.3622919"><ele>228.28571428571428</ele><time>2026-04-02T08:30:13.701Z</time></trkpt><trkpt lat="43.0521583" lon="12.3623666"><ele>228.57142857142856</ele><time>2026-04-02T08:30:22.705Z</time></trkpt><trkpt lat="43.0520959" lon="12.3623307"><ele>228.85714285714283</ele><time>2026-04-02T08:30:24.707Z</time></trkpt><trkpt lat="43.051997" lon="12.3623267"><ele>229.1428571428571</ele><time>2026-04-02T08:30:26.7Z</time></trkpt><trkpt lat="43.0519389" lon="12.362362"><ele>229.42857142857142</ele><time>2026-04-02T08:30:27.706Z</time></trkpt><trkpt lat="43.0518752" lon="12.3624001"><ele>229.71428571428567</ele><time>2026-04-02T08:30:28.7Z</time></trkpt><trkpt lat="43.0517995" lon="12.3624428"><ele>229.99999999999997</ele><time>2026-04-02T08:30:29.698Z</time></trkpt><trkpt lat="43.0517217" lon="12.3624843"><ele>230.00000000000003</ele><time>2026-04-02T08:30:30.697Z</time></trkpt><trkpt lat="43.0516427" lon="12.36253"><ele>230.0</ele><time>2026-04-02T08:30:31.709Z</time></trkpt><trkpt lat="43.0515682" lon="12.3625755"><ele>230.0</ele><time>2026-04-02T08:30:32.697Z</time></trkpt><trkpt lat="43.051493" lon="12.3626362"><ele>230.0</ele><time>2026-04-02T08:30:33.702Z</time></trkpt><trkpt lat="43.0514193" lon="12.3627127"><ele>230.00000000000003</ele><time>2026-04-02T08:30:34.698Z</time></trkpt><trkpt lat="43.0513651" lon="12.3627783"><ele>230.0</ele><time>2026-04-02T08:30:35.697Z</time></trkpt><trkpt lat="43.0512981" lon="12.3628784"><ele>229.83333333333334</ele><time>2026-04-02T08:30:37.697Z</time></trkpt><trkpt lat="43.0512516" lon="12.3629418"><ele>229.66666666666669</ele><time>2026-04-02T08:30:45.702Z</time></trkpt><trkpt lat="43.0512079" lon="12.3630079"><ele>229.5</ele><time>2026-04-02T08:31:02.7Z</time></trkpt><trkpt lat="43.051156" lon="12.363077"><ele>229.33333333333331</ele><time>2026-04-02T08:31:06.698Z</time></trkpt><trkpt lat="43.05111" lon="12.3631479"><ele>229.16666666666666</ele><time>2026-04-02T08:31:08.702Z</time></trkpt><trkpt lat="43.0510544" lon="12.3632294"><ele>229.0</ele><time>2026-04-02T08:31:11.699Z</time></trkpt><trkpt lat="43.0509791" lon="12.3633152"><ele>228.99999999999997</ele><time>2026-04-02T08:31:14.7Z</time></trkpt><trkpt lat="43.050898" lon="12.3633728"><ele>229.0</ele><time>2026-04-02T08:31:16.697Z</time></trkpt><trkpt lat="43.0508348" lon="12.3634078"><ele>229.0</ele><time>2026-04-02T08:31:18.697Z</time></trkpt><trkpt lat="43.0507557" lon="12.3634674"><ele>229.0</ele><time>2026-04-02T08:31:21.698Z</time></trkpt><trkpt lat="43.0506992" lon="12.363521"><ele>228.99999999999997</ele><time>2026-04-02T08:31:23.698Z</time></trkpt><trkpt lat="43.0506277" lon="12.3635901"><ele>229.0</ele><time>2026-04-02T08:31:25.695Z</time></trkpt><trkpt lat="43.0505476" lon="12.363665"><ele>230.6</ele><time>2026-04-02T08:31:27.698Z</time></trkpt><trkpt lat="43.0504528" lon="12.3637499"><ele>232.2</ele><time>2026-04-02T08:31:29.701Z</time></trkpt><trkpt lat="43.0503613" lon="12.3638246"><ele>233.79999999999998</ele><time>2026-04-02T08:31:31.7Z</time></trkpt><trkpt lat="43.0503062" lon="12.363871"><ele>235.39999999999998</ele><time>2026-04-02T08:31:32.698Z</time></trkpt><trkpt lat="43.0501901" lon="12.3639375"><ele>237.0</ele><time>2026-04-02T08:31:34.702Z</time></trkpt><trkpt lat="43.0501258" lon="12.3639635"><ele>237.75</ele><time>2026-04-02T08:31:35.697Z</time></trkpt><trkpt lat="43.0500046" lon="12.3640049"><ele>238.5</ele><time>2026-04-02T08:31:37.705Z</time></trkpt><trkpt lat="43.049882" lon="12.3640477"><ele>239.25</ele><time>2026-04-02T08:31:39.7Z</time></trkpt><trkpt lat="43.0497718" lon="12.3641258"><ele>240.0</ele><time>2026-04-02T08:31:41.702Z</time></trkpt><trkpt lat="43.0497112" lon="12.3642344"><ele>240.5</ele><time>2026-04-02T08:31:43.7Z</time></trkpt><trkpt lat="43.0496783" lon="12.364352"><ele>241.0</ele><time>2026-04-02T08:31:45.708Z</time></trkpt><trkpt lat="43.049629" lon="12.3644702"><ele>241.5</ele><time>2026-04-02T08:31:47.699Z</time></trkpt><trkpt lat="43.04958" lon="12.3645516"><ele>242.0</ele><time>2026-04-02T08:31:49.699Z</time></trkpt><trkpt lat="43.049527" lon="12.3646149"><ele>242.5</ele><time>2026-04-02T08:31:51.701Z</time></trkpt><trkpt lat="43.0494492" lon="12.3646331"><ele>243.0</ele><time>2026-04-02T08:31:53.704Z</time></trkpt><trkpt lat="43.049358" lon="12.3645913"><ele>243.0</ele><time>2026-04-02T08:31:55.702Z</time></trkpt><trkpt lat="43.0492961" lon="12.3645646"><ele>243.0</ele><time>2026-04-02T08:31:56.704Z</time></trkpt><trkpt lat="43.0492332" lon="12.3645513"><ele>243.0</ele><time>2026-04-02T08:31:57.698Z</time></trkpt><trkpt lat="43.0491625" lon="12.3645409"><ele>243.0</ele><time>2026-04-02T08:31:58.7Z</time></trkpt><trkpt lat="43.0490925" lon="12.3645343"><ele>243.0</ele><time>2026-04-02T08:31:59.702Z</time></trkpt><trkpt lat="43.0489712" lon="12.3645184"><ele>243.0</ele><time>2026-04-02T08:32:01.701Z</time></trkpt><trkpt lat="43.0488837" lon="12.3645117"><ele>244.66666666666666</ele><time>2026-04-02T08:32:02.703Z</time></trkpt><trkpt lat="43.0488123" lon="12.3644901"><ele>246.33333333333331</ele><time>2026-04-02T08:32:03.698Z</time></trkpt><trkpt lat="43.0487373" lon="12.3644796"><ele>248.0</ele><time>2026-04-02T08:32:04.702Z</time></trkpt><trkpt lat="43.0486635" lon="12.3644676"><ele>249.66666666666666</ele><time>2026-04-02T08:32:05.696Z</time></trkpt><trkpt lat="43.0485784" lon="12.3644573"><ele>251.33333333333331</ele><time>2026-04-02T08:32:06.703Z</time></trkpt><trkpt lat="43.0485013" lon="12.3644251"><ele>253.0</ele><time>2026-04-02T08:32:07.704Z</time></trkpt><trkpt lat="43.0484312" lon="12.3643842"><ele>253.0</ele><time>2026-04-02T08:32:08.704Z</time></trkpt><trkpt lat="43.0483692" lon="12.3643468"><ele>253.0</ele><time>2026-04-02T08:32:09.701Z</time></trkpt><trkpt lat="43.0482514" lon="12.3643087"><ele>253.0</ele><time>2026-04-02T08:32:11.708Z</time></trkpt><trkpt lat="43.048145" lon="12.3643291"><ele>253.0</ele><time>2026-04-02T08:32:13.702Z</time></trkpt><trkpt lat="43.0480248" lon="12.3643484"><ele>253.0</ele><time>2026-04-02T08:32:15.7Z</time></trkpt><trkpt lat="43.0479053" lon="12.3643691"><ele>253.0</ele><time>2026-04-02T08:32:17.702Z</time></trkpt><trkpt lat="43.0478332" lon="12.3643658"><ele>253.0</ele><time>2026-04-02T08:32:18.703Z</time></trkpt><trkpt lat="43.047747" lon="12.3643518"><ele>253.0</ele><time>2026-04-02T08:32:19.7Z</time></trkpt><trkpt lat="43.0476523" lon="12.3643391"><ele>253.0</ele><time>2026-04-02T08:32:20.705Z</time></trkpt><trkpt lat="43.0475559" lon="12.3643201"><ele>253.0</ele><time>2026-04-02T08:32:21.698Z</time></trkpt><trkpt lat="43.0474521" lon="12.3643007"><ele>251.0</ele><time>2026-04-02T08:32:22.701Z</time></trkpt><trkpt lat="43.0473551" lon="12.3642704"><ele>249.0</ele><time>2026-04-02T08:32:23.699Z</time></trkpt><trkpt lat="43.047253" lon="12.3642448"><ele>247.0</ele><time>2026-04-02T08:32:24.699Z</time></trkpt><trkpt lat="43.0471346" lon="12.3642367"><ele>245.0</ele><time>2026-04-02T08:32:25.698Z</time></trkpt><trkpt lat="43.0470177" lon="12.3642286"><ele>243.0</ele><time>2026-04-02T08:32:26.699Z</time></trkpt><trkpt lat="43.0469021" lon="12.3642108"><ele>243.0</ele><time>2026-04-02T08:32:27.707Z</time></trkpt><trkpt lat="43.0467862" lon="12.364196"><ele>243.0</ele><time>2026-04-02T08:32:28.701Z</time></trkpt><trkpt lat="43.0466762" lon="12.3641795"><ele>243.0</ele><time>2026-04-02T08:32:29.7Z</time></trkpt><trkpt lat="43.0465696" lon="12.3641669"><ele>243.0</ele><time>2026-04-02T08:32:30.709Z</time></trkpt><trkpt lat="43.0464681" lon="12.3641501"><ele>243.0</ele><time>2026-04-02T08:32:31.701Z</time></trkpt><trkpt lat="43.0463687" lon="12.3641362"><ele>241.2</ele><time>2026-04-02T08:32:32.699Z</time></trkpt><trkpt lat="43.0462668" lon="12.3641209"><ele>239.4</ele><time>2026-04-02T08:32:33.704Z</time></trkpt><trkpt lat="43.0461694" lon="12.3641005"><ele>237.59999999999997</ele><time>2026-04-02T08:32:34.701Z</time></trkpt><trkpt lat="43.0460711" lon="12.3640834"><ele>235.79999999999998</ele><time>2026-04-02T08:32:35.708Z</time></trkpt><trkpt lat="43.0459716" lon="12.3640558"><ele>234.0</ele><time>2026-04-02T08:32:36.698Z</time></trkpt><trkpt lat="43.0458728" lon="12.3640418"><ele>233.39999999999998</ele><time>2026-04-02T08:32:37.698Z</time></trkpt><trkpt lat="43.0457817" lon="12.3640265"><ele>232.79999999999998</ele><time>2026-04-02T08:32:38.704Z</time></trkpt><trkpt lat="43.0456859" lon="12.3640227"><ele>232.20000000000002</ele><time>2026-04-02T08:32:39.699Z</time></trkpt><trkpt lat="43.0455852" lon="12.3640394"><ele>231.60000000000002</ele><time>2026-04-02T08:32:40.707Z</time></trkpt><trkpt lat="43.0454752" lon="12.3640682"><ele>231.0</ele><time>2026-04-02T08:32:41.705Z</time></trkpt><trkpt lat="43.0453698" lon="12.3640886"><ele>231.0</ele><time>2026-04-02T08:32:42.704Z</time></trkpt><trkpt lat="43.0452763" lon="12.3641004"><ele>231.0</ele><time>2026-04-02T08:32:43.698Z</time></trkpt><trkpt lat="43.0451853" lon="12.3641125"><ele>231.0</ele><time>2026-04-02T08:32:44.699Z</time></trkpt><trkpt lat="43.0451106" lon="12.364126"><ele>231.0</ele><time>2026-04-02T08:32:45.698Z</time></trkpt><trkpt lat="43.0450048" lon="12.3641264"><ele>231.0</ele><time>2026-04-02T08:32:47.701Z</time></trkpt><trkpt lat="43.0449223" lon="12.3641317"><ele>231.0</ele><time>2026-04-02T08:32:50.697Z</time></trkpt><trkpt lat="43.0448515" lon="12.3641367"><ele>231.0</ele><time>2026-04-02T08:32:53.704Z</time></trkpt><trkpt lat="43.0447729" lon="12.3641559"><ele>231.00000000000003</ele><time>2026-04-02T08:32:55.707Z</time></trkpt><trkpt lat="43.0446395" lon="12.3641843"><ele>231.00000000000003</ele><time>2026-04-02T08:32:57.702Z</time></trkpt><trkpt lat="43.0445613" lon="12.364195"><ele>231.0</ele><time>2026-04-02T08:32:58.7Z</time></trkpt><trkpt lat="43.0444714" lon="12.3642116"><ele>231.0</ele><time>2026-04-02T08:32:59.702Z</time></trkpt><trkpt lat="43.0443792" lon="12.3642233"><ele>231.0</ele><time>2026-04-02T08:33:00.701Z</time></trkpt><trkpt lat="43.0442849" lon="12.3642275"><ele>231.00000000000003</ele><time>2026-04-02T08:33:01.704Z</time></trkpt><trkpt lat="43.0441834" lon="12.3642631"><ele>231.00000000000003</ele><time>2026-04-02T08:33:02.7Z</time></trkpt><trkpt lat="43.0440805" lon="12.3643221"><ele>231.0</ele><time>2026-04-02T08:33:03.698Z</time></trkpt><trkpt lat="43.0439686" lon="12.3643921"><ele>231.0</ele><time>2026-04-02T08:33:04.698Z</time></trkpt><trkpt lat="43.0438527" lon="12.3644693"><ele>230.5</ele><time>2026-04-02T08:33:05.702Z</time></trkpt><trkpt lat="43.0437226" lon="12.364556"><ele>230.0</ele><time>2026-04-02T08:33:06.704Z</time></trkpt><trkpt lat="43.0436071" lon="12.3646322"><ele>229.5</ele><time>2026-04-02T08:33:07.702Z</time></trkpt><trkpt lat="43.0435003" lon="12.3646997"><ele>229.0</ele><time>2026-04-02T08:33:08.706Z</time></trkpt><trkpt lat="43.0434017" lon="12.3647713"><ele>229.0</ele><time>2026-04-02T08:33:09.702Z</time></trkpt><trkpt lat="43.0433082" lon="12.3648603"><ele>229.0</ele><time>2026-04-02T08:33:10.697Z</time></trkpt><trkpt lat="43.04322" lon="12.3649564"><ele>229.0</ele><time>2026-04-02T08:33:11.701Z</time></trkpt><trkpt lat="43.0431351" lon="12.3650635"><ele>229.0</ele><time>2026-04-02T08:33:12.701Z</time></trkpt><trkpt lat="43.0430554" lon="12.3651869"><ele>229.0</ele><time>2026-04-02T08:33:13.696Z</time></trkpt><trkpt lat="43.0429737" lon="12.3653222"><ele>229.0</ele><time>2026-04-02T08:33:14.7Z</time></trkpt><trkpt lat="43.0428967" lon="12.365437"><ele>229.0</ele><time>2026-04-02T08:33:15.699Z</time></trkpt><trkpt lat="43.0428096" lon="12.3655561"><ele>229.0</ele><time>2026-04-02T08:33:16.699Z</time></trkpt><trkpt lat="43.0427124" lon="12.3656661"><ele>229.0</ele><time>2026-04-02T08:33:17.708Z</time></trkpt><trkpt lat="43.0426133" lon="12.3657655"><ele>229.0</ele><time>2026-04-02T08:33:18.698Z</time></trkpt><trkpt lat="43.0425248" lon="12.3658556"><ele>229.0</ele><time>2026-04-02T08:33:19.699Z</time></trkpt><trkpt lat="43.0424308" lon="12.3659487"><ele>229.0</ele><time>2026-04-02T08:33:20.7Z</time></trkpt><trkpt lat="43.0423363" lon="12.3660418"><ele>229.0</ele><time>2026-04-02T08:33:21.698Z</time></trkpt><trkpt lat="43.0422471" lon="12.3661604"><ele>229.0</ele><time>2026-04-02T08:33:22.698Z</time></trkpt><trkpt lat="43.0421631" lon="12.3663013"><ele>229.0</ele><time>2026-04-02T08:33:23.7Z</time></trkpt><trkpt lat="43.0420912" lon="12.3664577"><ele>229.0</ele><time>2026-04-02T08:33:24.702Z</time></trkpt><trkpt lat="43.0420382" lon="12.3666191"><ele>228.75</ele><time>2026-04-02T08:33:25.699Z</time></trkpt><trkpt lat="43.0420034" lon="12.3667867"><ele>228.5</ele><time>2026-04-02T08:33:26.7Z</time></trkpt><trkpt lat="43.0419828" lon="12.3669507"><ele>228.25</ele><time>2026-04-02T08:33:27.702Z</time></trkpt><trkpt lat="43.0419539" lon="12.3670947"><ele>228.0</ele><time>2026-04-02T08:33:28.703Z</time></trkpt><trkpt lat="43.0419063" lon="12.367216"><ele>228.5</ele><time>2026-04-02T08:33:29.698Z</time></trkpt><trkpt lat="43.0418272" lon="12.3673404"><ele>229.0</ele><time>2026-04-02T08:33:30.706Z</time></trkpt><trkpt lat="43.0417311" lon="12.3674542"><ele>229.5</ele><time>2026-04-02T08:33:31.696Z</time></trkpt><trkpt lat="43.0416194" lon="12.3675747"><ele>230.0</ele><time>2026-04-02T08:33:32.698Z</time></trkpt><trkpt lat="43.0415015" lon="12.3676889"><ele>230.75</ele><time>2026-04-02T08:33:33.7Z</time></trkpt><trkpt lat="43.041383" lon="12.3677856"><ele>231.5</ele><time>2026-04-02T08:33:34.699Z</time></trkpt><trkpt lat="43.0412673" lon="12.3678743"><ele>232.25</ele><time>2026-04-02T08:33:35.7Z</time></trkpt><trkpt lat="43.0411674" lon="12.3679524"><ele>233.0</ele><time>2026-04-02T08:33:36.701Z</time></trkpt><trkpt lat="43.0410803" lon="12.3680213"><ele>233.00000000000003</ele><time>2026-04-02T08:33:37.701Z</time></trkpt><trkpt lat="43.0410112" lon="12.3680796"><ele>233.0</ele><time>2026-04-02T08:33:38.706Z</time></trkpt><trkpt lat="43.0409502" lon="12.3681217"><ele>233.0</ele><time>2026-04-02T08:33:39.705Z</time></trkpt><trkpt lat="43.0408714" lon="12.3680987"><ele>233.0</ele><time>2026-04-02T08:33:41.697Z</time></trkpt><trkpt lat="43.0408388" lon="12.3680235"><ele>233.00000000000003</ele><time>2026-04-02T08:33:42.697Z</time></trkpt><trkpt lat="43.0408072" lon="12.3679308"><ele>233.0</ele><time>2026-04-02T08:33:43.699Z</time></trkpt><trkpt lat="43.0407586" lon="12.367831"><ele>234.00000000000003</ele><time>2026-04-02T08:33:44.701Z</time></trkpt><trkpt lat="43.0407128" lon="12.3677466"><ele>235.0</ele><time>2026-04-02T08:33:45.7Z</time></trkpt><trkpt lat="43.0406595" lon="12.3676926"><ele>236.0</ele><time>2026-04-02T08:33:46.705Z</time></trkpt><trkpt lat="43.0405955" lon="12.3676704"><ele>237.0</ele><time>2026-04-02T08:33:47.697Z</time></trkpt><trkpt lat="43.0404665" lon="12.3677407"><ele>238.00000000000003</ele><time>2026-04-02T08:33:49.701Z</time></trkpt><trkpt lat="43.0403822" lon="12.3678148"><ele>239.0</ele><time>2026-04-02T08:33:50.696Z</time></trkpt><trkpt lat="43.0402826" lon="12.3678933"><ele>239.0</ele><time>2026-04-02T08:33:51.698Z</time></trkpt><trkpt lat="43.0401781" lon="12.3679906"><ele>239.0</ele><time>2026-04-02T08:33:52.701Z</time></trkpt><trkpt lat="43.0400683" lon="12.3680788"><ele>239.0</ele><time>2026-04-02T08:33:53.702Z</time></trkpt><trkpt lat="43.0399538" lon="12.3681719"><ele>239.0</ele><time>2026-04-02T08:33:54.7Z</time></trkpt><trkpt lat="43.0398339" lon="12.3682658"><ele>243.0</ele><time>2026-04-02T08:33:55.7Z</time></trkpt><trkpt lat="43.0397116" lon="12.3683643"><ele>247.0</ele><time>2026-04-02T08:33:56.701Z</time></trkpt><trkpt lat="43.039578" lon="12.3684665"><ele>251.0</ele><time>2026-04-02T08:33:57.705Z</time></trkpt><trkpt lat="43.039428" lon="12.3685858"><ele>251.0</ele><time>2026-04-02T08:33:58.699Z</time></trkpt><trkpt lat="43.0392745" lon="12.368713"><ele>251.0</ele><time>2026-04-02T08:33:59.7Z</time></trkpt><trkpt lat="43.0391359" lon="12.3688291"><ele>251.0</ele><time>2026-04-02T08:34:00.7Z</time></trkpt><trkpt lat="43.0390093" lon="12.3689359"><ele>254.0</ele><time>2026-04-02T08:34:01.699Z</time></trkpt><trkpt lat="43.0388948" lon="12.369027"><ele>257.0</ele><time>2026-04-02T08:34:02.704Z</time></trkpt><trkpt lat="43.0387868" lon="12.3691119"><ele>260.0</ele><time>2026-04-02T08:34:03.702Z</time></trkpt><trkpt lat="43.0386785" lon="12.3692106"><ele>263.0</ele><time>2026-04-02T08:34:04.7Z</time></trkpt><trkpt lat="43.0385754" lon="12.3693125"><ele>263.0</ele><time>2026-04-02T08:34:05.698Z</time></trkpt><trkpt lat="43.0384659" lon="12.3694196"><ele>263.0</ele><time>2026-04-02T08:34:06.696Z</time></trkpt><trkpt lat="43.0383459" lon="12.3695231"><ele>263.0</ele><time>2026-04-02T08:34:07.7Z</time></trkpt><trkpt lat="43.0382231" lon="12.3696217"><ele>263.0</ele><time>2026-04-02T08:34:08.705Z</time></trkpt><trkpt lat="43.038103" lon="12.3697079"><ele>263.83333333333337</ele><time>2026-04-02T08:34:09.702Z</time></trkpt><trkpt lat="43.0380183" lon="12.3697772"><ele>264.6666666666667</ele><time>2026-04-02T08:34:10.702Z</time></trkpt><trkpt lat="43.0379267" lon="12.3698485"><ele>265.5</ele><time>2026-04-02T08:34:11.7Z</time></trkpt><trkpt lat="43.0378683" lon="12.3698985"><ele>266.3333333333333</ele><time>2026-04-02T08:34:12.697Z</time></trkpt><trkpt lat="43.037804" lon="12.3699544"><ele>267.16666666666663</ele><time>2026-04-02T08:34:13.701Z</time></trkpt><trkpt lat="43.0377495" lon="12.370003"><ele>268.0</ele><time>2026-04-02T08:34:14.698Z</time></trkpt><trkpt lat="43.0376953" lon="12.3700816"><ele>268.0</ele><time>2026-04-02T08:34:38.695Z</time></trkpt><trkpt lat="43.0376825" lon="12.3702027"><ele>268.0</ele><time>2026-04-02T08:34:40.702Z</time></trkpt><trkpt lat="43.0377308" lon="12.3702841"><ele>268.0</ele><time>2026-04-02T08:34:41.707Z</time></trkpt><trkpt lat="43.0377802" lon="12.3703869"><ele>268.0</ele><time>2026-04-02T08:34:42.701Z</time></trkpt><trkpt lat="43.0378268" lon="12.3704941"><ele>268.0</ele><time>2026-04-02T08:34:43.703Z</time></trkpt><trkpt lat="43.0378686" lon="12.3706187"><ele>268.0</ele><time>2026-04-02T08:34:44.7Z</time></trkpt><trkpt lat="43.037911" lon="12.3707366"><ele>266.8</ele><time>2026-04-02T08:34:45.697Z</time></trkpt><trkpt lat="43.0379556" lon="12.3708565"><ele>265.6</ele><time>2026-04-02T08:34:46.698Z</time></trkpt><trkpt lat="43.0380196" lon="12.3709875"><ele>264.4</ele><time>2026-04-02T08:34:47.702Z</time></trkpt><trkpt lat="43.0380665" lon="12.3711063"><ele>263.2</ele><time>2026-04-02T08:34:48.707Z</time></trkpt><trkpt lat="43.0381083" lon="12.3712141"><ele>262.0</ele><time>2026-04-02T08:34:49.705Z</time></trkpt><trkpt lat="43.0381516" lon="12.3713208"><ele>261.66666666666663</ele><time>2026-04-02T08:34:50.701Z</time></trkpt><trkpt lat="43.0381944" lon="12.3714141"><ele>261.3333333333333</ele><time>2026-04-02T08:34:51.7Z</time></trkpt><trkpt lat="43.0382182" lon="12.371514"><ele>261.0</ele><time>2026-04-02T08:34:52.703Z</time></trkpt><trkpt lat="43.0382126" lon="12.3716099"><ele>260.6666666666667</ele><time>2026-04-02T08:34:53.7Z</time></trkpt><trkpt lat="43.0381885" lon="12.3717078"><ele>260.33333333333337</ele><time>2026-04-02T08:34:54.7Z</time></trkpt><trkpt lat="43.0381436" lon="12.3718026"><ele>260.0</ele><time>2026-04-02T08:34:55.701Z</time></trkpt><trkpt lat="43.0380773" lon="12.3718806"><ele>260.0</ele><time>2026-04-02T08:34:56.7Z</time></trkpt><trkpt lat="43.0380065" lon="12.3719543"><ele>260.0</ele><time>2026-04-02T08:34:57.701Z</time></trkpt><trkpt lat="43.037936" lon="12.3720175"><ele>260.0</ele><time>2026-04-02T08:34:58.705Z</time></trkpt><trkpt lat="43.0378696" lon="12.3720871"><ele>260.0</ele><time>2026-04-02T08:34:59.704Z</time></trkpt><trkpt lat="43.0377977" lon="12.3721682"><ele>260.0</ele><time>2026-04-02T08:35:00.698Z</time></trkpt><trkpt lat="43.0377221" lon="12.3722428"><ele>260.0</ele><time>2026-04-02T08:35:01.701Z</time></trkpt><trkpt lat="43.0376443" lon="12.3723046"><ele>259.8</ele><time>2026-04-02T08:35:02.702Z</time></trkpt><trkpt lat="43.0375682" lon="12.3723773"><ele>259.6</ele><time>2026-04-02T08:35:03.701Z</time></trkpt><trkpt lat="43.0374844" lon="12.3724482"><ele>259.4</ele><time>2026-04-02T08:35:04.702Z</time></trkpt><trkpt lat="43.0374181" lon="12.3725533"><ele>259.2</ele><time>2026-04-02T08:35:05.698Z</time></trkpt><trkpt lat="43.037372" lon="12.3726806"><ele>259.0</ele><time>2026-04-02T08:35:06.699Z</time></trkpt><trkpt lat="43.0373551" lon="12.3728222"><ele>255.0</ele><time>2026-04-02T08:35:07.703Z</time></trkpt><trkpt lat="43.0373648" lon="12.372983"><ele>251.0</ele><time>2026-04-02T08:35:08.705Z</time></trkpt><trkpt lat="43.0373879" lon="12.3731509"><ele>247.0</ele><time>2026-04-02T08:35:09.7Z</time></trkpt><trkpt lat="43.0374191" lon="12.37333"><ele>243.0</ele><time>2026-04-02T08:35:10.704Z</time></trkpt><trkpt lat="43.0374576" lon="12.3735034"><ele>244.5</ele><time>2026-04-02T08:35:11.7Z</time></trkpt><trkpt lat="43.0375013" lon="12.373682"><ele>246.0</ele><time>2026-04-02T08:35:12.701Z</time></trkpt><trkpt lat="43.037547" lon="12.373856"><ele>247.5</ele><time>2026-04-02T08:35:13.7Z</time></trkpt><trkpt lat="43.0375931" lon="12.3740179"><ele>249.0</ele><time>2026-04-02T08:35:14.705Z</time></trkpt><trkpt lat="43.0376375" lon="12.3741699"><ele>249.0</ele><time>2026-04-02T08:35:15.702Z</time></trkpt><trkpt lat="43.0376778" lon="12.3743143"><ele>248.99999999999997</ele><time>2026-04-02T08:35:16.698Z</time></trkpt><trkpt lat="43.0377145" lon="12.3744539"><ele>248.99999999999997</ele><time>2026-04-02T08:35:17.702Z</time></trkpt><trkpt lat="43.0377506" lon="12.3745928"><ele>249.0</ele><time>2026-04-02T08:35:18.702Z</time></trkpt><trkpt lat="43.0377797" lon="12.3747246"><ele>249.0</ele><time>2026-04-02T08:35:19.702Z</time></trkpt><trkpt lat="43.0378126" lon="12.3748641"><ele>247.75</ele><time>2026-04-02T08:35:20.703Z</time></trkpt><trkpt lat="43.0378413" lon="12.375014"><ele>246.5</ele><time>2026-04-02T08:35:21.696Z</time></trkpt><trkpt lat="43.0378695" lon="12.3751722"><ele>245.25</ele><time>2026-04-02T08:35:22.703Z</time></trkpt><trkpt lat="43.0378936" lon="12.375341"><ele>244.0</ele><time>2026-04-02T08:35:23.697Z</time></trkpt><trkpt lat="43.0379119" lon="12.3755143"><ele>242.75</ele><time>2026-04-02T08:35:24.699Z</time></trkpt><trkpt lat="43.0379256" lon="12.3756957"><ele>241.5</ele><time>2026-04-02T08:35:25.704Z</time></trkpt><trkpt lat="43.0379339" lon="12.3758861"><ele>240.25</ele><time>2026-04-02T08:35:26.696Z</time></trkpt><trkpt lat="43.037949" lon="12.3760703"><ele>239.0</ele><time>2026-04-02T08:35:27.702Z</time></trkpt><trkpt lat="43.0379645" lon="12.376241"><ele>237.5</ele><time>2026-04-02T08:35:28.7Z</time></trkpt><trkpt lat="43.0379872" lon="12.3764109"><ele>236.0</ele><time>2026-04-02T08:35:29.71Z</time></trkpt><trkpt lat="43.0380163" lon="12.3765722"><ele>234.5</ele><time>2026-04-02T08:35:30.698Z</time></trkpt><trkpt lat="43.0380515" lon="12.3767221"><ele>233.0</ele><time>2026-04-02T08:35:31.701Z</time></trkpt><trkpt lat="43.0380915" lon="12.3768565"><ele>233.00000000000003</ele><time>2026-04-02T08:35:32.7Z</time></trkpt><trkpt lat="43.0381332" lon="12.3769717"><ele>233.0</ele><time>2026-04-02T08:35:33.704Z</time></trkpt><trkpt lat="43.0381737" lon="12.3770669"><ele>233.0</ele><time>2026-04-02T08:35:34.703Z</time></trkpt><trkpt lat="43.0382191" lon="12.3771412"><ele>233.0</ele><time>2026-04-02T08:35:35.703Z</time></trkpt><trkpt lat="43.0382793" lon="12.3772576"><ele>233.00000000000003</ele><time>2026-04-02T08:35:37.695Z</time></trkpt><trkpt lat="43.0382951" lon="12.3773421"><ele>233.0</ele><time>2026-04-02T08:35:39.7Z</time></trkpt><trkpt lat="43.0382525" lon="12.3774788"><ele>231.60000000000002</ele><time>2026-04-02T08:35:42.699Z</time></trkpt><trkpt lat="43.0382092" lon="12.3775556"><ele>230.20000000000002</ele><time>2026-04-02T08:35:44.698Z</time></trkpt><trkpt lat="43.0381595" lon="12.3776404"><ele>228.8</ele><time>2026-04-02T08:35:46.7Z</time></trkpt><trkpt lat="43.0380842" lon="12.3777268"><ele>227.4</ele><time>2026-04-02T08:35:48.699Z</time></trkpt><trkpt lat="43.0380152" lon="12.3778237"><ele>226.0</ele><time>2026-04-02T08:35:50.705Z</time></trkpt><trkpt lat="43.0379441" lon="12.3779463"><ele>225.0</ele><time>2026-04-02T08:35:52.701Z</time></trkpt><trkpt lat="43.0378717" lon="12.3780673"><ele>224.00000000000003</ele><time>2026-04-02T08:35:54.7Z</time></trkpt><trkpt lat="43.0377921" lon="12.378182"><ele>223.00000000000003</ele><time>2026-04-02T08:35:56.699Z</time></trkpt><trkpt lat="43.0377508" lon="12.3782499"><ele>222.0</ele><time>2026-04-02T08:35:57.703Z</time></trkpt><trkpt lat="43.0377087" lon="12.3783206"><ele>221.0</ele><time>2026-04-02T08:35:58.702Z</time></trkpt><trkpt lat="43.0376279" lon="12.3784534"><ele>221.0</ele><time>2026-04-02T08:36:00.701Z</time></trkpt><trkpt lat="43.0375467" lon="12.3785815"><ele>221.0</ele><time>2026-04-02T08:36:02.706Z</time></trkpt><trkpt lat="43.0374705" lon="12.3787058"><ele>221.0</ele><time>2026-04-02T08:36:04.701Z</time></trkpt><trkpt lat="43.0373997" lon="12.3788404"><ele>221.0</ele><time>2026-04-02T08:36:06.701Z</time></trkpt><trkpt lat="43.03732" lon="12.3789664"><ele>217.0</ele><time>2026-04-02T08:36:08.698Z</time></trkpt><trkpt lat="43.0372399" lon="12.3790894"><ele>213.00000000000003</ele><time>2026-04-02T08:36:10.698Z</time></trkpt><trkpt lat="43.0371969" lon="12.3791539"><ele>209.0</ele><time>2026-04-02T08:36:11.7Z</time></trkpt><trkpt lat="43.0371543" lon="12.3792208"><ele>205.0</ele><time>2026-04-02T08:36:12.699Z</time></trkpt><trkpt lat="43.0370806" lon="12.3793501"><ele>201.0</ele><time>2026-04-02T08:36:14.698Z</time></trkpt><trkpt lat="43.0369894" lon="12.3794839"><ele>201.0</ele><time>2026-04-02T08:36:16.702Z</time></trkpt><trkpt lat="43.0369491" lon="12.3795537"><ele>201.0</ele><time>2026-04-02T08:36:17.704Z</time></trkpt><trkpt lat="43.0369062" lon="12.3796297"><ele>201.0</ele><time>2026-04-02T08:36:18.707Z</time></trkpt><trkpt lat="43.0368602" lon="12.3797054"><ele>201.0</ele><time>2026-04-02T08:36:19.7Z</time></trkpt><trkpt lat="43.0368129" lon="12.3797878"><ele>201.0</ele><time>2026-04-02T08:36:20.702Z</time></trkpt><trkpt lat="43.0367632" lon="12.3798638"><ele>201.0</ele><time>2026-04-02T08:36:21.699Z</time></trkpt><trkpt lat="43.0367157" lon="12.3799402"><ele>201.0</ele><time>2026-04-02T08:36:22.704Z</time></trkpt><trkpt lat="43.0366742" lon="12.3800109"><ele>198.83333333333334</ele><time>2026-04-02T08:36:23.7Z</time></trkpt><trkpt lat="43.0366264" lon="12.3800887"><ele>196.66666666666666</ele><time>2026-04-02T08:36:24.7Z</time></trkpt><trkpt lat="43.0365743" lon="12.3801756"><ele>194.5</ele><time>2026-04-02T08:36:25.699Z</time></trkpt><trkpt lat="43.0365202" lon="12.3802642"><ele>192.33333333333331</ele><time>2026-04-02T08:36:26.699Z</time></trkpt><trkpt lat="43.0364651" lon="12.3803506"><ele>190.16666666666666</ele><time>2026-04-02T08:36:27.705Z</time></trkpt><trkpt lat="43.0364101" lon="12.380439"><ele>188.0</ele><time>2026-04-02T08:36:28.701Z</time></trkpt><trkpt lat="43.0363458" lon="12.3805388"><ele>187.8</ele><time>2026-04-02T08:36:29.702Z</time></trkpt><trkpt lat="43.0362863" lon="12.3806329"><ele>187.60000000000002</ele><time>2026-04-02T08:36:30.705Z</time></trkpt><trkpt lat="43.0362196" lon="12.3807399"><ele>187.39999999999998</ele><time>2026-04-02T08:36:31.697Z</time></trkpt><trkpt lat="43.0361574" lon="12.3808482"><ele>187.2</ele><time>2026-04-02T08:36:32.703Z</time></trkpt><trkpt lat="43.0360814" lon="12.3809693"><ele>187.0</ele><time>2026-04-02T08:36:33.703Z</time></trkpt><trkpt lat="43.0360139" lon="12.3810813"><ele>187.0</ele><time>2026-04-02T08:36:34.7Z</time></trkpt><trkpt lat="43.0359462" lon="12.3811866"><ele>187.0</ele><time>2026-04-02T08:36:35.701Z</time></trkpt><trkpt lat="43.0358803" lon="12.3812896"><ele>187.0</ele><time>2026-04-02T08:36:36.701Z</time></trkpt><trkpt lat="43.0358233" lon="12.3813816"><ele>187.0</ele><time>2026-04-02T08:36:37.702Z</time></trkpt><trkpt lat="43.0357692" lon="12.3814628"><ele>187.0</ele><time>2026-04-02T08:36:38.704Z</time></trkpt><trkpt lat="43.0357175" lon="12.3815465"><ele>186.39999999999998</ele><time>2026-04-02T08:36:39.701Z</time></trkpt><trkpt lat="43.0356571" lon="12.3816143"><ele>185.79999999999998</ele><time>2026-04-02T08:36:40.7Z</time></trkpt><trkpt lat="43.0355854" lon="12.3816747"><ele>185.2</ele><time>2026-04-02T08:36:41.699Z</time></trkpt><trkpt lat="43.0354992" lon="12.3817344"><ele>184.6</ele><time>2026-04-02T08:36:42.702Z</time></trkpt><trkpt lat="43.0354011" lon="12.3818219"><ele>184.0</ele><time>2026-04-02T08:36:43.703Z</time></trkpt><trkpt lat="43.0353057" lon="12.3818965"><ele>184.0</ele><time>2026-04-02T08:36:44.706Z</time></trkpt><trkpt lat="43.0352294" lon="12.3819668"><ele>184.0</ele><time>2026-04-02T08:36:45.706Z</time></trkpt><trkpt lat="43.0351628" lon="12.382016"><ele>184.0</ele><time>2026-04-02T08:36:46.705Z</time></trkpt><trkpt lat="43.0351099" lon="12.3820713"><ele>184.0</ele><time>2026-04-02T08:36:48.698Z</time></trkpt><trkpt lat="43.035032" lon="12.3820043"><ele>184.0</ele><time>2026-04-02T08:36:52.701Z</time></trkpt><trkpt lat="43.0349683" lon="12.3818546"><ele>183.5</ele><time>2026-04-02T08:36:54.701Z</time></trkpt><trkpt lat="43.0349325" lon="12.3817612"><ele>183.0</ele><time>2026-04-02T08:36:55.702Z</time></trkpt><trkpt lat="43.0348974" lon="12.3816696"><ele>182.5</ele><time>2026-04-02T08:36:56.703Z</time></trkpt><trkpt lat="43.0348588" lon="12.3815577"><ele>182.0</ele><time>2026-04-02T08:36:57.701Z</time></trkpt><trkpt lat="43.0348184" lon="12.3814385"><ele>181.5</ele><time>2026-04-02T08:36:58.698Z</time></trkpt><trkpt lat="43.0347649" lon="12.3813327"><ele>181.0</ele><time>2026-04-02T08:36:59.699Z</time></trkpt><trkpt lat="43.034686" lon="12.3812243"><ele>181.0</ele><time>2026-04-02T08:37:00.699Z</time></trkpt><trkpt lat="43.0345984" lon="12.3811191"><ele>181.0</ele><time>2026-04-02T08:37:01.7Z</time></trkpt><trkpt lat="43.0345088" lon="12.3810028"><ele>181.0</ele><time>2026-04-02T08:37:02.701Z</time></trkpt><trkpt lat="43.0344306" lon="12.3808766"><ele>181.0</ele><time>2026-04-02T08:37:03.701Z</time></trkpt><trkpt lat="43.0343443" lon="12.3807449"><ele>181.0</ele><time>2026-04-02T08:37:04.704Z</time></trkpt><trkpt lat="43.0342475" lon="12.3806104"><ele>181.0</ele><time>2026-04-02T08:37:05.703Z</time></trkpt><trkpt lat="43.0341527" lon="12.3804655"><ele>181.0</ele><time>2026-04-02T08:37:06.702Z</time></trkpt><trkpt lat="43.0340554" lon="12.3803238"><ele>181.0</ele><time>2026-04-02T08:37:07.702Z</time></trkpt><trkpt lat="43.0339619" lon="12.3801807"><ele>180.8</ele><time>2026-04-02T08:37:08.702Z</time></trkpt><trkpt lat="43.0338803" lon="12.3800576"><ele>180.60000000000002</ele><time>2026-04-02T08:37:09.706Z</time></trkpt><trkpt lat="43.0338093" lon="12.3799385"><ele>180.4</ele><time>2026-04-02T08:37:10.699Z</time></trkpt><trkpt lat="43.0337386" lon="12.3798203"><ele>180.2</ele><time>2026-04-02T08:37:11.702Z</time></trkpt><trkpt lat="43.0336754" lon="12.3797135"><ele>180.0</ele><time>2026-04-02T08:37:12.702Z</time></trkpt><trkpt lat="43.0336067" lon="12.3796019"><ele>181.0</ele><time>2026-04-02T08:37:13.697Z</time></trkpt><trkpt lat="43.0335397" lon="12.3794841"><ele>182.0</ele><time>2026-04-02T08:37:14.705Z</time></trkpt><trkpt lat="43.0334655" lon="12.3793677"><ele>183.0</ele><time>2026-04-02T08:37:15.702Z</time></trkpt><trkpt lat="43.0333891" lon="12.379242"><ele>184.0</ele><time>2026-04-02T08:37:16.701Z</time></trkpt><trkpt lat="43.0333068" lon="12.3791097"><ele>183.5</ele><time>2026-04-02T08:37:17.703Z</time></trkpt><trkpt lat="43.0332294" lon="12.3789838"><ele>183.0</ele><time>2026-04-02T08:37:18.702Z</time></trkpt><trkpt lat="43.0331615" lon="12.3788593"><ele>182.5</ele><time>2026-04-02T08:37:19.702Z</time></trkpt><trkpt lat="43.0330979" lon="12.3787363"><ele>182.0</ele><time>2026-04-02T08:37:20.7Z</time></trkpt><trkpt lat="43.0330216" lon="12.3786124"><ele>182.0</ele><time>2026-04-02T08:37:21.703Z</time></trkpt><trkpt lat="43.0329537" lon="12.3784899"><ele>182.0</ele><time>2026-04-02T08:37:22.705Z</time></trkpt><trkpt lat="43.0328918" lon="12.3783654"><ele>182.0</ele><time>2026-04-02T08:37:23.702Z</time></trkpt><trkpt lat="43.0328169" lon="12.3782363"><ele>182.0</ele><time>2026-04-02T08:37:24.703Z</time></trkpt><trkpt lat="43.0327486" lon="12.3780943"><ele>182.75</ele><time>2026-04-02T08:37:25.698Z</time></trkpt><trkpt lat="43.0326742" lon="12.3779375"><ele>183.5</ele><time>2026-04-02T08:37:26.702Z</time></trkpt><trkpt lat="43.0326055" lon="12.3777989"><ele>184.25</ele><time>2026-04-02T08:37:27.702Z</time></trkpt><trkpt lat="43.0325425" lon="12.3776706"><ele>185.0</ele><time>2026-04-02T08:37:28.698Z</time></trkpt><trkpt lat="43.0324896" lon="12.3775617"><ele>185.2</ele><time>2026-04-02T08:37:29.697Z</time></trkpt><trkpt lat="43.0324257" lon="12.3774598"><ele>185.4</ele><time>2026-04-02T08:37:30.696Z</time></trkpt><trkpt lat="43.0323594" lon="12.3773584"><ele>185.60000000000002</ele><time>2026-04-02T08:37:31.7Z</time></trkpt><trkpt lat="43.0322923" lon="12.37725"><ele>185.8</ele><time>2026-04-02T08:37:32.701Z</time></trkpt><trkpt lat="43.0322329" lon="12.3771398"><ele>186.0</ele><time>2026-04-02T08:37:33.699Z</time></trkpt><trkpt lat="43.0321925" lon="12.3770296"><ele>186.0</ele><time>2026-04-02T08:37:34.705Z</time></trkpt><trkpt lat="43.0321529" lon="12.3769014"><ele>186.0</ele><time>2026-04-02T08:37:35.709Z</time></trkpt><trkpt lat="43.032107" lon="12.3767599"><ele>186.0</ele><time>2026-04-02T08:37:36.698Z</time></trkpt><trkpt lat="43.0320743" lon="12.3766034"><ele>186.0</ele><time>2026-04-02T08:37:37.703Z</time></trkpt><trkpt lat="43.0320448" lon="12.3764434"><ele>186.4</ele><time>2026-04-02T08:37:38.703Z</time></trkpt><trkpt lat="43.0320199" lon="12.3763072"><ele>186.8</ele><time>2026-04-02T08:37:39.705Z</time></trkpt><trkpt lat="43.03199" lon="12.3761875"><ele>187.20000000000002</ele><time>2026-04-02T08:37:40.698Z</time></trkpt><trkpt lat="43.0319544" lon="12.3760713"><ele>187.60000000000002</ele><time>2026-04-02T08:37:41.698Z</time></trkpt><trkpt lat="43.0319188" lon="12.3759662"><ele>188.0</ele><time>2026-04-02T08:37:42.701Z</time></trkpt><trkpt lat="43.0318764" lon="12.3758739"><ele>188.0</ele><time>2026-04-02T08:37:43.702Z</time></trkpt><trkpt lat="43.0318219" lon="12.3757896"><ele>188.0</ele><time>2026-04-02T08:37:44.704Z</time></trkpt><trkpt lat="43.0317473" lon="12.3757201"><ele>188.0</ele><time>2026-04-02T08:37:45.702Z</time></trkpt><trkpt lat="43.0316534" lon="12.3756727"><ele>188.0</ele><time>2026-04-02T08:37:46.708Z</time></trkpt><trkpt lat="43.0315374" lon="12.3756137"><ele>188.0</ele><time>2026-04-02T08:37:47.699Z</time></trkpt><trkpt lat="43.031425" lon="12.3755513"><ele>186.5</ele><time>2026-04-02T08:37:48.7Z</time></trkpt><trkpt lat="43.0313102" lon="12.3754757"><ele>185.0</ele><time>2026-04-02T08:37:49.706Z</time></trkpt><trkpt lat="43.0311899" lon="12.3754124"><ele>183.5</ele><time>2026-04-02T08:37:50.701Z</time></trkpt><trkpt lat="43.0310745" lon="12.3753445"><ele>182.0</ele><time>2026-04-02T08:37:51.699Z</time></trkpt><trkpt lat="43.0309673" lon="12.375285"><ele>182.0</ele><time>2026-04-02T08:37:52.702Z</time></trkpt><trkpt lat="43.0308668" lon="12.3752313"><ele>182.0</ele><time>2026-04-02T08:37:53.701Z</time></trkpt><trkpt lat="43.0307714" lon="12.3751862"><ele>182.0</ele><time>2026-04-02T08:37:54.701Z</time></trkpt><trkpt lat="43.0306823" lon="12.3751512"><ele>182.0</ele><time>2026-04-02T08:37:55.699Z</time></trkpt><trkpt lat="43.0306004" lon="12.3751203"><ele>182.0</ele><time>2026-04-02T08:37:56.699Z</time></trkpt><trkpt lat="43.030514" lon="12.3750975"><ele>182.2</ele><time>2026-04-02T08:37:57.706Z</time></trkpt><trkpt lat="43.03043" lon="12.3750649"><ele>182.39999999999998</ele><time>2026-04-02T08:37:58.701Z</time></trkpt><trkpt lat="43.0303388" lon="12.3750088"><ele>182.60000000000002</ele><time>2026-04-02T08:37:59.701Z</time></trkpt><trkpt lat="43.0302499" lon="12.3749236"><ele>182.8</ele><time>2026-04-02T08:38:00.699Z</time></trkpt><trkpt lat="43.0301574" lon="12.3748227"><ele>183.0</ele><time>2026-04-02T08:38:01.696Z</time></trkpt><trkpt lat="43.0300669" lon="12.3747302"><ele>183.60000000000002</ele><time>2026-04-02T08:38:02.7Z</time></trkpt><trkpt lat="43.0299832" lon="12.3746523"><ele>184.20000000000002</ele><time>2026-04-02T08:38:03.704Z</time></trkpt><trkpt lat="43.0298993" lon="12.3745775"><ele>184.8</ele><time>2026-04-02T08:38:04.702Z</time></trkpt><trkpt lat="43.0298064" lon="12.3745115"><ele>185.4</ele><time>2026-04-02T08:38:05.7Z</time></trkpt><trkpt lat="43.0297024" lon="12.3744395"><ele>186.0</ele><time>2026-04-02T08:38:06.705Z</time></trkpt><trkpt lat="43.0295819" lon="12.3743756"><ele>186.0</ele><time>2026-04-02T08:38:07.697Z</time></trkpt><trkpt lat="43.0294631" lon="12.3743192"><ele>186.0</ele><time>2026-04-02T08:38:08.712Z</time></trkpt><trkpt lat="43.0293479" lon="12.3742609"><ele>186.0</ele><time>2026-04-02T08:38:09.696Z</time></trkpt><trkpt lat="43.0292393" lon="12.374184"><ele>186.0</ele><time>2026-04-02T08:38:10.698Z</time></trkpt><trkpt lat="43.0291273" lon="12.37411"><ele>186.4</ele><time>2026-04-02T08:38:11.697Z</time></trkpt><trkpt lat="43.0290228" lon="12.3740431"><ele>186.8</ele><time>2026-04-02T08:38:12.7Z</time></trkpt><trkpt lat="43.0289194" lon="12.3739712"><ele>187.20000000000002</ele><time>2026-04-02T08:38:13.7Z</time></trkpt><trkpt lat="43.0288266" lon="12.3739051"><ele>187.60000000000002</ele><time>2026-04-02T08:38:14.703Z</time></trkpt><trkpt lat="43.028758" lon="12.3738509"><ele>188.0</ele><time>2026-04-02T08:38:15.699Z</time></trkpt><trkpt lat="43.0286785" lon="12.3737966"><ele>188.0</ele><time>2026-04-02T08:38:17.699Z</time></trkpt><trkpt lat="43.0285983" lon="12.3737572"><ele>188.0</ele><time>2026-04-02T08:38:20.697Z</time></trkpt><trkpt lat="43.0285195" lon="12.3736531"><ele>188.0</ele><time>2026-04-02T08:38:22.704Z</time></trkpt><trkpt lat="43.0284708" lon="12.3735934"><ele>188.0</ele><time>2026-04-02T08:38:23.7Z</time></trkpt><trkpt lat="43.0284149" lon="12.3735274"><ele>188.0</ele><time>2026-04-02T08:38:24.71Z</time></trkpt><trkpt lat="43.0283612" lon="12.373456"><ele>188.0</ele><time>2026-04-02T08:38:25.701Z</time></trkpt><trkpt lat="43.0283032" lon="12.3733917"><ele>187.5</ele><time>2026-04-02T08:38:26.695Z</time></trkpt><trkpt lat="43.028236" lon="12.3733317"><ele>187.0</ele><time>2026-04-02T08:38:27.697Z</time></trkpt><trkpt lat="43.0281539" lon="12.3732739"><ele>186.5</ele><time>2026-04-02T08:38:28.698Z</time></trkpt><trkpt lat="43.0280695" lon="12.3732161"><ele>186.0</ele><time>2026-04-02T08:38:29.702Z</time></trkpt><trkpt lat="43.0279936" lon="12.3731516"><ele>185.5</ele><time>2026-04-02T08:38:30.696Z</time></trkpt><trkpt lat="43.0279176" lon="12.3730984"><ele>185.0</ele><time>2026-04-02T08:38:31.697Z</time></trkpt><trkpt lat="43.0278479" lon="12.3730547"><ele>186.16666666666666</ele><time>2026-04-02T08:38:32.703Z</time></trkpt><trkpt lat="43.027774" lon="12.3730035"><ele>187.33333333333331</ele><time>2026-04-02T08:38:33.701Z</time></trkpt><trkpt lat="43.0276973" lon="12.3729556"><ele>188.5</ele><time>2026-04-02T08:38:34.703Z</time></trkpt><trkpt lat="43.0276268" lon="12.3729143"><ele>189.66666666666666</ele><time>2026-04-02T08:38:35.703Z</time></trkpt><trkpt lat="43.0275584" lon="12.3728658"><ele>190.83333333333334</ele><time>2026-04-02T08:38:36.7Z</time></trkpt><trkpt lat="43.0274912" lon="12.3728201"><ele>192.0</ele><time>2026-04-02T08:38:37.701Z</time></trkpt><trkpt lat="43.0274215" lon="12.372768"><ele>192.0</ele><time>2026-04-02T08:38:38.698Z</time></trkpt><trkpt lat="43.0273516" lon="12.3727035"><ele>192.0</ele><time>2026-04-02T08:38:39.704Z</time></trkpt><trkpt lat="43.0272592" lon="12.3726319"><ele>192.0</ele><time>2026-04-02T08:38:40.706Z</time></trkpt><trkpt lat="43.0271796" lon="12.3725589"><ele>192.0</ele><time>2026-04-02T08:38:41.708Z</time></trkpt><trkpt lat="43.0271076" lon="12.3724956"><ele>192.0</ele><time>2026-04-02T08:38:42.701Z</time></trkpt><trkpt lat="43.0270433" lon="12.372436"><ele>192.0</ele><time>2026-04-02T08:38:43.698Z</time></trkpt><trkpt lat="43.026976" lon="12.3723832"><ele>192.0</ele><time>2026-04-02T08:38:44.704Z</time></trkpt><trkpt lat="43.0269114" lon="12.3723463"><ele>192.0</ele><time>2026-04-02T08:38:45.699Z</time></trkpt><trkpt lat="43.0268504" lon="12.372307"><ele>192.0</ele><time>2026-04-02T08:38:46.697Z</time></trkpt><trkpt lat="43.0267305" lon="12.3722311"><ele>192.0</ele><time>2026-04-02T08:38:48.698Z</time></trkpt><trkpt lat="43.0266709" lon="12.3721893"><ele>192.0</ele><time>2026-04-02T08:38:49.704Z</time></trkpt><trkpt lat="43.0266104" lon="12.3721545"><ele>192.0</ele><time>2026-04-02T08:38:50.7Z</time></trkpt><trkpt lat="43.026523" lon="12.3721026"><ele>192.0</ele><time>2026-04-02T08:38:52.702Z</time></trkpt><trkpt lat="43.0264611" lon="12.3720689"><ele>192.0</ele><time>2026-04-02T08:38:55.701Z</time></trkpt><trkpt lat="43.0263621" lon="12.3720151"><ele>192.0</ele><time>2026-04-02T08:38:57.706Z</time></trkpt><trkpt lat="43.0263043" lon="12.3719753"><ele>192.0</ele><time>2026-04-02T08:38:58.698Z</time></trkpt><trkpt lat="43.0261952" lon="12.3719108"><ele>192.0</ele><time>2026-04-02T08:39:00.698Z</time></trkpt><trkpt lat="43.0261256" lon="12.3718903"><ele>192.0</ele><time>2026-04-02T08:39:01.707Z</time></trkpt><trkpt lat="43.0260238" lon="12.3718441"><ele>192.0</ele><time>2026-04-02T08:39:03.697Z</time></trkpt><trkpt lat="43.0259141" lon="12.371772"><ele>192.0</ele><time>2026-04-02T08:39:05.7Z</time></trkpt><trkpt lat="43.0258584" lon="12.3717249"><ele>192.0</ele><time>2026-04-02T08:39:06.701Z</time></trkpt><trkpt lat="43.0257561" lon="12.3716363"><ele>191.0</ele><time>2026-04-02T08:39:08.7Z</time></trkpt><trkpt lat="43.0256944" lon="12.3716072"><ele>190.0</ele><time>2026-04-02T08:39:09.7Z</time></trkpt><trkpt lat="43.0256177" lon="12.371589"><ele>189.0</ele><time>2026-04-02T08:39:10.701Z</time></trkpt><trkpt lat="43.0255361" lon="12.3715753"><ele>188.0</ele><time>2026-04-02T08:39:11.701Z</time></trkpt><trkpt lat="43.0254417" lon="12.3715515"><ele>187.0</ele><time>2026-04-02T08:39:12.703Z</time></trkpt><trkpt lat="43.0253708" lon="12.3715015"><ele>186.0</ele><time>2026-04-02T08:39:13.698Z</time></trkpt><trkpt lat="43.0252963" lon="12.3714579"><ele>186.0</ele><time>2026-04-02T08:39:14.71Z</time></trkpt><trkpt lat="43.0252198" lon="12.3714223"><ele>186.0</ele><time>2026-04-02T08:39:15.703Z</time></trkpt><trkpt lat="43.025152" lon="12.3714016"><ele>186.0</ele><time>2026-04-02T08:39:16.705Z</time></trkpt><trkpt lat="43.0250841" lon="12.371382"><ele>186.0</ele><time>2026-04-02T08:39:17.7Z</time></trkpt><trkpt lat="43.0250122" lon="12.3714054"><ele>186.0</ele><time>2026-04-02T08:39:19.711Z</time></trkpt><trkpt lat="43.0249615" lon="12.3714799"><ele>186.0</ele><time>2026-04-02T08:39:21.703Z</time></trkpt><trkpt lat="43.0248964" lon="12.3716409"><ele>184.5</ele><time>2026-04-02T08:39:23.704Z</time></trkpt><trkpt lat="43.0248611" lon="12.3717584"><ele>183.0</ele><time>2026-04-02T08:39:24.704Z</time></trkpt><trkpt lat="43.024823" lon="12.3718758"><ele>181.5</ele><time>2026-04-02T08:39:25.701Z</time></trkpt><trkpt lat="43.0247492" lon="12.372082"><ele>180.0</ele><time>2026-04-02T08:39:26.699Z</time></trkpt><trkpt lat="43.0246856" lon="12.372257"><ele>179.75</ele><time>2026-04-02T08:39:27.698Z</time></trkpt><trkpt lat="43.0246252" lon="12.3724115"><ele>179.5</ele><time>2026-04-02T08:39:28.7Z</time></trkpt><trkpt lat="43.0245722" lon="12.3725355"><ele>179.25</ele><time>2026-04-02T08:39:29.703Z</time></trkpt><trkpt lat="43.0245228" lon="12.3726675"><ele>179.0</ele><time>2026-04-02T08:39:30.703Z</time></trkpt><trkpt lat="43.0244659" lon="12.372811"><ele>179.0</ele><time>2026-04-02T08:39:31.704Z</time></trkpt><trkpt lat="43.0244083" lon="12.3729592"><ele>179.0</ele><time>2026-04-02T08:39:32.704Z</time></trkpt><trkpt lat="43.0243456" lon="12.3731207"><ele>179.0</ele><time>2026-04-02T08:39:33.7Z</time></trkpt><trkpt lat="43.0242704" lon="12.3733074"><ele>179.0</ele><time>2026-04-02T08:39:34.697Z</time></trkpt><trkpt lat="43.0242026" lon="12.3734753"><ele>178.79999999999998</ele><time>2026-04-02T08:39:35.697Z</time></trkpt><trkpt lat="43.0241498" lon="12.3736218"><ele>178.6</ele><time>2026-04-02T08:39:36.701Z</time></trkpt><trkpt lat="43.0240913" lon="12.3737574"><ele>178.4</ele><time>2026-04-02T08:39:37.698Z</time></trkpt><trkpt lat="43.0240378" lon="12.3738805"><ele>178.2</ele><time>2026-04-02T08:39:38.706Z</time></trkpt><trkpt lat="43.0240108" lon="12.3739605"><ele>178.0</ele><time>2026-04-02T08:39:39.697Z</time></trkpt><trkpt lat="43.0240143" lon="12.3740479"><ele>177.60000000000002</ele><time>2026-04-02T08:39:40.701Z</time></trkpt><trkpt lat="43.024078" lon="12.374189"><ele>177.20000000000002</ele><time>2026-04-02T08:39:42.697Z</time></trkpt><trkpt lat="43.024148" lon="12.3742604"><ele>176.8</ele><time>2026-04-02T08:39:43.698Z</time></trkpt><trkpt lat="43.024218" lon="12.3743402"><ele>176.4</ele><time>2026-04-02T08:39:44.7Z</time></trkpt><trkpt lat="43.0242785" lon="12.3744102"><ele>176.0</ele><time>2026-04-02T08:39:45.697Z</time></trkpt><trkpt lat="43.0243293" lon="12.3745416"><ele>175.83333333333331</ele><time>2026-04-02T08:39:47.703Z</time></trkpt><trkpt lat="43.0243636" lon="12.3746927"><ele>175.66666666666666</ele><time>2026-04-02T08:39:49.697Z</time></trkpt><trkpt lat="43.0243862" lon="12.374779"><ele>175.5</ele><time>2026-04-02T08:39:50.697Z</time></trkpt><trkpt lat="43.0244269" lon="12.3748707"><ele>175.33333333333334</ele><time>2026-04-02T08:39:51.695Z</time></trkpt><trkpt lat="43.024484" lon="12.3749438"><ele>175.16666666666669</ele><time>2026-04-02T08:39:52.698Z</time></trkpt><trkpt lat="43.0245567" lon="12.3750043"><ele>175.0</ele><time>2026-04-02T08:39:53.699Z</time></trkpt><trkpt lat="43.0246418" lon="12.3750611"><ele>175.0</ele><time>2026-04-02T08:39:54.705Z</time></trkpt><trkpt lat="43.0247337" lon="12.3751204"><ele>175.0</ele><time>2026-04-02T08:39:55.702Z</time></trkpt><trkpt lat="43.0248212" lon="12.3751699"><ele>175.0</ele><time>2026-04-02T08:39:56.699Z</time></trkpt><trkpt lat="43.0248978" lon="12.3752125"><ele>175.0</ele><time>2026-04-02T08:39:57.7Z</time></trkpt><trkpt lat="43.0249646" lon="12.3752533"><ele>175.0</ele><time>2026-04-02T08:39:58.699Z</time></trkpt><trkpt lat="43.0250359" lon="12.3753706"><ele>175.0</ele><time>2026-04-02T08:40:00.698Z</time></trkpt><trkpt lat="43.0250383" lon="12.3754703"><ele>175.0</ele><time>2026-04-02T08:40:01.699Z</time></trkpt><trkpt lat="43.0250187" lon="12.375572"><ele>175.0</ele><time>2026-04-02T08:40:02.705Z</time></trkpt><trkpt lat="43.0249888" lon="12.3756883"><ele>175.0</ele><time>2026-04-02T08:40:03.704Z</time></trkpt><trkpt lat="43.0249605" lon="12.3758102"><ele>175.0</ele><time>2026-04-02T08:40:04.704Z</time></trkpt><trkpt lat="43.024921" lon="12.3759491"><ele>175.0</ele><time>2026-04-02T08:40:05.699Z</time></trkpt><trkpt lat="43.0248909" lon="12.3760827"><ele>175.0</ele><time>2026-04-02T08:40:06.7Z</time></trkpt><trkpt lat="43.0248624" lon="12.3762208"><ele>175.0</ele><time>2026-04-02T08:40:07.697Z</time></trkpt><trkpt lat="43.0248389" lon="12.3763506"><ele>175.0</ele><time>2026-04-02T08:40:08.7Z</time></trkpt><trkpt lat="43.024814" lon="12.3764822"><ele>175.0</ele><time>2026-04-02T08:40:09.703Z</time></trkpt><trkpt lat="43.0247884" lon="12.3766182"><ele>175.0</ele><time>2026-04-02T08:40:10.695Z</time></trkpt><trkpt lat="43.0247697" lon="12.3767585"><ele>174.8</ele><time>2026-04-02T08:40:11.7Z</time></trkpt><trkpt lat="43.0247402" lon="12.3769015"><ele>174.6</ele><time>2026-04-02T08:40:12.703Z</time></trkpt><trkpt lat="43.0247177" lon="12.3770466"><ele>174.39999999999998</ele><time>2026-04-02T08:40:13.697Z</time></trkpt><trkpt lat="43.0246894" lon="12.377183"><ele>174.2</ele><time>2026-04-02T08:40:14.7Z</time></trkpt><trkpt lat="43.0246644" lon="12.3773197"><ele>174.0</ele><time>2026-04-02T08:40:15.701Z</time></trkpt><trkpt lat="43.0246423" lon="12.3774373"><ele>174.0</ele><time>2026-04-02T08:40:16.702Z</time></trkpt><trkpt lat="43.0246296" lon="12.3775342"><ele>174.0</ele><time>2026-04-02T08:40:17.699Z</time></trkpt><trkpt lat="43.0246079" lon="12.3776999"><ele>174.0</ele><time>2026-04-02T08:40:19.696Z</time></trkpt><trkpt lat="43.024574" lon="12.3778622"><ele>174.0</ele><time>2026-04-02T08:40:21.701Z</time></trkpt><trkpt lat="43.0245527" lon="12.3779588"><ele>174.0</ele><time>2026-04-02T08:40:22.711Z</time></trkpt><trkpt lat="43.024531" lon="12.3780648"><ele>173.5</ele><time>2026-04-02T08:40:23.699Z</time></trkpt><trkpt lat="43.0245139" lon="12.3781549"><ele>173.0</ele><time>2026-04-02T08:40:24.702Z</time></trkpt><trkpt lat="43.0244873" lon="12.3782445"><ele>172.5</ele><time>2026-04-02T08:40:25.699Z</time></trkpt><trkpt lat="43.0244543" lon="12.378341"><ele>172.0</ele><time>2026-04-02T08:40:26.698Z</time></trkpt><trkpt lat="43.0244277" lon="12.3784432"><ele>171.5</ele><time>2026-04-02T08:40:27.698Z</time></trkpt><trkpt lat="43.0243868" lon="12.3785792"><ele>171.0</ele><time>2026-04-02T08:40:28.701Z</time></trkpt><trkpt lat="43.0243469" lon="12.3787029"><ele>171.0</ele><time>2026-04-02T08:40:29.703Z</time></trkpt><trkpt lat="43.0243001" lon="12.3788266"><ele>171.0</ele><time>2026-04-02T08:40:30.703Z</time></trkpt><trkpt lat="43.0242534" lon="12.3789327"><ele>171.0</ele><time>2026-04-02T08:40:31.696Z</time></trkpt><trkpt lat="43.0242062" lon="12.3790388"><ele>171.0</ele><time>2026-04-02T08:40:32.701Z</time></trkpt><trkpt lat="43.0241611" lon="12.3791388"><ele>171.0</ele><time>2026-04-02T08:40:33.705Z</time></trkpt><trkpt lat="43.0241077" lon="12.3792502"><ele>171.0</ele><time>2026-04-02T08:40:34.702Z</time></trkpt><trkpt lat="43.0240491" lon="12.3793683"><ele>171.0</ele><time>2026-04-02T08:40:35.698Z</time></trkpt><trkpt lat="43.0239951" lon="12.3794973"><ele>171.0</ele><time>2026-04-02T08:40:36.713Z</time></trkpt><trkpt lat="43.0239475" lon="12.3796367"><ele>171.0</ele><time>2026-04-02T08:40:37.697Z</time></trkpt><trkpt lat="43.023898" lon="12.3797885"><ele>171.0</ele><time>2026-04-02T08:40:38.704Z</time></trkpt><trkpt lat="43.0238491" lon="12.3799607"><ele>171.5</ele><time>2026-04-02T08:40:39.703Z</time></trkpt><trkpt lat="43.0237978" lon="12.3801405"><ele>172.0</ele><time>2026-04-02T08:40:40.701Z</time></trkpt><trkpt lat="43.0237455" lon="12.3803235"><ele>172.5</ele><time>2026-04-02T08:40:41.702Z</time></trkpt><trkpt lat="43.0236953" lon="12.3805019"><ele>173.0</ele><time>2026-04-02T08:40:42.702Z</time></trkpt><trkpt lat="43.0236487" lon="12.3806889"><ele>173.0</ele><time>2026-04-02T08:40:43.701Z</time></trkpt><trkpt lat="43.0236043" lon="12.3808789"><ele>173.0</ele><time>2026-04-02T08:40:44.698Z</time></trkpt><trkpt lat="43.0235536" lon="12.3810747"><ele>173.0</ele><time>2026-04-02T08:40:45.702Z</time></trkpt><trkpt lat="43.0234937" lon="12.3812686"><ele>172.66666666666666</ele><time>2026-04-02T08:40:46.698Z</time></trkpt><trkpt lat="43.0234335" lon="12.3814741"><ele>172.33333333333334</ele><time>2026-04-02T08:40:47.701Z</time></trkpt><trkpt lat="43.0233633" lon="12.3816836"><ele>172.0</ele><time>2026-04-02T08:40:48.698Z</time></trkpt><trkpt lat="43.0233057" lon="12.3818696"><ele>172.0</ele><time>2026-04-02T08:40:49.7Z</time></trkpt><trkpt lat="43.0232526" lon="12.3820429"><ele>172.0</ele><time>2026-04-02T08:40:50.699Z</time></trkpt><trkpt lat="43.0232057" lon="12.3822015"><ele>172.0</ele><time>2026-04-02T08:40:51.704Z</time></trkpt><trkpt lat="43.0231626" lon="12.3823455"><ele>172.0</ele><time>2026-04-02T08:40:52.697Z</time></trkpt><trkpt lat="43.0231302" lon="12.3824825"><ele>172.16666666666669</ele><time>2026-04-02T08:40:53.697Z</time></trkpt><trkpt lat="43.023101" lon="12.3826075"><ele>172.33333333333334</ele><time>2026-04-02T08:40:54.698Z</time></trkpt><trkpt lat="43.0230727" lon="12.3827309"><ele>172.5</ele><time>2026-04-02T08:40:55.704Z</time></trkpt><trkpt lat="43.0230523" lon="12.3828484"><ele>172.66666666666666</ele><time>2026-04-02T08:40:56.706Z</time></trkpt><trkpt lat="43.0230294" lon="12.3829505"><ele>172.83333333333331</ele><time>2026-04-02T08:40:57.697Z</time></trkpt><trkpt lat="43.0230097" lon="12.3830375"><ele>173.0</ele><time>2026-04-02T08:40:58.697Z</time></trkpt><trkpt lat="43.0229842" lon="12.3831203"><ele>173.16666666666666</ele><time>2026-04-02T08:40:59.698Z</time></trkpt><trkpt lat="43.0229613" lon="12.3832034"><ele>173.33333333333331</ele><time>2026-04-02T08:41:00.706Z</time></trkpt><trkpt lat="43.0229116" lon="12.383343"><ele>173.5</ele><time>2026-04-02T08:41:02.7Z</time></trkpt><trkpt lat="43.0228693" lon="12.3834369"><ele>173.66666666666666</ele><time>2026-04-02T08:41:04.705Z</time></trkpt><trkpt lat="43.0228365" lon="12.3835421"><ele>173.83333333333334</ele><time>2026-04-02T08:41:18.698Z</time></trkpt><trkpt lat="43.022803" lon="12.3836159"><ele>174.0</ele><time>2026-04-02T08:41:19.707Z</time></trkpt><trkpt lat="43.0227608" lon="12.3837115"><ele>174.0</ele><time>2026-04-02T08:41:20.709Z</time></trkpt><trkpt lat="43.0227093" lon="12.3838282"><ele>174.0</ele><time>2026-04-02T08:41:21.705Z</time></trkpt><trkpt lat="43.0226584" lon="12.3839469"><ele>174.0</ele><time>2026-04-02T08:41:22.698Z</time></trkpt><trkpt lat="43.0225988" lon="12.3840885"><ele>174.0</ele><time>2026-04-02T08:41:23.699Z</time></trkpt><trkpt lat="43.0225381" lon="12.3842321"><ele>174.0</ele><time>2026-04-02T08:41:24.7Z</time></trkpt><trkpt lat="43.0224706" lon="12.384378"><ele>174.0</ele><time>2026-04-02T08:41:25.701Z</time></trkpt><trkpt lat="43.0224067" lon="12.3845326"><ele>174.0</ele><time>2026-04-02T08:41:26.701Z</time></trkpt><trkpt lat="43.0223449" lon="12.3846849"><ele>174.0</ele><time>2026-04-02T08:41:27.7Z</time></trkpt><trkpt lat="43.0222904" lon="12.3848314"><ele>174.0</ele><time>2026-04-02T08:41:28.706Z</time></trkpt><trkpt lat="43.0222381" lon="12.384966"><ele>174.0</ele><time>2026-04-02T08:41:29.703Z</time></trkpt><trkpt lat="43.0221781" lon="12.3850988"><ele>174.0</ele><time>2026-04-02T08:41:30.705Z</time></trkpt><trkpt lat="43.0221236" lon="12.3852166"><ele>174.0</ele><time>2026-04-02T08:41:31.707Z</time></trkpt><trkpt lat="43.0220676" lon="12.3853372"><ele>174.0</ele><time>2026-04-02T08:41:32.698Z</time></trkpt><trkpt lat="43.0220206" lon="12.3854345"><ele>174.0</ele><time>2026-04-02T08:41:33.704Z</time></trkpt><trkpt lat="43.0219668" lon="12.385535"><ele>174.0</ele><time>2026-04-02T08:41:34.696Z</time></trkpt><trkpt lat="43.0219165" lon="12.3856044"><ele>174.0</ele><time>2026-04-02T08:41:35.697Z</time></trkpt><trkpt lat="43.0218722" lon="12.3856676"><ele>174.0</ele><time>2026-04-02T08:41:36.701Z</time></trkpt><trkpt lat="43.0218232" lon="12.3857348"><ele>174.0</ele><time>2026-04-02T08:41:38.7Z</time></trkpt><trkpt lat="43.0217397" lon="12.385668"><ele>174.0</ele><time>2026-04-02T08:41:40.708Z</time></trkpt><trkpt lat="43.0216652" lon="12.3855936"><ele>174.0</ele><time>2026-04-02T08:41:41.701Z</time></trkpt><trkpt lat="43.0215823" lon="12.3855005"><ele>173.5</ele><time>2026-04-02T08:41:42.699Z</time></trkpt><trkpt lat="43.0215005" lon="12.3853947"><ele>173.0</ele><time>2026-04-02T08:41:43.698Z</time></trkpt><trkpt lat="43.0214322" lon="12.385268"><ele>172.5</ele><time>2026-04-02T08:41:44.7Z</time></trkpt><trkpt lat="43.0213652" lon="12.3851254"><ele>172.0</ele><time>2026-04-02T08:41:45.705Z</time></trkpt><trkpt lat="43.0212894" lon="12.3849805"><ele>172.0</ele><time>2026-04-02T08:41:46.7Z</time></trkpt><trkpt lat="43.021207" lon="12.3848343"><ele>172.0</ele><time>2026-04-02T08:41:47.702Z</time></trkpt><trkpt lat="43.0211258" lon="12.3846711"><ele>172.0</ele><time>2026-04-02T08:41:48.696Z</time></trkpt><trkpt lat="43.0210454" lon="12.3845037"><ele>172.0</ele><time>2026-04-02T08:41:49.702Z</time></trkpt><trkpt lat="43.0209455" lon="12.3843419"><ele>172.33333333333334</ele><time>2026-04-02T08:41:50.7Z</time></trkpt><trkpt lat="43.0208512" lon="12.3841887"><ele>172.66666666666666</ele><time>2026-04-02T08:41:51.698Z</time></trkpt><trkpt lat="43.0207497" lon="12.3840284"><ele>173.0</ele><time>2026-04-02T08:41:52.699Z</time></trkpt><trkpt lat="43.0206521" lon="12.3838557"><ele>173.0</ele><time>2026-04-02T08:41:53.699Z</time></trkpt><trkpt lat="43.0205514" lon="12.3836737"><ele>173.0</ele><time>2026-04-02T08:41:54.699Z</time></trkpt><trkpt lat="43.0204486" lon="12.3834812"><ele>173.0</ele><time>2026-04-02T08:41:55.703Z</time></trkpt><trkpt lat="43.0203468" lon="12.3832924"><ele>173.0</ele><time>2026-04-02T08:41:56.7Z</time></trkpt><trkpt lat="43.0202485" lon="12.3830999"><ele>173.0</ele><time>2026-04-02T08:41:57.701Z</time></trkpt><trkpt lat="43.0201497" lon="12.3829041"><ele>173.0</ele><time>2026-04-02T08:41:58.703Z</time></trkpt><trkpt lat="43.0200499" lon="12.3827133"><ele>172.75</ele><time>2026-04-02T08:41:59.698Z</time></trkpt><trkpt lat="43.0199613" lon="12.3825352"><ele>172.5</ele><time>2026-04-02T08:42:00.701Z</time></trkpt><trkpt lat="43.0198835" lon="12.3823643"><ele>172.25</ele><time>2026-04-02T08:42:01.704Z</time></trkpt><trkpt lat="43.0198141" lon="12.382201"><ele>172.0</ele><time>2026-04-02T08:42:02.698Z</time></trkpt><trkpt lat="43.0197539" lon="12.3820393"><ele>172.0</ele><time>2026-04-02T08:42:03.7Z</time></trkpt><trkpt lat="43.0196766" lon="12.3818806"><ele>172.0</ele><time>2026-04-02T08:42:04.7Z</time></trkpt><trkpt lat="43.0195835" lon="12.3817335"><ele>172.0</ele><time>2026-04-02T08:42:05.704Z</time></trkpt><trkpt lat="43.0194768" lon="12.3815897"><ele>172.0</ele><time>2026-04-02T08:42:06.703Z</time></trkpt><trkpt lat="43.0193682" lon="12.381443"><ele>172.33333333333334</ele><time>2026-04-02T08:42:07.698Z</time></trkpt><trkpt lat="43.0192616" lon="12.3812857"><ele>172.66666666666666</ele><time>2026-04-02T08:42:08.7Z</time></trkpt><trkpt lat="43.0191533" lon="12.3811359"><ele>173.0</ele><time>2026-04-02T08:42:09.7Z</time></trkpt><trkpt lat="43.0190431" lon="12.380991"><ele>173.0</ele><time>2026-04-02T08:42:10.701Z</time></trkpt><trkpt lat="43.0189353" lon="12.3808442"><ele>173.0</ele><time>2026-04-02T08:42:11.699Z</time></trkpt><trkpt lat="43.018815" lon="12.3806919"><ele>173.0</ele><time>2026-04-02T08:42:12.708Z</time></trkpt><trkpt lat="43.0186908" lon="12.3805517"><ele>172.66666666666666</ele><time>2026-04-02T08:42:13.701Z</time></trkpt><trkpt lat="43.018558" lon="12.3804251"><ele>172.33333333333334</ele><time>2026-04-02T08:42:14.698Z</time></trkpt><trkpt lat="43.0184109" lon="12.3803061"><ele>172.0</ele><time>2026-04-02T08:42:15.7Z</time></trkpt><trkpt lat="43.0182667" lon="12.3801962"><ele>172.0</ele><time>2026-04-02T08:42:16.698Z</time></trkpt><trkpt lat="43.0181155" lon="12.3800836"><ele>172.0</ele><time>2026-04-02T08:42:17.7Z</time></trkpt><trkpt lat="43.0179734" lon="12.379985"><ele>172.0</ele><time>2026-04-02T08:42:18.703Z</time></trkpt><trkpt lat="43.0178367" lon="12.3798886"><ele>172.0</ele><time>2026-04-02T08:42:19.699Z</time></trkpt><trkpt lat="43.0177146" lon="12.3797976"><ele>172.0</ele><time>2026-04-02T08:42:20.7Z</time></trkpt><trkpt lat="43.017597" lon="12.379714"><ele>172.0</ele><time>2026-04-02T08:42:21.7Z</time></trkpt><trkpt lat="43.0174843" lon="12.3796368"><ele>172.0</ele><time>2026-04-02T08:42:22.709Z</time></trkpt><trkpt lat="43.0173813" lon="12.3795718"><ele>172.2</ele><time>2026-04-02T08:42:23.699Z</time></trkpt><trkpt lat="43.0172994" lon="12.3795183"><ele>172.39999999999998</ele><time>2026-04-02T08:42:24.7Z</time></trkpt><trkpt lat="43.0172348" lon="12.3794727"><ele>172.60000000000002</ele><time>2026-04-02T08:42:25.704Z</time></trkpt><trkpt lat="43.017155" lon="12.3794031"><ele>172.8</ele><time>2026-04-02T08:42:27.7Z</time></trkpt><trkpt lat="43.0171579" lon="12.3792942"><ele>173.0</ele><time>2026-04-02T08:42:29.703Z</time></trkpt><trkpt lat="43.0172307" lon="12.3791314"><ele>173.0</ele><time>2026-04-02T08:42:31.704Z</time></trkpt><trkpt lat="43.0172754" lon="12.3790314"><ele>173.0</ele><time>2026-04-02T08:42:32.699Z</time></trkpt><trkpt lat="43.017319" lon="12.3789192"><ele>173.0</ele><time>2026-04-02T08:42:33.702Z</time></trkpt><trkpt lat="43.0173763" lon="12.3788108"><ele>173.0</ele><time>2026-04-02T08:42:34.7Z</time></trkpt><trkpt lat="43.0174324" lon="12.3787082"><ele>173.0</ele><time>2026-04-02T08:42:35.701Z</time></trkpt><trkpt lat="43.0174849" lon="12.378616"><ele>173.0</ele><time>2026-04-02T08:42:36.702Z</time></trkpt><trkpt lat="43.0175293" lon="12.3785294"><ele>173.0</ele><time>2026-04-02T08:42:37.701Z</time></trkpt><trkpt lat="43.0175531" lon="12.3783733"><ele>173.0</ele><time>2026-04-02T08:42:39.703Z</time></trkpt><trkpt lat="43.0175236" lon="12.3782862"><ele>173.0</ele><time>2026-04-02T08:42:40.707Z</time></trkpt><trkpt lat="43.0174831" lon="12.3781985"><ele>173.0</ele><time>2026-04-02T08:42:41.701Z</time></trkpt><trkpt lat="43.0174027" lon="12.3780813"><ele>173.25</ele><time>2026-04-02T08:42:42.703Z</time></trkpt><trkpt lat="43.0173268" lon="12.3779733"><ele>173.5</ele><time>2026-04-02T08:42:43.701Z</time></trkpt><trkpt lat="43.0172466" lon="12.3778556"><ele>173.75</ele><time>2026-04-02T08:42:44.703Z</time></trkpt><trkpt lat="43.0171581" lon="12.3777305"><ele>174.0</ele><time>2026-04-02T08:42:45.701Z</time></trkpt><trkpt lat="43.01706" lon="12.3776024"><ele>174.0</ele><time>2026-04-02T08:42:46.699Z</time></trkpt><trkpt lat="43.0169554" lon="12.3774717"><ele>174.0</ele><time>2026-04-02T08:42:47.704Z</time></trkpt><trkpt lat="43.0168529" lon="12.3773373"><ele>174.0</ele><time>2026-04-02T08:42:48.703Z</time></trkpt><trkpt lat="43.0167479" lon="12.3772129"><ele>174.0</ele><time>2026-04-02T08:42:49.701Z</time></trkpt><trkpt lat="43.0166386" lon="12.3770958"><ele>173.75</ele><time>2026-04-02T08:42:50.714Z</time></trkpt><trkpt lat="43.0165272" lon="12.3769769"><ele>173.5</ele><time>2026-04-02T08:42:51.701Z</time></trkpt><trkpt lat="43.0164112" lon="12.3768725"><ele>173.25</ele><time>2026-04-02T08:42:52.7Z</time></trkpt><trkpt lat="43.0162969" lon="12.3767924"><ele>173.0</ele><time>2026-04-02T08:42:53.704Z</time></trkpt><trkpt lat="43.0161748" lon="12.3767271"><ele>173.0</ele><time>2026-04-02T08:42:54.698Z</time></trkpt><trkpt lat="43.016053" lon="12.3766756"><ele>173.0</ele><time>2026-04-02T08:42:55.7Z</time></trkpt><trkpt lat="43.0159379" lon="12.3766336"><ele>173.0</ele><time>2026-04-02T08:42:56.705Z</time></trkpt><trkpt lat="43.0158284" lon="12.3765848"><ele>173.0</ele><time>2026-04-02T08:42:57.7Z</time></trkpt><trkpt lat="43.0157235" lon="12.376535"><ele>173.2</ele><time>2026-04-02T08:42:58.707Z</time></trkpt><trkpt lat="43.0156316" lon="12.3764752"><ele>173.4</ele><time>2026-04-02T08:42:59.703Z</time></trkpt><trkpt lat="43.0155471" lon="12.3764083"><ele>173.6</ele><time>2026-04-02T08:43:00.701Z</time></trkpt><trkpt lat="43.0154565" lon="12.3763299"><ele>173.79999999999998</ele><time>2026-04-02T08:43:01.701Z</time></trkpt><trkpt lat="43.0153838" lon="12.3762363"><ele>174.0</ele><time>2026-04-02T08:43:02.699Z</time></trkpt><trkpt lat="43.0153091" lon="12.3761292"><ele>174.0</ele><time>2026-04-02T08:43:03.702Z</time></trkpt><trkpt lat="43.0152431" lon="12.376023"><ele>174.0</ele><time>2026-04-02T08:43:04.698Z</time></trkpt><trkpt lat="43.0151698" lon="12.3759218"><ele>174.0</ele><time>2026-04-02T08:43:05.7Z</time></trkpt><trkpt lat="43.0150924" lon="12.375827"><ele>174.0</ele><time>2026-04-02T08:43:06.7Z</time></trkpt><trkpt lat="43.0150078" lon="12.3757419"><ele>174.0</ele><time>2026-04-02T08:43:07.699Z</time></trkpt><trkpt lat="43.0149148" lon="12.3756684"><ele>173.5</ele><time>2026-04-02T08:43:08.698Z</time></trkpt><trkpt lat="43.0148117" lon="12.3756056"><ele>173.0</ele><time>2026-04-02T08:43:09.702Z</time></trkpt><trkpt lat="43.0146953" lon="12.3755466"><ele>172.5</ele><time>2026-04-02T08:43:10.699Z</time></trkpt><trkpt lat="43.0145705" lon="12.375496"><ele>172.0</ele><time>2026-04-02T08:43:11.701Z</time></trkpt><trkpt lat="43.0144543" lon="12.375446"><ele>171.8</ele><time>2026-04-02T08:43:12.704Z</time></trkpt><trkpt lat="43.014347" lon="12.3754017"><ele>171.6</ele><time>2026-04-02T08:43:13.704Z</time></trkpt><trkpt lat="43.014244" lon="12.3753704"><ele>171.4</ele><time>2026-04-02T08:43:14.699Z</time></trkpt><trkpt lat="43.014143" lon="12.3753519"><ele>171.20000000000002</ele><time>2026-04-02T08:43:15.702Z</time></trkpt><trkpt lat="43.0140488" lon="12.3753475"><ele>171.0</ele><time>2026-04-02T08:43:16.701Z</time></trkpt><trkpt lat="43.0139675" lon="12.3753515"><ele>171.60000000000002</ele><time>2026-04-02T08:43:17.698Z</time></trkpt><trkpt lat="43.0139013" lon="12.375339"><ele>172.2</ele><time>2026-04-02T08:43:18.697Z</time></trkpt><trkpt lat="43.013823" lon="12.3752672"><ele>172.8</ele><time>2026-04-02T08:43:20.702Z</time></trkpt><trkpt lat="43.0138322" lon="12.3751013"><ele>173.39999999999998</ele><time>2026-04-02T08:43:22.705Z</time></trkpt><trkpt lat="43.0138604" lon="12.3749838"><ele>174.0</ele><time>2026-04-02T08:43:23.702Z</time></trkpt><trkpt lat="43.0138928" lon="12.3748554"><ele>174.0</ele><time>2026-04-02T08:43:24.702Z</time></trkpt><trkpt lat="43.0139284" lon="12.3747154"><ele>174.0</ele><time>2026-04-02T08:43:25.705Z</time></trkpt><trkpt lat="43.0139684" lon="12.3745624"><ele>174.0</ele><time>2026-04-02T08:43:26.704Z</time></trkpt><trkpt lat="43.0140115" lon="12.3743865"><ele>174.0</ele><time>2026-04-02T08:43:27.701Z</time></trkpt><trkpt lat="43.014054" lon="12.3742104"><ele>173.75</ele><time>2026-04-02T08:43:28.701Z</time></trkpt><trkpt lat="43.0141005" lon="12.3740337"><ele>173.5</ele><time>2026-04-02T08:43:29.699Z</time></trkpt><trkpt lat="43.014143" lon="12.3738586"><ele>173.25</ele><time>2026-04-02T08:43:30.703Z</time></trkpt><trkpt lat="43.0141838" lon="12.3737008"><ele>173.0</ele><time>2026-04-02T08:43:31.704Z</time></trkpt><trkpt lat="43.0142185" lon="12.3735642"><ele>173.0</ele><time>2026-04-02T08:43:32.704Z</time></trkpt><trkpt lat="43.0142623" lon="12.373421"><ele>173.0</ele><time>2026-04-02T08:43:33.701Z</time></trkpt><trkpt lat="43.0143009" lon="12.3732964"><ele>173.0</ele><time>2026-04-02T08:43:34.705Z</time></trkpt><trkpt lat="43.0143378" lon="12.3731799"><ele>173.0</ele><time>2026-04-02T08:43:35.702Z</time></trkpt><trkpt lat="43.0143636" lon="12.3730706"><ele>173.0</ele><time>2026-04-02T08:43:36.698Z</time></trkpt><trkpt lat="43.0143763" lon="12.3729777"><ele>173.2</ele><time>2026-04-02T08:43:37.701Z</time></trkpt><trkpt lat="43.0143499" lon="12.3728291"><ele>173.4</ele><time>2026-04-02T08:43:39.705Z</time></trkpt><trkpt lat="43.0142521" lon="12.3727322"><ele>173.6</ele><time>2026-04-02T08:43:41.701Z</time></trkpt><trkpt lat="43.0141714" lon="12.3726928"><ele>173.79999999999998</ele><time>2026-04-02T08:43:42.698Z</time></trkpt><trkpt lat="43.0140741" lon="12.3726575"><ele>174.0</ele><time>2026-04-02T08:43:43.697Z</time></trkpt><trkpt lat="43.0139665" lon="12.3726154"><ele>174.0</ele><time>2026-04-02T08:43:44.701Z</time></trkpt><trkpt lat="43.0138552" lon="12.3725658"><ele>174.0</ele><time>2026-04-02T08:43:45.7Z</time></trkpt><trkpt lat="43.0137369" lon="12.3725084"><ele>174.0</ele><time>2026-04-02T08:43:46.699Z</time></trkpt><trkpt lat="43.0136105" lon="12.3724568"><ele>174.0</ele><time>2026-04-02T08:43:47.697Z</time></trkpt><trkpt lat="43.0134934" lon="12.3724078"><ele>174.0</ele><time>2026-04-02T08:43:48.702Z</time></trkpt><trkpt lat="43.0133852" lon="12.3723681"><ele>174.0</ele><time>2026-04-02T08:43:49.701Z</time></trkpt><trkpt lat="43.0132823" lon="12.3723266"><ele>174.0</ele><time>2026-04-02T08:43:50.698Z</time></trkpt><trkpt lat="43.0131734" lon="12.3722846"><ele>174.0</ele><time>2026-04-02T08:43:51.698Z</time></trkpt><trkpt lat="43.0130679" lon="12.3722229"><ele>174.0</ele><time>2026-04-02T08:43:52.704Z</time></trkpt><trkpt lat="43.0129748" lon="12.3721545"><ele>173.79999999999998</ele><time>2026-04-02T08:43:53.699Z</time></trkpt><trkpt lat="43.0128865" lon="12.3721012"><ele>173.6</ele><time>2026-04-02T08:43:54.699Z</time></trkpt><trkpt lat="43.012801" lon="12.3720661"><ele>173.4</ele><time>2026-04-02T08:43:55.701Z</time></trkpt><trkpt lat="43.0127068" lon="12.3720456"><ele>173.2</ele><time>2026-04-02T08:43:56.703Z</time></trkpt><trkpt lat="43.012605" lon="12.372035"><ele>173.0</ele><time>2026-04-02T08:43:57.701Z</time></trkpt><trkpt lat="43.012494" lon="12.3720279"><ele>173.4</ele><time>2026-04-02T08:43:58.699Z</time></trkpt><trkpt lat="43.0123805" lon="12.3720285"><ele>173.8</ele><time>2026-04-02T08:43:59.699Z</time></trkpt><trkpt lat="43.0122722" lon="12.3720336"><ele>174.2</ele><time>2026-04-02T08:44:00.703Z</time></trkpt><trkpt lat="43.0121808" lon="12.372036"><ele>174.6</ele><time>2026-04-02T08:44:01.698Z</time></trkpt><trkpt lat="43.0120936" lon="12.3720448"><ele>175.0</ele><time>2026-04-02T08:44:02.7Z</time></trkpt><trkpt lat="43.0120167" lon="12.3720561"><ele>175.0</ele><time>2026-04-02T08:44:03.698Z</time></trkpt><trkpt lat="43.0119473" lon="12.3720609"><ele>175.0</ele><time>2026-04-02T08:44:04.701Z</time></trkpt><trkpt lat="43.0118739" lon="12.3720409"><ele>175.0</ele><time>2026-04-02T08:44:05.702Z</time></trkpt><trkpt lat="43.0117833" lon="12.3719849"><ele>175.0</ele><time>2026-04-02T08:44:06.706Z</time></trkpt><trkpt lat="43.0116928" lon="12.3719151"><ele>175.0</ele><time>2026-04-02T08:44:07.698Z</time></trkpt><trkpt lat="43.0115915" lon="12.37187"><ele>174.8</ele><time>2026-04-02T08:44:08.7Z</time></trkpt><trkpt lat="43.0114875" lon="12.3718395"><ele>174.6</ele><time>2026-04-02T08:44:09.698Z</time></trkpt><trkpt lat="43.0113854" lon="12.3718246"><ele>174.39999999999998</ele><time>2026-04-02T08:44:10.698Z</time></trkpt><trkpt lat="43.0112783" lon="12.3718285"><ele>174.2</ele><time>2026-04-02T08:44:11.697Z</time></trkpt><trkpt lat="43.0111551" lon="12.3718429"><ele>174.0</ele><time>2026-04-02T08:44:12.704Z</time></trkpt><trkpt lat="43.0110279" lon="12.371848"><ele>174.0</ele><time>2026-04-02T08:44:13.701Z</time></trkpt><trkpt lat="43.0109094" lon="12.3718368"><ele>174.0</ele><time>2026-04-02T08:44:14.703Z</time></trkpt><trkpt lat="43.0107875" lon="12.3718165"><ele>174.0</ele><time>2026-04-02T08:44:15.698Z</time></trkpt><trkpt lat="43.0106752" lon="12.3717979"><ele>174.0</ele><time>2026-04-02T08:44:16.699Z</time></trkpt><trkpt lat="43.0105778" lon="12.3717901"><ele>173.66666666666666</ele><time>2026-04-02T08:44:17.7Z</time></trkpt><trkpt lat="43.0104857" lon="12.3717977"><ele>173.33333333333334</ele><time>2026-04-02T08:44:18.704Z</time></trkpt><trkpt lat="43.0104088" lon="12.3718028"><ele>173.0</ele><time>2026-04-02T08:44:19.715Z</time></trkpt><trkpt lat="43.0103356" lon="12.3718042"><ele>172.66666666666669</ele><time>2026-04-02T08:44:20.697Z</time></trkpt><trkpt lat="43.0102578" lon="12.3718133"><ele>172.33333333333334</ele><time>2026-04-02T08:44:21.694Z</time></trkpt><trkpt lat="43.0101905" lon="12.3717875"><ele>172.0</ele><time>2026-04-02T08:44:22.699Z</time></trkpt><trkpt lat="43.0101117" lon="12.3717579"><ele>172.0</ele><time>2026-04-02T08:44:23.7Z</time></trkpt><trkpt lat="43.0100272" lon="12.3717174"><ele>172.0</ele><time>2026-04-02T08:44:24.701Z</time></trkpt><trkpt lat="43.0099351" lon="12.3716937"><ele>172.0</ele><time>2026-04-02T08:44:25.702Z</time></trkpt><trkpt lat="43.0098474" lon="12.3716612"><ele>172.0</ele><time>2026-04-02T08:44:26.71Z</time></trkpt><trkpt lat="43.0097687" lon="12.3716348"><ele>172.0</ele><time>2026-04-02T08:44:27.697Z</time></trkpt><trkpt lat="43.0096896" lon="12.3716089"><ele>172.0</ele><time>2026-04-02T08:44:28.7Z</time></trkpt><trkpt lat="43.0095865" lon="12.3715837"><ele>172.0</ele><time>2026-04-02T08:44:29.7Z</time></trkpt><trkpt lat="43.0094785" lon="12.3715619"><ele>172.0</ele><time>2026-04-02T08:44:30.707Z</time></trkpt><trkpt lat="43.009378" lon="12.3715361"><ele>172.0</ele><time>2026-04-02T08:44:31.697Z</time></trkpt><trkpt lat="43.0092862" lon="12.3714932"><ele>172.0</ele><time>2026-04-02T08:44:32.703Z</time></trkpt><trkpt lat="43.0091896" lon="12.3714347"><ele>172.0</ele><time>2026-04-02T08:44:33.697Z</time></trkpt><trkpt lat="43.0090872" lon="12.3713549"><ele>171.75</ele><time>2026-04-02T08:44:34.698Z</time></trkpt><trkpt lat="43.0089721" lon="12.3712435"><ele>171.5</ele><time>2026-04-02T08:44:35.698Z</time></trkpt><trkpt lat="43.0088597" lon="12.3711522"><ele>171.25</ele><time>2026-04-02T08:44:36.699Z</time></trkpt><trkpt lat="43.0087599" lon="12.3710689"><ele>171.0</ele><time>2026-04-02T08:44:37.708Z</time></trkpt><trkpt lat="43.0086598" lon="12.3709861"><ele>171.0</ele><time>2026-04-02T08:44:38.702Z</time></trkpt><trkpt lat="43.0085677" lon="12.3709095"><ele>171.0</ele><time>2026-04-02T08:44:39.703Z</time></trkpt><trkpt lat="43.0084931" lon="12.3708482"><ele>171.0</ele><time>2026-04-02T08:44:40.7Z</time></trkpt><trkpt lat="43.0084166" lon="12.3708046"><ele>171.0</ele><time>2026-04-02T08:44:41.702Z</time></trkpt><trkpt lat="43.0083243" lon="12.37079"><ele>171.0</ele><time>2026-04-02T08:44:43.707Z</time></trkpt><trkpt lat="43.0082435" lon="12.3707704"><ele>171.60000000000002</ele><time>2026-04-02T08:44:45.702Z</time></trkpt><trkpt lat="43.0081224" lon="12.3707199"><ele>172.2</ele><time>2026-04-02T08:44:47.7Z</time></trkpt><trkpt lat="43.0080503" lon="12.370695"><ele>172.8</ele><time>2026-04-02T08:44:48.702Z</time></trkpt><trkpt lat="43.0079808" lon="12.3706656"><ele>173.39999999999998</ele><time>2026-04-02T08:44:49.698Z</time></trkpt><trkpt lat="43.0078617" lon="12.3706105"><ele>174.0</ele><time>2026-04-02T08:44:51.7Z</time></trkpt><trkpt lat="43.0078061" lon="12.3705659"><ele>174.0</ele><time>2026-04-02T08:44:52.71Z</time></trkpt><trkpt lat="43.0077556" lon="12.3705101"><ele>174.0</ele><time>2026-04-02T08:44:53.7Z</time></trkpt><trkpt lat="43.0076976" lon="12.3704552"><ele>174.0</ele><time>2026-04-02T08:44:54.698Z</time></trkpt><trkpt lat="43.0076264" lon="12.3704182"><ele>174.0</ele><time>2026-04-02T08:44:55.7Z</time></trkpt><trkpt lat="43.0075454" lon="12.3703977"><ele>174.0</ele><time>2026-04-02T08:44:56.702Z</time></trkpt><trkpt lat="43.0074628" lon="12.3703947"><ele>174.0</ele><time>2026-04-02T08:44:57.702Z</time></trkpt><trkpt lat="43.0073726" lon="12.3704055"><ele>174.2</ele><time>2026-04-02T08:44:58.703Z</time></trkpt><trkpt lat="43.0072719" lon="12.3704076"><ele>174.39999999999998</ele><time>2026-04-02T08:44:59.699Z</time></trkpt><trkpt lat="43.0071677" lon="12.3703928"><ele>174.6</ele><time>2026-04-02T08:45:00.708Z</time></trkpt><trkpt lat="43.0070632" lon="12.3703622"><ele>174.8</ele><time>2026-04-02T08:45:01.7Z</time></trkpt><trkpt lat="43.0069482" lon="12.3703195"><ele>175.0</ele><time>2026-04-02T08:45:02.697Z</time></trkpt><trkpt lat="43.0068169" lon="12.370264"><ele>175.0</ele><time>2026-04-02T08:45:03.7Z</time></trkpt><trkpt lat="43.0066733" lon="12.3701893"><ele>175.0</ele><time>2026-04-02T08:45:04.704Z</time></trkpt><trkpt lat="43.0065398" lon="12.3701193"><ele>175.0</ele><time>2026-04-02T08:45:05.695Z</time></trkpt><trkpt lat="43.0064132" lon="12.3700622"><ele>175.0</ele><time>2026-04-02T08:45:06.7Z</time></trkpt><trkpt lat="43.0062937" lon="12.3700092"><ele>174.66666666666669</ele><time>2026-04-02T08:45:07.701Z</time></trkpt><trkpt lat="43.0061967" lon="12.369945"><ele>174.33333333333334</ele><time>2026-04-02T08:45:08.7Z</time></trkpt><trkpt lat="43.0061073" lon="12.3698912"><ele>174.0</ele><time>2026-04-02T08:45:09.703Z</time></trkpt><trkpt lat="43.0060405" lon="12.3698347"><ele>173.66666666666666</ele><time>2026-04-02T08:45:10.703Z</time></trkpt><trkpt lat="43.0059995" lon="12.3697652"><ele>173.33333333333331</ele><time>2026-04-02T08:45:11.701Z</time></trkpt><trkpt lat="43.0059826" lon="12.3696789"><ele>173.0</ele><time>2026-04-02T08:45:12.704Z</time></trkpt><trkpt lat="43.0059911" lon="12.3695675"><ele>173.0</ele><time>2026-04-02T08:45:13.699Z</time></trkpt><trkpt lat="43.0060164" lon="12.3694265"><ele>173.0</ele><time>2026-04-02T08:45:14.699Z</time></trkpt><trkpt lat="43.0060506" lon="12.3692699"><ele>173.0</ele><time>2026-04-02T08:45:15.698Z</time></trkpt><trkpt lat="43.0060866" lon="12.3690919"><ele>173.0</ele><time>2026-04-02T08:45:16.699Z</time></trkpt><trkpt lat="43.0061277" lon="12.3689031"><ele>173.33333333333331</ele><time>2026-04-02T08:45:17.704Z</time></trkpt><trkpt lat="43.0061677" lon="12.3687134"><ele>173.66666666666666</ele><time>2026-04-02T08:45:18.703Z</time></trkpt><trkpt lat="43.0062166" lon="12.3685042"><ele>174.0</ele><time>2026-04-02T08:45:19.705Z</time></trkpt><trkpt lat="43.0062728" lon="12.3682721"><ele>174.0</ele><time>2026-04-02T08:45:20.697Z</time></trkpt><trkpt lat="43.0063395" lon="12.3680193"><ele>174.0</ele><time>2026-04-02T08:45:21.699Z</time></trkpt><trkpt lat="43.0064034" lon="12.3677543"><ele>174.0</ele><time>2026-04-02T08:45:22.699Z</time></trkpt><trkpt lat="43.0064622" lon="12.3675242"><ele>174.0</ele><time>2026-04-02T08:45:23.7Z</time></trkpt><trkpt lat="43.0065145" lon="12.3673134"><ele>174.0</ele><time>2026-04-02T08:45:24.699Z</time></trkpt><trkpt lat="43.0065639" lon="12.3671224"><ele>174.0</ele><time>2026-04-02T08:45:25.698Z</time></trkpt><trkpt lat="43.0066101" lon="12.366936"><ele>174.0</ele><time>2026-04-02T08:45:26.705Z</time></trkpt><trkpt lat="43.0066559" lon="12.3667559"><ele>174.0</ele><time>2026-04-02T08:45:27.697Z</time></trkpt><trkpt lat="43.0066985" lon="12.3665895"><ele>174.0</ele><time>2026-04-02T08:45:28.706Z</time></trkpt><trkpt lat="43.0067349" lon="12.3664447"><ele>174.0</ele><time>2026-04-02T08:45:29.7Z</time></trkpt><trkpt lat="43.0067742" lon="12.3663084"><ele>174.79999999999998</ele><time>2026-04-02T08:45:30.7Z</time></trkpt><trkpt lat="43.0068089" lon="12.3661773"><ele>175.6</ele><time>2026-04-02T08:45:31.707Z</time></trkpt><trkpt lat="43.006842" lon="12.3660685"><ele>176.4</ele><time>2026-04-02T08:45:32.707Z</time></trkpt><trkpt lat="43.0068717" lon="12.3659583"><ele>177.2</ele><time>2026-04-02T08:45:33.701Z</time></trkpt><trkpt lat="43.0069026" lon="12.3658051"><ele>178.0</ele><time>2026-04-02T08:45:35.698Z</time></trkpt><trkpt lat="43.0068469" lon="12.3656777"><ele>178.0</ele><time>2026-04-02T08:45:37.701Z</time></trkpt><trkpt lat="43.006781" lon="12.3656206"><ele>178.0</ele><time>2026-04-02T08:45:38.701Z</time></trkpt><trkpt lat="43.0066958" lon="12.365568"><ele>178.0</ele><time>2026-04-02T08:45:39.705Z</time></trkpt><trkpt lat="43.0066043" lon="12.3655142"><ele>178.0</ele><time>2026-04-02T08:45:40.702Z</time></trkpt><trkpt lat="43.0065028" lon="12.3654743"><ele>178.0</ele><time>2026-04-02T08:45:41.705Z</time></trkpt><trkpt lat="43.0063937" lon="12.365437"><ele>178.75</ele><time>2026-04-02T08:45:42.699Z</time></trkpt><trkpt lat="43.006282" lon="12.3654062"><ele>179.5</ele><time>2026-04-02T08:45:43.705Z</time></trkpt><trkpt lat="43.0061604" lon="12.3653765"><ele>180.25</ele><time>2026-04-02T08:45:44.701Z</time></trkpt><trkpt lat="43.0060383" lon="12.3653464"><ele>181.0</ele><time>2026-04-02T08:45:45.7Z</time></trkpt><trkpt lat="43.0059265" lon="12.3653187"><ele>180.75</ele><time>2026-04-02T08:45:46.701Z</time></trkpt><trkpt lat="43.0058174" lon="12.3652702"><ele>180.5</ele><time>2026-04-02T08:45:47.698Z</time></trkpt><trkpt lat="43.0056996" lon="12.3652197"><ele>180.25</ele><time>2026-04-02T08:45:48.7Z</time></trkpt><trkpt lat="43.005571" lon="12.3651527"><ele>180.0</ele><time>2026-04-02T08:45:49.704Z</time></trkpt><trkpt lat="43.0054202" lon="12.3650858"><ele>180.0</ele><time>2026-04-02T08:45:50.707Z</time></trkpt><trkpt lat="43.0052455" lon="12.3650257"><ele>180.0</ele><time>2026-04-02T08:45:51.7Z</time></trkpt><trkpt lat="43.0050496" lon="12.3649622"><ele>180.0</ele><time>2026-04-02T08:45:52.708Z</time></trkpt><trkpt lat="43.004849" lon="12.3648978"><ele>179.33333333333334</ele><time>2026-04-02T08:45:53.7Z</time></trkpt><trkpt lat="43.0046659" lon="12.3648516"><ele>178.66666666666669</ele><time>2026-04-02T08:45:54.701Z</time></trkpt><trkpt lat="43.004499" lon="12.3648039"><ele>178.0</ele><time>2026-04-02T08:45:55.698Z</time></trkpt><trkpt lat="43.0043382" lon="12.3647674"><ele>178.0</ele><time>2026-04-02T08:45:56.701Z</time></trkpt><trkpt lat="43.0041873" lon="12.3647307"><ele>178.0</ele><time>2026-04-02T08:45:57.701Z</time></trkpt><trkpt lat="43.0040395" lon="12.3646927"><ele>178.0</ele><time>2026-04-02T08:45:58.707Z</time></trkpt><trkpt lat="43.0038904" lon="12.3646628"><ele>179.0</ele><time>2026-04-02T08:45:59.704Z</time></trkpt><trkpt lat="43.0037436" lon="12.3646401"><ele>180.0</ele><time>2026-04-02T08:46:00.701Z</time></trkpt><trkpt lat="43.0036093" lon="12.3646247"><ele>181.0</ele><time>2026-04-02T08:46:01.696Z</time></trkpt><trkpt lat="43.0034869" lon="12.3645982"><ele>182.0</ele><time>2026-04-02T08:46:02.702Z</time></trkpt><trkpt lat="43.0033711" lon="12.3645655"><ele>182.2</ele><time>2026-04-02T08:46:03.703Z</time></trkpt><trkpt lat="43.0032541" lon="12.3645263"><ele>182.39999999999998</ele><time>2026-04-02T08:46:04.702Z</time></trkpt><trkpt lat="43.0031475" lon="12.3644676"><ele>182.60000000000002</ele><time>2026-04-02T08:46:05.703Z</time></trkpt><trkpt lat="43.0030468" lon="12.3644351"><ele>182.8</ele><time>2026-04-02T08:46:06.698Z</time></trkpt><trkpt lat="43.0029544" lon="12.3644267"><ele>183.0</ele><time>2026-04-02T08:46:07.696Z</time></trkpt><trkpt lat="43.0028596" lon="12.3644426"><ele>183.0</ele><time>2026-04-02T08:46:08.7Z</time></trkpt><trkpt lat="43.0027731" lon="12.3644744"><ele>183.0</ele><time>2026-04-02T08:46:09.697Z</time></trkpt><trkpt lat="43.0026979" lon="12.3645164"><ele>183.0</ele><time>2026-04-02T08:46:10.701Z</time></trkpt><trkpt lat="43.0026339" lon="12.3645549"><ele>183.0</ele><time>2026-04-02T08:46:11.701Z</time></trkpt><trkpt lat="43.0025513" lon="12.3645801"><ele>183.0</ele><time>2026-04-02T08:46:12.702Z</time></trkpt><trkpt lat="43.0024546" lon="12.3645872"><ele>183.0</ele><time>2026-04-02T08:46:13.704Z</time></trkpt><trkpt lat="43.0023436" lon="12.3645854"><ele>183.16666666666666</ele><time>2026-04-02T08:46:14.701Z</time></trkpt><trkpt lat="43.0022214" lon="12.3645802"><ele>183.33333333333334</ele><time>2026-04-02T08:46:15.698Z</time></trkpt><trkpt lat="43.0021156" lon="12.3645814"><ele>183.5</ele><time>2026-04-02T08:46:16.698Z</time></trkpt><trkpt lat="43.0020277" lon="12.3645825"><ele>183.66666666666669</ele><time>2026-04-02T08:46:17.695Z</time></trkpt><trkpt lat="43.0019594" lon="12.3645765"><ele>183.83333333333334</ele><time>2026-04-02T08:46:18.698Z</time></trkpt><trkpt lat="43.0018965" lon="12.3645563"><ele>184.0</ele><time>2026-04-02T08:46:20.701Z</time></trkpt><trkpt lat="43.0018228" lon="12.3645533"><ele>184.0</ele><time>2026-04-02T08:46:23.705Z</time></trkpt><trkpt lat="43.0017286" lon="12.3646027"><ele>184.0</ele><time>2026-04-02T08:46:25.701Z</time></trkpt><trkpt lat="43.0015956" lon="12.3646151"><ele>184.0</ele><time>2026-04-02T08:46:27.7Z</time></trkpt><trkpt lat="43.0015182" lon="12.3646208"><ele>184.0</ele><time>2026-04-02T08:46:28.699Z</time></trkpt><trkpt lat="43.0014344" lon="12.364625"><ele>184.0</ele><time>2026-04-02T08:46:29.696Z</time></trkpt><trkpt lat="43.0013423" lon="12.3646241"><ele>183.79999999999998</ele><time>2026-04-02T08:46:30.713Z</time></trkpt><trkpt lat="43.0012464" lon="12.3646144"><ele>183.6</ele><time>2026-04-02T08:46:31.696Z</time></trkpt><trkpt lat="43.0011497" lon="12.3645946"><ele>183.4</ele><time>2026-04-02T08:46:32.699Z</time></trkpt><trkpt lat="43.0010416" lon="12.3645732"><ele>183.2</ele><time>2026-04-02T08:46:33.704Z</time></trkpt><trkpt lat="43.0009307" lon="12.3645477"><ele>183.0</ele><time>2026-04-02T08:46:34.701Z</time></trkpt><trkpt lat="43.0008178" lon="12.364521"><ele>183.5</ele><time>2026-04-02T08:46:35.698Z</time></trkpt><trkpt lat="43.0007147" lon="12.3644907"><ele>184.0</ele><time>2026-04-02T08:46:36.7Z</time></trkpt><trkpt lat="43.0005971" lon="12.3644473"><ele>184.5</ele><time>2026-04-02T08:46:37.703Z</time></trkpt><trkpt lat="43.0004633" lon="12.3643926"><ele>185.0</ele><time>2026-04-02T08:46:38.7Z</time></trkpt><trkpt lat="43.0003323" lon="12.3643278"><ele>185.0</ele><time>2026-04-02T08:46:39.7Z</time></trkpt><trkpt lat="43.00021" lon="12.3642749"><ele>185.0</ele><time>2026-04-02T08:46:40.699Z</time></trkpt><trkpt lat="43.0000933" lon="12.3642051"><ele>185.0</ele><time>2026-04-02T08:46:41.707Z</time></trkpt><trkpt lat="42.9999693" lon="12.3641002"><ele>185.0</ele><time>2026-04-02T08:46:42.712Z</time></trkpt><trkpt lat="42.9998285" lon="12.3639755"><ele>186.33333333333331</ele><time>2026-04-02T08:46:43.705Z</time></trkpt><trkpt lat="42.9996753" lon="12.3638491"><ele>187.66666666666666</ele><time>2026-04-02T08:46:44.699Z</time></trkpt><trkpt lat="42.9995336" lon="12.3637485"><ele>189.0</ele><time>2026-04-02T08:46:45.706Z</time></trkpt><trkpt lat="42.9993938" lon="12.363666"><ele>189.0</ele><time>2026-04-02T08:46:46.702Z</time></trkpt><trkpt lat="42.9992561" lon="12.3635927"><ele>189.0</ele><time>2026-04-02T08:46:47.699Z</time></trkpt><trkpt lat="42.9991138" lon="12.3635474"><ele>189.0</ele><time>2026-04-02T08:46:48.695Z</time></trkpt><trkpt lat="42.998983" lon="12.3635196"><ele>189.0</ele><time>2026-04-02T08:46:49.704Z</time></trkpt><trkpt lat="42.9988524" lon="12.3634819"><ele>189.0</ele><time>2026-04-02T08:46:50.705Z</time></trkpt><trkpt lat="42.9987216" lon="12.3634392"><ele>189.0</ele><time>2026-04-02T08:46:51.699Z</time></trkpt><trkpt lat="42.9985888" lon="12.3633943"><ele>189.0</ele><time>2026-04-02T08:46:52.697Z</time></trkpt><trkpt lat="42.9984679" lon="12.3633499"><ele>189.0</ele><time>2026-04-02T08:46:53.702Z</time></trkpt><trkpt lat="42.9983595" lon="12.3632996"><ele>188.79999999999998</ele><time>2026-04-02T08:46:54.701Z</time></trkpt><trkpt lat="42.9982609" lon="12.3632616"><ele>188.6</ele><time>2026-04-02T08:46:55.708Z</time></trkpt><trkpt lat="42.9981599" lon="12.3632271"><ele>188.4</ele><time>2026-04-02T08:46:56.705Z</time></trkpt><trkpt lat="42.9980551" lon="12.363184"><ele>188.2</ele><time>2026-04-02T08:46:57.702Z</time></trkpt><trkpt lat="42.997933" lon="12.3631435"><ele>188.0</ele><time>2026-04-02T08:46:58.701Z</time></trkpt><trkpt lat="42.9978024" lon="12.3631019"><ele>188.0</ele><time>2026-04-02T08:46:59.704Z</time></trkpt><trkpt lat="42.9976704" lon="12.3630582"><ele>188.0</ele><time>2026-04-02T08:47:00.704Z</time></trkpt><trkpt lat="42.997552" lon="12.3630159"><ele>188.0</ele><time>2026-04-02T08:47:01.699Z</time></trkpt><trkpt lat="42.9974334" lon="12.3629754"><ele>188.0</ele><time>2026-04-02T08:47:02.701Z</time></trkpt><trkpt lat="42.9973007" lon="12.3629442"><ele>189.0</ele><time>2026-04-02T08:47:03.698Z</time></trkpt><trkpt lat="42.9971604" lon="12.3629216"><ele>190.0</ele><time>2026-04-02T08:47:04.7Z</time></trkpt><trkpt lat="42.9970092" lon="12.3629126"><ele>191.0</ele><time>2026-04-02T08:47:05.705Z</time></trkpt><trkpt lat="42.996873" lon="12.362908"><ele>192.0</ele><time>2026-04-02T08:47:06.702Z</time></trkpt><trkpt lat="42.9967525" lon="12.3629099"><ele>191.6</ele><time>2026-04-02T08:47:07.698Z</time></trkpt><trkpt lat="42.9966386" lon="12.3629057"><ele>191.2</ele><time>2026-04-02T08:47:08.705Z</time></trkpt><trkpt lat="42.9965342" lon="12.362895"><ele>190.8</ele><time>2026-04-02T08:47:09.706Z</time></trkpt><trkpt lat="42.9964232" lon="12.3628872"><ele>190.4</ele><time>2026-04-02T08:47:10.698Z</time></trkpt><trkpt lat="42.9963089" lon="12.3628875"><ele>190.0</ele><time>2026-04-02T08:47:11.705Z</time></trkpt><trkpt lat="42.9961999" lon="12.362872"><ele>190.0</ele><time>2026-04-02T08:47:12.7Z</time></trkpt><trkpt lat="42.9960924" lon="12.3628554"><ele>190.0</ele><time>2026-04-02T08:47:13.7Z</time></trkpt><trkpt lat="42.9959895" lon="12.3628395"><ele>190.0</ele><time>2026-04-02T08:47:14.699Z</time></trkpt><trkpt lat="42.9958923" lon="12.3628265"><ele>190.0</ele><time>2026-04-02T08:47:15.697Z</time></trkpt><trkpt lat="42.9958004" lon="12.3628115"><ele>190.0</ele><time>2026-04-02T08:47:16.703Z</time></trkpt><trkpt lat="42.9957227" lon="12.3627972"><ele>189.2</ele><time>2026-04-02T08:47:17.709Z</time></trkpt><trkpt lat="42.9956196" lon="12.3628154"><ele>188.4</ele><time>2026-04-02T08:47:19.701Z</time></trkpt><trkpt lat="42.9955546" lon="12.3629287"><ele>187.60000000000002</ele><time>2026-04-02T08:47:21.705Z</time></trkpt><trkpt lat="42.9955306" lon="12.3630315"><ele>186.8</ele><time>2026-04-02T08:47:22.703Z</time></trkpt><trkpt lat="42.9955018" lon="12.3631632"><ele>186.0</ele><time>2026-04-02T08:47:23.698Z</time></trkpt><trkpt lat="42.9954691" lon="12.3633137"><ele>184.75</ele><time>2026-04-02T08:47:24.702Z</time></trkpt><trkpt lat="42.9954346" lon="12.3634774"><ele>183.5</ele><time>2026-04-02T08:47:25.698Z</time></trkpt><trkpt lat="42.9953987" lon="12.3636638"><ele>182.25</ele><time>2026-04-02T08:47:26.706Z</time></trkpt><trkpt lat="42.9953582" lon="12.3638571"><ele>181.0</ele><time>2026-04-02T08:47:27.705Z</time></trkpt><trkpt lat="42.9953154" lon="12.3640553"><ele>180.25</ele><time>2026-04-02T08:47:28.703Z</time></trkpt><trkpt lat="42.9952736" lon="12.3642515"><ele>179.5</ele><time>2026-04-02T08:47:29.701Z</time></trkpt><trkpt lat="42.9952371" lon="12.3644448"><ele>178.75</ele><time>2026-04-02T08:47:30.7Z</time></trkpt><trkpt lat="42.995199" lon="12.3646278"><ele>178.0</ele><time>2026-04-02T08:47:31.701Z</time></trkpt><trkpt lat="42.9951621" lon="12.3647878"><ele>177.8</ele><time>2026-04-02T08:47:32.7Z</time></trkpt><trkpt lat="42.995137" lon="12.3649181"><ele>177.60000000000002</ele><time>2026-04-02T08:47:33.699Z</time></trkpt><trkpt lat="42.9951073" lon="12.3650465"><ele>177.39999999999998</ele><time>2026-04-02T08:47:34.704Z</time></trkpt><trkpt lat="42.9950788" lon="12.3651716"><ele>177.2</ele><time>2026-04-02T08:47:35.711Z</time></trkpt><trkpt lat="42.99505" lon="12.3653126"><ele>177.0</ele><time>2026-04-02T08:47:36.704Z</time></trkpt><trkpt lat="42.9950143" lon="12.3654574"><ele>177.0</ele><time>2026-04-02T08:47:37.698Z</time></trkpt><trkpt lat="42.9949812" lon="12.3656161"><ele>177.0</ele><time>2026-04-02T08:47:38.702Z</time></trkpt><trkpt lat="42.9949494" lon="12.3657841"><ele>177.0</ele><time>2026-04-02T08:47:39.699Z</time></trkpt><trkpt lat="42.9949194" lon="12.3659594"><ele>177.0</ele><time>2026-04-02T08:47:40.707Z</time></trkpt><trkpt lat="42.9948953" lon="12.366132"><ele>177.0</ele><time>2026-04-02T08:47:41.708Z</time></trkpt><trkpt lat="42.9948781" lon="12.366299"><ele>177.0</ele><time>2026-04-02T08:47:42.703Z</time></trkpt><trkpt lat="42.994867" lon="12.3664756"><ele>177.0</ele><time>2026-04-02T08:47:43.704Z</time></trkpt><trkpt lat="42.9948549" lon="12.3666437"><ele>177.0</ele><time>2026-04-02T08:47:44.699Z</time></trkpt><trkpt lat="42.9948389" lon="12.3667964"><ele>176.6</ele><time>2026-04-02T08:47:45.704Z</time></trkpt><trkpt lat="42.9948205" lon="12.3669259"><ele>176.2</ele><time>2026-04-02T08:47:46.705Z</time></trkpt><trkpt lat="42.99481" lon="12.36702"><ele>175.8</ele><time>2026-04-02T08:47:47.702Z</time></trkpt><trkpt lat="42.9947797" lon="12.3671318"><ele>175.4</ele><time>2026-04-02T08:47:49.701Z</time></trkpt><trkpt lat="42.9946942" lon="12.3671991"><ele>175.0</ele><time>2026-04-02T08:47:51.705Z</time></trkpt><trkpt lat="42.9945636" lon="12.3672023"><ele>174.75</ele><time>2026-04-02T08:47:53.704Z</time></trkpt><trkpt lat="42.9944421" lon="12.3672059"><ele>174.5</ele><time>2026-04-02T08:47:55.699Z</time></trkpt><trkpt lat="42.9943408" lon="12.3673334"><ele>174.25</ele><time>2026-04-02T08:47:57.704Z</time></trkpt><trkpt lat="42.9943049" lon="12.3674446"><ele>174.0</ele><time>2026-04-02T08:47:58.702Z</time></trkpt><trkpt lat="42.9942722" lon="12.3675825"><ele>174.0</ele><time>2026-04-02T08:47:59.701Z</time></trkpt><trkpt lat="42.9942356" lon="12.367731"><ele>174.0</ele><time>2026-04-02T08:48:00.702Z</time></trkpt><trkpt lat="42.9941951" lon="12.3678988"><ele>174.0</ele><time>2026-04-02T08:48:01.705Z</time></trkpt><trkpt lat="42.9941519" lon="12.3680682"><ele>174.0</ele><time>2026-04-02T08:48:02.701Z</time></trkpt><trkpt lat="42.9941071" lon="12.3682625"><ele>173.33333333333334</ele><time>2026-04-02T08:48:03.707Z</time></trkpt><trkpt lat="42.9940657" lon="12.3684455"><ele>172.66666666666669</ele><time>2026-04-02T08:48:04.697Z</time></trkpt><trkpt lat="42.9940167" lon="12.3686574"><ele>172.0</ele><time>2026-04-02T08:48:05.706Z</time></trkpt><trkpt lat="42.9939623" lon="12.3688689"><ele>171.66666666666669</ele><time>2026-04-02T08:48:06.703Z</time></trkpt><trkpt lat="42.9939068" lon="12.3690906"><ele>171.33333333333334</ele><time>2026-04-02T08:48:07.706Z</time></trkpt><trkpt lat="42.9938505" lon="12.3693084"><ele>171.0</ele><time>2026-04-02T08:48:08.697Z</time></trkpt><trkpt lat="42.9938028" lon="12.3695132"><ele>171.0</ele><time>2026-04-02T08:48:09.703Z</time></trkpt><trkpt lat="42.9937596" lon="12.369687"><ele>171.0</ele><time>2026-04-02T08:48:10.701Z</time></trkpt><trkpt lat="42.9937214" lon="12.3698681"><ele>171.0</ele><time>2026-04-02T08:48:11.702Z</time></trkpt><trkpt lat="42.9936803" lon="12.3700414"><ele>171.0</ele><time>2026-04-02T08:48:12.701Z</time></trkpt><trkpt lat="42.9936381" lon="12.3701962"><ele>171.4</ele><time>2026-04-02T08:48:13.7Z</time></trkpt><trkpt lat="42.9935999" lon="12.3703337"><ele>171.8</ele><time>2026-04-02T08:48:14.696Z</time></trkpt><trkpt lat="42.9935568" lon="12.3704777"><ele>172.20000000000002</ele><time>2026-04-02T08:48:15.701Z</time></trkpt><trkpt lat="42.9935378" lon="12.370612"><ele>172.60000000000002</ele><time>2026-04-02T08:48:16.697Z</time></trkpt><trkpt lat="42.9935292" lon="12.3707779"><ele>173.0</ele><time>2026-04-02T08:48:17.709Z</time></trkpt><trkpt lat="42.993537" lon="12.3709361"><ele>173.0</ele><time>2026-04-02T08:48:18.7Z</time></trkpt><trkpt lat="42.9935435" lon="12.3710952"><ele>173.0</ele><time>2026-04-02T08:48:19.703Z</time></trkpt><trkpt lat="42.9935615" lon="12.3712488"><ele>173.0</ele><time>2026-04-02T08:48:20.699Z</time></trkpt><trkpt lat="42.9935877" lon="12.3714035"><ele>173.0</ele><time>2026-04-02T08:48:21.702Z</time></trkpt><trkpt lat="42.9936262" lon="12.3715686"><ele>173.0</ele><time>2026-04-02T08:48:22.701Z</time></trkpt><trkpt lat="42.9936499" lon="12.3717217"><ele>173.0</ele><time>2026-04-02T08:48:23.696Z</time></trkpt><trkpt lat="42.9936545" lon="12.3718889"><ele>173.0</ele><time>2026-04-02T08:48:24.7Z</time></trkpt><trkpt lat="42.9936535" lon="12.3720782"><ele>173.0</ele><time>2026-04-02T08:48:25.695Z</time></trkpt><trkpt lat="42.9936253" lon="12.3722731"><ele>173.0</ele><time>2026-04-02T08:48:26.712Z</time></trkpt><trkpt lat="42.9935807" lon="12.3724583"><ele>173.0</ele><time>2026-04-02T08:48:27.698Z</time></trkpt><trkpt lat="42.9935459" lon="12.3726338"><ele>173.0</ele><time>2026-04-02T08:48:28.706Z</time></trkpt><trkpt lat="42.9935384" lon="12.3728034"><ele>173.0</ele><time>2026-04-02T08:48:29.707Z</time></trkpt><trkpt lat="42.9935453" lon="12.3729769"><ele>173.25</ele><time>2026-04-02T08:48:30.703Z</time></trkpt><trkpt lat="42.9935662" lon="12.373163"><ele>173.5</ele><time>2026-04-02T08:48:31.695Z</time></trkpt><trkpt lat="42.9936012" lon="12.3733626"><ele>173.75</ele><time>2026-04-02T08:48:32.697Z</time></trkpt><trkpt lat="42.9936408" lon="12.3735705"><ele>174.0</ele><time>2026-04-02T08:48:33.697Z</time></trkpt><trkpt lat="42.9936872" lon="12.3737815"><ele>173.75</ele><time>2026-04-02T08:48:34.704Z</time></trkpt><trkpt lat="42.9937223" lon="12.3739913"><ele>173.5</ele><time>2026-04-02T08:48:35.704Z</time></trkpt><trkpt lat="42.9937342" lon="12.3741853"><ele>173.25</ele><time>2026-04-02T08:48:36.702Z</time></trkpt><trkpt lat="42.9937249" lon="12.3743718"><ele>173.0</ele><time>2026-04-02T08:48:37.71Z</time></trkpt><trkpt lat="42.9936991" lon="12.3745536"><ele>172.25</ele><time>2026-04-02T08:48:38.701Z</time></trkpt><trkpt lat="42.9936575" lon="12.3747291"><ele>171.5</ele><time>2026-04-02T08:48:39.7Z</time></trkpt><trkpt lat="42.9935958" lon="12.3749101"><ele>170.75</ele><time>2026-04-02T08:48:40.702Z</time></trkpt><trkpt lat="42.9935158" lon="12.375086"><ele>170.0</ele><time>2026-04-02T08:48:41.7Z</time></trkpt><trkpt lat="42.9934305" lon="12.3752634"><ele>170.0</ele><time>2026-04-02T08:48:42.704Z</time></trkpt><trkpt lat="42.9933522" lon="12.3754491"><ele>170.0</ele><time>2026-04-02T08:48:43.702Z</time></trkpt><trkpt lat="42.9932809" lon="12.3756508"><ele>170.0</ele><time>2026-04-02T08:48:44.702Z</time></trkpt><trkpt lat="42.9932153" lon="12.3758647"><ele>171.0</ele><time>2026-04-02T08:48:45.7Z</time></trkpt><trkpt lat="42.993153" lon="12.3760746"><ele>172.0</ele><time>2026-04-02T08:48:46.699Z</time></trkpt><trkpt lat="42.9930982" lon="12.37627"><ele>173.0</ele><time>2026-04-02T08:48:47.701Z</time></trkpt><trkpt lat="42.9930454" lon="12.3764524"><ele>173.0</ele><time>2026-04-02T08:48:48.701Z</time></trkpt><trkpt lat="42.9929958" lon="12.3766057"><ele>173.0</ele><time>2026-04-02T08:48:49.703Z</time></trkpt><trkpt lat="42.992943" lon="12.3767312"><ele>173.0</ele><time>2026-04-02T08:48:50.7Z</time></trkpt><trkpt lat="42.992892" lon="12.3768254"><ele>173.0</ele><time>2026-04-02T08:48:51.701Z</time></trkpt><trkpt lat="42.9928054" lon="12.3769143"><ele>173.0</ele><time>2026-04-02T08:48:53.703Z</time></trkpt><trkpt lat="42.9927353" lon="12.3768486"><ele>173.0</ele><time>2026-04-02T08:48:55.704Z</time></trkpt><trkpt lat="42.9926911" lon="12.376759"><ele>173.0</ele><time>2026-04-02T08:48:56.704Z</time></trkpt><trkpt lat="42.9926442" lon="12.3766594"><ele>173.0</ele><time>2026-04-02T08:48:57.7Z</time></trkpt><trkpt lat="42.9925864" lon="12.376546"><ele>173.0</ele><time>2026-04-02T08:48:58.696Z</time></trkpt><trkpt lat="42.9925161" lon="12.3764219"><ele>173.0</ele><time>2026-04-02T08:48:59.701Z</time></trkpt><trkpt lat="42.992452" lon="12.3763009"><ele>173.25</ele><time>2026-04-02T08:49:00.7Z</time></trkpt><trkpt lat="42.9923769" lon="12.3761788"><ele>173.5</ele><time>2026-04-02T08:49:01.705Z</time></trkpt><trkpt lat="42.9922832" lon="12.3760622"><ele>173.75</ele><time>2026-04-02T08:49:02.699Z</time></trkpt><trkpt lat="42.9921807" lon="12.3759551"><ele>174.0</ele><time>2026-04-02T08:49:03.702Z</time></trkpt><trkpt lat="42.9920872" lon="12.3758576"><ele>174.0</ele><time>2026-04-02T08:49:04.698Z</time></trkpt><trkpt lat="42.9919968" lon="12.3757442"><ele>174.0</ele><time>2026-04-02T08:49:05.704Z</time></trkpt><trkpt lat="42.9919206" lon="12.3756107"><ele>174.0</ele><time>2026-04-02T08:49:06.706Z</time></trkpt><trkpt lat="42.9918576" lon="12.3754573"><ele>174.0</ele><time>2026-04-02T08:49:07.7Z</time></trkpt><trkpt lat="42.9918123" lon="12.3752834"><ele>173.79999999999998</ele><time>2026-04-02T08:49:08.703Z</time></trkpt><trkpt lat="42.9917706" lon="12.3751105"><ele>173.6</ele><time>2026-04-02T08:49:09.699Z</time></trkpt><trkpt lat="42.9917417" lon="12.3749555"><ele>173.4</ele><time>2026-04-02T08:49:10.702Z</time></trkpt><trkpt lat="42.9917122" lon="12.3748172"><ele>173.2</ele><time>2026-04-02T08:49:11.698Z</time></trkpt><trkpt lat="42.9916854" lon="12.3747257"><ele>173.0</ele><time>2026-04-02T08:49:12.702Z</time></trkpt><trkpt lat="42.991618" lon="12.374655"><ele>172.8</ele><time>2026-04-02T08:49:15.701Z</time></trkpt><trkpt lat="42.9915343" lon="12.374672"><ele>172.60000000000002</ele><time>2026-04-02T08:49:17.699Z</time></trkpt><trkpt lat="42.9914567" lon="12.3747066"><ele>172.39999999999998</ele><time>2026-04-02T08:49:19.701Z</time></trkpt><trkpt lat="42.9914001" lon="12.3747488"><ele>172.2</ele><time>2026-04-02T08:49:22.697Z</time></trkpt><trkpt lat="42.9913182" lon="12.3748432"><ele>172.0</ele><time>2026-04-02T08:53:43.704Z</time></trkpt><trkpt lat="42.9912246" lon="12.3749764"><ele>172.0</ele><time>2026-04-02T08:53:45.703Z</time></trkpt><trkpt lat="42.9911679" lon="12.3750583"><ele>172.0</ele><time>2026-04-02T08:53:46.7Z</time></trkpt><trkpt lat="42.9911063" lon="12.3751235"><ele>172.0</ele><time>2026-04-02T08:53:47.699Z</time></trkpt><trkpt lat="42.9910389" lon="12.375177"><ele>172.0</ele><time>2026-04-02T08:53:48.702Z</time></trkpt><trkpt lat="42.9909574" lon="12.3752118"><ele>172.0</ele><time>2026-04-02T08:53:49.704Z</time></trkpt><trkpt lat="42.9908702" lon="12.3752288"><ele>172.0</ele><time>2026-04-02T08:53:50.704Z</time></trkpt><trkpt lat="42.9907658" lon="12.3752398"><ele>172.0</ele><time>2026-04-02T08:53:51.704Z</time></trkpt><trkpt lat="42.9906622" lon="12.3752482"><ele>172.0</ele><time>2026-04-02T08:53:52.719Z</time></trkpt><trkpt lat="42.9905559" lon="12.3752469"><ele>172.0</ele><time>2026-04-02T08:53:53.7Z</time></trkpt><trkpt lat="42.9904551" lon="12.3752326"><ele>172.0</ele><time>2026-04-02T08:53:54.706Z</time></trkpt><trkpt lat="42.9903526" lon="12.375209"><ele>172.0</ele><time>2026-04-02T08:53:55.704Z</time></trkpt><trkpt lat="42.9902458" lon="12.3751804"><ele>172.0</ele><time>2026-04-02T08:53:56.702Z</time></trkpt><trkpt lat="42.9901446" lon="12.3751399"><ele>172.0</ele><time>2026-04-02T08:53:57.698Z</time></trkpt><trkpt lat="42.9900474" lon="12.3750974"><ele>172.0</ele><time>2026-04-02T08:53:58.699Z</time></trkpt><trkpt lat="42.9899663" lon="12.3750655"><ele>172.0</ele><time>2026-04-02T08:53:59.7Z</time></trkpt><trkpt lat="42.9898939" lon="12.3750369"><ele>172.0</ele><time>2026-04-02T08:54:00.702Z</time></trkpt><trkpt lat="42.9898216" lon="12.3749988"><ele>172.0</ele><time>2026-04-02T08:54:01.704Z</time></trkpt><trkpt lat="42.9897462" lon="12.3749621"><ele>172.0</ele><time>2026-04-02T08:54:02.7Z</time></trkpt><trkpt lat="42.989668" lon="12.3749201"><ele>172.0</ele><time>2026-04-02T08:54:03.704Z</time></trkpt><trkpt lat="42.9895762" lon="12.3748758"><ele>172.0</ele><time>2026-04-02T08:54:04.703Z</time></trkpt><trkpt lat="42.9894978" lon="12.3748382"><ele>172.0</ele><time>2026-04-02T08:54:05.704Z</time></trkpt><trkpt lat="42.9894259" lon="12.374809"><ele>172.0</ele><time>2026-04-02T08:54:06.704Z</time></trkpt><trkpt lat="42.9893607" lon="12.3748048"><ele>172.0</ele><time>2026-04-02T08:54:07.699Z</time></trkpt><trkpt lat="42.9892985" lon="12.3748257"><ele>172.0</ele><time>2026-04-02T08:54:08.706Z</time></trkpt><trkpt lat="42.9892293" lon="12.3748572"><ele>172.0</ele><time>2026-04-02T08:54:09.699Z</time></trkpt><trkpt lat="42.9891524" lon="12.3749129"><ele>172.0</ele><time>2026-04-02T08:54:10.702Z</time></trkpt><trkpt lat="42.9890744" lon="12.3749651"><ele>172.0</ele><time>2026-04-02T08:54:11.707Z</time></trkpt><trkpt lat="42.9889981" lon="12.375032"><ele>172.0</ele><time>2026-04-02T08:54:12.707Z</time></trkpt><trkpt lat="42.9889269" lon="12.375096"><ele>172.0</ele><time>2026-04-02T08:54:13.699Z</time></trkpt><trkpt lat="42.9888579" lon="12.3751708"><ele>171.83333333333334</ele><time>2026-04-02T08:54:14.697Z</time></trkpt><trkpt lat="42.9887915" lon="12.3752607"><ele>171.66666666666669</ele><time>2026-04-02T08:54:15.701Z</time></trkpt><trkpt lat="42.9887296" lon="12.3753492"><ele>171.5</ele><time>2026-04-02T08:54:16.706Z</time></trkpt><trkpt lat="42.9886605" lon="12.3754343"><ele>171.33333333333334</ele><time>2026-04-02T08:54:17.699Z</time></trkpt><trkpt lat="42.9885964" lon="12.3755141"><ele>171.16666666666666</ele><time>2026-04-02T08:54:18.7Z</time></trkpt><trkpt lat="42.9885316" lon="12.3755815"><ele>171.0</ele><time>2026-04-02T08:54:19.701Z</time></trkpt><trkpt lat="42.9884569" lon="12.3756448"><ele>170.8</ele><time>2026-04-02T08:54:20.708Z</time></trkpt><trkpt lat="42.9883695" lon="12.3756982"><ele>170.60000000000002</ele><time>2026-04-02T08:54:21.702Z</time></trkpt><trkpt lat="42.9882767" lon="12.375743"><ele>170.4</ele><time>2026-04-02T08:54:22.703Z</time></trkpt><trkpt lat="42.9881863" lon="12.3757828"><ele>170.2</ele><time>2026-04-02T08:54:23.703Z</time></trkpt><trkpt lat="42.9880925" lon="12.3758226"><ele>170.0</ele><time>2026-04-02T08:54:24.703Z</time></trkpt><trkpt lat="42.9880021" lon="12.3758585"><ele>170.0</ele><time>2026-04-02T08:54:25.704Z</time></trkpt><trkpt lat="42.9879129" lon="12.3759033"><ele>170.0</ele><time>2026-04-02T08:54:26.708Z</time></trkpt><trkpt lat="42.9878242" lon="12.3759439"><ele>170.0</ele><time>2026-04-02T08:54:27.702Z</time></trkpt><trkpt lat="42.9877377" lon="12.3759883"><ele>170.0</ele><time>2026-04-02T08:54:28.705Z</time></trkpt><trkpt lat="42.9876628" lon="12.3760266"><ele>170.0</ele><time>2026-04-02T08:54:29.701Z</time></trkpt><trkpt lat="42.9875839" lon="12.376058"><ele>170.0</ele><time>2026-04-02T08:54:30.701Z</time></trkpt><trkpt lat="42.9874983" lon="12.3760849"><ele>170.16666666666666</ele><time>2026-04-02T08:54:31.706Z</time></trkpt><trkpt lat="42.9874052" lon="12.3760768"><ele>170.33333333333331</ele><time>2026-04-02T08:54:32.701Z</time></trkpt><trkpt lat="42.9873164" lon="12.3760652"><ele>170.5</ele><time>2026-04-02T08:54:33.704Z</time></trkpt><trkpt lat="42.9872306" lon="12.3760485"><ele>170.66666666666666</ele><time>2026-04-02T08:54:34.701Z</time></trkpt><trkpt lat="42.9871507" lon="12.3760338"><ele>170.83333333333334</ele><time>2026-04-02T08:54:35.701Z</time></trkpt><trkpt lat="42.9870712" lon="12.3760185"><ele>171.0</ele><time>2026-04-02T08:54:37.699Z</time></trkpt><trkpt lat="42.987027" lon="12.3759243"><ele>171.0</ele><time>2026-04-02T08:54:40.702Z</time></trkpt><trkpt lat="42.9870712" lon="12.3758092"><ele>171.0</ele><time>2026-04-02T08:54:42.7Z</time></trkpt><trkpt lat="42.9871006" lon="12.3756805"><ele>171.0</ele><time>2026-04-02T08:54:44.702Z</time></trkpt><trkpt lat="42.9871332" lon="12.3755586"><ele>171.0</ele><time>2026-04-02T08:54:46.703Z</time></trkpt><trkpt lat="42.9871819" lon="12.3754283"><ele>171.0</ele><time>2026-04-02T08:54:48.696Z</time></trkpt><trkpt lat="42.9872086" lon="12.3753465"><ele>171.20000000000002</ele><time>2026-04-02T08:54:49.7Z</time></trkpt><trkpt lat="42.987235" lon="12.3752583"><ele>171.4</ele><time>2026-04-02T08:54:50.7Z</time></trkpt><trkpt lat="42.9872632" lon="12.3751592"><ele>171.6</ele><time>2026-04-02T08:54:51.703Z</time></trkpt><trkpt lat="42.9873" lon="12.3750375"><ele>171.8</ele><time>2026-04-02T08:54:52.702Z</time></trkpt><trkpt lat="42.9873422" lon="12.3749078"><ele>172.0</ele><time>2026-04-02T08:54:53.704Z</time></trkpt><trkpt lat="42.9873762" lon="12.3747705"><ele>172.25</ele><time>2026-04-02T08:54:54.701Z</time></trkpt><trkpt lat="42.9874154" lon="12.3746175"><ele>172.5</ele><time>2026-04-02T08:54:55.704Z</time></trkpt><trkpt lat="42.9874532" lon="12.3744634"><ele>172.75</ele><time>2026-04-02T08:54:56.698Z</time></trkpt><trkpt lat="42.9874909" lon="12.374303"><ele>173.0</ele><time>2026-04-02T08:54:57.707Z</time></trkpt><trkpt lat="42.9875219" lon="12.3741404"><ele>173.0</ele><time>2026-04-02T08:54:58.698Z</time></trkpt><trkpt lat="42.9875528" lon="12.3739806"><ele>173.0</ele><time>2026-04-02T08:54:59.702Z</time></trkpt><trkpt lat="42.9875783" lon="12.3738136"><ele>173.0</ele><time>2026-04-02T08:55:00.701Z</time></trkpt><trkpt lat="42.9876032" lon="12.3736404"><ele>173.0</ele><time>2026-04-02T08:55:01.704Z</time></trkpt><trkpt lat="42.9876277" lon="12.3734702"><ele>173.25</ele><time>2026-04-02T08:55:02.702Z</time></trkpt><trkpt lat="42.9876572" lon="12.3732845"><ele>173.5</ele><time>2026-04-02T08:55:03.704Z</time></trkpt><trkpt lat="42.9876852" lon="12.3730938"><ele>173.75</ele><time>2026-04-02T08:55:04.703Z</time></trkpt><trkpt lat="42.987728" lon="12.3728935"><ele>174.0</ele><time>2026-04-02T08:55:05.706Z</time></trkpt><trkpt lat="42.987759" lon="12.3726986"><ele>174.0</ele><time>2026-04-02T08:55:06.703Z</time></trkpt><trkpt lat="42.9877769" lon="12.372535"><ele>174.0</ele><time>2026-04-02T08:55:07.701Z</time></trkpt><trkpt lat="42.9877918" lon="12.3723769"><ele>174.0</ele><time>2026-04-02T08:55:08.702Z</time></trkpt><trkpt lat="42.9877965" lon="12.3722245"><ele>174.0</ele><time>2026-04-02T08:55:09.702Z</time></trkpt><trkpt lat="42.9877973" lon="12.3720692"><ele>174.0</ele><time>2026-04-02T08:55:10.704Z</time></trkpt><trkpt lat="42.9877963" lon="12.3719049"><ele>174.0</ele><time>2026-04-02T08:55:11.698Z</time></trkpt><trkpt lat="42.9877854" lon="12.3717409"><ele>174.0</ele><time>2026-04-02T08:55:12.703Z</time></trkpt><trkpt lat="42.9877675" lon="12.3715797"><ele>174.0</ele><time>2026-04-02T08:55:13.704Z</time></trkpt><trkpt lat="42.9877334" lon="12.3714269"><ele>174.25</ele><time>2026-04-02T08:55:14.703Z</time></trkpt><trkpt lat="42.9877031" lon="12.3712774"><ele>174.5</ele><time>2026-04-02T08:55:15.708Z</time></trkpt><trkpt lat="42.9876851" lon="12.3711163"><ele>174.75</ele><time>2026-04-02T08:55:16.698Z</time></trkpt><trkpt lat="42.9876619" lon="12.3709465"><ele>175.0</ele><time>2026-04-02T08:55:17.707Z</time></trkpt><trkpt lat="42.9876371" lon="12.3707606"><ele>175.0</ele><time>2026-04-02T08:55:18.7Z</time></trkpt><trkpt lat="42.9876149" lon="12.3705845"><ele>175.0</ele><time>2026-04-02T08:55:19.704Z</time></trkpt><trkpt lat="42.9875919" lon="12.3704184"><ele>175.0</ele><time>2026-04-02T08:55:20.701Z</time></trkpt><trkpt lat="42.987557" lon="12.3702678"><ele>175.0</ele><time>2026-04-02T08:55:21.702Z</time></trkpt><trkpt lat="42.9875112" lon="12.370113"><ele>175.0</ele><time>2026-04-02T08:55:22.7Z</time></trkpt><trkpt lat="42.9874509" lon="12.3699576"><ele>175.0</ele><time>2026-04-02T08:55:23.706Z</time></trkpt><trkpt lat="42.9873929" lon="12.3698003"><ele>175.0</ele><time>2026-04-02T08:55:24.701Z</time></trkpt><trkpt lat="42.9873464" lon="12.3696304"><ele>175.0</ele><time>2026-04-02T08:55:25.704Z</time></trkpt><trkpt lat="42.9873123" lon="12.3694545"><ele>175.0</ele><time>2026-04-02T08:55:26.703Z</time></trkpt><trkpt lat="42.9872839" lon="12.3692645"><ele>175.0</ele><time>2026-04-02T08:55:27.699Z</time></trkpt><trkpt lat="42.9872573" lon="12.3690873"><ele>175.0</ele><time>2026-04-02T08:55:28.699Z</time></trkpt><trkpt lat="42.987232" lon="12.3689225"><ele>175.0</ele><time>2026-04-02T08:55:29.7Z</time></trkpt><trkpt lat="42.9872051" lon="12.3687569"><ele>175.4</ele><time>2026-04-02T08:55:30.7Z</time></trkpt><trkpt lat="42.9871806" lon="12.3686012"><ele>175.8</ele><time>2026-04-02T08:55:31.706Z</time></trkpt><trkpt lat="42.987152" lon="12.3684625"><ele>176.2</ele><time>2026-04-02T08:55:32.706Z</time></trkpt><trkpt lat="42.9871312" lon="12.3683368"><ele>176.6</ele><time>2026-04-02T08:55:33.7Z</time></trkpt><trkpt lat="42.9871075" lon="12.3682363"><ele>177.0</ele><time>2026-04-02T08:55:34.706Z</time></trkpt><trkpt lat="42.9870739" lon="12.3681536"><ele>177.0</ele><time>2026-04-02T08:55:35.7Z</time></trkpt><trkpt lat="42.9870218" lon="12.368103"><ele>177.0</ele><time>2026-04-02T08:55:36.701Z</time></trkpt><trkpt lat="42.9869443" lon="12.3680609"><ele>177.0</ele><time>2026-04-02T08:55:37.701Z</time></trkpt><trkpt lat="42.9868549" lon="12.3680237"><ele>177.0</ele><time>2026-04-02T08:55:38.7Z</time></trkpt><trkpt lat="42.9867554" lon="12.3679837"><ele>177.0</ele><time>2026-04-02T08:55:39.702Z</time></trkpt><trkpt lat="42.9866518" lon="12.3679345"><ele>177.25</ele><time>2026-04-02T08:55:40.702Z</time></trkpt><trkpt lat="42.986542" lon="12.3678854"><ele>177.5</ele><time>2026-04-02T08:55:41.702Z</time></trkpt><trkpt lat="42.986432" lon="12.367836"><ele>177.75</ele><time>2026-04-02T08:55:42.699Z</time></trkpt><trkpt lat="42.9863133" lon="12.3677531"><ele>178.0</ele><time>2026-04-02T08:55:43.702Z</time></trkpt><trkpt lat="42.9861893" lon="12.3676466"><ele>178.0</ele><time>2026-04-02T08:55:44.703Z</time></trkpt><trkpt lat="42.9860532" lon="12.3675581"><ele>178.0</ele><time>2026-04-02T08:55:45.7Z</time></trkpt><trkpt lat="42.9859151" lon="12.3674952"><ele>178.0</ele><time>2026-04-02T08:55:46.7Z</time></trkpt><trkpt lat="42.9857682" lon="12.3674572"><ele>178.0</ele><time>2026-04-02T08:55:47.701Z</time></trkpt><trkpt lat="42.9856155" lon="12.3674282"><ele>177.66666666666669</ele><time>2026-04-02T08:55:48.703Z</time></trkpt><trkpt lat="42.9854612" lon="12.3674028"><ele>177.33333333333334</ele><time>2026-04-02T08:55:49.703Z</time></trkpt><trkpt lat="42.9853072" lon="12.3673782"><ele>177.0</ele><time>2026-04-02T08:55:50.703Z</time></trkpt><trkpt lat="42.985165" lon="12.3673502"><ele>177.0</ele><time>2026-04-02T08:55:51.699Z</time></trkpt><trkpt lat="42.9850297" lon="12.3673163"><ele>177.0</ele><time>2026-04-02T08:55:52.702Z</time></trkpt><trkpt lat="42.9849036" lon="12.3672708"><ele>177.0</ele><time>2026-04-02T08:55:53.7Z</time></trkpt><trkpt lat="42.9847825" lon="12.3671901"><ele>177.0</ele><time>2026-04-02T08:55:54.702Z</time></trkpt><trkpt lat="42.9846573" lon="12.3670559"><ele>177.66666666666666</ele><time>2026-04-02T08:55:55.698Z</time></trkpt><trkpt lat="42.9845247" lon="12.3668849"><ele>178.33333333333331</ele><time>2026-04-02T08:55:56.701Z</time></trkpt><trkpt lat="42.9843804" lon="12.3667071"><ele>179.0</ele><time>2026-04-02T08:55:57.7Z</time></trkpt><trkpt lat="42.9842469" lon="12.3665442"><ele>179.0</ele><time>2026-04-02T08:55:58.704Z</time></trkpt><trkpt lat="42.984133" lon="12.3664019"><ele>179.0</ele><time>2026-04-02T08:55:59.701Z</time></trkpt><trkpt lat="42.9840344" lon="12.3662907"><ele>179.0</ele><time>2026-04-02T08:56:00.702Z</time></trkpt><trkpt lat="42.9839364" lon="12.3661978"><ele>179.0</ele><time>2026-04-02T08:56:01.708Z</time></trkpt><trkpt lat="42.9838293" lon="12.3661178"><ele>179.0</ele><time>2026-04-02T08:56:02.702Z</time></trkpt><trkpt lat="42.9837036" lon="12.3660506"><ele>179.0</ele><time>2026-04-02T08:56:03.701Z</time></trkpt><trkpt lat="42.9835661" lon="12.3660058"><ele>179.0</ele><time>2026-04-02T08:56:04.701Z</time></trkpt><trkpt lat="42.9834266" lon="12.3659746"><ele>179.0</ele><time>2026-04-02T08:56:05.701Z</time></trkpt><trkpt lat="42.9832719" lon="12.3659471"><ele>179.0</ele><time>2026-04-02T08:56:06.704Z</time></trkpt><trkpt lat="42.9831172" lon="12.3659284"><ele>179.0</ele><time>2026-04-02T08:56:07.71Z</time></trkpt><trkpt lat="42.9829645" lon="12.3659132"><ele>179.0</ele><time>2026-04-02T08:56:08.704Z</time></trkpt><trkpt lat="42.9828195" lon="12.3658963"><ele>179.0</ele><time>2026-04-02T08:56:09.702Z</time></trkpt><trkpt lat="42.9826918" lon="12.3658767"><ele>179.0</ele><time>2026-04-02T08:56:10.701Z</time></trkpt><trkpt lat="42.9825629" lon="12.3658562"><ele>179.0</ele><time>2026-04-02T08:56:11.701Z</time></trkpt><trkpt lat="42.9824442" lon="12.365832"><ele>179.0</ele><time>2026-04-02T08:56:12.701Z</time></trkpt><trkpt lat="42.9823216" lon="12.3658157"><ele>179.25</ele><time>2026-04-02T08:56:13.7Z</time></trkpt><trkpt lat="42.982208" lon="12.3657896"><ele>179.5</ele><time>2026-04-02T08:56:14.7Z</time></trkpt><trkpt lat="42.9820831" lon="12.3657299"><ele>179.75</ele><time>2026-04-02T08:56:15.718Z</time></trkpt><trkpt lat="42.9819607" lon="12.3656417"><ele>180.0</ele><time>2026-04-02T08:56:16.7Z</time></trkpt><trkpt lat="42.9818298" lon="12.3655399"><ele>180.5</ele><time>2026-04-02T08:56:17.705Z</time></trkpt><trkpt lat="42.9817013" lon="12.3654357"><ele>181.0</ele><time>2026-04-02T08:56:18.701Z</time></trkpt><trkpt lat="42.9815682" lon="12.3653479"><ele>181.5</ele><time>2026-04-02T08:56:19.703Z</time></trkpt><trkpt lat="42.9814339" lon="12.3652911"><ele>182.0</ele><time>2026-04-02T08:56:20.697Z</time></trkpt><trkpt lat="42.9812886" lon="12.3652484"><ele>181.0</ele><time>2026-04-02T08:56:21.701Z</time></trkpt><trkpt lat="42.9811461" lon="12.3652198"><ele>180.0</ele><time>2026-04-02T08:56:22.698Z</time></trkpt><trkpt lat="42.9810156" lon="12.3651937"><ele>179.0</ele><time>2026-04-02T08:56:23.703Z</time></trkpt><trkpt lat="42.9808976" lon="12.3651715"><ele>178.0</ele><time>2026-04-02T08:56:24.7Z</time></trkpt><trkpt lat="42.9807831" lon="12.3651449"><ele>178.0</ele><time>2026-04-02T08:56:25.703Z</time></trkpt><trkpt lat="42.9806599" lon="12.3651098"><ele>178.0</ele><time>2026-04-02T08:56:26.701Z</time></trkpt><trkpt lat="42.9805362" lon="12.3650674"><ele>178.0</ele><time>2026-04-02T08:56:27.704Z</time></trkpt><trkpt lat="42.9804031" lon="12.3650248"><ele>178.0</ele><time>2026-04-02T08:56:28.699Z</time></trkpt><trkpt lat="42.9802669" lon="12.3649658"><ele>178.0</ele><time>2026-04-02T08:56:29.702Z</time></trkpt><trkpt lat="42.9801253" lon="12.364905"><ele>178.0</ele><time>2026-04-02T08:56:30.7Z</time></trkpt><trkpt lat="42.9799818" lon="12.3648519"><ele>178.0</ele><time>2026-04-02T08:56:31.702Z</time></trkpt><trkpt lat="42.9798192" lon="12.3647963"><ele>178.0</ele><time>2026-04-02T08:56:32.702Z</time></trkpt><trkpt lat="42.9796553" lon="12.3647384"><ele>178.0</ele><time>2026-04-02T08:56:33.697Z</time></trkpt><trkpt lat="42.9794955" lon="12.364701"><ele>178.0</ele><time>2026-04-02T08:56:34.703Z</time></trkpt><trkpt lat="42.9793489" lon="12.3646647"><ele>178.5</ele><time>2026-04-02T08:56:35.7Z</time></trkpt><trkpt lat="42.9792227" lon="12.3646433"><ele>179.0</ele><time>2026-04-02T08:56:36.702Z</time></trkpt><trkpt lat="42.9791093" lon="12.3646163"><ele>179.5</ele><time>2026-04-02T08:56:37.701Z</time></trkpt><trkpt lat="42.9790082" lon="12.364594"><ele>180.0</ele><time>2026-04-02T08:56:38.703Z</time></trkpt><trkpt lat="42.9789003" lon="12.3645761"><ele>180.16666666666666</ele><time>2026-04-02T08:56:40.703Z</time></trkpt><trkpt lat="42.9788371" lon="12.3645915"><ele>180.33333333333334</ele><time>2026-04-02T08:56:42.703Z</time></trkpt><trkpt lat="42.9788198" lon="12.3646769"><ele>180.5</ele><time>2026-04-02T08:56:44.702Z</time></trkpt><trkpt lat="42.9788224" lon="12.3648411"><ele>180.66666666666669</ele><time>2026-04-02T08:56:46.701Z</time></trkpt><trkpt lat="42.9788199" lon="12.3649405"><ele>180.83333333333334</ele><time>2026-04-02T08:56:47.699Z</time></trkpt><trkpt lat="42.9788204" lon="12.3650524"><ele>181.0</ele><time>2026-04-02T08:56:48.7Z</time></trkpt><trkpt lat="42.9788217" lon="12.3651747"><ele>180.20000000000002</ele><time>2026-04-02T08:56:49.704Z</time></trkpt><trkpt lat="42.9788214" lon="12.3653085"><ele>179.4</ele><time>2026-04-02T08:56:50.708Z</time></trkpt><trkpt lat="42.9788246" lon="12.365446"><ele>178.6</ele><time>2026-04-02T08:56:51.707Z</time></trkpt><trkpt lat="42.9788271" lon="12.3655866"><ele>177.8</ele><time>2026-04-02T08:56:52.7Z</time></trkpt><trkpt lat="42.9788438" lon="12.3657231"><ele>177.0</ele><time>2026-04-02T08:56:53.702Z</time></trkpt><trkpt lat="42.9788625" lon="12.3658555"><ele>176.8</ele><time>2026-04-02T08:56:54.701Z</time></trkpt><trkpt lat="42.9788858" lon="12.3659999"><ele>176.6</ele><time>2026-04-02T08:56:55.704Z</time></trkpt><trkpt lat="42.9789143" lon="12.3661528"><ele>176.4</ele><time>2026-04-02T08:56:56.701Z</time></trkpt><trkpt lat="42.9789337" lon="12.3662957"><ele>176.20000000000002</ele><time>2026-04-02T08:56:57.704Z</time></trkpt><trkpt lat="42.9789409" lon="12.3664354"><ele>176.0</ele><time>2026-04-02T08:56:58.704Z</time></trkpt><trkpt lat="42.9789352" lon="12.3665848"><ele>176.5</ele><time>2026-04-02T08:56:59.704Z</time></trkpt><trkpt lat="42.9789286" lon="12.3667371"><ele>177.0</ele><time>2026-04-02T08:57:00.712Z</time></trkpt><trkpt lat="42.9789139" lon="12.3668977"><ele>177.5</ele><time>2026-04-02T08:57:01.702Z</time></trkpt><trkpt lat="42.9788913" lon="12.3670746"><ele>178.0</ele><time>2026-04-02T08:57:02.699Z</time></trkpt><trkpt lat="42.9788682" lon="12.3672381"><ele>178.0</ele><time>2026-04-02T08:57:03.706Z</time></trkpt><trkpt lat="42.9788437" lon="12.3673908"><ele>178.0</ele><time>2026-04-02T08:57:04.704Z</time></trkpt><trkpt lat="42.978816" lon="12.3675454"><ele>178.0</ele><time>2026-04-02T08:57:05.701Z</time></trkpt><trkpt lat="42.9787946" lon="12.3676936"><ele>178.0</ele><time>2026-04-02T08:57:06.699Z</time></trkpt><trkpt lat="42.9787847" lon="12.3678454"><ele>178.0</ele><time>2026-04-02T08:57:07.703Z</time></trkpt><trkpt lat="42.978784" lon="12.3680079"><ele>178.0</ele><time>2026-04-02T08:57:08.707Z</time></trkpt><trkpt lat="42.9787878" lon="12.3681829"><ele>178.0</ele><time>2026-04-02T08:57:09.704Z</time></trkpt><trkpt lat="42.978799" lon="12.3683723"><ele>178.0</ele><time>2026-04-02T08:57:10.699Z</time></trkpt><trkpt lat="42.9788033" lon="12.3685716"><ele>177.5</ele><time>2026-04-02T08:57:11.7Z</time></trkpt><trkpt lat="42.9788084" lon="12.3687726"><ele>177.0</ele><time>2026-04-02T08:57:12.705Z</time></trkpt><trkpt lat="42.9788129" lon="12.3689581"><ele>176.5</ele><time>2026-04-02T08:57:13.704Z</time></trkpt><trkpt lat="42.9788227" lon="12.3691203"><ele>176.0</ele><time>2026-04-02T08:57:14.701Z</time></trkpt><trkpt lat="42.9788328" lon="12.3692684"><ele>175.75</ele><time>2026-04-02T08:57:15.701Z</time></trkpt><trkpt lat="42.9788431" lon="12.3694241"><ele>175.5</ele><time>2026-04-02T08:57:16.709Z</time></trkpt><trkpt lat="42.9788696" lon="12.369579"><ele>175.25</ele><time>2026-04-02T08:57:17.698Z</time></trkpt><trkpt lat="42.9789004" lon="12.3697459"><ele>175.0</ele><time>2026-04-02T08:57:18.703Z</time></trkpt><trkpt lat="42.9789276" lon="12.3699291"><ele>175.0</ele><time>2026-04-02T08:57:19.7Z</time></trkpt><trkpt lat="42.9789437" lon="12.3701227"><ele>175.0</ele><time>2026-04-02T08:57:20.701Z</time></trkpt><trkpt lat="42.9789478" lon="12.3702952"><ele>175.0</ele><time>2026-04-02T08:57:21.703Z</time></trkpt><trkpt lat="42.9789492" lon="12.3704466"><ele>175.0</ele><time>2026-04-02T08:57:22.706Z</time></trkpt><trkpt lat="42.9789474" lon="12.370585"><ele>175.0</ele><time>2026-04-02T08:57:23.702Z</time></trkpt><trkpt lat="42.9789449" lon="12.3707101"><ele>175.0</ele><time>2026-04-02T08:57:24.702Z</time></trkpt><trkpt lat="42.9789408" lon="12.3708222"><ele>175.0</ele><time>2026-04-02T08:57:25.701Z</time></trkpt><trkpt lat="42.9789518" lon="12.3709424"><ele>175.0</ele><time>2026-04-02T08:57:26.702Z</time></trkpt><trkpt lat="42.9789709" lon="12.3710661"><ele>175.0</ele><time>2026-04-02T08:57:27.699Z</time></trkpt><trkpt lat="42.9789989" lon="12.3711887"><ele>175.0</ele><time>2026-04-02T08:57:28.703Z</time></trkpt><trkpt lat="42.9790264" lon="12.3713123"><ele>174.8</ele><time>2026-04-02T08:57:29.7Z</time></trkpt><trkpt lat="42.979049" lon="12.3714464"><ele>174.6</ele><time>2026-04-02T08:57:30.7Z</time></trkpt><trkpt lat="42.9790771" lon="12.3715663"><ele>174.39999999999998</ele><time>2026-04-02T08:57:31.7Z</time></trkpt><trkpt lat="42.9791079" lon="12.3716867"><ele>174.2</ele><time>2026-04-02T08:57:32.7Z</time></trkpt><trkpt lat="42.9791501" lon="12.3718122"><ele>174.0</ele><time>2026-04-02T08:57:33.701Z</time></trkpt><trkpt lat="42.9791949" lon="12.3719436"><ele>173.5</ele><time>2026-04-02T08:57:34.704Z</time></trkpt><trkpt lat="42.9792408" lon="12.3720894"><ele>173.0</ele><time>2026-04-02T08:57:35.703Z</time></trkpt><trkpt lat="42.9792882" lon="12.3722333"><ele>172.5</ele><time>2026-04-02T08:57:36.7Z</time></trkpt><trkpt lat="42.9793303" lon="12.3723757"><ele>172.0</ele><time>2026-04-02T08:57:37.7Z</time></trkpt><trkpt lat="42.9793669" lon="12.3725238"><ele>172.0</ele><time>2026-04-02T08:57:38.7Z</time></trkpt><trkpt lat="42.9793834" lon="12.3726728"><ele>172.0</ele><time>2026-04-02T08:57:39.705Z</time></trkpt><trkpt lat="42.979392" lon="12.3728394"><ele>172.0</ele><time>2026-04-02T08:57:40.706Z</time></trkpt><trkpt lat="42.9793743" lon="12.3730112"><ele>172.0</ele><time>2026-04-02T08:57:41.7Z</time></trkpt><trkpt lat="42.9793507" lon="12.3732082"><ele>172.0</ele><time>2026-04-02T08:57:42.707Z</time></trkpt><trkpt lat="42.9793347" lon="12.3734028"><ele>172.0</ele><time>2026-04-02T08:57:43.707Z</time></trkpt><trkpt lat="42.9793114" lon="12.3736011"><ele>172.0</ele><time>2026-04-02T08:57:44.702Z</time></trkpt><trkpt lat="42.9792854" lon="12.3738137"><ele>172.0</ele><time>2026-04-02T08:57:45.706Z</time></trkpt><trkpt lat="42.9792502" lon="12.3740494"><ele>171.66666666666669</ele><time>2026-04-02T08:57:46.701Z</time></trkpt><trkpt lat="42.9792192" lon="12.3742838"><ele>171.33333333333334</ele><time>2026-04-02T08:57:47.701Z</time></trkpt><trkpt lat="42.9791878" lon="12.3744882"><ele>171.0</ele><time>2026-04-02T08:57:48.702Z</time></trkpt><trkpt lat="42.9791506" lon="12.3746742"><ele>170.66666666666666</ele><time>2026-04-02T08:57:49.705Z</time></trkpt><trkpt lat="42.9790982" lon="12.3748664"><ele>170.33333333333331</ele><time>2026-04-02T08:57:50.709Z</time></trkpt><trkpt lat="42.9790236" lon="12.3750672"><ele>170.0</ele><time>2026-04-02T08:57:51.701Z</time></trkpt><trkpt lat="42.978931" lon="12.3752829"><ele>170.0</ele><time>2026-04-02T08:57:52.701Z</time></trkpt><trkpt lat="42.9788299" lon="12.3755082"><ele>170.0</ele><time>2026-04-02T08:57:53.703Z</time></trkpt><trkpt lat="42.9787403" lon="12.3757047"><ele>170.0</ele><time>2026-04-02T08:57:54.701Z</time></trkpt><trkpt lat="42.9786666" lon="12.3758739"><ele>170.0</ele><time>2026-04-02T08:57:55.704Z</time></trkpt><trkpt lat="42.9785984" lon="12.3760342"><ele>170.0</ele><time>2026-04-02T08:57:56.7Z</time></trkpt><trkpt lat="42.978548" lon="12.376196"><ele>170.0</ele><time>2026-04-02T08:57:57.702Z</time></trkpt><trkpt lat="42.9785044" lon="12.3763607"><ele>170.0</ele><time>2026-04-02T08:57:58.7Z</time></trkpt><trkpt lat="42.9784685" lon="12.3765376"><ele>170.0</ele><time>2026-04-02T08:57:59.7Z</time></trkpt><trkpt lat="42.9784519" lon="12.3767115"><ele>170.0</ele><time>2026-04-02T08:58:00.703Z</time></trkpt><trkpt lat="42.9784303" lon="12.3768864"><ele>170.0</ele><time>2026-04-02T08:58:01.698Z</time></trkpt><trkpt lat="42.9784089" lon="12.3770367"><ele>170.0</ele><time>2026-04-02T08:58:02.705Z</time></trkpt><trkpt lat="42.9784004" lon="12.3771679"><ele>170.16666666666666</ele><time>2026-04-02T08:58:03.7Z</time></trkpt><trkpt lat="42.978388" lon="12.3772747"><ele>170.33333333333331</ele><time>2026-04-02T08:58:04.705Z</time></trkpt><trkpt lat="42.9783565" lon="12.3774183"><ele>170.5</ele><time>2026-04-02T08:58:06.702Z</time></trkpt><trkpt lat="42.978291" lon="12.3775017"><ele>170.66666666666666</ele><time>2026-04-02T08:58:08.704Z</time></trkpt><trkpt lat="42.9782272" lon="12.3775203"><ele>170.83333333333334</ele><time>2026-04-02T08:58:09.704Z</time></trkpt><trkpt lat="42.9781595" lon="12.3775355"><ele>171.0</ele><time>2026-04-02T08:58:10.7Z</time></trkpt><trkpt lat="42.9780818" lon="12.3775504"><ele>171.0</ele><time>2026-04-02T08:58:11.7Z</time></trkpt><trkpt lat="42.9780061" lon="12.3775717"><ele>171.0</ele><time>2026-04-02T08:58:12.699Z</time></trkpt><trkpt lat="42.9779311" lon="12.3775761"><ele>171.0</ele><time>2026-04-02T08:58:13.704Z</time></trkpt><trkpt lat="42.9778646" lon="12.3775851"><ele>171.0</ele><time>2026-04-02T08:58:14.704Z</time></trkpt><trkpt lat="42.9777712" lon="12.3776662"><ele>171.0</ele><time>2026-04-02T08:58:16.704Z</time></trkpt><trkpt lat="42.9777394" lon="12.377765"><ele>171.0</ele><time>2026-04-02T08:58:17.696Z</time></trkpt><trkpt lat="42.9777162" lon="12.3778913"><ele>170.8</ele><time>2026-04-02T08:58:18.701Z</time></trkpt><trkpt lat="42.9777126" lon="12.3780302"><ele>170.60000000000002</ele><time>2026-04-02T08:58:19.701Z</time></trkpt><trkpt lat="42.9777017" lon="12.3781806"><ele>170.4</ele><time>2026-04-02T08:58:20.702Z</time></trkpt><trkpt lat="42.9776776" lon="12.3783324"><ele>170.2</ele><time>2026-04-02T08:58:21.701Z</time></trkpt><trkpt lat="42.977654" lon="12.3784893"><ele>170.0</ele><time>2026-04-02T08:58:22.702Z</time></trkpt><trkpt lat="42.9776335" lon="12.3786451"><ele>170.0</ele><time>2026-04-02T08:58:23.703Z</time></trkpt><trkpt lat="42.9776056" lon="12.3788013"><ele>170.0</ele><time>2026-04-02T08:58:24.707Z</time></trkpt><trkpt lat="42.9775743" lon="12.378958"><ele>170.0</ele><time>2026-04-02T08:58:25.705Z</time></trkpt><trkpt lat="42.9775515" lon="12.3791085"><ele>170.0</ele><time>2026-04-02T08:58:26.703Z</time></trkpt><trkpt lat="42.977527" lon="12.3792439"><ele>169.6</ele><time>2026-04-02T08:58:27.7Z</time></trkpt><trkpt lat="42.9775031" lon="12.3793865"><ele>169.2</ele><time>2026-04-02T08:58:28.704Z</time></trkpt><trkpt lat="42.9774712" lon="12.3795284"><ele>168.8</ele><time>2026-04-02T08:58:29.703Z</time></trkpt><trkpt lat="42.9774339" lon="12.379663"><ele>168.4</ele><time>2026-04-02T08:58:30.7Z</time></trkpt><trkpt lat="42.9773925" lon="12.3798077"><ele>168.0</ele><time>2026-04-02T08:58:31.7Z</time></trkpt><trkpt lat="42.9773334" lon="12.3799557"><ele>167.75</ele><time>2026-04-02T08:58:32.701Z</time></trkpt><trkpt lat="42.9772546" lon="12.3800937"><ele>167.5</ele><time>2026-04-02T08:58:33.703Z</time></trkpt><trkpt lat="42.9771801" lon="12.3802096"><ele>167.25</ele><time>2026-04-02T08:58:34.703Z</time></trkpt><trkpt lat="42.9771123" lon="12.380343"><ele>167.0</ele><time>2026-04-02T08:58:35.702Z</time></trkpt><trkpt lat="42.9770563" lon="12.3804956"><ele>166.75</ele><time>2026-04-02T08:58:36.698Z</time></trkpt><trkpt lat="42.9770063" lon="12.3806596"><ele>166.5</ele><time>2026-04-02T08:58:37.7Z</time></trkpt><trkpt lat="42.9769576" lon="12.3808312"><ele>166.25</ele><time>2026-04-02T08:58:38.702Z</time></trkpt><trkpt lat="42.9769153" lon="12.380999"><ele>166.0</ele><time>2026-04-02T08:58:39.702Z</time></trkpt><trkpt lat="42.976867" lon="12.3811585"><ele>166.0</ele><time>2026-04-02T08:58:40.707Z</time></trkpt><trkpt lat="42.9768136" lon="12.3813083"><ele>166.0</ele><time>2026-04-02T08:58:41.697Z</time></trkpt><trkpt lat="42.9767646" lon="12.3814557"><ele>166.0</ele><time>2026-04-02T08:58:42.701Z</time></trkpt><trkpt lat="42.9767233" lon="12.3816157"><ele>166.0</ele><time>2026-04-02T08:58:43.7Z</time></trkpt><trkpt lat="42.9767134" lon="12.3818031"><ele>165.66666666666669</ele><time>2026-04-02T08:58:44.703Z</time></trkpt><trkpt lat="42.976709" lon="12.3820085"><ele>165.33333333333334</ele><time>2026-04-02T08:58:45.699Z</time></trkpt><trkpt lat="42.9766996" lon="12.3822357"><ele>165.0</ele><time>2026-04-02T08:58:46.699Z</time></trkpt><trkpt lat="42.9766916" lon="12.3824505"><ele>164.33333333333334</ele><time>2026-04-02T08:58:47.703Z</time></trkpt><trkpt lat="42.9766795" lon="12.3826637"><ele>163.66666666666669</ele><time>2026-04-02T08:58:48.705Z</time></trkpt><trkpt lat="42.9766673" lon="12.3828715"><ele>163.0</ele><time>2026-04-02T08:58:49.704Z</time></trkpt><trkpt lat="42.9766446" lon="12.3830827"><ele>163.0</ele><time>2026-04-02T08:58:50.7Z</time></trkpt><trkpt lat="42.9766159" lon="12.3832939"><ele>163.0</ele><time>2026-04-02T08:58:51.698Z</time></trkpt><trkpt lat="42.9765801" lon="12.3834797"><ele>163.0</ele><time>2026-04-02T08:58:52.702Z</time></trkpt><trkpt lat="42.9765494" lon="12.3836497"><ele>163.0</ele><time>2026-04-02T08:58:53.697Z</time></trkpt><trkpt lat="42.9764993" lon="12.3838147"><ele>163.0</ele><time>2026-04-02T08:58:54.697Z</time></trkpt><trkpt lat="42.9764286" lon="12.383976"><ele>163.0</ele><time>2026-04-02T08:58:55.702Z</time></trkpt><trkpt lat="42.9763491" lon="12.3841416"><ele>163.0</ele><time>2026-04-02T08:58:56.7Z</time></trkpt><trkpt lat="42.9762718" lon="12.3843202"><ele>163.0</ele><time>2026-04-02T08:58:57.698Z</time></trkpt><trkpt lat="42.9761953" lon="12.384498"><ele>163.0</ele><time>2026-04-02T08:58:58.7Z</time></trkpt><trkpt lat="42.9761134" lon="12.384679"><ele>163.0</ele><time>2026-04-02T08:58:59.705Z</time></trkpt><trkpt lat="42.9760271" lon="12.384862"><ele>163.0</ele><time>2026-04-02T08:59:00.703Z</time></trkpt><trkpt lat="42.9759506" lon="12.3850325"><ele>163.0</ele><time>2026-04-02T08:59:01.706Z</time></trkpt><trkpt lat="42.9758783" lon="12.3851864"><ele>163.0</ele><time>2026-04-02T08:59:02.7Z</time></trkpt><trkpt lat="42.9758115" lon="12.3853351"><ele>163.0</ele><time>2026-04-02T08:59:03.702Z</time></trkpt><trkpt lat="42.9757473" lon="12.3854686"><ele>163.0</ele><time>2026-04-02T08:59:04.7Z</time></trkpt><trkpt lat="42.9756817" lon="12.3856018"><ele>162.83333333333334</ele><time>2026-04-02T08:59:05.711Z</time></trkpt><trkpt lat="42.9756359" lon="12.3857075"><ele>162.66666666666669</ele><time>2026-04-02T08:59:06.707Z</time></trkpt><trkpt lat="42.9756056" lon="12.3857963"><ele>162.5</ele><time>2026-04-02T08:59:07.701Z</time></trkpt><trkpt lat="42.9755956" lon="12.385884"><ele>162.33333333333334</ele><time>2026-04-02T08:59:08.705Z</time></trkpt><trkpt lat="42.9755993" lon="12.3859704"><ele>162.16666666666666</ele><time>2026-04-02T08:59:09.7Z</time></trkpt><trkpt lat="42.9756632" lon="12.3861214"><ele>162.0</ele><time>2026-04-02T08:59:11.701Z</time></trkpt><trkpt lat="42.9757096" lon="12.3861803"><ele>162.0</ele><time>2026-04-02T08:59:12.701Z</time></trkpt><trkpt lat="42.9757632" lon="12.3862863"><ele>162.0</ele><time>2026-04-02T08:59:14.7Z</time></trkpt><trkpt lat="42.9757192" lon="12.3864167"><ele>162.0</ele><time>2026-04-02T08:59:16.704Z</time></trkpt><trkpt lat="42.9756572" lon="12.3864691"><ele>162.0</ele><time>2026-04-02T08:59:17.7Z</time></trkpt><trkpt lat="42.9755693" lon="12.3865264"><ele>162.0</ele><time>2026-04-02T08:59:18.703Z</time></trkpt><trkpt lat="42.9754778" lon="12.3866026"><ele>162.0</ele><time>2026-04-02T08:59:19.703Z</time></trkpt><trkpt lat="42.975378" lon="12.3867098"><ele>162.0</ele><time>2026-04-02T08:59:20.703Z</time></trkpt><trkpt lat="42.9752703" lon="12.3868097"><ele>162.0</ele><time>2026-04-02T08:59:21.701Z</time></trkpt><trkpt lat="42.9751473" lon="12.3869109"><ele>162.0</ele><time>2026-04-02T08:59:22.701Z</time></trkpt><trkpt lat="42.9750302" lon="12.3870037"><ele>161.75</ele><time>2026-04-02T08:59:23.705Z</time></trkpt><trkpt lat="42.9749211" lon="12.387091"><ele>161.5</ele><time>2026-04-02T08:59:24.704Z</time></trkpt><trkpt lat="42.9748093" lon="12.3871806"><ele>161.25</ele><time>2026-04-02T08:59:25.702Z</time></trkpt><trkpt lat="42.974691" lon="12.3872626"><ele>161.0</ele><time>2026-04-02T08:59:26.701Z</time></trkpt><trkpt lat="42.9745699" lon="12.3873376"><ele>161.5</ele><time>2026-04-02T08:59:27.7Z</time></trkpt><trkpt lat="42.9744383" lon="12.3873981"><ele>162.0</ele><time>2026-04-02T08:59:28.698Z</time></trkpt><trkpt lat="42.9743148" lon="12.3874469"><ele>162.5</ele><time>2026-04-02T08:59:29.706Z</time></trkpt><trkpt lat="42.9741962" lon="12.3874924"><ele>163.0</ele><time>2026-04-02T08:59:30.698Z</time></trkpt><trkpt lat="42.9740893" lon="12.3875351"><ele>163.0</ele><time>2026-04-02T08:59:31.704Z</time></trkpt><trkpt lat="42.9739784" lon="12.3875812"><ele>163.0</ele><time>2026-04-02T08:59:32.7Z</time></trkpt><trkpt lat="42.9738616" lon="12.3876265"><ele>163.0</ele><time>2026-04-02T08:59:33.701Z</time></trkpt><trkpt lat="42.9737427" lon="12.387671"><ele>163.0</ele><time>2026-04-02T08:59:34.701Z</time></trkpt><trkpt lat="42.9736199" lon="12.3877063"><ele>163.0</ele><time>2026-04-02T08:59:35.701Z</time></trkpt><trkpt lat="42.9735008" lon="12.387741"><ele>163.0</ele><time>2026-04-02T08:59:36.701Z</time></trkpt><trkpt lat="42.9733876" lon="12.3877864"><ele>163.0</ele><time>2026-04-02T08:59:37.704Z</time></trkpt><trkpt lat="42.9732722" lon="12.38783"><ele>163.0</ele><time>2026-04-02T08:59:38.699Z</time></trkpt><trkpt lat="42.9731507" lon="12.38788"><ele>163.0</ele><time>2026-04-02T08:59:39.703Z</time></trkpt><trkpt lat="42.9730253" lon="12.3879299"><ele>163.0</ele><time>2026-04-02T08:59:40.701Z</time></trkpt><trkpt lat="42.9729048" lon="12.3879737"><ele>163.0</ele><time>2026-04-02T08:59:41.706Z</time></trkpt><trkpt lat="42.9727783" lon="12.3880291"><ele>163.0</ele><time>2026-04-02T08:59:42.705Z</time></trkpt><trkpt lat="42.9726485" lon="12.388083"><ele>162.5</ele><time>2026-04-02T08:59:43.698Z</time></trkpt><trkpt lat="42.9725162" lon="12.3881374"><ele>162.0</ele><time>2026-04-02T08:59:44.7Z</time></trkpt><trkpt lat="42.9723785" lon="12.3881912"><ele>161.5</ele><time>2026-04-02T08:59:45.699Z</time></trkpt><trkpt lat="42.9722428" lon="12.3882397"><ele>161.0</ele><time>2026-04-02T08:59:46.699Z</time></trkpt><trkpt lat="42.9721155" lon="12.388284"><ele>161.0</ele><time>2026-04-02T08:59:47.702Z</time></trkpt><trkpt lat="42.9719885" lon="12.3883292"><ele>161.0</ele><time>2026-04-02T08:59:48.699Z</time></trkpt><trkpt lat="42.9718612" lon="12.3883763"><ele>161.0</ele><time>2026-04-02T08:59:49.707Z</time></trkpt><trkpt lat="42.9717309" lon="12.3884287"><ele>161.0</ele><time>2026-04-02T08:59:50.702Z</time></trkpt><trkpt lat="42.9716012" lon="12.3884832"><ele>161.0</ele><time>2026-04-02T08:59:51.701Z</time></trkpt><trkpt lat="42.9714704" lon="12.3885399"><ele>161.0</ele><time>2026-04-02T08:59:52.696Z</time></trkpt><trkpt lat="42.9713453" lon="12.3885966"><ele>161.0</ele><time>2026-04-02T08:59:53.7Z</time></trkpt><trkpt lat="42.9712169" lon="12.3886523"><ele>161.0</ele><time>2026-04-02T08:59:54.7Z</time></trkpt><trkpt lat="42.9710841" lon="12.3887011"><ele>161.0</ele><time>2026-04-02T08:59:55.699Z</time></trkpt><trkpt lat="42.9709559" lon="12.3887441"><ele>161.0</ele><time>2026-04-02T08:59:56.702Z</time></trkpt><trkpt lat="42.9708262" lon="12.3887959"><ele>161.0</ele><time>2026-04-02T08:59:57.703Z</time></trkpt><trkpt lat="42.970697" lon="12.3888466"><ele>161.0</ele><time>2026-04-02T08:59:58.7Z</time></trkpt><trkpt lat="42.9705631" lon="12.3889003"><ele>161.5</ele><time>2026-04-02T08:59:59.703Z</time></trkpt><trkpt lat="42.9704356" lon="12.3889605"><ele>162.0</ele><time>2026-04-02T09:00:00.711Z</time></trkpt><trkpt lat="42.9703032" lon="12.3890094"><ele>162.5</ele><time>2026-04-02T09:00:01.7Z</time></trkpt><trkpt lat="42.9701693" lon="12.3890591"><ele>163.0</ele><time>2026-04-02T09:00:02.702Z</time></trkpt><trkpt lat="42.9700347" lon="12.3891147"><ele>162.5</ele><time>2026-04-02T09:00:03.708Z</time></trkpt><trkpt lat="42.9699011" lon="12.3891686"><ele>162.0</ele><time>2026-04-02T09:00:04.701Z</time></trkpt><trkpt lat="42.9697659" lon="12.3892217"><ele>161.5</ele><time>2026-04-02T09:00:05.701Z</time></trkpt><trkpt lat="42.9696283" lon="12.3892768"><ele>161.0</ele><time>2026-04-02T09:00:06.712Z</time></trkpt><trkpt lat="42.969489" lon="12.3893232"><ele>161.0</ele><time>2026-04-02T09:00:07.698Z</time></trkpt><trkpt lat="42.9693551" lon="12.3893728"><ele>161.0</ele><time>2026-04-02T09:00:08.701Z</time></trkpt><trkpt lat="42.9692217" lon="12.3894228"><ele>161.0</ele><time>2026-04-02T09:00:09.707Z</time></trkpt><trkpt lat="42.969094" lon="12.3894791"><ele>161.0</ele><time>2026-04-02T09:00:10.701Z</time></trkpt><trkpt lat="42.9689662" lon="12.3895316"><ele>161.0</ele><time>2026-04-02T09:00:11.7Z</time></trkpt><trkpt lat="42.9688359" lon="12.389582"><ele>161.0</ele><time>2026-04-02T09:00:12.707Z</time></trkpt><trkpt lat="42.968713" lon="12.3896349"><ele>161.0</ele><time>2026-04-02T09:00:13.703Z</time></trkpt><trkpt lat="42.9685831" lon="12.3896867"><ele>161.0</ele><time>2026-04-02T09:00:14.706Z</time></trkpt><trkpt lat="42.9684618" lon="12.3897375"><ele>160.75</ele><time>2026-04-02T09:00:15.701Z</time></trkpt><trkpt lat="42.9683435" lon="12.3897776"><ele>160.5</ele><time>2026-04-02T09:00:16.713Z</time></trkpt><trkpt lat="42.9682222" lon="12.3898207"><ele>160.25</ele><time>2026-04-02T09:00:17.701Z</time></trkpt><trkpt lat="42.9681002" lon="12.3898708"><ele>160.0</ele><time>2026-04-02T09:00:18.706Z</time></trkpt><trkpt lat="42.9679767" lon="12.3899181"><ele>160.0</ele><time>2026-04-02T09:00:19.701Z</time></trkpt><trkpt lat="42.9678548" lon="12.3899744"><ele>160.0</ele><time>2026-04-02T09:00:20.701Z</time></trkpt><trkpt lat="42.9677369" lon="12.390026"><ele>160.0</ele><time>2026-04-02T09:00:21.705Z</time></trkpt><trkpt lat="42.9676185" lon="12.3900626"><ele>160.0</ele><time>2026-04-02T09:00:22.707Z</time></trkpt><trkpt lat="42.9674984" lon="12.3901077"><ele>160.5</ele><time>2026-04-02T09:00:23.708Z</time></trkpt><trkpt lat="42.9673812" lon="12.390157"><ele>161.0</ele><time>2026-04-02T09:00:24.704Z</time></trkpt><trkpt lat="42.9672658" lon="12.3902057"><ele>161.5</ele><time>2026-04-02T09:00:25.699Z</time></trkpt><trkpt lat="42.9671497" lon="12.3902554"><ele>162.0</ele><time>2026-04-02T09:00:26.705Z</time></trkpt><trkpt lat="42.9670283" lon="12.3902995"><ele>162.0</ele><time>2026-04-02T09:00:27.711Z</time></trkpt><trkpt lat="42.9669025" lon="12.3903487"><ele>162.0</ele><time>2026-04-02T09:00:28.703Z</time></trkpt><trkpt lat="42.966775" lon="12.3903968"><ele>162.0</ele><time>2026-04-02T09:00:29.699Z</time></trkpt><trkpt lat="42.9666434" lon="12.3904419"><ele>162.0</ele><time>2026-04-02T09:00:30.705Z</time></trkpt><trkpt lat="42.9665115" lon="12.3904953"><ele>161.75</ele><time>2026-04-02T09:00:31.703Z</time></trkpt><trkpt lat="42.9663823" lon="12.3905444"><ele>161.5</ele><time>2026-04-02T09:00:32.701Z</time></trkpt><trkpt lat="42.9662587" lon="12.3905987"><ele>161.25</ele><time>2026-04-02T09:00:33.702Z</time></trkpt><trkpt lat="42.9661416" lon="12.3906483"><ele>161.0</ele><time>2026-04-02T09:00:34.706Z</time></trkpt><trkpt lat="42.9660389" lon="12.3906947"><ele>161.0</ele><time>2026-04-02T09:00:35.701Z</time></trkpt><trkpt lat="42.9659351" lon="12.3907246"><ele>161.0</ele><time>2026-04-02T09:00:36.707Z</time></trkpt><trkpt lat="42.9658281" lon="12.3907598"><ele>161.0</ele><time>2026-04-02T09:00:37.706Z</time></trkpt><trkpt lat="42.965717" lon="12.3907986"><ele>161.0</ele><time>2026-04-02T09:00:38.699Z</time></trkpt><trkpt lat="42.9656038" lon="12.3908408"><ele>161.0</ele><time>2026-04-02T09:00:39.696Z</time></trkpt><trkpt lat="42.9654952" lon="12.3908853"><ele>161.25</ele><time>2026-04-02T09:00:40.705Z</time></trkpt><trkpt lat="42.9653884" lon="12.390931"><ele>161.5</ele><time>2026-04-02T09:00:41.699Z</time></trkpt><trkpt lat="42.9652762" lon="12.3909698"><ele>161.75</ele><time>2026-04-02T09:00:42.701Z</time></trkpt><trkpt lat="42.9651637" lon="12.3910126"><ele>162.0</ele><time>2026-04-02T09:00:43.702Z</time></trkpt><trkpt lat="42.9650515" lon="12.3910563"><ele>162.0</ele><time>2026-04-02T09:00:44.702Z</time></trkpt><trkpt lat="42.9649358" lon="12.3911007"><ele>162.0</ele><time>2026-04-02T09:00:45.701Z</time></trkpt><trkpt lat="42.9648273" lon="12.3911431"><ele>162.0</ele><time>2026-04-02T09:00:46.705Z</time></trkpt><trkpt lat="42.9647226" lon="12.3911814"><ele>162.0</ele><time>2026-04-02T09:00:47.698Z</time></trkpt><trkpt lat="42.9646199" lon="12.3912253"><ele>162.0</ele><time>2026-04-02T09:00:48.705Z</time></trkpt><trkpt lat="42.964513" lon="12.3912711"><ele>162.0</ele><time>2026-04-02T09:00:49.704Z</time></trkpt><trkpt lat="42.9644063" lon="12.3913281"><ele>162.0</ele><time>2026-04-02T09:00:50.702Z</time></trkpt><trkpt lat="42.9642946" lon="12.3913686"><ele>162.0</ele><time>2026-04-02T09:00:51.703Z</time></trkpt><trkpt lat="42.9641856" lon="12.3914013"><ele>162.0</ele><time>2026-04-02T09:00:52.698Z</time></trkpt><trkpt lat="42.9640727" lon="12.3914352"><ele>161.0</ele><time>2026-04-02T09:00:53.703Z</time></trkpt><trkpt lat="42.9639609" lon="12.3914787"><ele>160.0</ele><time>2026-04-02T09:00:54.702Z</time></trkpt><trkpt lat="42.9638456" lon="12.3915233"><ele>159.0</ele><time>2026-04-02T09:00:55.703Z</time></trkpt><trkpt lat="42.9637325" lon="12.3915697"><ele>158.0</ele><time>2026-04-02T09:00:56.701Z</time></trkpt><trkpt lat="42.9636163" lon="12.391622"><ele>158.0</ele><time>2026-04-02T09:00:57.702Z</time></trkpt><trkpt lat="42.9634964" lon="12.3916687"><ele>158.0</ele><time>2026-04-02T09:00:58.701Z</time></trkpt><trkpt lat="42.9633738" lon="12.3917208"><ele>158.0</ele><time>2026-04-02T09:00:59.7Z</time></trkpt><trkpt lat="42.963246" lon="12.391772"><ele>158.0</ele><time>2026-04-02T09:01:00.709Z</time></trkpt><trkpt lat="42.963115" lon="12.3918243"><ele>158.25</ele><time>2026-04-02T09:01:01.699Z</time></trkpt><trkpt lat="42.9629836" lon="12.3918749"><ele>158.5</ele><time>2026-04-02T09:01:02.702Z</time></trkpt><trkpt lat="42.9628508" lon="12.3919281"><ele>158.75</ele><time>2026-04-02T09:01:03.696Z</time></trkpt><trkpt lat="42.9627169" lon="12.3919845"><ele>159.0</ele><time>2026-04-02T09:01:04.706Z</time></trkpt><trkpt lat="42.9625838" lon="12.3920357"><ele>159.25</ele><time>2026-04-02T09:01:05.701Z</time></trkpt><trkpt lat="42.9624503" lon="12.3920927"><ele>159.5</ele><time>2026-04-02T09:01:06.704Z</time></trkpt><trkpt lat="42.9623151" lon="12.392144"><ele>159.75</ele><time>2026-04-02T09:01:07.705Z</time></trkpt><trkpt lat="42.9621912" lon="12.392195"><ele>160.0</ele><time>2026-04-02T09:01:08.703Z</time></trkpt><trkpt lat="42.9620695" lon="12.3922392"><ele>160.0</ele><time>2026-04-02T09:01:09.703Z</time></trkpt><trkpt lat="42.961944" lon="12.3922882"><ele>160.0</ele><time>2026-04-02T09:01:10.697Z</time></trkpt><trkpt lat="42.9618212" lon="12.3923401"><ele>160.0</ele><time>2026-04-02T09:01:11.703Z</time></trkpt><trkpt lat="42.9616967" lon="12.3923905"><ele>160.0</ele><time>2026-04-02T09:01:12.702Z</time></trkpt><trkpt lat="42.9615697" lon="12.3924355"><ele>160.25</ele><time>2026-04-02T09:01:13.7Z</time></trkpt><trkpt lat="42.9614451" lon="12.3924938"><ele>160.5</ele><time>2026-04-02T09:01:14.7Z</time></trkpt><trkpt lat="42.9613176" lon="12.3925383"><ele>160.75</ele><time>2026-04-02T09:01:15.702Z</time></trkpt><trkpt lat="42.9611905" lon="12.3925845"><ele>161.0</ele><time>2026-04-02T09:01:16.704Z</time></trkpt><trkpt lat="42.9610577" lon="12.3926361"><ele>161.0</ele><time>2026-04-02T09:01:17.702Z</time></trkpt><trkpt lat="42.9609256" lon="12.3926914"><ele>161.0</ele><time>2026-04-02T09:01:18.703Z</time></trkpt><trkpt lat="42.9607945" lon="12.3927486"><ele>161.0</ele><time>2026-04-02T09:01:19.7Z</time></trkpt><trkpt lat="42.9606618" lon="12.392798"><ele>161.0</ele><time>2026-04-02T09:01:20.701Z</time></trkpt><trkpt lat="42.9605267" lon="12.3928475"><ele>160.75</ele><time>2026-04-02T09:01:21.703Z</time></trkpt><trkpt lat="42.9603863" lon="12.3929022"><ele>160.5</ele><time>2026-04-02T09:01:22.701Z</time></trkpt><trkpt lat="42.9602453" lon="12.3929497"><ele>160.25</ele><time>2026-04-02T09:01:23.706Z</time></trkpt><trkpt lat="42.9601131" lon="12.3930006"><ele>160.0</ele><time>2026-04-02T09:01:24.704Z</time></trkpt><trkpt lat="42.9599774" lon="12.3930547"><ele>160.0</ele><time>2026-04-02T09:01:25.7Z</time></trkpt><trkpt lat="42.9598431" lon="12.3931069"><ele>160.0</ele><time>2026-04-02T09:01:26.704Z</time></trkpt><trkpt lat="42.9597094" lon="12.3931549"><ele>160.0</ele><time>2026-04-02T09:01:27.7Z</time></trkpt><trkpt lat="42.9595799" lon="12.3932098"><ele>160.0</ele><time>2026-04-02T09:01:28.708Z</time></trkpt><trkpt lat="42.9594459" lon="12.3932647"><ele>160.0</ele><time>2026-04-02T09:01:29.698Z</time></trkpt><trkpt lat="42.9593134" lon="12.39332"><ele>160.0</ele><time>2026-04-02T09:01:30.7Z</time></trkpt><trkpt lat="42.9591786" lon="12.393375"><ele>160.0</ele><time>2026-04-02T09:01:31.698Z</time></trkpt><trkpt lat="42.9590448" lon="12.3934299"><ele>160.0</ele><time>2026-04-02T09:01:32.707Z</time></trkpt><trkpt lat="42.9589105" lon="12.3934847"><ele>160.0</ele><time>2026-04-02T09:01:33.708Z</time></trkpt><trkpt lat="42.9587754" lon="12.3935363"><ele>160.0</ele><time>2026-04-02T09:01:34.704Z</time></trkpt><trkpt lat="42.9586409" lon="12.3935887"><ele>160.0</ele><time>2026-04-02T09:01:35.701Z</time></trkpt><trkpt lat="42.9585085" lon="12.3936405"><ele>160.0</ele><time>2026-04-02T09:01:36.701Z</time></trkpt><trkpt lat="42.9583749" lon="12.3936966"><ele>160.0</ele><time>2026-04-02T09:01:37.702Z</time></trkpt><trkpt lat="42.9582407" lon="12.3937604"><ele>160.0</ele><time>2026-04-02T09:01:38.699Z</time></trkpt><trkpt lat="42.9581092" lon="12.3938179"><ele>160.0</ele><time>2026-04-02T09:01:39.699Z</time></trkpt><trkpt lat="42.9579705" lon="12.3938701"><ele>160.0</ele><time>2026-04-02T09:01:40.698Z</time></trkpt><trkpt lat="42.9578297" lon="12.3939226"><ele>160.0</ele><time>2026-04-02T09:01:41.7Z</time></trkpt><trkpt lat="42.9576912" lon="12.3939733"><ele>160.0</ele><time>2026-04-02T09:01:42.702Z</time></trkpt><trkpt lat="42.9575473" lon="12.3940304"><ele>160.0</ele><time>2026-04-02T09:01:43.697Z</time></trkpt><trkpt lat="42.9574069" lon="12.3940856"><ele>160.0</ele><time>2026-04-02T09:01:44.698Z</time></trkpt><trkpt lat="42.9572689" lon="12.3941455"><ele>160.0</ele><time>2026-04-02T09:01:45.701Z</time></trkpt><trkpt lat="42.9571347" lon="12.3941979"><ele>160.0</ele><time>2026-04-02T09:01:46.699Z</time></trkpt><trkpt lat="42.9570084" lon="12.3942464"><ele>160.0</ele><time>2026-04-02T09:01:47.706Z</time></trkpt><trkpt lat="42.9568899" lon="12.394291"><ele>160.0</ele><time>2026-04-02T09:01:48.699Z</time></trkpt><trkpt lat="42.9567694" lon="12.3943414"><ele>159.75</ele><time>2026-04-02T09:01:49.698Z</time></trkpt><trkpt lat="42.9566434" lon="12.3943883"><ele>159.5</ele><time>2026-04-02T09:01:50.704Z</time></trkpt><trkpt lat="42.9565095" lon="12.3944445"><ele>159.25</ele><time>2026-04-02T09:01:51.702Z</time></trkpt><trkpt lat="42.9563718" lon="12.3945009"><ele>159.0</ele><time>2026-04-02T09:01:52.702Z</time></trkpt><trkpt lat="42.9562397" lon="12.3945563"><ele>159.0</ele><time>2026-04-02T09:01:53.699Z</time></trkpt><trkpt lat="42.9561169" lon="12.3946093"><ele>159.0</ele><time>2026-04-02T09:01:54.702Z</time></trkpt><trkpt lat="42.9559968" lon="12.3946532"><ele>159.0</ele><time>2026-04-02T09:01:55.704Z</time></trkpt><trkpt lat="42.9558787" lon="12.3946924"><ele>159.0</ele><time>2026-04-02T09:01:56.701Z</time></trkpt><trkpt lat="42.9557661" lon="12.3947308"><ele>159.6</ele><time>2026-04-02T09:01:57.702Z</time></trkpt><trkpt lat="42.9556631" lon="12.3947655"><ele>160.2</ele><time>2026-04-02T09:01:58.698Z</time></trkpt><trkpt lat="42.9555619" lon="12.3948002"><ele>160.79999999999998</ele><time>2026-04-02T09:01:59.705Z</time></trkpt><trkpt lat="42.9554567" lon="12.3948337"><ele>161.4</ele><time>2026-04-02T09:02:00.699Z</time></trkpt><trkpt lat="42.9553563" lon="12.3948641"><ele>162.0</ele><time>2026-04-02T09:02:01.7Z</time></trkpt><trkpt lat="42.9552419" lon="12.3948893"><ele>162.0</ele><time>2026-04-02T09:02:02.703Z</time></trkpt><trkpt lat="42.9551249" lon="12.3949009"><ele>162.0</ele><time>2026-04-02T09:02:03.704Z</time></trkpt><trkpt lat="42.9550056" lon="12.3949111"><ele>162.0</ele><time>2026-04-02T09:02:04.699Z</time></trkpt><trkpt lat="42.9548878" lon="12.3949294"><ele>162.0</ele><time>2026-04-02T09:02:05.702Z</time></trkpt><trkpt lat="42.9547774" lon="12.3949377"><ele>161.83333333333334</ele><time>2026-04-02T09:02:06.713Z</time></trkpt><trkpt lat="42.9546795" lon="12.3949405"><ele>161.66666666666666</ele><time>2026-04-02T09:02:07.708Z</time></trkpt><trkpt lat="42.9545923" lon="12.3949381"><ele>161.5</ele><time>2026-04-02T09:02:08.703Z</time></trkpt><trkpt lat="42.9545186" lon="12.3949218"><ele>161.33333333333331</ele><time>2026-04-02T09:02:09.702Z</time></trkpt><trkpt lat="42.9544525" lon="12.3948996"><ele>161.16666666666666</ele><time>2026-04-02T09:02:10.701Z</time></trkpt><trkpt lat="42.9543949" lon="12.3948526"><ele>161.0</ele><time>2026-04-02T09:02:11.699Z</time></trkpt><trkpt lat="42.9543403" lon="12.3947435"><ele>161.0</ele><time>2026-04-02T09:02:13.704Z</time></trkpt><trkpt lat="42.9542802" lon="12.3946615"><ele>161.0</ele><time>2026-04-02T09:02:15.702Z</time></trkpt><trkpt lat="42.954187" lon="12.3945348"><ele>161.0</ele><time>2026-04-02T09:02:17.701Z</time></trkpt><trkpt lat="42.9541232" lon="12.394445"><ele>161.0</ele><time>2026-04-02T09:02:18.699Z</time></trkpt><trkpt lat="42.9540551" lon="12.3943494"><ele>161.0</ele><time>2026-04-02T09:02:19.702Z</time></trkpt><trkpt lat="42.9539864" lon="12.3942616"><ele>160.60000000000002</ele><time>2026-04-02T09:02:20.7Z</time></trkpt><trkpt lat="42.9539091" lon="12.3941516"><ele>160.20000000000002</ele><time>2026-04-02T09:02:21.709Z</time></trkpt><trkpt lat="42.9538285" lon="12.3940453"><ele>159.8</ele><time>2026-04-02T09:02:22.702Z</time></trkpt><trkpt lat="42.9537504" lon="12.3939417"><ele>159.4</ele><time>2026-04-02T09:02:23.699Z</time></trkpt><trkpt lat="42.9536655" lon="12.393832"><ele>159.0</ele><time>2026-04-02T09:02:24.701Z</time></trkpt><trkpt lat="42.9535716" lon="12.3937116"><ele>159.0</ele><time>2026-04-02T09:02:25.702Z</time></trkpt><trkpt lat="42.9534736" lon="12.3935904"><ele>159.0</ele><time>2026-04-02T09:02:26.699Z</time></trkpt><trkpt lat="42.9533657" lon="12.393463"><ele>159.0</ele><time>2026-04-02T09:02:27.703Z</time></trkpt><trkpt lat="42.9532578" lon="12.3933396"><ele>159.0</ele><time>2026-04-02T09:02:28.697Z</time></trkpt><trkpt lat="42.9531434" lon="12.3932185"><ele>159.0</ele><time>2026-04-02T09:02:29.706Z</time></trkpt><trkpt lat="42.95303" lon="12.3930913"><ele>159.0</ele><time>2026-04-02T09:02:30.706Z</time></trkpt><trkpt lat="42.952917" lon="12.3929697"><ele>159.0</ele><time>2026-04-02T09:02:31.701Z</time></trkpt><trkpt lat="42.9528116" lon="12.3928538"><ele>159.0</ele><time>2026-04-02T09:02:32.699Z</time></trkpt><trkpt lat="42.9527132" lon="12.3927458"><ele>159.0</ele><time>2026-04-02T09:02:33.702Z</time></trkpt><trkpt lat="42.9526121" lon="12.3926425"><ele>159.0</ele><time>2026-04-02T09:02:34.705Z</time></trkpt><trkpt lat="42.952508" lon="12.392528"><ele>159.0</ele><time>2026-04-02T09:02:35.705Z</time></trkpt><trkpt lat="42.9524026" lon="12.3924084"><ele>159.0</ele><time>2026-04-02T09:02:36.699Z</time></trkpt><trkpt lat="42.9522954" lon="12.3922885"><ele>159.0</ele><time>2026-04-02T09:02:37.703Z</time></trkpt><trkpt lat="42.9521889" lon="12.3921743"><ele>159.0</ele><time>2026-04-02T09:02:38.704Z</time></trkpt><trkpt lat="42.9520835" lon="12.3920586"><ele>159.0</ele><time>2026-04-02T09:02:39.7Z</time></trkpt><trkpt lat="42.9519813" lon="12.3919444"><ele>159.0</ele><time>2026-04-02T09:02:40.701Z</time></trkpt><trkpt lat="42.9518823" lon="12.3918357"><ele>159.0</ele><time>2026-04-02T09:02:41.705Z</time></trkpt><trkpt lat="42.9517806" lon="12.3917259"><ele>159.0</ele><time>2026-04-02T09:02:42.703Z</time></trkpt><trkpt lat="42.9516753" lon="12.3916094"><ele>159.0</ele><time>2026-04-02T09:02:43.704Z</time></trkpt><trkpt lat="42.951574" lon="12.3914956"><ele>159.0</ele><time>2026-04-02T09:02:44.7Z</time></trkpt><trkpt lat="42.9514725" lon="12.3913837"><ele>159.25</ele><time>2026-04-02T09:02:45.701Z</time></trkpt><trkpt lat="42.951368" lon="12.3912633"><ele>159.5</ele><time>2026-04-02T09:02:46.706Z</time></trkpt><trkpt lat="42.9512548" lon="12.3911487"><ele>159.75</ele><time>2026-04-02T09:02:47.701Z</time></trkpt><trkpt lat="42.9511465" lon="12.3910206"><ele>160.0</ele><time>2026-04-02T09:02:48.699Z</time></trkpt><trkpt lat="42.9510325" lon="12.3908941"><ele>160.0</ele><time>2026-04-02T09:02:49.701Z</time></trkpt><trkpt lat="42.9509227" lon="12.3907641"><ele>160.0</ele><time>2026-04-02T09:02:50.705Z</time></trkpt><trkpt lat="42.9508187" lon="12.3906378"><ele>160.0</ele><time>2026-04-02T09:02:51.699Z</time></trkpt><trkpt lat="42.9507059" lon="12.3905176"><ele>160.0</ele><time>2026-04-02T09:02:52.701Z</time></trkpt><trkpt lat="42.9505983" lon="12.3903979"><ele>159.75</ele><time>2026-04-02T09:02:53.704Z</time></trkpt><trkpt lat="42.9504889" lon="12.3902875"><ele>159.5</ele><time>2026-04-02T09:02:54.701Z</time></trkpt><trkpt lat="42.9503836" lon="12.3901713"><ele>159.25</ele><time>2026-04-02T09:02:55.699Z</time></trkpt><trkpt lat="42.9502683" lon="12.3900576"><ele>159.0</ele><time>2026-04-02T09:02:56.699Z</time></trkpt><trkpt lat="42.9501559" lon="12.3899528"><ele>159.0</ele><time>2026-04-02T09:02:57.705Z</time></trkpt><trkpt lat="42.9500472" lon="12.3898425"><ele>159.0</ele><time>2026-04-02T09:02:58.701Z</time></trkpt><trkpt lat="42.949935" lon="12.3897349"><ele>159.0</ele><time>2026-04-02T09:02:59.702Z</time></trkpt><trkpt lat="42.9498251" lon="12.3896324"><ele>159.0</ele><time>2026-04-02T09:03:00.701Z</time></trkpt><trkpt lat="42.9497029" lon="12.3895453"><ele>159.0</ele><time>2026-04-02T09:03:01.706Z</time></trkpt><trkpt lat="42.9495835" lon="12.3894516"><ele>159.0</ele><time>2026-04-02T09:03:02.707Z</time></trkpt><trkpt lat="42.9494579" lon="12.3893666"><ele>159.0</ele><time>2026-04-02T09:03:03.7Z</time></trkpt><trkpt lat="42.9493397" lon="12.3892829"><ele>159.0</ele><time>2026-04-02T09:03:04.704Z</time></trkpt><trkpt lat="42.9492174" lon="12.389197"><ele>159.25</ele><time>2026-04-02T09:03:05.702Z</time></trkpt><trkpt lat="42.9490963" lon="12.3891168"><ele>159.5</ele><time>2026-04-02T09:03:06.7Z</time></trkpt><trkpt lat="42.9489687" lon="12.3890493"><ele>159.75</ele><time>2026-04-02T09:03:07.698Z</time></trkpt><trkpt lat="42.9488412" lon="12.3889694"><ele>160.0</ele><time>2026-04-02T09:03:08.698Z</time></trkpt><trkpt lat="42.9487122" lon="12.3889065"><ele>159.75</ele><time>2026-04-02T09:03:09.7Z</time></trkpt><trkpt lat="42.9485853" lon="12.3888385"><ele>159.5</ele><time>2026-04-02T09:03:10.702Z</time></trkpt><trkpt lat="42.9484564" lon="12.3887707"><ele>159.25</ele><time>2026-04-02T09:03:11.7Z</time></trkpt><trkpt lat="42.9483312" lon="12.3887141"><ele>159.0</ele><time>2026-04-02T09:03:12.706Z</time></trkpt><trkpt lat="42.9482036" lon="12.3886437"><ele>158.75</ele><time>2026-04-02T09:03:13.701Z</time></trkpt><trkpt lat="42.9480698" lon="12.388582"><ele>158.5</ele><time>2026-04-02T09:03:14.7Z</time></trkpt><trkpt lat="42.9479284" lon="12.3885237"><ele>158.25</ele><time>2026-04-02T09:03:15.697Z</time></trkpt><trkpt lat="42.9477866" lon="12.3884598"><ele>158.0</ele><time>2026-04-02T09:03:16.702Z</time></trkpt><trkpt lat="42.9476421" lon="12.3883936"><ele>158.0</ele><time>2026-04-02T09:03:17.707Z</time></trkpt><trkpt lat="42.9474953" lon="12.3883276"><ele>158.0</ele><time>2026-04-02T09:03:18.71Z</time></trkpt><trkpt lat="42.9473479" lon="12.3882614"><ele>158.0</ele><time>2026-04-02T09:03:19.701Z</time></trkpt><trkpt lat="42.9472077" lon="12.3882041"><ele>158.0</ele><time>2026-04-02T09:03:20.706Z</time></trkpt><trkpt lat="42.9470731" lon="12.3881313"><ele>158.0</ele><time>2026-04-02T09:03:21.704Z</time></trkpt><trkpt lat="42.9469386" lon="12.3880495"><ele>158.0</ele><time>2026-04-02T09:03:22.704Z</time></trkpt><trkpt lat="42.9468159" lon="12.3879462"><ele>158.0</ele><time>2026-04-02T09:03:23.701Z</time></trkpt><trkpt lat="42.9467088" lon="12.3878215"><ele>158.0</ele><time>2026-04-02T09:03:24.704Z</time></trkpt><trkpt lat="42.9466148" lon="12.3876837"><ele>158.0</ele><time>2026-04-02T09:03:25.708Z</time></trkpt><trkpt lat="42.9465219" lon="12.3875251"><ele>158.0</ele><time>2026-04-02T09:03:26.704Z</time></trkpt><trkpt lat="42.9464392" lon="12.3873473"><ele>158.0</ele><time>2026-04-02T09:03:27.7Z</time></trkpt><trkpt lat="42.9463607" lon="12.3871654"><ele>158.0</ele><time>2026-04-02T09:03:28.702Z</time></trkpt><trkpt lat="42.9462778" lon="12.3869839"><ele>158.0</ele><time>2026-04-02T09:03:29.701Z</time></trkpt><trkpt lat="42.9461976" lon="12.3868027"><ele>158.0</ele><time>2026-04-02T09:03:30.701Z</time></trkpt><trkpt lat="42.9461195" lon="12.3866148"><ele>158.0</ele><time>2026-04-02T09:03:31.704Z</time></trkpt><trkpt lat="42.9460397" lon="12.3864283"><ele>158.0</ele><time>2026-04-02T09:03:32.702Z</time></trkpt><trkpt lat="42.9459616" lon="12.3862506"><ele>158.0</ele><time>2026-04-02T09:03:33.707Z</time></trkpt><trkpt lat="42.9458848" lon="12.3860684"><ele>158.0</ele><time>2026-04-02T09:03:34.699Z</time></trkpt><trkpt lat="42.9458085" lon="12.3858844"><ele>158.0</ele><time>2026-04-02T09:03:35.702Z</time></trkpt><trkpt lat="42.9457282" lon="12.3856966"><ele>158.0</ele><time>2026-04-02T09:03:36.699Z</time></trkpt><trkpt lat="42.9456518" lon="12.3855119"><ele>158.33333333333331</ele><time>2026-04-02T09:03:37.702Z</time></trkpt><trkpt lat="42.9455717" lon="12.3853277"><ele>158.66666666666666</ele><time>2026-04-02T09:03:38.703Z</time></trkpt><trkpt lat="42.945491" lon="12.3851473"><ele>159.0</ele><time>2026-04-02T09:03:39.703Z</time></trkpt><trkpt lat="42.9454109" lon="12.3849641"><ele>159.0</ele><time>2026-04-02T09:03:40.704Z</time></trkpt><trkpt lat="42.9453304" lon="12.3847834"><ele>159.0</ele><time>2026-04-02T09:03:41.707Z</time></trkpt><trkpt lat="42.9452573" lon="12.3846083"><ele>159.0</ele><time>2026-04-02T09:03:42.704Z</time></trkpt><trkpt lat="42.9451863" lon="12.3844484"><ele>159.0</ele><time>2026-04-02T09:03:43.703Z</time></trkpt><trkpt lat="42.9451192" lon="12.3842866"><ele>159.25</ele><time>2026-04-02T09:03:44.699Z</time></trkpt><trkpt lat="42.9450477" lon="12.3841208"><ele>159.5</ele><time>2026-04-02T09:03:45.705Z</time></trkpt><trkpt lat="42.9449762" lon="12.3839507"><ele>159.75</ele><time>2026-04-02T09:03:46.708Z</time></trkpt><trkpt lat="42.9448993" lon="12.383774"><ele>160.0</ele><time>2026-04-02T09:03:47.703Z</time></trkpt><trkpt lat="42.9448233" lon="12.3835955"><ele>160.0</ele><time>2026-04-02T09:03:48.706Z</time></trkpt><trkpt lat="42.9447464" lon="12.3834141"><ele>160.0</ele><time>2026-04-02T09:03:49.699Z</time></trkpt><trkpt lat="42.9446692" lon="12.383233"><ele>160.0</ele><time>2026-04-02T09:03:50.703Z</time></trkpt><trkpt lat="42.9445957" lon="12.3830586"><ele>160.0</ele><time>2026-04-02T09:03:51.702Z</time></trkpt><trkpt lat="42.9445242" lon="12.3828914"><ele>160.0</ele><time>2026-04-02T09:03:52.704Z</time></trkpt><trkpt lat="42.9444511" lon="12.3827379"><ele>160.0</ele><time>2026-04-02T09:03:53.704Z</time></trkpt><trkpt lat="42.9443679" lon="12.3825907"><ele>160.0</ele><time>2026-04-02T09:03:54.699Z</time></trkpt><trkpt lat="42.9442864" lon="12.382464"><ele>160.0</ele><time>2026-04-02T09:03:55.705Z</time></trkpt><trkpt lat="42.9441934" lon="12.382358"><ele>160.0</ele><time>2026-04-02T09:03:56.705Z</time></trkpt><trkpt lat="42.9440865" lon="12.3822521"><ele>160.0</ele><time>2026-04-02T09:03:57.702Z</time></trkpt><trkpt lat="42.9439725" lon="12.3821573"><ele>160.0</ele><time>2026-04-02T09:03:58.702Z</time></trkpt><trkpt lat="42.9438539" lon="12.3820594"><ele>160.0</ele><time>2026-04-02T09:03:59.702Z</time></trkpt><trkpt lat="42.9437328" lon="12.381963"><ele>160.0</ele><time>2026-04-02T09:04:00.706Z</time></trkpt><trkpt lat="42.9436134" lon="12.3818635"><ele>160.0</ele><time>2026-04-02T09:04:01.698Z</time></trkpt><trkpt lat="42.9434873" lon="12.3817638"><ele>160.0</ele><time>2026-04-02T09:04:02.704Z</time></trkpt><trkpt lat="42.9433592" lon="12.3816578"><ele>159.66666666666669</ele><time>2026-04-02T09:04:03.702Z</time></trkpt><trkpt lat="42.9432284" lon="12.3815503"><ele>159.33333333333334</ele><time>2026-04-02T09:04:04.705Z</time></trkpt><trkpt lat="42.9430959" lon="12.3814458"><ele>159.0</ele><time>2026-04-02T09:04:05.704Z</time></trkpt><trkpt lat="42.9429633" lon="12.3813358"><ele>159.0</ele><time>2026-04-02T09:04:06.702Z</time></trkpt><trkpt lat="42.9428339" lon="12.3812271"><ele>159.0</ele><time>2026-04-02T09:04:07.7Z</time></trkpt><trkpt lat="42.9427052" lon="12.3811159"><ele>159.0</ele><time>2026-04-02T09:04:08.705Z</time></trkpt><trkpt lat="42.942572" lon="12.3810086"><ele>159.0</ele><time>2026-04-02T09:04:09.703Z</time></trkpt><trkpt lat="42.9424409" lon="12.3809029"><ele>159.0</ele><time>2026-04-02T09:04:10.697Z</time></trkpt><trkpt lat="42.9423085" lon="12.3807989"><ele>159.0</ele><time>2026-04-02T09:04:11.701Z</time></trkpt><trkpt lat="42.9421836" lon="12.3806979"><ele>159.0</ele><time>2026-04-02T09:04:12.701Z</time></trkpt><trkpt lat="42.9420616" lon="12.3805958"><ele>159.0</ele><time>2026-04-02T09:04:13.698Z</time></trkpt><trkpt lat="42.9419424" lon="12.3805"><ele>159.0</ele><time>2026-04-02T09:04:14.701Z</time></trkpt><trkpt lat="42.9418282" lon="12.3804119"><ele>159.0</ele><time>2026-04-02T09:04:15.701Z</time></trkpt><trkpt lat="42.941722" lon="12.3803264"><ele>158.83333333333334</ele><time>2026-04-02T09:04:16.702Z</time></trkpt><trkpt lat="42.9416256" lon="12.3802468"><ele>158.66666666666666</ele><time>2026-04-02T09:04:17.697Z</time></trkpt><trkpt lat="42.9415409" lon="12.3801706"><ele>158.5</ele><time>2026-04-02T09:04:18.696Z</time></trkpt><trkpt lat="42.9414723" lon="12.3800981"><ele>158.33333333333331</ele><time>2026-04-02T09:04:19.703Z</time></trkpt><trkpt lat="42.9414211" lon="12.380025"><ele>158.16666666666666</ele><time>2026-04-02T09:04:20.705Z</time></trkpt><trkpt lat="42.9413988" lon="12.379937"><ele>158.0</ele><time>2026-04-02T09:04:21.698Z</time></trkpt><trkpt lat="42.9413697" lon="12.3798393"><ele>158.0</ele><time>2026-04-02T09:04:22.699Z</time></trkpt><trkpt lat="42.9413838" lon="12.3797241"><ele>158.0</ele><time>2026-04-02T09:04:23.707Z</time></trkpt><trkpt lat="42.9414288" lon="12.3795902"><ele>158.0</ele><time>2026-04-02T09:04:24.703Z</time></trkpt><trkpt lat="42.9414588" lon="12.379457"><ele>158.0</ele><time>2026-04-02T09:04:25.698Z</time></trkpt><trkpt lat="42.9414813" lon="12.3793279"><ele>158.0</ele><time>2026-04-02T09:04:26.704Z</time></trkpt><trkpt lat="42.9414969" lon="12.3792034"><ele>158.4</ele><time>2026-04-02T09:04:27.701Z</time></trkpt><trkpt lat="42.9415394" lon="12.3790623"><ele>158.8</ele><time>2026-04-02T09:04:28.703Z</time></trkpt><trkpt lat="42.9415702" lon="12.378925"><ele>159.2</ele><time>2026-04-02T09:04:29.699Z</time></trkpt><trkpt lat="42.9416122" lon="12.3787791"><ele>159.6</ele><time>2026-04-02T09:04:30.704Z</time></trkpt><trkpt lat="42.9416448" lon="12.3786268"><ele>160.0</ele><time>2026-04-02T09:04:31.709Z</time></trkpt><trkpt lat="42.9416832" lon="12.3784726"><ele>160.0</ele><time>2026-04-02T09:04:32.7Z</time></trkpt><trkpt lat="42.9417136" lon="12.3783334"><ele>160.0</ele><time>2026-04-02T09:04:33.706Z</time></trkpt><trkpt lat="42.9417381" lon="12.3782091"><ele>160.0</ele><time>2026-04-02T09:04:34.703Z</time></trkpt><trkpt lat="42.9417647" lon="12.3780813"><ele>160.0</ele><time>2026-04-02T09:04:35.702Z</time></trkpt><trkpt lat="42.9417917" lon="12.3779589"><ele>160.0</ele><time>2026-04-02T09:04:36.702Z</time></trkpt><trkpt lat="42.9418097" lon="12.377836"><ele>160.0</ele><time>2026-04-02T09:04:37.699Z</time></trkpt><trkpt lat="42.9418435" lon="12.3777107"><ele>160.0</ele><time>2026-04-02T09:04:38.711Z</time></trkpt><trkpt lat="42.9418822" lon="12.3775777"><ele>160.0</ele><time>2026-04-02T09:04:39.702Z</time></trkpt><trkpt lat="42.9419077" lon="12.3774415"><ele>160.0</ele><time>2026-04-02T09:04:40.706Z</time></trkpt><trkpt lat="42.9419459" lon="12.3773082"><ele>160.0</ele><time>2026-04-02T09:04:41.711Z</time></trkpt><trkpt lat="42.9419791" lon="12.3771768"><ele>160.2</ele><time>2026-04-02T09:04:42.705Z</time></trkpt><trkpt lat="42.9420063" lon="12.3770324"><ele>160.4</ele><time>2026-04-02T09:04:43.704Z</time></trkpt><trkpt lat="42.9420333" lon="12.376888"><ele>160.60000000000002</ele><time>2026-04-02T09:04:44.7Z</time></trkpt><trkpt lat="42.9420629" lon="12.3767381"><ele>160.8</ele><time>2026-04-02T09:04:45.705Z</time></trkpt><trkpt lat="42.9420955" lon="12.3765917"><ele>161.0</ele><time>2026-04-02T09:04:46.71Z</time></trkpt><trkpt lat="42.942129" lon="12.3764437"><ele>161.0</ele><time>2026-04-02T09:04:47.706Z</time></trkpt><trkpt lat="42.9421594" lon="12.3762952"><ele>161.0</ele><time>2026-04-02T09:04:48.703Z</time></trkpt><trkpt lat="42.9421911" lon="12.376148"><ele>161.0</ele><time>2026-04-02T09:04:49.704Z</time></trkpt><trkpt lat="42.9422273" lon="12.3759991"><ele>161.0</ele><time>2026-04-02T09:04:50.706Z</time></trkpt><trkpt lat="42.942262" lon="12.3758455"><ele>161.0</ele><time>2026-04-02T09:04:51.704Z</time></trkpt><trkpt lat="42.9422996" lon="12.3756975"><ele>161.0</ele><time>2026-04-02T09:04:52.7Z</time></trkpt><trkpt lat="42.9423324" lon="12.3755461"><ele>161.0</ele><time>2026-04-02T09:04:53.702Z</time></trkpt><trkpt lat="42.9423713" lon="12.3753793"><ele>161.0</ele><time>2026-04-02T09:04:54.702Z</time></trkpt><trkpt lat="42.9424077" lon="12.3752095"><ele>161.75</ele><time>2026-04-02T09:04:55.703Z</time></trkpt><trkpt lat="42.9424492" lon="12.3750449"><ele>162.5</ele><time>2026-04-02T09:04:56.702Z</time></trkpt><trkpt lat="42.9424849" lon="12.374885"><ele>163.25</ele><time>2026-04-02T09:04:57.699Z</time></trkpt><trkpt lat="42.942519" lon="12.3747292"><ele>164.0</ele><time>2026-04-02T09:04:58.711Z</time></trkpt><trkpt lat="42.9425471" lon="12.374577"><ele>164.5</ele><time>2026-04-02T09:04:59.703Z</time></trkpt><trkpt lat="42.9425785" lon="12.3744259"><ele>165.0</ele><time>2026-04-02T09:05:00.703Z</time></trkpt><trkpt lat="42.9426124" lon="12.3742681"><ele>165.5</ele><time>2026-04-02T09:05:01.706Z</time></trkpt><trkpt lat="42.9426508" lon="12.3741186"><ele>166.0</ele><time>2026-04-02T09:05:02.704Z</time></trkpt><trkpt lat="42.9426749" lon="12.3739807"><ele>166.4</ele><time>2026-04-02T09:05:03.706Z</time></trkpt><trkpt lat="42.9427079" lon="12.3738414"><ele>166.8</ele><time>2026-04-02T09:05:04.698Z</time></trkpt><trkpt lat="42.9427346" lon="12.3737222"><ele>167.20000000000002</ele><time>2026-04-02T09:05:05.701Z</time></trkpt><trkpt lat="42.942762" lon="12.3736117"><ele>167.60000000000002</ele><time>2026-04-02T09:05:06.702Z</time></trkpt><trkpt lat="42.9427869" lon="12.3735184"><ele>168.0</ele><time>2026-04-02T09:05:07.705Z</time></trkpt><trkpt lat="42.9428102" lon="12.3733675"><ele>168.0</ele><time>2026-04-02T09:05:09.7Z</time></trkpt><trkpt lat="42.9427792" lon="12.3732717"><ele>168.0</ele><time>2026-04-02T09:05:11.703Z</time></trkpt><trkpt lat="42.9426878" lon="12.3732188"><ele>168.0</ele><time>2026-04-02T09:05:13.702Z</time></trkpt><trkpt lat="42.9425714" lon="12.3732427"><ele>168.0</ele><time>2026-04-02T09:05:15.705Z</time></trkpt><trkpt lat="42.9424772" lon="12.3732466"><ele>168.0</ele><time>2026-04-02T09:05:17.707Z</time></trkpt><trkpt lat="42.9424104" lon="12.3732516"><ele>167.8</ele><time>2026-04-02T09:05:19.701Z</time></trkpt><trkpt lat="42.9423359" lon="12.3732638"><ele>167.60000000000002</ele><time>2026-04-02T09:07:16.704Z</time></trkpt><trkpt lat="42.9422367" lon="12.3732886"><ele>167.39999999999998</ele><time>2026-04-02T09:07:18.705Z</time></trkpt><trkpt lat="42.9421552" lon="12.3733004"><ele>167.2</ele><time>2026-04-02T09:07:19.699Z</time></trkpt><trkpt lat="42.9420648" lon="12.3733085"><ele>167.0</ele><time>2026-04-02T09:07:20.702Z</time></trkpt><trkpt lat="42.9419563" lon="12.3733232"><ele>167.0</ele><time>2026-04-02T09:07:21.703Z</time></trkpt><trkpt lat="42.9418387" lon="12.373337"><ele>167.0</ele><time>2026-04-02T09:07:22.7Z</time></trkpt><trkpt lat="42.9417182" lon="12.3733515"><ele>167.0</ele><time>2026-04-02T09:07:23.701Z</time></trkpt><trkpt lat="42.9416087" lon="12.3733459"><ele>167.0</ele><time>2026-04-02T09:07:24.711Z</time></trkpt><trkpt lat="42.9415141" lon="12.3733224"><ele>167.0</ele><time>2026-04-02T09:07:25.702Z</time></trkpt><trkpt lat="42.941413" lon="12.373286"><ele>166.75</ele><time>2026-04-02T09:07:26.704Z</time></trkpt><trkpt lat="42.9413099" lon="12.3732461"><ele>166.5</ele><time>2026-04-02T09:07:27.701Z</time></trkpt><trkpt lat="42.9411945" lon="12.3731857"><ele>166.25</ele><time>2026-04-02T09:07:28.704Z</time></trkpt><trkpt lat="42.9410683" lon="12.37311"><ele>166.0</ele><time>2026-04-02T09:07:29.706Z</time></trkpt><trkpt lat="42.9409231" lon="12.3730313"><ele>166.0</ele><time>2026-04-02T09:07:30.705Z</time></trkpt><trkpt lat="42.9407705" lon="12.3729545"><ele>166.0</ele><time>2026-04-02T09:07:31.702Z</time></trkpt><trkpt lat="42.940639" lon="12.3729205"><ele>166.0</ele><time>2026-04-02T09:07:32.711Z</time></trkpt><trkpt lat="42.9404766" lon="12.3728505"><ele>166.0</ele><time>2026-04-02T09:07:33.703Z</time></trkpt><trkpt lat="42.9403167" lon="12.372784"><ele>166.0</ele><time>2026-04-02T09:07:34.701Z</time></trkpt><trkpt lat="42.9401618" lon="12.372719"><ele>166.0</ele><time>2026-04-02T09:07:35.699Z</time></trkpt><trkpt lat="42.9400092" lon="12.372656"><ele>165.33333333333334</ele><time>2026-04-02T09:07:36.7Z</time></trkpt><trkpt lat="42.9398575" lon="12.3725948"><ele>164.66666666666666</ele><time>2026-04-02T09:07:37.701Z</time></trkpt><trkpt lat="42.9397048" lon="12.3725364"><ele>164.0</ele><time>2026-04-02T09:07:38.7Z</time></trkpt><trkpt lat="42.9395527" lon="12.3724847"><ele>164.0</ele><time>2026-04-02T09:07:39.703Z</time></trkpt><trkpt lat="42.9394104" lon="12.3724379"><ele>164.0</ele><time>2026-04-02T09:07:40.702Z</time></trkpt><trkpt lat="42.9392751" lon="12.3723978"><ele>164.0</ele><time>2026-04-02T09:07:41.711Z</time></trkpt><trkpt lat="42.9391475" lon="12.3723658"><ele>164.0</ele><time>2026-04-02T09:07:42.701Z</time></trkpt><trkpt lat="42.9390216" lon="12.3723483"><ele>163.5</ele><time>2026-04-02T09:07:43.703Z</time></trkpt><trkpt lat="42.9388847" lon="12.372338"><ele>163.0</ele><time>2026-04-02T09:07:44.698Z</time></trkpt><trkpt lat="42.9387562" lon="12.372329"><ele>162.5</ele><time>2026-04-02T09:07:45.701Z</time></trkpt><trkpt lat="42.9386384" lon="12.3723337"><ele>162.0</ele><time>2026-04-02T09:07:46.701Z</time></trkpt><trkpt lat="42.9385067" lon="12.3723647"><ele>162.25</ele><time>2026-04-02T09:07:47.7Z</time></trkpt><trkpt lat="42.9383788" lon="12.3724367"><ele>162.5</ele><time>2026-04-02T09:07:48.699Z</time></trkpt><trkpt lat="42.9382598" lon="12.3724857"><ele>162.75</ele><time>2026-04-02T09:07:49.701Z</time></trkpt><trkpt lat="42.9381421" lon="12.3725219"><ele>163.0</ele><time>2026-04-02T09:07:50.7Z</time></trkpt><trkpt lat="42.9380142" lon="12.3725411"><ele>163.0</ele><time>2026-04-02T09:07:51.706Z</time></trkpt><trkpt lat="42.9379089" lon="12.3725282"><ele>163.0</ele><time>2026-04-02T09:07:52.702Z</time></trkpt><trkpt lat="42.9378131" lon="12.3724927"><ele>163.0</ele><time>2026-04-02T09:07:53.701Z</time></trkpt><trkpt lat="42.9377225" lon="12.3724511"><ele>163.0</ele><time>2026-04-02T09:07:54.702Z</time></trkpt><trkpt lat="42.9375973" lon="12.3723895"><ele>163.0</ele><time>2026-04-02T09:07:55.703Z</time></trkpt><trkpt lat="42.9374749" lon="12.3723644"><ele>162.33333333333334</ele><time>2026-04-02T09:07:56.7Z</time></trkpt><trkpt lat="42.9373338" lon="12.3723589"><ele>161.66666666666666</ele><time>2026-04-02T09:07:57.704Z</time></trkpt><trkpt lat="42.9371836" lon="12.3723556"><ele>161.0</ele><time>2026-04-02T09:07:58.703Z</time></trkpt><trkpt lat="42.9370231" lon="12.3723622"><ele>161.0</ele><time>2026-04-02T09:07:59.707Z</time></trkpt><trkpt lat="42.9368607" lon="12.3723631"><ele>161.0</ele><time>2026-04-02T09:08:00.7Z</time></trkpt><trkpt lat="42.9367098" lon="12.3723974"><ele>161.0</ele><time>2026-04-02T09:08:01.699Z</time></trkpt><trkpt lat="42.9365655" lon="12.372415"><ele>161.5</ele><time>2026-04-02T09:08:02.705Z</time></trkpt><trkpt lat="42.9364375" lon="12.3724544"><ele>162.0</ele><time>2026-04-02T09:08:03.703Z</time></trkpt><trkpt lat="42.9362903" lon="12.3724477"><ele>162.5</ele><time>2026-04-02T09:08:04.698Z</time></trkpt><trkpt lat="42.9361628" lon="12.372413"><ele>163.0</ele><time>2026-04-02T09:08:05.71Z</time></trkpt><trkpt lat="42.9360355" lon="12.3723761"><ele>163.0</ele><time>2026-04-02T09:08:06.702Z</time></trkpt><trkpt lat="42.9359187" lon="12.3723376"><ele>163.0</ele><time>2026-04-02T09:08:07.711Z</time></trkpt><trkpt lat="42.9357966" lon="12.3722828"><ele>163.0</ele><time>2026-04-02T09:08:08.703Z</time></trkpt><trkpt lat="42.9356782" lon="12.3722197"><ele>163.0</ele><time>2026-04-02T09:08:09.702Z</time></trkpt><trkpt lat="42.9355527" lon="12.3721445"><ele>163.0</ele><time>2026-04-02T09:08:10.705Z</time></trkpt><trkpt lat="42.9354202" lon="12.3720539"><ele>163.0</ele><time>2026-04-02T09:08:11.702Z</time></trkpt><trkpt lat="42.9352931" lon="12.371958"><ele>163.0</ele><time>2026-04-02T09:08:12.706Z</time></trkpt><trkpt lat="42.935161" lon="12.3718524"><ele>163.0</ele><time>2026-04-02T09:08:13.7Z</time></trkpt><trkpt lat="42.9350285" lon="12.3717512"><ele>163.0</ele><time>2026-04-02T09:08:14.705Z</time></trkpt><trkpt lat="42.9348977" lon="12.3716495"><ele>163.0</ele><time>2026-04-02T09:08:15.699Z</time></trkpt><trkpt lat="42.9347746" lon="12.3715475"><ele>163.0</ele><time>2026-04-02T09:08:16.702Z</time></trkpt><trkpt lat="42.9346701" lon="12.3714556"><ele>163.0</ele><time>2026-04-02T09:08:17.704Z</time></trkpt><trkpt lat="42.9345723" lon="12.3713555"><ele>163.25</ele><time>2026-04-02T09:08:18.705Z</time></trkpt><trkpt lat="42.9344847" lon="12.3712432"><ele>163.5</ele><time>2026-04-02T09:08:19.699Z</time></trkpt><trkpt lat="42.9344097" lon="12.3711158"><ele>163.75</ele><time>2026-04-02T09:08:20.703Z</time></trkpt><trkpt lat="42.9343469" lon="12.3709882"><ele>164.0</ele><time>2026-04-02T09:08:21.704Z</time></trkpt><trkpt lat="42.9342885" lon="12.37087"><ele>164.0</ele><time>2026-04-02T09:08:22.705Z</time></trkpt><trkpt lat="42.9342245" lon="12.3707716"><ele>164.0</ele><time>2026-04-02T09:08:23.704Z</time></trkpt><trkpt lat="42.9341473" lon="12.3706879"><ele>164.0</ele><time>2026-04-02T09:08:24.706Z</time></trkpt><trkpt lat="42.9340627" lon="12.3706253"><ele>164.0</ele><time>2026-04-02T09:08:25.701Z</time></trkpt><trkpt lat="42.9339573" lon="12.3705618"><ele>164.0</ele><time>2026-04-02T09:08:26.704Z</time></trkpt><trkpt lat="42.9338334" lon="12.3705022"><ele>164.25</ele><time>2026-04-02T09:08:27.7Z</time></trkpt><trkpt lat="42.9337081" lon="12.3704432"><ele>164.5</ele><time>2026-04-02T09:08:28.7Z</time></trkpt><trkpt lat="42.9335713" lon="12.3703816"><ele>164.75</ele><time>2026-04-02T09:08:29.703Z</time></trkpt><trkpt lat="42.9334285" lon="12.370321"><ele>165.0</ele><time>2026-04-02T09:08:30.701Z</time></trkpt><trkpt lat="42.9332801" lon="12.3702586"><ele>165.0</ele><time>2026-04-02T09:08:31.705Z</time></trkpt><trkpt lat="42.9331255" lon="12.3701907"><ele>165.0</ele><time>2026-04-02T09:08:32.705Z</time></trkpt><trkpt lat="42.9329842" lon="12.3701252"><ele>165.0</ele><time>2026-04-02T09:08:33.701Z</time></trkpt><trkpt lat="42.9328415" lon="12.3700615"><ele>165.0</ele><time>2026-04-02T09:08:34.701Z</time></trkpt><trkpt lat="42.9327034" lon="12.3699926"><ele>165.0</ele><time>2026-04-02T09:08:35.704Z</time></trkpt><trkpt lat="42.9325774" lon="12.3699376"><ele>165.0</ele><time>2026-04-02T09:08:36.704Z</time></trkpt><trkpt lat="42.9324628" lon="12.3698933"><ele>165.0</ele><time>2026-04-02T09:08:37.701Z</time></trkpt><trkpt lat="42.9323575" lon="12.3698494"><ele>164.75</ele><time>2026-04-02T09:08:38.699Z</time></trkpt><trkpt lat="42.9322528" lon="12.3698006"><ele>164.5</ele><time>2026-04-02T09:08:39.7Z</time></trkpt><trkpt lat="42.9321419" lon="12.3697519"><ele>164.25</ele><time>2026-04-02T09:08:40.701Z</time></trkpt><trkpt lat="42.9320246" lon="12.3697029"><ele>164.0</ele><time>2026-04-02T09:08:41.705Z</time></trkpt><trkpt lat="42.9318999" lon="12.3696498"><ele>164.0</ele><time>2026-04-02T09:08:42.707Z</time></trkpt><trkpt lat="42.9317656" lon="12.3695951"><ele>164.0</ele><time>2026-04-02T09:08:43.701Z</time></trkpt><trkpt lat="42.9316326" lon="12.3695433"><ele>164.0</ele><time>2026-04-02T09:08:44.706Z</time></trkpt><trkpt lat="42.9315022" lon="12.3694875"><ele>164.0</ele><time>2026-04-02T09:08:45.704Z</time></trkpt><trkpt lat="42.9313609" lon="12.369416"><ele>163.66666666666666</ele><time>2026-04-02T09:08:46.701Z</time></trkpt><trkpt lat="42.9312127" lon="12.3693269"><ele>163.33333333333334</ele><time>2026-04-02T09:08:47.707Z</time></trkpt><trkpt lat="42.9310574" lon="12.3692309"><ele>163.0</ele><time>2026-04-02T09:08:48.704Z</time></trkpt><trkpt lat="42.9309186" lon="12.369147"><ele>163.0</ele><time>2026-04-02T09:08:49.712Z</time></trkpt><trkpt lat="42.9307801" lon="12.3690664"><ele>163.0</ele><time>2026-04-02T09:08:50.706Z</time></trkpt><trkpt lat="42.9306449" lon="12.3689941"><ele>163.0</ele><time>2026-04-02T09:08:51.704Z</time></trkpt><trkpt lat="42.9305112" lon="12.3689302"><ele>163.0</ele><time>2026-04-02T09:08:52.705Z</time></trkpt><trkpt lat="42.9303859" lon="12.3688659"><ele>163.0</ele><time>2026-04-02T09:08:53.701Z</time></trkpt><trkpt lat="42.9302639" lon="12.3688051"><ele>163.0</ele><time>2026-04-02T09:08:54.7Z</time></trkpt><trkpt lat="42.9301409" lon="12.3687485"><ele>163.0</ele><time>2026-04-02T09:08:55.702Z</time></trkpt><trkpt lat="42.9300179" lon="12.3686885"><ele>163.0</ele><time>2026-04-02T09:08:56.701Z</time></trkpt><trkpt lat="42.9298963" lon="12.3686205"><ele>163.0</ele><time>2026-04-02T09:08:57.701Z</time></trkpt><trkpt lat="42.9297856" lon="12.3685522"><ele>163.0</ele><time>2026-04-02T09:08:58.702Z</time></trkpt><trkpt lat="42.9296582" lon="12.3684873"><ele>163.0</ele><time>2026-04-02T09:08:59.703Z</time></trkpt><trkpt lat="42.9295286" lon="12.3684421"><ele>163.0</ele><time>2026-04-02T09:09:00.706Z</time></trkpt><trkpt lat="42.929397" lon="12.368408"><ele>163.0</ele><time>2026-04-02T09:09:01.701Z</time></trkpt><trkpt lat="42.9292557" lon="12.368382"><ele>163.0</ele><time>2026-04-02T09:09:02.706Z</time></trkpt><trkpt lat="42.9291128" lon="12.3683633"><ele>163.0</ele><time>2026-04-02T09:09:03.708Z</time></trkpt><trkpt lat="42.9289585" lon="12.3683468"><ele>163.0</ele><time>2026-04-02T09:09:04.707Z</time></trkpt><trkpt lat="42.9288082" lon="12.3683355"><ele>163.33333333333334</ele><time>2026-04-02T09:09:05.704Z</time></trkpt><trkpt lat="42.9286522" lon="12.3683188"><ele>163.66666666666666</ele><time>2026-04-02T09:09:06.701Z</time></trkpt><trkpt lat="42.9284903" lon="12.3682995"><ele>164.0</ele><time>2026-04-02T09:09:07.701Z</time></trkpt><trkpt lat="42.9283367" lon="12.3682832"><ele>163.0</ele><time>2026-04-02T09:09:08.698Z</time></trkpt><trkpt lat="42.928178" lon="12.3682666"><ele>162.0</ele><time>2026-04-02T09:09:09.704Z</time></trkpt><trkpt lat="42.9280243" lon="12.3682451"><ele>161.0</ele><time>2026-04-02T09:09:10.702Z</time></trkpt><trkpt lat="42.9278756" lon="12.3682211"><ele>161.0</ele><time>2026-04-02T09:09:11.704Z</time></trkpt><trkpt lat="42.9277252" lon="12.3681936"><ele>161.0</ele><time>2026-04-02T09:09:12.702Z</time></trkpt><trkpt lat="42.9275694" lon="12.3681653"><ele>161.0</ele><time>2026-04-02T09:09:13.702Z</time></trkpt><trkpt lat="42.9274102" lon="12.3681364"><ele>160.66666666666666</ele><time>2026-04-02T09:09:14.705Z</time></trkpt><trkpt lat="42.9272402" lon="12.3681078"><ele>160.33333333333334</ele><time>2026-04-02T09:09:15.706Z</time></trkpt><trkpt lat="42.9270689" lon="12.3680764"><ele>160.0</ele><time>2026-04-02T09:09:16.705Z</time></trkpt><trkpt lat="42.9269089" lon="12.3680494"><ele>160.0</ele><time>2026-04-02T09:09:17.709Z</time></trkpt><trkpt lat="42.9267519" lon="12.3680256"><ele>160.0</ele><time>2026-04-02T09:09:18.702Z</time></trkpt><trkpt lat="42.9265965" lon="12.3680012"><ele>160.0</ele><time>2026-04-02T09:09:19.703Z</time></trkpt><trkpt lat="42.9264416" lon="12.3679728"><ele>160.0</ele><time>2026-04-02T09:09:20.701Z</time></trkpt><trkpt lat="42.9262955" lon="12.3679409"><ele>160.0</ele><time>2026-04-02T09:09:21.703Z</time></trkpt><trkpt lat="42.9261501" lon="12.3679097"><ele>160.0</ele><time>2026-04-02T09:09:22.704Z</time></trkpt><trkpt lat="42.9260108" lon="12.3678721"><ele>160.0</ele><time>2026-04-02T09:09:23.704Z</time></trkpt><trkpt lat="42.9258991" lon="12.3678281"><ele>159.83333333333334</ele><time>2026-04-02T09:09:24.707Z</time></trkpt><trkpt lat="42.9258198" lon="12.3677948"><ele>159.66666666666669</ele><time>2026-04-02T09:09:25.703Z</time></trkpt><trkpt lat="42.9257262" lon="12.3677829"><ele>159.5</ele><time>2026-04-02T09:09:27.705Z</time></trkpt><trkpt lat="42.9256894" lon="12.3678935"><ele>159.33333333333334</ele><time>2026-04-02T09:09:29.704Z</time></trkpt><trkpt lat="42.9256769" lon="12.3679966"><ele>159.16666666666666</ele><time>2026-04-02T09:09:30.698Z</time></trkpt><trkpt lat="42.9256581" lon="12.3681176"><ele>159.0</ele><time>2026-04-02T09:09:31.704Z</time></trkpt><trkpt lat="42.9256308" lon="12.3682523"><ele>158.5</ele><time>2026-04-02T09:09:32.705Z</time></trkpt><trkpt lat="42.9255797" lon="12.3684042"><ele>158.0</ele><time>2026-04-02T09:09:33.702Z</time></trkpt><trkpt lat="42.9255228" lon="12.3685623"><ele>157.5</ele><time>2026-04-02T09:09:34.701Z</time></trkpt><trkpt lat="42.9254546" lon="12.3687307"><ele>157.0</ele><time>2026-04-02T09:09:35.71Z</time></trkpt><trkpt lat="42.925377" lon="12.3688914"><ele>157.0</ele><time>2026-04-02T09:09:36.698Z</time></trkpt><trkpt lat="42.9252994" lon="12.3690239"><ele>157.0</ele><time>2026-04-02T09:09:37.702Z</time></trkpt><trkpt lat="42.9252133" lon="12.3691452"><ele>157.0</ele><time>2026-04-02T09:09:38.699Z</time></trkpt><trkpt lat="42.9251113" lon="12.3692626"><ele>157.0</ele><time>2026-04-02T09:09:39.703Z</time></trkpt><trkpt lat="42.9250133" lon="12.3693693"><ele>157.0</ele><time>2026-04-02T09:09:40.703Z</time></trkpt><trkpt lat="42.9249272" lon="12.3694864"><ele>157.0</ele><time>2026-04-02T09:09:41.703Z</time></trkpt><trkpt lat="42.924856" lon="12.3696261"><ele>157.0</ele><time>2026-04-02T09:09:42.705Z</time></trkpt><trkpt lat="42.9248008" lon="12.3697812"><ele>157.0</ele><time>2026-04-02T09:09:43.709Z</time></trkpt><trkpt lat="42.9247514" lon="12.369945"><ele>157.0</ele><time>2026-04-02T09:09:44.695Z</time></trkpt><trkpt lat="42.9247148" lon="12.3700936"><ele>157.0</ele><time>2026-04-02T09:09:45.698Z</time></trkpt><trkpt lat="42.9246854" lon="12.3702298"><ele>157.0</ele><time>2026-04-02T09:09:46.7Z</time></trkpt><trkpt lat="42.9246561" lon="12.3703583"><ele>157.0</ele><time>2026-04-02T09:09:47.7Z</time></trkpt><trkpt lat="42.9246198" lon="12.3704712"><ele>157.0</ele><time>2026-04-02T09:09:48.7Z</time></trkpt><trkpt lat="42.9245699" lon="12.3705951"><ele>156.5</ele><time>2026-04-02T09:09:49.701Z</time></trkpt><trkpt lat="42.9245117" lon="12.3707352"><ele>156.0</ele><time>2026-04-02T09:09:50.7Z</time></trkpt><trkpt lat="42.9244494" lon="12.3708846"><ele>155.5</ele><time>2026-04-02T09:09:51.704Z</time></trkpt><trkpt lat="42.9243879" lon="12.3710271"><ele>155.0</ele><time>2026-04-02T09:09:52.701Z</time></trkpt><trkpt lat="42.9243681" lon="12.3711483"><ele>155.0</ele><time>2026-04-02T09:09:53.708Z</time></trkpt><trkpt lat="42.9243077" lon="12.3712832"><ele>155.0</ele><time>2026-04-02T09:09:54.705Z</time></trkpt><trkpt lat="42.9242605" lon="12.3714184"><ele>155.0</ele><time>2026-04-02T09:09:55.7Z</time></trkpt><trkpt lat="42.9242124" lon="12.3715295"><ele>155.0</ele><time>2026-04-02T09:09:56.701Z</time></trkpt><trkpt lat="42.9241615" lon="12.3716414"><ele>155.0</ele><time>2026-04-02T09:09:57.7Z</time></trkpt><trkpt lat="42.9241198" lon="12.3717587"><ele>155.2</ele><time>2026-04-02T09:09:58.704Z</time></trkpt><trkpt lat="42.9240698" lon="12.3718773"><ele>155.4</ele><time>2026-04-02T09:09:59.701Z</time></trkpt><trkpt lat="42.9240162" lon="12.3720059"><ele>155.6</ele><time>2026-04-02T09:10:00.7Z</time></trkpt><trkpt lat="42.9239676" lon="12.3721388"><ele>155.8</ele><time>2026-04-02T09:10:01.713Z</time></trkpt><trkpt lat="42.9239156" lon="12.3722783"><ele>156.0</ele><time>2026-04-02T09:10:02.7Z</time></trkpt><trkpt lat="42.9238642" lon="12.3724213"><ele>156.0</ele><time>2026-04-02T09:10:03.701Z</time></trkpt><trkpt lat="42.9238152" lon="12.3725552"><ele>156.0</ele><time>2026-04-02T09:10:04.7Z</time></trkpt><trkpt lat="42.9237756" lon="12.3726716"><ele>156.0</ele><time>2026-04-02T09:10:05.701Z</time></trkpt><trkpt lat="42.9237433" lon="12.3727812"><ele>156.0</ele><time>2026-04-02T09:10:06.703Z</time></trkpt><trkpt lat="42.9237122" lon="12.3728791"><ele>156.0</ele><time>2026-04-02T09:10:07.701Z</time></trkpt><trkpt lat="42.923685" lon="12.3729764"><ele>156.0</ele><time>2026-04-02T09:10:08.702Z</time></trkpt><trkpt lat="42.9236527" lon="12.3730807"><ele>156.0</ele><time>2026-04-02T09:10:09.704Z</time></trkpt><trkpt lat="42.9236213" lon="12.373192"><ele>156.0</ele><time>2026-04-02T09:10:10.698Z</time></trkpt><trkpt lat="42.9235929" lon="12.3733089"><ele>156.0</ele><time>2026-04-02T09:10:11.705Z</time></trkpt><trkpt lat="42.9235673" lon="12.3734039"><ele>156.0</ele><time>2026-04-02T09:10:12.701Z</time></trkpt><trkpt lat="42.9235464" lon="12.3735134"><ele>156.0</ele><time>2026-04-02T09:10:13.705Z</time></trkpt><trkpt lat="42.9235194" lon="12.3736321"><ele>156.0</ele><time>2026-04-02T09:10:14.702Z</time></trkpt><trkpt lat="42.9234882" lon="12.3737615"><ele>156.2</ele><time>2026-04-02T09:10:15.7Z</time></trkpt><trkpt lat="42.9234578" lon="12.3738864"><ele>156.39999999999998</ele><time>2026-04-02T09:10:16.703Z</time></trkpt><trkpt lat="42.9234212" lon="12.374016"><ele>156.6</ele><time>2026-04-02T09:10:17.705Z</time></trkpt><trkpt lat="42.9233944" lon="12.3741298"><ele>156.79999999999998</ele><time>2026-04-02T09:10:18.702Z</time></trkpt><trkpt lat="42.9233711" lon="12.3742653"><ele>157.0</ele><time>2026-04-02T09:10:19.705Z</time></trkpt><trkpt lat="42.9233484" lon="12.374397"><ele>157.0</ele><time>2026-04-02T09:10:20.705Z</time></trkpt><trkpt lat="42.9233122" lon="12.3745412"><ele>157.0</ele><time>2026-04-02T09:10:21.7Z</time></trkpt><trkpt lat="42.9232829" lon="12.374666"><ele>157.0</ele><time>2026-04-02T09:10:22.707Z</time></trkpt><trkpt lat="42.9232583" lon="12.3747878"><ele>157.0</ele><time>2026-04-02T09:10:23.703Z</time></trkpt><trkpt lat="42.9232355" lon="12.3748762"><ele>157.0</ele><time>2026-04-02T09:10:24.702Z</time></trkpt><trkpt lat="42.9231791" lon="12.3749936"><ele>157.0</ele><time>2026-04-02T09:10:26.704Z</time></trkpt><trkpt lat="42.9231009" lon="12.3749793"><ele>157.0</ele><time>2026-04-02T09:10:28.7Z</time></trkpt><trkpt lat="42.9230094" lon="12.3748628"><ele>157.0</ele><time>2026-04-02T09:10:30.699Z</time></trkpt><trkpt lat="42.9229546" lon="12.3747708"><ele>157.0</ele><time>2026-04-02T09:10:31.701Z</time></trkpt><trkpt lat="42.9229031" lon="12.3746674"><ele>157.0</ele><time>2026-04-02T09:10:32.698Z</time></trkpt><trkpt lat="42.9228557" lon="12.3745617"><ele>157.2</ele><time>2026-04-02T09:10:33.708Z</time></trkpt><trkpt lat="42.9228012" lon="12.3744655"><ele>157.39999999999998</ele><time>2026-04-02T09:10:34.703Z</time></trkpt><trkpt lat="42.9227406" lon="12.3743561"><ele>157.60000000000002</ele><time>2026-04-02T09:10:35.703Z</time></trkpt><trkpt lat="42.9226725" lon="12.374243"><ele>157.8</ele><time>2026-04-02T09:10:36.702Z</time></trkpt><trkpt lat="42.9226" lon="12.3741288"><ele>158.0</ele><time>2026-04-02T09:10:37.701Z</time></trkpt><trkpt lat="42.9225206" lon="12.3740078"><ele>157.5</ele><time>2026-04-02T09:10:38.701Z</time></trkpt><trkpt lat="42.9224416" lon="12.3738801"><ele>157.0</ele><time>2026-04-02T09:10:39.7Z</time></trkpt><trkpt lat="42.9223635" lon="12.3737412"><ele>156.5</ele><time>2026-04-02T09:10:40.705Z</time></trkpt><trkpt lat="42.9222905" lon="12.3736007"><ele>156.0</ele><time>2026-04-02T09:10:41.7Z</time></trkpt><trkpt lat="42.9222245" lon="12.3734778"><ele>155.8</ele><time>2026-04-02T09:10:42.7Z</time></trkpt><trkpt lat="42.9221596" lon="12.3733532"><ele>155.6</ele><time>2026-04-02T09:10:43.704Z</time></trkpt><trkpt lat="42.9221061" lon="12.373233"><ele>155.4</ele><time>2026-04-02T09:10:44.703Z</time></trkpt><trkpt lat="42.9220645" lon="12.3731353"><ele>155.2</ele><time>2026-04-02T09:10:45.701Z</time></trkpt><trkpt lat="42.9220076" lon="12.3730196"><ele>155.0</ele><time>2026-04-02T09:10:46.7Z</time></trkpt><trkpt lat="42.9219522" lon="12.372912"><ele>155.0</ele><time>2026-04-02T09:10:47.703Z</time></trkpt><trkpt lat="42.9218962" lon="12.3728054"><ele>155.0</ele><time>2026-04-02T09:10:48.705Z</time></trkpt><trkpt lat="42.9218461" lon="12.3727042"><ele>155.0</ele><time>2026-04-02T09:10:49.7Z</time></trkpt><trkpt lat="42.9217934" lon="12.3726152"><ele>155.0</ele><time>2026-04-02T09:10:50.706Z</time></trkpt><trkpt lat="42.9217496" lon="12.3725264"><ele>155.0</ele><time>2026-04-02T09:10:51.702Z</time></trkpt><trkpt lat="42.921703" lon="12.3724398"><ele>155.0</ele><time>2026-04-02T09:10:52.697Z</time></trkpt><trkpt lat="42.9216624" lon="12.3723532"><ele>155.0</ele><time>2026-04-02T09:10:53.713Z</time></trkpt><trkpt lat="42.9216131" lon="12.3722631"><ele>155.0</ele><time>2026-04-02T09:10:54.698Z</time></trkpt><trkpt lat="42.9215676" lon="12.3721818"><ele>155.0</ele><time>2026-04-02T09:10:55.698Z</time></trkpt><trkpt lat="42.9215268" lon="12.3721015"><ele>155.0</ele><time>2026-04-02T09:10:56.705Z</time></trkpt><trkpt lat="42.92148" lon="12.3720082"><ele>155.0</ele><time>2026-04-02T09:10:57.701Z</time></trkpt><trkpt lat="42.921426" lon="12.3719144"><ele>155.0</ele><time>2026-04-02T09:10:58.708Z</time></trkpt><trkpt lat="42.9213724" lon="12.3718158"><ele>155.0</ele><time>2026-04-02T09:10:59.708Z</time></trkpt><trkpt lat="42.9213148" lon="12.3717007"><ele>155.0</ele><time>2026-04-02T09:11:00.7Z</time></trkpt><trkpt lat="42.9212549" lon="12.3715852"><ele>155.0</ele><time>2026-04-02T09:11:01.701Z</time></trkpt><trkpt lat="42.9211907" lon="12.371463"><ele>155.0</ele><time>2026-04-02T09:11:02.699Z</time></trkpt><trkpt lat="42.9211301" lon="12.3713415"><ele>155.0</ele><time>2026-04-02T09:11:03.699Z</time></trkpt><trkpt lat="42.9210718" lon="12.3712257"><ele>155.14285714285714</ele><time>2026-04-02T09:11:04.707Z</time></trkpt><trkpt lat="42.9210181" lon="12.3711261"><ele>155.28571428571428</ele><time>2026-04-02T09:11:05.702Z</time></trkpt><trkpt lat="42.9209788" lon="12.3710398"><ele>155.42857142857144</ele><time>2026-04-02T09:11:06.7Z</time></trkpt><trkpt lat="42.9209412" lon="12.3709599"><ele>155.57142857142856</ele><time>2026-04-02T09:11:07.7Z</time></trkpt><trkpt lat="42.9209003" lon="12.3708925"><ele>155.7142857142857</ele><time>2026-04-02T09:11:08.704Z</time></trkpt><trkpt lat="42.9208639" lon="12.3708188"><ele>155.85714285714286</ele><time>2026-04-02T09:11:09.707Z</time></trkpt><trkpt lat="42.9208228" lon="12.3707343"><ele>156.0</ele><time>2026-04-02T09:11:10.703Z</time></trkpt><trkpt lat="42.9207664" lon="12.370639"><ele>155.83333333333334</ele><time>2026-04-02T09:11:11.701Z</time></trkpt><trkpt lat="42.9207193" lon="12.3705488"><ele>155.66666666666666</ele><time>2026-04-02T09:11:12.708Z</time></trkpt><trkpt lat="42.9206665" lon="12.3704496"><ele>155.5</ele><time>2026-04-02T09:11:13.703Z</time></trkpt><trkpt lat="42.9206204" lon="12.3703558"><ele>155.33333333333331</ele><time>2026-04-02T09:11:14.711Z</time></trkpt><trkpt lat="42.9205764" lon="12.3702719"><ele>155.16666666666666</ele><time>2026-04-02T09:11:15.701Z</time></trkpt><trkpt lat="42.9205372" lon="12.3702026"><ele>155.0</ele><time>2026-04-02T09:11:16.701Z</time></trkpt><trkpt lat="42.920468" lon="12.3701095"><ele>155.0</ele><time>2026-04-02T09:11:18.705Z</time></trkpt><trkpt lat="42.9203935" lon="12.3700474"><ele>155.0</ele><time>2026-04-02T09:11:20.706Z</time></trkpt><trkpt lat="42.9203453" lon="12.3699665"><ele>155.0</ele><time>2026-04-02T09:11:22.7Z</time></trkpt><trkpt lat="42.920285" lon="12.369844"><ele>155.0</ele><time>2026-04-02T09:11:24.704Z</time></trkpt><trkpt lat="42.9202013" lon="12.3697637"><ele>155.0</ele><time>2026-04-02T09:11:26.704Z</time></trkpt><trkpt lat="42.9200925" lon="12.3697934"><ele>155.0</ele><time>2026-04-02T09:11:28.701Z</time></trkpt><trkpt lat="42.9200197" lon="12.3698597"><ele>155.0</ele><time>2026-04-02T09:11:29.7Z</time></trkpt><trkpt lat="42.9199424" lon="12.3699287"><ele>155.0</ele><time>2026-04-02T09:11:30.711Z</time></trkpt><trkpt lat="42.9198734" lon="12.3699979"><ele>155.0</ele><time>2026-04-02T09:11:31.697Z</time></trkpt><trkpt lat="42.9198069" lon="12.3700587"><ele>155.0</ele><time>2026-04-02T09:11:32.7Z</time></trkpt><trkpt lat="42.919746" lon="12.3701213"><ele>155.0</ele><time>2026-04-02T09:11:33.698Z</time></trkpt><trkpt lat="42.9196901" lon="12.3701743"><ele>155.0</ele><time>2026-04-02T09:11:34.706Z</time></trkpt><trkpt lat="42.9196396" lon="12.3702288"><ele>155.0</ele><time>2026-04-02T09:11:35.698Z</time></trkpt><trkpt lat="42.9195544" lon="12.3703518"><ele>155.0</ele><time>2026-04-02T09:11:37.699Z</time></trkpt><trkpt lat="42.9194349" lon="12.3704324"><ele>155.0</ele><time>2026-04-02T09:11:39.708Z</time></trkpt><trkpt lat="42.9193506" lon="12.3705024"><ele>155.0</ele><time>2026-04-02T09:11:40.708Z</time></trkpt><trkpt lat="42.9192622" lon="12.3705764"><ele>155.16666666666666</ele><time>2026-04-02T09:11:41.701Z</time></trkpt><trkpt lat="42.9191845" lon="12.3706506"><ele>155.33333333333331</ele><time>2026-04-02T09:11:42.709Z</time></trkpt><trkpt lat="42.9191185" lon="12.3707176"><ele>155.5</ele><time>2026-04-02T09:11:43.703Z</time></trkpt><trkpt lat="42.9190538" lon="12.3707883"><ele>155.66666666666666</ele><time>2026-04-02T09:11:44.712Z</time></trkpt><trkpt lat="42.9189976" lon="12.3708576"><ele>155.83333333333334</ele><time>2026-04-02T09:11:45.701Z</time></trkpt><trkpt lat="42.9189465" lon="12.3709126"><ele>156.0</ele><time>2026-04-02T09:11:46.7Z</time></trkpt><trkpt lat="42.918862" lon="12.370981"><ele>156.0</ele><time>2026-04-02T09:11:48.7Z</time></trkpt><trkpt lat="42.9187605" lon="12.3709582"><ele>156.0</ele><time>2026-04-02T09:11:50.701Z</time></trkpt><trkpt lat="42.9186954" lon="12.3709281"><ele>156.0</ele><time>2026-04-02T09:11:51.702Z</time></trkpt><trkpt lat="42.9186333" lon="12.3709006"><ele>156.0</ele><time>2026-04-02T09:11:52.705Z</time></trkpt><trkpt lat="42.9185708" lon="12.3708678"><ele>156.0</ele><time>2026-04-02T09:11:53.704Z</time></trkpt><trkpt lat="42.9184967" lon="12.3708351"><ele>156.0</ele><time>2026-04-02T09:11:54.706Z</time></trkpt><trkpt lat="42.9184087" lon="12.3707925"><ele>156.2</ele><time>2026-04-02T09:11:55.706Z</time></trkpt><trkpt lat="42.9183164" lon="12.3707567"><ele>156.39999999999998</ele><time>2026-04-02T09:11:56.701Z</time></trkpt><trkpt lat="42.9182228" lon="12.3707151"><ele>156.6</ele><time>2026-04-02T09:11:57.705Z</time></trkpt><trkpt lat="42.9181133" lon="12.3706677"><ele>156.79999999999998</ele><time>2026-04-02T09:11:58.701Z</time></trkpt><trkpt lat="42.9180087" lon="12.370622"><ele>157.0</ele><time>2026-04-02T09:11:59.698Z</time></trkpt><trkpt lat="42.9179127" lon="12.3705703"><ele>157.0</ele><time>2026-04-02T09:12:00.7Z</time></trkpt><trkpt lat="42.9178249" lon="12.3705337"><ele>157.0</ele><time>2026-04-02T09:12:01.702Z</time></trkpt><trkpt lat="42.9177463" lon="12.3704921"><ele>157.0</ele><time>2026-04-02T09:12:02.704Z</time></trkpt><trkpt lat="42.9176739" lon="12.3704338"><ele>157.0</ele><time>2026-04-02T09:12:03.706Z</time></trkpt><trkpt lat="42.9176065" lon="12.3703652"><ele>157.0</ele><time>2026-04-02T09:12:04.702Z</time></trkpt><trkpt lat="42.9175428" lon="12.3702936"><ele>157.0</ele><time>2026-04-02T09:12:05.704Z</time></trkpt><trkpt lat="42.9174952" lon="12.3702105"><ele>157.0</ele><time>2026-04-02T09:12:06.702Z</time></trkpt><trkpt lat="42.91746" lon="12.3701236"><ele>157.0</ele><time>2026-04-02T09:12:07.704Z</time></trkpt><trkpt lat="42.9174266" lon="12.3700311"><ele>157.0</ele><time>2026-04-02T09:12:08.704Z</time></trkpt><trkpt lat="42.917395" lon="12.3699368"><ele>157.0</ele><time>2026-04-02T09:12:09.703Z</time></trkpt><trkpt lat="42.9173601" lon="12.3698407"><ele>157.0</ele><time>2026-04-02T09:12:10.703Z</time></trkpt><trkpt lat="42.9173314" lon="12.3697553"><ele>157.0</ele><time>2026-04-02T09:12:11.701Z</time></trkpt><trkpt lat="42.9172998" lon="12.3696223"><ele>157.0</ele><time>2026-04-02T09:12:13.703Z</time></trkpt><trkpt lat="42.9172884" lon="12.3695115"><ele>157.0</ele><time>2026-04-02T09:12:15.702Z</time></trkpt><trkpt lat="42.9173115" lon="12.3693885"><ele>157.0</ele><time>2026-04-02T09:12:17.701Z</time></trkpt><trkpt lat="42.917334" lon="12.3692978"><ele>157.0</ele><time>2026-04-02T09:12:18.705Z</time></trkpt><trkpt lat="42.9173491" lon="12.3691966"><ele>157.0</ele><time>2026-04-02T09:12:19.701Z</time></trkpt><trkpt lat="42.9173726" lon="12.3690742"><ele>157.0</ele><time>2026-04-02T09:12:20.702Z</time></trkpt><trkpt lat="42.9173849" lon="12.3689407"><ele>157.0</ele><time>2026-04-02T09:12:21.704Z</time></trkpt><trkpt lat="42.9173975" lon="12.3687864"><ele>157.0</ele><time>2026-04-02T09:12:22.699Z</time></trkpt><trkpt lat="42.9174132" lon="12.3686249"><ele>157.0</ele><time>2026-04-02T09:12:23.697Z</time></trkpt><trkpt lat="42.9174186" lon="12.3684515"><ele>157.0</ele><time>2026-04-02T09:12:24.707Z</time></trkpt><trkpt lat="42.917425" lon="12.3682779"><ele>157.0</ele><time>2026-04-02T09:12:25.699Z</time></trkpt><trkpt lat="42.9174303" lon="12.3680985"><ele>157.0</ele><time>2026-04-02T09:12:26.701Z</time></trkpt><trkpt lat="42.9174343" lon="12.3679117"><ele>157.0</ele><time>2026-04-02T09:12:27.702Z</time></trkpt><trkpt lat="42.9174364" lon="12.3677139"><ele>157.0</ele><time>2026-04-02T09:12:28.702Z</time></trkpt><trkpt lat="42.9174424" lon="12.367508"><ele>157.5</ele><time>2026-04-02T09:12:29.698Z</time></trkpt><trkpt lat="42.9174511" lon="12.3672988"><ele>158.0</ele><time>2026-04-02T09:12:30.703Z</time></trkpt><trkpt lat="42.9174589" lon="12.3671089"><ele>158.5</ele><time>2026-04-02T09:12:31.703Z</time></trkpt><trkpt lat="42.9174669" lon="12.3669393"><ele>159.0</ele><time>2026-04-02T09:12:32.696Z</time></trkpt><trkpt lat="42.9174744" lon="12.3667811"><ele>159.75</ele><time>2026-04-02T09:12:33.703Z</time></trkpt><trkpt lat="42.9174819" lon="12.3666407"><ele>160.5</ele><time>2026-04-02T09:12:34.7Z</time></trkpt><trkpt lat="42.917509" lon="12.366488"><ele>161.25</ele><time>2026-04-02T09:12:35.702Z</time></trkpt><trkpt lat="42.9175607" lon="12.3663366"><ele>162.0</ele><time>2026-04-02T09:12:36.704Z</time></trkpt><trkpt lat="42.917625" lon="12.3661898"><ele>164.75</ele><time>2026-04-02T09:12:37.698Z</time></trkpt><trkpt lat="42.9176989" lon="12.3660369"><ele>167.5</ele><time>2026-04-02T09:12:38.7Z</time></trkpt><trkpt lat="42.9177754" lon="12.3658703"><ele>170.25</ele><time>2026-04-02T09:12:39.701Z</time></trkpt><trkpt lat="42.9178562" lon="12.3657061"><ele>173.0</ele><time>2026-04-02T09:12:40.701Z</time></trkpt><trkpt lat="42.9179408" lon="12.3655379"><ele>172.0</ele><time>2026-04-02T09:12:41.7Z</time></trkpt><trkpt lat="42.9180195" lon="12.3653862"><ele>171.0</ele><time>2026-04-02T09:12:42.7Z</time></trkpt><trkpt lat="42.9180907" lon="12.3652496"><ele>170.0</ele><time>2026-04-02T09:12:43.699Z</time></trkpt><trkpt lat="42.9181351" lon="12.3651298"><ele>169.0</ele><time>2026-04-02T09:12:44.697Z</time></trkpt><trkpt lat="42.9181557" lon="12.365002"><ele>169.0</ele><time>2026-04-02T09:12:45.702Z</time></trkpt><trkpt lat="42.9181715" lon="12.3648721"><ele>169.0</ele><time>2026-04-02T09:12:46.705Z</time></trkpt><trkpt lat="42.9181874" lon="12.3647284"><ele>169.0</ele><time>2026-04-02T09:12:47.701Z</time></trkpt><trkpt lat="42.918198" lon="12.3645848"><ele>169.0</ele><time>2026-04-02T09:12:48.702Z</time></trkpt><trkpt lat="42.9181963" lon="12.3644281"><ele>169.0</ele><time>2026-04-02T09:12:49.704Z</time></trkpt><trkpt lat="42.9181921" lon="12.3642708"><ele>169.0</ele><time>2026-04-02T09:12:50.705Z</time></trkpt><trkpt lat="42.9181908" lon="12.3641115"><ele>169.0</ele><time>2026-04-02T09:12:51.702Z</time></trkpt><trkpt lat="42.9181914" lon="12.3639442"><ele>169.0</ele><time>2026-04-02T09:12:52.701Z</time></trkpt><trkpt lat="42.9181965" lon="12.363776"><ele>169.0</ele><time>2026-04-02T09:12:53.7Z</time></trkpt><trkpt lat="42.9182021" lon="12.3635994"><ele>169.0</ele><time>2026-04-02T09:12:54.707Z</time></trkpt><trkpt lat="42.9182154" lon="12.3634257"><ele>169.0</ele><time>2026-04-02T09:12:55.7Z</time></trkpt><trkpt lat="42.9182306" lon="12.3632587"><ele>169.0</ele><time>2026-04-02T09:12:56.701Z</time></trkpt><trkpt lat="42.9182457" lon="12.3631001"><ele>169.0</ele><time>2026-04-02T09:12:57.702Z</time></trkpt><trkpt lat="42.918255" lon="12.3629732"><ele>169.2</ele><time>2026-04-02T09:12:58.702Z</time></trkpt><trkpt lat="42.9182645" lon="12.362844"><ele>169.39999999999998</ele><time>2026-04-02T09:12:59.708Z</time></trkpt><trkpt lat="42.918269" lon="12.3627107"><ele>169.6</ele><time>2026-04-02T09:13:00.705Z</time></trkpt><trkpt lat="42.9182698" lon="12.3625767"><ele>169.8</ele><time>2026-04-02T09:13:01.707Z</time></trkpt><trkpt lat="42.9182598" lon="12.3624267"><ele>170.0</ele><time>2026-04-02T09:13:02.704Z</time></trkpt><trkpt lat="42.918248" lon="12.362278"><ele>170.6</ele><time>2026-04-02T09:13:03.705Z</time></trkpt><trkpt lat="42.9182272" lon="12.3621191"><ele>171.2</ele><time>2026-04-02T09:13:04.703Z</time></trkpt><trkpt lat="42.9181967" lon="12.361982"><ele>171.8</ele><time>2026-04-02T09:13:05.7Z</time></trkpt><trkpt lat="42.9181773" lon="12.3618538"><ele>172.4</ele><time>2026-04-02T09:13:06.703Z</time></trkpt><trkpt lat="42.9181578" lon="12.3617196"><ele>173.0</ele><time>2026-04-02T09:13:07.699Z</time></trkpt><trkpt lat="42.9181391" lon="12.3615836"><ele>173.0</ele><time>2026-04-02T09:13:08.708Z</time></trkpt><trkpt lat="42.9181205" lon="12.3614497"><ele>173.0</ele><time>2026-04-02T09:13:09.703Z</time></trkpt><trkpt lat="42.9181062" lon="12.3613228"><ele>173.0</ele><time>2026-04-02T09:13:10.71Z</time></trkpt><trkpt lat="42.918087" lon="12.3611927"><ele>173.0</ele><time>2026-04-02T09:13:11.708Z</time></trkpt><trkpt lat="42.9180639" lon="12.3610573"><ele>173.0</ele><time>2026-04-02T09:13:12.704Z</time></trkpt><trkpt lat="42.9180564" lon="12.3609141"><ele>172.2</ele><time>2026-04-02T09:13:13.703Z</time></trkpt><trkpt lat="42.9180394" lon="12.3607732"><ele>171.4</ele><time>2026-04-02T09:13:14.699Z</time></trkpt><trkpt lat="42.9180167" lon="12.3606338"><ele>170.6</ele><time>2026-04-02T09:13:15.699Z</time></trkpt><trkpt lat="42.9179776" lon="12.3604991"><ele>169.79999999999998</ele><time>2026-04-02T09:13:16.703Z</time></trkpt><trkpt lat="42.9179275" lon="12.3603554"><ele>169.0</ele><time>2026-04-02T09:13:17.702Z</time></trkpt><trkpt lat="42.9178729" lon="12.3602186"><ele>168.75</ele><time>2026-04-02T09:13:18.703Z</time></trkpt><trkpt lat="42.917799" lon="12.3600775"><ele>168.5</ele><time>2026-04-02T09:13:19.703Z</time></trkpt><trkpt lat="42.9177255" lon="12.3599266"><ele>168.25</ele><time>2026-04-02T09:13:20.706Z</time></trkpt><trkpt lat="42.9176569" lon="12.3597758"><ele>168.0</ele><time>2026-04-02T09:13:21.701Z</time></trkpt><trkpt lat="42.9175893" lon="12.3596211"><ele>167.75</ele><time>2026-04-02T09:13:22.704Z</time></trkpt><trkpt lat="42.9175248" lon="12.3594597"><ele>167.5</ele><time>2026-04-02T09:13:23.703Z</time></trkpt><trkpt lat="42.9174645" lon="12.3592875"><ele>167.25</ele><time>2026-04-02T09:13:24.702Z</time></trkpt><trkpt lat="42.9174085" lon="12.3591071"><ele>167.0</ele><time>2026-04-02T09:13:25.711Z</time></trkpt><trkpt lat="42.9173514" lon="12.3589215"><ele>167.66666666666666</ele><time>2026-04-02T09:13:26.699Z</time></trkpt><trkpt lat="42.917294" lon="12.3587379"><ele>168.33333333333334</ele><time>2026-04-02T09:13:27.703Z</time></trkpt><trkpt lat="42.9172376" lon="12.3585437"><ele>169.0</ele><time>2026-04-02T09:13:28.703Z</time></trkpt><trkpt lat="42.9171925" lon="12.3583397"><ele>169.0</ele><time>2026-04-02T09:13:29.707Z</time></trkpt><trkpt lat="42.9171412" lon="12.3581272"><ele>169.0</ele><time>2026-04-02T09:13:30.706Z</time></trkpt><trkpt lat="42.917095" lon="12.3579048"><ele>169.0</ele><time>2026-04-02T09:13:31.705Z</time></trkpt><trkpt lat="42.9170475" lon="12.3576785"><ele>169.66666666666669</ele><time>2026-04-02T09:13:32.705Z</time></trkpt><trkpt lat="42.9169914" lon="12.3574367"><ele>170.33333333333334</ele><time>2026-04-02T09:13:33.706Z</time></trkpt><trkpt lat="42.9169215" lon="12.3571904"><ele>171.0</ele><time>2026-04-02T09:13:34.704Z</time></trkpt><trkpt lat="42.9168556" lon="12.35697"><ele>171.0</ele><time>2026-04-02T09:13:35.7Z</time></trkpt><trkpt lat="42.9167927" lon="12.3567627"><ele>171.0</ele><time>2026-04-02T09:13:36.698Z</time></trkpt><trkpt lat="42.9167329" lon="12.3565691"><ele>171.0</ele><time>2026-04-02T09:13:37.7Z</time></trkpt><trkpt lat="42.9166766" lon="12.356382"><ele>168.0</ele><time>2026-04-02T09:13:38.698Z</time></trkpt><trkpt lat="42.9166297" lon="12.3561831"><ele>165.0</ele><time>2026-04-02T09:13:39.702Z</time></trkpt><trkpt lat="42.9165855" lon="12.3559718"><ele>162.0</ele><time>2026-04-02T09:13:40.701Z</time></trkpt><trkpt lat="42.9165589" lon="12.3557499"><ele>163.0</ele><time>2026-04-02T09:13:41.707Z</time></trkpt><trkpt lat="42.9165466" lon="12.3555219"><ele>164.0</ele><time>2026-04-02T09:13:42.704Z</time></trkpt><trkpt lat="42.9165448" lon="12.3552811"><ele>165.0</ele><time>2026-04-02T09:13:43.706Z</time></trkpt><trkpt lat="42.9165636" lon="12.3550492"><ele>165.0</ele><time>2026-04-02T09:13:44.701Z</time></trkpt><trkpt lat="42.9165997" lon="12.3548136"><ele>165.0</ele><time>2026-04-02T09:13:45.7Z</time></trkpt><trkpt lat="42.9166324" lon="12.354604"><ele>165.0</ele><time>2026-04-02T09:13:46.714Z</time></trkpt><trkpt lat="42.9166588" lon="12.3544125"><ele>165.0</ele><time>2026-04-02T09:13:47.7Z</time></trkpt><trkpt lat="42.9166812" lon="12.3542192"><ele>165.0</ele><time>2026-04-02T09:13:48.702Z</time></trkpt><trkpt lat="42.9167016" lon="12.3540371"><ele>165.0</ele><time>2026-04-02T09:13:49.7Z</time></trkpt><trkpt lat="42.9167321" lon="12.3538625"><ele>165.0</ele><time>2026-04-02T09:13:50.708Z</time></trkpt><trkpt lat="42.9167696" lon="12.353677"><ele>165.0</ele><time>2026-04-02T09:13:51.705Z</time></trkpt><trkpt lat="42.9167836" lon="12.3534788"><ele>165.0</ele><time>2026-04-02T09:13:52.707Z</time></trkpt><trkpt lat="42.9167828" lon="12.3532923"><ele>165.0</ele><time>2026-04-02T09:13:53.698Z</time></trkpt><trkpt lat="42.9167802" lon="12.3531051"><ele>165.0</ele><time>2026-04-02T09:13:54.704Z</time></trkpt><trkpt lat="42.9167722" lon="12.3529301"><ele>165.0</ele><time>2026-04-02T09:13:55.706Z</time></trkpt><trkpt lat="42.916772" lon="12.3527503"><ele>165.0</ele><time>2026-04-02T09:13:56.706Z</time></trkpt><trkpt lat="42.9167861" lon="12.3525652"><ele>165.0</ele><time>2026-04-02T09:13:57.706Z</time></trkpt><trkpt lat="42.916821" lon="12.3523821"><ele>165.0</ele><time>2026-04-02T09:13:58.704Z</time></trkpt><trkpt lat="42.9168691" lon="12.3521978"><ele>165.25</ele><time>2026-04-02T09:13:59.701Z</time></trkpt><trkpt lat="42.9169127" lon="12.3520244"><ele>165.5</ele><time>2026-04-02T09:14:00.707Z</time></trkpt><trkpt lat="42.9169534" lon="12.3518581"><ele>165.75</ele><time>2026-04-02T09:14:01.701Z</time></trkpt><trkpt lat="42.9169912" lon="12.3517051"><ele>166.0</ele><time>2026-04-02T09:14:02.713Z</time></trkpt><trkpt lat="42.9170214" lon="12.3515662"><ele>166.0</ele><time>2026-04-02T09:14:03.707Z</time></trkpt><trkpt lat="42.9170489" lon="12.3514527"><ele>166.0</ele><time>2026-04-02T09:14:04.705Z</time></trkpt><trkpt lat="42.9170538" lon="12.3513351"><ele>166.0</ele><time>2026-04-02T09:14:06.7Z</time></trkpt><trkpt lat="42.9169977" lon="12.3512889"><ele>166.0</ele><time>2026-04-02T09:14:08.7Z</time></trkpt><trkpt lat="42.9168987" lon="12.3513123"><ele>166.0</ele><time>2026-04-02T09:14:10.707Z</time></trkpt><trkpt lat="42.9168217" lon="12.3513202"><ele>166.0</ele><time>2026-04-02T09:14:11.703Z</time></trkpt><trkpt lat="42.9167293" lon="12.3513158"><ele>165.25</ele><time>2026-04-02T09:14:12.703Z</time></trkpt><trkpt lat="42.9166252" lon="12.3513092"><ele>164.5</ele><time>2026-04-02T09:14:13.7Z</time></trkpt><trkpt lat="42.9165088" lon="12.3512988"><ele>163.75</ele><time>2026-04-02T09:14:14.699Z</time></trkpt><trkpt lat="42.9163857" lon="12.3512966"><ele>163.0</ele><time>2026-04-02T09:14:15.708Z</time></trkpt><trkpt lat="42.9162551" lon="12.3512813"><ele>163.0</ele><time>2026-04-02T09:14:16.702Z</time></trkpt><trkpt lat="42.9161138" lon="12.3512765"><ele>163.0</ele><time>2026-04-02T09:14:17.706Z</time></trkpt><trkpt lat="42.9159705" lon="12.3512711"><ele>163.0</ele><time>2026-04-02T09:14:18.707Z</time></trkpt><trkpt lat="42.9158223" lon="12.3512656"><ele>163.0</ele><time>2026-04-02T09:14:19.704Z</time></trkpt><trkpt lat="42.9156701" lon="12.3512615"><ele>162.75</ele><time>2026-04-02T09:14:20.702Z</time></trkpt><trkpt lat="42.9155233" lon="12.3512695"><ele>162.5</ele><time>2026-04-02T09:14:21.702Z</time></trkpt><trkpt lat="42.9153864" lon="12.35127"><ele>162.25</ele><time>2026-04-02T09:14:22.704Z</time></trkpt><trkpt lat="42.9152589" lon="12.3512613"><ele>162.0</ele><time>2026-04-02T09:14:23.698Z</time></trkpt><trkpt lat="42.9151461" lon="12.3512367"><ele>162.0</ele><time>2026-04-02T09:14:24.7Z</time></trkpt><trkpt lat="42.9150377" lon="12.3512016"><ele>162.0</ele><time>2026-04-02T09:14:25.698Z</time></trkpt><trkpt lat="42.9149397" lon="12.3511384"><ele>162.0</ele><time>2026-04-02T09:14:26.706Z</time></trkpt><trkpt lat="42.914853" lon="12.3510403"><ele>162.0</ele><time>2026-04-02T09:14:27.702Z</time></trkpt><trkpt lat="42.914777" lon="12.3509045"><ele>162.0</ele><time>2026-04-02T09:14:28.706Z</time></trkpt><trkpt lat="42.9147255" lon="12.3507372"><ele>162.0</ele><time>2026-04-02T09:14:29.7Z</time></trkpt><trkpt lat="42.9147021" lon="12.3505382"><ele>162.0</ele><time>2026-04-02T09:14:30.702Z</time></trkpt><trkpt lat="42.9146872" lon="12.350321"><ele>162.0</ele><time>2026-04-02T09:14:31.698Z</time></trkpt><trkpt lat="42.9146638" lon="12.3500959"><ele>162.33333333333334</ele><time>2026-04-02T09:14:32.701Z</time></trkpt><trkpt lat="42.9146401" lon="12.349876"><ele>162.66666666666669</ele><time>2026-04-02T09:14:33.704Z</time></trkpt><trkpt lat="42.9146153" lon="12.3496458"><ele>163.0</ele><time>2026-04-02T09:14:34.706Z</time></trkpt><trkpt lat="42.9145977" lon="12.3494095"><ele>163.0</ele><time>2026-04-02T09:14:35.705Z</time></trkpt><trkpt lat="42.9145759" lon="12.3491707"><ele>163.0</ele><time>2026-04-02T09:14:36.703Z</time></trkpt><trkpt lat="42.914557" lon="12.3489261"><ele>163.0</ele><time>2026-04-02T09:14:37.704Z</time></trkpt><trkpt lat="42.9145414" lon="12.3486844"><ele>162.66666666666669</ele><time>2026-04-02T09:14:38.712Z</time></trkpt><trkpt lat="42.9145292" lon="12.348445"><ele>162.33333333333334</ele><time>2026-04-02T09:14:39.701Z</time></trkpt><trkpt lat="42.9145171" lon="12.3482081"><ele>162.0</ele><time>2026-04-02T09:14:40.71Z</time></trkpt><trkpt lat="42.9144945" lon="12.3479802"><ele>162.0</ele><time>2026-04-02T09:14:41.709Z</time></trkpt><trkpt lat="42.9144758" lon="12.3477505"><ele>162.0</ele><time>2026-04-02T09:14:42.71Z</time></trkpt><trkpt lat="42.9144588" lon="12.3475265"><ele>162.0</ele><time>2026-04-02T09:14:43.7Z</time></trkpt><trkpt lat="42.9144441" lon="12.3473017"><ele>162.25</ele><time>2026-04-02T09:14:44.703Z</time></trkpt><trkpt lat="42.9144336" lon="12.3470947"><ele>162.5</ele><time>2026-04-02T09:14:45.703Z</time></trkpt><trkpt lat="42.9144317" lon="12.3469088"><ele>162.75</ele><time>2026-04-02T09:14:46.706Z</time></trkpt><trkpt lat="42.914434" lon="12.3467288"><ele>163.0</ele><time>2026-04-02T09:14:47.706Z</time></trkpt><trkpt lat="42.9144405" lon="12.346566"><ele>163.0</ele><time>2026-04-02T09:14:48.706Z</time></trkpt><trkpt lat="42.9144514" lon="12.3464337"><ele>163.0</ele><time>2026-04-02T09:14:49.7Z</time></trkpt><trkpt lat="42.9144843" lon="12.3463399"><ele>163.0</ele><time>2026-04-02T09:14:50.701Z</time></trkpt><trkpt lat="42.9145409" lon="12.3462701"><ele>163.0</ele><time>2026-04-02T09:14:51.704Z</time></trkpt><trkpt lat="42.9146261" lon="12.346235"><ele>163.0</ele><time>2026-04-02T09:14:52.702Z</time></trkpt><trkpt lat="42.9147301" lon="12.3462248"><ele>163.0</ele><time>2026-04-02T09:14:53.7Z</time></trkpt><trkpt lat="42.9148375" lon="12.3462225"><ele>163.0</ele><time>2026-04-02T09:14:54.703Z</time></trkpt><trkpt lat="42.9149541" lon="12.3462242"><ele>163.0</ele><time>2026-04-02T09:14:55.703Z</time></trkpt><trkpt lat="42.9150715" lon="12.3462112"><ele>163.0</ele><time>2026-04-02T09:14:56.697Z</time></trkpt><trkpt lat="42.9151809" lon="12.3461955"><ele>163.0</ele><time>2026-04-02T09:14:57.706Z</time></trkpt><trkpt lat="42.9152762" lon="12.3461871"><ele>163.0</ele><time>2026-04-02T09:14:58.705Z</time></trkpt><trkpt lat="42.9153676" lon="12.3461534"><ele>163.0</ele><time>2026-04-02T09:14:59.706Z</time></trkpt><trkpt lat="42.9154385" lon="12.3460792"><ele>163.0</ele><time>2026-04-02T09:15:00.707Z</time></trkpt><trkpt lat="42.9154936" lon="12.3459903"><ele>163.0</ele><time>2026-04-02T09:15:01.707Z</time></trkpt><trkpt lat="42.9155244" lon="12.345871"><ele>163.0</ele><time>2026-04-02T09:15:02.705Z</time></trkpt><trkpt lat="42.9155312" lon="12.345739"><ele>163.0</ele><time>2026-04-02T09:15:03.708Z</time></trkpt><trkpt lat="42.9155298" lon="12.3456216"><ele>163.16666666666669</ele><time>2026-04-02T09:15:04.706Z</time></trkpt><trkpt lat="42.9155317" lon="12.3455103"><ele>163.33333333333334</ele><time>2026-04-02T09:15:05.701Z</time></trkpt><trkpt lat="42.9155311" lon="12.3454218"><ele>163.5</ele><time>2026-04-02T09:15:06.702Z</time></trkpt><trkpt lat="42.9155348" lon="12.3453182"><ele>163.66666666666666</ele><time>2026-04-02T09:15:08.707Z</time></trkpt><trkpt lat="42.9155005" lon="12.3452127"><ele>163.83333333333331</ele><time>2026-04-02T09:15:32.701Z</time></trkpt><trkpt lat="42.9153778" lon="12.3451803"><ele>164.0</ele><time>2026-04-02T09:15:34.702Z</time></trkpt><trkpt lat="42.9152968" lon="12.345168"><ele>164.0</ele><time>2026-04-02T09:15:35.701Z</time></trkpt><trkpt lat="42.9151891" lon="12.3451717"><ele>164.0</ele><time>2026-04-02T09:15:36.71Z</time></trkpt><trkpt lat="42.9150776" lon="12.3451727"><ele>164.0</ele><time>2026-04-02T09:15:37.709Z</time></trkpt><trkpt lat="42.9149551" lon="12.3451728"><ele>164.0</ele><time>2026-04-02T09:15:38.705Z</time></trkpt><trkpt lat="42.9148365" lon="12.3451741"><ele>164.0</ele><time>2026-04-02T09:15:39.701Z</time></trkpt><trkpt lat="42.9147117" lon="12.3451835"><ele>164.0</ele><time>2026-04-02T09:15:40.702Z</time></trkpt><trkpt lat="42.9145884" lon="12.3451947"><ele>164.0</ele><time>2026-04-02T09:15:41.701Z</time></trkpt><trkpt lat="42.9144719" lon="12.3451997"><ele>164.0</ele><time>2026-04-02T09:15:42.701Z</time></trkpt><trkpt lat="42.9143759" lon="12.3452035"><ele>164.0</ele><time>2026-04-02T09:15:43.708Z</time></trkpt><trkpt lat="42.9142661" lon="12.3452171"><ele>164.0</ele><time>2026-04-02T09:15:44.703Z</time></trkpt><trkpt lat="42.9141655" lon="12.3452331"><ele>164.0</ele><time>2026-04-02T09:15:45.707Z</time></trkpt><trkpt lat="42.9140512" lon="12.3452498"><ele>164.0</ele><time>2026-04-02T09:15:46.705Z</time></trkpt><trkpt lat="42.9139258" lon="12.3452621"><ele>163.75</ele><time>2026-04-02T09:15:47.703Z</time></trkpt><trkpt lat="42.9138011" lon="12.3452678"><ele>163.5</ele><time>2026-04-02T09:15:48.706Z</time></trkpt><trkpt lat="42.9136685" lon="12.3452881"><ele>163.25</ele><time>2026-04-02T09:15:49.704Z</time></trkpt><trkpt lat="42.9135268" lon="12.3453058"><ele>163.0</ele><time>2026-04-02T09:15:50.701Z</time></trkpt><trkpt lat="42.9133915" lon="12.3453216"><ele>162.0</ele><time>2026-04-02T09:15:51.701Z</time></trkpt><trkpt lat="42.9132469" lon="12.3453424"><ele>161.0</ele><time>2026-04-02T09:15:52.703Z</time></trkpt><trkpt lat="42.9130915" lon="12.3453677"><ele>160.0</ele><time>2026-04-02T09:15:53.702Z</time></trkpt><trkpt lat="42.9129304" lon="12.3453873"><ele>160.0</ele><time>2026-04-02T09:15:54.703Z</time></trkpt><trkpt lat="42.9127633" lon="12.3454122"><ele>160.0</ele><time>2026-04-02T09:15:55.704Z</time></trkpt><trkpt lat="42.9125958" lon="12.3454327"><ele>160.0</ele><time>2026-04-02T09:15:56.7Z</time></trkpt><trkpt lat="42.9124224" lon="12.3454536"><ele>160.33333333333334</ele><time>2026-04-02T09:15:57.708Z</time></trkpt><trkpt lat="42.912249" lon="12.3454773"><ele>160.66666666666666</ele><time>2026-04-02T09:15:58.703Z</time></trkpt><trkpt lat="42.9120808" lon="12.3455048"><ele>161.0</ele><time>2026-04-02T09:15:59.7Z</time></trkpt><trkpt lat="42.9119165" lon="12.3455379"><ele>161.0</ele><time>2026-04-02T09:16:00.699Z</time></trkpt><trkpt lat="42.9117544" lon="12.3455817"><ele>161.0</ele><time>2026-04-02T09:16:01.701Z</time></trkpt><trkpt lat="42.9115962" lon="12.3456267"><ele>161.0</ele><time>2026-04-02T09:16:02.701Z</time></trkpt><trkpt lat="42.9114405" lon="12.3456747"><ele>160.66666666666666</ele><time>2026-04-02T09:16:03.703Z</time></trkpt><trkpt lat="42.9112886" lon="12.3457242"><ele>160.33333333333334</ele><time>2026-04-02T09:16:04.71Z</time></trkpt><trkpt lat="42.9111309" lon="12.3457811"><ele>160.0</ele><time>2026-04-02T09:16:05.701Z</time></trkpt><trkpt lat="42.9109782" lon="12.3458357"><ele>160.0</ele><time>2026-04-02T09:16:06.703Z</time></trkpt><trkpt lat="42.9108302" lon="12.3458903"><ele>160.0</ele><time>2026-04-02T09:16:07.701Z</time></trkpt><trkpt lat="42.9106847" lon="12.3459571"><ele>160.0</ele><time>2026-04-02T09:16:08.701Z</time></trkpt><trkpt lat="42.9105351" lon="12.3460162"><ele>160.0</ele><time>2026-04-02T09:16:09.701Z</time></trkpt><trkpt lat="42.9103887" lon="12.3460693"><ele>160.0</ele><time>2026-04-02T09:16:10.699Z</time></trkpt><trkpt lat="42.9102398" lon="12.346125"><ele>160.0</ele><time>2026-04-02T09:16:11.703Z</time></trkpt><trkpt lat="42.9100976" lon="12.3461778"><ele>160.25</ele><time>2026-04-02T09:16:12.702Z</time></trkpt><trkpt lat="42.909955" lon="12.3462312"><ele>160.5</ele><time>2026-04-02T09:16:13.708Z</time></trkpt><trkpt lat="42.9098127" lon="12.3462828"><ele>160.75</ele><time>2026-04-02T09:16:14.702Z</time></trkpt><trkpt lat="42.90967" lon="12.3463346"><ele>161.0</ele><time>2026-04-02T09:16:15.7Z</time></trkpt><trkpt lat="42.9095232" lon="12.3463832"><ele>161.0</ele><time>2026-04-02T09:16:16.702Z</time></trkpt><trkpt lat="42.909379" lon="12.3464389"><ele>161.0</ele><time>2026-04-02T09:16:17.7Z</time></trkpt><trkpt lat="42.9092331" lon="12.346491"><ele>161.0</ele><time>2026-04-02T09:16:18.7Z</time></trkpt><trkpt lat="42.9090886" lon="12.3465501"><ele>163.0</ele><time>2026-04-02T09:16:19.702Z</time></trkpt><trkpt lat="42.9089471" lon="12.3466"><ele>165.0</ele><time>2026-04-02T09:16:20.7Z</time></trkpt><trkpt lat="42.9087988" lon="12.3466417"><ele>167.0</ele><time>2026-04-02T09:16:21.698Z</time></trkpt><trkpt lat="42.9086482" lon="12.3466743"><ele>167.0</ele><time>2026-04-02T09:16:22.709Z</time></trkpt><trkpt lat="42.9085001" lon="12.346695"><ele>167.0</ele><time>2026-04-02T09:16:23.705Z</time></trkpt><trkpt lat="42.9083465" lon="12.3467112"><ele>167.0</ele><time>2026-04-02T09:16:24.704Z</time></trkpt><trkpt lat="42.9081833" lon="12.346731"><ele>168.33333333333331</ele><time>2026-04-02T09:16:25.701Z</time></trkpt><trkpt lat="42.9080097" lon="12.3467457"><ele>169.66666666666666</ele><time>2026-04-02T09:16:26.701Z</time></trkpt><trkpt lat="42.9078246" lon="12.3467642"><ele>171.0</ele><time>2026-04-02T09:16:27.704Z</time></trkpt><trkpt lat="42.907643" lon="12.3467735"><ele>171.33333333333334</ele><time>2026-04-02T09:16:28.701Z</time></trkpt><trkpt lat="42.9074483" lon="12.3467821"><ele>171.66666666666669</ele><time>2026-04-02T09:16:29.713Z</time></trkpt><trkpt lat="42.9072528" lon="12.3467818"><ele>172.0</ele><time>2026-04-02T09:16:30.7Z</time></trkpt><trkpt lat="42.9070624" lon="12.3467871"><ele>172.0</ele><time>2026-04-02T09:16:31.702Z</time></trkpt><trkpt lat="42.9068699" lon="12.3467789"><ele>172.0</ele><time>2026-04-02T09:16:32.7Z</time></trkpt><trkpt lat="42.9066836" lon="12.3467677"><ele>172.0</ele><time>2026-04-02T09:16:33.7Z</time></trkpt><trkpt lat="42.9064953" lon="12.3467513"><ele>171.66666666666669</ele><time>2026-04-02T09:16:34.701Z</time></trkpt><trkpt lat="42.906315" lon="12.3467296"><ele>171.33333333333334</ele><time>2026-04-02T09:16:35.704Z</time></trkpt><trkpt lat="42.9061405" lon="12.346698"><ele>171.0</ele><time>2026-04-02T09:16:36.7Z</time></trkpt><trkpt lat="42.9059713" lon="12.3466545"><ele>173.0</ele><time>2026-04-02T09:16:37.704Z</time></trkpt><trkpt lat="42.9058094" lon="12.3465988"><ele>175.0</ele><time>2026-04-02T09:16:38.699Z</time></trkpt><trkpt lat="42.905658" lon="12.3465307"><ele>177.0</ele><time>2026-04-02T09:16:39.702Z</time></trkpt><trkpt lat="42.9055139" lon="12.346461"><ele>177.0</ele><time>2026-04-02T09:16:40.7Z</time></trkpt><trkpt lat="42.9053783" lon="12.3463874"><ele>177.0</ele><time>2026-04-02T09:16:41.7Z</time></trkpt><trkpt lat="42.9052488" lon="12.3463143"><ele>177.0</ele><time>2026-04-02T09:16:42.701Z</time></trkpt><trkpt lat="42.9051317" lon="12.3462445"><ele>177.0</ele><time>2026-04-02T09:16:43.702Z</time></trkpt><trkpt lat="42.9050247" lon="12.3461783"><ele>177.16666666666666</ele><time>2026-04-02T09:16:44.7Z</time></trkpt><trkpt lat="42.904924" lon="12.346121"><ele>177.33333333333334</ele><time>2026-04-02T09:16:45.711Z</time></trkpt><trkpt lat="42.9048331" lon="12.3460677"><ele>177.5</ele><time>2026-04-02T09:16:46.7Z</time></trkpt><trkpt lat="42.9047554" lon="12.3460185"><ele>177.66666666666669</ele><time>2026-04-02T09:16:47.703Z</time></trkpt><trkpt lat="42.9046837" lon="12.3459772"><ele>177.83333333333334</ele><time>2026-04-02T09:16:48.702Z</time></trkpt><trkpt lat="42.904616" lon="12.3459467"><ele>178.0</ele><time>2026-04-02T09:16:49.705Z</time></trkpt><trkpt lat="42.9045156" lon="12.3458869"><ele>178.0</ele><time>2026-04-02T09:16:51.701Z</time></trkpt><trkpt lat="42.9044543" lon="12.3458324"><ele>178.0</ele><time>2026-04-02T09:16:53.711Z</time></trkpt><trkpt lat="42.90439" lon="12.3457568"><ele>178.0</ele><time>2026-04-02T09:16:55.706Z</time></trkpt><trkpt lat="42.904346" lon="12.3456167"><ele>178.0</ele><time>2026-04-02T09:16:57.706Z</time></trkpt><trkpt lat="42.9043253" lon="12.3455322"><ele>178.0</ele><time>2026-04-02T09:16:58.702Z</time></trkpt><trkpt lat="42.9042889" lon="12.3454477"><ele>178.0</ele><time>2026-04-02T09:16:59.701Z</time></trkpt><trkpt lat="42.9042341" lon="12.3453741"><ele>178.5</ele><time>2026-04-02T09:17:00.702Z</time></trkpt><trkpt lat="42.9041675" lon="12.3453161"><ele>179.0</ele><time>2026-04-02T09:17:01.7Z</time></trkpt><trkpt lat="42.9040908" lon="12.3452833"><ele>179.5</ele><time>2026-04-02T09:17:02.705Z</time></trkpt><trkpt lat="42.9040125" lon="12.345244"><ele>180.0</ele><time>2026-04-02T09:17:03.701Z</time></trkpt><trkpt lat="42.9039378" lon="12.3451816"><ele>180.5</ele><time>2026-04-02T09:17:04.709Z</time></trkpt><trkpt lat="42.9038687" lon="12.345091"><ele>181.0</ele><time>2026-04-02T09:17:05.704Z</time></trkpt><trkpt lat="42.9038032" lon="12.3449743"><ele>181.0</ele><time>2026-04-02T09:17:06.705Z</time></trkpt><trkpt lat="42.9037352" lon="12.34484"><ele>181.0</ele><time>2026-04-02T09:17:07.706Z</time></trkpt><trkpt lat="42.903674" lon="12.3446936"><ele>181.0</ele><time>2026-04-02T09:17:08.698Z</time></trkpt><trkpt lat="42.9036188" lon="12.3445301"><ele>181.0</ele><time>2026-04-02T09:17:09.701Z</time></trkpt><trkpt lat="42.9035741" lon="12.3443436"><ele>180.0</ele><time>2026-04-02T09:17:10.705Z</time></trkpt><trkpt lat="42.9035436" lon="12.3441396"><ele>179.0</ele><time>2026-04-02T09:17:11.703Z</time></trkpt><trkpt lat="42.9035272" lon="12.3439171"><ele>178.0</ele><time>2026-04-02T09:17:12.706Z</time></trkpt><trkpt lat="42.9035207" lon="12.3436915"><ele>178.0</ele><time>2026-04-02T09:17:13.702Z</time></trkpt><trkpt lat="42.9035255" lon="12.3434614"><ele>178.0</ele><time>2026-04-02T09:17:14.701Z</time></trkpt><trkpt lat="42.9035309" lon="12.3432342"><ele>178.0</ele><time>2026-04-02T09:17:15.7Z</time></trkpt><trkpt lat="42.9035341" lon="12.342997"><ele>180.33333333333334</ele><time>2026-04-02T09:17:16.709Z</time></trkpt><trkpt lat="42.9035342" lon="12.3427515"><ele>182.66666666666666</ele><time>2026-04-02T09:17:17.703Z</time></trkpt><trkpt lat="42.9035399" lon="12.3425011"><ele>185.0</ele><time>2026-04-02T09:17:18.706Z</time></trkpt><trkpt lat="42.9035417" lon="12.3422567"><ele>188.66666666666666</ele><time>2026-04-02T09:17:19.698Z</time></trkpt><trkpt lat="42.9035437" lon="12.3420116"><ele>192.33333333333331</ele><time>2026-04-02T09:17:20.706Z</time></trkpt><trkpt lat="42.90355" lon="12.3417644"><ele>196.0</ele><time>2026-04-02T09:17:21.701Z</time></trkpt><trkpt lat="42.9035614" lon="12.3415175"><ele>197.33333333333331</ele><time>2026-04-02T09:17:22.705Z</time></trkpt><trkpt lat="42.9035633" lon="12.3412721"><ele>198.66666666666669</ele><time>2026-04-02T09:17:23.701Z</time></trkpt><trkpt lat="42.9035606" lon="12.3410259"><ele>200.0</ele><time>2026-04-02T09:17:24.706Z</time></trkpt><trkpt lat="42.903557" lon="12.3407797"><ele>201.0</ele><time>2026-04-02T09:17:25.704Z</time></trkpt><trkpt lat="42.9035533" lon="12.340533"><ele>202.0</ele><time>2026-04-02T09:17:26.706Z</time></trkpt><trkpt lat="42.9035482" lon="12.3402962"><ele>203.0</ele><time>2026-04-02T09:17:27.7Z</time></trkpt><trkpt lat="42.9035416" lon="12.3400599"><ele>203.0</ele><time>2026-04-02T09:17:28.701Z</time></trkpt><trkpt lat="42.9035345" lon="12.3398226"><ele>203.0</ele><time>2026-04-02T09:17:29.702Z</time></trkpt><trkpt lat="42.9035255" lon="12.3395852"><ele>203.0</ele><time>2026-04-02T09:17:30.701Z</time></trkpt><trkpt lat="42.9035161" lon="12.339375"><ele>203.4</ele><time>2026-04-02T09:17:31.703Z</time></trkpt><trkpt lat="42.9035111" lon="12.3391912"><ele>203.8</ele><time>2026-04-02T09:17:32.706Z</time></trkpt><trkpt lat="42.9035046" lon="12.3390301"><ele>204.2</ele><time>2026-04-02T09:17:33.71Z</time></trkpt><trkpt lat="42.9035012" lon="12.3388936"><ele>204.6</ele><time>2026-04-02T09:17:34.704Z</time></trkpt><trkpt lat="42.9035022" lon="12.3387808"><ele>205.0</ele><time>2026-04-02T09:17:35.702Z</time></trkpt><trkpt lat="42.9035105" lon="12.3386938"><ele>205.0</ele><time>2026-04-02T09:17:36.704Z</time></trkpt><trkpt lat="42.9035631" lon="12.3385509"><ele>205.0</ele><time>2026-04-02T09:17:38.7Z</time></trkpt><trkpt lat="42.9035644" lon="12.3384221"><ele>205.0</ele><time>2026-04-02T09:17:40.701Z</time></trkpt><trkpt lat="42.903475" lon="12.3383302"><ele>205.0</ele><time>2026-04-02T09:17:42.704Z</time></trkpt><trkpt lat="42.9033755" lon="12.3384079"><ele>205.0</ele><time>2026-04-02T09:17:44.704Z</time></trkpt><trkpt lat="42.9033351" lon="12.3384846"><ele>204.99999999999997</ele><time>2026-04-02T09:17:45.701Z</time></trkpt><trkpt lat="42.9032918" lon="12.3385637"><ele>205.0</ele><time>2026-04-02T09:17:46.705Z</time></trkpt><trkpt lat="42.9032472" lon="12.3386319"><ele>205.0</ele><time>2026-04-02T09:17:47.703Z</time></trkpt><trkpt lat="42.9031974" lon="12.338686"><ele>205.0</ele><time>2026-04-02T09:17:48.704Z</time></trkpt><trkpt lat="42.9031322" lon="12.3387271"><ele>204.99999999999997</ele><time>2026-04-02T09:17:49.699Z</time></trkpt><trkpt lat="42.9030497" lon="12.3387426"><ele>205.0</ele><time>2026-04-02T09:17:50.704Z</time></trkpt><trkpt lat="42.9029556" lon="12.3387584"><ele>205.0</ele><time>2026-04-02T09:17:51.703Z</time></trkpt><trkpt lat="42.9028501" lon="12.3387778"><ele>205.0</ele><time>2026-04-02T09:17:52.7Z</time></trkpt><trkpt lat="42.9027405" lon="12.3387857"><ele>205.0</ele><time>2026-04-02T09:17:53.703Z</time></trkpt><trkpt lat="42.9026286" lon="12.3388007"><ele>205.0</ele><time>2026-04-02T09:17:54.707Z</time></trkpt><trkpt lat="42.902511" lon="12.3388214"><ele>205.0</ele><time>2026-04-02T09:17:55.702Z</time></trkpt><trkpt lat="42.9023934" lon="12.3388371"><ele>204.75</ele><time>2026-04-02T09:17:56.706Z</time></trkpt><trkpt lat="42.9022591" lon="12.3388307"><ele>204.5</ele><time>2026-04-02T09:17:57.699Z</time></trkpt><trkpt lat="42.9021206" lon="12.3388146"><ele>204.25</ele><time>2026-04-02T09:17:58.701Z</time></trkpt><trkpt lat="42.9019774" lon="12.3387867"><ele>204.0</ele><time>2026-04-02T09:17:59.701Z</time></trkpt><trkpt lat="42.9018314" lon="12.3387635"><ele>201.75</ele><time>2026-04-02T09:18:00.712Z</time></trkpt><trkpt lat="42.9016903" lon="12.3387381"><ele>199.5</ele><time>2026-04-02T09:18:01.71Z</time></trkpt><trkpt lat="42.9015535" lon="12.3387027"><ele>197.25</ele><time>2026-04-02T09:18:02.706Z</time></trkpt><trkpt lat="42.9014244" lon="12.3386855"><ele>195.0</ele><time>2026-04-02T09:18:03.704Z</time></trkpt><trkpt lat="42.9012907" lon="12.338667"><ele>195.0</ele><time>2026-04-02T09:18:04.7Z</time></trkpt><trkpt lat="42.9011655" lon="12.3386496"><ele>195.0</ele><time>2026-04-02T09:18:05.704Z</time></trkpt><trkpt lat="42.9010492" lon="12.3386392"><ele>195.0</ele><time>2026-04-02T09:18:06.707Z</time></trkpt><trkpt lat="42.9009337" lon="12.3386243"><ele>195.0</ele><time>2026-04-02T09:18:07.699Z</time></trkpt><trkpt lat="42.9008215" lon="12.3386102"><ele>193.8</ele><time>2026-04-02T09:18:08.703Z</time></trkpt><trkpt lat="42.9007143" lon="12.338603"><ele>192.6</ele><time>2026-04-02T09:18:09.706Z</time></trkpt><trkpt lat="42.9006175" lon="12.3386178"><ele>191.39999999999998</ele><time>2026-04-02T09:18:10.704Z</time></trkpt><trkpt lat="42.9005346" lon="12.3386586"><ele>190.2</ele><time>2026-04-02T09:18:11.714Z</time></trkpt><trkpt lat="42.9004649" lon="12.3387252"><ele>189.0</ele><time>2026-04-02T09:18:12.699Z</time></trkpt><trkpt lat="42.9004082" lon="12.3388287"><ele>188.5</ele><time>2026-04-02T09:18:13.702Z</time></trkpt><trkpt lat="42.9003631" lon="12.3389607"><ele>188.0</ele><time>2026-04-02T09:18:14.703Z</time></trkpt><trkpt lat="42.9003234" lon="12.3391041"><ele>187.5</ele><time>2026-04-02T09:18:15.701Z</time></trkpt><trkpt lat="42.9002897" lon="12.3392581"><ele>187.0</ele><time>2026-04-02T09:18:16.704Z</time></trkpt><trkpt lat="42.9002657" lon="12.3394202"><ele>187.0</ele><time>2026-04-02T09:18:17.7Z</time></trkpt><trkpt lat="42.9002404" lon="12.3395963"><ele>187.0</ele><time>2026-04-02T09:18:18.7Z</time></trkpt><trkpt lat="42.9002135" lon="12.3397691"><ele>187.0</ele><time>2026-04-02T09:18:19.703Z</time></trkpt><trkpt lat="42.9001826" lon="12.3399574"><ele>187.0</ele><time>2026-04-02T09:18:20.702Z</time></trkpt><trkpt lat="42.9001518" lon="12.3401476"><ele>187.25</ele><time>2026-04-02T09:18:21.704Z</time></trkpt><trkpt lat="42.9001207" lon="12.3403338"><ele>187.5</ele><time>2026-04-02T09:18:22.705Z</time></trkpt><trkpt lat="42.9000964" lon="12.3405132"><ele>187.75</ele><time>2026-04-02T09:18:23.699Z</time></trkpt><trkpt lat="42.9000709" lon="12.3406723"><ele>188.0</ele><time>2026-04-02T09:18:24.702Z</time></trkpt><trkpt lat="42.9000435" lon="12.3408222"><ele>188.0</ele><time>2026-04-02T09:18:25.707Z</time></trkpt><trkpt lat="42.9000117" lon="12.340966"><ele>188.0</ele><time>2026-04-02T09:18:26.705Z</time></trkpt><trkpt lat="42.8999759" lon="12.3410928"><ele>188.0</ele><time>2026-04-02T09:18:27.699Z</time></trkpt><trkpt lat="42.8999326" lon="12.3412115"><ele>188.0</ele><time>2026-04-02T09:18:28.701Z</time></trkpt><trkpt lat="42.8998825" lon="12.3413117"><ele>188.0</ele><time>2026-04-02T09:18:29.704Z</time></trkpt><trkpt lat="42.8998307" lon="12.3413957"><ele>188.0</ele><time>2026-04-02T09:18:30.699Z</time></trkpt><trkpt lat="42.8997669" lon="12.3414529"><ele>188.0</ele><time>2026-04-02T09:18:31.704Z</time></trkpt><trkpt lat="42.899694" lon="12.3414723"><ele>188.0</ele><time>2026-04-02T09:18:32.701Z</time></trkpt><trkpt lat="42.8996107" lon="12.3414482"><ele>188.0</ele><time>2026-04-02T09:18:33.702Z</time></trkpt><trkpt lat="42.8995214" lon="12.3413914"><ele>188.0</ele><time>2026-04-02T09:18:34.704Z</time></trkpt><trkpt lat="42.8994276" lon="12.3413219"><ele>188.0</ele><time>2026-04-02T09:18:35.703Z</time></trkpt><trkpt lat="42.8993229" lon="12.3412545"><ele>188.25</ele><time>2026-04-02T09:18:36.706Z</time></trkpt><trkpt lat="42.8992089" lon="12.34118"><ele>188.5</ele><time>2026-04-02T09:18:37.702Z</time></trkpt><trkpt lat="42.8990982" lon="12.3411044"><ele>188.75</ele><time>2026-04-02T09:18:38.702Z</time></trkpt><trkpt lat="42.8989818" lon="12.3410305"><ele>189.0</ele><time>2026-04-02T09:18:39.702Z</time></trkpt><trkpt lat="42.8988601" lon="12.3409591"><ele>189.0</ele><time>2026-04-02T09:18:40.704Z</time></trkpt><trkpt lat="42.8987329" lon="12.3408837"><ele>189.0</ele><time>2026-04-02T09:18:41.706Z</time></trkpt><trkpt lat="42.8985986" lon="12.3408036"><ele>189.0</ele><time>2026-04-02T09:18:42.709Z</time></trkpt><trkpt lat="42.8984724" lon="12.3407233"><ele>189.0</ele><time>2026-04-02T09:18:43.706Z</time></trkpt><trkpt lat="42.8983416" lon="12.3406444"><ele>189.0</ele><time>2026-04-02T09:18:44.702Z</time></trkpt><trkpt lat="42.8982055" lon="12.3405659"><ele>189.0</ele><time>2026-04-02T09:18:45.699Z</time></trkpt><trkpt lat="42.8980708" lon="12.3404897"><ele>189.0</ele><time>2026-04-02T09:18:46.702Z</time></trkpt><trkpt lat="42.8979319" lon="12.3404178"><ele>189.0</ele><time>2026-04-02T09:18:47.705Z</time></trkpt><trkpt lat="42.8977874" lon="12.3403539"><ele>189.66666666666666</ele><time>2026-04-02T09:18:48.702Z</time></trkpt><trkpt lat="42.897637" lon="12.3402901"><ele>190.33333333333331</ele><time>2026-04-02T09:18:49.702Z</time></trkpt><trkpt lat="42.8974873" lon="12.3402253"><ele>191.0</ele><time>2026-04-02T09:18:50.701Z</time></trkpt><trkpt lat="42.8973381" lon="12.3401619"><ele>191.5</ele><time>2026-04-02T09:18:51.701Z</time></trkpt><trkpt lat="42.8971983" lon="12.3400955"><ele>192.0</ele><time>2026-04-02T09:18:52.7Z</time></trkpt><trkpt lat="42.8970667" lon="12.3400266"><ele>192.5</ele><time>2026-04-02T09:18:53.701Z</time></trkpt><trkpt lat="42.8969313" lon="12.3399652"><ele>193.0</ele><time>2026-04-02T09:18:54.704Z</time></trkpt><trkpt lat="42.8967838" lon="12.3399247"><ele>193.0</ele><time>2026-04-02T09:18:55.705Z</time></trkpt><trkpt lat="42.8966298" lon="12.3399114"><ele>193.0</ele><time>2026-04-02T09:18:56.708Z</time></trkpt><trkpt lat="42.8964698" lon="12.3399252"><ele>193.0</ele><time>2026-04-02T09:18:57.706Z</time></trkpt><trkpt lat="42.8963034" lon="12.3399462"><ele>193.0</ele><time>2026-04-02T09:18:58.703Z</time></trkpt><trkpt lat="42.8961359" lon="12.3399739"><ele>193.0</ele><time>2026-04-02T09:18:59.706Z</time></trkpt><trkpt lat="42.8959749" lon="12.3400213"><ele>193.0</ele><time>2026-04-02T09:19:00.699Z</time></trkpt><trkpt lat="42.8958188" lon="12.3400771"><ele>192.75</ele><time>2026-04-02T09:19:01.7Z</time></trkpt><trkpt lat="42.895672" lon="12.3401361"><ele>192.5</ele><time>2026-04-02T09:19:02.705Z</time></trkpt><trkpt lat="42.8955358" lon="12.3401975"><ele>192.25</ele><time>2026-04-02T09:19:03.707Z</time></trkpt><trkpt lat="42.8953991" lon="12.3402511"><ele>192.0</ele><time>2026-04-02T09:19:04.703Z</time></trkpt><trkpt lat="42.8952751" lon="12.3403025"><ele>192.0</ele><time>2026-04-02T09:19:05.702Z</time></trkpt><trkpt lat="42.895164" lon="12.3403799"><ele>192.0</ele><time>2026-04-02T09:19:06.7Z</time></trkpt><trkpt lat="42.8950606" lon="12.3404899"><ele>192.0</ele><time>2026-04-02T09:19:07.703Z</time></trkpt><trkpt lat="42.8949596" lon="12.3406249"><ele>192.0</ele><time>2026-04-02T09:19:08.707Z</time></trkpt><trkpt lat="42.8948627" lon="12.3407634"><ele>192.5</ele><time>2026-04-02T09:19:09.704Z</time></trkpt><trkpt lat="42.894764" lon="12.3409075"><ele>193.0</ele><time>2026-04-02T09:19:10.704Z</time></trkpt><trkpt lat="42.8946601" lon="12.3410473"><ele>193.5</ele><time>2026-04-02T09:19:11.705Z</time></trkpt><trkpt lat="42.8945605" lon="12.3411927"><ele>194.0</ele><time>2026-04-02T09:19:12.703Z</time></trkpt><trkpt lat="42.8944595" lon="12.3413247"><ele>194.25</ele><time>2026-04-02T09:19:13.7Z</time></trkpt><trkpt lat="42.8943531" lon="12.3414559"><ele>194.5</ele><time>2026-04-02T09:19:14.704Z</time></trkpt><trkpt lat="42.8942477" lon="12.3415834"><ele>194.75</ele><time>2026-04-02T09:19:15.705Z</time></trkpt><trkpt lat="42.8941495" lon="12.3417147"><ele>195.0</ele><time>2026-04-02T09:19:16.702Z</time></trkpt><trkpt lat="42.8940637" lon="12.3418346"><ele>195.6</ele><time>2026-04-02T09:19:17.708Z</time></trkpt><trkpt lat="42.8940001" lon="12.3419352"><ele>196.2</ele><time>2026-04-02T09:19:18.705Z</time></trkpt><trkpt lat="42.893945" lon="12.3420117"><ele>196.8</ele><time>2026-04-02T09:19:19.697Z</time></trkpt><trkpt lat="42.8938556" lon="12.342092"><ele>197.4</ele><time>2026-04-02T09:19:21.698Z</time></trkpt><trkpt lat="42.8937422" lon="12.3421001"><ele>198.0</ele><time>2026-04-02T09:19:23.703Z</time></trkpt><trkpt lat="42.8936732" lon="12.3420859"><ele>198.0</ele><time>2026-04-02T09:19:24.704Z</time></trkpt><trkpt lat="42.8935861" lon="12.3420698"><ele>198.0</ele><time>2026-04-02T09:19:25.707Z</time></trkpt><trkpt lat="42.8935045" lon="12.3420613"><ele>198.0</ele><time>2026-04-02T09:19:26.702Z</time></trkpt><trkpt lat="42.8934038" lon="12.3420221"><ele>198.0</ele><time>2026-04-02T09:19:28.702Z</time></trkpt><trkpt lat="42.8933653" lon="12.3418957"><ele>198.0</ele><time>2026-04-02T09:19:31.705Z</time></trkpt><trkpt lat="42.8933246" lon="12.3417726"><ele>198.60000000000002</ele><time>2026-04-02T09:19:33.706Z</time></trkpt><trkpt lat="42.8932143" lon="12.3416969"><ele>199.20000000000002</ele><time>2026-04-02T09:19:35.699Z</time></trkpt><trkpt lat="42.893146" lon="12.3416605"><ele>199.8</ele><time>2026-04-02T09:19:36.702Z</time></trkpt><trkpt lat="42.8930629" lon="12.3416217"><ele>200.4</ele><time>2026-04-02T09:19:37.702Z</time></trkpt><trkpt lat="42.8929868" lon="12.3415682"><ele>201.0</ele><time>2026-04-02T09:19:38.705Z</time></trkpt><trkpt lat="42.8929127" lon="12.3414902"><ele>201.0</ele><time>2026-04-02T09:19:39.711Z</time></trkpt><trkpt lat="42.8928358" lon="12.3413892"><ele>201.0</ele><time>2026-04-02T09:19:40.705Z</time></trkpt><trkpt lat="42.8927509" lon="12.3412553"><ele>201.0</ele><time>2026-04-02T09:19:41.706Z</time></trkpt><trkpt lat="42.8926673" lon="12.3410993"><ele>201.0</ele><time>2026-04-02T09:19:42.701Z</time></trkpt><trkpt lat="42.8925809" lon="12.3409472"><ele>201.33333333333331</ele><time>2026-04-02T09:19:43.703Z</time></trkpt><trkpt lat="42.8924909" lon="12.3407879"><ele>201.66666666666666</ele><time>2026-04-02T09:19:44.702Z</time></trkpt><trkpt lat="42.8923975" lon="12.3406184"><ele>202.0</ele><time>2026-04-02T09:19:45.706Z</time></trkpt><trkpt lat="42.8922888" lon="12.3404356"><ele>202.0</ele><time>2026-04-02T09:19:46.706Z</time></trkpt><trkpt lat="42.892174" lon="12.3402607"><ele>202.0</ele><time>2026-04-02T09:19:47.703Z</time></trkpt><trkpt lat="42.8920727" lon="12.340119"><ele>202.0</ele><time>2026-04-02T09:19:48.702Z</time></trkpt><trkpt lat="42.8919796" lon="12.3399888"><ele>202.0</ele><time>2026-04-02T09:19:49.702Z</time></trkpt><trkpt lat="42.891901" lon="12.3398765"><ele>202.0</ele><time>2026-04-02T09:19:50.705Z</time></trkpt><trkpt lat="42.891825" lon="12.3397591"><ele>202.0</ele><time>2026-04-02T09:19:51.7Z</time></trkpt><trkpt lat="42.8917557" lon="12.3396345"><ele>202.0</ele><time>2026-04-02T09:19:52.702Z</time></trkpt><trkpt lat="42.8916877" lon="12.3394913"><ele>204.0</ele><time>2026-04-02T09:19:53.703Z</time></trkpt><trkpt lat="42.8916169" lon="12.3393347"><ele>206.0</ele><time>2026-04-02T09:19:54.702Z</time></trkpt><trkpt lat="42.8915402" lon="12.3391582"><ele>208.0</ele><time>2026-04-02T09:19:55.711Z</time></trkpt><trkpt lat="42.8914606" lon="12.3389642"><ele>210.0</ele><time>2026-04-02T09:19:56.705Z</time></trkpt><trkpt lat="42.8913775" lon="12.3387674"><ele>211.33333333333331</ele><time>2026-04-02T09:19:57.701Z</time></trkpt><trkpt lat="42.8913006" lon="12.3385666"><ele>212.66666666666666</ele><time>2026-04-02T09:19:58.702Z</time></trkpt><trkpt lat="42.8912241" lon="12.3383784"><ele>214.0</ele><time>2026-04-02T09:19:59.701Z</time></trkpt><trkpt lat="42.8911456" lon="12.3381918"><ele>213.75</ele><time>2026-04-02T09:20:00.704Z</time></trkpt><trkpt lat="42.8910703" lon="12.3380132"><ele>213.5</ele><time>2026-04-02T09:20:01.703Z</time></trkpt><trkpt lat="42.891002" lon="12.3378391"><ele>213.25</ele><time>2026-04-02T09:20:02.708Z</time></trkpt><trkpt lat="42.8909319" lon="12.3376727"><ele>213.0</ele><time>2026-04-02T09:20:03.702Z</time></trkpt><trkpt lat="42.8908585" lon="12.3375119"><ele>214.25</ele><time>2026-04-02T09:20:04.705Z</time></trkpt><trkpt lat="42.8907841" lon="12.3373592"><ele>215.5</ele><time>2026-04-02T09:20:05.706Z</time></trkpt><trkpt lat="42.8907104" lon="12.3372115"><ele>216.75</ele><time>2026-04-02T09:20:06.708Z</time></trkpt><trkpt lat="42.8906446" lon="12.3370598"><ele>218.0</ele><time>2026-04-02T09:20:07.701Z</time></trkpt><trkpt lat="42.8905731" lon="12.3369081"><ele>218.5</ele><time>2026-04-02T09:20:08.704Z</time></trkpt><trkpt lat="42.8905018" lon="12.336762"><ele>219.0</ele><time>2026-04-02T09:20:09.704Z</time></trkpt><trkpt lat="42.8904377" lon="12.3366186"><ele>219.5</ele><time>2026-04-02T09:20:10.705Z</time></trkpt><trkpt lat="42.8903702" lon="12.3364764"><ele>220.0</ele><time>2026-04-02T09:20:11.709Z</time></trkpt><trkpt lat="42.8903015" lon="12.3363445"><ele>220.0</ele><time>2026-04-02T09:20:12.701Z</time></trkpt><trkpt lat="42.8902253" lon="12.336216"><ele>220.0</ele><time>2026-04-02T09:20:13.701Z</time></trkpt><trkpt lat="42.8901252" lon="12.3361024"><ele>220.0</ele><time>2026-04-02T09:20:14.702Z</time></trkpt><trkpt lat="42.8900019" lon="12.335988"><ele>220.0</ele><time>2026-04-02T09:20:15.701Z</time></trkpt><trkpt lat="42.8898815" lon="12.3358577"><ele>221.0</ele><time>2026-04-02T09:20:16.702Z</time></trkpt><trkpt lat="42.8897652" lon="12.3357139"><ele>222.0</ele><time>2026-04-02T09:20:17.703Z</time></trkpt><trkpt lat="42.889656" lon="12.3355549"><ele>223.0</ele><time>2026-04-02T09:20:18.708Z</time></trkpt><trkpt lat="42.8895606" lon="12.3353995"><ele>223.0</ele><time>2026-04-02T09:20:19.701Z</time></trkpt><trkpt lat="42.8894828" lon="12.335254"><ele>223.0</ele><time>2026-04-02T09:20:20.7Z</time></trkpt><trkpt lat="42.8894229" lon="12.3351222"><ele>223.0</ele><time>2026-04-02T09:20:21.705Z</time></trkpt><trkpt lat="42.8893672" lon="12.3349872"><ele>223.0</ele><time>2026-04-02T09:20:22.701Z</time></trkpt><trkpt lat="42.8892978" lon="12.3348503"><ele>223.25</ele><time>2026-04-02T09:20:23.701Z</time></trkpt><trkpt lat="42.8892125" lon="12.3347157"><ele>223.5</ele><time>2026-04-02T09:20:24.707Z</time></trkpt><trkpt lat="42.8891138" lon="12.3345815"><ele>223.75</ele><time>2026-04-02T09:20:25.709Z</time></trkpt><trkpt lat="42.8890101" lon="12.3344449"><ele>224.0</ele><time>2026-04-02T09:20:26.703Z</time></trkpt><trkpt lat="42.8888957" lon="12.3343115"><ele>224.0</ele><time>2026-04-02T09:20:27.705Z</time></trkpt><trkpt lat="42.8887732" lon="12.3341801"><ele>224.0</ele><time>2026-04-02T09:20:28.701Z</time></trkpt><trkpt lat="42.8886399" lon="12.3340479"><ele>224.0</ele><time>2026-04-02T09:20:29.697Z</time></trkpt><trkpt lat="42.8884975" lon="12.3339138"><ele>225.0</ele><time>2026-04-02T09:20:30.699Z</time></trkpt><trkpt lat="42.8883535" lon="12.3337814"><ele>226.0</ele><time>2026-04-02T09:20:31.705Z</time></trkpt><trkpt lat="42.8882073" lon="12.3336434"><ele>227.0</ele><time>2026-04-02T09:20:32.703Z</time></trkpt><trkpt lat="42.8880625" lon="12.3335112"><ele>227.0</ele><time>2026-04-02T09:20:33.706Z</time></trkpt><trkpt lat="42.8879257" lon="12.3333866"><ele>227.0</ele><time>2026-04-02T09:20:34.704Z</time></trkpt><trkpt lat="42.8878019" lon="12.333267"><ele>227.0</ele><time>2026-04-02T09:20:35.703Z</time></trkpt><trkpt lat="42.8876824" lon="12.3331573"><ele>228.0</ele><time>2026-04-02T09:20:36.704Z</time></trkpt><trkpt lat="42.8875624" lon="12.3330571"><ele>229.0</ele><time>2026-04-02T09:20:37.7Z</time></trkpt><trkpt lat="42.8874345" lon="12.3329819"><ele>230.0</ele><time>2026-04-02T09:20:38.7Z</time></trkpt><trkpt lat="42.8872923" lon="12.3329301"><ele>231.0</ele><time>2026-04-02T09:20:39.708Z</time></trkpt><trkpt lat="42.8871547" lon="12.3328818"><ele>232.25</ele><time>2026-04-02T09:20:40.704Z</time></trkpt><trkpt lat="42.887026" lon="12.3328352"><ele>233.5</ele><time>2026-04-02T09:20:41.703Z</time></trkpt><trkpt lat="42.8869013" lon="12.3327987"><ele>234.75</ele><time>2026-04-02T09:20:42.703Z</time></trkpt><trkpt lat="42.8867918" lon="12.3327569"><ele>236.0</ele><time>2026-04-02T09:20:43.702Z</time></trkpt><trkpt lat="42.8866972" lon="12.3327069"><ele>236.66666666666669</ele><time>2026-04-02T09:20:44.702Z</time></trkpt><trkpt lat="42.8866439" lon="12.3326396"><ele>237.33333333333334</ele><time>2026-04-02T09:20:45.701Z</time></trkpt><trkpt lat="42.8866056" lon="12.3325507"><ele>238.0</ele><time>2026-04-02T09:20:46.711Z</time></trkpt><trkpt lat="42.886594" lon="12.3324459"><ele>238.66666666666669</ele><time>2026-04-02T09:20:47.702Z</time></trkpt><trkpt lat="42.8865932" lon="12.3323289"><ele>239.33333333333334</ele><time>2026-04-02T09:20:48.701Z</time></trkpt><trkpt lat="42.88659" lon="12.3322039"><ele>240.0</ele><time>2026-04-02T09:20:49.705Z</time></trkpt><trkpt lat="42.8865793" lon="12.3320703"><ele>241.0</ele><time>2026-04-02T09:20:50.705Z</time></trkpt><trkpt lat="42.8865655" lon="12.3319436"><ele>242.0</ele><time>2026-04-02T09:20:51.708Z</time></trkpt><trkpt lat="42.8865549" lon="12.3318378"><ele>243.0</ele><time>2026-04-02T09:20:52.709Z</time></trkpt><trkpt lat="42.8865468" lon="12.3317353"><ele>244.0</ele><time>2026-04-02T09:20:53.701Z</time></trkpt><trkpt lat="42.8865179" lon="12.3316372"><ele>245.0</ele><time>2026-04-02T09:20:54.707Z</time></trkpt><trkpt lat="42.8864646" lon="12.3315458"><ele>246.0</ele><time>2026-04-02T09:20:55.701Z</time></trkpt><trkpt lat="42.8863898" lon="12.3314686"><ele>246.0</ele><time>2026-04-02T09:20:56.701Z</time></trkpt><trkpt lat="42.8863044" lon="12.3313961"><ele>246.00000000000003</ele><time>2026-04-02T09:20:57.701Z</time></trkpt><trkpt lat="42.8862088" lon="12.3313187"><ele>246.00000000000003</ele><time>2026-04-02T09:20:58.703Z</time></trkpt><trkpt lat="42.8861123" lon="12.3312447"><ele>246.0</ele><time>2026-04-02T09:20:59.702Z</time></trkpt><trkpt lat="42.8860125" lon="12.3311615"><ele>246.0</ele><time>2026-04-02T09:21:00.705Z</time></trkpt><trkpt lat="42.8859125" lon="12.3310828"><ele>248.8</ele><time>2026-04-02T09:21:01.704Z</time></trkpt><trkpt lat="42.8858132" lon="12.3310135"><ele>251.60000000000002</ele><time>2026-04-02T09:21:02.72Z</time></trkpt><trkpt lat="42.8857166" lon="12.3309462"><ele>254.4</ele><time>2026-04-02T09:21:03.705Z</time></trkpt><trkpt lat="42.8856278" lon="12.3308768"><ele>257.2</ele><time>2026-04-02T09:21:04.703Z</time></trkpt><trkpt lat="42.8855563" lon="12.3308207"><ele>260.0</ele><time>2026-04-02T09:21:05.705Z</time></trkpt><trkpt lat="42.8854719" lon="12.3307627"><ele>260.0</ele><time>2026-04-02T09:21:06.701Z</time></trkpt><trkpt lat="42.8853788" lon="12.3306858"><ele>260.0</ele><time>2026-04-02T09:21:07.705Z</time></trkpt><trkpt lat="42.8852945" lon="12.3306137"><ele>260.0</ele><time>2026-04-02T09:21:08.702Z</time></trkpt><trkpt lat="42.8852186" lon="12.3305533"><ele>260.0</ele><time>2026-04-02T09:21:09.707Z</time></trkpt><trkpt lat="42.8851583" lon="12.3304808"><ele>260.0</ele><time>2026-04-02T09:21:10.705Z</time></trkpt><trkpt lat="42.885096" lon="12.330399"><ele>261.14285714285717</ele><time>2026-04-02T09:21:11.705Z</time></trkpt><trkpt lat="42.8850558" lon="12.3303093"><ele>262.2857142857143</ele><time>2026-04-02T09:21:12.714Z</time></trkpt><trkpt lat="42.8850477" lon="12.3302098"><ele>263.42857142857144</ele><time>2026-04-02T09:21:13.702Z</time></trkpt><trkpt lat="42.8850598" lon="12.3301224"><ele>264.57142857142856</ele><time>2026-04-02T09:21:14.706Z</time></trkpt><trkpt lat="42.8850811" lon="12.3300327"><ele>265.7142857142857</ele><time>2026-04-02T09:21:15.703Z</time></trkpt><trkpt lat="42.8851056" lon="12.3299437"><ele>266.8571428571429</ele><time>2026-04-02T09:21:16.702Z</time></trkpt><trkpt lat="42.8851392" lon="12.3298612"><ele>268.0</ele><time>2026-04-02T09:21:17.703Z</time></trkpt><trkpt lat="42.8851633" lon="12.329744"><ele>269.2</ele><time>2026-04-02T09:21:18.703Z</time></trkpt><trkpt lat="42.8851777" lon="12.3296583"><ele>270.4</ele><time>2026-04-02T09:21:19.704Z</time></trkpt><trkpt lat="42.8851911" lon="12.3295119"><ele>271.59999999999997</ele><time>2026-04-02T09:21:21.7Z</time></trkpt><trkpt lat="42.8851526" lon="12.3293837"><ele>272.8</ele><time>2026-04-02T09:21:23.708Z</time></trkpt><trkpt lat="42.8850354" lon="12.3293179"><ele>274.0</ele><time>2026-04-02T09:21:25.704Z</time></trkpt><trkpt lat="42.8849553" lon="12.329308"><ele>276.4</ele><time>2026-04-02T09:21:26.699Z</time></trkpt><trkpt lat="42.8848704" lon="12.3293142"><ele>278.79999999999995</ele><time>2026-04-02T09:21:27.703Z</time></trkpt><trkpt lat="42.884774" lon="12.3293177"><ele>281.20000000000005</ele><time>2026-04-02T09:21:28.699Z</time></trkpt><trkpt lat="42.8846712" lon="12.329322"><ele>283.6</ele><time>2026-04-02T09:21:29.706Z</time></trkpt><trkpt lat="42.8845686" lon="12.3293246"><ele>286.0</ele><time>2026-04-02T09:21:30.706Z</time></trkpt><trkpt lat="42.8844765" lon="12.3293233"><ele>286.0</ele><time>2026-04-02T09:21:31.707Z</time></trkpt><trkpt lat="42.8843922" lon="12.3292978"><ele>286.0</ele><time>2026-04-02T09:21:32.709Z</time></trkpt><trkpt lat="42.8843185" lon="12.329265"><ele>286.0</ele><time>2026-04-02T09:21:33.705Z</time></trkpt><trkpt lat="42.8842648" lon="12.3292042"><ele>286.0</ele><time>2026-04-02T09:21:34.699Z</time></trkpt><trkpt lat="42.8842287" lon="12.3291169"><ele>286.0</ele><time>2026-04-02T09:21:35.707Z</time></trkpt><trkpt lat="42.8841961" lon="12.3290081"><ele>286.0</ele><time>2026-04-02T09:21:36.699Z</time></trkpt><trkpt lat="42.8841672" lon="12.328877"><ele>287.6</ele><time>2026-04-02T09:21:37.708Z</time></trkpt><trkpt lat="42.8841304" lon="12.3287499"><ele>289.20000000000005</ele><time>2026-04-02T09:21:38.703Z</time></trkpt><trkpt lat="42.8840901" lon="12.3286226"><ele>290.79999999999995</ele><time>2026-04-02T09:21:39.704Z</time></trkpt><trkpt lat="42.8840515" lon="12.3284885"><ele>292.4</ele><time>2026-04-02T09:21:40.707Z</time></trkpt><trkpt lat="42.8840242" lon="12.3283463"><ele>294.0</ele><time>2026-04-02T09:21:41.711Z</time></trkpt><trkpt lat="42.8840061" lon="12.3281942"><ele>294.59999999999997</ele><time>2026-04-02T09:21:42.706Z</time></trkpt><trkpt lat="42.883995" lon="12.3280466"><ele>295.2</ele><time>2026-04-02T09:21:43.708Z</time></trkpt><trkpt lat="42.8839874" lon="12.3279002"><ele>295.79999999999995</ele><time>2026-04-02T09:21:44.706Z</time></trkpt><trkpt lat="42.8839802" lon="12.327756"><ele>296.4</ele><time>2026-04-02T09:21:45.703Z</time></trkpt><trkpt lat="42.8839708" lon="12.3276294"><ele>297.0</ele><time>2026-04-02T09:21:46.705Z</time></trkpt><trkpt lat="42.8839459" lon="12.3275212"><ele>297.0</ele><time>2026-04-02T09:21:47.705Z</time></trkpt><trkpt lat="42.8838967" lon="12.3274551"><ele>297.0</ele><time>2026-04-02T09:21:48.702Z</time></trkpt><trkpt lat="42.8838237" lon="12.3274168"><ele>297.0</ele><time>2026-04-02T09:21:49.704Z</time></trkpt><trkpt lat="42.8837423" lon="12.3274119"><ele>297.0</ele><time>2026-04-02T09:21:50.7Z</time></trkpt><trkpt lat="42.8836516" lon="12.3274381"><ele>297.0</ele><time>2026-04-02T09:21:51.704Z</time></trkpt><trkpt lat="42.8835562" lon="12.3274701"><ele>297.0</ele><time>2026-04-02T09:21:52.705Z</time></trkpt><trkpt lat="42.8834525" lon="12.3274997"><ele>298.25</ele><time>2026-04-02T09:21:53.709Z</time></trkpt><trkpt lat="42.8833464" lon="12.3275266"><ele>299.5</ele><time>2026-04-02T09:21:54.713Z</time></trkpt><trkpt lat="42.8832292" lon="12.3275445"><ele>300.75</ele><time>2026-04-02T09:21:55.709Z</time></trkpt><trkpt lat="42.8831109" lon="12.3275539"><ele>302.0</ele><time>2026-04-02T09:21:56.704Z</time></trkpt><trkpt lat="42.8829959" lon="12.327546"><ele>302.0</ele><time>2026-04-02T09:21:57.701Z</time></trkpt><trkpt lat="42.8828906" lon="12.3275385"><ele>302.0</ele><time>2026-04-02T09:21:58.705Z</time></trkpt><trkpt lat="42.8827784" lon="12.327527"><ele>302.0</ele><time>2026-04-02T09:21:59.703Z</time></trkpt><trkpt lat="42.8826677" lon="12.3275033"><ele>302.0</ele><time>2026-04-02T09:22:00.705Z</time></trkpt><trkpt lat="42.882565" lon="12.3274654"><ele>302.0</ele><time>2026-04-02T09:22:01.704Z</time></trkpt><trkpt lat="42.8824715" lon="12.3274289"><ele>302.1666666666667</ele><time>2026-04-02T09:22:02.708Z</time></trkpt><trkpt lat="42.8823786" lon="12.3273865"><ele>302.33333333333337</ele><time>2026-04-02T09:22:03.704Z</time></trkpt><trkpt lat="42.8822957" lon="12.3273372"><ele>302.5</ele><time>2026-04-02T09:22:04.705Z</time></trkpt><trkpt lat="42.8822192" lon="12.3272979"><ele>302.6666666666667</ele><time>2026-04-02T09:22:05.71Z</time></trkpt><trkpt lat="42.88214" lon="12.3272612"><ele>302.8333333333333</ele><time>2026-04-02T09:22:06.709Z</time></trkpt><trkpt lat="42.8820508" lon="12.3272237"><ele>303.0</ele><time>2026-04-02T09:22:07.703Z</time></trkpt><trkpt lat="42.8819587" lon="12.327191"><ele>303.1666666666667</ele><time>2026-04-02T09:22:08.704Z</time></trkpt><trkpt lat="42.8818802" lon="12.3271462"><ele>303.3333333333333</ele><time>2026-04-02T09:22:09.7Z</time></trkpt><trkpt lat="42.8818152" lon="12.3270938"><ele>303.5</ele><time>2026-04-02T09:22:10.703Z</time></trkpt><trkpt lat="42.881752" lon="12.3270265"><ele>303.66666666666663</ele><time>2026-04-02T09:22:11.705Z</time></trkpt><trkpt lat="42.8816845" lon="12.3269467"><ele>303.8333333333333</ele><time>2026-04-02T09:22:12.707Z</time></trkpt><trkpt lat="42.8816159" lon="12.3268541"><ele>304.0</ele><time>2026-04-02T09:22:13.703Z</time></trkpt><trkpt lat="42.8815461" lon="12.3267676"><ele>304.0</ele><time>2026-04-02T09:22:14.701Z</time></trkpt><trkpt lat="42.881472" lon="12.3266806"><ele>304.0</ele><time>2026-04-02T09:22:15.703Z</time></trkpt><trkpt lat="42.8813952" lon="12.3266101"><ele>304.0</ele><time>2026-04-02T09:22:16.702Z</time></trkpt><trkpt lat="42.8813169" lon="12.3265817"><ele>304.0</ele><time>2026-04-02T09:22:17.7Z</time></trkpt><trkpt lat="42.8812334" lon="12.3265841"><ele>304.0</ele><time>2026-04-02T09:22:18.701Z</time></trkpt><trkpt lat="42.8811465" lon="12.3266166"><ele>304.0</ele><time>2026-04-02T09:22:19.701Z</time></trkpt><trkpt lat="42.8810634" lon="12.3266731"><ele>304.0</ele><time>2026-04-02T09:22:20.704Z</time></trkpt><trkpt lat="42.8809796" lon="12.3267203"><ele>304.0</ele><time>2026-04-02T09:22:21.708Z</time></trkpt><trkpt lat="42.8808924" lon="12.3267658"><ele>304.0</ele><time>2026-04-02T09:22:22.704Z</time></trkpt><trkpt lat="42.8808092" lon="12.3268087"><ele>304.0</ele><time>2026-04-02T09:22:23.7Z</time></trkpt><trkpt lat="42.8807326" lon="12.3268435"><ele>304.0</ele><time>2026-04-02T09:22:24.711Z</time></trkpt><trkpt lat="42.8806255" lon="12.3268512"><ele>304.0</ele><time>2026-04-02T09:22:26.7Z</time></trkpt><trkpt lat="42.8805638" lon="12.326769"><ele>304.0</ele><time>2026-04-02T09:22:28.702Z</time></trkpt><trkpt lat="42.8805299" lon="12.3266852"><ele>304.0</ele><time>2026-04-02T09:22:30.702Z</time></trkpt><trkpt lat="42.8804876" lon="12.3265782"><ele>304.0</ele><time>2026-04-02T09:22:32.704Z</time></trkpt><trkpt lat="42.8804386" lon="12.3264261"><ele>304.0</ele><time>2026-04-02T09:22:34.702Z</time></trkpt><trkpt lat="42.8804125" lon="12.326342"><ele>304.0</ele><time>2026-04-02T09:22:35.705Z</time></trkpt><trkpt lat="42.8803793" lon="12.3262451"><ele>304.66666666666663</ele><time>2026-04-02T09:22:36.709Z</time></trkpt><trkpt lat="42.8803413" lon="12.3261437"><ele>305.3333333333333</ele><time>2026-04-02T09:22:37.704Z</time></trkpt><trkpt lat="42.8803035" lon="12.3260372"><ele>306.0</ele><time>2026-04-02T09:22:38.701Z</time></trkpt><trkpt lat="42.8802693" lon="12.3259361"><ele>306.6666666666667</ele><time>2026-04-02T09:22:39.699Z</time></trkpt><trkpt lat="42.8802379" lon="12.325834"><ele>307.33333333333337</ele><time>2026-04-02T09:22:40.704Z</time></trkpt><trkpt lat="42.8802104" lon="12.3257391"><ele>308.0</ele><time>2026-04-02T09:22:41.706Z</time></trkpt><trkpt lat="42.8801773" lon="12.3256471"><ele>309.0</ele><time>2026-04-02T09:22:42.709Z</time></trkpt><trkpt lat="42.8801499" lon="12.3255565"><ele>310.0</ele><time>2026-04-02T09:22:43.707Z</time></trkpt><trkpt lat="42.8801346" lon="12.3254547"><ele>311.0</ele><time>2026-04-02T09:22:44.702Z</time></trkpt><trkpt lat="42.8801301" lon="12.3253412"><ele>312.0</ele><time>2026-04-02T09:22:45.699Z</time></trkpt><trkpt lat="42.8801242" lon="12.3252207"><ele>313.0</ele><time>2026-04-02T09:22:46.704Z</time></trkpt><trkpt lat="42.8801249" lon="12.325099"><ele>314.0</ele><time>2026-04-02T09:22:47.705Z</time></trkpt><trkpt lat="42.880127" lon="12.3249743"><ele>314.0</ele><time>2026-04-02T09:22:48.702Z</time></trkpt><trkpt lat="42.8801297" lon="12.3248484"><ele>314.0</ele><time>2026-04-02T09:22:49.704Z</time></trkpt><trkpt lat="42.8801335" lon="12.3247157"><ele>314.0</ele><time>2026-04-02T09:22:50.707Z</time></trkpt><trkpt lat="42.8801245" lon="12.3245831"><ele>314.0</ele><time>2026-04-02T09:22:51.701Z</time></trkpt><trkpt lat="42.8801076" lon="12.3244434"><ele>314.0</ele><time>2026-04-02T09:22:52.708Z</time></trkpt><trkpt lat="42.8800782" lon="12.3243133"><ele>316.4</ele><time>2026-04-02T09:22:53.707Z</time></trkpt><trkpt lat="42.8800445" lon="12.3241892"><ele>318.79999999999995</ele><time>2026-04-02T09:22:54.709Z</time></trkpt><trkpt lat="42.8800091" lon="12.3240711"><ele>321.20000000000005</ele><time>2026-04-02T09:22:55.7Z</time></trkpt><trkpt lat="42.879968" lon="12.3239416"><ele>323.6</ele><time>2026-04-02T09:22:56.704Z</time></trkpt><trkpt lat="42.8799354" lon="12.323816"><ele>326.0</ele><time>2026-04-02T09:22:57.707Z</time></trkpt><trkpt lat="42.8798885" lon="12.3236895"><ele>327.4</ele><time>2026-04-02T09:22:58.707Z</time></trkpt><trkpt lat="42.8798504" lon="12.323566"><ele>328.8</ele><time>2026-04-02T09:22:59.713Z</time></trkpt><trkpt lat="42.8798172" lon="12.3234424"><ele>330.2</ele><time>2026-04-02T09:23:00.706Z</time></trkpt><trkpt lat="42.8797837" lon="12.3233203"><ele>331.59999999999997</ele><time>2026-04-02T09:23:01.701Z</time></trkpt><trkpt lat="42.8797477" lon="12.3232051"><ele>333.0</ele><time>2026-04-02T09:23:02.703Z</time></trkpt><trkpt lat="42.8797116" lon="12.3230905"><ele>335.0</ele><time>2026-04-02T09:23:03.699Z</time></trkpt><trkpt lat="42.8796802" lon="12.3229798"><ele>337.0</ele><time>2026-04-02T09:23:04.698Z</time></trkpt><trkpt lat="42.8796539" lon="12.3228585"><ele>339.0</ele><time>2026-04-02T09:23:05.703Z</time></trkpt><trkpt lat="42.8796315" lon="12.3227321"><ele>341.0</ele><time>2026-04-02T09:23:06.7Z</time></trkpt><trkpt lat="42.879613" lon="12.3225971"><ele>343.0</ele><time>2026-04-02T09:23:07.709Z</time></trkpt><trkpt lat="42.8795974" lon="12.3224675"><ele>343.0</ele><time>2026-04-02T09:23:08.698Z</time></trkpt><trkpt lat="42.8795755" lon="12.3223426"><ele>343.0</ele><time>2026-04-02T09:23:09.701Z</time></trkpt><trkpt lat="42.8795604" lon="12.3222179"><ele>343.0</ele><time>2026-04-02T09:23:10.7Z</time></trkpt><trkpt lat="42.8795454" lon="12.3220944"><ele>343.0</ele><time>2026-04-02T09:23:11.698Z</time></trkpt><trkpt lat="42.8795442" lon="12.3219747"><ele>343.0</ele><time>2026-04-02T09:23:12.713Z</time></trkpt><trkpt lat="42.8795495" lon="12.3218541"><ele>344.4</ele><time>2026-04-02T09:23:13.705Z</time></trkpt><trkpt lat="42.8795698" lon="12.3217288"><ele>345.79999999999995</ele><time>2026-04-02T09:23:14.701Z</time></trkpt><trkpt lat="42.879599" lon="12.321596"><ele>347.2</ele><time>2026-04-02T09:23:15.704Z</time></trkpt><trkpt lat="42.8796295" lon="12.3214654"><ele>348.6</ele><time>2026-04-02T09:23:16.707Z</time></trkpt><trkpt lat="42.8796763" lon="12.3213276"><ele>350.0</ele><time>2026-04-02T09:23:17.704Z</time></trkpt><trkpt lat="42.879714" lon="12.3211918"><ele>351.6</ele><time>2026-04-02T09:23:18.704Z</time></trkpt><trkpt lat="42.8797529" lon="12.3210644"><ele>353.2</ele><time>2026-04-02T09:23:19.711Z</time></trkpt><trkpt lat="42.879786" lon="12.3209392"><ele>354.79999999999995</ele><time>2026-04-02T09:23:20.704Z</time></trkpt><trkpt lat="42.87982" lon="12.3208053"><ele>356.4</ele><time>2026-04-02T09:23:21.705Z</time></trkpt><trkpt lat="42.8798486" lon="12.3206717"><ele>358.0</ele><time>2026-04-02T09:23:22.709Z</time></trkpt><trkpt lat="42.8798753" lon="12.3205361"><ele>359.3333333333333</ele><time>2026-04-02T09:23:23.704Z</time></trkpt><trkpt lat="42.8798991" lon="12.320412"><ele>360.66666666666663</ele><time>2026-04-02T09:23:24.715Z</time></trkpt><trkpt lat="42.8799211" lon="12.3203133"><ele>362.0</ele><time>2026-04-02T09:23:25.705Z</time></trkpt><trkpt lat="42.8799397" lon="12.3202162"><ele>363.3333333333333</ele><time>2026-04-02T09:23:26.703Z</time></trkpt><trkpt lat="42.8799679" lon="12.3201379"><ele>364.6666666666667</ele><time>2026-04-02T09:23:27.702Z</time></trkpt><trkpt lat="42.8800625" lon="12.3200837"><ele>366.0</ele><time>2026-04-02T09:23:29.702Z</time></trkpt><trkpt lat="42.8801949" lon="12.3201175"><ele>367.0</ele><time>2026-04-02T09:23:31.701Z</time></trkpt><trkpt lat="42.880285" lon="12.3201608"><ele>368.0</ele><time>2026-04-02T09:23:32.701Z</time></trkpt><trkpt lat="42.8803644" lon="12.3202063"><ele>369.0</ele><time>2026-04-02T09:23:33.702Z</time></trkpt><trkpt lat="42.880457" lon="12.3202397"><ele>370.0</ele><time>2026-04-02T09:23:34.706Z</time></trkpt><trkpt lat="42.880549" lon="12.3202793"><ele>371.0</ele><time>2026-04-02T09:23:35.705Z</time></trkpt><trkpt lat="42.8806328" lon="12.3202975"><ele>371.0</ele><time>2026-04-02T09:23:36.703Z</time></trkpt><trkpt lat="42.8807237" lon="12.3203106"><ele>371.0</ele><time>2026-04-02T09:23:37.705Z</time></trkpt><trkpt lat="42.8808122" lon="12.3203121"><ele>371.0</ele><time>2026-04-02T09:23:38.707Z</time></trkpt><trkpt lat="42.880899" lon="12.3203073"><ele>371.0</ele><time>2026-04-02T09:23:39.701Z</time></trkpt><trkpt lat="42.8809926" lon="12.3203024"><ele>371.0</ele><time>2026-04-02T09:23:40.704Z</time></trkpt><trkpt lat="42.8810746" lon="12.3202883"><ele>371.0</ele><time>2026-04-02T09:23:41.701Z</time></trkpt><trkpt lat="42.8811616" lon="12.320259"><ele>369.6</ele><time>2026-04-02T09:23:42.711Z</time></trkpt><trkpt lat="42.8812519" lon="12.3202275"><ele>368.20000000000005</ele><time>2026-04-02T09:23:43.702Z</time></trkpt><trkpt lat="42.8813441" lon="12.3201849"><ele>366.79999999999995</ele><time>2026-04-02T09:23:44.709Z</time></trkpt><trkpt lat="42.8814317" lon="12.3201361"><ele>365.4</ele><time>2026-04-02T09:23:45.7Z</time></trkpt><trkpt lat="42.8815371" lon="12.3200611"><ele>364.0</ele><time>2026-04-02T09:23:46.698Z</time></trkpt><trkpt lat="42.8816326" lon="12.3199737"><ele>364.0</ele><time>2026-04-02T09:23:47.701Z</time></trkpt><trkpt lat="42.8817044" lon="12.3198978"><ele>364.0</ele><time>2026-04-02T09:23:48.701Z</time></trkpt><trkpt lat="42.8817711" lon="12.3197884"><ele>364.0</ele><time>2026-04-02T09:23:49.703Z</time></trkpt><trkpt lat="42.8818266" lon="12.319672"><ele>364.0</ele><time>2026-04-02T09:23:50.7Z</time></trkpt><trkpt lat="42.8818703" lon="12.3195567"><ele>364.0</ele><time>2026-04-02T09:23:51.705Z</time></trkpt><trkpt lat="42.8819225" lon="12.3194394"><ele>365.0</ele><time>2026-04-02T09:23:52.702Z</time></trkpt><trkpt lat="42.8819781" lon="12.3193247"><ele>366.0</ele><time>2026-04-02T09:23:53.707Z</time></trkpt><trkpt lat="42.8820322" lon="12.3192151"><ele>367.0</ele><time>2026-04-02T09:23:54.706Z</time></trkpt><trkpt lat="42.8820906" lon="12.3191161"><ele>368.0</ele><time>2026-04-02T09:23:55.709Z</time></trkpt><trkpt lat="42.8821646" lon="12.3190309"><ele>369.0</ele><time>2026-04-02T09:23:56.703Z</time></trkpt><trkpt lat="42.8822303" lon="12.3189948"><ele>369.0</ele><time>2026-04-02T09:23:57.714Z</time></trkpt><trkpt lat="42.8822968" lon="12.3189774"><ele>369.0</ele><time>2026-04-02T09:23:58.71Z</time></trkpt><trkpt lat="42.8823738" lon="12.3189942"><ele>369.0</ele><time>2026-04-02T09:23:59.705Z</time></trkpt><trkpt lat="42.882443" lon="12.3190299"><ele>369.0</ele><time>2026-04-02T09:24:00.702Z</time></trkpt><trkpt lat="42.8825341" lon="12.3191"><ele>369.0</ele><time>2026-04-02T09:24:02.705Z</time></trkpt><trkpt lat="42.8826057" lon="12.3190523"><ele>369.0</ele><time>2026-04-02T09:24:10.705Z</time></trkpt><trkpt lat="42.882622" lon="12.3189038"><ele>370.79999999999995</ele><time>2026-04-02T09:24:12.702Z</time></trkpt><trkpt lat="42.8826298" lon="12.3188065"><ele>372.59999999999997</ele><time>2026-04-02T09:24:13.702Z</time></trkpt><trkpt lat="42.8826447" lon="12.3186768"><ele>374.4</ele><time>2026-04-02T09:24:14.708Z</time></trkpt><trkpt lat="42.8826514" lon="12.3185326"><ele>376.2</ele><time>2026-04-02T09:24:15.702Z</time></trkpt><trkpt lat="42.8826544" lon="12.3183757"><ele>378.0</ele><time>2026-04-02T09:24:16.704Z</time></trkpt><trkpt lat="42.8826519" lon="12.3182033"><ele>379.75</ele><time>2026-04-02T09:24:17.703Z</time></trkpt><trkpt lat="42.8826423" lon="12.3180177"><ele>381.5</ele><time>2026-04-02T09:24:18.705Z</time></trkpt><trkpt lat="42.8826377" lon="12.3178342"><ele>383.25</ele><time>2026-04-02T09:24:19.703Z</time></trkpt><trkpt lat="42.8826295" lon="12.3176787"><ele>385.0</ele><time>2026-04-02T09:24:20.703Z</time></trkpt><trkpt lat="42.8826246" lon="12.3175264"><ele>385.0</ele><time>2026-04-02T09:24:21.707Z</time></trkpt><trkpt lat="42.8826223" lon="12.3173705"><ele>385.0</ele><time>2026-04-02T09:24:22.702Z</time></trkpt><trkpt lat="42.8826085" lon="12.3172139"><ele>385.0</ele><time>2026-04-02T09:24:23.703Z</time></trkpt><trkpt lat="42.8825971" lon="12.3170679"><ele>385.0</ele><time>2026-04-02T09:24:24.707Z</time></trkpt><trkpt lat="42.8825844" lon="12.3169198"><ele>385.0</ele><time>2026-04-02T09:24:25.709Z</time></trkpt><trkpt lat="42.8825725" lon="12.3167662"><ele>386.6</ele><time>2026-04-02T09:24:26.704Z</time></trkpt><trkpt lat="42.8825658" lon="12.3166345"><ele>388.2</ele><time>2026-04-02T09:24:27.703Z</time></trkpt><trkpt lat="42.8825534" lon="12.3164921"><ele>389.79999999999995</ele><time>2026-04-02T09:24:28.7Z</time></trkpt><trkpt lat="42.8825462" lon="12.3163513"><ele>391.4</ele><time>2026-04-02T09:24:29.701Z</time></trkpt><trkpt lat="42.8825422" lon="12.3162065"><ele>393.0</ele><time>2026-04-02T09:24:30.705Z</time></trkpt><trkpt lat="42.8825336" lon="12.316043"><ele>394.5</ele><time>2026-04-02T09:24:31.701Z</time></trkpt><trkpt lat="42.8825197" lon="12.3158676"><ele>396.0</ele><time>2026-04-02T09:24:32.699Z</time></trkpt><trkpt lat="42.8825105" lon="12.3156649"><ele>397.5</ele><time>2026-04-02T09:24:33.704Z</time></trkpt><trkpt lat="42.882495" lon="12.3154621"><ele>399.0</ele><time>2026-04-02T09:24:34.704Z</time></trkpt><trkpt lat="42.8824889" lon="12.3152893"><ele>399.2</ele><time>2026-04-02T09:24:35.709Z</time></trkpt><trkpt lat="42.8824772" lon="12.315121"><ele>399.4</ele><time>2026-04-02T09:24:36.706Z</time></trkpt><trkpt lat="42.8824672" lon="12.314978"><ele>399.6</ele><time>2026-04-02T09:24:37.705Z</time></trkpt><trkpt lat="42.8824532" lon="12.3148579"><ele>399.8</ele><time>2026-04-02T09:24:38.708Z</time></trkpt><trkpt lat="42.8824487" lon="12.3147601"><ele>400.0</ele><time>2026-04-02T09:24:39.702Z</time></trkpt><trkpt lat="42.8824383" lon="12.3146598"><ele>400.0</ele><time>2026-04-02T09:24:41.705Z</time></trkpt><trkpt lat="42.8823791" lon="12.3145376"><ele>400.0</ele><time>2026-04-02T09:24:44.708Z</time></trkpt><trkpt lat="42.8823193" lon="12.3144866"><ele>400.0</ele><time>2026-04-02T09:24:45.703Z</time></trkpt><trkpt lat="42.8822401" lon="12.3144376"><ele>400.0</ele><time>2026-04-02T09:24:46.7Z</time></trkpt><trkpt lat="42.8821503" lon="12.3143791"><ele>400.0</ele><time>2026-04-02T09:24:47.703Z</time></trkpt><trkpt lat="42.8820474" lon="12.3143138"><ele>400.0</ele><time>2026-04-02T09:24:48.703Z</time></trkpt><trkpt lat="42.8819364" lon="12.3142458"><ele>400.0</ele><time>2026-04-02T09:24:49.704Z</time></trkpt><trkpt lat="42.8818193" lon="12.3141682"><ele>400.0</ele><time>2026-04-02T09:24:50.701Z</time></trkpt><trkpt lat="42.8816921" lon="12.3140849"><ele>400.0</ele><time>2026-04-02T09:24:51.702Z</time></trkpt><trkpt lat="42.8815563" lon="12.3139978"><ele>398.33333333333337</ele><time>2026-04-02T09:24:52.702Z</time></trkpt><trkpt lat="42.881423" lon="12.3138985"><ele>396.66666666666663</ele><time>2026-04-02T09:24:53.702Z</time></trkpt><trkpt lat="42.8812879" lon="12.3137739"><ele>395.0</ele><time>2026-04-02T09:24:54.703Z</time></trkpt><trkpt lat="42.8811525" lon="12.3136314"><ele>395.0</ele><time>2026-04-02T09:24:55.7Z</time></trkpt><trkpt lat="42.8810222" lon="12.3134797"><ele>395.0</ele><time>2026-04-02T09:24:56.703Z</time></trkpt><trkpt lat="42.8808893" lon="12.3133278"><ele>395.0</ele><time>2026-04-02T09:24:57.706Z</time></trkpt><trkpt lat="42.8807536" lon="12.3131765"><ele>396.3333333333333</ele><time>2026-04-02T09:24:58.711Z</time></trkpt><trkpt lat="42.8806156" lon="12.313025"><ele>397.66666666666663</ele><time>2026-04-02T09:24:59.703Z</time></trkpt><trkpt lat="42.8804775" lon="12.312873"><ele>399.0</ele><time>2026-04-02T09:25:00.703Z</time></trkpt><trkpt lat="42.8803417" lon="12.3127221"><ele>399.0</ele><time>2026-04-02T09:25:01.708Z</time></trkpt><trkpt lat="42.880206" lon="12.3125702"><ele>399.0</ele><time>2026-04-02T09:25:02.704Z</time></trkpt><trkpt lat="42.8800766" lon="12.3124214"><ele>399.0</ele><time>2026-04-02T09:25:03.708Z</time></trkpt><trkpt lat="42.8799486" lon="12.3122744"><ele>399.33333333333337</ele><time>2026-04-02T09:25:04.706Z</time></trkpt><trkpt lat="42.8798146" lon="12.3121403"><ele>399.6666666666667</ele><time>2026-04-02T09:25:05.702Z</time></trkpt><trkpt lat="42.8796742" lon="12.312021"><ele>400.0</ele><time>2026-04-02T09:25:06.706Z</time></trkpt><trkpt lat="42.8795036" lon="12.3119237"><ele>400.0</ele><time>2026-04-02T09:25:07.702Z</time></trkpt><trkpt lat="42.8793372" lon="12.3118344"><ele>400.0</ele><time>2026-04-02T09:25:08.703Z</time></trkpt><trkpt lat="42.8791646" lon="12.311742"><ele>400.0</ele><time>2026-04-02T09:25:09.704Z</time></trkpt><trkpt lat="42.8790012" lon="12.3116436"><ele>398.6666666666667</ele><time>2026-04-02T09:25:10.705Z</time></trkpt><trkpt lat="42.8788309" lon="12.3115531"><ele>397.33333333333337</ele><time>2026-04-02T09:25:11.707Z</time></trkpt><trkpt lat="42.8786698" lon="12.311465"><ele>396.0</ele><time>2026-04-02T09:25:12.703Z</time></trkpt><trkpt lat="42.8785026" lon="12.3113785"><ele>398.0</ele><time>2026-04-02T09:25:13.701Z</time></trkpt><trkpt lat="42.8783371" lon="12.3112862"><ele>400.0</ele><time>2026-04-02T09:25:14.702Z</time></trkpt><trkpt lat="42.8781607" lon="12.311213"><ele>402.0</ele><time>2026-04-02T09:25:15.701Z</time></trkpt><trkpt lat="42.8779759" lon="12.3111576"><ele>402.0</ele><time>2026-04-02T09:25:16.702Z</time></trkpt><trkpt lat="42.8777835" lon="12.3111094"><ele>402.0</ele><time>2026-04-02T09:25:17.701Z</time></trkpt><trkpt lat="42.877586" lon="12.3110451"><ele>402.0</ele><time>2026-04-02T09:25:18.704Z</time></trkpt><trkpt lat="42.8773943" lon="12.3109454"><ele>402.66666666666663</ele><time>2026-04-02T09:25:19.703Z</time></trkpt><trkpt lat="42.877196" lon="12.3108404"><ele>403.3333333333333</ele><time>2026-04-02T09:25:20.702Z</time></trkpt><trkpt lat="42.876998" lon="12.310732"><ele>404.0</ele><time>2026-04-02T09:25:21.704Z</time></trkpt><trkpt lat="42.8767965" lon="12.3106191"><ele>404.0</ele><time>2026-04-02T09:25:22.702Z</time></trkpt><trkpt lat="42.8765902" lon="12.3104978"><ele>404.0</ele><time>2026-04-02T09:25:23.702Z</time></trkpt><trkpt lat="42.8763822" lon="12.310385"><ele>404.0</ele><time>2026-04-02T09:25:24.702Z</time></trkpt><trkpt lat="42.8761606" lon="12.3102672"><ele>407.0</ele><time>2026-04-02T09:25:25.703Z</time></trkpt><trkpt lat="42.8759316" lon="12.3101667"><ele>410.0</ele><time>2026-04-02T09:25:26.704Z</time></trkpt><trkpt lat="42.8756946" lon="12.3100644"><ele>410.0</ele><time>2026-04-02T09:25:27.702Z</time></trkpt><trkpt lat="42.8754521" lon="12.3099612"><ele>410.0</ele><time>2026-04-02T09:25:28.697Z</time></trkpt><trkpt lat="42.8752057" lon="12.309857"><ele>409.5</ele><time>2026-04-02T09:25:29.701Z</time></trkpt><trkpt lat="42.8749642" lon="12.3097503"><ele>409.0</ele><time>2026-04-02T09:25:30.705Z</time></trkpt><trkpt lat="42.874737" lon="12.3096528"><ele>408.0</ele><time>2026-04-02T09:25:31.705Z</time></trkpt><trkpt lat="42.8745239" lon="12.3095579"><ele>407.0</ele><time>2026-04-02T09:25:32.705Z</time></trkpt><trkpt lat="42.8743188" lon="12.3094754"><ele>406.0</ele><time>2026-04-02T09:25:33.702Z</time></trkpt><trkpt lat="42.8741042" lon="12.3094114"><ele>408.0</ele><time>2026-04-02T09:25:34.703Z</time></trkpt><trkpt lat="42.8738873" lon="12.3093667"><ele>410.0</ele><time>2026-04-02T09:25:35.703Z</time></trkpt><trkpt lat="42.8736667" lon="12.3093205"><ele>412.0</ele><time>2026-04-02T09:25:36.699Z</time></trkpt><trkpt lat="42.8734563" lon="12.309276"><ele>414.0</ele><time>2026-04-02T09:25:37.703Z</time></trkpt><trkpt lat="42.8732509" lon="12.3092351"><ele>416.0</ele><time>2026-04-02T09:25:38.701Z</time></trkpt><trkpt lat="42.8730577" lon="12.3091863"><ele>418.0</ele><time>2026-04-02T09:25:39.702Z</time></trkpt><trkpt lat="42.8728674" lon="12.3091162"><ele>418.0</ele><time>2026-04-02T09:25:40.708Z</time></trkpt><trkpt lat="42.8726899" lon="12.3090136"><ele>418.0</ele><time>2026-04-02T09:25:41.701Z</time></trkpt><trkpt lat="42.8725033" lon="12.3089155"><ele>418.0</ele><time>2026-04-02T09:25:42.708Z</time></trkpt><trkpt lat="42.8723006" lon="12.3088387"><ele>420.33333333333337</ele><time>2026-04-02T09:25:43.704Z</time></trkpt><trkpt lat="42.8720871" lon="12.3087836"><ele>422.66666666666663</ele><time>2026-04-02T09:25:44.7Z</time></trkpt><trkpt lat="42.871874" lon="12.3087359"><ele>425.0</ele><time>2026-04-02T09:25:45.699Z</time></trkpt><trkpt lat="42.8716546" lon="12.3086983"><ele>426.0</ele><time>2026-04-02T09:25:46.701Z</time></trkpt><trkpt lat="42.8714299" lon="12.3086783"><ele>427.0</ele><time>2026-04-02T09:25:47.706Z</time></trkpt><trkpt lat="42.8712045" lon="12.308674"><ele>427.0</ele><time>2026-04-02T09:25:48.699Z</time></trkpt><trkpt lat="42.8709702" lon="12.3086669"><ele>427.0</ele><time>2026-04-02T09:25:49.702Z</time></trkpt><trkpt lat="42.8707299" lon="12.3086582"><ele>428.5</ele><time>2026-04-02T09:25:50.7Z</time></trkpt><trkpt lat="42.8704921" lon="12.3086448"><ele>430.0</ele><time>2026-04-02T09:25:51.704Z</time></trkpt><trkpt lat="42.8702741" lon="12.3086307"><ele>431.6666666666667</ele><time>2026-04-02T09:25:52.704Z</time></trkpt><trkpt lat="42.8700891" lon="12.3086178"><ele>433.33333333333337</ele><time>2026-04-02T09:25:53.705Z</time></trkpt><trkpt lat="42.8699382" lon="12.308609"><ele>435.0</ele><time>2026-04-02T09:25:54.706Z</time></trkpt><trkpt lat="42.8698148" lon="12.3085929"><ele>435.0</ele><time>2026-04-02T09:25:55.709Z</time></trkpt><trkpt lat="42.8697078" lon="12.30858"><ele>435.0</ele><time>2026-04-02T09:25:56.702Z</time></trkpt><trkpt lat="42.8696215" lon="12.3085732"><ele>435.0</ele><time>2026-04-02T09:25:57.705Z</time></trkpt><trkpt lat="42.8695499" lon="12.3085687"><ele>435.0</ele><time>2026-04-02T09:25:58.704Z</time></trkpt><trkpt lat="42.8694591" lon="12.3085616"><ele>435.0</ele><time>2026-04-02T09:26:00.705Z</time></trkpt><trkpt lat="42.869469" lon="12.3086494"><ele>435.0</ele><time>2026-04-02T09:26:12.704Z</time></trkpt><trkpt lat="42.8695635" lon="12.3086368"><ele>435.0</ele><time>2026-04-02T09:26:14.705Z</time></trkpt><trkpt lat="42.8696745" lon="12.3085936"><ele>435.0</ele><time>2026-04-02T09:26:16.706Z</time></trkpt><trkpt lat="42.8697435" lon="12.3084421"><ele>435.0</ele><time>2026-04-02T09:26:18.701Z</time></trkpt><trkpt lat="42.8697541" lon="12.3083251"><ele>435.0</ele><time>2026-04-02T09:26:19.703Z</time></trkpt><trkpt lat="42.869757" lon="12.3081858"><ele>435.0</ele><time>2026-04-02T09:26:20.702Z</time></trkpt><trkpt lat="42.8697734" lon="12.3080307"><ele>435.5</ele><time>2026-04-02T09:26:21.699Z</time></trkpt><trkpt lat="42.8698046" lon="12.3078871"><ele>436.0</ele><time>2026-04-02T09:26:22.706Z</time></trkpt><trkpt lat="42.8698465" lon="12.3077321"><ele>436.5</ele><time>2026-04-02T09:26:23.7Z</time></trkpt><trkpt lat="42.8699042" lon="12.3075734"><ele>437.0</ele><time>2026-04-02T09:26:24.7Z</time></trkpt><trkpt lat="42.8699787" lon="12.3074267"><ele>437.0</ele><time>2026-04-02T09:26:25.702Z</time></trkpt><trkpt lat="42.8700662" lon="12.307283"><ele>437.0</ele><time>2026-04-02T09:26:26.704Z</time></trkpt><trkpt lat="42.8701718" lon="12.3071649"><ele>437.0</ele><time>2026-04-02T09:26:27.705Z</time></trkpt><trkpt lat="42.8702822" lon="12.3070404"><ele>437.0</ele><time>2026-04-02T09:26:28.705Z</time></trkpt><trkpt lat="42.8703698" lon="12.3069087"><ele>437.5</ele><time>2026-04-02T09:26:29.703Z</time></trkpt><trkpt lat="42.8704183" lon="12.3067344"><ele>438.0</ele><time>2026-04-02T09:26:30.704Z</time></trkpt><trkpt lat="42.8704312" lon="12.3065289"><ele>438.5</ele><time>2026-04-02T09:26:31.702Z</time></trkpt><trkpt lat="42.8704157" lon="12.3063181"><ele>439.0</ele><time>2026-04-02T09:26:32.704Z</time></trkpt><trkpt lat="42.8704121" lon="12.3061003"><ele>439.0</ele><time>2026-04-02T09:26:33.701Z</time></trkpt><trkpt lat="42.8704117" lon="12.3058841"><ele>439.0</ele><time>2026-04-02T09:26:34.712Z</time></trkpt><trkpt lat="42.8704022" lon="12.3056682"><ele>439.0</ele><time>2026-04-02T09:26:35.707Z</time></trkpt><trkpt lat="42.8703752" lon="12.3054478"><ele>440.6666666666667</ele><time>2026-04-02T09:26:36.701Z</time></trkpt><trkpt lat="42.8703401" lon="12.3052239"><ele>442.33333333333337</ele><time>2026-04-02T09:26:37.703Z</time></trkpt><trkpt lat="42.8702985" lon="12.3050028"><ele>444.0</ele><time>2026-04-02T09:26:38.703Z</time></trkpt><trkpt lat="42.8702536" lon="12.3047842"><ele>444.75</ele><time>2026-04-02T09:26:39.704Z</time></trkpt><trkpt lat="42.8702185" lon="12.3045957"><ele>445.5</ele><time>2026-04-02T09:26:40.709Z</time></trkpt><trkpt lat="42.8701863" lon="12.3044172"><ele>446.25</ele><time>2026-04-02T09:26:41.701Z</time></trkpt><trkpt lat="42.8701506" lon="12.3042535"><ele>447.0</ele><time>2026-04-02T09:26:42.701Z</time></trkpt><trkpt lat="42.8700939" lon="12.3040945"><ele>447.5</ele><time>2026-04-02T09:26:43.704Z</time></trkpt><trkpt lat="42.8700178" lon="12.3039443"><ele>448.0</ele><time>2026-04-02T09:26:44.702Z</time></trkpt><trkpt lat="42.8699294" lon="12.3037938"><ele>448.5</ele><time>2026-04-02T09:26:45.704Z</time></trkpt><trkpt lat="42.8698527" lon="12.3036483"><ele>449.0</ele><time>2026-04-02T09:26:46.711Z</time></trkpt><trkpt lat="42.8697967" lon="12.3035232"><ele>447.8333333333333</ele><time>2026-04-02T09:26:47.704Z</time></trkpt><trkpt lat="42.8697564" lon="12.3034012"><ele>446.66666666666663</ele><time>2026-04-02T09:26:48.702Z</time></trkpt><trkpt lat="42.8697479" lon="12.3032917"><ele>445.5</ele><time>2026-04-02T09:26:49.704Z</time></trkpt><trkpt lat="42.8697649" lon="12.303206"><ele>444.33333333333337</ele><time>2026-04-02T09:26:50.71Z</time></trkpt><trkpt lat="42.8697665" lon="12.3030873"><ele>443.1666666666667</ele><time>2026-04-02T09:26:52.704Z</time></trkpt><trkpt lat="42.8697052" lon="12.3030221"><ele>442.0</ele><time>2026-04-02T09:26:54.716Z</time></trkpt><trkpt lat="42.8695933" lon="12.3029872"><ele>441.8</ele><time>2026-04-02T09:26:56.704Z</time></trkpt><trkpt lat="42.8695101" lon="12.3029731"><ele>441.6</ele><time>2026-04-02T09:26:57.705Z</time></trkpt><trkpt lat="42.8694149" lon="12.3029462"><ele>441.40000000000003</ele><time>2026-04-02T09:26:58.704Z</time></trkpt><trkpt lat="42.8693158" lon="12.3029116"><ele>441.20000000000005</ele><time>2026-04-02T09:26:59.704Z</time></trkpt><trkpt lat="42.8692148" lon="12.3028742"><ele>441.0</ele><time>2026-04-02T09:27:00.707Z</time></trkpt><trkpt lat="42.8691027" lon="12.3028263"><ele>441.0</ele><time>2026-04-02T09:27:01.707Z</time></trkpt><trkpt lat="42.8689865" lon="12.3027807"><ele>441.0</ele><time>2026-04-02T09:27:02.699Z</time></trkpt><trkpt lat="42.8688711" lon="12.3027411"><ele>441.0</ele><time>2026-04-02T09:27:03.71Z</time></trkpt><trkpt lat="42.868761" lon="12.3027051"><ele>441.0</ele><time>2026-04-02T09:27:04.701Z</time></trkpt><trkpt lat="42.8686432" lon="12.3026769"><ele>441.0</ele><time>2026-04-02T09:27:05.704Z</time></trkpt><trkpt lat="42.8685269" lon="12.3026592"><ele>441.0</ele><time>2026-04-02T09:27:06.701Z</time></trkpt><trkpt lat="42.8683985" lon="12.3026381"><ele>441.0</ele><time>2026-04-02T09:27:07.703Z</time></trkpt><trkpt lat="42.8682585" lon="12.3026207"><ele>441.0</ele><time>2026-04-02T09:27:08.703Z</time></trkpt><trkpt lat="42.8681269" lon="12.3026001"><ele>440.75</ele><time>2026-04-02T09:27:09.701Z</time></trkpt><trkpt lat="42.8680074" lon="12.3025881"><ele>440.5</ele><time>2026-04-02T09:27:10.704Z</time></trkpt><trkpt lat="42.8678994" lon="12.3025683"><ele>440.25</ele><time>2026-04-02T09:27:11.702Z</time></trkpt><trkpt lat="42.8677869" lon="12.3025169"><ele>440.0</ele><time>2026-04-02T09:27:12.703Z</time></trkpt><trkpt lat="42.8676835" lon="12.3024513"><ele>440.0</ele><time>2026-04-02T09:27:13.711Z</time></trkpt><trkpt lat="42.8675751" lon="12.3023788"><ele>440.0</ele><time>2026-04-02T09:27:14.704Z</time></trkpt><trkpt lat="42.8674725" lon="12.3023304"><ele>440.0</ele><time>2026-04-02T09:27:15.705Z</time></trkpt><trkpt lat="42.8673722" lon="12.3022904"><ele>440.0</ele><time>2026-04-02T09:27:16.708Z</time></trkpt><trkpt lat="42.8672638" lon="12.3022647"><ele>440.0</ele><time>2026-04-02T09:27:17.701Z</time></trkpt><trkpt lat="42.8671504" lon="12.302254"><ele>438.0</ele><time>2026-04-02T09:27:18.707Z</time></trkpt><trkpt lat="42.8670313" lon="12.3022311"><ele>436.0</ele><time>2026-04-02T09:27:19.702Z</time></trkpt><trkpt lat="42.8669073" lon="12.3021923"><ele>434.0</ele><time>2026-04-02T09:27:20.708Z</time></trkpt><trkpt lat="42.8667751" lon="12.3021362"><ele>432.0</ele><time>2026-04-02T09:27:21.71Z</time></trkpt><trkpt lat="42.8666477" lon="12.3020744"><ele>432.0</ele><time>2026-04-02T09:27:22.702Z</time></trkpt><trkpt lat="42.8665145" lon="12.3020128"><ele>432.0</ele><time>2026-04-02T09:27:23.701Z</time></trkpt><trkpt lat="42.8663799" lon="12.3019442"><ele>432.0</ele><time>2026-04-02T09:27:24.7Z</time></trkpt><trkpt lat="42.8662445" lon="12.3018717"><ele>432.0</ele><time>2026-04-02T09:27:25.708Z</time></trkpt><trkpt lat="42.8661225" lon="12.301805"><ele>432.0</ele><time>2026-04-02T09:27:26.705Z</time></trkpt><trkpt lat="42.8660033" lon="12.3017544"><ele>432.00000000000006</ele><time>2026-04-02T09:27:27.699Z</time></trkpt><trkpt lat="42.8658827" lon="12.3017221"><ele>432.00000000000006</ele><time>2026-04-02T09:27:28.702Z</time></trkpt><trkpt lat="42.8657745" lon="12.3017105"><ele>432.0</ele><time>2026-04-02T09:27:29.706Z</time></trkpt><trkpt lat="42.8656982" lon="12.3017012"><ele>432.0</ele><time>2026-04-02T09:27:30.707Z</time></trkpt><trkpt lat="42.8656267" lon="12.3017024"><ele>434.0</ele><time>2026-04-02T09:27:31.703Z</time></trkpt><trkpt lat="42.8655567" lon="12.3016884"><ele>436.0</ele><time>2026-04-02T09:27:32.703Z</time></trkpt><trkpt lat="42.8654881" lon="12.3016777"><ele>438.0</ele><time>2026-04-02T09:27:33.704Z</time></trkpt><trkpt lat="42.8654127" lon="12.3016879"><ele>440.0</ele><time>2026-04-02T09:27:35.707Z</time></trkpt><trkpt lat="42.8654101" lon="12.301821"><ele>442.0</ele><time>2026-04-02T09:27:38.705Z</time></trkpt><trkpt lat="42.8654203" lon="12.301934"><ele>444.0</ele><time>2026-04-02T09:27:40.707Z</time></trkpt><trkpt lat="42.8654147" lon="12.3020502"><ele>444.0</ele><time>2026-04-02T09:27:42.706Z</time></trkpt><trkpt lat="42.865402" lon="12.3021641"><ele>444.0</ele><time>2026-04-02T09:27:46.703Z</time></trkpt><trkpt lat="42.8654176" lon="12.3022696"><ele>444.0</ele><time>2026-04-02T09:27:49.706Z</time></trkpt><trkpt lat="42.865436" lon="12.302178"><ele>444.0</ele><time>2026-04-02T09:27:55.702Z</time></trkpt><trkpt lat="42.8654296" lon="12.3020444"><ele>444.0</ele><time>2026-04-02T09:27:57.701Z</time></trkpt><trkpt lat="42.865408" lon="12.3019183"><ele>444.0</ele><time>2026-04-02T09:28:00.708Z</time></trkpt><trkpt lat="42.865323" lon="12.3018696"><ele>444.0</ele><time>2026-04-02T09:28:02.711Z</time></trkpt><trkpt lat="42.8652103" lon="12.3018228"><ele>444.0</ele><time>2026-04-02T09:28:04.711Z</time></trkpt><trkpt lat="42.8651485" lon="12.3018013"><ele>444.0</ele><time>2026-04-02T09:28:05.705Z</time></trkpt><trkpt lat="42.8650835" lon="12.3017839"><ele>444.0</ele><time>2026-04-02T09:28:06.704Z</time></trkpt><trkpt lat="42.8649717" lon="12.3017946"><ele>444.0</ele><time>2026-04-02T09:28:08.706Z</time></trkpt><trkpt lat="42.8648981" lon="12.3018411"><ele>444.0</ele><time>2026-04-02T09:28:09.706Z</time></trkpt><trkpt lat="42.864812" lon="12.3018909"><ele>444.6</ele><time>2026-04-02T09:28:10.706Z</time></trkpt><trkpt lat="42.8647191" lon="12.3019465"><ele>445.2</ele><time>2026-04-02T09:28:11.706Z</time></trkpt><trkpt lat="42.8646257" lon="12.3020126"><ele>445.80000000000007</ele><time>2026-04-02T09:28:12.704Z</time></trkpt><trkpt lat="42.8645304" lon="12.3020696"><ele>446.40000000000003</ele><time>2026-04-02T09:28:13.702Z</time></trkpt><trkpt lat="42.8644341" lon="12.3021188"><ele>447.0</ele><time>2026-04-02T09:28:14.701Z</time></trkpt><trkpt lat="42.8643383" lon="12.3021514"><ele>446.8</ele><time>2026-04-02T09:28:15.703Z</time></trkpt><trkpt lat="42.8642353" lon="12.3021579"><ele>446.6</ele><time>2026-04-02T09:28:16.708Z</time></trkpt><trkpt lat="42.8641268" lon="12.3021493"><ele>446.40000000000003</ele><time>2026-04-02T09:28:17.704Z</time></trkpt><trkpt lat="42.8640198" lon="12.3021252"><ele>446.20000000000005</ele><time>2026-04-02T09:28:18.705Z</time></trkpt><trkpt lat="42.8639256" lon="12.302083"><ele>446.0</ele><time>2026-04-02T09:28:19.702Z</time></trkpt><trkpt lat="42.8638348" lon="12.3020416"><ele>446.0</ele><time>2026-04-02T09:28:20.706Z</time></trkpt><trkpt lat="42.8637453" lon="12.301991"><ele>446.0</ele><time>2026-04-02T09:28:21.703Z</time></trkpt><trkpt lat="42.8636493" lon="12.3019384"><ele>446.0</ele><time>2026-04-02T09:28:22.706Z</time></trkpt><trkpt lat="42.8635562" lon="12.3018951"><ele>446.0</ele><time>2026-04-02T09:28:23.705Z</time></trkpt><trkpt lat="42.8634686" lon="12.3018453"><ele>446.0</ele><time>2026-04-02T09:28:24.707Z</time></trkpt><trkpt lat="42.8633823" lon="12.3018056"><ele>447.3333333333333</ele><time>2026-04-02T09:28:25.703Z</time></trkpt><trkpt lat="42.8632976" lon="12.3017776"><ele>448.66666666666663</ele><time>2026-04-02T09:28:26.707Z</time></trkpt><trkpt lat="42.8632179" lon="12.3017526"><ele>450.0</ele><time>2026-04-02T09:28:27.702Z</time></trkpt><trkpt lat="42.8631455" lon="12.3017497"><ele>451.33333333333337</ele><time>2026-04-02T09:28:28.705Z</time></trkpt><trkpt lat="42.8630419" lon="12.3017403"><ele>452.6666666666667</ele><time>2026-04-02T09:28:30.706Z</time></trkpt><trkpt lat="42.8629768" lon="12.3017393"><ele>454.0</ele><time>2026-04-02T09:28:32.701Z</time></trkpt><trkpt lat="42.862894" lon="12.3017444"><ele>454.00000000000006</ele><time>2026-04-02T09:28:40.704Z</time></trkpt><trkpt lat="42.8627999" lon="12.3017428"><ele>454.0</ele><time>2026-04-02T09:28:42.705Z</time></trkpt><trkpt lat="42.8627037" lon="12.3017131"><ele>454.0</ele><time>2026-04-02T09:28:44.71Z</time></trkpt><trkpt lat="42.8626401" lon="12.3017055"><ele>454.0</ele><time>2026-04-02T09:28:45.708Z</time></trkpt><trkpt lat="42.8625683" lon="12.301699"><ele>454.00000000000006</ele><time>2026-04-02T09:28:46.707Z</time></trkpt><trkpt lat="42.8624944" lon="12.3016943"><ele>454.0</ele><time>2026-04-02T09:28:47.708Z</time></trkpt><trkpt lat="42.8624207" lon="12.3016884"><ele>453.28571428571433</ele><time>2026-04-02T09:28:48.704Z</time></trkpt><trkpt lat="42.8623497" lon="12.3016719"><ele>452.5714285714286</ele><time>2026-04-02T09:28:49.704Z</time></trkpt><trkpt lat="42.8622885" lon="12.3016342"><ele>451.8571428571429</ele><time>2026-04-02T09:28:50.702Z</time></trkpt><trkpt lat="42.8622252" lon="12.3016002"><ele>451.1428571428571</ele><time>2026-04-02T09:28:51.701Z</time></trkpt><trkpt lat="42.8621558" lon="12.3015415"><ele>450.4285714285714</ele><time>2026-04-02T09:28:52.716Z</time></trkpt><trkpt lat="42.8620825" lon="12.3014771"><ele>449.71428571428567</ele><time>2026-04-02T09:28:53.703Z</time></trkpt><trkpt lat="42.8620237" lon="12.3014232"><ele>449.0</ele><time>2026-04-02T09:28:54.703Z</time></trkpt><trkpt lat="42.8619589" lon="12.3013735"><ele>448.99999999999994</ele><time>2026-04-02T09:28:55.705Z</time></trkpt><trkpt lat="42.861886" lon="12.3013414"><ele>449.0</ele><time>2026-04-02T09:28:56.699Z</time></trkpt><trkpt lat="42.861808" lon="12.3013299"><ele>449.0</ele><time>2026-04-02T09:28:57.704Z</time></trkpt><trkpt lat="42.8617217" lon="12.3013361"><ele>449.0</ele><time>2026-04-02T09:28:58.702Z</time></trkpt><trkpt lat="42.8616234" lon="12.3013484"><ele>448.99999999999994</ele><time>2026-04-02T09:28:59.702Z</time></trkpt><trkpt lat="42.861527" lon="12.3013578"><ele>449.0</ele><time>2026-04-02T09:29:00.702Z</time></trkpt><trkpt lat="42.8614268" lon="12.3013635"><ele>448.79999999999995</ele><time>2026-04-02T09:29:01.702Z</time></trkpt><trkpt lat="42.8613345" lon="12.3013676"><ele>448.59999999999997</ele><time>2026-04-02T09:29:02.703Z</time></trkpt><trkpt lat="42.8612541" lon="12.3013609"><ele>448.4</ele><time>2026-04-02T09:29:03.706Z</time></trkpt><trkpt lat="42.8611761" lon="12.3013609"><ele>448.2</ele><time>2026-04-02T09:29:04.701Z</time></trkpt><trkpt lat="42.8610936" lon="12.3014197"><ele>448.0</ele><time>2026-04-02T09:29:06.707Z</time></trkpt><trkpt lat="42.8610883" lon="12.3015844"><ele>450.00000000000006</ele><time>2026-04-02T09:29:08.702Z</time></trkpt><trkpt lat="42.8610996" lon="12.3016702"><ele>452.0</ele><time>2026-04-02T09:29:09.713Z</time></trkpt><trkpt lat="42.8611424" lon="12.3018298"><ele>454.0</ele><time>2026-04-02T09:29:11.708Z</time></trkpt><trkpt lat="42.8611664" lon="12.301916"><ele>456.0</ele><time>2026-04-02T09:29:12.708Z</time></trkpt><trkpt lat="42.8611887" lon="12.3020041"><ele>458.00000000000006</ele><time>2026-04-02T09:29:13.704Z</time></trkpt><trkpt lat="42.8611992" lon="12.3020959"><ele>460.0</ele><time>2026-04-02T09:29:14.702Z</time></trkpt><trkpt lat="42.8611984" lon="12.3022515"><ele>461.8</ele><time>2026-04-02T09:29:16.709Z</time></trkpt><trkpt lat="42.8611433" lon="12.3023698"><ele>463.6</ele><time>2026-04-02T09:29:18.702Z</time></trkpt><trkpt lat="42.861011" lon="12.3024088"><ele>465.4</ele><time>2026-04-02T09:29:20.702Z</time></trkpt><trkpt lat="42.8609154" lon="12.3024125"><ele>467.2</ele><time>2026-04-02T09:29:21.706Z</time></trkpt><trkpt lat="42.8608134" lon="12.3024132"><ele>469.0</ele><time>2026-04-02T09:29:22.703Z</time></trkpt><trkpt lat="42.8607015" lon="12.3024183"><ele>469.00000000000006</ele><time>2026-04-02T09:29:23.706Z</time></trkpt><trkpt lat="42.8606015" lon="12.3024203"><ele>469.0</ele><time>2026-04-02T09:29:24.702Z</time></trkpt><trkpt lat="42.8605101" lon="12.3024216"><ele>469.0</ele><time>2026-04-02T09:29:25.704Z</time></trkpt><trkpt lat="42.8604285" lon="12.3024293"><ele>469.0</ele><time>2026-04-02T09:29:26.705Z</time></trkpt><trkpt lat="42.8603518" lon="12.3024364"><ele>469.00000000000006</ele><time>2026-04-02T09:29:27.704Z</time></trkpt><trkpt lat="42.8602914" lon="12.3024754"><ele>469.0</ele><time>2026-04-02T09:29:28.709Z</time></trkpt><trkpt lat="42.8602473" lon="12.30254"><ele>469.00000000000006</ele><time>2026-04-02T09:29:29.708Z</time></trkpt><trkpt lat="42.8602124" lon="12.3026149"><ele>469.0</ele><time>2026-04-02T09:29:30.703Z</time></trkpt><trkpt lat="42.8601755" lon="12.3027084"><ele>469.0</ele><time>2026-04-02T09:29:31.704Z</time></trkpt><trkpt lat="42.8601321" lon="12.3027966"><ele>469.0</ele><time>2026-04-02T09:29:32.703Z</time></trkpt><trkpt lat="42.8600829" lon="12.3029068"><ele>469.00000000000006</ele><time>2026-04-02T09:29:33.705Z</time></trkpt><trkpt lat="42.8600326" lon="12.3030281"><ele>469.0</ele><time>2026-04-02T09:29:34.707Z</time></trkpt><trkpt lat="42.859979" lon="12.3031522"><ele>471.5</ele><time>2026-04-02T09:29:35.71Z</time></trkpt><trkpt lat="42.8599123" lon="12.3032955"><ele>474.0</ele><time>2026-04-02T09:29:36.705Z</time></trkpt><trkpt lat="42.8598486" lon="12.3034342"><ele>476.5</ele><time>2026-04-02T09:29:37.703Z</time></trkpt><trkpt lat="42.8597765" lon="12.3035642"><ele>479.0</ele><time>2026-04-02T09:29:38.709Z</time></trkpt><trkpt lat="42.859698" lon="12.3036924"><ele>479.0</ele><time>2026-04-02T09:29:39.708Z</time></trkpt><trkpt lat="42.8596187" lon="12.3038227"><ele>479.0</ele><time>2026-04-02T09:29:40.705Z</time></trkpt><trkpt lat="42.8595413" lon="12.3039405"><ele>479.0</ele><time>2026-04-02T09:29:41.705Z</time></trkpt><trkpt lat="42.8594671" lon="12.3040506"><ele>479.0</ele><time>2026-04-02T09:29:42.701Z</time></trkpt><trkpt lat="42.859394" lon="12.304172"><ele>481.0</ele><time>2026-04-02T09:29:43.702Z</time></trkpt><trkpt lat="42.8593185" lon="12.3042832"><ele>483.0</ele><time>2026-04-02T09:29:44.704Z</time></trkpt><trkpt lat="42.8592394" lon="12.3043864"><ele>485.0</ele><time>2026-04-02T09:29:45.701Z</time></trkpt><trkpt lat="42.8591623" lon="12.3044881"><ele>487.0</ele><time>2026-04-02T09:29:46.708Z</time></trkpt><trkpt lat="42.8590827" lon="12.304573"><ele>489.0</ele><time>2026-04-02T09:29:47.704Z</time></trkpt><trkpt lat="42.8590015" lon="12.3046436"><ele>489.0</ele><time>2026-04-02T09:29:48.704Z</time></trkpt><trkpt lat="42.8588907" lon="12.3046929"><ele>489.0</ele><time>2026-04-02T09:29:49.705Z</time></trkpt><trkpt lat="42.8587786" lon="12.3047263"><ele>489.0</ele><time>2026-04-02T09:29:50.704Z</time></trkpt><trkpt lat="42.8586729" lon="12.3047499"><ele>489.0</ele><time>2026-04-02T09:29:51.709Z</time></trkpt><trkpt lat="42.8585893" lon="12.3047715"><ele>489.0</ele><time>2026-04-02T09:29:52.706Z</time></trkpt><trkpt lat="42.8585111" lon="12.3047874"><ele>490.2</ele><time>2026-04-02T09:29:53.706Z</time></trkpt><trkpt lat="42.8584401" lon="12.3048203"><ele>491.4</ele><time>2026-04-02T09:29:54.704Z</time></trkpt><trkpt lat="42.8583568" lon="12.3048414"><ele>492.6</ele><time>2026-04-02T09:29:55.706Z</time></trkpt><trkpt lat="42.8582639" lon="12.3048319"><ele>493.8</ele><time>2026-04-02T09:29:56.705Z</time></trkpt><trkpt lat="42.8581682" lon="12.3048016"><ele>495.0</ele><time>2026-04-02T09:29:57.705Z</time></trkpt><trkpt lat="42.8580717" lon="12.3047735"><ele>495.0</ele><time>2026-04-02T09:29:58.708Z</time></trkpt><trkpt lat="42.8579629" lon="12.3047662"><ele>495.0</ele><time>2026-04-02T09:29:59.702Z</time></trkpt><trkpt lat="42.8578414" lon="12.304764"><ele>495.0</ele><time>2026-04-02T09:30:00.703Z</time></trkpt><trkpt lat="42.8577197" lon="12.3047797"><ele>495.0</ele><time>2026-04-02T09:30:01.706Z</time></trkpt><trkpt lat="42.857602" lon="12.304798"><ele>494.8</ele><time>2026-04-02T09:30:02.704Z</time></trkpt><trkpt lat="42.8574829" lon="12.3048117"><ele>494.6</ele><time>2026-04-02T09:30:03.704Z</time></trkpt><trkpt lat="42.8573767" lon="12.3048387"><ele>494.4</ele><time>2026-04-02T09:30:04.702Z</time></trkpt><trkpt lat="42.8572759" lon="12.3048738"><ele>494.2</ele><time>2026-04-02T09:30:05.703Z</time></trkpt><trkpt lat="42.8571913" lon="12.3049287"><ele>494.0</ele><time>2026-04-02T09:30:06.704Z</time></trkpt><trkpt lat="42.8571268" lon="12.3049942"><ele>493.99999999999994</ele><time>2026-04-02T09:30:07.702Z</time></trkpt><trkpt lat="42.8570891" lon="12.305072"><ele>494.0</ele><time>2026-04-02T09:30:08.706Z</time></trkpt><trkpt lat="42.8570712" lon="12.3051659"><ele>494.0</ele><time>2026-04-02T09:30:09.709Z</time></trkpt><trkpt lat="42.8570622" lon="12.3052902"><ele>494.0</ele><time>2026-04-02T09:30:10.704Z</time></trkpt><trkpt lat="42.8570625" lon="12.3054195"><ele>493.99999999999994</ele><time>2026-04-02T09:30:11.703Z</time></trkpt><trkpt lat="42.8570618" lon="12.3055543"><ele>494.0</ele><time>2026-04-02T09:30:12.704Z</time></trkpt><trkpt lat="42.8570517" lon="12.3056718"><ele>493.4</ele><time>2026-04-02T09:30:13.705Z</time></trkpt><trkpt lat="42.8570332" lon="12.3057844"><ele>492.79999999999995</ele><time>2026-04-02T09:30:14.701Z</time></trkpt><trkpt lat="42.8569902" lon="12.3058776"><ele>492.20000000000005</ele><time>2026-04-02T09:30:15.706Z</time></trkpt><trkpt lat="42.8569035" lon="12.3059724"><ele>491.6</ele><time>2026-04-02T09:30:16.7Z</time></trkpt><trkpt lat="42.8568219" lon="12.3060573"><ele>491.0</ele><time>2026-04-02T09:30:17.704Z</time></trkpt><trkpt lat="42.8567428" lon="12.3061225"><ele>491.6</ele><time>2026-04-02T09:30:18.712Z</time></trkpt><trkpt lat="42.8566631" lon="12.3061702"><ele>492.20000000000005</ele><time>2026-04-02T09:30:19.709Z</time></trkpt><trkpt lat="42.8565955" lon="12.3062106"><ele>492.79999999999995</ele><time>2026-04-02T09:30:20.704Z</time></trkpt><trkpt lat="42.8564862" lon="12.3063017"><ele>493.4</ele><time>2026-04-02T09:30:22.709Z</time></trkpt><trkpt lat="42.8564145" lon="12.3063695"><ele>494.0</ele><time>2026-04-02T09:30:23.702Z</time></trkpt><trkpt lat="42.8563321" lon="12.3064462"><ele>494.0</ele><time>2026-04-02T09:30:24.702Z</time></trkpt><trkpt lat="42.8562396" lon="12.3065326"><ele>494.0</ele><time>2026-04-02T09:30:25.705Z</time></trkpt><trkpt lat="42.8560586" lon="12.3067348"><ele>494.0</ele><time>2026-04-02T09:30:27.702Z</time></trkpt><trkpt lat="42.8559565" lon="12.3068415"><ele>496.25</ele><time>2026-04-02T09:30:28.702Z</time></trkpt><trkpt lat="42.8558486" lon="12.3069425"><ele>498.5</ele><time>2026-04-02T09:30:29.703Z</time></trkpt><trkpt lat="42.8557449" lon="12.3070498"><ele>500.75</ele><time>2026-04-02T09:30:30.707Z</time></trkpt><trkpt lat="42.8556459" lon="12.3071352"><ele>503.0</ele><time>2026-04-02T09:30:31.707Z</time></trkpt><trkpt lat="42.8555283" lon="12.3071988"><ele>504.0</ele><time>2026-04-02T09:30:32.704Z</time></trkpt><trkpt lat="42.8551124" lon="12.307239"><ele>505.0</ele><time>2026-04-02T09:30:35.702Z</time></trkpt><trkpt lat="42.8550059" lon="12.307297"><ele>504.33333333333337</ele><time>2026-04-02T09:30:36.701Z</time></trkpt><trkpt lat="42.8549145" lon="12.3073545"><ele>503.6666666666667</ele><time>2026-04-02T09:30:37.702Z</time></trkpt><trkpt lat="42.8548324" lon="12.3074134"><ele>503.0</ele><time>2026-04-02T09:30:38.7Z</time></trkpt><trkpt lat="42.8547587" lon="12.3074342"><ele>502.33333333333337</ele><time>2026-04-02T09:30:39.701Z</time></trkpt><trkpt lat="42.854673" lon="12.3074364"><ele>501.6666666666667</ele><time>2026-04-02T09:30:40.703Z</time></trkpt><trkpt lat="42.8546069" lon="12.3073725"><ele>501.0</ele><time>2026-04-02T09:30:41.7Z</time></trkpt><trkpt lat="42.8545588" lon="12.3072895"><ele>501.8</ele><time>2026-04-02T09:30:42.708Z</time></trkpt><trkpt lat="42.8545333" lon="12.3071844"><ele>502.6</ele><time>2026-04-02T09:30:43.702Z</time></trkpt><trkpt lat="42.8545646" lon="12.3070453"><ele>503.4</ele><time>2026-04-02T09:30:44.702Z</time></trkpt><trkpt lat="42.854631" lon="12.3069026"><ele>504.2</ele><time>2026-04-02T09:30:45.711Z</time></trkpt><trkpt lat="42.8547011" lon="12.3067638"><ele>505.0</ele><time>2026-04-02T09:30:46.705Z</time></trkpt><trkpt lat="42.8547672" lon="12.3066095"><ele>505.0</ele><time>2026-04-02T09:30:47.704Z</time></trkpt><trkpt lat="42.8548172" lon="12.3064501"><ele>505.0</ele><time>2026-04-02T09:30:48.703Z</time></trkpt><trkpt lat="42.8548417" lon="12.3062645"><ele>505.0</ele><time>2026-04-02T09:30:49.701Z</time></trkpt><trkpt lat="42.8548289" lon="12.3060826"><ele>505.0</ele><time>2026-04-02T09:30:50.703Z</time></trkpt><trkpt lat="42.8547803" lon="12.3059028"><ele>506.0</ele><time>2026-04-02T09:30:51.702Z</time></trkpt><trkpt lat="42.8547026" lon="12.3057404"><ele>507.0</ele><time>2026-04-02T09:30:52.703Z</time></trkpt><trkpt lat="42.8545935" lon="12.3055956"><ele>508.0</ele><time>2026-04-02T09:30:53.702Z</time></trkpt><trkpt lat="42.8544599" lon="12.3054782"><ele>507.6666666666667</ele><time>2026-04-02T09:30:54.705Z</time></trkpt><trkpt lat="42.8543114" lon="12.3053892"><ele>507.33333333333337</ele><time>2026-04-02T09:30:55.706Z</time></trkpt><trkpt lat="42.8541543" lon="12.3053301"><ele>507.0</ele><time>2026-04-02T09:30:56.704Z</time></trkpt><trkpt lat="42.8539757" lon="12.3052921"><ele>507.0</ele><time>2026-04-02T09:30:57.707Z</time></trkpt><trkpt lat="42.8538041" lon="12.3052554"><ele>507.0</ele><time>2026-04-02T09:30:58.705Z</time></trkpt><trkpt lat="42.8536374" lon="12.3052239"><ele>507.0</ele><time>2026-04-02T09:30:59.7Z</time></trkpt><trkpt lat="42.853475" lon="12.3052001"><ele>505.0</ele><time>2026-04-02T09:31:00.702Z</time></trkpt><trkpt lat="42.8533062" lon="12.305187"><ele>503.0</ele><time>2026-04-02T09:31:01.702Z</time></trkpt><trkpt lat="42.853129" lon="12.3052036"><ele>501.0</ele><time>2026-04-02T09:31:02.708Z</time></trkpt><trkpt lat="42.852961" lon="12.3052241"><ele>501.0</ele><time>2026-04-02T09:31:03.704Z</time></trkpt><trkpt lat="42.8528105" lon="12.3052347"><ele>501.0</ele><time>2026-04-02T09:31:04.708Z</time></trkpt><trkpt lat="42.8526731" lon="12.3052737"><ele>501.0</ele><time>2026-04-02T09:31:05.699Z</time></trkpt><trkpt lat="42.8525309" lon="12.3053563"><ele>501.0</ele><time>2026-04-02T09:31:06.71Z</time></trkpt><trkpt lat="42.8524055" lon="12.3054764"><ele>498.25</ele><time>2026-04-02T09:31:07.706Z</time></trkpt><trkpt lat="42.8522918" lon="12.3056246"><ele>495.5</ele><time>2026-04-02T09:31:08.703Z</time></trkpt><trkpt lat="42.852187" lon="12.3057453"><ele>492.75</ele><time>2026-04-02T09:31:09.705Z</time></trkpt><trkpt lat="42.8520718" lon="12.3058293"><ele>490.0</ele><time>2026-04-02T09:31:10.707Z</time></trkpt><trkpt lat="42.8519409" lon="12.3058901"><ele>490.0</ele><time>2026-04-02T09:31:11.701Z</time></trkpt><trkpt lat="42.8517902" lon="12.3059235"><ele>490.0</ele><time>2026-04-02T09:31:12.702Z</time></trkpt><trkpt lat="42.8516226" lon="12.305953"><ele>490.0</ele><time>2026-04-02T09:31:13.7Z</time></trkpt><trkpt lat="42.8514568" lon="12.3059856"><ele>489.6666666666667</ele><time>2026-04-02T09:31:14.705Z</time></trkpt><trkpt lat="42.8512858" lon="12.306016"><ele>489.33333333333337</ele><time>2026-04-02T09:31:15.709Z</time></trkpt><trkpt lat="42.851109" lon="12.306072"><ele>489.0</ele><time>2026-04-02T09:31:16.708Z</time></trkpt><trkpt lat="42.8509421" lon="12.3061679"><ele>489.0</ele><time>2026-04-02T09:31:17.702Z</time></trkpt><trkpt lat="42.8507902" lon="12.3062827"><ele>489.0</ele><time>2026-04-02T09:31:18.702Z</time></trkpt><trkpt lat="42.850652" lon="12.3064203"><ele>489.0</ele><time>2026-04-02T09:31:19.704Z</time></trkpt><trkpt lat="42.8505337" lon="12.3065876"><ele>485.66666666666663</ele><time>2026-04-02T09:31:20.701Z</time></trkpt><trkpt lat="42.8504186" lon="12.3067362"><ele>482.3333333333333</ele><time>2026-04-02T09:31:21.703Z</time></trkpt><trkpt lat="42.8502899" lon="12.3068827"><ele>479.0</ele><time>2026-04-02T09:31:22.699Z</time></trkpt><trkpt lat="42.8501657" lon="12.3070301"><ele>479.0</ele><time>2026-04-02T09:31:23.701Z</time></trkpt><trkpt lat="42.8500433" lon="12.307182"><ele>479.0</ele><time>2026-04-02T09:31:24.702Z</time></trkpt><trkpt lat="42.8499189" lon="12.3073299"><ele>479.0</ele><time>2026-04-02T09:31:25.708Z</time></trkpt><trkpt lat="42.8497939" lon="12.3074637"><ele>479.3333333333333</ele><time>2026-04-02T09:31:26.703Z</time></trkpt><trkpt lat="42.8496658" lon="12.3075953"><ele>479.66666666666663</ele><time>2026-04-02T09:31:27.701Z</time></trkpt><trkpt lat="42.849521" lon="12.307709"><ele>480.0</ele><time>2026-04-02T09:31:28.705Z</time></trkpt><trkpt lat="42.8493716" lon="12.3078095"><ele>477.0</ele><time>2026-04-02T09:31:29.706Z</time></trkpt><trkpt lat="42.8492171" lon="12.3079052"><ele>474.0</ele><time>2026-04-02T09:31:30.702Z</time></trkpt><trkpt lat="42.8490606" lon="12.3079979"><ele>471.0</ele><time>2026-04-02T09:31:31.704Z</time></trkpt><trkpt lat="42.8488972" lon="12.3080883"><ele>471.0</ele><time>2026-04-02T09:31:32.7Z</time></trkpt><trkpt lat="42.8487335" lon="12.3081876"><ele>471.0</ele><time>2026-04-02T09:31:33.707Z</time></trkpt><trkpt lat="42.8485739" lon="12.3082911"><ele>471.0</ele><time>2026-04-02T09:31:34.699Z</time></trkpt><trkpt lat="42.848427" lon="12.3083943"><ele>471.33333333333337</ele><time>2026-04-02T09:31:35.704Z</time></trkpt><trkpt lat="42.8482801" lon="12.308507"><ele>471.6666666666667</ele><time>2026-04-02T09:31:36.704Z</time></trkpt><trkpt lat="42.8481404" lon="12.3086178"><ele>472.0</ele><time>2026-04-02T09:31:37.709Z</time></trkpt><trkpt lat="42.8480143" lon="12.3087265"><ele>472.0</ele><time>2026-04-02T09:31:38.705Z</time></trkpt><trkpt lat="42.8479026" lon="12.3088466"><ele>472.0</ele><time>2026-04-02T09:31:39.705Z</time></trkpt><trkpt lat="42.8478058" lon="12.3089576"><ele>472.0</ele><time>2026-04-02T09:31:40.702Z</time></trkpt><trkpt lat="42.8477195" lon="12.3090558"><ele>472.0</ele><time>2026-04-02T09:31:41.705Z</time></trkpt><trkpt lat="42.8476506" lon="12.3091419"><ele>471.50000000000006</ele><time>2026-04-02T09:31:42.71Z</time></trkpt><trkpt lat="42.8475833" lon="12.309208"><ele>471.0</ele><time>2026-04-02T09:31:43.703Z</time></trkpt><trkpt lat="42.8475178" lon="12.3092423"><ele>470.5</ele><time>2026-04-02T09:31:44.706Z</time></trkpt><trkpt lat="42.8474407" lon="12.3092559"><ele>470.0</ele><time>2026-04-02T09:31:45.703Z</time></trkpt><trkpt lat="42.8473554" lon="12.3092404"><ele>469.50000000000006</ele><time>2026-04-02T09:31:46.705Z</time></trkpt><trkpt lat="42.8472556" lon="12.3092065"><ele>469.0</ele><time>2026-04-02T09:31:47.704Z</time></trkpt><trkpt lat="42.8471536" lon="12.309142"><ele>469.0</ele><time>2026-04-02T09:31:48.705Z</time></trkpt><trkpt lat="42.847042" lon="12.3090726"><ele>469.0</ele><time>2026-04-02T09:31:49.699Z</time></trkpt><trkpt lat="42.8469271" lon="12.3089937"><ele>469.0</ele><time>2026-04-02T09:31:50.706Z</time></trkpt><trkpt lat="42.8468089" lon="12.308908"><ele>469.0</ele><time>2026-04-02T09:31:51.708Z</time></trkpt><trkpt lat="42.8466854" lon="12.3088176"><ele>466.5</ele><time>2026-04-02T09:31:52.71Z</time></trkpt><trkpt lat="42.8465555" lon="12.3087246"><ele>464.0</ele><time>2026-04-02T09:31:53.71Z</time></trkpt><trkpt lat="42.8464245" lon="12.3086279"><ele>461.5</ele><time>2026-04-02T09:31:54.701Z</time></trkpt><trkpt lat="42.8463009" lon="12.308541"><ele>459.0</ele><time>2026-04-02T09:31:55.7Z</time></trkpt><trkpt lat="42.8461836" lon="12.3084712"><ele>459.0</ele><time>2026-04-02T09:31:56.705Z</time></trkpt><trkpt lat="42.8460641" lon="12.3084245"><ele>459.0</ele><time>2026-04-02T09:31:57.706Z</time></trkpt><trkpt lat="42.8459104" lon="12.3084508"><ele>459.0</ele><time>2026-04-02T09:31:58.702Z</time></trkpt><trkpt lat="42.8457676" lon="12.3084898"><ele>459.0</ele><time>2026-04-02T09:31:59.704Z</time></trkpt><trkpt lat="42.8456279" lon="12.3085479"><ele>460.5</ele><time>2026-04-02T09:32:00.705Z</time></trkpt><trkpt lat="42.8454961" lon="12.3086051"><ele>462.0</ele><time>2026-04-02T09:32:01.701Z</time></trkpt><trkpt lat="42.8453814" lon="12.3086499"><ele>463.5</ele><time>2026-04-02T09:32:02.7Z</time></trkpt><trkpt lat="42.8452651" lon="12.308676"><ele>465.0</ele><time>2026-04-02T09:32:03.705Z</time></trkpt><trkpt lat="42.8451715" lon="12.3086464"><ele>464.8</ele><time>2026-04-02T09:32:04.703Z</time></trkpt><trkpt lat="42.8450947" lon="12.3085706"><ele>464.6</ele><time>2026-04-02T09:32:05.701Z</time></trkpt><trkpt lat="42.8450343" lon="12.3084547"><ele>464.4</ele><time>2026-04-02T09:32:06.708Z</time></trkpt><trkpt lat="42.8449808" lon="12.3083119"><ele>464.2</ele><time>2026-04-02T09:32:07.703Z</time></trkpt><trkpt lat="42.8449298" lon="12.3081568"><ele>464.0</ele><time>2026-04-02T09:32:08.704Z</time></trkpt><trkpt lat="42.8448953" lon="12.3080077"><ele>466.0</ele><time>2026-04-02T09:32:09.703Z</time></trkpt><trkpt lat="42.8448505" lon="12.3078725"><ele>468.0</ele><time>2026-04-02T09:32:10.705Z</time></trkpt><trkpt lat="42.844776" lon="12.3077441"><ele>470.0</ele><time>2026-04-02T09:32:11.704Z</time></trkpt><trkpt lat="42.8446723" lon="12.3076402"><ele>472.0</ele><time>2026-04-02T09:32:12.705Z</time></trkpt><trkpt lat="42.844552" lon="12.3075606"><ele>472.0</ele><time>2026-04-02T09:32:13.708Z</time></trkpt><trkpt lat="42.8444385" lon="12.3074731"><ele>472.0</ele><time>2026-04-02T09:32:14.707Z</time></trkpt><trkpt lat="42.8443392" lon="12.307368"><ele>472.0</ele><time>2026-04-02T09:32:15.706Z</time></trkpt><trkpt lat="42.8442174" lon="12.3072833"><ele>472.0</ele><time>2026-04-02T09:32:16.704Z</time></trkpt><trkpt lat="42.8440693" lon="12.3072393"><ele>473.33333333333337</ele><time>2026-04-02T09:32:17.707Z</time></trkpt><trkpt lat="42.8439133" lon="12.3072319"><ele>474.66666666666663</ele><time>2026-04-02T09:32:18.706Z</time></trkpt><trkpt lat="42.8437531" lon="12.3072349"><ele>476.0</ele><time>2026-04-02T09:32:19.714Z</time></trkpt><trkpt lat="42.8435936" lon="12.3072246"><ele>475.0</ele><time>2026-04-02T09:32:20.7Z</time></trkpt><trkpt lat="42.843433" lon="12.3072058"><ele>474.0</ele><time>2026-04-02T09:32:21.702Z</time></trkpt><trkpt lat="42.8432812" lon="12.3071964"><ele>473.0</ele><time>2026-04-02T09:32:22.706Z</time></trkpt><trkpt lat="42.8431413" lon="12.3071784"><ele>473.0</ele><time>2026-04-02T09:32:23.706Z</time></trkpt><trkpt lat="42.8430235" lon="12.3071434"><ele>473.0</ele><time>2026-04-02T09:32:24.701Z</time></trkpt><trkpt lat="42.8429143" lon="12.3070809"><ele>473.0</ele><time>2026-04-02T09:32:25.705Z</time></trkpt><trkpt lat="42.8428142" lon="12.3069872"><ele>473.0</ele><time>2026-04-02T09:32:26.709Z</time></trkpt><trkpt lat="42.8427161" lon="12.3068665"><ele>471.25</ele><time>2026-04-02T09:32:27.7Z</time></trkpt><trkpt lat="42.8426206" lon="12.3067315"><ele>469.5</ele><time>2026-04-02T09:32:28.701Z</time></trkpt><trkpt lat="42.8424995" lon="12.3066113"><ele>467.75</ele><time>2026-04-02T09:32:29.703Z</time></trkpt><trkpt lat="42.8423653" lon="12.3065248"><ele>466.0</ele><time>2026-04-02T09:32:30.702Z</time></trkpt><trkpt lat="42.842239" lon="12.3064681"><ele>466.0</ele><time>2026-04-02T09:32:31.7Z</time></trkpt><trkpt lat="42.8421083" lon="12.3064207"><ele>466.0</ele><time>2026-04-02T09:32:32.701Z</time></trkpt><trkpt lat="42.8419918" lon="12.3063571"><ele>466.0</ele><time>2026-04-02T09:32:33.707Z</time></trkpt><trkpt lat="42.8419037" lon="12.3062649"><ele>466.0</ele><time>2026-04-02T09:32:34.701Z</time></trkpt><trkpt lat="42.8418257" lon="12.3061484"><ele>465.25</ele><time>2026-04-02T09:32:35.702Z</time></trkpt><trkpt lat="42.8417612" lon="12.306007"><ele>464.5</ele><time>2026-04-02T09:32:36.704Z</time></trkpt><trkpt lat="42.8417287" lon="12.3058354"><ele>463.75</ele><time>2026-04-02T09:32:37.702Z</time></trkpt><trkpt lat="42.8417132" lon="12.3056492"><ele>463.0</ele><time>2026-04-02T09:32:38.708Z</time></trkpt><trkpt lat="42.8417" lon="12.3054827"><ele>463.0</ele><time>2026-04-02T09:32:39.701Z</time></trkpt><trkpt lat="42.8416596" lon="12.3053252"><ele>463.0</ele><time>2026-04-02T09:32:40.699Z</time></trkpt><trkpt lat="42.8415836" lon="12.3051915"><ele>463.0</ele><time>2026-04-02T09:32:41.701Z</time></trkpt><trkpt lat="42.8415032" lon="12.3050629"><ele>463.0</ele><time>2026-04-02T09:32:42.703Z</time></trkpt><trkpt lat="42.8414453" lon="12.3049124"><ele>463.0</ele><time>2026-04-02T09:32:43.703Z</time></trkpt><trkpt lat="42.8414053" lon="12.3047565"><ele>463.0</ele><time>2026-04-02T09:32:44.7Z</time></trkpt><trkpt lat="42.8413995" lon="12.304586"><ele>463.0</ele><time>2026-04-02T09:32:45.701Z</time></trkpt><trkpt lat="42.8414005" lon="12.304423"><ele>463.0</ele><time>2026-04-02T09:32:46.704Z</time></trkpt><trkpt lat="42.8413872" lon="12.3042466"><ele>462.25</ele><time>2026-04-02T09:32:47.699Z</time></trkpt><trkpt lat="42.8413457" lon="12.3040624"><ele>461.5</ele><time>2026-04-02T09:32:48.706Z</time></trkpt><trkpt lat="42.8413027" lon="12.3038886"><ele>460.75</ele><time>2026-04-02T09:32:49.702Z</time></trkpt><trkpt lat="42.8412677" lon="12.3037174"><ele>460.0</ele><time>2026-04-02T09:32:50.703Z</time></trkpt><trkpt lat="42.8412564" lon="12.3035518"><ele>457.5</ele><time>2026-04-02T09:32:51.701Z</time></trkpt><trkpt lat="42.8412344" lon="12.30338"><ele>455.0</ele><time>2026-04-02T09:32:52.701Z</time></trkpt><trkpt lat="42.8412045" lon="12.3031976"><ele>452.5</ele><time>2026-04-02T09:32:53.705Z</time></trkpt><trkpt lat="42.8411582" lon="12.3030168"><ele>450.0</ele><time>2026-04-02T09:32:54.7Z</time></trkpt><trkpt lat="42.8410929" lon="12.3028395"><ele>447.5</ele><time>2026-04-02T09:32:55.703Z</time></trkpt><trkpt lat="42.8410463" lon="12.3026762"><ele>445.0</ele><time>2026-04-02T09:32:56.702Z</time></trkpt><trkpt lat="42.8410225" lon="12.3025265"><ele>442.5</ele><time>2026-04-02T09:32:57.704Z</time></trkpt><trkpt lat="42.8410189" lon="12.3023731"><ele>440.0</ele><time>2026-04-02T09:32:58.699Z</time></trkpt><trkpt lat="42.8410374" lon="12.3022145"><ele>438.25</ele><time>2026-04-02T09:32:59.705Z</time></trkpt><trkpt lat="42.84108" lon="12.3020611"><ele>436.5</ele><time>2026-04-02T09:33:00.706Z</time></trkpt><trkpt lat="42.8411396" lon="12.3019099"><ele>434.75</ele><time>2026-04-02T09:33:01.702Z</time></trkpt><trkpt lat="42.8411829" lon="12.3017472"><ele>433.0</ele><time>2026-04-02T09:33:02.704Z</time></trkpt><trkpt lat="42.8411991" lon="12.301581"><ele>433.25</ele><time>2026-04-02T09:33:03.705Z</time></trkpt><trkpt lat="42.841187" lon="12.3014067"><ele>433.5</ele><time>2026-04-02T09:33:04.708Z</time></trkpt><trkpt lat="42.8411512" lon="12.3012394"><ele>433.75</ele><time>2026-04-02T09:33:05.706Z</time></trkpt><trkpt lat="42.8411059" lon="12.3010944"><ele>434.0</ele><time>2026-04-02T09:33:06.707Z</time></trkpt><trkpt lat="42.8410665" lon="12.3009509"><ele>434.0</ele><time>2026-04-02T09:33:07.703Z</time></trkpt><trkpt lat="42.8410441" lon="12.3008063"><ele>434.0</ele><time>2026-04-02T09:33:08.712Z</time></trkpt><trkpt lat="42.8410376" lon="12.3006779"><ele>434.0</ele><time>2026-04-02T09:33:09.707Z</time></trkpt><trkpt lat="42.8410574" lon="12.3005611"><ele>434.0</ele><time>2026-04-02T09:33:10.708Z</time></trkpt><trkpt lat="42.8411077" lon="12.3004555"><ele>434.0</ele><time>2026-04-02T09:33:11.706Z</time></trkpt><trkpt lat="42.8411831" lon="12.3003612"><ele>436.5</ele><time>2026-04-02T09:33:12.705Z</time></trkpt><trkpt lat="42.8412696" lon="12.3002826"><ele>439.0</ele><time>2026-04-02T09:33:13.703Z</time></trkpt><trkpt lat="42.8413727" lon="12.3001965"><ele>441.5</ele><time>2026-04-02T09:33:14.704Z</time></trkpt><trkpt lat="42.8414765" lon="12.3001215"><ele>444.0</ele><time>2026-04-02T09:33:15.71Z</time></trkpt><trkpt lat="42.8415955" lon="12.3000504"><ele>444.0</ele><time>2026-04-02T09:33:16.701Z</time></trkpt><trkpt lat="42.8417141" lon="12.2999931"><ele>444.0</ele><time>2026-04-02T09:33:17.701Z</time></trkpt><trkpt lat="42.8418402" lon="12.2999386"><ele>444.0</ele><time>2026-04-02T09:33:18.706Z</time></trkpt><trkpt lat="42.8419622" lon="12.2998833"><ele>444.0</ele><time>2026-04-02T09:33:19.704Z</time></trkpt><trkpt lat="42.8420717" lon="12.2998329"><ele>444.1428571428571</ele><time>2026-04-02T09:33:20.704Z</time></trkpt><trkpt lat="42.8421623" lon="12.2997775"><ele>444.28571428571433</ele><time>2026-04-02T09:33:21.701Z</time></trkpt><trkpt lat="42.8422155" lon="12.2996986"><ele>444.42857142857144</ele><time>2026-04-02T09:33:22.703Z</time></trkpt><trkpt lat="42.842239" lon="12.299617"><ele>444.57142857142856</ele><time>2026-04-02T09:33:23.703Z</time></trkpt><trkpt lat="42.8422124" lon="12.2995384"><ele>444.71428571428567</ele><time>2026-04-02T09:33:24.703Z</time></trkpt><trkpt lat="42.8421631" lon="12.2994799"><ele>444.8571428571429</ele><time>2026-04-02T09:33:25.706Z</time></trkpt><trkpt lat="42.8420921" lon="12.2994525"><ele>445.0</ele><time>2026-04-02T09:33:26.705Z</time></trkpt><trkpt lat="42.8420078" lon="12.2994513"><ele>444.4</ele><time>2026-04-02T09:33:27.705Z</time></trkpt><trkpt lat="42.8419214" lon="12.2994453"><ele>443.8</ele><time>2026-04-02T09:33:28.707Z</time></trkpt><trkpt lat="42.8418197" lon="12.2994555"><ele>443.20000000000005</ele><time>2026-04-02T09:33:29.704Z</time></trkpt><trkpt lat="42.8417094" lon="12.2994558"><ele>442.6</ele><time>2026-04-02T09:33:30.704Z</time></trkpt><trkpt lat="42.8415971" lon="12.2994591"><ele>442.0</ele><time>2026-04-02T09:33:31.709Z</time></trkpt><trkpt lat="42.8414832" lon="12.299456"><ele>444.0</ele><time>2026-04-02T09:33:32.706Z</time></trkpt><trkpt lat="42.8413648" lon="12.2994569"><ele>446.0</ele><time>2026-04-02T09:33:33.702Z</time></trkpt><trkpt lat="42.8412447" lon="12.2994504"><ele>448.0</ele><time>2026-04-02T09:33:34.708Z</time></trkpt><trkpt lat="42.8411193" lon="12.2994552"><ele>450.0</ele><time>2026-04-02T09:33:35.708Z</time></trkpt><trkpt lat="42.840992" lon="12.2994667"><ele>452.5</ele><time>2026-04-02T09:33:36.709Z</time></trkpt><trkpt lat="42.840869" lon="12.2994869"><ele>455.0</ele><time>2026-04-02T09:33:37.709Z</time></trkpt><trkpt lat="42.8407464" lon="12.2995288"><ele>457.5</ele><time>2026-04-02T09:33:38.706Z</time></trkpt><trkpt lat="42.8406238" lon="12.2995774"><ele>460.0</ele><time>2026-04-02T09:33:39.705Z</time></trkpt><trkpt lat="42.8405168" lon="12.2996129"><ele>460.0</ele><time>2026-04-02T09:33:40.706Z</time></trkpt><trkpt lat="42.8403993" lon="12.299616"><ele>460.0</ele><time>2026-04-02T09:33:41.702Z</time></trkpt><trkpt lat="42.8402724" lon="12.2995856"><ele>460.0</ele><time>2026-04-02T09:33:42.705Z</time></trkpt><trkpt lat="42.8401371" lon="12.2995779"><ele>460.0</ele><time>2026-04-02T09:33:43.707Z</time></trkpt><trkpt lat="42.8399963" lon="12.2996089"><ele>462.6666666666667</ele><time>2026-04-02T09:33:44.703Z</time></trkpt><trkpt lat="42.8398542" lon="12.2996563"><ele>465.33333333333337</ele><time>2026-04-02T09:33:45.705Z</time></trkpt><trkpt lat="42.8397053" lon="12.2997022"><ele>468.0</ele><time>2026-04-02T09:33:46.701Z</time></trkpt><trkpt lat="42.8395534" lon="12.2997413"><ele>466.25</ele><time>2026-04-02T09:33:47.703Z</time></trkpt><trkpt lat="42.8394022" lon="12.299777"><ele>464.5</ele><time>2026-04-02T09:33:48.706Z</time></trkpt><trkpt lat="42.8392551" lon="12.2998099"><ele>462.75</ele><time>2026-04-02T09:33:49.706Z</time></trkpt><trkpt lat="42.8391282" lon="12.2998505"><ele>461.0</ele><time>2026-04-02T09:33:50.704Z</time></trkpt><trkpt lat="42.8390149" lon="12.2999007"><ele>461.0</ele><time>2026-04-02T09:33:51.701Z</time></trkpt><trkpt lat="42.838904" lon="12.2999372"><ele>461.0</ele><time>2026-04-02T09:33:52.712Z</time></trkpt><trkpt lat="42.8387968" lon="12.2999421"><ele>461.0</ele><time>2026-04-02T09:33:53.704Z</time></trkpt><trkpt lat="42.8386952" lon="12.2999134"><ele>461.0</ele><time>2026-04-02T09:33:54.704Z</time></trkpt><trkpt lat="42.8386151" lon="12.2998399"><ele>461.0</ele><time>2026-04-02T09:33:55.704Z</time></trkpt><trkpt lat="42.8385377" lon="12.2997328"><ele>461.0</ele><time>2026-04-02T09:33:56.703Z</time></trkpt><trkpt lat="42.8384702" lon="12.2996109"><ele>461.0</ele><time>2026-04-02T09:33:57.702Z</time></trkpt><trkpt lat="42.8384135" lon="12.2994939"><ele>461.0</ele><time>2026-04-02T09:33:58.702Z</time></trkpt><trkpt lat="42.8383496" lon="12.2992896"><ele>461.0</ele><time>2026-04-02T09:33:59.708Z</time></trkpt><trkpt lat="42.8383017" lon="12.2990852"><ele>461.0</ele><time>2026-04-02T09:34:00.709Z</time></trkpt><trkpt lat="42.8382433" lon="12.2989003"><ele>461.0</ele><time>2026-04-02T09:34:01.705Z</time></trkpt><trkpt lat="42.8381767" lon="12.2987137"><ele>461.0</ele><time>2026-04-02T09:34:02.705Z</time></trkpt><trkpt lat="42.838105" lon="12.2985273"><ele>461.0</ele><time>2026-04-02T09:34:03.705Z</time></trkpt><trkpt lat="42.8380606" lon="12.2983613"><ele>461.0</ele><time>2026-04-02T09:34:04.704Z</time></trkpt><trkpt lat="42.8380477" lon="12.2982215"><ele>461.0</ele><time>2026-04-02T09:34:05.708Z</time></trkpt><trkpt lat="42.8380422" lon="12.2980765"><ele>461.0</ele><time>2026-04-02T09:34:06.704Z</time></trkpt><trkpt lat="42.8380328" lon="12.2979134"><ele>459.0</ele><time>2026-04-02T09:34:07.708Z</time></trkpt><trkpt lat="42.8380393" lon="12.2977675"><ele>457.0</ele><time>2026-04-02T09:34:08.705Z</time></trkpt><trkpt lat="42.8380367" lon="12.2976365"><ele>455.0</ele><time>2026-04-02T09:34:09.703Z</time></trkpt><trkpt lat="42.8380176" lon="12.2975173"><ele>453.0</ele><time>2026-04-02T09:34:10.704Z</time></trkpt><trkpt lat="42.8379661" lon="12.2973955"><ele>451.0</ele><time>2026-04-02T09:34:11.705Z</time></trkpt><trkpt lat="42.8378762" lon="12.2972959"><ele>451.25</ele><time>2026-04-02T09:34:12.706Z</time></trkpt><trkpt lat="42.8377692" lon="12.2972153"><ele>451.5</ele><time>2026-04-02T09:34:13.708Z</time></trkpt><trkpt lat="42.8376528" lon="12.2971331"><ele>451.75</ele><time>2026-04-02T09:34:14.711Z</time></trkpt><trkpt lat="42.8375411" lon="12.297035"><ele>452.0</ele><time>2026-04-02T09:34:15.708Z</time></trkpt><trkpt lat="42.8374254" lon="12.2969082"><ele>452.0</ele><time>2026-04-02T09:34:16.709Z</time></trkpt><trkpt lat="42.8373184" lon="12.2967625"><ele>452.0</ele><time>2026-04-02T09:34:17.704Z</time></trkpt><trkpt lat="42.8372203" lon="12.2965956"><ele>452.0</ele><time>2026-04-02T09:34:18.706Z</time></trkpt><trkpt lat="42.8371432" lon="12.2964119"><ele>453.5</ele><time>2026-04-02T09:34:19.707Z</time></trkpt><trkpt lat="42.8370753" lon="12.296227"><ele>455.0</ele><time>2026-04-02T09:34:20.701Z</time></trkpt><trkpt lat="42.8370111" lon="12.2960536"><ele>456.5</ele><time>2026-04-02T09:34:21.711Z</time></trkpt><trkpt lat="42.8369289" lon="12.2958948"><ele>458.0</ele><time>2026-04-02T09:34:22.706Z</time></trkpt><trkpt lat="42.836822" lon="12.295758"><ele>456.66666666666663</ele><time>2026-04-02T09:34:23.706Z</time></trkpt><trkpt lat="42.8366956" lon="12.2956441"><ele>455.33333333333337</ele><time>2026-04-02T09:34:24.704Z</time></trkpt><trkpt lat="42.8365619" lon="12.2955436"><ele>454.0</ele><time>2026-04-02T09:34:25.703Z</time></trkpt><trkpt lat="42.8364114" lon="12.2954577"><ele>454.0</ele><time>2026-04-02T09:34:26.712Z</time></trkpt><trkpt lat="42.8362597" lon="12.2953696"><ele>454.0</ele><time>2026-04-02T09:34:27.706Z</time></trkpt><trkpt lat="42.836109" lon="12.2952823"><ele>454.0</ele><time>2026-04-02T09:34:28.703Z</time></trkpt><trkpt lat="42.8359664" lon="12.2952053"><ele>453.75</ele><time>2026-04-02T09:34:29.705Z</time></trkpt><trkpt lat="42.8358343" lon="12.2951331"><ele>453.5</ele><time>2026-04-02T09:34:30.703Z</time></trkpt><trkpt lat="42.8357089" lon="12.295078"><ele>453.25</ele><time>2026-04-02T09:34:31.707Z</time></trkpt><trkpt lat="42.8355814" lon="12.2950263"><ele>453.0</ele><time>2026-04-02T09:34:32.708Z</time></trkpt><trkpt lat="42.835448" lon="12.2949894"><ele>453.0</ele><time>2026-04-02T09:34:33.707Z</time></trkpt><trkpt lat="42.8353077" lon="12.2949687"><ele>453.0</ele><time>2026-04-02T09:34:34.703Z</time></trkpt><trkpt lat="42.8351728" lon="12.2949704"><ele>453.0</ele><time>2026-04-02T09:34:35.705Z</time></trkpt><trkpt lat="42.8350445" lon="12.2949776"><ele>453.0</ele><time>2026-04-02T09:34:36.712Z</time></trkpt><trkpt lat="42.8349178" lon="12.2949596"><ele>453.0</ele><time>2026-04-02T09:34:37.702Z</time></trkpt><trkpt lat="42.8347865" lon="12.2949064"><ele>453.0</ele><time>2026-04-02T09:34:38.711Z</time></trkpt><trkpt lat="42.8346646" lon="12.2948141"><ele>453.0</ele><time>2026-04-02T09:34:39.706Z</time></trkpt><trkpt lat="42.8345548" lon="12.2946877"><ele>453.0</ele><time>2026-04-02T09:34:40.708Z</time></trkpt><trkpt lat="42.8344558" lon="12.2945314"><ele>453.25</ele><time>2026-04-02T09:34:41.719Z</time></trkpt><trkpt lat="42.8343691" lon="12.2943687"><ele>453.5</ele><time>2026-04-02T09:34:42.706Z</time></trkpt><trkpt lat="42.8343118" lon="12.2942062"><ele>453.75</ele><time>2026-04-02T09:34:43.704Z</time></trkpt><trkpt lat="42.8342585" lon="12.2940513"><ele>454.0</ele><time>2026-04-02T09:34:44.7Z</time></trkpt><trkpt lat="42.8342252" lon="12.2939025"><ele>454.0</ele><time>2026-04-02T09:34:45.704Z</time></trkpt><trkpt lat="42.8342118" lon="12.2937501"><ele>454.0</ele><time>2026-04-02T09:34:46.706Z</time></trkpt><trkpt lat="42.8342077" lon="12.2935933"><ele>454.0</ele><time>2026-04-02T09:34:47.705Z</time></trkpt><trkpt lat="42.8341929" lon="12.2934346"><ele>454.0</ele><time>2026-04-02T09:34:48.703Z</time></trkpt><trkpt lat="42.8341726" lon="12.2932982"><ele>454.0</ele><time>2026-04-02T09:34:49.707Z</time></trkpt><trkpt lat="42.8341329" lon="12.2931826"><ele>452.0</ele><time>2026-04-02T09:34:50.707Z</time></trkpt><trkpt lat="42.8340765" lon="12.2930796"><ele>450.0</ele><time>2026-04-02T09:34:51.702Z</time></trkpt><trkpt lat="42.8339883" lon="12.2929866"><ele>448.0</ele><time>2026-04-02T09:34:52.706Z</time></trkpt><trkpt lat="42.8338839" lon="12.2928919"><ele>446.0</ele><time>2026-04-02T09:34:53.71Z</time></trkpt><trkpt lat="42.8337718" lon="12.2927957"><ele>446.0</ele><time>2026-04-02T09:34:54.707Z</time></trkpt><trkpt lat="42.8336601" lon="12.2927032"><ele>446.0</ele><time>2026-04-02T09:34:55.703Z</time></trkpt><trkpt lat="42.8335604" lon="12.2926057"><ele>446.0</ele><time>2026-04-02T09:34:56.707Z</time></trkpt><trkpt lat="42.833458" lon="12.2925198"><ele>446.0</ele><time>2026-04-02T09:34:57.708Z</time></trkpt><trkpt lat="42.833357" lon="12.2924318"><ele>446.4</ele><time>2026-04-02T09:34:58.7Z</time></trkpt><trkpt lat="42.8332607" lon="12.2923405"><ele>446.8</ele><time>2026-04-02T09:34:59.701Z</time></trkpt><trkpt lat="42.8331822" lon="12.2922554"><ele>447.19999999999993</ele><time>2026-04-02T09:35:00.701Z</time></trkpt><trkpt lat="42.8331058" lon="12.292166"><ele>447.59999999999997</ele><time>2026-04-02T09:35:01.701Z</time></trkpt><trkpt lat="42.8330486" lon="12.2920764"><ele>448.0</ele><time>2026-04-02T09:35:02.702Z</time></trkpt><trkpt lat="42.8329937" lon="12.2919655"><ele>446.25</ele><time>2026-04-02T09:35:03.699Z</time></trkpt><trkpt lat="42.8329347" lon="12.2918365"><ele>444.5</ele><time>2026-04-02T09:35:04.703Z</time></trkpt><trkpt lat="42.8328807" lon="12.2916907"><ele>442.75</ele><time>2026-04-02T09:35:05.708Z</time></trkpt><trkpt lat="42.832829" lon="12.291534"><ele>441.0</ele><time>2026-04-02T09:35:06.708Z</time></trkpt><trkpt lat="42.8327795" lon="12.2913767"><ele>439.8</ele><time>2026-04-02T09:35:07.704Z</time></trkpt><trkpt lat="42.8327376" lon="12.291222"><ele>438.6</ele><time>2026-04-02T09:35:08.703Z</time></trkpt><trkpt lat="42.8327034" lon="12.2910864"><ele>437.4</ele><time>2026-04-02T09:35:09.704Z</time></trkpt><trkpt lat="42.8326908" lon="12.2909543"><ele>436.2</ele><time>2026-04-02T09:35:10.7Z</time></trkpt><trkpt lat="42.8327014" lon="12.2908232"><ele>435.0</ele><time>2026-04-02T09:35:11.706Z</time></trkpt><trkpt lat="42.8327278" lon="12.2906985"><ele>436.25</ele><time>2026-04-02T09:35:12.706Z</time></trkpt><trkpt lat="42.8327981" lon="12.2905733"><ele>437.5</ele><time>2026-04-02T09:35:13.713Z</time></trkpt><trkpt lat="42.8328644" lon="12.2904429"><ele>438.75</ele><time>2026-04-02T09:35:14.703Z</time></trkpt><trkpt lat="42.8329254" lon="12.290308"><ele>440.0</ele><time>2026-04-02T09:35:15.708Z</time></trkpt><trkpt lat="42.8329821" lon="12.2901465"><ele>440.0</ele><time>2026-04-02T09:35:16.703Z</time></trkpt><trkpt lat="42.8330278" lon="12.2899868"><ele>440.0</ele><time>2026-04-02T09:35:17.706Z</time></trkpt><trkpt lat="42.8330686" lon="12.2898308"><ele>440.0</ele><time>2026-04-02T09:35:18.707Z</time></trkpt><trkpt lat="42.8331153" lon="12.2896693"><ele>440.0</ele><time>2026-04-02T09:35:19.702Z</time></trkpt><trkpt lat="42.8331728" lon="12.2895428"><ele>441.2</ele><time>2026-04-02T09:35:20.703Z</time></trkpt><trkpt lat="42.8332318" lon="12.2894299"><ele>442.4</ele><time>2026-04-02T09:35:21.704Z</time></trkpt><trkpt lat="42.8332708" lon="12.289325"><ele>443.6</ele><time>2026-04-02T09:35:22.705Z</time></trkpt><trkpt lat="42.8332839" lon="12.2891998"><ele>444.8</ele><time>2026-04-02T09:35:23.703Z</time></trkpt><trkpt lat="42.8332609" lon="12.2890684"><ele>446.0</ele><time>2026-04-02T09:35:24.704Z</time></trkpt><trkpt lat="42.8331965" lon="12.2889289"><ele>443.25</ele><time>2026-04-02T09:35:25.705Z</time></trkpt><trkpt lat="42.8331217" lon="12.288796"><ele>440.5</ele><time>2026-04-02T09:35:26.705Z</time></trkpt><trkpt lat="42.8330481" lon="12.2886698"><ele>437.75</ele><time>2026-04-02T09:35:27.704Z</time></trkpt><trkpt lat="42.8329504" lon="12.288559"><ele>435.0</ele><time>2026-04-02T09:35:28.707Z</time></trkpt><trkpt lat="42.8328504" lon="12.2884883"><ele>435.0</ele><time>2026-04-02T09:35:29.711Z</time></trkpt><trkpt lat="42.832753" lon="12.2884516"><ele>435.0</ele><time>2026-04-02T09:35:30.705Z</time></trkpt><trkpt lat="42.8326635" lon="12.2884136"><ele>435.0</ele><time>2026-04-02T09:35:31.708Z</time></trkpt><trkpt lat="42.8325959" lon="12.2883607"><ele>435.0</ele><time>2026-04-02T09:35:32.707Z</time></trkpt><trkpt lat="42.8325432" lon="12.2881921"><ele>435.0</ele><time>2026-04-02T09:35:34.707Z</time></trkpt><trkpt lat="42.8325431" lon="12.2880537"><ele>436.25</ele><time>2026-04-02T09:35:35.703Z</time></trkpt><trkpt lat="42.8325529" lon="12.2879023"><ele>437.5</ele><time>2026-04-02T09:35:36.714Z</time></trkpt><trkpt lat="42.8325291" lon="12.2877405"><ele>438.75</ele><time>2026-04-02T09:35:37.707Z</time></trkpt><trkpt lat="42.8324958" lon="12.2875818"><ele>440.0</ele><time>2026-04-02T09:35:38.704Z</time></trkpt><trkpt lat="42.832423" lon="12.2874204"><ele>437.75</ele><time>2026-04-02T09:35:39.703Z</time></trkpt><trkpt lat="42.8323466" lon="12.2872511"><ele>435.5</ele><time>2026-04-02T09:35:40.706Z</time></trkpt><trkpt lat="42.8322685" lon="12.2870886"><ele>433.25</ele><time>2026-04-02T09:35:41.709Z</time></trkpt><trkpt lat="42.8322196" lon="12.2869365"><ele>431.0</ele><time>2026-04-02T09:35:42.703Z</time></trkpt><trkpt lat="42.8321804" lon="12.2867704"><ele>431.0</ele><time>2026-04-02T09:35:43.708Z</time></trkpt><trkpt lat="42.8321485" lon="12.2866082"><ele>431.0</ele><time>2026-04-02T09:35:44.705Z</time></trkpt><trkpt lat="42.8320927" lon="12.2864587"><ele>431.0</ele><time>2026-04-02T09:35:45.709Z</time></trkpt><trkpt lat="42.8320136" lon="12.2863526"><ele>431.0</ele><time>2026-04-02T09:35:46.703Z</time></trkpt><trkpt lat="42.8319129" lon="12.2862954"><ele>428.75</ele><time>2026-04-02T09:35:47.713Z</time></trkpt><trkpt lat="42.8318166" lon="12.2862566"><ele>426.5</ele><time>2026-04-02T09:35:48.701Z</time></trkpt><trkpt lat="42.8316953" lon="12.2862857"><ele>424.25</ele><time>2026-04-02T09:35:49.704Z</time></trkpt><trkpt lat="42.8315758" lon="12.2862657"><ele>422.0</ele><time>2026-04-02T09:35:50.705Z</time></trkpt><trkpt lat="42.8314609" lon="12.2862002"><ele>426.75</ele><time>2026-04-02T09:35:51.705Z</time></trkpt><trkpt lat="42.8313561" lon="12.2860784"><ele>431.5</ele><time>2026-04-02T09:35:52.702Z</time></trkpt><trkpt lat="42.831277" lon="12.2859297"><ele>436.25</ele><time>2026-04-02T09:35:53.703Z</time></trkpt><trkpt lat="42.8312149" lon="12.2857593"><ele>441.0</ele><time>2026-04-02T09:35:54.707Z</time></trkpt><trkpt lat="42.8311334" lon="12.2855997"><ele>440.0</ele><time>2026-04-02T09:35:55.706Z</time></trkpt><trkpt lat="42.8310364" lon="12.2854503"><ele>439.0</ele><time>2026-04-02T09:35:56.702Z</time></trkpt><trkpt lat="42.8309472" lon="12.2852975"><ele>438.0</ele><time>2026-04-02T09:35:57.703Z</time></trkpt><trkpt lat="42.8308643" lon="12.285136"><ele>437.0</ele><time>2026-04-02T09:35:58.706Z</time></trkpt><trkpt lat="42.8307596" lon="12.2850057"><ele>440.0</ele><time>2026-04-02T09:35:59.705Z</time></trkpt><trkpt lat="42.830627" lon="12.2849091"><ele>443.0</ele><time>2026-04-02T09:36:00.701Z</time></trkpt><trkpt lat="42.8304858" lon="12.2848313"><ele>446.0</ele><time>2026-04-02T09:36:01.704Z</time></trkpt><trkpt lat="42.8303388" lon="12.2847647"><ele>446.3333333333333</ele><time>2026-04-02T09:36:02.708Z</time></trkpt><trkpt lat="42.8302018" lon="12.2846859"><ele>446.66666666666663</ele><time>2026-04-02T09:36:03.703Z</time></trkpt><trkpt lat="42.8300736" lon="12.2845767"><ele>447.0</ele><time>2026-04-02T09:36:04.704Z</time></trkpt><trkpt lat="42.829963" lon="12.2844343"><ele>448.75</ele><time>2026-04-02T09:36:05.705Z</time></trkpt><trkpt lat="42.829851" lon="12.2842997"><ele>450.5</ele><time>2026-04-02T09:36:06.704Z</time></trkpt><trkpt lat="42.8297512" lon="12.284186"><ele>452.25</ele><time>2026-04-02T09:36:07.708Z</time></trkpt><trkpt lat="42.8296718" lon="12.284075"><ele>454.0</ele><time>2026-04-02T09:36:08.709Z</time></trkpt><trkpt lat="42.8296123" lon="12.283938"><ele>456.4</ele><time>2026-04-02T09:36:09.705Z</time></trkpt><trkpt lat="42.829568" lon="12.2837967"><ele>458.79999999999995</ele><time>2026-04-02T09:36:10.703Z</time></trkpt><trkpt lat="42.8295597" lon="12.2836658"><ele>461.20000000000005</ele><time>2026-04-02T09:36:11.708Z</time></trkpt><trkpt lat="42.8295384" lon="12.2835511"><ele>463.6</ele><time>2026-04-02T09:36:12.703Z</time></trkpt><trkpt lat="42.8295117" lon="12.2834369"><ele>466.0</ele><time>2026-04-02T09:36:13.704Z</time></trkpt><trkpt lat="42.829495" lon="12.283328"><ele>466.0</ele><time>2026-04-02T09:36:14.704Z</time></trkpt><trkpt lat="42.8294639" lon="12.2832285"><ele>466.0</ele><time>2026-04-02T09:36:15.701Z</time></trkpt><trkpt lat="42.8294421" lon="12.2831441"><ele>466.0</ele><time>2026-04-02T09:36:16.701Z</time></trkpt><trkpt lat="42.8293909" lon="12.2830186"><ele>466.0</ele><time>2026-04-02T09:36:18.707Z</time></trkpt><trkpt lat="42.829299" lon="12.2828863"><ele>466.0</ele><time>2026-04-02T09:36:20.705Z</time></trkpt><trkpt lat="42.8292472" lon="12.2828099"><ele>465.83333333333337</ele><time>2026-04-02T09:36:21.708Z</time></trkpt><trkpt lat="42.8292015" lon="12.2827137"><ele>465.6666666666667</ele><time>2026-04-02T09:36:22.704Z</time></trkpt><trkpt lat="42.8291705" lon="12.2826218"><ele>465.5</ele><time>2026-04-02T09:36:23.704Z</time></trkpt><trkpt lat="42.8291208" lon="12.2825289"><ele>465.33333333333337</ele><time>2026-04-02T09:36:24.708Z</time></trkpt><trkpt lat="42.8290588" lon="12.2824468"><ele>465.1666666666667</ele><time>2026-04-02T09:36:25.705Z</time></trkpt><trkpt lat="42.8289965" lon="12.2823572"><ele>465.0</ele><time>2026-04-02T09:36:26.703Z</time></trkpt><trkpt lat="42.8289477" lon="12.2822622"><ele>466.2857142857143</ele><time>2026-04-02T09:36:27.708Z</time></trkpt><trkpt lat="42.828909" lon="12.282162"><ele>467.57142857142856</ele><time>2026-04-02T09:36:28.706Z</time></trkpt><trkpt lat="42.8288622" lon="12.2820799"><ele>468.85714285714283</ele><time>2026-04-02T09:36:29.705Z</time></trkpt><trkpt lat="42.8288033" lon="12.2820302"><ele>470.1428571428571</ele><time>2026-04-02T09:36:30.701Z</time></trkpt><trkpt lat="42.8287349" lon="12.2819993"><ele>471.42857142857144</ele><time>2026-04-02T09:36:31.711Z</time></trkpt><trkpt lat="42.8286615" lon="12.2819784"><ele>472.71428571428567</ele><time>2026-04-02T09:36:32.71Z</time></trkpt><trkpt lat="42.8285955" lon="12.2819435"><ele>473.99999999999994</ele><time>2026-04-02T09:36:33.703Z</time></trkpt><trkpt lat="42.8285228" lon="12.2818796"><ele>472.6666666666667</ele><time>2026-04-02T09:36:34.703Z</time></trkpt><trkpt lat="42.8284612" lon="12.2817952"><ele>471.33333333333337</ele><time>2026-04-02T09:36:35.71Z</time></trkpt><trkpt lat="42.8284239" lon="12.2816927"><ele>470.0</ele><time>2026-04-02T09:36:36.705Z</time></trkpt><trkpt lat="42.8283943" lon="12.2815747"><ele>468.6666666666667</ele><time>2026-04-02T09:36:37.707Z</time></trkpt><trkpt lat="42.8283903" lon="12.281461"><ele>467.33333333333337</ele><time>2026-04-02T09:36:38.704Z</time></trkpt><trkpt lat="42.8283843" lon="12.2813571"><ele>466.0</ele><time>2026-04-02T09:36:39.707Z</time></trkpt><trkpt lat="42.8283765" lon="12.2812634"><ele>466.0</ele><time>2026-04-02T09:36:40.701Z</time></trkpt><trkpt lat="42.8283228" lon="12.2811294"><ele>466.0</ele><time>2026-04-02T09:36:42.707Z</time></trkpt><trkpt lat="42.8281901" lon="12.281108"><ele>466.0</ele><time>2026-04-02T09:36:44.707Z</time></trkpt><trkpt lat="42.8281221" lon="12.2811494"><ele>466.0</ele><time>2026-04-02T09:36:45.706Z</time></trkpt><trkpt lat="42.8280562" lon="12.2812079"><ele>466.0</ele><time>2026-04-02T09:36:46.707Z</time></trkpt><trkpt lat="42.827989" lon="12.2812492"><ele>466.0</ele><time>2026-04-02T09:36:47.707Z</time></trkpt><trkpt lat="42.8279107" lon="12.2812675"><ele>466.0</ele><time>2026-04-02T09:36:48.703Z</time></trkpt><trkpt lat="42.8278142" lon="12.2812607"><ele>466.0</ele><time>2026-04-02T09:36:49.707Z</time></trkpt><trkpt lat="42.8277122" lon="12.2812364"><ele>466.0</ele><time>2026-04-02T09:36:50.708Z</time></trkpt><trkpt lat="42.8275958" lon="12.2812167"><ele>466.0</ele><time>2026-04-02T09:36:51.702Z</time></trkpt><trkpt lat="42.827462" lon="12.2812161"><ele>463.75</ele><time>2026-04-02T09:36:52.705Z</time></trkpt><trkpt lat="42.8273306" lon="12.2811993"><ele>461.5</ele><time>2026-04-02T09:36:53.703Z</time></trkpt><trkpt lat="42.8271872" lon="12.28119"><ele>459.25</ele><time>2026-04-02T09:36:54.704Z</time></trkpt><trkpt lat="42.8270692" lon="12.2811622"><ele>457.0</ele><time>2026-04-02T09:36:55.707Z</time></trkpt><trkpt lat="42.8270008" lon="12.2811262"><ele>457.0</ele><time>2026-04-02T09:36:56.703Z</time></trkpt><trkpt lat="42.8268893" lon="12.281075"><ele>457.00000000000006</ele><time>2026-04-02T09:36:57.709Z</time></trkpt><trkpt lat="42.8267795" lon="12.2810338"><ele>457.00000000000006</ele><time>2026-04-02T09:36:58.709Z</time></trkpt><trkpt lat="42.8266761" lon="12.2809876"><ele>457.0</ele><time>2026-04-02T09:36:59.701Z</time></trkpt><trkpt lat="42.8265724" lon="12.2809525"><ele>457.0</ele><time>2026-04-02T09:37:00.706Z</time></trkpt><trkpt lat="42.8264677" lon="12.2809325"><ele>454.0</ele><time>2026-04-02T09:37:01.702Z</time></trkpt><trkpt lat="42.8263609" lon="12.2809133"><ele>451.0</ele><time>2026-04-02T09:37:02.705Z</time></trkpt><trkpt lat="42.8262399" lon="12.2808966"><ele>448.0</ele><time>2026-04-02T09:37:03.701Z</time></trkpt><trkpt lat="42.826122" lon="12.2808749"><ele>445.0</ele><time>2026-04-02T09:37:04.705Z</time></trkpt><trkpt lat="42.8260205" lon="12.2808581"><ele>442.83333333333337</ele><time>2026-04-02T09:37:05.706Z</time></trkpt><trkpt lat="42.8259335" lon="12.28085"><ele>440.6666666666667</ele><time>2026-04-02T09:37:06.707Z</time></trkpt><trkpt lat="42.8258541" lon="12.2808409"><ele>438.5</ele><time>2026-04-02T09:37:07.708Z</time></trkpt><trkpt lat="42.8257681" lon="12.2808159"><ele>436.33333333333337</ele><time>2026-04-02T09:37:08.701Z</time></trkpt><trkpt lat="42.8256902" lon="12.2807874"><ele>434.1666666666667</ele><time>2026-04-02T09:37:09.705Z</time></trkpt><trkpt lat="42.8256221" lon="12.2807095"><ele>432.0</ele><time>2026-04-02T09:37:10.709Z</time></trkpt><trkpt lat="42.8255533" lon="12.2806505"><ele>432.0</ele><time>2026-04-02T09:37:11.706Z</time></trkpt><trkpt lat="42.8254671" lon="12.2806062"><ele>432.0</ele><time>2026-04-02T09:37:12.701Z</time></trkpt><trkpt lat="42.8253707" lon="12.2805873"><ele>432.0</ele><time>2026-04-02T09:37:13.704Z</time></trkpt><trkpt lat="42.8252825" lon="12.2805768"><ele>432.0</ele><time>2026-04-02T09:37:14.705Z</time></trkpt><trkpt lat="42.825202" lon="12.2805973"><ele>432.0</ele><time>2026-04-02T09:37:15.711Z</time></trkpt><trkpt lat="42.8251354" lon="12.2806368"><ele>432.0</ele><time>2026-04-02T09:37:16.705Z</time></trkpt><trkpt lat="42.8250765" lon="12.2807049"><ele>430.5</ele><time>2026-04-02T09:37:17.7Z</time></trkpt><trkpt lat="42.8250243" lon="12.2807946"><ele>429.0</ele><time>2026-04-02T09:37:18.705Z</time></trkpt><trkpt lat="42.8249862" lon="12.280875"><ele>427.5</ele><time>2026-04-02T09:37:19.704Z</time></trkpt><trkpt lat="42.8249508" lon="12.2809676"><ele>426.0</ele><time>2026-04-02T09:37:20.71Z</time></trkpt><trkpt lat="42.8249171" lon="12.2810504"><ele>424.5</ele><time>2026-04-02T09:37:21.703Z</time></trkpt><trkpt lat="42.8248734" lon="12.2811413"><ele>423.0</ele><time>2026-04-02T09:37:22.706Z</time></trkpt><trkpt lat="42.8248204" lon="12.2812264"><ele>423.0</ele><time>2026-04-02T09:37:23.707Z</time></trkpt><trkpt lat="42.8247713" lon="12.2813321"><ele>423.0</ele><time>2026-04-02T09:37:24.707Z</time></trkpt><trkpt lat="42.8247357" lon="12.2814372"><ele>423.0</ele><time>2026-04-02T09:37:25.705Z</time></trkpt><trkpt lat="42.8247002" lon="12.2815366"><ele>423.0</ele><time>2026-04-02T09:37:26.703Z</time></trkpt><trkpt lat="42.8246592" lon="12.2816443"><ele>423.0</ele><time>2026-04-02T09:37:27.707Z</time></trkpt><trkpt lat="42.8246168" lon="12.2817434"><ele>423.0</ele><time>2026-04-02T09:37:28.707Z</time></trkpt><trkpt lat="42.8245704" lon="12.2818296"><ele>422.2</ele><time>2026-04-02T09:37:29.715Z</time></trkpt><trkpt lat="42.8245042" lon="12.2819126"><ele>421.4</ele><time>2026-04-02T09:37:30.703Z</time></trkpt><trkpt lat="42.8244244" lon="12.2819859"><ele>420.59999999999997</ele><time>2026-04-02T09:37:31.708Z</time></trkpt><trkpt lat="42.8243481" lon="12.2820567"><ele>419.79999999999995</ele><time>2026-04-02T09:37:32.701Z</time></trkpt><trkpt lat="42.8242643" lon="12.2821217"><ele>419.0</ele><time>2026-04-02T09:37:33.704Z</time></trkpt><trkpt lat="42.8241794" lon="12.2821782"><ele>419.0</ele><time>2026-04-02T09:37:34.71Z</time></trkpt><trkpt lat="42.8240932" lon="12.2822325"><ele>419.0</ele><time>2026-04-02T09:37:35.706Z</time></trkpt><trkpt lat="42.8239992" lon="12.2822835"><ele>419.0</ele><time>2026-04-02T09:37:36.707Z</time></trkpt><trkpt lat="42.8238952" lon="12.2823449"><ele>419.0</ele><time>2026-04-02T09:37:37.704Z</time></trkpt><trkpt lat="42.8237877" lon="12.2824068"><ele>419.0</ele><time>2026-04-02T09:37:38.708Z</time></trkpt><trkpt lat="42.8236894" lon="12.2824691"><ele>416.2</ele><time>2026-04-02T09:37:39.709Z</time></trkpt><trkpt lat="42.8235979" lon="12.2825469"><ele>413.4</ele><time>2026-04-02T09:37:40.704Z</time></trkpt><trkpt lat="42.8234965" lon="12.2826094"><ele>410.6</ele><time>2026-04-02T09:37:41.706Z</time></trkpt><trkpt lat="42.8233939" lon="12.2826698"><ele>407.8</ele><time>2026-04-02T09:37:42.704Z</time></trkpt><trkpt lat="42.823292" lon="12.2827413"><ele>405.0</ele><time>2026-04-02T09:37:43.705Z</time></trkpt><trkpt lat="42.8231859" lon="12.2828092"><ele>404.4</ele><time>2026-04-02T09:37:44.706Z</time></trkpt><trkpt lat="42.8230858" lon="12.282867"><ele>403.8</ele><time>2026-04-02T09:37:45.707Z</time></trkpt><trkpt lat="42.8229822" lon="12.2829252"><ele>403.20000000000005</ele><time>2026-04-02T09:37:46.704Z</time></trkpt><trkpt lat="42.8228915" lon="12.2829827"><ele>402.6</ele><time>2026-04-02T09:37:47.703Z</time></trkpt><trkpt lat="42.8228053" lon="12.2830448"><ele>402.0</ele><time>2026-04-02T09:37:48.708Z</time></trkpt><trkpt lat="42.8227216" lon="12.2831058"><ele>399.6666666666667</ele><time>2026-04-02T09:37:49.703Z</time></trkpt><trkpt lat="42.8226446" lon="12.2831629"><ele>397.33333333333337</ele><time>2026-04-02T09:37:50.706Z</time></trkpt><trkpt lat="42.8225692" lon="12.2832228"><ele>395.0</ele><time>2026-04-02T09:37:51.71Z</time></trkpt><trkpt lat="42.8224982" lon="12.2832843"><ele>392.6666666666667</ele><time>2026-04-02T09:37:52.707Z</time></trkpt><trkpt lat="42.8224307" lon="12.2833464"><ele>390.33333333333337</ele><time>2026-04-02T09:37:53.704Z</time></trkpt><trkpt lat="42.8223677" lon="12.2834114"><ele>388.0</ele><time>2026-04-02T09:37:54.708Z</time></trkpt><trkpt lat="42.8223088" lon="12.2834725"><ele>388.00000000000006</ele><time>2026-04-02T09:37:55.703Z</time></trkpt><trkpt lat="42.8222498" lon="12.283534"><ele>388.0</ele><time>2026-04-02T09:37:56.701Z</time></trkpt><trkpt lat="42.8221913" lon="12.2836018"><ele>388.0</ele><time>2026-04-02T09:37:57.7Z</time></trkpt><trkpt lat="42.8221321" lon="12.2836841"><ele>388.0</ele><time>2026-04-02T09:37:58.707Z</time></trkpt><trkpt lat="42.8220711" lon="12.2837724"><ele>388.00000000000006</ele><time>2026-04-02T09:37:59.706Z</time></trkpt><trkpt lat="42.8220165" lon="12.2838573"><ele>388.0</ele><time>2026-04-02T09:38:00.703Z</time></trkpt><trkpt lat="42.8219557" lon="12.2839493"><ele>386.2</ele><time>2026-04-02T09:38:01.706Z</time></trkpt><trkpt lat="42.8218971" lon="12.284041"><ele>384.4</ele><time>2026-04-02T09:38:02.705Z</time></trkpt><trkpt lat="42.8218398" lon="12.2841333"><ele>382.59999999999997</ele><time>2026-04-02T09:38:03.702Z</time></trkpt><trkpt lat="42.8217696" lon="12.2842131"><ele>380.79999999999995</ele><time>2026-04-02T09:38:04.703Z</time></trkpt><trkpt lat="42.8216914" lon="12.284286"><ele>379.0</ele><time>2026-04-02T09:38:05.705Z</time></trkpt><trkpt lat="42.8216159" lon="12.2843513"><ele>378.79999999999995</ele><time>2026-04-02T09:38:06.701Z</time></trkpt><trkpt lat="42.8215344" lon="12.2844217"><ele>378.59999999999997</ele><time>2026-04-02T09:38:07.701Z</time></trkpt><trkpt lat="42.8214539" lon="12.2844913"><ele>378.4</ele><time>2026-04-02T09:38:08.704Z</time></trkpt><trkpt lat="42.8213874" lon="12.2845516"><ele>378.2</ele><time>2026-04-02T09:38:09.7Z</time></trkpt><trkpt lat="42.8213049" lon="12.2846219"><ele>378.0</ele><time>2026-04-02T09:38:10.705Z</time></trkpt><trkpt lat="42.8212336" lon="12.2846781"><ele>378.0</ele><time>2026-04-02T09:38:11.699Z</time></trkpt><trkpt lat="42.8211595" lon="12.2847248"><ele>378.0</ele><time>2026-04-02T09:38:12.71Z</time></trkpt><trkpt lat="42.8210779" lon="12.2847696"><ele>378.0</ele><time>2026-04-02T09:38:13.707Z</time></trkpt><trkpt lat="42.8210001" lon="12.2848074"><ele>378.0</ele><time>2026-04-02T09:38:14.703Z</time></trkpt><trkpt lat="42.8209249" lon="12.2848241"><ele>378.0</ele><time>2026-04-02T09:38:15.701Z</time></trkpt><trkpt lat="42.8208398" lon="12.2848216"><ele>378.0</ele><time>2026-04-02T09:38:16.704Z</time></trkpt><trkpt lat="42.8207748" lon="12.2848141"><ele>375.79999999999995</ele><time>2026-04-02T09:38:17.711Z</time></trkpt><trkpt lat="42.8207051" lon="12.2847944"><ele>373.6</ele><time>2026-04-02T09:38:19.705Z</time></trkpt><trkpt lat="42.820633" lon="12.2847661"><ele>371.4</ele><time>2026-04-02T09:38:22.706Z</time></trkpt><trkpt lat="42.8205444" lon="12.2846965"><ele>369.20000000000005</ele><time>2026-04-02T09:38:25.705Z</time></trkpt><trkpt lat="42.8204636" lon="12.2846165"><ele>367.0</ele><time>2026-04-02T09:38:27.708Z</time></trkpt><trkpt lat="42.82037" lon="12.2845606"><ele>367.0</ele><time>2026-04-02T09:38:29.705Z</time></trkpt><trkpt lat="42.8202832" lon="12.2844568"><ele>367.0</ele><time>2026-04-02T09:38:31.707Z</time></trkpt><trkpt lat="42.8202578" lon="12.2843743"><ele>367.0</ele><time>2026-04-02T09:38:32.706Z</time></trkpt><trkpt lat="42.8202282" lon="12.2842893"><ele>367.0</ele><time>2026-04-02T09:38:33.702Z</time></trkpt><trkpt lat="42.8202147" lon="12.2841944"><ele>367.0</ele><time>2026-04-02T09:38:34.713Z</time></trkpt><trkpt lat="42.8202168" lon="12.2840856"><ele>367.0</ele><time>2026-04-02T09:38:35.701Z</time></trkpt><trkpt lat="42.8202233" lon="12.2839874"><ele>367.16666666666663</ele><time>2026-04-02T09:38:36.705Z</time></trkpt><trkpt lat="42.8202153" lon="12.283887"><ele>367.3333333333333</ele><time>2026-04-02T09:38:37.702Z</time></trkpt><trkpt lat="42.8202143" lon="12.2837916"><ele>367.5</ele><time>2026-04-02T09:38:38.702Z</time></trkpt><trkpt lat="42.8202083" lon="12.2836769"><ele>367.6666666666667</ele><time>2026-04-02T09:38:39.703Z</time></trkpt><trkpt lat="42.8202114" lon="12.2835661"><ele>367.83333333333337</ele><time>2026-04-02T09:38:40.706Z</time></trkpt><trkpt lat="42.8201917" lon="12.2834552"><ele>368.0</ele><time>2026-04-02T09:38:41.704Z</time></trkpt><trkpt lat="42.8201636" lon="12.2833453"><ele>365.83333333333337</ele><time>2026-04-02T09:38:42.705Z</time></trkpt><trkpt lat="42.8201309" lon="12.2832458"><ele>363.6666666666667</ele><time>2026-04-02T09:38:43.705Z</time></trkpt><trkpt lat="42.8200888" lon="12.2831556"><ele>361.5</ele><time>2026-04-02T09:38:44.703Z</time></trkpt><trkpt lat="42.8200322" lon="12.2830805"><ele>359.3333333333333</ele><time>2026-04-02T09:38:45.703Z</time></trkpt><trkpt lat="42.8199583" lon="12.2830052"><ele>357.16666666666663</ele><time>2026-04-02T09:38:46.702Z</time></trkpt><trkpt lat="42.8198786" lon="12.282949"><ele>355.0</ele><time>2026-04-02T09:38:47.704Z</time></trkpt><trkpt lat="42.8197997" lon="12.2828882"><ele>355.0</ele><time>2026-04-02T09:38:48.705Z</time></trkpt><trkpt lat="42.8197316" lon="12.2828324"><ele>355.0</ele><time>2026-04-02T09:38:49.705Z</time></trkpt><trkpt lat="42.8196691" lon="12.2827702"><ele>355.0</ele><time>2026-04-02T09:38:50.707Z</time></trkpt><trkpt lat="42.8196173" lon="12.282629"><ele>355.0</ele><time>2026-04-02T09:38:52.703Z</time></trkpt><trkpt lat="42.8196267" lon="12.2825326"><ele>355.0</ele><time>2026-04-02T09:38:53.706Z</time></trkpt><trkpt lat="42.8196494" lon="12.2824427"><ele>355.0</ele><time>2026-04-02T09:38:54.705Z</time></trkpt><trkpt lat="42.8196604" lon="12.2823495"><ele>354.5</ele><time>2026-04-02T09:38:55.705Z</time></trkpt><trkpt lat="42.8196501" lon="12.282238"><ele>354.0</ele><time>2026-04-02T09:38:56.707Z</time></trkpt><trkpt lat="42.8196191" lon="12.2821427"><ele>353.5</ele><time>2026-04-02T09:38:57.703Z</time></trkpt><trkpt lat="42.8195792" lon="12.2820381"><ele>353.0</ele><time>2026-04-02T09:38:58.706Z</time></trkpt><trkpt lat="42.8195355" lon="12.2819438"><ele>352.5</ele><time>2026-04-02T09:38:59.703Z</time></trkpt><trkpt lat="42.8194953" lon="12.281854"><ele>352.0</ele><time>2026-04-02T09:39:00.704Z</time></trkpt><trkpt lat="42.8194682" lon="12.2817575"><ele>352.0</ele><time>2026-04-02T09:39:01.712Z</time></trkpt><trkpt lat="42.8194448" lon="12.281648"><ele>352.0</ele><time>2026-04-02T09:39:02.702Z</time></trkpt><trkpt lat="42.8194401" lon="12.2815368"><ele>352.0</ele><time>2026-04-02T09:39:03.707Z</time></trkpt><trkpt lat="42.819436" lon="12.2814358"><ele>352.0</ele><time>2026-04-02T09:39:04.704Z</time></trkpt><trkpt lat="42.8194331" lon="12.2813479"><ele>352.0</ele><time>2026-04-02T09:39:05.705Z</time></trkpt><trkpt lat="42.8194317" lon="12.2812208"><ele>352.0</ele><time>2026-04-02T09:39:07.704Z</time></trkpt><trkpt lat="42.8194264" lon="12.2811163"><ele>350.66666666666663</ele><time>2026-04-02T09:39:10.704Z</time></trkpt><trkpt lat="42.8194108" lon="12.2810245"><ele>349.3333333333333</ele><time>2026-04-02T09:39:15.708Z</time></trkpt><trkpt lat="42.819503" lon="12.2809798"><ele>348.0</ele><time>2026-04-02T09:45:50.708Z</time></trkpt><trkpt lat="42.819568" lon="12.2809497"><ele>346.6666666666667</ele><time>2026-04-02T09:45:51.709Z</time></trkpt><trkpt lat="42.8196689" lon="12.2809096"><ele>345.33333333333337</ele><time>2026-04-02T09:45:53.706Z</time></trkpt><trkpt lat="42.8197568" lon="12.2808751"><ele>344.0</ele><time>2026-04-02T09:45:55.705Z</time></trkpt><trkpt lat="42.8198296" lon="12.2808102"><ele>344.0</ele><time>2026-04-02T09:45:57.701Z</time></trkpt><trkpt lat="42.8198754" lon="12.280741"><ele>344.0</ele><time>2026-04-02T09:46:00.702Z</time></trkpt><trkpt lat="42.8199164" lon="12.2806432"><ele>344.0</ele><time>2026-04-02T09:46:04.701Z</time></trkpt><trkpt lat="42.8199699" lon="12.2805417"><ele>344.0</ele><time>2026-04-02T09:46:07.703Z</time></trkpt><trkpt lat="42.8200074" lon="12.2804448"><ele>344.0</ele><time>2026-04-02T09:46:11.7Z</time></trkpt><trkpt lat="42.8200079" lon="12.2803325"><ele>344.0</ele><time>2026-04-02T09:46:15.703Z</time></trkpt><trkpt lat="42.8199752" lon="12.2802373"><ele>343.83333333333337</ele><time>2026-04-02T09:46:18.702Z</time></trkpt><trkpt lat="42.8199308" lon="12.2801681"><ele>343.6666666666667</ele><time>2026-04-02T09:46:30.706Z</time></trkpt><trkpt lat="42.8199038" lon="12.2800821"><ele>343.5</ele><time>2026-04-02T09:46:32.704Z</time></trkpt><trkpt lat="42.8199037" lon="12.2799672"><ele>343.3333333333333</ele><time>2026-04-02T09:46:34.701Z</time></trkpt><trkpt lat="42.8198912" lon="12.2798679"><ele>343.16666666666663</ele><time>2026-04-02T09:46:36.703Z</time></trkpt><trkpt lat="42.8198355" lon="12.2798016"><ele>343.0</ele><time>2026-04-02T09:46:38.702Z</time></trkpt><trkpt lat="42.8197499" lon="12.2797928"><ele>343.0</ele><time>2026-04-02T09:46:40.703Z</time></trkpt><trkpt lat="42.8196547" lon="12.2798109"><ele>343.0</ele><time>2026-04-02T09:46:41.701Z</time></trkpt><trkpt lat="42.8195415" lon="12.2798776"><ele>343.0</ele><time>2026-04-02T09:46:43.707Z</time></trkpt><trkpt lat="42.819454" lon="12.2799976"><ele>343.0</ele><time>2026-04-02T09:46:45.702Z</time></trkpt><trkpt lat="42.819371" lon="12.2800812"><ele>343.0</ele><time>2026-04-02T09:46:47.703Z</time></trkpt><trkpt lat="42.8193609" lon="12.2799672"><ele>343.0</ele><time>2026-04-02T09:46:52.701Z</time></trkpt><trkpt lat="42.819393" lon="12.2798432"><ele>343.0</ele><time>2026-04-02T09:46:55.704Z</time></trkpt><trkpt lat="42.8194387" lon="12.2797139"><ele>343.0</ele><time>2026-04-02T09:46:57.71Z</time></trkpt><trkpt lat="42.8194692" lon="12.2795416"><ele>343.0</ele><time>2026-04-02T09:46:59.7Z</time></trkpt><trkpt lat="42.8194793" lon="12.2794307"><ele>343.0</ele><time>2026-04-02T09:47:00.708Z</time></trkpt><trkpt lat="42.8194735" lon="12.2793417"><ele>344.2</ele><time>2026-04-02T09:47:01.701Z</time></trkpt><trkpt lat="42.8193872" lon="12.2792349"><ele>345.4</ele><time>2026-04-02T09:47:03.705Z</time></trkpt><trkpt lat="42.8192989" lon="12.2792019"><ele>346.59999999999997</ele><time>2026-04-02T09:47:05.705Z</time></trkpt><trkpt lat="42.8191871" lon="12.2792399"><ele>347.79999999999995</ele><time>2026-04-02T09:47:07.708Z</time></trkpt><trkpt lat="42.8191312" lon="12.2792987"><ele>349.0</ele><time>2026-04-02T09:47:08.706Z</time></trkpt><trkpt lat="42.8190776" lon="12.2793629"><ele>351.0</ele><time>2026-04-02T09:47:09.706Z</time></trkpt><trkpt lat="42.8190181" lon="12.2794185"><ele>353.0</ele><time>2026-04-02T09:47:10.701Z</time></trkpt><trkpt lat="42.8189461" lon="12.2794805"><ele>355.0</ele><time>2026-04-02T09:47:11.703Z</time></trkpt><trkpt lat="42.81888" lon="12.27953"><ele>357.0</ele><time>2026-04-02T09:47:12.701Z</time></trkpt><trkpt lat="42.8188048" lon="12.2795824"><ele>359.0</ele><time>2026-04-02T09:47:13.701Z</time></trkpt><trkpt lat="42.818741" lon="12.2796219"><ele>361.0</ele><time>2026-04-02T09:47:14.713Z</time></trkpt><trkpt lat="42.8186713" lon="12.2796615"><ele>361.0</ele><time>2026-04-02T09:47:15.704Z</time></trkpt><trkpt lat="42.8185519" lon="12.2796497"><ele>361.0</ele><time>2026-04-02T09:47:17.704Z</time></trkpt><trkpt lat="42.8184448" lon="12.2795675"><ele>361.0</ele><time>2026-04-02T09:47:19.709Z</time></trkpt><trkpt lat="42.8183912" lon="12.2795164"><ele>361.0</ele><time>2026-04-02T09:47:20.707Z</time></trkpt><trkpt lat="42.8183363" lon="12.2794636"><ele>361.0</ele><time>2026-04-02T09:47:21.708Z</time></trkpt><trkpt lat="42.8182469" lon="12.2794431"><ele>362.5</ele><time>2026-04-02T09:47:23.703Z</time></trkpt><trkpt lat="42.8181303" lon="12.2794463"><ele>364.0</ele><time>2026-04-02T09:47:25.709Z</time></trkpt><trkpt lat="42.8180558" lon="12.2794686"><ele>365.5</ele><time>2026-04-02T09:47:26.701Z</time></trkpt><trkpt lat="42.8179799" lon="12.2794879"><ele>367.0</ele><time>2026-04-02T09:47:27.709Z</time></trkpt><trkpt lat="42.8179012" lon="12.2795014"><ele>368.5</ele><time>2026-04-02T09:47:28.706Z</time></trkpt><trkpt lat="42.8178219" lon="12.2795183"><ele>370.0</ele><time>2026-04-02T09:47:29.702Z</time></trkpt><trkpt lat="42.8177529" lon="12.2795319"><ele>369.99999999999994</ele><time>2026-04-02T09:47:30.702Z</time></trkpt><trkpt lat="42.8176789" lon="12.2795395"><ele>370.0</ele><time>2026-04-02T09:47:31.705Z</time></trkpt><trkpt lat="42.8176068" lon="12.2795353"><ele>370.0</ele><time>2026-04-02T09:47:32.704Z</time></trkpt><trkpt lat="42.81753" lon="12.2795451"><ele>370.0</ele><time>2026-04-02T09:47:33.707Z</time></trkpt><trkpt lat="42.8174665" lon="12.2795482"><ele>370.0</ele><time>2026-04-02T09:47:34.699Z</time></trkpt><trkpt lat="42.8173942" lon="12.2795642"><ele>369.99999999999994</ele><time>2026-04-02T09:47:35.701Z</time></trkpt><trkpt lat="42.8173281" lon="12.2795542"><ele>370.0</ele><time>2026-04-02T09:47:36.7Z</time></trkpt><trkpt lat="42.81721" lon="12.279534"><ele>372.8</ele><time>2026-04-02T09:47:38.701Z</time></trkpt><trkpt lat="42.8171006" lon="12.2795425"><ele>375.6</ele><time>2026-04-02T09:47:40.704Z</time></trkpt><trkpt lat="42.8170105" lon="12.2795734"><ele>378.4</ele><time>2026-04-02T09:47:41.705Z</time></trkpt><trkpt lat="42.8169365" lon="12.2795845"><ele>381.2</ele><time>2026-04-02T09:47:42.705Z</time></trkpt><trkpt lat="42.8168182" lon="12.2796377"><ele>384.0</ele><time>2026-04-02T09:47:43.703Z</time></trkpt><trkpt lat="42.8167222" lon="12.2796778"><ele>384.5</ele><time>2026-04-02T09:47:44.709Z</time></trkpt><trkpt lat="42.8166506" lon="12.2796932"><ele>385.0</ele><time>2026-04-02T09:47:45.707Z</time></trkpt><trkpt lat="42.8165698" lon="12.2797188"><ele>385.5</ele><time>2026-04-02T09:47:46.71Z</time></trkpt><trkpt lat="42.8164992" lon="12.2797654"><ele>386.0</ele><time>2026-04-02T09:47:47.709Z</time></trkpt><trkpt lat="42.8164158" lon="12.2798671"><ele>386.5</ele><time>2026-04-02T09:47:49.704Z</time></trkpt><trkpt lat="42.8163824" lon="12.2799518"><ele>387.0</ele><time>2026-04-02T09:47:50.713Z</time></trkpt><trkpt lat="42.8163208" lon="12.2799933"><ele>387.0</ele><time>2026-04-02T09:47:52.704Z</time></trkpt><trkpt lat="42.8162119" lon="12.2799413"><ele>387.0</ele><time>2026-04-02T09:47:54.703Z</time></trkpt><trkpt lat="42.8161149" lon="12.2799032"><ele>387.0</ele><time>2026-04-02T09:47:56.702Z</time></trkpt><trkpt lat="42.8160646" lon="12.2798297"><ele>387.0</ele><time>2026-04-02T09:47:58.704Z</time></trkpt><trkpt lat="42.8160954" lon="12.2797139"><ele>387.0</ele><time>2026-04-02T09:48:00.704Z</time></trkpt><trkpt lat="42.8161186" lon="12.279606"><ele>388.5</ele><time>2026-04-02T09:48:02.706Z</time></trkpt><trkpt lat="42.8160977" lon="12.2795229"><ele>390.0</ele><time>2026-04-02T09:48:04.707Z</time></trkpt><trkpt lat="42.8160325" lon="12.2795054"><ele>391.5</ele><time>2026-04-02T09:48:06.707Z</time></trkpt><trkpt lat="42.8159586" lon="12.279503"><ele>393.0</ele><time>2026-04-02T09:48:08.703Z</time></trkpt><trkpt lat="42.8158859" lon="12.279433"><ele>394.5</ele><time>2026-04-02T09:48:10.703Z</time></trkpt><trkpt lat="42.8158693" lon="12.2793089"><ele>396.0</ele><time>2026-04-02T09:48:12.701Z</time></trkpt><trkpt lat="42.8158927" lon="12.2791883"><ele>397.6666666666667</ele><time>2026-04-02T09:48:14.706Z</time></trkpt><trkpt lat="42.8159312" lon="12.2790354"><ele>399.33333333333337</ele><time>2026-04-02T09:48:16.7Z</time></trkpt><trkpt lat="42.8159587" lon="12.2789397"><ele>401.0</ele><time>2026-04-02T09:48:17.7Z</time></trkpt><trkpt lat="42.8159792" lon="12.2788502"><ele>402.6666666666667</ele><time>2026-04-02T09:48:18.702Z</time></trkpt><trkpt lat="42.8160121" lon="12.2787675"><ele>404.33333333333337</ele><time>2026-04-02T09:48:19.699Z</time></trkpt><trkpt lat="42.8160738" lon="12.2786702"><ele>406.0</ele><time>2026-04-02T09:48:21.7Z</time></trkpt><trkpt lat="42.8160928" lon="12.2785672"><ele>406.4</ele><time>2026-04-02T09:48:23.701Z</time></trkpt><trkpt lat="42.8160514" lon="12.2784234"><ele>406.8</ele><time>2026-04-02T09:48:25.702Z</time></trkpt><trkpt lat="42.8160225" lon="12.2783345"><ele>407.2</ele><time>2026-04-02T09:48:26.705Z</time></trkpt><trkpt lat="42.8160061" lon="12.2781886"><ele>407.59999999999997</ele><time>2026-04-02T09:48:28.701Z</time></trkpt><trkpt lat="42.8160433" lon="12.2780336"><ele>408.0</ele><time>2026-04-02T09:48:30.703Z</time></trkpt><trkpt lat="42.816065" lon="12.2779445"><ele>409.4</ele><time>2026-04-02T09:48:31.702Z</time></trkpt><trkpt lat="42.8161043" lon="12.2777801"><ele>410.79999999999995</ele><time>2026-04-02T09:48:33.702Z</time></trkpt><trkpt lat="42.8161244" lon="12.277676"><ele>412.2</ele><time>2026-04-02T09:48:34.705Z</time></trkpt><trkpt lat="42.8161389" lon="12.2775643"><ele>413.6</ele><time>2026-04-02T09:48:35.706Z</time></trkpt><trkpt lat="42.8160902" lon="12.2774544"><ele>415.0</ele><time>2026-04-02T09:48:37.704Z</time></trkpt><trkpt lat="42.8160185" lon="12.2773855"><ele>416.33333333333337</ele><time>2026-04-02T09:48:39.705Z</time></trkpt><trkpt lat="42.8159026" lon="12.2774243"><ele>417.6666666666667</ele><time>2026-04-02T09:48:41.708Z</time></trkpt><trkpt lat="42.8158382" lon="12.2774647"><ele>419.0</ele><time>2026-04-02T09:48:42.704Z</time></trkpt><trkpt lat="42.815765" lon="12.2775008"><ele>420.33333333333337</ele><time>2026-04-02T09:48:43.705Z</time></trkpt><trkpt lat="42.8156935" lon="12.2775196"><ele>421.6666666666667</ele><time>2026-04-02T09:48:44.701Z</time></trkpt><trkpt lat="42.8156257" lon="12.2775184"><ele>423.0</ele><time>2026-04-02T09:48:45.709Z</time></trkpt><trkpt lat="42.8155532" lon="12.2774975"><ele>423.0</ele><time>2026-04-02T09:48:46.705Z</time></trkpt><trkpt lat="42.8154742" lon="12.2773899"><ele>423.0</ele><time>2026-04-02T09:48:48.702Z</time></trkpt><trkpt lat="42.8154191" lon="12.2772432"><ele>423.0</ele><time>2026-04-02T09:48:50.703Z</time></trkpt><trkpt lat="42.815391" lon="12.2771656"><ele>423.0</ele><time>2026-04-02T09:48:51.701Z</time></trkpt><trkpt lat="42.8153536" lon="12.2770956"><ele>423.0</ele><time>2026-04-02T09:48:52.702Z</time></trkpt><trkpt lat="42.8153098" lon="12.2770323"><ele>423.0</ele><time>2026-04-02T09:48:53.702Z</time></trkpt><trkpt lat="42.8152525" lon="12.2769828"><ele>423.7142857142857</ele><time>2026-04-02T09:48:54.705Z</time></trkpt><trkpt lat="42.8151814" lon="12.2769441"><ele>424.42857142857144</ele><time>2026-04-02T09:48:55.702Z</time></trkpt><trkpt lat="42.8151144" lon="12.2769306"><ele>425.14285714285717</ele><time>2026-04-02T09:48:56.702Z</time></trkpt><trkpt lat="42.8150435" lon="12.2769436"><ele>425.8571428571429</ele><time>2026-04-02T09:48:57.702Z</time></trkpt><trkpt lat="42.814965" lon="12.2769586"><ele>426.57142857142856</ele><time>2026-04-02T09:48:58.703Z</time></trkpt><trkpt lat="42.8148883" lon="12.2769609"><ele>427.28571428571433</ele><time>2026-04-02T09:48:59.702Z</time></trkpt><trkpt lat="42.8148209" lon="12.2769384"><ele>428.0</ele><time>2026-04-02T09:49:00.705Z</time></trkpt><trkpt lat="42.8147566" lon="12.2769322"><ele>430.2</ele><time>2026-04-02T09:49:01.704Z</time></trkpt><trkpt lat="42.8146927" lon="12.2769404"><ele>432.4</ele><time>2026-04-02T09:49:02.702Z</time></trkpt><trkpt lat="42.8146369" lon="12.2769828"><ele>434.59999999999997</ele><time>2026-04-02T09:49:03.705Z</time></trkpt><trkpt lat="42.8145383" lon="12.2770616"><ele>436.79999999999995</ele><time>2026-04-02T09:49:05.702Z</time></trkpt><trkpt lat="42.8144199" lon="12.2771477"><ele>439.0</ele><time>2026-04-02T09:49:07.707Z</time></trkpt><trkpt lat="42.8143453" lon="12.2771793"><ele>440.33333333333337</ele><time>2026-04-02T09:49:08.706Z</time></trkpt><trkpt lat="42.8142763" lon="12.277221"><ele>441.6666666666667</ele><time>2026-04-02T09:49:09.708Z</time></trkpt><trkpt lat="42.8142045" lon="12.2772552"><ele>443.0</ele><time>2026-04-02T09:49:10.703Z</time></trkpt><trkpt lat="42.8141292" lon="12.2773081"><ele>444.33333333333337</ele><time>2026-04-02T09:49:11.701Z</time></trkpt><trkpt lat="42.814063" lon="12.2773634"><ele>445.6666666666667</ele><time>2026-04-02T09:49:12.709Z</time></trkpt><trkpt lat="42.8139992" lon="12.2773995"><ele>447.0</ele><time>2026-04-02T09:49:13.706Z</time></trkpt><trkpt lat="42.81394" lon="12.2774662"><ele>447.0</ele><time>2026-04-02T09:49:14.707Z</time></trkpt><trkpt lat="42.8138884" lon="12.2775464"><ele>447.0</ele><time>2026-04-02T09:49:15.706Z</time></trkpt><trkpt lat="42.8138331" lon="12.2776263"><ele>447.0</ele><time>2026-04-02T09:49:16.702Z</time></trkpt><trkpt lat="42.8137701" lon="12.277718"><ele>447.0</ele><time>2026-04-02T09:49:17.709Z</time></trkpt><trkpt lat="42.8137238" lon="12.2777958"><ele>447.0</ele><time>2026-04-02T09:49:18.706Z</time></trkpt><trkpt lat="42.8136659" lon="12.2778701"><ele>447.0</ele><time>2026-04-02T09:49:19.706Z</time></trkpt><trkpt lat="42.8136138" lon="12.2779518"><ele>447.0</ele><time>2026-04-02T09:49:20.708Z</time></trkpt><trkpt lat="42.8135683" lon="12.2780209"><ele>447.0</ele><time>2026-04-02T09:49:21.702Z</time></trkpt><trkpt lat="42.8135091" lon="12.278072"><ele>447.0</ele><time>2026-04-02T09:49:22.703Z</time></trkpt><trkpt lat="42.8134387" lon="12.2781316"><ele>447.0</ele><time>2026-04-02T09:49:24.707Z</time></trkpt><trkpt lat="42.8133559" lon="12.2781475"><ele>447.0</ele><time>2026-04-02T09:49:26.704Z</time></trkpt><trkpt lat="42.8132791" lon="12.2781147"><ele>447.0</ele><time>2026-04-02T09:49:28.701Z</time></trkpt><trkpt lat="42.8131984" lon="12.2781397"><ele>449.0</ele><time>2026-04-02T09:49:30.708Z</time></trkpt><trkpt lat="42.8131259" lon="12.2782404"><ele>451.00000000000006</ele><time>2026-04-02T09:49:32.707Z</time></trkpt><trkpt lat="42.8131378" lon="12.2783774"><ele>453.00000000000006</ele><time>2026-04-02T09:49:34.702Z</time></trkpt><trkpt lat="42.8132024" lon="12.2784927"><ele>455.0</ele><time>2026-04-02T09:49:36.702Z</time></trkpt><trkpt lat="42.8132117" lon="12.2785862"><ele>457.0</ele><time>2026-04-02T09:49:37.712Z</time></trkpt><trkpt lat="42.8132134" lon="12.2786842"><ele>457.00000000000006</ele><time>2026-04-02T09:49:38.702Z</time></trkpt><trkpt lat="42.8131899" lon="12.278775"><ele>457.0</ele><time>2026-04-02T09:49:39.703Z</time></trkpt><trkpt lat="42.8131574" lon="12.2788758"><ele>457.0</ele><time>2026-04-02T09:49:40.704Z</time></trkpt><trkpt lat="42.8131333" lon="12.2789563"><ele>457.0</ele><time>2026-04-02T09:49:41.703Z</time></trkpt><trkpt lat="42.8130671" lon="12.279117"><ele>457.00000000000006</ele><time>2026-04-02T09:49:43.705Z</time></trkpt><trkpt lat="42.813022" lon="12.2792077"><ele>457.0</ele><time>2026-04-02T09:49:44.71Z</time></trkpt><trkpt lat="42.8129832" lon="12.2793047"><ele>456.40000000000003</ele><time>2026-04-02T09:49:45.702Z</time></trkpt><trkpt lat="42.8129536" lon="12.2793993"><ele>455.80000000000007</ele><time>2026-04-02T09:49:46.706Z</time></trkpt><trkpt lat="42.8129357" lon="12.2795072"><ele>455.2</ele><time>2026-04-02T09:49:47.708Z</time></trkpt><trkpt lat="42.8129043" lon="12.2796639"><ele>454.6</ele><time>2026-04-02T09:49:49.703Z</time></trkpt><trkpt lat="42.812888" lon="12.2797549"><ele>454.0</ele><time>2026-04-02T09:49:50.707Z</time></trkpt><trkpt lat="42.8128277" lon="12.279885"><ele>455.6666666666667</ele><time>2026-04-02T09:49:52.704Z</time></trkpt><trkpt lat="42.8127647" lon="12.2799531"><ele>457.33333333333337</ele><time>2026-04-02T09:49:53.705Z</time></trkpt><trkpt lat="42.8127151" lon="12.2800124"><ele>459.0</ele><time>2026-04-02T09:49:54.704Z</time></trkpt><trkpt lat="42.8126736" lon="12.2800804"><ele>460.66666666666663</ele><time>2026-04-02T09:49:56.707Z</time></trkpt><trkpt lat="42.8126443" lon="12.280162"><ele>462.3333333333333</ele><time>2026-04-02T09:49:58.701Z</time></trkpt><trkpt lat="42.8126062" lon="12.2802798"><ele>464.0</ele><time>2026-04-02T09:50:00.704Z</time></trkpt><trkpt lat="42.8125637" lon="12.2804267"><ele>464.0</ele><time>2026-04-02T09:50:02.707Z</time></trkpt><trkpt lat="42.8125172" lon="12.2805462"><ele>464.0</ele><time>2026-04-02T09:50:04.701Z</time></trkpt><trkpt lat="42.8124365" lon="12.2806624"><ele>464.0</ele><time>2026-04-02T09:50:06.702Z</time></trkpt><trkpt lat="42.8123466" lon="12.2808029"><ele>464.0</ele><time>2026-04-02T09:50:08.703Z</time></trkpt><trkpt lat="42.8122923" lon="12.2808922"><ele>464.0</ele><time>2026-04-02T09:50:09.703Z</time></trkpt><trkpt lat="42.8122299" lon="12.2809719"><ele>462.49999999999994</ele><time>2026-04-02T09:50:10.704Z</time></trkpt><trkpt lat="42.8121732" lon="12.2810519"><ele>461.0</ele><time>2026-04-02T09:50:11.705Z</time></trkpt><trkpt lat="42.8121102" lon="12.2811294"><ele>459.5</ele><time>2026-04-02T09:50:12.701Z</time></trkpt><trkpt lat="42.8120512" lon="12.2811653"><ele>458.0</ele><time>2026-04-02T09:50:13.701Z</time></trkpt><trkpt lat="42.8119826" lon="12.2812065"><ele>456.49999999999994</ele><time>2026-04-02T09:50:14.703Z</time></trkpt><trkpt lat="42.8119069" lon="12.2812429"><ele>455.0</ele><time>2026-04-02T09:50:15.702Z</time></trkpt><trkpt lat="42.8118452" lon="12.2812654"><ele>457.49999999999994</ele><time>2026-04-02T09:50:16.704Z</time></trkpt><trkpt lat="42.8117609" lon="12.2812771"><ele>460.0</ele><time>2026-04-02T09:50:18.703Z</time></trkpt><trkpt lat="42.8116998" lon="12.2812201"><ele>462.5</ele><time>2026-04-02T09:50:20.702Z</time></trkpt><trkpt lat="42.8116545" lon="12.2811329"><ele>465.0</ele><time>2026-04-02T09:50:22.701Z</time></trkpt><trkpt lat="42.8116243" lon="12.2809886"><ele>467.49999999999994</ele><time>2026-04-02T09:50:24.702Z</time></trkpt><trkpt lat="42.8116357" lon="12.2808581"><ele>470.0</ele><time>2026-04-02T09:50:26.705Z</time></trkpt><trkpt lat="42.8116804" lon="12.2807192"><ele>472.2</ele><time>2026-04-02T09:50:28.703Z</time></trkpt><trkpt lat="42.8117111" lon="12.2805808"><ele>474.4</ele><time>2026-04-02T09:50:30.703Z</time></trkpt><trkpt lat="42.8116637" lon="12.2804749"><ele>476.6</ele><time>2026-04-02T09:50:32.705Z</time></trkpt><trkpt lat="42.811619" lon="12.2803789"><ele>478.8</ele><time>2026-04-02T09:50:34.705Z</time></trkpt><trkpt lat="42.8116036" lon="12.2802446"><ele>481.0</ele><time>2026-04-02T09:50:36.704Z</time></trkpt><trkpt lat="42.8115676" lon="12.2800749"><ele>480.99999999999994</ele><time>2026-04-02T09:50:38.702Z</time></trkpt><trkpt lat="42.8115457" lon="12.2799754"><ele>481.0</ele><time>2026-04-02T09:50:39.718Z</time></trkpt><trkpt lat="42.8115285" lon="12.2798802"><ele>480.99999999999994</ele><time>2026-04-02T09:50:40.707Z</time></trkpt><trkpt lat="42.8115103" lon="12.2797895"><ele>480.99999999999994</ele><time>2026-04-02T09:50:41.705Z</time></trkpt><trkpt lat="42.8114958" lon="12.2796949"><ele>481.0</ele><time>2026-04-02T09:50:42.702Z</time></trkpt><trkpt lat="42.8114817" lon="12.2795927"><ele>480.99999999999994</ele><time>2026-04-02T09:50:43.705Z</time></trkpt><trkpt lat="42.8114726" lon="12.2795016"><ele>480.99999999999994</ele><time>2026-04-02T09:50:44.704Z</time></trkpt><trkpt lat="42.8114628" lon="12.2794085"><ele>482.5714285714285</ele><time>2026-04-02T09:50:45.7Z</time></trkpt><trkpt lat="42.8114447" lon="12.2793201"><ele>484.1428571428571</ele><time>2026-04-02T09:50:46.7Z</time></trkpt><trkpt lat="42.8114183" lon="12.2792344"><ele>485.7142857142857</ele><time>2026-04-02T09:50:47.704Z</time></trkpt><trkpt lat="42.8113821" lon="12.2791464"><ele>487.2857142857143</ele><time>2026-04-02T09:50:48.701Z</time></trkpt><trkpt lat="42.8113478" lon="12.2790538"><ele>488.8571428571429</ele><time>2026-04-02T09:50:49.709Z</time></trkpt><trkpt lat="42.8113145" lon="12.2789636"><ele>490.4285714285715</ele><time>2026-04-02T09:50:50.705Z</time></trkpt><trkpt lat="42.8112839" lon="12.278881"><ele>492.00000000000006</ele><time>2026-04-02T09:50:51.705Z</time></trkpt><trkpt lat="42.8112436" lon="12.2788028"><ele>492.20000000000005</ele><time>2026-04-02T09:50:52.706Z</time></trkpt><trkpt lat="42.8111976" lon="12.278724"><ele>492.40000000000003</ele><time>2026-04-02T09:50:53.703Z</time></trkpt><trkpt lat="42.8111413" lon="12.2786399"><ele>492.59999999999997</ele><time>2026-04-02T09:50:54.708Z</time></trkpt><trkpt lat="42.8110834" lon="12.2785639"><ele>492.79999999999995</ele><time>2026-04-02T09:50:55.705Z</time></trkpt><trkpt lat="42.8110109" lon="12.278442"><ele>493.0</ele><time>2026-04-02T09:50:57.702Z</time></trkpt><trkpt lat="42.8109499" lon="12.2783034"><ele>495.0</ele><time>2026-04-02T09:50:59.702Z</time></trkpt><trkpt lat="42.8109335" lon="12.2782171"><ele>496.99999999999994</ele><time>2026-04-02T09:51:00.706Z</time></trkpt><trkpt lat="42.8108843" lon="12.278075"><ele>498.99999999999994</ele><time>2026-04-02T09:51:02.7Z</time></trkpt><trkpt lat="42.8107882" lon="12.2779742"><ele>501.0</ele><time>2026-04-02T09:51:04.705Z</time></trkpt><trkpt lat="42.810665" lon="12.2779344"><ele>503.0</ele><time>2026-04-02T09:51:06.702Z</time></trkpt><trkpt lat="42.8105966" lon="12.2779139"><ele>503.0</ele><time>2026-04-02T09:51:07.702Z</time></trkpt><trkpt lat="42.8105172" lon="12.2779025"><ele>503.00000000000006</ele><time>2026-04-02T09:51:08.706Z</time></trkpt><trkpt lat="42.8104525" lon="12.2778845"><ele>503.0</ele><time>2026-04-02T09:51:09.703Z</time></trkpt><trkpt lat="42.8103882" lon="12.2778876"><ele>503.0</ele><time>2026-04-02T09:51:10.708Z</time></trkpt><trkpt lat="42.8103222" lon="12.2778827"><ele>503.00000000000006</ele><time>2026-04-02T09:51:11.706Z</time></trkpt><trkpt lat="42.810247" lon="12.2778913"><ele>503.0</ele><time>2026-04-02T09:51:12.703Z</time></trkpt><trkpt lat="42.8101792" lon="12.2778799"><ele>503.0</ele><time>2026-04-02T09:51:13.706Z</time></trkpt><trkpt lat="42.8101073" lon="12.2778545"><ele>504.7142857142857</ele><time>2026-04-02T09:51:14.703Z</time></trkpt><trkpt lat="42.8100344" lon="12.2778225"><ele>506.42857142857144</ele><time>2026-04-02T09:51:15.704Z</time></trkpt><trkpt lat="42.8099692" lon="12.2777854"><ele>508.14285714285717</ele><time>2026-04-02T09:51:16.703Z</time></trkpt><trkpt lat="42.8099071" lon="12.2777452"><ele>509.8571428571429</ele><time>2026-04-02T09:51:17.707Z</time></trkpt><trkpt lat="42.8098393" lon="12.2777063"><ele>511.57142857142856</ele><time>2026-04-02T09:51:18.711Z</time></trkpt><trkpt lat="42.8097758" lon="12.2776614"><ele>513.2857142857143</ele><time>2026-04-02T09:51:19.703Z</time></trkpt><trkpt lat="42.8097129" lon="12.2776179"><ele>515.0</ele><time>2026-04-02T09:51:20.708Z</time></trkpt><trkpt lat="42.8096583" lon="12.2775686"><ele>515.0</ele><time>2026-04-02T09:51:21.707Z</time></trkpt><trkpt lat="42.8096075" lon="12.2774987"><ele>515.0</ele><time>2026-04-02T09:51:22.703Z</time></trkpt><trkpt lat="42.8095593" lon="12.2774286"><ele>515.0</ele><time>2026-04-02T09:51:23.703Z</time></trkpt><trkpt lat="42.8095085" lon="12.2773692"><ele>515.0</ele><time>2026-04-02T09:51:24.706Z</time></trkpt><trkpt lat="42.8094487" lon="12.2773271"><ele>515.0</ele><time>2026-04-02T09:51:25.708Z</time></trkpt><trkpt lat="42.8093745" lon="12.2772456"><ele>515.0</ele><time>2026-04-02T09:51:27.707Z</time></trkpt><trkpt lat="42.8093516" lon="12.2771499"><ele>515.0</ele><time>2026-04-02T09:51:29.705Z</time></trkpt><trkpt lat="42.8093805" lon="12.2769914"><ele>515.3333333333333</ele><time>2026-04-02T09:51:31.705Z</time></trkpt><trkpt lat="42.8093987" lon="12.2768868"><ele>515.6666666666666</ele><time>2026-04-02T09:51:32.704Z</time></trkpt><trkpt lat="42.809411" lon="12.2767783"><ele>516.0</ele><time>2026-04-02T09:51:33.706Z</time></trkpt><trkpt lat="42.8094279" lon="12.2766668"><ele>516.3333333333334</ele><time>2026-04-02T09:51:34.704Z</time></trkpt><trkpt lat="42.8094396" lon="12.2765519"><ele>516.6666666666667</ele><time>2026-04-02T09:51:35.708Z</time></trkpt><trkpt lat="42.8094467" lon="12.2764504"><ele>517.0</ele><time>2026-04-02T09:51:36.705Z</time></trkpt><trkpt lat="42.8094396" lon="12.2763571"><ele>517.7142857142858</ele><time>2026-04-02T09:51:37.71Z</time></trkpt><trkpt lat="42.8094225" lon="12.2762689"><ele>518.4285714285714</ele><time>2026-04-02T09:51:38.702Z</time></trkpt><trkpt lat="42.8093955" lon="12.2761913"><ele>519.1428571428571</ele><time>2026-04-02T09:51:39.707Z</time></trkpt><trkpt lat="42.8093622" lon="12.2761144"><ele>519.8571428571429</ele><time>2026-04-02T09:51:40.705Z</time></trkpt><trkpt lat="42.8093399" lon="12.2760283"><ele>520.5714285714286</ele><time>2026-04-02T09:51:41.708Z</time></trkpt><trkpt lat="42.8093242" lon="12.27589"><ele>521.2857142857143</ele><time>2026-04-02T09:51:43.704Z</time></trkpt><trkpt lat="42.8093271" lon="12.2757865"><ele>522.0</ele><time>2026-04-02T09:51:45.704Z</time></trkpt><trkpt lat="42.8093276" lon="12.2756965"><ele>522.4</ele><time>2026-04-02T09:51:47.707Z</time></trkpt><trkpt lat="42.8093525" lon="12.2755821"><ele>522.8000000000001</ele><time>2026-04-02T09:51:49.711Z</time></trkpt><trkpt lat="42.8093934" lon="12.2754356"><ele>523.2</ele><time>2026-04-02T09:51:51.703Z</time></trkpt><trkpt lat="42.8093924" lon="12.2752778"><ele>523.6</ele><time>2026-04-02T09:51:53.706Z</time></trkpt><trkpt lat="42.8093983" lon="12.2751322"><ele>524.0</ele><time>2026-04-02T09:51:55.706Z</time></trkpt><trkpt lat="42.8094143" lon="12.275017"><ele>524.0</ele><time>2026-04-02T09:51:57.703Z</time></trkpt><trkpt lat="42.8094274" lon="12.274902"><ele>524.0</ele><time>2026-04-02T09:51:59.702Z</time></trkpt><trkpt lat="42.8093933" lon="12.2747925"><ele>524.0</ele><time>2026-04-02T09:52:01.704Z</time></trkpt><trkpt lat="42.8093371" lon="12.2747063"><ele>524.0</ele><time>2026-04-02T09:52:03.707Z</time></trkpt><trkpt lat="42.8092605" lon="12.2746222"><ele>524.0</ele><time>2026-04-02T09:52:05.703Z</time></trkpt><trkpt lat="42.8091681" lon="12.2746044"><ele>524.0</ele><time>2026-04-02T09:52:07.705Z</time></trkpt><trkpt lat="42.8091042" lon="12.2746144"><ele>522.8333333333333</ele><time>2026-04-02T09:52:09.703Z</time></trkpt><trkpt lat="42.8090258" lon="12.2745982"><ele>521.6666666666666</ele><time>2026-04-02T09:52:11.703Z</time></trkpt><trkpt lat="42.8089629" lon="12.2745207"><ele>520.5</ele><time>2026-04-02T09:52:13.707Z</time></trkpt><trkpt lat="42.8089193" lon="12.2744439"><ele>519.3333333333334</ele><time>2026-04-02T09:52:15.708Z</time></trkpt><trkpt lat="42.808925" lon="12.2743387"><ele>518.1666666666667</ele><time>2026-04-02T09:52:17.715Z</time></trkpt><trkpt lat="42.8089399" lon="12.2742357"><ele>517.0</ele><time>2026-04-02T09:52:19.704Z</time></trkpt><trkpt lat="42.8089279" lon="12.2741171"><ele>517.0</ele><time>2026-04-02T09:52:21.707Z</time></trkpt><trkpt lat="42.8088983" lon="12.274014"><ele>517.0</ele><time>2026-04-02T09:52:23.706Z</time></trkpt><trkpt lat="42.8088701" lon="12.2739243"><ele>517.0</ele><time>2026-04-02T09:52:25.704Z</time></trkpt><trkpt lat="42.8088428" lon="12.2738295"><ele>517.0</ele><time>2026-04-02T09:52:27.709Z</time></trkpt><trkpt lat="42.8088396" lon="12.2737289"><ele>517.0</ele><time>2026-04-02T09:52:29.705Z</time></trkpt><trkpt lat="42.8088613" lon="12.2736332"><ele>517.0</ele><time>2026-04-02T09:52:31.703Z</time></trkpt><trkpt lat="42.8088739" lon="12.2734987"><ele>515.6666666666667</ele><time>2026-04-02T09:52:34.705Z</time></trkpt><trkpt lat="42.808877" lon="12.2734123"><ele>514.3333333333334</ele><time>2026-04-02T09:52:35.707Z</time></trkpt><trkpt lat="42.8088907" lon="12.2733262"><ele>513.0</ele><time>2026-04-02T09:52:36.702Z</time></trkpt><trkpt lat="42.8089062" lon="12.2731615"><ele>511.66666666666663</ele><time>2026-04-02T09:52:38.707Z</time></trkpt><trkpt lat="42.8089178" lon="12.2730556"><ele>510.3333333333333</ele><time>2026-04-02T09:52:39.707Z</time></trkpt><trkpt lat="42.8089219" lon="12.2729628"><ele>509.0</ele><time>2026-04-02T09:52:40.705Z</time></trkpt><trkpt lat="42.8089245" lon="12.2727936"><ele>509.6</ele><time>2026-04-02T09:52:42.705Z</time></trkpt><trkpt lat="42.8089114" lon="12.2726676"><ele>510.2</ele><time>2026-04-02T09:52:44.711Z</time></trkpt><trkpt lat="42.8088664" lon="12.2725598"><ele>510.80000000000007</ele><time>2026-04-02T09:52:46.708Z</time></trkpt><trkpt lat="42.8088562" lon="12.2723998"><ele>511.40000000000003</ele><time>2026-04-02T09:52:48.704Z</time></trkpt><trkpt lat="42.808825" lon="12.2722441"><ele>512.0</ele><time>2026-04-02T09:52:50.705Z</time></trkpt><trkpt lat="42.8088008" lon="12.2721016"><ele>512.0</ele><time>2026-04-02T09:52:52.707Z</time></trkpt><trkpt lat="42.8088287" lon="12.2719497"><ele>512.0</ele><time>2026-04-02T09:52:54.706Z</time></trkpt><trkpt lat="42.8088478" lon="12.2717817"><ele>512.0</ele><time>2026-04-02T09:52:56.704Z</time></trkpt><trkpt lat="42.8088572" lon="12.271661"><ele>512.0</ele><time>2026-04-02T09:52:58.703Z</time></trkpt><trkpt lat="42.8088848" lon="12.2715543"><ele>512.0</ele><time>2026-04-02T09:53:00.706Z</time></trkpt><trkpt lat="42.8089297" lon="12.2714454"><ele>513.8333333333333</ele><time>2026-04-02T09:53:02.706Z</time></trkpt><trkpt lat="42.8089978" lon="12.271346"><ele>515.6666666666666</ele><time>2026-04-02T09:53:04.71Z</time></trkpt><trkpt lat="42.8090712" lon="12.2712473"><ele>517.5</ele><time>2026-04-02T09:53:06.704Z</time></trkpt><trkpt lat="42.8091168" lon="12.2711734"><ele>519.3333333333334</ele><time>2026-04-02T09:53:08.702Z</time></trkpt><trkpt lat="42.8091728" lon="12.2710949"><ele>521.1666666666667</ele><time>2026-04-02T09:53:10.702Z</time></trkpt><trkpt lat="42.8092248" lon="12.2710308"><ele>523.0</ele><time>2026-04-02T09:53:12.701Z</time></trkpt><trkpt lat="42.8092683" lon="12.2709636"><ele>523.0</ele><time>2026-04-02T09:53:14.704Z</time></trkpt><trkpt lat="42.8093036" lon="12.2708822"><ele>523.0</ele><time>2026-04-02T09:53:16.709Z</time></trkpt><trkpt lat="42.8093406" lon="12.2708061"><ele>523.0</ele><time>2026-04-02T09:53:18.705Z</time></trkpt><trkpt lat="42.8093821" lon="12.2706914"><ele>523.0</ele><time>2026-04-02T09:53:21.705Z</time></trkpt><trkpt lat="42.8094182" lon="12.2705981"><ele>523.0</ele><time>2026-04-02T09:53:24.712Z</time></trkpt><trkpt lat="42.8094461" lon="12.2705041"><ele>523.0</ele><time>2026-04-02T09:53:26.705Z</time></trkpt><trkpt lat="42.8094735" lon="12.2704103"><ele>522.6666666666667</ele><time>2026-04-02T09:53:28.701Z</time></trkpt><trkpt lat="42.809503" lon="12.2703096"><ele>522.3333333333334</ele><time>2026-04-02T09:53:30.702Z</time></trkpt><trkpt lat="42.8095319" lon="12.2702019"><ele>522.0</ele><time>2026-04-02T09:53:32.706Z</time></trkpt><trkpt lat="42.8095428" lon="12.2700876"><ele>521.6666666666666</ele><time>2026-04-02T09:53:34.704Z</time></trkpt><trkpt lat="42.8095356" lon="12.269983"><ele>521.3333333333333</ele><time>2026-04-02T09:53:36.702Z</time></trkpt><trkpt lat="42.8094909" lon="12.2698994"><ele>521.0</ele><time>2026-04-02T09:53:38.709Z</time></trkpt><trkpt lat="42.8094219" lon="12.2698071"><ele>523.25</ele><time>2026-04-02T09:53:40.704Z</time></trkpt><trkpt lat="42.8093165" lon="12.2697093"><ele>525.5</ele><time>2026-04-02T09:53:42.706Z</time></trkpt><trkpt lat="42.8092554" lon="12.2696512"><ele>527.75</ele><time>2026-04-02T09:53:43.712Z</time></trkpt><trkpt lat="42.8091521" lon="12.2695499"><ele>530.0</ele><time>2026-04-02T09:53:45.714Z</time></trkpt><trkpt lat="42.8090522" lon="12.2694369"><ele>530.0</ele><time>2026-04-02T09:53:47.71Z</time></trkpt><trkpt lat="42.8089955" lon="12.2693851"><ele>530.0</ele><time>2026-04-02T09:53:48.704Z</time></trkpt><trkpt lat="42.8089127" lon="12.2692586"><ele>530.0</ele><time>2026-04-02T09:53:50.705Z</time></trkpt><trkpt lat="42.8088413" lon="12.2691389"><ele>530.0</ele><time>2026-04-02T09:53:52.705Z</time></trkpt><trkpt lat="42.8087937" lon="12.2690812"><ele>530.0</ele><time>2026-04-02T09:53:53.705Z</time></trkpt><trkpt lat="42.8087125" lon="12.2689781"><ele>528.8</ele><time>2026-04-02T09:53:55.704Z</time></trkpt><trkpt lat="42.8086274" lon="12.2688711"><ele>527.6</ele><time>2026-04-02T09:53:57.703Z</time></trkpt><trkpt lat="42.8085358" lon="12.2687681"><ele>526.4</ele><time>2026-04-02T09:53:59.705Z</time></trkpt><trkpt lat="42.8084798" lon="12.2687163"><ele>525.2</ele><time>2026-04-02T09:54:00.708Z</time></trkpt><trkpt lat="42.8084209" lon="12.2686558"><ele>524.0</ele><time>2026-04-02T09:54:01.704Z</time></trkpt><trkpt lat="42.8083625" lon="12.2685872"><ele>526.4</ele><time>2026-04-02T09:54:02.71Z</time></trkpt><trkpt lat="42.8082929" lon="12.2685106"><ele>528.8</ele><time>2026-04-02T09:54:03.704Z</time></trkpt><trkpt lat="42.8082242" lon="12.2684412"><ele>531.2</ele><time>2026-04-02T09:54:04.707Z</time></trkpt><trkpt lat="42.8081249" lon="12.2683188"><ele>533.6</ele><time>2026-04-02T09:54:06.703Z</time></trkpt><trkpt lat="42.8080689" lon="12.268256"><ele>536.0</ele><time>2026-04-02T09:54:07.702Z</time></trkpt><trkpt lat="42.8079801" lon="12.2681598"><ele>536.4</ele><time>2026-04-02T09:54:09.703Z</time></trkpt><trkpt lat="42.8078765" lon="12.2680599"><ele>536.8</ele><time>2026-04-02T09:54:11.712Z</time></trkpt><trkpt lat="42.8078211" lon="12.2680164"><ele>537.1999999999999</ele><time>2026-04-02T09:54:12.702Z</time></trkpt><trkpt lat="42.8077305" lon="12.2679388"><ele>537.6</ele><time>2026-04-02T09:54:14.704Z</time></trkpt><trkpt lat="42.8076523" lon="12.2678692"><ele>538.0</ele><time>2026-04-02T09:54:16.702Z</time></trkpt><trkpt lat="42.8075771" lon="12.2677878"><ele>540.8</ele><time>2026-04-02T09:54:18.702Z</time></trkpt><trkpt lat="42.8074893" lon="12.2677008"><ele>543.5999999999999</ele><time>2026-04-02T09:54:20.701Z</time></trkpt><trkpt lat="42.8073769" lon="12.2676067"><ele>546.4000000000001</ele><time>2026-04-02T09:54:22.706Z</time></trkpt><trkpt lat="42.8073034" lon="12.2675478"><ele>549.2</ele><time>2026-04-02T09:54:23.711Z</time></trkpt><trkpt lat="42.8072193" lon="12.2674863"><ele>552.0</ele><time>2026-04-02T09:54:24.708Z</time></trkpt><trkpt lat="42.8071546" lon="12.2674435"><ele>552.0</ele><time>2026-04-02T09:54:25.703Z</time></trkpt><trkpt lat="42.8070804" lon="12.2674094"><ele>552.0</ele><time>2026-04-02T09:54:26.703Z</time></trkpt><trkpt lat="42.8070053" lon="12.2673818"><ele>552.0</ele><time>2026-04-02T09:54:27.708Z</time></trkpt><trkpt lat="42.8069329" lon="12.2673607"><ele>552.0</ele><time>2026-04-02T09:54:28.703Z</time></trkpt><trkpt lat="42.8068554" lon="12.2673327"><ele>552.0</ele><time>2026-04-02T09:54:29.705Z</time></trkpt><trkpt lat="42.8067869" lon="12.2672988"><ele>552.0</ele><time>2026-04-02T09:54:30.708Z</time></trkpt><trkpt lat="42.8067291" lon="12.2672469"><ele>552.6</ele><time>2026-04-02T09:54:32.702Z</time></trkpt><trkpt lat="42.8067232" lon="12.2671188"><ele>553.2</ele><time>2026-04-02T09:54:35.705Z</time></trkpt><trkpt lat="42.8067675" lon="12.2670181"><ele>553.8</ele><time>2026-04-02T09:54:37.711Z</time></trkpt><trkpt lat="42.8068329" lon="12.2668912"><ele>554.4</ele><time>2026-04-02T09:54:39.714Z</time></trkpt><trkpt lat="42.8068628" lon="12.2667191"><ele>555.0</ele><time>2026-04-02T09:54:41.704Z</time></trkpt><trkpt lat="42.8068276" lon="12.2665659"><ele>557.6666666666666</ele><time>2026-04-02T09:54:43.704Z</time></trkpt><trkpt lat="42.8067745" lon="12.2665022"><ele>560.3333333333334</ele><time>2026-04-02T09:54:44.708Z</time></trkpt><trkpt lat="42.8067097" lon="12.2664439"><ele>563.0</ele><time>2026-04-02T09:54:45.704Z</time></trkpt><trkpt lat="42.8066489" lon="12.2663728"><ele>565.6666666666667</ele><time>2026-04-02T09:54:46.707Z</time></trkpt><trkpt lat="42.8065895" lon="12.2662884"><ele>568.3333333333334</ele><time>2026-04-02T09:54:47.706Z</time></trkpt><trkpt lat="42.8065284" lon="12.2661868"><ele>571.0</ele><time>2026-04-02T09:54:48.706Z</time></trkpt><trkpt lat="42.8064559" lon="12.266092"><ele>573.1666666666667</ele><time>2026-04-02T09:54:49.706Z</time></trkpt><trkpt lat="42.8063849" lon="12.2660189"><ele>575.3333333333334</ele><time>2026-04-02T09:54:50.701Z</time></trkpt><trkpt lat="42.8063092" lon="12.2659532"><ele>577.5</ele><time>2026-04-02T09:54:51.71Z</time></trkpt><trkpt lat="42.8062463" lon="12.2659006"><ele>579.6666666666666</ele><time>2026-04-02T09:54:52.701Z</time></trkpt><trkpt lat="42.8061866" lon="12.2658514"><ele>581.8333333333333</ele><time>2026-04-02T09:54:53.705Z</time></trkpt><trkpt lat="42.8061316" lon="12.2658078"><ele>584.0</ele><time>2026-04-02T09:54:54.703Z</time></trkpt><trkpt lat="42.8060654" lon="12.2657723"><ele>584.0</ele><time>2026-04-02T09:54:55.706Z</time></trkpt><trkpt lat="42.8060018" lon="12.2657379"><ele>584.0</ele><time>2026-04-02T09:54:56.712Z</time></trkpt><trkpt lat="42.8059432" lon="12.2656968"><ele>584.0</ele><time>2026-04-02T09:54:57.707Z</time></trkpt><trkpt lat="42.8058941" lon="12.2656339"><ele>584.0</ele><time>2026-04-02T09:54:58.707Z</time></trkpt><trkpt lat="42.8058502" lon="12.2655428"><ele>584.0</ele><time>2026-04-02T09:54:59.71Z</time></trkpt><trkpt lat="42.8058151" lon="12.2654422"><ele>584.0</ele><time>2026-04-02T09:55:00.708Z</time></trkpt><trkpt lat="42.8057729" lon="12.2653433"><ele>584.0</ele><time>2026-04-02T09:55:01.707Z</time></trkpt><trkpt lat="42.8057352" lon="12.2652455"><ele>585.4</ele><time>2026-04-02T09:55:02.708Z</time></trkpt><trkpt lat="42.8056736" lon="12.2651716"><ele>586.8</ele><time>2026-04-02T09:55:03.707Z</time></trkpt><trkpt lat="42.8056197" lon="12.2651084"><ele>588.2</ele><time>2026-04-02T09:55:04.709Z</time></trkpt><trkpt lat="42.8055156" lon="12.2650337"><ele>589.6</ele><time>2026-04-02T09:55:06.704Z</time></trkpt><trkpt lat="42.8054264" lon="12.2649379"><ele>591.0</ele><time>2026-04-02T09:55:08.703Z</time></trkpt><trkpt lat="42.8053497" lon="12.264803"><ele>590.0</ele><time>2026-04-02T09:55:10.705Z</time></trkpt><trkpt lat="42.8053098" lon="12.2647311"><ele>589.0</ele><time>2026-04-02T09:55:11.708Z</time></trkpt><trkpt lat="42.8052721" lon="12.2646447"><ele>588.0</ele><time>2026-04-02T09:55:12.703Z</time></trkpt><trkpt lat="42.8052187" lon="12.264556"><ele>587.0</ele><time>2026-04-02T09:55:13.71Z</time></trkpt><trkpt lat="42.805168" lon="12.264473"><ele>586.0</ele><time>2026-04-02T09:55:14.705Z</time></trkpt><trkpt lat="42.8051147" lon="12.2643747"><ele>585.0</ele><time>2026-04-02T09:55:15.703Z</time></trkpt><trkpt lat="42.805069" lon="12.2642781"><ele>586.8333333333334</ele><time>2026-04-02T09:55:16.705Z</time></trkpt><trkpt lat="42.805014" lon="12.2641908"><ele>588.6666666666666</ele><time>2026-04-02T09:55:17.705Z</time></trkpt><trkpt lat="42.804958" lon="12.2641098"><ele>590.5</ele><time>2026-04-02T09:55:18.708Z</time></trkpt><trkpt lat="42.8049077" lon="12.2640073"><ele>592.3333333333333</ele><time>2026-04-02T09:55:19.707Z</time></trkpt><trkpt lat="42.804855" lon="12.2639147"><ele>594.1666666666666</ele><time>2026-04-02T09:55:20.706Z</time></trkpt><trkpt lat="42.8048086" lon="12.2638156"><ele>596.0</ele><time>2026-04-02T09:55:21.707Z</time></trkpt><trkpt lat="42.8047751" lon="12.2637097"><ele>596.0</ele><time>2026-04-02T09:55:22.704Z</time></trkpt><trkpt lat="42.8047397" lon="12.2636102"><ele>596.0</ele><time>2026-04-02T09:55:23.708Z</time></trkpt><trkpt lat="42.8047101" lon="12.2635337"><ele>596.0</ele><time>2026-04-02T09:55:24.706Z</time></trkpt><trkpt lat="42.8046735" lon="12.2634511"><ele>596.0</ele><time>2026-04-02T09:55:25.708Z</time></trkpt><trkpt lat="42.8046051" lon="12.2633553"><ele>596.0</ele><time>2026-04-02T09:55:27.706Z</time></trkpt><trkpt lat="42.8045302" lon="12.2632104"><ele>596.0</ele><time>2026-04-02T09:55:29.704Z</time></trkpt><trkpt lat="42.8044895" lon="12.2631366"><ele>596.5</ele><time>2026-04-02T09:55:30.703Z</time></trkpt><trkpt lat="42.8044447" lon="12.2630696"><ele>597.0</ele><time>2026-04-02T09:55:31.703Z</time></trkpt><trkpt lat="42.8043584" lon="12.2629708"><ele>597.5</ele><time>2026-04-02T09:55:33.705Z</time></trkpt><trkpt lat="42.8043168" lon="12.2628932"><ele>598.0</ele><time>2026-04-02T09:55:34.707Z</time></trkpt><trkpt lat="42.8042746" lon="12.2628023"><ele>598.5</ele><time>2026-04-02T09:55:35.706Z</time></trkpt><trkpt lat="42.8042285" lon="12.2627025"><ele>599.0</ele><time>2026-04-02T09:55:36.704Z</time></trkpt><trkpt lat="42.8041771" lon="12.2626024"><ele>599.0</ele><time>2026-04-02T09:55:37.708Z</time></trkpt><trkpt lat="42.8041358" lon="12.262513"><ele>599.0</ele><time>2026-04-02T09:55:38.705Z</time></trkpt><trkpt lat="42.8041016" lon="12.2624362"><ele>599.0</ele><time>2026-04-02T09:55:39.707Z</time></trkpt><trkpt lat="42.8040742" lon="12.2623276"><ele>599.0</ele><time>2026-04-02T09:55:41.706Z</time></trkpt><trkpt lat="42.8040155" lon="12.2622541"><ele>599.0</ele><time>2026-04-02T09:55:44.704Z</time></trkpt><trkpt lat="42.8039386" lon="12.2621771"><ele>599.0</ele><time>2026-04-02T09:55:46.713Z</time></trkpt><trkpt lat="42.8038898" lon="12.2621191"><ele>598.0</ele><time>2026-04-02T09:55:47.705Z</time></trkpt><trkpt lat="42.8038313" lon="12.2620639"><ele>597.0</ele><time>2026-04-02T09:55:48.712Z</time></trkpt><trkpt lat="42.8037589" lon="12.2620161"><ele>596.0</ele><time>2026-04-02T09:55:49.703Z</time></trkpt><trkpt lat="42.8036823" lon="12.2619697"><ele>595.0</ele><time>2026-04-02T09:55:50.704Z</time></trkpt><trkpt lat="42.8036158" lon="12.2619005"><ele>594.0</ele><time>2026-04-02T09:55:51.708Z</time></trkpt><trkpt lat="42.8035568" lon="12.2618088"><ele>593.0</ele><time>2026-04-02T09:55:52.707Z</time></trkpt><trkpt lat="42.8035018" lon="12.2616909"><ele>594.8</ele><time>2026-04-02T09:55:53.701Z</time></trkpt><trkpt lat="42.803456" lon="12.2615511"><ele>596.5999999999999</ele><time>2026-04-02T09:55:54.705Z</time></trkpt><trkpt lat="42.8034094" lon="12.2614056"><ele>598.4000000000001</ele><time>2026-04-02T09:55:55.703Z</time></trkpt><trkpt lat="42.8033673" lon="12.2612769"><ele>600.2</ele><time>2026-04-02T09:55:56.704Z</time></trkpt><trkpt lat="42.8033097" lon="12.261178"><ele>602.0</ele><time>2026-04-02T09:55:57.706Z</time></trkpt><trkpt lat="42.8032439" lon="12.2611086"><ele>602.0</ele><time>2026-04-02T09:55:58.703Z</time></trkpt><trkpt lat="42.8031683" lon="12.2610725"><ele>602.0</ele><time>2026-04-02T09:55:59.712Z</time></trkpt><trkpt lat="42.8030903" lon="12.2610579"><ele>602.0</ele><time>2026-04-02T09:56:00.705Z</time></trkpt><trkpt lat="42.8029951" lon="12.2610565"><ele>602.0</ele><time>2026-04-02T09:56:01.703Z</time></trkpt><trkpt lat="42.8028846" lon="12.2610675"><ele>602.0</ele><time>2026-04-02T09:56:02.703Z</time></trkpt><trkpt lat="42.8027858" lon="12.2610682"><ele>602.0</ele><time>2026-04-02T09:56:03.707Z</time></trkpt><trkpt lat="42.8026719" lon="12.2610678"><ele>602.0</ele><time>2026-04-02T09:56:04.71Z</time></trkpt><trkpt lat="42.8025867" lon="12.2610567"><ele>602.0</ele><time>2026-04-02T09:56:05.708Z</time></trkpt><trkpt lat="42.8025244" lon="12.2610252"><ele>602.0</ele><time>2026-04-02T09:56:06.709Z</time></trkpt><trkpt lat="42.8024094" lon="12.260941"><ele>602.0</ele><time>2026-04-02T09:56:08.706Z</time></trkpt><trkpt lat="42.8023484" lon="12.2608996"><ele>602.2</ele><time>2026-04-02T09:56:09.704Z</time></trkpt><trkpt lat="42.8022759" lon="12.2608597"><ele>602.4000000000001</ele><time>2026-04-02T09:56:10.705Z</time></trkpt><trkpt lat="42.8021958" lon="12.2607976"><ele>602.5999999999999</ele><time>2026-04-02T09:56:11.706Z</time></trkpt><trkpt lat="42.8021056" lon="12.2607381"><ele>602.8</ele><time>2026-04-02T09:56:12.705Z</time></trkpt><trkpt lat="42.8020177" lon="12.2606936"><ele>603.0</ele><time>2026-04-02T09:56:13.714Z</time></trkpt><trkpt lat="42.801935" lon="12.2606559"><ele>601.6666666666666</ele><time>2026-04-02T09:56:14.705Z</time></trkpt><trkpt lat="42.8018409" lon="12.260605"><ele>600.3333333333334</ele><time>2026-04-02T09:56:15.707Z</time></trkpt><trkpt lat="42.8017471" lon="12.2605654"><ele>599.0</ele><time>2026-04-02T09:56:16.712Z</time></trkpt><trkpt lat="42.8016673" lon="12.2605267"><ele>597.6666666666667</ele><time>2026-04-02T09:56:17.705Z</time></trkpt><trkpt lat="42.8015877" lon="12.2604963"><ele>596.3333333333334</ele><time>2026-04-02T09:56:18.71Z</time></trkpt><trkpt lat="42.8015196" lon="12.2604505"><ele>595.0</ele><time>2026-04-02T09:56:19.704Z</time></trkpt><trkpt lat="42.801473" lon="12.2603864"><ele>595.0</ele><time>2026-04-02T09:56:20.702Z</time></trkpt><trkpt lat="42.8014332" lon="12.2602875"><ele>595.0</ele><time>2026-04-02T09:56:21.71Z</time></trkpt><trkpt lat="42.8014205" lon="12.2601623"><ele>595.0</ele><time>2026-04-02T09:56:22.704Z</time></trkpt><trkpt lat="42.8014063" lon="12.2600361"><ele>595.0</ele><time>2026-04-02T09:56:23.703Z</time></trkpt><trkpt lat="42.8013767" lon="12.2599115"><ele>595.0</ele><time>2026-04-02T09:56:24.714Z</time></trkpt><trkpt lat="42.8013213" lon="12.2597926"><ele>595.2</ele><time>2026-04-02T09:56:25.707Z</time></trkpt><trkpt lat="42.8012567" lon="12.2596754"><ele>595.4</ele><time>2026-04-02T09:56:26.709Z</time></trkpt><trkpt lat="42.8011831" lon="12.2595671"><ele>595.6</ele><time>2026-04-02T09:56:27.704Z</time></trkpt><trkpt lat="42.8010883" lon="12.2594717"><ele>595.8</ele><time>2026-04-02T09:56:28.707Z</time></trkpt><trkpt lat="42.8009881" lon="12.259401"><ele>596.0</ele><time>2026-04-02T09:56:29.71Z</time></trkpt><trkpt lat="42.8008863" lon="12.2593432"><ele>596.0</ele><time>2026-04-02T09:56:30.711Z</time></trkpt><trkpt lat="42.8007813" lon="12.2592848"><ele>596.0</ele><time>2026-04-02T09:56:31.706Z</time></trkpt><trkpt lat="42.8006621" lon="12.2592329"><ele>596.0</ele><time>2026-04-02T09:56:32.704Z</time></trkpt><trkpt lat="42.8005393" lon="12.2591908"><ele>596.0</ele><time>2026-04-02T09:56:33.712Z</time></trkpt><trkpt lat="42.8004206" lon="12.259161"><ele>596.0</ele><time>2026-04-02T09:56:34.706Z</time></trkpt><trkpt lat="42.8003095" lon="12.2591335"><ele>596.0</ele><time>2026-04-02T09:56:35.706Z</time></trkpt><trkpt lat="42.8002066" lon="12.2591103"><ele>596.0</ele><time>2026-04-02T09:56:36.703Z</time></trkpt><trkpt lat="42.8001283" lon="12.2590974"><ele>596.0</ele><time>2026-04-02T09:56:37.705Z</time></trkpt><trkpt lat="42.8000597" lon="12.2590844"><ele>596.0</ele><time>2026-04-02T09:56:39.708Z</time></trkpt><trkpt lat="42.8000074" lon="12.2591622"><ele>596.0</ele><time>2026-04-02T09:56:55.708Z</time></trkpt><trkpt lat="42.7999427" lon="12.259184"><ele>595.1666666666666</ele><time>2026-04-02T09:56:58.708Z</time></trkpt><trkpt lat="42.7998756" lon="12.2591991"><ele>594.3333333333333</ele><time>2026-04-02T09:57:02.707Z</time></trkpt><trkpt lat="42.7997886" lon="12.2592164"><ele>593.5</ele><time>2026-04-02T09:57:05.713Z</time></trkpt><trkpt lat="42.7997081" lon="12.2592355"><ele>592.6666666666666</ele><time>2026-04-02T09:57:07.704Z</time></trkpt><trkpt lat="42.7996442" lon="12.2592496"><ele>591.8333333333334</ele><time>2026-04-02T09:57:10.704Z</time></trkpt><trkpt lat="42.7995685" lon="12.2592509"><ele>591.0</ele><time>2026-04-02T09:57:13.709Z</time></trkpt><trkpt lat="42.7994848" lon="12.2592465"><ele>591.0</ele><time>2026-04-02T09:57:16.704Z</time></trkpt><trkpt lat="42.7993952" lon="12.2592607"><ele>591.0</ele><time>2026-04-02T09:57:18.715Z</time></trkpt><trkpt lat="42.7992979" lon="12.2592992"><ele>591.0</ele><time>2026-04-02T09:57:20.707Z</time></trkpt><trkpt lat="42.7992158" lon="12.2593537"><ele>591.0</ele><time>2026-04-02T09:57:22.704Z</time></trkpt><trkpt lat="42.7991571" lon="12.2593869"><ele>591.0</ele><time>2026-04-02T09:57:24.708Z</time></trkpt><trkpt lat="42.7990891" lon="12.2593039"><ele>591.0</ele><time>2026-04-02T09:57:28.705Z</time></trkpt><trkpt lat="42.7990544" lon="12.2592292"><ele>590.0</ele><time>2026-04-02T09:57:30.702Z</time></trkpt><trkpt lat="42.7990337" lon="12.2590945"><ele>589.0</ele><time>2026-04-02T09:57:32.709Z</time></trkpt><trkpt lat="42.7990211" lon="12.2590094"><ele>588.0</ele><time>2026-04-02T09:57:33.707Z</time></trkpt><trkpt lat="42.7990209" lon="12.2588398"><ele>587.0</ele><time>2026-04-02T09:57:35.71Z</time></trkpt><trkpt lat="42.79903" lon="12.2587048"><ele>586.0</ele><time>2026-04-02T09:57:37.715Z</time></trkpt><trkpt lat="42.7990165" lon="12.2586094"><ele>586.0</ele><time>2026-04-02T09:57:39.704Z</time></trkpt><trkpt lat="42.7990194" lon="12.2587826"><ele>586.0</ele><time>2026-04-02T09:57:54.702Z</time></trkpt><trkpt lat="42.7990148" lon="12.2589411"><ele>586.0</ele><time>2026-04-02T09:57:56.702Z</time></trkpt><trkpt lat="42.7990159" lon="12.2590804"><ele>586.0</ele><time>2026-04-02T09:57:58.707Z</time></trkpt><trkpt lat="42.7990372" lon="12.2592246"><ele>586.0</ele><time>2026-04-02T09:58:00.706Z</time></trkpt><trkpt lat="42.7990774" lon="12.2593419"><ele>586.0</ele><time>2026-04-02T09:58:02.706Z</time></trkpt><trkpt lat="42.7990543" lon="12.2595007"><ele>586.0</ele><time>2026-04-02T09:58:04.707Z</time></trkpt><trkpt lat="42.7989529" lon="12.2595732"><ele>586.0</ele><time>2026-04-02T09:58:06.707Z</time></trkpt><trkpt lat="42.7988773" lon="12.2595927"><ele>586.0</ele><time>2026-04-02T09:58:07.704Z</time></trkpt><trkpt lat="42.7987896" lon="12.2595952"><ele>586.0</ele><time>2026-04-02T09:58:08.713Z</time></trkpt><trkpt lat="42.798693" lon="12.2595821"><ele>586.0</ele><time>2026-04-02T09:58:09.704Z</time></trkpt><trkpt lat="42.7985955" lon="12.2595521"><ele>586.0</ele><time>2026-04-02T09:58:10.711Z</time></trkpt><trkpt lat="42.7984986" lon="12.2595221"><ele>586.0</ele><time>2026-04-02T09:58:11.708Z</time></trkpt><trkpt lat="42.7984075" lon="12.2594919"><ele>586.0</ele><time>2026-04-02T09:58:12.705Z</time></trkpt><trkpt lat="42.7983284" lon="12.2594628"><ele>585.0</ele><time>2026-04-02T09:58:13.712Z</time></trkpt><trkpt lat="42.7982492" lon="12.2594158"><ele>584.0</ele><time>2026-04-02T09:58:14.704Z</time></trkpt><trkpt lat="42.7981791" lon="12.2593604"><ele>583.0</ele><time>2026-04-02T09:58:15.706Z</time></trkpt><trkpt lat="42.7981174" lon="12.2593253"><ele>582.0</ele><time>2026-04-02T09:58:16.711Z</time></trkpt><trkpt lat="42.7980529" lon="12.2593087"><ele>581.0</ele><time>2026-04-02T09:58:17.705Z</time></trkpt><trkpt lat="42.7979489" lon="12.2592717"><ele>580.0</ele><time>2026-04-02T09:58:19.705Z</time></trkpt><trkpt lat="42.7978831" lon="12.2592672"><ele>580.0</ele><time>2026-04-02T09:58:20.71Z</time></trkpt><trkpt lat="42.7977575" lon="12.2592658"><ele>580.0</ele><time>2026-04-02T09:58:22.706Z</time></trkpt><trkpt lat="42.7976773" lon="12.2592676"><ele>580.0</ele><time>2026-04-02T09:58:23.708Z</time></trkpt><trkpt lat="42.7975947" lon="12.2592689"><ele>580.0</ele><time>2026-04-02T09:58:24.708Z</time></trkpt><trkpt lat="42.7974995" lon="12.2592921"><ele>580.0</ele><time>2026-04-02T09:58:25.706Z</time></trkpt><trkpt lat="42.7974234" lon="12.2593171"><ele>580.3333333333334</ele><time>2026-04-02T09:58:26.701Z</time></trkpt><trkpt lat="42.7973444" lon="12.259351"><ele>580.6666666666667</ele><time>2026-04-02T09:58:27.708Z</time></trkpt><trkpt lat="42.7972849" lon="12.2593892"><ele>581.0</ele><time>2026-04-02T09:58:28.707Z</time></trkpt><trkpt lat="42.7972275" lon="12.259425"><ele>581.3333333333334</ele><time>2026-04-02T09:58:29.703Z</time></trkpt><trkpt lat="42.7971096" lon="12.2594885"><ele>581.6666666666666</ele><time>2026-04-02T09:58:31.702Z</time></trkpt><trkpt lat="42.7970456" lon="12.2595037"><ele>582.0</ele><time>2026-04-02T09:58:32.706Z</time></trkpt><trkpt lat="42.7969441" lon="12.2595063"><ele>582.0</ele><time>2026-04-02T09:58:33.702Z</time></trkpt><trkpt lat="42.7968594" lon="12.2595151"><ele>582.0</ele><time>2026-04-02T09:58:34.713Z</time></trkpt><trkpt lat="42.7967674" lon="12.2595147"><ele>582.0</ele><time>2026-04-02T09:58:35.704Z</time></trkpt><trkpt lat="42.7966727" lon="12.2594776"><ele>582.0</ele><time>2026-04-02T09:58:36.703Z</time></trkpt><trkpt lat="42.7965848" lon="12.2594351"><ele>582.0</ele><time>2026-04-02T09:58:37.709Z</time></trkpt><trkpt lat="42.7965041" lon="12.2593835"><ele>581.2</ele><time>2026-04-02T09:58:38.705Z</time></trkpt><trkpt lat="42.7964082" lon="12.2593384"><ele>580.4000000000001</ele><time>2026-04-02T09:58:39.701Z</time></trkpt><trkpt lat="42.7963133" lon="12.2593159"><ele>579.5999999999999</ele><time>2026-04-02T09:58:40.703Z</time></trkpt><trkpt lat="42.7962342" lon="12.25929"><ele>578.8</ele><time>2026-04-02T09:58:41.713Z</time></trkpt><trkpt lat="42.796138" lon="12.2592502"><ele>578.0</ele><time>2026-04-02T09:58:42.702Z</time></trkpt><trkpt lat="42.7960582" lon="12.2591866"><ele>577.1666666666666</ele><time>2026-04-02T09:58:43.709Z</time></trkpt><trkpt lat="42.7959807" lon="12.2591254"><ele>576.3333333333333</ele><time>2026-04-02T09:58:44.706Z</time></trkpt><trkpt lat="42.795912" lon="12.2590636"><ele>575.5</ele><time>2026-04-02T09:58:45.708Z</time></trkpt><trkpt lat="42.7958403" lon="12.2590198"><ele>574.6666666666666</ele><time>2026-04-02T09:58:46.701Z</time></trkpt><trkpt lat="42.7957569" lon="12.2590127"><ele>573.8333333333334</ele><time>2026-04-02T09:58:47.707Z</time></trkpt><trkpt lat="42.7956819" lon="12.2590179"><ele>573.0</ele><time>2026-04-02T09:58:48.702Z</time></trkpt><trkpt lat="42.7956024" lon="12.2590072"><ele>573.0</ele><time>2026-04-02T09:58:49.706Z</time></trkpt><trkpt lat="42.7955276" lon="12.2589883"><ele>573.0</ele><time>2026-04-02T09:58:50.707Z</time></trkpt><trkpt lat="42.7954942" lon="12.2589096"><ele>573.0</ele><time>2026-04-02T09:58:51.705Z</time></trkpt><trkpt lat="42.7954683" lon="12.2588134"><ele>573.0</ele><time>2026-04-02T09:58:52.704Z</time></trkpt><trkpt lat="42.795438" lon="12.2587289"><ele>573.0</ele><time>2026-04-02T09:58:53.704Z</time></trkpt><trkpt lat="42.7953824" lon="12.2586061"><ele>573.0</ele><time>2026-04-02T09:58:55.705Z</time></trkpt><trkpt lat="42.795358" lon="12.2584802"><ele>571.8333333333334</ele><time>2026-04-02T09:58:57.71Z</time></trkpt><trkpt lat="42.7953319" lon="12.2583927"><ele>570.6666666666666</ele><time>2026-04-02T09:58:58.707Z</time></trkpt><trkpt lat="42.7953121" lon="12.2583"><ele>569.5</ele><time>2026-04-02T09:58:59.7Z</time></trkpt><trkpt lat="42.7952982" lon="12.2581971"><ele>568.3333333333333</ele><time>2026-04-02T09:59:00.705Z</time></trkpt><trkpt lat="42.7952816" lon="12.2580931"><ele>567.1666666666666</ele><time>2026-04-02T09:59:01.706Z</time></trkpt><trkpt lat="42.7952619" lon="12.2579908"><ele>566.0</ele><time>2026-04-02T09:59:02.704Z</time></trkpt><trkpt lat="42.7952366" lon="12.2578871"><ele>565.0</ele><time>2026-04-02T09:59:03.707Z</time></trkpt><trkpt lat="42.7951917" lon="12.2577818"><ele>564.0</ele><time>2026-04-02T09:59:04.706Z</time></trkpt><trkpt lat="42.7951589" lon="12.2577038"><ele>563.0</ele><time>2026-04-02T09:59:05.711Z</time></trkpt><trkpt lat="42.7951142" lon="12.2576234"><ele>562.0</ele><time>2026-04-02T09:59:06.705Z</time></trkpt><trkpt lat="42.7950721" lon="12.2575544"><ele>561.0</ele><time>2026-04-02T09:59:07.715Z</time></trkpt><trkpt lat="42.7949653" lon="12.2574851"><ele>560.0</ele><time>2026-04-02T09:59:09.707Z</time></trkpt><trkpt lat="42.7949007" lon="12.2575083"><ele>560.0</ele><time>2026-04-02T09:59:10.706Z</time></trkpt><trkpt lat="42.7948331" lon="12.2575689"><ele>560.0</ele><time>2026-04-02T09:59:11.701Z</time></trkpt><trkpt lat="42.7947701" lon="12.2576265"><ele>560.0</ele><time>2026-04-02T09:59:12.705Z</time></trkpt><trkpt lat="42.7946936" lon="12.2576843"><ele>560.0</ele><time>2026-04-02T09:59:13.703Z</time></trkpt><trkpt lat="42.7946173" lon="12.2577341"><ele>560.0</ele><time>2026-04-02T09:59:14.704Z</time></trkpt><trkpt lat="42.7945466" lon="12.2577508"><ele>560.0</ele><time>2026-04-02T09:59:15.702Z</time></trkpt><trkpt lat="42.7944747" lon="12.2577515"><ele>560.0</ele><time>2026-04-02T09:59:16.703Z</time></trkpt><trkpt lat="42.7943975" lon="12.2577181"><ele>560.0</ele><time>2026-04-02T09:59:17.711Z</time></trkpt><trkpt lat="42.7943496" lon="12.257639"><ele>560.0</ele><time>2026-04-02T09:59:18.707Z</time></trkpt><trkpt lat="42.7942907" lon="12.2575556"><ele>560.0</ele><time>2026-04-02T09:59:19.707Z</time></trkpt><trkpt lat="42.7942199" lon="12.2574444"><ele>560.0</ele><time>2026-04-02T09:59:20.704Z</time></trkpt><trkpt lat="42.7941427" lon="12.2573428"><ele>558.5</ele><time>2026-04-02T09:59:21.706Z</time></trkpt><trkpt lat="42.7940568" lon="12.2572285"><ele>557.0</ele><time>2026-04-02T09:59:22.713Z</time></trkpt><trkpt lat="42.7939783" lon="12.257106"><ele>555.5</ele><time>2026-04-02T09:59:23.706Z</time></trkpt><trkpt lat="42.7938886" lon="12.2569762"><ele>554.0</ele><time>2026-04-02T09:59:24.708Z</time></trkpt><trkpt lat="42.7938063" lon="12.2568562"><ele>554.0</ele><time>2026-04-02T09:59:25.705Z</time></trkpt><trkpt lat="42.7937282" lon="12.2567433"><ele>554.0</ele><time>2026-04-02T09:59:26.71Z</time></trkpt><trkpt lat="42.7936401" lon="12.2566081"><ele>554.0</ele><time>2026-04-02T09:59:27.708Z</time></trkpt><trkpt lat="42.7935368" lon="12.2564539"><ele>554.0</ele><time>2026-04-02T09:59:28.704Z</time></trkpt><trkpt lat="42.7934285" lon="12.2563127"><ele>555.0</ele><time>2026-04-02T09:59:29.705Z</time></trkpt><trkpt lat="42.793331" lon="12.2561922"><ele>556.0</ele><time>2026-04-02T09:59:30.701Z</time></trkpt><trkpt lat="42.7932364" lon="12.2560768"><ele>557.0</ele><time>2026-04-02T09:59:31.704Z</time></trkpt><trkpt lat="42.7931395" lon="12.2559735"><ele>558.0</ele><time>2026-04-02T09:59:32.706Z</time></trkpt><trkpt lat="42.7930416" lon="12.2558648"><ele>558.0</ele><time>2026-04-02T09:59:33.705Z</time></trkpt><trkpt lat="42.7929493" lon="12.2557552"><ele>558.0</ele><time>2026-04-02T09:59:34.704Z</time></trkpt><trkpt lat="42.7928573" lon="12.2556444"><ele>558.0</ele><time>2026-04-02T09:59:35.702Z</time></trkpt><trkpt lat="42.7927706" lon="12.2555491"><ele>558.0</ele><time>2026-04-02T09:59:36.705Z</time></trkpt><trkpt lat="42.7927029" lon="12.2554731"><ele>558.0</ele><time>2026-04-02T09:59:37.707Z</time></trkpt><trkpt lat="42.7926314" lon="12.2553841"><ele>559.0</ele><time>2026-04-02T09:59:38.712Z</time></trkpt><trkpt lat="42.7925816" lon="12.2552746"><ele>560.0</ele><time>2026-04-02T09:59:39.703Z</time></trkpt><trkpt lat="42.7925333" lon="12.2551614"><ele>561.0</ele><time>2026-04-02T09:59:40.708Z</time></trkpt><trkpt lat="42.792499" lon="12.2550332"><ele>562.0</ele><time>2026-04-02T09:59:41.702Z</time></trkpt><trkpt lat="42.7924614" lon="12.2549022"><ele>563.0</ele><time>2026-04-02T09:59:42.71Z</time></trkpt><trkpt lat="42.7924061" lon="12.2547828"><ele>563.8</ele><time>2026-04-02T09:59:43.712Z</time></trkpt><trkpt lat="42.7923396" lon="12.2546953"><ele>564.5999999999999</ele><time>2026-04-02T09:59:44.705Z</time></trkpt><trkpt lat="42.7922632" lon="12.254616"><ele>565.4000000000001</ele><time>2026-04-02T09:59:45.712Z</time></trkpt><trkpt lat="42.7921826" lon="12.2545313"><ele>566.2</ele><time>2026-04-02T09:59:46.703Z</time></trkpt><trkpt lat="42.7921021" lon="12.2544537"><ele>567.0</ele><time>2026-04-02T09:59:47.711Z</time></trkpt><trkpt lat="42.7920156" lon="12.2543905"><ele>567.0</ele><time>2026-04-02T09:59:48.704Z</time></trkpt><trkpt lat="42.7919192" lon="12.2543412"><ele>567.0</ele><time>2026-04-02T09:59:49.707Z</time></trkpt><trkpt lat="42.7918227" lon="12.2543088"><ele>567.0</ele><time>2026-04-02T09:59:50.711Z</time></trkpt><trkpt lat="42.7917183" lon="12.2543013"><ele>567.0</ele><time>2026-04-02T09:59:51.707Z</time></trkpt><trkpt lat="42.7916155" lon="12.254277"><ele>567.0</ele><time>2026-04-02T09:59:52.705Z</time></trkpt><trkpt lat="42.7915193" lon="12.2542545"><ele>567.0</ele><time>2026-04-02T09:59:53.702Z</time></trkpt><trkpt lat="42.7914169" lon="12.2542069"><ele>567.0</ele><time>2026-04-02T09:59:54.708Z</time></trkpt><trkpt lat="42.7913358" lon="12.2541649"><ele>567.0</ele><time>2026-04-02T09:59:55.702Z</time></trkpt><trkpt lat="42.7912766" lon="12.2541246"><ele>567.0</ele><time>2026-04-02T09:59:56.704Z</time></trkpt><trkpt lat="42.7911949" lon="12.2540725"><ele>567.0</ele><time>2026-04-02T09:59:58.705Z</time></trkpt><trkpt lat="42.7912955" lon="12.2540386"><ele>567.0</ele><time>2026-04-02T10:00:01.709Z</time></trkpt><trkpt lat="42.7913604" lon="12.2540166"><ele>567.0</ele><time>2026-04-02T10:00:02.71Z</time></trkpt><trkpt lat="42.7914826" lon="12.253981"><ele>567.0</ele><time>2026-04-02T10:00:04.706Z</time></trkpt><trkpt lat="42.7915742" lon="12.2539366"><ele>567.0</ele><time>2026-04-02T10:00:05.706Z</time></trkpt><trkpt lat="42.7916506" lon="12.2538856"><ele>567.0</ele><time>2026-04-02T10:00:06.706Z</time></trkpt><trkpt lat="42.7917346" lon="12.2538008"><ele>567.2</ele><time>2026-04-02T10:00:07.712Z</time></trkpt><trkpt lat="42.7918028" lon="12.2536811"><ele>567.4000000000001</ele><time>2026-04-02T10:00:08.701Z</time></trkpt><trkpt lat="42.7918595" lon="12.253525"><ele>567.5999999999999</ele><time>2026-04-02T10:00:09.711Z</time></trkpt><trkpt lat="42.791903" lon="12.2533957"><ele>567.8</ele><time>2026-04-02T10:00:10.707Z</time></trkpt><trkpt lat="42.7919419" lon="12.2532746"><ele>568.0</ele><time>2026-04-02T10:00:11.705Z</time></trkpt><trkpt lat="42.7919535" lon="12.2531416"><ele>567.6666666666667</ele><time>2026-04-02T10:00:12.713Z</time></trkpt><trkpt lat="42.7919447" lon="12.2530038"><ele>567.3333333333334</ele><time>2026-04-02T10:00:13.708Z</time></trkpt><trkpt lat="42.7919142" lon="12.2528822"><ele>567.0</ele><time>2026-04-02T10:00:14.708Z</time></trkpt><trkpt lat="42.7918986" lon="12.2527723"><ele>566.6666666666666</ele><time>2026-04-02T10:00:15.704Z</time></trkpt><trkpt lat="42.7919051" lon="12.2526773"><ele>566.3333333333333</ele><time>2026-04-02T10:00:16.707Z</time></trkpt><trkpt lat="42.7919426" lon="12.2525629"><ele>566.0</ele><time>2026-04-02T10:00:17.703Z</time></trkpt><trkpt lat="42.7920038" lon="12.252452"><ele>566.0</ele><time>2026-04-02T10:00:18.706Z</time></trkpt><trkpt lat="42.7920629" lon="12.2523441"><ele>566.0</ele><time>2026-04-02T10:00:19.702Z</time></trkpt><trkpt lat="42.7921233" lon="12.2522513"><ele>566.0</ele><time>2026-04-02T10:00:20.706Z</time></trkpt><trkpt lat="42.7921957" lon="12.2521515"><ele>566.0</ele><time>2026-04-02T10:00:21.703Z</time></trkpt><trkpt lat="42.7922619" lon="12.2520654"><ele>566.0</ele><time>2026-04-02T10:00:22.709Z</time></trkpt><trkpt lat="42.7923275" lon="12.2519889"><ele>566.0</ele><time>2026-04-02T10:00:23.706Z</time></trkpt><trkpt lat="42.7924028" lon="12.2519291"><ele>566.0</ele><time>2026-04-02T10:00:24.706Z</time></trkpt><trkpt lat="42.7924863" lon="12.251886"><ele>566.0</ele><time>2026-04-02T10:00:25.705Z</time></trkpt><trkpt lat="42.7925732" lon="12.2518631"><ele>566.0</ele><time>2026-04-02T10:00:26.71Z</time></trkpt><trkpt lat="42.7926622" lon="12.2518514"><ele>566.0</ele><time>2026-04-02T10:00:27.709Z</time></trkpt><trkpt lat="42.7927658" lon="12.2518671"><ele>566.0</ele><time>2026-04-02T10:00:28.708Z</time></trkpt><trkpt lat="42.7928694" lon="12.2518971"><ele>566.0</ele><time>2026-04-02T10:00:29.709Z</time></trkpt><trkpt lat="42.7929699" lon="12.2519384"><ele>566.0</ele><time>2026-04-02T10:00:30.707Z</time></trkpt><trkpt lat="42.7930684" lon="12.2519591"><ele>566.0</ele><time>2026-04-02T10:00:31.705Z</time></trkpt><trkpt lat="42.7931737" lon="12.2519638"><ele>566.0</ele><time>2026-04-02T10:00:32.705Z</time></trkpt><trkpt lat="42.7932809" lon="12.2519569"><ele>566.0</ele><time>2026-04-02T10:00:33.704Z</time></trkpt><trkpt lat="42.7933962" lon="12.2519231"><ele>566.0</ele><time>2026-04-02T10:00:34.702Z</time></trkpt><trkpt lat="42.7935033" lon="12.2518762"><ele>566.0</ele><time>2026-04-02T10:00:35.706Z</time></trkpt><trkpt lat="42.7936022" lon="12.2518128"><ele>566.0</ele><time>2026-04-02T10:00:36.707Z</time></trkpt><trkpt lat="42.7936905" lon="12.2517427"><ele>566.0</ele><time>2026-04-02T10:00:37.704Z</time></trkpt><trkpt lat="42.7937773" lon="12.2516562"><ele>566.8</ele><time>2026-04-02T10:00:38.702Z</time></trkpt><trkpt lat="42.793859" lon="12.2515658"><ele>567.6</ele><time>2026-04-02T10:00:39.707Z</time></trkpt><trkpt lat="42.7939345" lon="12.2515045"><ele>568.4</ele><time>2026-04-02T10:00:40.709Z</time></trkpt><trkpt lat="42.7940041" lon="12.2514613"><ele>569.2</ele><time>2026-04-02T10:00:41.71Z</time></trkpt><trkpt lat="42.7940665" lon="12.2514387"><ele>570.0</ele><time>2026-04-02T10:00:42.706Z</time></trkpt><trkpt lat="42.7941838" lon="12.2514586"><ele>570.6666666666666</ele><time>2026-04-02T10:00:44.712Z</time></trkpt><trkpt lat="42.7942543" lon="12.2514848"><ele>571.3333333333334</ele><time>2026-04-02T10:00:45.708Z</time></trkpt><trkpt lat="42.7943368" lon="12.2515142"><ele>572.0</ele><time>2026-04-02T10:00:46.704Z</time></trkpt><trkpt lat="42.7944318" lon="12.2515456"><ele>572.6666666666667</ele><time>2026-04-02T10:00:47.704Z</time></trkpt><trkpt lat="42.7945235" lon="12.2515829"><ele>573.3333333333334</ele><time>2026-04-02T10:00:48.708Z</time></trkpt><trkpt lat="42.7946016" lon="12.2516169"><ele>574.0</ele><time>2026-04-02T10:00:49.712Z</time></trkpt><trkpt lat="42.7946862" lon="12.2516497"><ele>574.0</ele><time>2026-04-02T10:00:51.709Z</time></trkpt><trkpt lat="42.7946275" lon="12.2515809"><ele>574.0</ele><time>2026-04-02T10:01:03.709Z</time></trkpt><trkpt lat="42.7944881" lon="12.2515331"><ele>574.0</ele><time>2026-04-02T10:01:05.71Z</time></trkpt><trkpt lat="42.7944214" lon="12.2515027"><ele>574.0</ele><time>2026-04-02T10:01:06.713Z</time></trkpt><trkpt lat="42.794355" lon="12.2514789"><ele>574.0</ele><time>2026-04-02T10:01:07.711Z</time></trkpt><trkpt lat="42.7942844" lon="12.2514658"><ele>574.0</ele><time>2026-04-02T10:01:08.708Z</time></trkpt><trkpt lat="42.7942188" lon="12.2514487"><ele>574.1666666666667</ele><time>2026-04-02T10:01:09.705Z</time></trkpt><trkpt lat="42.7941176" lon="12.2514184"><ele>574.3333333333334</ele><time>2026-04-02T10:01:11.704Z</time></trkpt><trkpt lat="42.7941094" lon="12.2513306"><ele>574.5</ele><time>2026-04-02T10:01:15.705Z</time></trkpt><trkpt lat="42.7941985" lon="12.2512521"><ele>574.6666666666666</ele><time>2026-04-02T10:01:17.703Z</time></trkpt><trkpt lat="42.7942595" lon="12.2511853"><ele>574.8333333333333</ele><time>2026-04-02T10:01:18.706Z</time></trkpt><trkpt lat="42.7943257" lon="12.2511038"><ele>575.0</ele><time>2026-04-02T10:01:19.702Z</time></trkpt><trkpt lat="42.7943961" lon="12.2510169"><ele>575.0</ele><time>2026-04-02T10:01:20.707Z</time></trkpt><trkpt lat="42.7944715" lon="12.2509308"><ele>575.0</ele><time>2026-04-02T10:01:21.7Z</time></trkpt><trkpt lat="42.7945481" lon="12.2508535"><ele>575.0</ele><time>2026-04-02T10:01:22.702Z</time></trkpt><trkpt lat="42.7946154" lon="12.2508036"><ele>575.0</ele><time>2026-04-02T10:01:23.704Z</time></trkpt><trkpt lat="42.7946891" lon="12.250736"><ele>575.0</ele><time>2026-04-02T10:01:24.704Z</time></trkpt><trkpt lat="42.7947437" lon="12.2506716"><ele>575.0</ele><time>2026-04-02T10:01:25.703Z</time></trkpt><trkpt lat="42.7947877" lon="12.2506017"><ele>575.5</ele><time>2026-04-02T10:01:26.705Z</time></trkpt><trkpt lat="42.7948124" lon="12.2505147"><ele>576.0</ele><time>2026-04-02T10:01:27.707Z</time></trkpt><trkpt lat="42.7948187" lon="12.2504156"><ele>576.5</ele><time>2026-04-02T10:01:28.703Z</time></trkpt><trkpt lat="42.7947931" lon="12.2503138"><ele>577.0</ele><time>2026-04-02T10:01:29.702Z</time></trkpt><trkpt lat="42.7947636" lon="12.2502097"><ele>577.5</ele><time>2026-04-02T10:01:30.706Z</time></trkpt><trkpt lat="42.7947013" lon="12.2501281"><ele>578.0</ele><time>2026-04-02T10:01:31.705Z</time></trkpt><trkpt lat="42.7946425" lon="12.2500628"><ele>578.0</ele><time>2026-04-02T10:01:32.706Z</time></trkpt><trkpt lat="42.7945943" lon="12.2499938"><ele>578.0</ele><time>2026-04-02T10:01:33.703Z</time></trkpt><trkpt lat="42.7945899" lon="12.249855"><ele>578.0</ele><time>2026-04-02T10:01:35.704Z</time></trkpt><trkpt lat="42.7946816" lon="12.2497117"><ele>578.0</ele><time>2026-04-02T10:01:37.707Z</time></trkpt><trkpt lat="42.7947138" lon="12.2496087"><ele>578.0</ele><time>2026-04-02T10:01:38.702Z</time></trkpt><trkpt lat="42.7947164" lon="12.2495227"><ele>578.1666666666666</ele><time>2026-04-02T10:01:39.706Z</time></trkpt><trkpt lat="42.7946995" lon="12.2494256"><ele>578.3333333333333</ele><time>2026-04-02T10:01:40.705Z</time></trkpt><trkpt lat="42.7946936" lon="12.2493283"><ele>578.5</ele><time>2026-04-02T10:01:41.704Z</time></trkpt><trkpt lat="42.7947162" lon="12.2492175"><ele>578.6666666666666</ele><time>2026-04-02T10:01:42.712Z</time></trkpt><trkpt lat="42.7947613" lon="12.2490798"><ele>578.8333333333334</ele><time>2026-04-02T10:01:43.704Z</time></trkpt><trkpt lat="42.7947963" lon="12.2489534"><ele>579.0</ele><time>2026-04-02T10:01:44.708Z</time></trkpt><trkpt lat="42.7948383" lon="12.2488605"><ele>579.6666666666666</ele><time>2026-04-02T10:01:45.705Z</time></trkpt><trkpt lat="42.7948771" lon="12.2487758"><ele>580.3333333333334</ele><time>2026-04-02T10:01:46.708Z</time></trkpt><trkpt lat="42.7949322" lon="12.2486553"><ele>581.0</ele><time>2026-04-02T10:01:48.703Z</time></trkpt><trkpt lat="42.7949533" lon="12.2485542"><ele>581.6666666666667</ele><time>2026-04-02T10:01:51.711Z</time></trkpt><trkpt lat="42.7949035" lon="12.2484822"><ele>582.3333333333334</ele><time>2026-04-02T10:01:55.706Z</time></trkpt><trkpt lat="42.794798" lon="12.2484927"><ele>583.0</ele><time>2026-04-02T10:03:41.705Z</time></trkpt><trkpt lat="42.7946833" lon="12.248495"><ele>583.0</ele><time>2026-04-02T10:03:43.707Z</time></trkpt><trkpt lat="42.794612" lon="12.2484791"><ele>583.0</ele><time>2026-04-02T10:03:44.704Z</time></trkpt><trkpt lat="42.7945219" lon="12.2484607"><ele>583.0</ele><time>2026-04-02T10:03:45.699Z</time></trkpt><trkpt lat="42.7944305" lon="12.2484687"><ele>583.0</ele><time>2026-04-02T10:03:46.702Z</time></trkpt><trkpt lat="42.7943518" lon="12.2484885"><ele>583.0</ele><time>2026-04-02T10:03:47.707Z</time></trkpt><trkpt lat="42.7942787" lon="12.2485123"><ele>583.0</ele><time>2026-04-02T10:03:48.705Z</time></trkpt><trkpt lat="42.7942083" lon="12.2485257"><ele>582.6666666666667</ele><time>2026-04-02T10:03:49.702Z</time></trkpt><trkpt lat="42.7941412" lon="12.2485012"><ele>582.3333333333334</ele><time>2026-04-02T10:03:50.703Z</time></trkpt><trkpt lat="42.7940766" lon="12.2484735"><ele>582.0</ele><time>2026-04-02T10:03:51.701Z</time></trkpt><trkpt lat="42.7940066" lon="12.2484277"><ele>581.6666666666666</ele><time>2026-04-02T10:03:52.703Z</time></trkpt><trkpt lat="42.793933" lon="12.2483444"><ele>581.3333333333333</ele><time>2026-04-02T10:03:53.702Z</time></trkpt><trkpt lat="42.7938563" lon="12.2482456"><ele>581.0</ele><time>2026-04-02T10:03:54.707Z</time></trkpt><trkpt lat="42.7937761" lon="12.2481351"><ele>581.6</ele><time>2026-04-02T10:03:55.703Z</time></trkpt><trkpt lat="42.7937059" lon="12.248034"><ele>582.2</ele><time>2026-04-02T10:03:56.701Z</time></trkpt><trkpt lat="42.7936516" lon="12.2479335"><ele>582.8</ele><time>2026-04-02T10:03:57.706Z</time></trkpt><trkpt lat="42.79358" lon="12.2478266"><ele>583.4</ele><time>2026-04-02T10:03:58.707Z</time></trkpt><trkpt lat="42.7935203" lon="12.2477217"><ele>584.0</ele><time>2026-04-02T10:03:59.714Z</time></trkpt><trkpt lat="42.7934547" lon="12.2476122"><ele>584.0</ele><time>2026-04-02T10:04:00.701Z</time></trkpt><trkpt lat="42.7933889" lon="12.2475006"><ele>584.0</ele><time>2026-04-02T10:04:01.708Z</time></trkpt><trkpt lat="42.7933154" lon="12.2474043"><ele>584.0</ele><time>2026-04-02T10:04:02.703Z</time></trkpt><trkpt lat="42.7932467" lon="12.2473147"><ele>584.0</ele><time>2026-04-02T10:04:03.709Z</time></trkpt><trkpt lat="42.7931948" lon="12.2472167"><ele>584.0</ele><time>2026-04-02T10:04:04.709Z</time></trkpt><trkpt lat="42.7931417" lon="12.2471137"><ele>585.6</ele><time>2026-04-02T10:04:05.703Z</time></trkpt><trkpt lat="42.7931001" lon="12.2469956"><ele>587.2</ele><time>2026-04-02T10:04:06.708Z</time></trkpt><trkpt lat="42.793065" lon="12.2468741"><ele>588.8000000000001</ele><time>2026-04-02T10:04:07.708Z</time></trkpt><trkpt lat="42.7930432" lon="12.2467397"><ele>590.4</ele><time>2026-04-02T10:04:08.705Z</time></trkpt><trkpt lat="42.7930304" lon="12.2466188"><ele>592.0</ele><time>2026-04-02T10:04:09.702Z</time></trkpt><trkpt lat="42.7929874" lon="12.246503"><ele>594.2</ele><time>2026-04-02T10:04:10.705Z</time></trkpt><trkpt lat="42.7929323" lon="12.2463899"><ele>596.4000000000001</ele><time>2026-04-02T10:04:11.705Z</time></trkpt><trkpt lat="42.7928788" lon="12.2462732"><ele>598.5999999999999</ele><time>2026-04-02T10:04:12.709Z</time></trkpt><trkpt lat="42.7928157" lon="12.2461616"><ele>600.8</ele><time>2026-04-02T10:04:13.706Z</time></trkpt><trkpt lat="42.792754" lon="12.2460761"><ele>603.0</ele><time>2026-04-02T10:04:14.712Z</time></trkpt><trkpt lat="42.7926827" lon="12.2460052"><ele>600.3333333333334</ele><time>2026-04-02T10:04:15.708Z</time></trkpt><trkpt lat="42.7926009" lon="12.24596"><ele>597.6666666666666</ele><time>2026-04-02T10:04:16.707Z</time></trkpt><trkpt lat="42.7925188" lon="12.2459213"><ele>595.0</ele><time>2026-04-02T10:04:17.705Z</time></trkpt><trkpt lat="42.7924305" lon="12.2458789"><ele>592.3333333333333</ele><time>2026-04-02T10:04:18.704Z</time></trkpt><trkpt lat="42.7923616" lon="12.2458209"><ele>589.6666666666666</ele><time>2026-04-02T10:04:19.702Z</time></trkpt><trkpt lat="42.7922948" lon="12.2457425"><ele>587.0</ele><time>2026-04-02T10:04:20.699Z</time></trkpt><trkpt lat="42.7922339" lon="12.2456432"><ele>588.8000000000001</ele><time>2026-04-02T10:04:21.699Z</time></trkpt><trkpt lat="42.7921821" lon="12.2455199"><ele>590.6</ele><time>2026-04-02T10:04:22.707Z</time></trkpt><trkpt lat="42.7921232" lon="12.2454"><ele>592.4000000000001</ele><time>2026-04-02T10:04:23.706Z</time></trkpt><trkpt lat="42.7920777" lon="12.2452711"><ele>594.2</ele><time>2026-04-02T10:04:24.705Z</time></trkpt><trkpt lat="42.7920169" lon="12.245135"><ele>596.0</ele><time>2026-04-02T10:04:25.703Z</time></trkpt><trkpt lat="42.7919698" lon="12.2449957"><ele>596.0</ele><time>2026-04-02T10:04:26.709Z</time></trkpt><trkpt lat="42.7919263" lon="12.2448742"><ele>596.0</ele><time>2026-04-02T10:04:27.701Z</time></trkpt><trkpt lat="42.791885" lon="12.2447523"><ele>596.0</ele><time>2026-04-02T10:04:28.703Z</time></trkpt><trkpt lat="42.7918311" lon="12.2446192"><ele>596.0</ele><time>2026-04-02T10:04:29.707Z</time></trkpt><trkpt lat="42.7917831" lon="12.2444758"><ele>596.0</ele><time>2026-04-02T10:04:30.708Z</time></trkpt><trkpt lat="42.791722" lon="12.2443338"><ele>595.25</ele><time>2026-04-02T10:04:31.701Z</time></trkpt><trkpt lat="42.7916664" lon="12.2441913"><ele>594.5</ele><time>2026-04-02T10:04:32.705Z</time></trkpt><trkpt lat="42.7916002" lon="12.2440598"><ele>593.75</ele><time>2026-04-02T10:04:33.706Z</time></trkpt><trkpt lat="42.7915339" lon="12.2439248"><ele>593.0</ele><time>2026-04-02T10:04:34.707Z</time></trkpt><trkpt lat="42.7914675" lon="12.2437865"><ele>593.0</ele><time>2026-04-02T10:04:35.71Z</time></trkpt><trkpt lat="42.7914046" lon="12.2436527"><ele>593.0</ele><time>2026-04-02T10:04:36.704Z</time></trkpt><trkpt lat="42.7913475" lon="12.243529"><ele>593.0</ele><time>2026-04-02T10:04:37.705Z</time></trkpt><trkpt lat="42.7913017" lon="12.2434084"><ele>593.0</ele><time>2026-04-02T10:04:38.703Z</time></trkpt><trkpt lat="42.7912566" lon="12.2433017"><ele>593.0</ele><time>2026-04-02T10:04:39.707Z</time></trkpt><trkpt lat="42.7912132" lon="12.2432005"><ele>593.3333333333333</ele><time>2026-04-02T10:04:40.705Z</time></trkpt><trkpt lat="42.7911836" lon="12.2430955"><ele>593.6666666666666</ele><time>2026-04-02T10:04:41.707Z</time></trkpt><trkpt lat="42.7911533" lon="12.2429841"><ele>594.0</ele><time>2026-04-02T10:04:42.71Z</time></trkpt><trkpt lat="42.7911343" lon="12.2428717"><ele>594.3333333333334</ele><time>2026-04-02T10:04:43.711Z</time></trkpt><trkpt lat="42.791117" lon="12.24276"><ele>594.6666666666667</ele><time>2026-04-02T10:04:44.702Z</time></trkpt><trkpt lat="42.7911126" lon="12.2426322"><ele>595.0</ele><time>2026-04-02T10:04:45.706Z</time></trkpt><trkpt lat="42.7911182" lon="12.2425158"><ele>595.0</ele><time>2026-04-02T10:04:46.706Z</time></trkpt><trkpt lat="42.7912064" lon="12.2423266"><ele>595.0</ele><time>2026-04-02T10:04:48.717Z</time></trkpt><trkpt lat="42.7912676" lon="12.2422233"><ele>595.0</ele><time>2026-04-02T10:04:49.702Z</time></trkpt><trkpt lat="42.7913222" lon="12.2421383"><ele>595.0</ele><time>2026-04-02T10:04:50.702Z</time></trkpt><trkpt lat="42.7913996" lon="12.2420337"><ele>594.6</ele><time>2026-04-02T10:04:51.714Z</time></trkpt><trkpt lat="42.7914639" lon="12.2419348"><ele>594.2</ele><time>2026-04-02T10:04:52.707Z</time></trkpt><trkpt lat="42.7915455" lon="12.2418347"><ele>593.8</ele><time>2026-04-02T10:04:53.707Z</time></trkpt><trkpt lat="42.7916278" lon="12.2417355"><ele>593.4</ele><time>2026-04-02T10:04:54.71Z</time></trkpt><trkpt lat="42.791713" lon="12.2416355"><ele>593.0</ele><time>2026-04-02T10:04:55.704Z</time></trkpt><trkpt lat="42.7918145" lon="12.2415376"><ele>594.25</ele><time>2026-04-02T10:04:56.71Z</time></trkpt><trkpt lat="42.7919251" lon="12.2414431"><ele>595.5</ele><time>2026-04-02T10:04:57.701Z</time></trkpt><trkpt lat="42.79203" lon="12.2413541"><ele>596.75</ele><time>2026-04-02T10:04:58.703Z</time></trkpt><trkpt lat="42.7921318" lon="12.2412754"><ele>598.0</ele><time>2026-04-02T10:04:59.706Z</time></trkpt><trkpt lat="42.792216" lon="12.241217"><ele>598.0</ele><time>2026-04-02T10:05:00.704Z</time></trkpt><trkpt lat="42.7922955" lon="12.2411752"><ele>598.0</ele><time>2026-04-02T10:05:01.711Z</time></trkpt><trkpt lat="42.7923726" lon="12.2411261"><ele>598.0</ele><time>2026-04-02T10:05:02.704Z</time></trkpt><trkpt lat="42.7924576" lon="12.241033"><ele>598.0</ele><time>2026-04-02T10:05:04.703Z</time></trkpt><trkpt lat="42.7924547" lon="12.2409473"><ele>598.0</ele><time>2026-04-02T10:05:11.71Z</time></trkpt><trkpt lat="42.7924736" lon="12.240865"><ele>598.0</ele><time>2026-04-02T10:05:21.705Z</time></trkpt><trkpt lat="42.792487" lon="12.2407321"><ele>597.8</ele><time>2026-04-02T10:05:23.705Z</time></trkpt><trkpt lat="42.7925175" lon="12.2406075"><ele>597.5999999999999</ele><time>2026-04-02T10:05:25.712Z</time></trkpt><trkpt lat="42.7925662" lon="12.2404647"><ele>597.4000000000001</ele><time>2026-04-02T10:05:27.706Z</time></trkpt><trkpt lat="42.7926401" lon="12.2403419"><ele>597.2</ele><time>2026-04-02T10:05:29.702Z</time></trkpt><trkpt lat="42.7927233" lon="12.2402336"><ele>597.0</ele><time>2026-04-02T10:05:31.708Z</time></trkpt><trkpt lat="42.7927939" lon="12.2401469"><ele>598.8333333333334</ele><time>2026-04-02T10:05:32.703Z</time></trkpt><trkpt lat="42.7928677" lon="12.240028"><ele>600.6666666666666</ele><time>2026-04-02T10:05:34.71Z</time></trkpt><trkpt lat="42.7929207" lon="12.239977"><ele>602.5</ele><time>2026-04-02T10:05:35.706Z</time></trkpt><trkpt lat="42.7929839" lon="12.2399398"><ele>604.3333333333333</ele><time>2026-04-02T10:05:36.705Z</time></trkpt><trkpt lat="42.7930559" lon="12.2398967"><ele>606.1666666666666</ele><time>2026-04-02T10:05:37.715Z</time></trkpt><trkpt lat="42.7931437" lon="12.2398479"><ele>608.0</ele><time>2026-04-02T10:05:38.706Z</time></trkpt><trkpt lat="42.7932198" lon="12.2398086"><ele>607.3333333333333</ele><time>2026-04-02T10:05:39.712Z</time></trkpt><trkpt lat="42.7932887" lon="12.2397673"><ele>606.6666666666666</ele><time>2026-04-02T10:05:40.71Z</time></trkpt><trkpt lat="42.7933431" lon="12.2397206"><ele>606.0</ele><time>2026-04-02T10:05:41.708Z</time></trkpt><trkpt lat="42.7934178" lon="12.2396632"><ele>605.3333333333334</ele><time>2026-04-02T10:05:42.707Z</time></trkpt><trkpt lat="42.7934992" lon="12.2395774"><ele>604.6666666666667</ele><time>2026-04-02T10:05:43.702Z</time></trkpt><trkpt lat="42.7935652" lon="12.2395026"><ele>604.0</ele><time>2026-04-02T10:05:44.709Z</time></trkpt><trkpt lat="42.7936273" lon="12.2394235"><ele>606.6666666666667</ele><time>2026-04-02T10:05:45.706Z</time></trkpt><trkpt lat="42.7936797" lon="12.2393639"><ele>609.3333333333334</ele><time>2026-04-02T10:05:46.705Z</time></trkpt><trkpt lat="42.7937253" lon="12.2393034"><ele>612.0</ele><time>2026-04-02T10:05:47.706Z</time></trkpt><trkpt lat="42.7937891" lon="12.239229"><ele>614.6666666666666</ele><time>2026-04-02T10:05:48.705Z</time></trkpt><trkpt lat="42.7938763" lon="12.2391605"><ele>617.3333333333333</ele><time>2026-04-02T10:05:50.706Z</time></trkpt><trkpt lat="42.7939566" lon="12.2392023"><ele>620.0</ele><time>2026-04-02T10:05:52.705Z</time></trkpt><trkpt lat="42.7939911" lon="12.2393103"><ele>620.0</ele><time>2026-04-02T10:05:54.704Z</time></trkpt><trkpt lat="42.7940228" lon="12.2394523"><ele>620.0</ele><time>2026-04-02T10:05:56.713Z</time></trkpt><trkpt lat="42.7940472" lon="12.2395367"><ele>620.0</ele><time>2026-04-02T10:05:57.703Z</time></trkpt><trkpt lat="42.79408" lon="12.239626"><ele>620.0</ele><time>2026-04-02T10:05:58.713Z</time></trkpt><trkpt lat="42.7941114" lon="12.2397206"><ele>620.0</ele><time>2026-04-02T10:05:59.709Z</time></trkpt><trkpt lat="42.7941481" lon="12.2398079"><ele>620.0</ele><time>2026-04-02T10:06:00.704Z</time></trkpt><trkpt lat="42.7941875" lon="12.2398951"><ele>620.3333333333333</ele><time>2026-04-02T10:06:01.701Z</time></trkpt><trkpt lat="42.794214" lon="12.2399939"><ele>620.6666666666666</ele><time>2026-04-02T10:06:02.703Z</time></trkpt><trkpt lat="42.7942457" lon="12.2400924"><ele>621.0</ele><time>2026-04-02T10:06:03.711Z</time></trkpt><trkpt lat="42.7942827" lon="12.2401913"><ele>621.3333333333334</ele><time>2026-04-02T10:06:04.701Z</time></trkpt><trkpt lat="42.7943205" lon="12.2402774"><ele>621.6666666666667</ele><time>2026-04-02T10:06:05.709Z</time></trkpt><trkpt lat="42.79437" lon="12.2403595"><ele>622.0</ele><time>2026-04-02T10:06:06.707Z</time></trkpt><trkpt lat="42.7944249" lon="12.2404283"><ele>625.2</ele><time>2026-04-02T10:06:07.711Z</time></trkpt><trkpt lat="42.7944874" lon="12.2404851"><ele>628.4000000000001</ele><time>2026-04-02T10:06:08.707Z</time></trkpt><trkpt lat="42.7945943" lon="12.2405455"><ele>631.5999999999999</ele><time>2026-04-02T10:06:10.706Z</time></trkpt><trkpt lat="42.7946825" lon="12.2405156"><ele>634.8</ele><time>2026-04-02T10:06:12.702Z</time></trkpt><trkpt lat="42.7947004" lon="12.2403711"><ele>638.0</ele><time>2026-04-02T10:06:14.709Z</time></trkpt><trkpt lat="42.79469" lon="12.2402023"><ele>638.0</ele><time>2026-04-02T10:06:16.707Z</time></trkpt><trkpt lat="42.7946899" lon="12.2401053"><ele>638.0</ele><time>2026-04-02T10:06:17.71Z</time></trkpt><trkpt lat="42.7946958" lon="12.2399988"><ele>638.0</ele><time>2026-04-02T10:06:18.702Z</time></trkpt><trkpt lat="42.794718" lon="12.2398928"><ele>638.0</ele><time>2026-04-02T10:06:19.706Z</time></trkpt><trkpt lat="42.7947478" lon="12.2397882"><ele>638.0</ele><time>2026-04-02T10:06:20.707Z</time></trkpt><trkpt lat="42.7947796" lon="12.2396935"><ele>638.0</ele><time>2026-04-02T10:06:21.703Z</time></trkpt><trkpt lat="42.7948211" lon="12.2395921"><ele>637.5</ele><time>2026-04-02T10:06:22.705Z</time></trkpt><trkpt lat="42.7948659" lon="12.2394963"><ele>637.0</ele><time>2026-04-02T10:06:23.704Z</time></trkpt><trkpt lat="42.7949195" lon="12.2394114"><ele>636.5</ele><time>2026-04-02T10:06:24.705Z</time></trkpt><trkpt lat="42.7949738" lon="12.2393175"><ele>636.0</ele><time>2026-04-02T10:06:25.708Z</time></trkpt><trkpt lat="42.7950259" lon="12.2392331"><ele>635.5</ele><time>2026-04-02T10:06:26.711Z</time></trkpt><trkpt lat="42.7950826" lon="12.239155"><ele>635.0</ele><time>2026-04-02T10:06:27.71Z</time></trkpt><trkpt lat="42.7951427" lon="12.239085"><ele>637.0</ele><time>2026-04-02T10:06:28.705Z</time></trkpt><trkpt lat="42.7952069" lon="12.2390185"><ele>639.0</ele><time>2026-04-02T10:06:29.701Z</time></trkpt><trkpt lat="42.7952753" lon="12.238958"><ele>641.0</ele><time>2026-04-02T10:06:30.704Z</time></trkpt><trkpt lat="42.795347" lon="12.2388881"><ele>643.0</ele><time>2026-04-02T10:06:31.706Z</time></trkpt><trkpt lat="42.795419" lon="12.2388131"><ele>645.0</ele><time>2026-04-02T10:06:32.709Z</time></trkpt><trkpt lat="42.7954738" lon="12.2387236"><ele>647.0</ele><time>2026-04-02T10:06:33.703Z</time></trkpt><trkpt lat="42.7955132" lon="12.2386217"><ele>647.0</ele><time>2026-04-02T10:06:34.705Z</time></trkpt><trkpt lat="42.7955567" lon="12.2385145"><ele>647.0</ele><time>2026-04-02T10:06:35.711Z</time></trkpt><trkpt lat="42.7955955" lon="12.2384129"><ele>647.0</ele><time>2026-04-02T10:06:36.704Z</time></trkpt><trkpt lat="42.7956467" lon="12.2383162"><ele>647.0</ele><time>2026-04-02T10:06:37.711Z</time></trkpt><trkpt lat="42.7957013" lon="12.2382342"><ele>647.0</ele><time>2026-04-02T10:06:38.706Z</time></trkpt><trkpt lat="42.7957606" lon="12.2381545"><ele>647.0</ele><time>2026-04-02T10:06:39.708Z</time></trkpt><trkpt lat="42.7958266" lon="12.2380931"><ele>646.6666666666666</ele><time>2026-04-02T10:06:40.701Z</time></trkpt><trkpt lat="42.7958951" lon="12.238025"><ele>646.3333333333333</ele><time>2026-04-02T10:06:41.701Z</time></trkpt><trkpt lat="42.7959679" lon="12.2379531"><ele>646.0</ele><time>2026-04-02T10:06:42.706Z</time></trkpt><trkpt lat="42.7960447" lon="12.2378922"><ele>645.6666666666666</ele><time>2026-04-02T10:06:43.706Z</time></trkpt><trkpt lat="42.7961112" lon="12.2378247"><ele>645.3333333333334</ele><time>2026-04-02T10:06:44.702Z</time></trkpt><trkpt lat="42.7961896" lon="12.2377456"><ele>645.0</ele><time>2026-04-02T10:06:45.706Z</time></trkpt><trkpt lat="42.7962493" lon="12.237658"><ele>646.3333333333334</ele><time>2026-04-02T10:06:46.711Z</time></trkpt><trkpt lat="42.7962686" lon="12.2375503"><ele>647.6666666666666</ele><time>2026-04-02T10:06:47.702Z</time></trkpt><trkpt lat="42.7962734" lon="12.2374462"><ele>649.0</ele><time>2026-04-02T10:06:48.706Z</time></trkpt><trkpt lat="42.7962736" lon="12.2373458"><ele>650.3333333333333</ele><time>2026-04-02T10:06:49.705Z</time></trkpt><trkpt lat="42.7962769" lon="12.2372389"><ele>651.6666666666666</ele><time>2026-04-02T10:06:50.706Z</time></trkpt><trkpt lat="42.7962828" lon="12.2371315"><ele>653.0</ele><time>2026-04-02T10:06:51.704Z</time></trkpt><trkpt lat="42.7962879" lon="12.2370411"><ele>653.0</ele><time>2026-04-02T10:06:52.704Z</time></trkpt><trkpt lat="42.7963443" lon="12.2369259"><ele>653.0</ele><time>2026-04-02T10:06:54.702Z</time></trkpt><trkpt lat="42.7964223" lon="12.2369344"><ele>653.0</ele><time>2026-04-02T10:06:56.704Z</time></trkpt><trkpt lat="42.7965422" lon="12.2370215"><ele>653.0</ele><time>2026-04-02T10:06:58.708Z</time></trkpt><trkpt lat="42.7966089" lon="12.2370815"><ele>653.0</ele><time>2026-04-02T10:06:59.707Z</time></trkpt><trkpt lat="42.7966825" lon="12.2371439"><ele>653.0</ele><time>2026-04-02T10:07:00.702Z</time></trkpt><trkpt lat="42.7967581" lon="12.2372004"><ele>653.0</ele><time>2026-04-02T10:07:01.706Z</time></trkpt><trkpt lat="42.7968407" lon="12.237252"><ele>653.0</ele><time>2026-04-02T10:07:02.706Z</time></trkpt><trkpt lat="42.7969252" lon="12.2372994"><ele>653.0</ele><time>2026-04-02T10:07:03.701Z</time></trkpt><trkpt lat="42.7970157" lon="12.237349"><ele>653.0</ele><time>2026-04-02T10:07:04.704Z</time></trkpt><trkpt lat="42.7971101" lon="12.2374004"><ele>651.8</ele><time>2026-04-02T10:07:05.706Z</time></trkpt><trkpt lat="42.7972052" lon="12.23745"><ele>650.5999999999999</ele><time>2026-04-02T10:07:06.704Z</time></trkpt><trkpt lat="42.7972987" lon="12.2374977"><ele>649.4000000000001</ele><time>2026-04-02T10:07:07.708Z</time></trkpt><trkpt lat="42.7973935" lon="12.2375427"><ele>648.2</ele><time>2026-04-02T10:07:08.713Z</time></trkpt><trkpt lat="42.797492" lon="12.2375844"><ele>647.0</ele><time>2026-04-02T10:07:09.706Z</time></trkpt><trkpt lat="42.7975924" lon="12.2376238"><ele>645.0</ele><time>2026-04-02T10:07:10.707Z</time></trkpt><trkpt lat="42.7977099" lon="12.2376476"><ele>643.0</ele><time>2026-04-02T10:07:11.704Z</time></trkpt><trkpt lat="42.7977975" lon="12.2376866"><ele>641.0</ele><time>2026-04-02T10:07:12.708Z</time></trkpt><trkpt lat="42.7978777" lon="12.2377222"><ele>639.0</ele><time>2026-04-02T10:07:13.704Z</time></trkpt><trkpt lat="42.797962" lon="12.2377559"><ele>637.0</ele><time>2026-04-02T10:07:14.703Z</time></trkpt><trkpt lat="42.7980454" lon="12.237795"><ele>637.0</ele><time>2026-04-02T10:07:15.707Z</time></trkpt><trkpt lat="42.798125" lon="12.237836"><ele>637.0</ele><time>2026-04-02T10:07:16.71Z</time></trkpt><trkpt lat="42.7981928" lon="12.2378921"><ele>637.0</ele><time>2026-04-02T10:07:17.701Z</time></trkpt><trkpt lat="42.7982459" lon="12.2379529"><ele>637.0</ele><time>2026-04-02T10:07:18.706Z</time></trkpt><trkpt lat="42.7982997" lon="12.2380121"><ele>637.0</ele><time>2026-04-02T10:07:19.709Z</time></trkpt><trkpt lat="42.7983732" lon="12.238122"><ele>637.0</ele><time>2026-04-02T10:07:21.71Z</time></trkpt><trkpt lat="42.7984533" lon="12.2381754"><ele>637.0</ele><time>2026-04-02T10:07:23.702Z</time></trkpt><trkpt lat="42.7985024" lon="12.2381103"><ele>637.0</ele><time>2026-04-02T10:07:25.705Z</time></trkpt><trkpt lat="42.7985103" lon="12.2379979"><ele>637.0</ele><time>2026-04-02T10:07:27.704Z</time></trkpt><trkpt lat="42.7984852" lon="12.2378302"><ele>637.0</ele><time>2026-04-02T10:07:29.708Z</time></trkpt><trkpt lat="42.7984756" lon="12.2377323"><ele>637.0</ele><time>2026-04-02T10:07:30.703Z</time></trkpt><trkpt lat="42.7984489" lon="12.2376318"><ele>637.0</ele><time>2026-04-02T10:07:31.708Z</time></trkpt><trkpt lat="42.7984117" lon="12.2375566"><ele>637.0</ele><time>2026-04-02T10:07:32.704Z</time></trkpt><trkpt lat="42.7983689" lon="12.237481"><ele>637.0</ele><time>2026-04-02T10:07:33.706Z</time></trkpt><trkpt lat="42.798328" lon="12.2374092"><ele>637.0</ele><time>2026-04-02T10:07:34.706Z</time></trkpt><trkpt lat="42.7982725" lon="12.2373519"><ele>637.0</ele><time>2026-04-02T10:07:35.708Z</time></trkpt><trkpt lat="42.7982014" lon="12.2373015"><ele>637.0</ele><time>2026-04-02T10:07:36.707Z</time></trkpt><trkpt lat="42.7981326" lon="12.2372515"><ele>637.0</ele><time>2026-04-02T10:07:37.707Z</time></trkpt><trkpt lat="42.7980583" lon="12.2372192"><ele>637.0</ele><time>2026-04-02T10:07:38.704Z</time></trkpt><trkpt lat="42.7979799" lon="12.2371842"><ele>636.4</ele><time>2026-04-02T10:07:39.707Z</time></trkpt><trkpt lat="42.7978879" lon="12.2371641"><ele>635.8000000000001</ele><time>2026-04-02T10:07:40.702Z</time></trkpt><trkpt lat="42.7978045" lon="12.237139"><ele>635.2</ele><time>2026-04-02T10:07:41.704Z</time></trkpt><trkpt lat="42.7977139" lon="12.2371157"><ele>634.6</ele><time>2026-04-02T10:07:42.709Z</time></trkpt><trkpt lat="42.7976261" lon="12.2370898"><ele>634.0</ele><time>2026-04-02T10:07:43.704Z</time></trkpt><trkpt lat="42.7975417" lon="12.2370429"><ele>634.0</ele><time>2026-04-02T10:07:44.709Z</time></trkpt><trkpt lat="42.7974582" lon="12.2369904"><ele>634.0</ele><time>2026-04-02T10:07:45.711Z</time></trkpt><trkpt lat="42.7973712" lon="12.2369429"><ele>634.0</ele><time>2026-04-02T10:07:46.711Z</time></trkpt><trkpt lat="42.7972887" lon="12.2368895"><ele>634.0</ele><time>2026-04-02T10:07:47.708Z</time></trkpt><trkpt lat="42.7972235" lon="12.2368397"><ele>634.0</ele><time>2026-04-02T10:07:48.704Z</time></trkpt><trkpt lat="42.7971683" lon="12.2367903"><ele>634.0</ele><time>2026-04-02T10:07:49.712Z</time></trkpt><trkpt lat="42.797123" lon="12.2367206"><ele>634.0</ele><time>2026-04-02T10:07:50.707Z</time></trkpt><trkpt lat="42.7970898" lon="12.2366355"><ele>634.0</ele><time>2026-04-02T10:07:51.707Z</time></trkpt><trkpt lat="42.797075" lon="12.2364826"><ele>634.0</ele><time>2026-04-02T10:07:53.714Z</time></trkpt><trkpt lat="42.7971157" lon="12.2363955"><ele>634.0</ele><time>2026-04-02T10:07:54.721Z</time></trkpt><trkpt lat="42.7971514" lon="12.2363141"><ele>634.0</ele><time>2026-04-02T10:07:55.702Z</time></trkpt><trkpt lat="42.7972175" lon="12.2362479"><ele>634.0</ele><time>2026-04-02T10:07:56.707Z</time></trkpt><trkpt lat="42.7972969" lon="12.2361933"><ele>634.3333333333334</ele><time>2026-04-02T10:07:57.709Z</time></trkpt><trkpt lat="42.7973717" lon="12.2361466"><ele>634.6666666666667</ele><time>2026-04-02T10:07:58.706Z</time></trkpt><trkpt lat="42.7974335" lon="12.2361033"><ele>635.0</ele><time>2026-04-02T10:07:59.704Z</time></trkpt><trkpt lat="42.7974948" lon="12.236033"><ele>635.3333333333334</ele><time>2026-04-02T10:08:00.708Z</time></trkpt><trkpt lat="42.7975345" lon="12.2359577"><ele>635.6666666666666</ele><time>2026-04-02T10:08:01.711Z</time></trkpt><trkpt lat="42.7975718" lon="12.2358667"><ele>636.0</ele><time>2026-04-02T10:08:02.704Z</time></trkpt><trkpt lat="42.7976101" lon="12.2357659"><ele>633.0</ele><time>2026-04-02T10:08:03.709Z</time></trkpt><trkpt lat="42.7976711" lon="12.2356835"><ele>630.0</ele><time>2026-04-02T10:08:04.706Z</time></trkpt><trkpt lat="42.7977215" lon="12.2356226"><ele>627.0</ele><time>2026-04-02T10:08:05.703Z</time></trkpt><trkpt lat="42.7977577" lon="12.235548"><ele>624.0</ele><time>2026-04-02T10:08:06.706Z</time></trkpt><trkpt lat="42.797765" lon="12.2353707"><ele>621.0</ele><time>2026-04-02T10:08:08.706Z</time></trkpt><trkpt lat="42.797753" lon="12.235266"><ele>618.0</ele><time>2026-04-02T10:08:09.706Z</time></trkpt><trkpt lat="42.7977361" lon="12.2351817"><ele>618.0000000000001</ele><time>2026-04-02T10:08:10.705Z</time></trkpt><trkpt lat="42.7977295" lon="12.2350925"><ele>618.0</ele><time>2026-04-02T10:08:11.703Z</time></trkpt><trkpt lat="42.797715" lon="12.234998"><ele>618.0</ele><time>2026-04-02T10:08:12.708Z</time></trkpt><trkpt lat="42.7977012" lon="12.2348925"><ele>618.0</ele><time>2026-04-02T10:08:13.706Z</time></trkpt><trkpt lat="42.7976849" lon="12.2347903"><ele>618.0</ele><time>2026-04-02T10:08:14.705Z</time></trkpt><trkpt lat="42.7976614" lon="12.2347027"><ele>618.0000000000001</ele><time>2026-04-02T10:08:15.705Z</time></trkpt><trkpt lat="42.7976269" lon="12.2346125"><ele>618.0</ele><time>2026-04-02T10:08:16.704Z</time></trkpt><trkpt lat="42.7975729" lon="12.2345165"><ele>622.4</ele><time>2026-04-02T10:08:17.703Z</time></trkpt><trkpt lat="42.7975284" lon="12.2344394"><ele>626.8</ele><time>2026-04-02T10:08:18.702Z</time></trkpt><trkpt lat="42.7974757" lon="12.2343658"><ele>631.2</ele><time>2026-04-02T10:08:19.701Z</time></trkpt><trkpt lat="42.7974396" lon="12.2342939"><ele>635.6</ele><time>2026-04-02T10:08:20.705Z</time></trkpt><trkpt lat="42.7974013" lon="12.2341681"><ele>640.0</ele><time>2026-04-02T10:08:22.711Z</time></trkpt><trkpt lat="42.7975016" lon="12.2340338"><ele>640.0</ele><time>2026-04-02T10:08:25.711Z</time></trkpt><trkpt lat="42.7975713" lon="12.2340346"><ele>640.0</ele><time>2026-04-02T10:08:26.704Z</time></trkpt><trkpt lat="42.7976459" lon="12.234031"><ele>640.0</ele><time>2026-04-02T10:08:27.705Z</time></trkpt><trkpt lat="42.7977285" lon="12.2340423"><ele>640.0</ele><time>2026-04-02T10:08:28.709Z</time></trkpt><trkpt lat="42.7978226" lon="12.2340447"><ele>640.0</ele><time>2026-04-02T10:08:29.706Z</time></trkpt><trkpt lat="42.7979032" lon="12.2340697"><ele>640.0</ele><time>2026-04-02T10:08:30.706Z</time></trkpt><trkpt lat="42.7979926" lon="12.2340765"><ele>639.0</ele><time>2026-04-02T10:08:31.702Z</time></trkpt><trkpt lat="42.7980982" lon="12.2340954"><ele>638.0</ele><time>2026-04-02T10:08:32.71Z</time></trkpt><trkpt lat="42.7982012" lon="12.2341126"><ele>637.0</ele><time>2026-04-02T10:08:33.706Z</time></trkpt><trkpt lat="42.7983089" lon="12.2341388"><ele>636.0</ele><time>2026-04-02T10:08:34.707Z</time></trkpt><trkpt lat="42.7984072" lon="12.2341932"><ele>635.0</ele><time>2026-04-02T10:08:35.708Z</time></trkpt><trkpt lat="42.7984892" lon="12.2342807"><ele>635.0</ele><time>2026-04-02T10:08:36.704Z</time></trkpt><trkpt lat="42.7985617" lon="12.2343635"><ele>635.0</ele><time>2026-04-02T10:08:37.705Z</time></trkpt><trkpt lat="42.7986351" lon="12.2343922"><ele>635.0</ele><time>2026-04-02T10:08:38.704Z</time></trkpt><trkpt lat="42.7987146" lon="12.2344083"><ele>635.0</ele><time>2026-04-02T10:08:39.703Z</time></trkpt><trkpt lat="42.7987828" lon="12.2343955"><ele>635.0</ele><time>2026-04-02T10:08:40.707Z</time></trkpt><trkpt lat="42.7988422" lon="12.2343595"><ele>635.0</ele><time>2026-04-02T10:08:41.706Z</time></trkpt><trkpt lat="42.7988946" lon="12.2342974"><ele>635.0</ele><time>2026-04-02T10:08:42.705Z</time></trkpt><trkpt lat="42.7989423" lon="12.2342165"><ele>635.0</ele><time>2026-04-02T10:08:43.707Z</time></trkpt><trkpt lat="42.7989865" lon="12.2341186"><ele>635.0</ele><time>2026-04-02T10:08:44.702Z</time></trkpt><trkpt lat="42.7990333" lon="12.2340351"><ele>635.0</ele><time>2026-04-02T10:08:45.709Z</time></trkpt><trkpt lat="42.7991069" lon="12.2339426"><ele>635.0</ele><time>2026-04-02T10:08:46.708Z</time></trkpt><trkpt lat="42.799176" lon="12.2338697"><ele>635.0</ele><time>2026-04-02T10:08:47.706Z</time></trkpt><trkpt lat="42.7992401" lon="12.2338195"><ele>636.8571428571428</ele><time>2026-04-02T10:08:48.709Z</time></trkpt><trkpt lat="42.7993172" lon="12.2337733"><ele>638.7142857142857</ele><time>2026-04-02T10:08:49.706Z</time></trkpt><trkpt lat="42.7993837" lon="12.2337417"><ele>640.5714285714286</ele><time>2026-04-02T10:08:50.711Z</time></trkpt><trkpt lat="42.7994665" lon="12.2337764"><ele>642.4285714285713</ele><time>2026-04-02T10:08:51.711Z</time></trkpt><trkpt lat="42.7995296" lon="12.2338227"><ele>644.2857142857142</ele><time>2026-04-02T10:08:52.707Z</time></trkpt><trkpt lat="42.799546" lon="12.2339153"><ele>646.1428571428571</ele><time>2026-04-02T10:08:53.707Z</time></trkpt><trkpt lat="42.7995824" lon="12.2339874"><ele>648.0</ele><time>2026-04-02T10:08:54.709Z</time></trkpt><trkpt lat="42.7996209" lon="12.2340901"><ele>648.0</ele><time>2026-04-02T10:08:55.708Z</time></trkpt><trkpt lat="42.7996512" lon="12.2341945"><ele>648.0</ele><time>2026-04-02T10:08:56.711Z</time></trkpt><trkpt lat="42.799692" lon="12.2342916"><ele>648.0</ele><time>2026-04-02T10:08:57.71Z</time></trkpt><trkpt lat="42.7997187" lon="12.234395"><ele>648.0</ele><time>2026-04-02T10:08:58.707Z</time></trkpt><trkpt lat="42.7997456" lon="12.2345002"><ele>648.0</ele><time>2026-04-02T10:08:59.714Z</time></trkpt><trkpt lat="42.7997787" lon="12.2345977"><ele>648.0</ele><time>2026-04-02T10:09:00.716Z</time></trkpt><trkpt lat="42.7998216" lon="12.2346884"><ele>648.0</ele><time>2026-04-02T10:09:01.706Z</time></trkpt><trkpt lat="42.7998839" lon="12.2347629"><ele>648.0</ele><time>2026-04-02T10:09:02.706Z</time></trkpt><trkpt lat="42.7999563" lon="12.2348303"><ele>648.0</ele><time>2026-04-02T10:09:03.709Z</time></trkpt><trkpt lat="42.8000332" lon="12.23487"><ele>648.0</ele><time>2026-04-02T10:09:04.707Z</time></trkpt><trkpt lat="42.8001042" lon="12.2349026"><ele>648.0</ele><time>2026-04-02T10:09:05.709Z</time></trkpt><trkpt lat="42.8001724" lon="12.2349191"><ele>648.0</ele><time>2026-04-02T10:09:06.703Z</time></trkpt><trkpt lat="42.8002552" lon="12.2349318"><ele>649.5</ele><time>2026-04-02T10:09:07.72Z</time></trkpt><trkpt lat="42.8003381" lon="12.2349172"><ele>651.0</ele><time>2026-04-02T10:09:08.705Z</time></trkpt><trkpt lat="42.8004209" lon="12.2349057"><ele>652.5</ele><time>2026-04-02T10:09:09.71Z</time></trkpt><trkpt lat="42.8005071" lon="12.2348889"><ele>654.0</ele><time>2026-04-02T10:09:10.706Z</time></trkpt><trkpt lat="42.800584" lon="12.2348626"><ele>655.5</ele><time>2026-04-02T10:09:11.708Z</time></trkpt><trkpt lat="42.8006471" lon="12.23482"><ele>657.0</ele><time>2026-04-02T10:09:12.706Z</time></trkpt><trkpt lat="42.8006984" lon="12.234752"><ele>657.0</ele><time>2026-04-02T10:09:13.707Z</time></trkpt><trkpt lat="42.8007507" lon="12.2346663"><ele>657.0</ele><time>2026-04-02T10:09:14.708Z</time></trkpt><trkpt lat="42.8008019" lon="12.2345796"><ele>657.0</ele><time>2026-04-02T10:09:15.709Z</time></trkpt><trkpt lat="42.80087" lon="12.2345009"><ele>657.0</ele><time>2026-04-02T10:09:16.704Z</time></trkpt><trkpt lat="42.8009407" lon="12.2344505"><ele>657.0</ele><time>2026-04-02T10:09:17.704Z</time></trkpt><trkpt lat="42.8010274" lon="12.2343898"><ele>657.0</ele><time>2026-04-02T10:09:18.71Z</time></trkpt><trkpt lat="42.801125" lon="12.23435"><ele>655.1666666666666</ele><time>2026-04-02T10:09:19.709Z</time></trkpt><trkpt lat="42.8012246" lon="12.2343162"><ele>653.3333333333334</ele><time>2026-04-02T10:09:20.713Z</time></trkpt><trkpt lat="42.8013137" lon="12.2342963"><ele>651.5</ele><time>2026-04-02T10:09:21.703Z</time></trkpt><trkpt lat="42.801402" lon="12.2342344"><ele>649.6666666666667</ele><time>2026-04-02T10:09:22.708Z</time></trkpt><trkpt lat="42.8014689" lon="12.2341883"><ele>647.8333333333334</ele><time>2026-04-02T10:09:23.702Z</time></trkpt><trkpt lat="42.801532" lon="12.2341192"><ele>646.0</ele><time>2026-04-02T10:09:24.708Z</time></trkpt><trkpt lat="42.8015865" lon="12.2340411"><ele>650.5</ele><time>2026-04-02T10:09:25.709Z</time></trkpt><trkpt lat="42.8016402" lon="12.2339617"><ele>655.0</ele><time>2026-04-02T10:09:26.709Z</time></trkpt><trkpt lat="42.8016983" lon="12.23389"><ele>659.5</ele><time>2026-04-02T10:09:27.705Z</time></trkpt><trkpt lat="42.8017705" lon="12.2338234"><ele>664.0</ele><time>2026-04-02T10:09:28.707Z</time></trkpt><trkpt lat="42.8018473" lon="12.2337919"><ele>668.5</ele><time>2026-04-02T10:09:29.707Z</time></trkpt><trkpt lat="42.8019408" lon="12.2337816"><ele>673.0</ele><time>2026-04-02T10:09:30.706Z</time></trkpt><trkpt lat="42.8020055" lon="12.2338325"><ele>673.8333333333334</ele><time>2026-04-02T10:09:31.704Z</time></trkpt><trkpt lat="42.8020718" lon="12.2338896"><ele>674.6666666666667</ele><time>2026-04-02T10:09:32.709Z</time></trkpt><trkpt lat="42.802135" lon="12.2339597"><ele>675.5</ele><time>2026-04-02T10:09:33.707Z</time></trkpt><trkpt lat="42.8021766" lon="12.2340447"><ele>676.3333333333334</ele><time>2026-04-02T10:09:34.705Z</time></trkpt><trkpt lat="42.8022048" lon="12.2341435"><ele>677.1666666666666</ele><time>2026-04-02T10:09:35.708Z</time></trkpt><trkpt lat="42.8022176" lon="12.234265"><ele>678.0</ele><time>2026-04-02T10:09:36.706Z</time></trkpt><trkpt lat="42.8022077" lon="12.2343862"><ele>674.5999999999999</ele><time>2026-04-02T10:09:37.708Z</time></trkpt><trkpt lat="42.8021968" lon="12.2345089"><ele>671.1999999999999</ele><time>2026-04-02T10:09:38.707Z</time></trkpt><trkpt lat="42.802182" lon="12.2346203"><ele>667.8</ele><time>2026-04-02T10:09:39.703Z</time></trkpt><trkpt lat="42.8021753" lon="12.2347103"><ele>664.4</ele><time>2026-04-02T10:09:40.705Z</time></trkpt><trkpt lat="42.8021744" lon="12.2348655"><ele>661.0</ele><time>2026-04-02T10:09:42.704Z</time></trkpt><trkpt lat="42.8022082" lon="12.2350043"><ele>660.0</ele><time>2026-04-02T10:09:44.703Z</time></trkpt><trkpt lat="42.8022584" lon="12.2351322"><ele>659.0</ele><time>2026-04-02T10:09:46.709Z</time></trkpt><trkpt lat="42.802345" lon="12.235251"><ele>658.0</ele><time>2026-04-02T10:09:48.703Z</time></trkpt><trkpt lat="42.8024021" lon="12.2353009"><ele>657.0</ele><time>2026-04-02T10:09:49.706Z</time></trkpt><trkpt lat="42.8024568" lon="12.2353539"><ele>656.0</ele><time>2026-04-02T10:09:50.703Z</time></trkpt><trkpt lat="42.8025137" lon="12.2354007"><ele>655.0</ele><time>2026-04-02T10:09:51.704Z</time></trkpt><trkpt lat="42.8025772" lon="12.2354368"><ele>655.0</ele><time>2026-04-02T10:09:52.708Z</time></trkpt><trkpt lat="42.8026404" lon="12.2354653"><ele>655.0</ele><time>2026-04-02T10:09:53.712Z</time></trkpt><trkpt lat="42.8027131" lon="12.2354898"><ele>655.0</ele><time>2026-04-02T10:09:54.703Z</time></trkpt><trkpt lat="42.802788" lon="12.2355305"><ele>655.0</ele><time>2026-04-02T10:09:55.708Z</time></trkpt><trkpt lat="42.8028705" lon="12.2355821"><ele>655.0</ele><time>2026-04-02T10:09:56.701Z</time></trkpt><trkpt lat="42.8029592" lon="12.2356244"><ele>655.0</ele><time>2026-04-02T10:09:57.711Z</time></trkpt><trkpt lat="42.8030456" lon="12.2356671"><ele>656.6666666666667</ele><time>2026-04-02T10:09:58.713Z</time></trkpt><trkpt lat="42.8031257" lon="12.2357145"><ele>658.3333333333334</ele><time>2026-04-02T10:09:59.706Z</time></trkpt><trkpt lat="42.8032043" lon="12.2357737"><ele>660.0</ele><time>2026-04-02T10:10:00.708Z</time></trkpt><trkpt lat="42.8032814" lon="12.2358344"><ele>661.6666666666666</ele><time>2026-04-02T10:10:01.704Z</time></trkpt><trkpt lat="42.8033616" lon="12.2358927"><ele>663.3333333333333</ele><time>2026-04-02T10:10:02.713Z</time></trkpt><trkpt lat="42.8034324" lon="12.2359475"><ele>665.0</ele><time>2026-04-02T10:10:03.71Z</time></trkpt><trkpt lat="42.8035043" lon="12.2359953"><ele>665.6</ele><time>2026-04-02T10:10:04.702Z</time></trkpt><trkpt lat="42.8035719" lon="12.2360366"><ele>666.2</ele><time>2026-04-02T10:10:05.708Z</time></trkpt><trkpt lat="42.8036884" lon="12.2360645"><ele>666.8</ele><time>2026-04-02T10:10:07.71Z</time></trkpt><trkpt lat="42.8037817" lon="12.2359885"><ele>667.4</ele><time>2026-04-02T10:10:09.707Z</time></trkpt><trkpt lat="42.8037994" lon="12.2358317"><ele>668.0</ele><time>2026-04-02T10:10:11.703Z</time></trkpt><trkpt lat="42.8038034" lon="12.2357359"><ele>669.3333333333333</ele><time>2026-04-02T10:10:12.706Z</time></trkpt><trkpt lat="42.8038064" lon="12.2356331"><ele>670.6666666666666</ele><time>2026-04-02T10:10:13.708Z</time></trkpt><trkpt lat="42.8038037" lon="12.2355386"><ele>672.0</ele><time>2026-04-02T10:10:14.712Z</time></trkpt><trkpt lat="42.803802" lon="12.2354375"><ele>673.3333333333334</ele><time>2026-04-02T10:10:15.703Z</time></trkpt><trkpt lat="42.8037964" lon="12.2353351"><ele>674.6666666666667</ele><time>2026-04-02T10:10:16.707Z</time></trkpt><trkpt lat="42.8037776" lon="12.2352308"><ele>676.0</ele><time>2026-04-02T10:10:17.706Z</time></trkpt><trkpt lat="42.80374" lon="12.2351177"><ele>676.0</ele><time>2026-04-02T10:10:18.714Z</time></trkpt><trkpt lat="42.8037018" lon="12.2350113"><ele>676.0</ele><time>2026-04-02T10:10:19.701Z</time></trkpt><trkpt lat="42.8036598" lon="12.2349007"><ele>676.0</ele><time>2026-04-02T10:10:20.705Z</time></trkpt><trkpt lat="42.8036165" lon="12.234788"><ele>676.0</ele><time>2026-04-02T10:10:21.707Z</time></trkpt><trkpt lat="42.8035744" lon="12.2346679"><ele>676.0</ele><time>2026-04-02T10:10:22.708Z</time></trkpt><trkpt lat="42.8035317" lon="12.2345521"><ele>676.8333333333334</ele><time>2026-04-02T10:10:23.709Z</time></trkpt><trkpt lat="42.803491" lon="12.2344508"><ele>677.6666666666667</ele><time>2026-04-02T10:10:24.706Z</time></trkpt><trkpt lat="42.8034708" lon="12.2343511"><ele>678.5</ele><time>2026-04-02T10:10:25.704Z</time></trkpt><trkpt lat="42.8034555" lon="12.2342512"><ele>679.3333333333334</ele><time>2026-04-02T10:10:26.704Z</time></trkpt><trkpt lat="42.8034509" lon="12.2341495"><ele>680.1666666666666</ele><time>2026-04-02T10:10:27.705Z</time></trkpt><trkpt lat="42.8034558" lon="12.2340378"><ele>681.0</ele><time>2026-04-02T10:10:28.705Z</time></trkpt><trkpt lat="42.8034735" lon="12.2339335"><ele>682.6666666666666</ele><time>2026-04-02T10:10:29.704Z</time></trkpt><trkpt lat="42.8034949" lon="12.2338242"><ele>684.3333333333334</ele><time>2026-04-02T10:10:30.706Z</time></trkpt><trkpt lat="42.8035185" lon="12.2337094"><ele>686.0</ele><time>2026-04-02T10:10:31.709Z</time></trkpt><trkpt lat="42.8035356" lon="12.2336083"><ele>687.6666666666667</ele><time>2026-04-02T10:10:32.708Z</time></trkpt><trkpt lat="42.8035593" lon="12.2334899"><ele>689.3333333333334</ele><time>2026-04-02T10:10:33.708Z</time></trkpt><trkpt lat="42.8035875" lon="12.2333654"><ele>691.0</ele><time>2026-04-02T10:10:34.709Z</time></trkpt><trkpt lat="42.8036243" lon="12.2332511"><ele>692.6666666666667</ele><time>2026-04-02T10:10:35.705Z</time></trkpt><trkpt lat="42.8036586" lon="12.2331348"><ele>694.3333333333334</ele><time>2026-04-02T10:10:36.706Z</time></trkpt><trkpt lat="42.803706" lon="12.2330337"><ele>696.0</ele><time>2026-04-02T10:10:37.708Z</time></trkpt><trkpt lat="42.8037542" lon="12.2329345"><ele>697.6666666666666</ele><time>2026-04-02T10:10:38.707Z</time></trkpt><trkpt lat="42.803803" lon="12.2328376"><ele>699.3333333333333</ele><time>2026-04-02T10:10:39.71Z</time></trkpt><trkpt lat="42.8038439" lon="12.2327367"><ele>701.0</ele><time>2026-04-02T10:10:40.707Z</time></trkpt><trkpt lat="42.8038878" lon="12.2326224"><ele>701.0</ele><time>2026-04-02T10:10:41.705Z</time></trkpt><trkpt lat="42.8039334" lon="12.2325108"><ele>701.0</ele><time>2026-04-02T10:10:42.704Z</time></trkpt><trkpt lat="42.8039563" lon="12.232425"><ele>701.0</ele><time>2026-04-02T10:10:43.704Z</time></trkpt><trkpt lat="42.8039886" lon="12.2323124"><ele>701.0</ele><time>2026-04-02T10:10:44.706Z</time></trkpt><trkpt lat="42.8040182" lon="12.2321916"><ele>701.0</ele><time>2026-04-02T10:10:45.713Z</time></trkpt><trkpt lat="42.8040545" lon="12.2320798"><ele>701.0</ele><time>2026-04-02T10:10:46.705Z</time></trkpt><trkpt lat="42.8040703" lon="12.2319335"><ele>701.5</ele><time>2026-04-02T10:10:47.708Z</time></trkpt><trkpt lat="42.8040779" lon="12.2318091"><ele>702.0</ele><time>2026-04-02T10:10:48.708Z</time></trkpt><trkpt lat="42.8040954" lon="12.2317234"><ele>702.5</ele><time>2026-04-02T10:10:49.707Z</time></trkpt><trkpt lat="42.8040749" lon="12.2316333"><ele>703.0</ele><time>2026-04-02T10:10:50.707Z</time></trkpt><trkpt lat="42.8040566" lon="12.2315236"><ele>703.5</ele><time>2026-04-02T10:10:51.704Z</time></trkpt><trkpt lat="42.8040257" lon="12.2314338"><ele>704.0</ele><time>2026-04-02T10:10:52.707Z</time></trkpt><trkpt lat="42.8039851" lon="12.2313414"><ele>702.4000000000001</ele><time>2026-04-02T10:10:53.701Z</time></trkpt><trkpt lat="42.8039296" lon="12.2312408"><ele>700.8</ele><time>2026-04-02T10:10:54.707Z</time></trkpt><trkpt lat="42.8038799" lon="12.2311451"><ele>699.2</ele><time>2026-04-02T10:10:55.71Z</time></trkpt><trkpt lat="42.8038203" lon="12.2310502"><ele>697.5999999999999</ele><time>2026-04-02T10:10:56.706Z</time></trkpt><trkpt lat="42.8037606" lon="12.2309592"><ele>696.0</ele><time>2026-04-02T10:10:57.709Z</time></trkpt><trkpt lat="42.8036935" lon="12.2308684"><ele>696.0</ele><time>2026-04-02T10:10:58.707Z</time></trkpt><trkpt lat="42.8036233" lon="12.2307723"><ele>696.0</ele><time>2026-04-02T10:10:59.709Z</time></trkpt><trkpt lat="42.803549" lon="12.2306768"><ele>696.0</ele><time>2026-04-02T10:11:00.71Z</time></trkpt><trkpt lat="42.8034814" lon="12.2305805"><ele>696.0</ele><time>2026-04-02T10:11:01.706Z</time></trkpt><trkpt lat="42.8034171" lon="12.2304829"><ele>696.0</ele><time>2026-04-02T10:11:02.707Z</time></trkpt><trkpt lat="42.8033598" lon="12.230372"><ele>701.1999999999999</ele><time>2026-04-02T10:11:03.708Z</time></trkpt><trkpt lat="42.8033055" lon="12.2302622"><ele>706.4</ele><time>2026-04-02T10:11:04.707Z</time></trkpt><trkpt lat="42.8032488" lon="12.2301577"><ele>711.6</ele><time>2026-04-02T10:11:05.705Z</time></trkpt><trkpt lat="42.8031954" lon="12.2300665"><ele>716.8</ele><time>2026-04-02T10:11:06.706Z</time></trkpt><trkpt lat="42.8031443" lon="12.2299718"><ele>722.0</ele><time>2026-04-02T10:11:07.707Z</time></trkpt><trkpt lat="42.8030842" lon="12.2298813"><ele>723.6</ele><time>2026-04-02T10:11:08.709Z</time></trkpt><trkpt lat="42.8030252" lon="12.229791"><ele>725.2</ele><time>2026-04-02T10:11:09.704Z</time></trkpt><trkpt lat="42.8029587" lon="12.2297067"><ele>726.8</ele><time>2026-04-02T10:11:10.705Z</time></trkpt><trkpt lat="42.8028918" lon="12.2296268"><ele>728.4</ele><time>2026-04-02T10:11:11.707Z</time></trkpt><trkpt lat="42.8028198" lon="12.2295465"><ele>730.0</ele><time>2026-04-02T10:11:12.707Z</time></trkpt><trkpt lat="42.8027535" lon="12.229465"><ele>730.0</ele><time>2026-04-02T10:11:13.709Z</time></trkpt><trkpt lat="42.8026935" lon="12.2293791"><ele>730.0</ele><time>2026-04-02T10:11:14.702Z</time></trkpt><trkpt lat="42.8026352" lon="12.2292953"><ele>730.0</ele><time>2026-04-02T10:11:15.709Z</time></trkpt><trkpt lat="42.8025839" lon="12.2292049"><ele>730.0</ele><time>2026-04-02T10:11:16.708Z</time></trkpt><trkpt lat="42.8025363" lon="12.2291025"><ele>730.0</ele><time>2026-04-02T10:11:17.706Z</time></trkpt><trkpt lat="42.8025031" lon="12.2290001"><ele>730.0</ele><time>2026-04-02T10:11:18.702Z</time></trkpt><trkpt lat="42.8024665" lon="12.2287138"><ele>732.5</ele><time>2026-04-02T10:11:21.707Z</time></trkpt><trkpt lat="42.802486" lon="12.228626"><ele>735.0</ele><time>2026-04-02T10:11:22.706Z</time></trkpt><trkpt lat="42.8025843" lon="12.2285081"><ele>737.5</ele><time>2026-04-02T10:11:24.702Z</time></trkpt><trkpt lat="42.8026452" lon="12.2284752"><ele>740.0</ele><time>2026-04-02T10:11:25.705Z</time></trkpt><trkpt lat="42.802713" lon="12.2284529"><ele>742.5</ele><time>2026-04-02T10:11:26.714Z</time></trkpt><trkpt lat="42.8027865" lon="12.2284246"><ele>745.0</ele><time>2026-04-02T10:11:27.704Z</time></trkpt><trkpt lat="42.8028664" lon="12.2283793"><ele>745.0</ele><time>2026-04-02T10:11:28.703Z</time></trkpt><trkpt lat="42.8029525" lon="12.2283292"><ele>745.0</ele><time>2026-04-02T10:11:29.705Z</time></trkpt><trkpt lat="42.8030416" lon="12.2282865"><ele>745.0</ele><time>2026-04-02T10:11:30.706Z</time></trkpt><trkpt lat="42.8031386" lon="12.2282508"><ele>745.0</ele><time>2026-04-02T10:11:31.706Z</time></trkpt><trkpt lat="42.803231" lon="12.228219"><ele>745.0</ele><time>2026-04-02T10:11:32.707Z</time></trkpt><trkpt lat="42.8033292" lon="12.2281798"><ele>745.0</ele><time>2026-04-02T10:11:33.704Z</time></trkpt><trkpt lat="42.8034272" lon="12.2281451"><ele>745.0</ele><time>2026-04-02T10:11:34.703Z</time></trkpt><trkpt lat="42.8035231" lon="12.2281128"><ele>745.0</ele><time>2026-04-02T10:11:35.708Z</time></trkpt><trkpt lat="42.8036212" lon="12.2280674"><ele>745.0</ele><time>2026-04-02T10:11:36.712Z</time></trkpt><trkpt lat="42.8037128" lon="12.2280272"><ele>745.0</ele><time>2026-04-02T10:11:37.706Z</time></trkpt><trkpt lat="42.8037877" lon="12.2279731"><ele>745.1666666666667</ele><time>2026-04-02T10:11:38.706Z</time></trkpt><trkpt lat="42.8038448" lon="12.2279189"><ele>745.3333333333334</ele><time>2026-04-02T10:11:39.705Z</time></trkpt><trkpt lat="42.8038971" lon="12.2278475"><ele>745.5</ele><time>2026-04-02T10:11:40.707Z</time></trkpt><trkpt lat="42.8039348" lon="12.2277704"><ele>745.6666666666666</ele><time>2026-04-02T10:11:41.709Z</time></trkpt><trkpt lat="42.8039608" lon="12.227674"><ele>745.8333333333333</ele><time>2026-04-02T10:11:42.707Z</time></trkpt><trkpt lat="42.803965" lon="12.2275605"><ele>746.0</ele><time>2026-04-02T10:11:43.708Z</time></trkpt><trkpt lat="42.8039653" lon="12.2274342"><ele>747.0</ele><time>2026-04-02T10:11:44.705Z</time></trkpt><trkpt lat="42.803963" lon="12.2273037"><ele>748.0</ele><time>2026-04-02T10:11:45.701Z</time></trkpt><trkpt lat="42.8039538" lon="12.2271655"><ele>749.0</ele><time>2026-04-02T10:11:46.706Z</time></trkpt><trkpt lat="42.8039383" lon="12.2270311"><ele>750.0</ele><time>2026-04-02T10:11:47.705Z</time></trkpt><trkpt lat="42.8039103" lon="12.2268924"><ele>751.0</ele><time>2026-04-02T10:11:48.703Z</time></trkpt><trkpt lat="42.803876" lon="12.2267568"><ele>751.0</ele><time>2026-04-02T10:11:49.705Z</time></trkpt><trkpt lat="42.8038321" lon="12.2266195"><ele>751.0</ele><time>2026-04-02T10:11:50.704Z</time></trkpt><trkpt lat="42.8037838" lon="12.2264972"><ele>751.0</ele><time>2026-04-02T10:11:51.707Z</time></trkpt><trkpt lat="42.8037296" lon="12.2263782"><ele>751.0</ele><time>2026-04-02T10:11:52.702Z</time></trkpt><trkpt lat="42.8036836" lon="12.2262646"><ele>751.0</ele><time>2026-04-02T10:11:53.711Z</time></trkpt><trkpt lat="42.8036479" lon="12.2261373"><ele>751.0</ele><time>2026-04-02T10:11:54.715Z</time></trkpt><trkpt lat="42.8036221" lon="12.2259919"><ele>751.0</ele><time>2026-04-02T10:11:55.706Z</time></trkpt><trkpt lat="42.8036139" lon="12.2258198"><ele>751.0</ele><time>2026-04-02T10:11:56.706Z</time></trkpt><trkpt lat="42.8036135" lon="12.2256444"><ele>751.0</ele><time>2026-04-02T10:11:57.706Z</time></trkpt><trkpt lat="42.8036147" lon="12.2254775"><ele>751.0</ele><time>2026-04-02T10:11:58.71Z</time></trkpt><trkpt lat="42.8036289" lon="12.2253301"><ele>751.0</ele><time>2026-04-02T10:11:59.706Z</time></trkpt><trkpt lat="42.8036524" lon="12.2252026"><ele>751.0</ele><time>2026-04-02T10:12:00.705Z</time></trkpt><trkpt lat="42.8036899" lon="12.2250987"><ele>751.0</ele><time>2026-04-02T10:12:01.703Z</time></trkpt><trkpt lat="42.8037297" lon="12.2250056"><ele>751.0</ele><time>2026-04-02T10:12:02.708Z</time></trkpt><trkpt lat="42.803789" lon="12.2249056"><ele>751.0</ele><time>2026-04-02T10:12:03.708Z</time></trkpt><trkpt lat="42.8038658" lon="12.2248198"><ele>751.0</ele><time>2026-04-02T10:12:04.703Z</time></trkpt><trkpt lat="42.8039565" lon="12.2247312"><ele>751.0</ele><time>2026-04-02T10:12:05.708Z</time></trkpt><trkpt lat="42.8040567" lon="12.224648"><ele>751.0</ele><time>2026-04-02T10:12:06.705Z</time></trkpt><trkpt lat="42.8041629" lon="12.2245741"><ele>751.0</ele><time>2026-04-02T10:12:07.708Z</time></trkpt><trkpt lat="42.804271" lon="12.22451"><ele>750.0</ele><time>2026-04-02T10:12:08.702Z</time></trkpt><trkpt lat="42.8043815" lon="12.2244522"><ele>749.0</ele><time>2026-04-02T10:12:09.708Z</time></trkpt><trkpt lat="42.8044951" lon="12.2244094"><ele>748.0</ele><time>2026-04-02T10:12:10.705Z</time></trkpt><trkpt lat="42.8046109" lon="12.2243857"><ele>747.0</ele><time>2026-04-02T10:12:11.707Z</time></trkpt><trkpt lat="42.8047189" lon="12.2243779"><ele>747.0</ele><time>2026-04-02T10:12:12.711Z</time></trkpt><trkpt lat="42.8048179" lon="12.2243782"><ele>747.0</ele><time>2026-04-02T10:12:13.707Z</time></trkpt><trkpt lat="42.8049094" lon="12.2243652"><ele>747.0</ele><time>2026-04-02T10:12:14.706Z</time></trkpt><trkpt lat="42.8049912" lon="12.2243272"><ele>747.0</ele><time>2026-04-02T10:12:15.707Z</time></trkpt><trkpt lat="42.8050657" lon="12.2242593"><ele>747.0</ele><time>2026-04-02T10:12:16.705Z</time></trkpt><trkpt lat="42.805126" lon="12.2241652"><ele>746.6</ele><time>2026-04-02T10:12:17.706Z</time></trkpt><trkpt lat="42.8051734" lon="12.2240523"><ele>746.2</ele><time>2026-04-02T10:12:18.705Z</time></trkpt><trkpt lat="42.8052093" lon="12.2239148"><ele>745.8</ele><time>2026-04-02T10:12:19.701Z</time></trkpt><trkpt lat="42.8052461" lon="12.2237653"><ele>745.4</ele><time>2026-04-02T10:12:20.713Z</time></trkpt><trkpt lat="42.8052657" lon="12.2236243"><ele>745.0</ele><time>2026-04-02T10:12:21.706Z</time></trkpt><trkpt lat="42.8052917" lon="12.2234946"><ele>744.8</ele><time>2026-04-02T10:12:22.706Z</time></trkpt><trkpt lat="42.8053214" lon="12.2233685"><ele>744.6</ele><time>2026-04-02T10:12:23.707Z</time></trkpt><trkpt lat="42.8053576" lon="12.22325"><ele>744.4000000000001</ele><time>2026-04-02T10:12:24.707Z</time></trkpt><trkpt lat="42.8054075" lon="12.2231431"><ele>744.2</ele><time>2026-04-02T10:12:25.703Z</time></trkpt><trkpt lat="42.8054556" lon="12.2230379"><ele>744.0</ele><time>2026-04-02T10:12:26.706Z</time></trkpt><trkpt lat="42.8055104" lon="12.2229279"><ele>741.8333333333334</ele><time>2026-04-02T10:12:27.713Z</time></trkpt><trkpt lat="42.8055648" lon="12.2228259"><ele>739.6666666666666</ele><time>2026-04-02T10:12:28.705Z</time></trkpt><trkpt lat="42.8056217" lon="12.2227273"><ele>737.5</ele><time>2026-04-02T10:12:29.714Z</time></trkpt><trkpt lat="42.8056767" lon="12.2226332"><ele>735.3333333333333</ele><time>2026-04-02T10:12:30.707Z</time></trkpt><trkpt lat="42.805734" lon="12.2225458"><ele>733.1666666666666</ele><time>2026-04-02T10:12:31.707Z</time></trkpt><trkpt lat="42.80579" lon="12.2224647"><ele>731.0</ele><time>2026-04-02T10:12:32.705Z</time></trkpt><trkpt lat="42.8058446" lon="12.2223879"><ele>728.6666666666666</ele><time>2026-04-02T10:12:33.706Z</time></trkpt><trkpt lat="42.8059061" lon="12.2223124"><ele>726.3333333333333</ele><time>2026-04-02T10:12:34.705Z</time></trkpt><trkpt lat="42.8059666" lon="12.2222337"><ele>724.0</ele><time>2026-04-02T10:12:35.714Z</time></trkpt><trkpt lat="42.8060328" lon="12.2221718"><ele>721.6666666666666</ele><time>2026-04-02T10:12:36.712Z</time></trkpt><trkpt lat="42.8061036" lon="12.2221131"><ele>719.3333333333334</ele><time>2026-04-02T10:12:37.704Z</time></trkpt><trkpt lat="42.8061827" lon="12.2220615"><ele>717.0</ele><time>2026-04-02T10:12:38.706Z</time></trkpt><trkpt lat="42.8062683" lon="12.2220176"><ele>717.0</ele><time>2026-04-02T10:12:39.709Z</time></trkpt><trkpt lat="42.8063467" lon="12.22198"><ele>717.0</ele><time>2026-04-02T10:12:40.707Z</time></trkpt><trkpt lat="42.8064271" lon="12.2219393"><ele>717.0</ele><time>2026-04-02T10:12:41.711Z</time></trkpt><trkpt lat="42.8065126" lon="12.2219035"><ele>717.0</ele><time>2026-04-02T10:12:42.706Z</time></trkpt><trkpt lat="42.806592" lon="12.2218848"><ele>717.0</ele><time>2026-04-02T10:12:43.708Z</time></trkpt><trkpt lat="42.8066762" lon="12.2218779"><ele>717.0</ele><time>2026-04-02T10:12:44.713Z</time></trkpt><trkpt lat="42.8067613" lon="12.2218746"><ele>716.1428571428571</ele><time>2026-04-02T10:12:45.71Z</time></trkpt><trkpt lat="42.8068421" lon="12.221875"><ele>715.2857142857142</ele><time>2026-04-02T10:12:46.708Z</time></trkpt><trkpt lat="42.8069197" lon="12.2218761"><ele>714.4285714285714</ele><time>2026-04-02T10:12:47.708Z</time></trkpt><trkpt lat="42.8069828" lon="12.2218735"><ele>713.5714285714286</ele><time>2026-04-02T10:12:48.704Z</time></trkpt><trkpt lat="42.8070694" lon="12.2218457"><ele>712.7142857142857</ele><time>2026-04-02T10:12:50.71Z</time></trkpt><trkpt lat="42.8070917" lon="12.2217567"><ele>711.8571428571429</ele><time>2026-04-02T10:12:52.704Z</time></trkpt><trkpt lat="42.8070461" lon="12.2216873"><ele>711.0</ele><time>2026-04-02T10:12:54.704Z</time></trkpt><trkpt lat="42.8069507" lon="12.2216268"><ele>711.0</ele><time>2026-04-02T10:12:56.705Z</time></trkpt><trkpt lat="42.8068927" lon="12.2215918"><ele>711.0</ele><time>2026-04-02T10:12:57.709Z</time></trkpt><trkpt lat="42.8068265" lon="12.221545"><ele>711.0</ele><time>2026-04-02T10:12:58.708Z</time></trkpt><trkpt lat="42.8067483" lon="12.2214938"><ele>711.0</ele><time>2026-04-02T10:12:59.707Z</time></trkpt><trkpt lat="42.8066794" lon="12.2214242"><ele>711.0</ele><time>2026-04-02T10:13:00.707Z</time></trkpt><trkpt lat="42.8066086" lon="12.221365"><ele>711.0</ele><time>2026-04-02T10:13:01.711Z</time></trkpt><trkpt lat="42.8065383" lon="12.2213016"><ele>709.0</ele><time>2026-04-02T10:13:02.707Z</time></trkpt><trkpt lat="42.8064699" lon="12.221237"><ele>707.0</ele><time>2026-04-02T10:13:03.71Z</time></trkpt><trkpt lat="42.8064086" lon="12.2211752"><ele>705.0</ele><time>2026-04-02T10:13:04.71Z</time></trkpt><trkpt lat="42.8063413" lon="12.2211192"><ele>703.0</ele><time>2026-04-02T10:13:05.703Z</time></trkpt><trkpt lat="42.8062862" lon="12.2210643"><ele>701.0</ele><time>2026-04-02T10:13:06.706Z</time></trkpt><trkpt lat="42.8062274" lon="12.2210311"><ele>699.0</ele><time>2026-04-02T10:13:07.706Z</time></trkpt><trkpt lat="42.8061102" lon="12.221006"><ele>699.0</ele><time>2026-04-02T10:13:09.705Z</time></trkpt><trkpt lat="42.8060102" lon="12.2209781"><ele>699.0</ele><time>2026-04-02T10:13:11.708Z</time></trkpt><trkpt lat="42.8059841" lon="12.2208465"><ele>699.0</ele><time>2026-04-02T10:13:13.707Z</time></trkpt><trkpt lat="42.8059823" lon="12.220672"><ele>699.0</ele><time>2026-04-02T10:13:15.711Z</time></trkpt><trkpt lat="42.8059811" lon="12.2205704"><ele>699.0</ele><time>2026-04-02T10:13:16.709Z</time></trkpt><trkpt lat="42.8059641" lon="12.2204692"><ele>698.2</ele><time>2026-04-02T10:13:17.705Z</time></trkpt><trkpt lat="42.8059355" lon="12.2203789"><ele>697.4000000000001</ele><time>2026-04-02T10:13:18.706Z</time></trkpt><trkpt lat="42.805882" lon="12.2202729"><ele>696.6</ele><time>2026-04-02T10:13:19.708Z</time></trkpt><trkpt lat="42.8057975" lon="12.2201765"><ele>695.8</ele><time>2026-04-02T10:13:20.711Z</time></trkpt><trkpt lat="42.8057138" lon="12.2200986"><ele>695.0</ele><time>2026-04-02T10:13:21.706Z</time></trkpt><trkpt lat="42.805617" lon="12.2200173"><ele>695.0</ele><time>2026-04-02T10:13:22.714Z</time></trkpt><trkpt lat="42.8055378" lon="12.2199225"><ele>695.0</ele><time>2026-04-02T10:13:23.706Z</time></trkpt><trkpt lat="42.8054217" lon="12.2198287"><ele>695.0</ele><time>2026-04-02T10:13:24.709Z</time></trkpt><trkpt lat="42.8052961" lon="12.2197414"><ele>695.0</ele><time>2026-04-02T10:13:25.709Z</time></trkpt><trkpt lat="42.8051552" lon="12.2196494"><ele>697.75</ele><time>2026-04-02T10:13:26.706Z</time></trkpt><trkpt lat="42.8050211" lon="12.2195541"><ele>700.5</ele><time>2026-04-02T10:13:27.709Z</time></trkpt><trkpt lat="42.8048693" lon="12.2194775"><ele>703.25</ele><time>2026-04-02T10:13:28.714Z</time></trkpt><trkpt lat="42.8047575" lon="12.2194075"><ele>706.0</ele><time>2026-04-02T10:13:29.71Z</time></trkpt><trkpt lat="42.8046389" lon="12.2193476"><ele>706.0</ele><time>2026-04-02T10:13:30.704Z</time></trkpt><trkpt lat="42.8045342" lon="12.2192759"><ele>706.0</ele><time>2026-04-02T10:13:31.707Z</time></trkpt><trkpt lat="42.8044183" lon="12.2191843"><ele>706.0</ele><time>2026-04-02T10:13:32.707Z</time></trkpt><trkpt lat="42.8043175" lon="12.2190978"><ele>706.0</ele><time>2026-04-02T10:13:33.704Z</time></trkpt><trkpt lat="42.8042366" lon="12.2190275"><ele>708.8</ele><time>2026-04-02T10:13:34.712Z</time></trkpt><trkpt lat="42.8041642" lon="12.2189707"><ele>711.5999999999999</ele><time>2026-04-02T10:13:35.708Z</time></trkpt><trkpt lat="42.8040832" lon="12.2188539"><ele>714.4</ele><time>2026-04-02T10:13:37.708Z</time></trkpt><trkpt lat="42.8040647" lon="12.2186681"><ele>717.2</ele><time>2026-04-02T10:13:39.706Z</time></trkpt><trkpt lat="42.8040344" lon="12.2185647"><ele>720.0</ele><time>2026-04-02T10:13:40.708Z</time></trkpt><trkpt lat="42.8039925" lon="12.2184563"><ele>720.0</ele><time>2026-04-02T10:13:41.707Z</time></trkpt><trkpt lat="42.8039468" lon="12.2183383"><ele>720.0</ele><time>2026-04-02T10:13:42.713Z</time></trkpt><trkpt lat="42.8039118" lon="12.2182238"><ele>720.0</ele><time>2026-04-02T10:13:43.711Z</time></trkpt><trkpt lat="42.8038811" lon="12.2181014"><ele>720.0</ele><time>2026-04-02T10:13:44.708Z</time></trkpt><trkpt lat="42.8038603" lon="12.2179802"><ele>720.0</ele><time>2026-04-02T10:13:45.717Z</time></trkpt><trkpt lat="42.8038509" lon="12.2178526"><ele>721.3333333333334</ele><time>2026-04-02T10:13:46.703Z</time></trkpt><trkpt lat="42.8038458" lon="12.2177285"><ele>722.6666666666666</ele><time>2026-04-02T10:13:47.712Z</time></trkpt><trkpt lat="42.803848" lon="12.2176158"><ele>724.0</ele><time>2026-04-02T10:13:48.704Z</time></trkpt><trkpt lat="42.8038842" lon="12.2175176"><ele>725.3333333333333</ele><time>2026-04-02T10:13:49.707Z</time></trkpt><trkpt lat="42.8039146" lon="12.2174052"><ele>726.6666666666666</ele><time>2026-04-02T10:13:50.705Z</time></trkpt><trkpt lat="42.8039592" lon="12.2173062"><ele>728.0</ele><time>2026-04-02T10:13:51.709Z</time></trkpt><trkpt lat="42.8040189" lon="12.2172348"><ele>728.2</ele><time>2026-04-02T10:13:52.707Z</time></trkpt><trkpt lat="42.8040876" lon="12.2171711"><ele>728.4</ele><time>2026-04-02T10:13:53.707Z</time></trkpt><trkpt lat="42.8041558" lon="12.2170886"><ele>728.6</ele><time>2026-04-02T10:13:54.715Z</time></trkpt><trkpt lat="42.8042095" lon="12.2169998"><ele>728.8000000000001</ele><time>2026-04-02T10:13:55.709Z</time></trkpt><trkpt lat="42.8042562" lon="12.2168644"><ele>729.0</ele><time>2026-04-02T10:13:56.706Z</time></trkpt><trkpt lat="42.8042777" lon="12.2167285"><ele>729.0</ele><time>2026-04-02T10:13:57.708Z</time></trkpt><trkpt lat="42.8042788" lon="12.2165946"><ele>729.0</ele><time>2026-04-02T10:13:58.71Z</time></trkpt><trkpt lat="42.8042697" lon="12.2164599"><ele>729.0</ele><time>2026-04-02T10:13:59.706Z</time></trkpt><trkpt lat="42.8042772" lon="12.2163206"><ele>729.0</ele><time>2026-04-02T10:14:00.705Z</time></trkpt><trkpt lat="42.8043014" lon="12.2161866"><ele>729.0</ele><time>2026-04-02T10:14:01.712Z</time></trkpt><trkpt lat="42.8043369" lon="12.2160536"><ele>728.4000000000001</ele><time>2026-04-02T10:14:02.71Z</time></trkpt><trkpt lat="42.8043612" lon="12.2159236"><ele>727.8</ele><time>2026-04-02T10:14:03.71Z</time></trkpt><trkpt lat="42.8043923" lon="12.2157937"><ele>727.2</ele><time>2026-04-02T10:14:04.709Z</time></trkpt><trkpt lat="42.8044292" lon="12.2156721"><ele>726.5999999999999</ele><time>2026-04-02T10:14:05.708Z</time></trkpt><trkpt lat="42.8044732" lon="12.2155648"><ele>726.0</ele><time>2026-04-02T10:14:06.708Z</time></trkpt><trkpt lat="42.8045235" lon="12.2154872"><ele>727.5</ele><time>2026-04-02T10:14:07.704Z</time></trkpt><trkpt lat="42.8045878" lon="12.2154288"><ele>729.0</ele><time>2026-04-02T10:14:08.709Z</time></trkpt><trkpt lat="42.8046562" lon="12.2153885"><ele>730.5</ele><time>2026-04-02T10:14:09.71Z</time></trkpt><trkpt lat="42.8047347" lon="12.2153486"><ele>732.0</ele><time>2026-04-02T10:14:10.707Z</time></trkpt><trkpt lat="42.804819" lon="12.2153174"><ele>733.5</ele><time>2026-04-02T10:14:11.711Z</time></trkpt><trkpt lat="42.8049108" lon="12.2152881"><ele>735.0</ele><time>2026-04-02T10:14:12.709Z</time></trkpt><trkpt lat="42.805007" lon="12.2152536"><ele>735.0</ele><time>2026-04-02T10:14:13.709Z</time></trkpt><trkpt lat="42.8051019" lon="12.2152184"><ele>735.0</ele><time>2026-04-02T10:14:14.712Z</time></trkpt><trkpt lat="42.8052052" lon="12.2151783"><ele>735.0</ele><time>2026-04-02T10:14:15.707Z</time></trkpt><trkpt lat="42.8053056" lon="12.2151363"><ele>735.0</ele><time>2026-04-02T10:14:16.71Z</time></trkpt><trkpt lat="42.8054082" lon="12.2150851"><ele>735.0</ele><time>2026-04-02T10:14:17.714Z</time></trkpt><trkpt lat="42.8054942" lon="12.2150373"><ele>734.8</ele><time>2026-04-02T10:14:18.71Z</time></trkpt><trkpt lat="42.8055699" lon="12.2149746"><ele>734.6</ele><time>2026-04-02T10:14:19.706Z</time></trkpt><trkpt lat="42.8056467" lon="12.2148951"><ele>734.4000000000001</ele><time>2026-04-02T10:14:20.709Z</time></trkpt><trkpt lat="42.8057063" lon="12.2148014"><ele>734.2</ele><time>2026-04-02T10:14:21.704Z</time></trkpt><trkpt lat="42.8057535" lon="12.2147037"><ele>734.0</ele><time>2026-04-02T10:14:22.707Z</time></trkpt><trkpt lat="42.8057739" lon="12.214582"><ele>735.0</ele><time>2026-04-02T10:14:23.706Z</time></trkpt><trkpt lat="42.8058023" lon="12.2144546"><ele>736.0</ele><time>2026-04-02T10:14:24.71Z</time></trkpt><trkpt lat="42.8058145" lon="12.2143422"><ele>737.0</ele><time>2026-04-02T10:14:25.705Z</time></trkpt><trkpt lat="42.8058355" lon="12.2142227"><ele>738.0</ele><time>2026-04-02T10:14:26.711Z</time></trkpt><trkpt lat="42.8058736" lon="12.2141096"><ele>739.0</ele><time>2026-04-02T10:14:27.706Z</time></trkpt><trkpt lat="42.8059265" lon="12.214059"><ele>740.0</ele><time>2026-04-02T10:14:28.707Z</time></trkpt><trkpt lat="42.8059827" lon="12.2139959"><ele>738.6</ele><time>2026-04-02T10:14:29.707Z</time></trkpt><trkpt lat="42.8060417" lon="12.2139351"><ele>737.2</ele><time>2026-04-02T10:14:30.706Z</time></trkpt><trkpt lat="42.806104" lon="12.2138662"><ele>735.8</ele><time>2026-04-02T10:14:31.705Z</time></trkpt><trkpt lat="42.8061467" lon="12.21379"><ele>734.4</ele><time>2026-04-02T10:14:32.706Z</time></trkpt><trkpt lat="42.8061824" lon="12.2136844"><ele>733.0</ele><time>2026-04-02T10:14:33.709Z</time></trkpt><trkpt lat="42.8062212" lon="12.2134565"><ele>733.0</ele><time>2026-04-02T10:14:35.703Z</time></trkpt><trkpt lat="42.8062381" lon="12.2133527"><ele>733.0</ele><time>2026-04-02T10:14:36.708Z</time></trkpt><trkpt lat="42.8062702" lon="12.2132533"><ele>733.0</ele><time>2026-04-02T10:14:37.713Z</time></trkpt><trkpt lat="42.8063151" lon="12.213169"><ele>733.0</ele><time>2026-04-02T10:14:38.707Z</time></trkpt><trkpt lat="42.8063792" lon="12.2131035"><ele>733.0</ele><time>2026-04-02T10:14:39.709Z</time></trkpt><trkpt lat="42.8064522" lon="12.2130675"><ele>733.0</ele><time>2026-04-02T10:14:40.707Z</time></trkpt><trkpt lat="42.806563" lon="12.2130611"><ele>732.7142857142857</ele><time>2026-04-02T10:14:42.706Z</time></trkpt><trkpt lat="42.8066298" lon="12.2130825"><ele>732.4285714285714</ele><time>2026-04-02T10:14:43.712Z</time></trkpt><trkpt lat="42.8066967" lon="12.2131093"><ele>732.1428571428571</ele><time>2026-04-02T10:14:44.709Z</time></trkpt><trkpt lat="42.8067688" lon="12.2131273"><ele>731.8571428571429</ele><time>2026-04-02T10:14:45.705Z</time></trkpt><trkpt lat="42.8068354" lon="12.2131436"><ele>731.5714285714286</ele><time>2026-04-02T10:14:46.706Z</time></trkpt><trkpt lat="42.8069127" lon="12.2131493"><ele>731.2857142857142</ele><time>2026-04-02T10:14:47.708Z</time></trkpt><trkpt lat="42.8069846" lon="12.2131452"><ele>731.0</ele><time>2026-04-02T10:14:48.707Z</time></trkpt><trkpt lat="42.807052" lon="12.2131597"><ele>732.5714285714286</ele><time>2026-04-02T10:14:49.708Z</time></trkpt><trkpt lat="42.8071223" lon="12.2131849"><ele>734.1428571428571</ele><time>2026-04-02T10:14:50.711Z</time></trkpt><trkpt lat="42.807183" lon="12.2132219"><ele>735.7142857142858</ele><time>2026-04-02T10:14:51.712Z</time></trkpt><trkpt lat="42.8072472" lon="12.2132602"><ele>737.2857142857142</ele><time>2026-04-02T10:14:52.706Z</time></trkpt><trkpt lat="42.8073175" lon="12.2133018"><ele>738.8571428571429</ele><time>2026-04-02T10:14:53.705Z</time></trkpt><trkpt lat="42.8073928" lon="12.2133312"><ele>740.4285714285714</ele><time>2026-04-02T10:14:54.707Z</time></trkpt><trkpt lat="42.8074674" lon="12.2133599"><ele>742.0</ele><time>2026-04-02T10:14:55.705Z</time></trkpt><trkpt lat="42.8075411" lon="12.2133716"><ele>742.0</ele><time>2026-04-02T10:14:56.707Z</time></trkpt><trkpt lat="42.8076126" lon="12.2133561"><ele>742.0</ele><time>2026-04-02T10:14:57.706Z</time></trkpt><trkpt lat="42.8077219" lon="12.2133386"><ele>742.0</ele><time>2026-04-02T10:14:59.707Z</time></trkpt><trkpt lat="42.8078055" lon="12.2133421"><ele>742.0</ele><time>2026-04-02T10:15:01.714Z</time></trkpt><trkpt lat="42.8078763" lon="12.2133144"><ele>742.0</ele><time>2026-04-02T10:15:03.705Z</time></trkpt><trkpt lat="42.8079505" lon="12.2132159"><ele>742.0</ele><time>2026-04-02T10:15:05.713Z</time></trkpt><trkpt lat="42.8080047" lon="12.2131466"><ele>745.3333333333334</ele><time>2026-04-02T10:15:06.704Z</time></trkpt><trkpt lat="42.8080599" lon="12.2130876"><ele>748.6666666666667</ele><time>2026-04-02T10:15:07.704Z</time></trkpt><trkpt lat="42.8081328" lon="12.2130282"><ele>752.0</ele><time>2026-04-02T10:15:08.706Z</time></trkpt><trkpt lat="42.8082162" lon="12.2129826"><ele>755.3333333333334</ele><time>2026-04-02T10:15:09.708Z</time></trkpt><trkpt lat="42.808298" lon="12.2129675"><ele>758.6666666666666</ele><time>2026-04-02T10:15:10.714Z</time></trkpt><trkpt lat="42.8083844" lon="12.2129561"><ele>762.0</ele><time>2026-04-02T10:15:11.705Z</time></trkpt><trkpt lat="42.8084705" lon="12.2129449"><ele>761.0</ele><time>2026-04-02T10:15:12.708Z</time></trkpt><trkpt lat="42.8085566" lon="12.2128955"><ele>760.0</ele><time>2026-04-02T10:15:13.709Z</time></trkpt><trkpt lat="42.8086285" lon="12.2128736"><ele>759.0</ele><time>2026-04-02T10:15:14.707Z</time></trkpt><trkpt lat="42.8087091" lon="12.2128496"><ele>758.0</ele><time>2026-04-02T10:15:16.708Z</time></trkpt><trkpt lat="42.8087783" lon="12.2127802"><ele>757.0</ele><time>2026-04-02T10:15:18.707Z</time></trkpt><trkpt lat="42.8088248" lon="12.2126449"><ele>756.0</ele><time>2026-04-02T10:15:20.706Z</time></trkpt><trkpt lat="42.8088527" lon="12.2125603"><ele>756.0</ele><time>2026-04-02T10:15:21.71Z</time></trkpt><trkpt lat="42.8088892" lon="12.2124086"><ele>756.0</ele><time>2026-04-02T10:15:23.714Z</time></trkpt><trkpt lat="42.8089187" lon="12.2123256"><ele>756.0</ele><time>2026-04-02T10:15:24.707Z</time></trkpt><trkpt lat="42.8089608" lon="12.2121784"><ele>756.0</ele><time>2026-04-02T10:15:26.711Z</time></trkpt><trkpt lat="42.8089964" lon="12.2120557"><ele>756.0</ele><time>2026-04-02T10:15:28.713Z</time></trkpt><trkpt lat="42.8090306" lon="12.2119797"><ele>756.0</ele><time>2026-04-02T10:15:29.703Z</time></trkpt><trkpt lat="42.809066" lon="12.2118547"><ele>756.0</ele><time>2026-04-02T10:15:31.708Z</time></trkpt><trkpt lat="42.8090823" lon="12.2117485"><ele>756.0</ele><time>2026-04-02T10:15:33.711Z</time></trkpt><trkpt lat="42.8091434" lon="12.2116839"><ele>756.0</ele><time>2026-04-02T10:15:37.704Z</time></trkpt><trkpt lat="42.8091742" lon="12.2115544"><ele>756.0</ele><time>2026-04-02T10:15:52.707Z</time></trkpt><trkpt lat="42.8091915" lon="12.2114574"><ele>756.0</ele><time>2026-04-02T10:15:54.704Z</time></trkpt><trkpt lat="42.8091967" lon="12.2113598"><ele>756.0</ele><time>2026-04-02T10:15:56.707Z</time></trkpt><trkpt lat="42.8091792" lon="12.2112582"><ele>756.0</ele><time>2026-04-02T10:15:58.706Z</time></trkpt><trkpt lat="42.8091977" lon="12.2111358"><ele>756.0</ele><time>2026-04-02T10:16:00.705Z</time></trkpt><trkpt lat="42.8092584" lon="12.211055"><ele>756.0</ele><time>2026-04-02T10:16:02.707Z</time></trkpt><trkpt lat="42.8093504" lon="12.2110786"><ele>756.0</ele><time>2026-04-02T10:16:04.708Z</time></trkpt><trkpt lat="42.8094552" lon="12.2111603"><ele>756.0</ele><time>2026-04-02T10:16:06.705Z</time></trkpt><trkpt lat="42.809519" lon="12.2112072"><ele>756.0</ele><time>2026-04-02T10:16:07.706Z</time></trkpt><trkpt lat="42.8096037" lon="12.2112327"><ele>756.0</ele><time>2026-04-02T10:16:08.708Z</time></trkpt><trkpt lat="42.8096871" lon="12.2112491"><ele>756.0</ele><time>2026-04-02T10:16:09.706Z</time></trkpt><trkpt lat="42.8097776" lon="12.2112473"><ele>756.0</ele><time>2026-04-02T10:16:10.708Z</time></trkpt><trkpt lat="42.8098712" lon="12.2112393"><ele>756.0</ele><time>2026-04-02T10:16:11.71Z</time></trkpt><trkpt lat="42.8099663" lon="12.2112244"><ele>756.0</ele><time>2026-04-02T10:16:12.71Z</time></trkpt><trkpt lat="42.8100752" lon="12.2111863"><ele>756.0</ele><time>2026-04-02T10:16:13.705Z</time></trkpt><trkpt lat="42.8101789" lon="12.2111511"><ele>756.0</ele><time>2026-04-02T10:16:14.71Z</time></trkpt><trkpt lat="42.8102831" lon="12.2111051"><ele>756.0</ele><time>2026-04-02T10:16:15.707Z</time></trkpt><trkpt lat="42.8103728" lon="12.2110906"><ele>756.0</ele><time>2026-04-02T10:16:16.705Z</time></trkpt><trkpt lat="42.8104677" lon="12.2110944"><ele>757.0</ele><time>2026-04-02T10:16:17.709Z</time></trkpt><trkpt lat="42.810564" lon="12.2111132"><ele>758.0</ele><time>2026-04-02T10:16:18.71Z</time></trkpt><trkpt lat="42.8106585" lon="12.2111455"><ele>759.0</ele><time>2026-04-02T10:16:19.706Z</time></trkpt><trkpt lat="42.8107381" lon="12.2111815"><ele>760.0</ele><time>2026-04-02T10:16:20.708Z</time></trkpt><trkpt lat="42.8108162" lon="12.2112143"><ele>761.0</ele><time>2026-04-02T10:16:21.708Z</time></trkpt><trkpt lat="42.8108687" lon="12.2112708"><ele>762.0</ele><time>2026-04-02T10:16:22.711Z</time></trkpt><trkpt lat="42.8109201" lon="12.2113221"><ele>762.0</ele><time>2026-04-02T10:16:23.705Z</time></trkpt><trkpt lat="42.8109901" lon="12.2113849"><ele>762.0</ele><time>2026-04-02T10:16:24.706Z</time></trkpt><trkpt lat="42.8110501" lon="12.2114522"><ele>762.0</ele><time>2026-04-02T10:16:25.71Z</time></trkpt><trkpt lat="42.8111048" lon="12.2115197"><ele>762.0</ele><time>2026-04-02T10:16:26.706Z</time></trkpt><trkpt lat="42.8111593" lon="12.2115848"><ele>762.0</ele><time>2026-04-02T10:16:27.706Z</time></trkpt><trkpt lat="42.8112141" lon="12.21165"><ele>762.0</ele><time>2026-04-02T10:16:28.705Z</time></trkpt><trkpt lat="42.8113033" lon="12.2117668"><ele>761.5</ele><time>2026-04-02T10:16:30.705Z</time></trkpt><trkpt lat="42.811321" lon="12.2118545"><ele>761.0</ele><time>2026-04-02T10:16:32.71Z</time></trkpt><trkpt lat="42.8113258" lon="12.2119678"><ele>760.5</ele><time>2026-04-02T10:17:30.704Z</time></trkpt><trkpt lat="42.8113566" lon="12.2120653"><ele>760.0</ele><time>2026-04-02T10:17:32.707Z</time></trkpt><trkpt lat="42.8114268" lon="12.212167"><ele>759.5</ele><time>2026-04-02T10:17:34.709Z</time></trkpt><trkpt lat="42.8114827" lon="12.2122237"><ele>759.0</ele><time>2026-04-02T10:17:35.71Z</time></trkpt><trkpt lat="42.8115437" lon="12.2122866"><ele>759.8000000000001</ele><time>2026-04-02T10:17:36.712Z</time></trkpt><trkpt lat="42.8116007" lon="12.2123686"><ele>760.6</ele><time>2026-04-02T10:17:37.707Z</time></trkpt><trkpt lat="42.8116573" lon="12.2124804"><ele>761.4</ele><time>2026-04-02T10:17:38.705Z</time></trkpt><trkpt lat="42.8116998" lon="12.2126113"><ele>762.2</ele><time>2026-04-02T10:17:39.712Z</time></trkpt><trkpt lat="42.811734" lon="12.2127534"><ele>763.0</ele><time>2026-04-02T10:17:40.71Z</time></trkpt><trkpt lat="42.8117351" lon="12.2129079"><ele>763.0</ele><time>2026-04-02T10:17:41.714Z</time></trkpt><trkpt lat="42.8117168" lon="12.21305"><ele>763.0</ele><time>2026-04-02T10:17:42.707Z</time></trkpt><trkpt lat="42.8116766" lon="12.2131789"><ele>763.0</ele><time>2026-04-02T10:17:43.706Z</time></trkpt><trkpt lat="42.8115966" lon="12.2133528"><ele>763.0</ele><time>2026-04-02T10:17:44.705Z</time></trkpt><trkpt lat="42.8115385" lon="12.2134957"><ele>764.25</ele><time>2026-04-02T10:17:45.71Z</time></trkpt><trkpt lat="42.8115009" lon="12.2136686"><ele>765.5</ele><time>2026-04-02T10:17:46.715Z</time></trkpt><trkpt lat="42.8114867" lon="12.2138623"><ele>766.75</ele><time>2026-04-02T10:17:47.707Z</time></trkpt><trkpt lat="42.8114937" lon="12.2140428"><ele>768.0</ele><time>2026-04-02T10:17:48.709Z</time></trkpt><trkpt lat="42.8115226" lon="12.2142305"><ele>768.75</ele><time>2026-04-02T10:17:49.706Z</time></trkpt><trkpt lat="42.8115621" lon="12.2144094"><ele>769.5</ele><time>2026-04-02T10:17:50.707Z</time></trkpt><trkpt lat="42.8116138" lon="12.2145913"><ele>770.25</ele><time>2026-04-02T10:17:51.706Z</time></trkpt><trkpt lat="42.8116584" lon="12.2147777"><ele>771.0</ele><time>2026-04-02T10:17:52.708Z</time></trkpt><trkpt lat="42.8117003" lon="12.2149673"><ele>771.0</ele><time>2026-04-02T10:17:53.707Z</time></trkpt><trkpt lat="42.8117355" lon="12.2151449"><ele>771.0</ele><time>2026-04-02T10:17:54.707Z</time></trkpt><trkpt lat="42.8117664" lon="12.2153176"><ele>771.0</ele><time>2026-04-02T10:17:55.706Z</time></trkpt><trkpt lat="42.8118082" lon="12.2154753"><ele>771.0</ele><time>2026-04-02T10:17:56.714Z</time></trkpt><trkpt lat="42.8118856" lon="12.2156239"><ele>772.5</ele><time>2026-04-02T10:17:57.709Z</time></trkpt><trkpt lat="42.8119786" lon="12.2157454"><ele>774.0</ele><time>2026-04-02T10:17:58.705Z</time></trkpt><trkpt lat="42.8120914" lon="12.2158538"><ele>775.5</ele><time>2026-04-02T10:17:59.704Z</time></trkpt><trkpt lat="42.8122171" lon="12.2159323"><ele>777.0</ele><time>2026-04-02T10:18:00.708Z</time></trkpt><trkpt lat="42.8123547" lon="12.2159829"><ele>777.0</ele><time>2026-04-02T10:18:01.707Z</time></trkpt><trkpt lat="42.8124896" lon="12.2160125"><ele>777.0</ele><time>2026-04-02T10:18:02.708Z</time></trkpt><trkpt lat="42.812637" lon="12.2160221"><ele>777.0</ele><time>2026-04-02T10:18:03.706Z</time></trkpt><trkpt lat="42.8127894" lon="12.2160219"><ele>777.0</ele><time>2026-04-02T10:18:04.706Z</time></trkpt><trkpt lat="42.8129322" lon="12.2160162"><ele>776.75</ele><time>2026-04-02T10:18:05.705Z</time></trkpt><trkpt lat="42.8130725" lon="12.2159855"><ele>776.5</ele><time>2026-04-02T10:18:06.706Z</time></trkpt><trkpt lat="42.8131957" lon="12.2159168"><ele>776.25</ele><time>2026-04-02T10:18:07.71Z</time></trkpt><trkpt lat="42.8133007" lon="12.2158046"><ele>776.0</ele><time>2026-04-02T10:18:08.707Z</time></trkpt><trkpt lat="42.8133907" lon="12.2156771"><ele>775.25</ele><time>2026-04-02T10:18:09.711Z</time></trkpt><trkpt lat="42.8134722" lon="12.2155319"><ele>774.5</ele><time>2026-04-02T10:18:10.714Z</time></trkpt><trkpt lat="42.8135535" lon="12.2153684"><ele>773.75</ele><time>2026-04-02T10:18:11.713Z</time></trkpt><trkpt lat="42.8136238" lon="12.2152055"><ele>773.0</ele><time>2026-04-02T10:18:12.722Z</time></trkpt><trkpt lat="42.8136862" lon="12.2150264"><ele>773.0</ele><time>2026-04-02T10:18:13.71Z</time></trkpt><trkpt lat="42.8137193" lon="12.2148434"><ele>773.0</ele><time>2026-04-02T10:18:14.704Z</time></trkpt><trkpt lat="42.8137295" lon="12.2146248"><ele>773.0</ele><time>2026-04-02T10:18:15.705Z</time></trkpt><trkpt lat="42.8137348" lon="12.2144235"><ele>773.0</ele><time>2026-04-02T10:18:16.706Z</time></trkpt><trkpt lat="42.8137576" lon="12.214217"><ele>775.5</ele><time>2026-04-02T10:18:17.708Z</time></trkpt><trkpt lat="42.8137725" lon="12.21403"><ele>778.0</ele><time>2026-04-02T10:18:18.708Z</time></trkpt><trkpt lat="42.8138243" lon="12.2138418"><ele>780.5</ele><time>2026-04-02T10:18:19.704Z</time></trkpt><trkpt lat="42.8138848" lon="12.2136982"><ele>783.0</ele><time>2026-04-02T10:18:20.705Z</time></trkpt><trkpt lat="42.8139771" lon="12.2135827"><ele>782.75</ele><time>2026-04-02T10:18:21.706Z</time></trkpt><trkpt lat="42.8140789" lon="12.2134966"><ele>782.5</ele><time>2026-04-02T10:18:22.717Z</time></trkpt><trkpt lat="42.8141884" lon="12.2134482"><ele>782.25</ele><time>2026-04-02T10:18:23.705Z</time></trkpt><trkpt lat="42.8143313" lon="12.2134725"><ele>782.0</ele><time>2026-04-02T10:18:24.708Z</time></trkpt><trkpt lat="42.8144393" lon="12.2135052"><ele>782.0</ele><time>2026-04-02T10:18:25.708Z</time></trkpt><trkpt lat="42.8145469" lon="12.2134886"><ele>782.0</ele><time>2026-04-02T10:18:26.711Z</time></trkpt><trkpt lat="42.814656" lon="12.2134178"><ele>782.0</ele><time>2026-04-02T10:18:27.704Z</time></trkpt><trkpt lat="42.8147516" lon="12.2133162"><ele>782.0</ele><time>2026-04-02T10:18:28.705Z</time></trkpt><trkpt lat="42.8148361" lon="12.2131802"><ele>783.75</ele><time>2026-04-02T10:18:29.708Z</time></trkpt><trkpt lat="42.8149104" lon="12.2130364"><ele>785.5</ele><time>2026-04-02T10:18:30.709Z</time></trkpt><trkpt lat="42.8149879" lon="12.2128882"><ele>787.25</ele><time>2026-04-02T10:18:31.706Z</time></trkpt><trkpt lat="42.8150606" lon="12.2127276"><ele>789.0</ele><time>2026-04-02T10:18:32.709Z</time></trkpt><trkpt lat="42.8151216" lon="12.2125516"><ele>788.6666666666667</ele><time>2026-04-02T10:18:33.71Z</time></trkpt><trkpt lat="42.8151764" lon="12.2123595"><ele>788.3333333333334</ele><time>2026-04-02T10:18:34.708Z</time></trkpt><trkpt lat="42.8152384" lon="12.2121666"><ele>788.0</ele><time>2026-04-02T10:18:35.71Z</time></trkpt><trkpt lat="42.8152979" lon="12.2119856"><ele>788.0</ele><time>2026-04-02T10:18:36.705Z</time></trkpt><trkpt lat="42.8153694" lon="12.2118047"><ele>788.0</ele><time>2026-04-02T10:18:37.709Z</time></trkpt><trkpt lat="42.8154556" lon="12.2116282"><ele>788.0</ele><time>2026-04-02T10:18:38.707Z</time></trkpt><trkpt lat="42.8155653" lon="12.2114778"><ele>790.25</ele><time>2026-04-02T10:18:39.711Z</time></trkpt><trkpt lat="42.8156772" lon="12.2113354"><ele>792.5</ele><time>2026-04-02T10:18:40.706Z</time></trkpt><trkpt lat="42.815784" lon="12.2112091"><ele>794.75</ele><time>2026-04-02T10:18:41.712Z</time></trkpt><trkpt lat="42.81589" lon="12.2111233"><ele>797.0</ele><time>2026-04-02T10:18:42.708Z</time></trkpt><trkpt lat="42.816006" lon="12.2110876"><ele>798.0</ele><time>2026-04-02T10:18:43.71Z</time></trkpt><trkpt lat="42.8161262" lon="12.211109"><ele>799.0</ele><time>2026-04-02T10:18:44.708Z</time></trkpt><trkpt lat="42.8162512" lon="12.2111689"><ele>800.0</ele><time>2026-04-02T10:18:45.71Z</time></trkpt><trkpt lat="42.8163764" lon="12.2112403"><ele>801.0</ele><time>2026-04-02T10:18:46.708Z</time></trkpt><trkpt lat="42.8165064" lon="12.2113056"><ele>801.0</ele><time>2026-04-02T10:18:47.709Z</time></trkpt><trkpt lat="42.8166378" lon="12.2113744"><ele>801.0</ele><time>2026-04-02T10:18:48.711Z</time></trkpt><trkpt lat="42.8167675" lon="12.2114418"><ele>801.0</ele><time>2026-04-02T10:18:49.713Z</time></trkpt><trkpt lat="42.8169031" lon="12.2115146"><ele>801.0</ele><time>2026-04-02T10:18:50.708Z</time></trkpt><trkpt lat="42.817043" lon="12.2115887"><ele>801.0</ele><time>2026-04-02T10:18:51.712Z</time></trkpt><trkpt lat="42.8171769" lon="12.211668"><ele>801.0</ele><time>2026-04-02T10:18:52.711Z</time></trkpt><trkpt lat="42.8173122" lon="12.2117365"><ele>801.0</ele><time>2026-04-02T10:18:53.711Z</time></trkpt><trkpt lat="42.8174433" lon="12.2118037"><ele>801.0</ele><time>2026-04-02T10:18:54.716Z</time></trkpt><trkpt lat="42.8175734" lon="12.2118655"><ele>802.5</ele><time>2026-04-02T10:18:55.706Z</time></trkpt><trkpt lat="42.8177107" lon="12.2119196"><ele>804.0</ele><time>2026-04-02T10:18:56.709Z</time></trkpt><trkpt lat="42.8178513" lon="12.2119722"><ele>805.5</ele><time>2026-04-02T10:18:57.71Z</time></trkpt><trkpt lat="42.8179872" lon="12.2120106"><ele>807.0</ele><time>2026-04-02T10:18:58.705Z</time></trkpt><trkpt lat="42.8181215" lon="12.2120326"><ele>807.0</ele><time>2026-04-02T10:18:59.708Z</time></trkpt><trkpt lat="42.8182744" lon="12.2120045"><ele>807.0</ele><time>2026-04-02T10:19:00.716Z</time></trkpt><trkpt lat="42.8184143" lon="12.2119424"><ele>807.0</ele><time>2026-04-02T10:19:01.707Z</time></trkpt><trkpt lat="42.8185437" lon="12.2118623"><ele>807.0</ele><time>2026-04-02T10:19:02.705Z</time></trkpt><trkpt lat="42.8186699" lon="12.2117654"><ele>804.5</ele><time>2026-04-02T10:19:03.705Z</time></trkpt><trkpt lat="42.8187858" lon="12.2116771"><ele>802.0</ele><time>2026-04-02T10:19:04.706Z</time></trkpt><trkpt lat="42.8188836" lon="12.2116052"><ele>799.5</ele><time>2026-04-02T10:19:05.712Z</time></trkpt><trkpt lat="42.8189821" lon="12.2115435"><ele>797.0</ele><time>2026-04-02T10:19:06.705Z</time></trkpt><trkpt lat="42.8190796" lon="12.211499"><ele>799.6</ele><time>2026-04-02T10:19:07.706Z</time></trkpt><trkpt lat="42.8191751" lon="12.2114467"><ele>802.2</ele><time>2026-04-02T10:19:08.706Z</time></trkpt><trkpt lat="42.8192711" lon="12.2113949"><ele>804.8</ele><time>2026-04-02T10:19:09.706Z</time></trkpt><trkpt lat="42.8193744" lon="12.2113398"><ele>807.4</ele><time>2026-04-02T10:19:10.707Z</time></trkpt><trkpt lat="42.8194849" lon="12.211319"><ele>810.0</ele><time>2026-04-02T10:19:11.71Z</time></trkpt><trkpt lat="42.8195977" lon="12.2113275"><ele>810.0</ele><time>2026-04-02T10:19:12.702Z</time></trkpt><trkpt lat="42.8197218" lon="12.2113488"><ele>810.0</ele><time>2026-04-02T10:19:13.718Z</time></trkpt><trkpt lat="42.8198387" lon="12.2114046"><ele>810.0</ele><time>2026-04-02T10:19:14.707Z</time></trkpt><trkpt lat="42.819944" lon="12.2115078"><ele>810.0</ele><time>2026-04-02T10:19:15.71Z</time></trkpt><trkpt lat="42.8200449" lon="12.2116035"><ele>810.0</ele><time>2026-04-02T10:19:16.714Z</time></trkpt><trkpt lat="42.820149" lon="12.2117112"><ele>810.0</ele><time>2026-04-02T10:19:17.707Z</time></trkpt><trkpt lat="42.8202621" lon="12.2118175"><ele>810.0</ele><time>2026-04-02T10:19:18.707Z</time></trkpt><trkpt lat="42.820372" lon="12.211919"><ele>810.0</ele><time>2026-04-02T10:19:19.706Z</time></trkpt><trkpt lat="42.8204962" lon="12.212009"><ele>810.0</ele><time>2026-04-02T10:19:20.705Z</time></trkpt><trkpt lat="42.8206269" lon="12.2120883"><ele>810.0</ele><time>2026-04-02T10:19:21.709Z</time></trkpt><trkpt lat="42.8207547" lon="12.2121535"><ele>810.0</ele><time>2026-04-02T10:19:22.71Z</time></trkpt><trkpt lat="42.8208911" lon="12.2122173"><ele>810.0</ele><time>2026-04-02T10:19:23.71Z</time></trkpt><trkpt lat="42.8210215" lon="12.2122708"><ele>810.25</ele><time>2026-04-02T10:19:24.709Z</time></trkpt><trkpt lat="42.8211573" lon="12.2123092"><ele>810.5</ele><time>2026-04-02T10:19:25.707Z</time></trkpt><trkpt lat="42.8212909" lon="12.2123331"><ele>810.75</ele><time>2026-04-02T10:19:26.708Z</time></trkpt><trkpt lat="42.8214288" lon="12.2123254"><ele>811.0</ele><time>2026-04-02T10:19:27.707Z</time></trkpt><trkpt lat="42.8215669" lon="12.2122934"><ele>811.0</ele><time>2026-04-02T10:19:28.71Z</time></trkpt><trkpt lat="42.821696" lon="12.2122479"><ele>811.0</ele><time>2026-04-02T10:19:29.709Z</time></trkpt><trkpt lat="42.8218245" lon="12.212189"><ele>811.0</ele><time>2026-04-02T10:19:30.707Z</time></trkpt><trkpt lat="42.8219582" lon="12.2121179"><ele>811.0</ele><time>2026-04-02T10:19:31.712Z</time></trkpt><trkpt lat="42.8220938" lon="12.2120486"><ele>810.25</ele><time>2026-04-02T10:19:32.709Z</time></trkpt><trkpt lat="42.822227" lon="12.2120121"><ele>809.5</ele><time>2026-04-02T10:19:33.706Z</time></trkpt><trkpt lat="42.8223666" lon="12.211989"><ele>808.75</ele><time>2026-04-02T10:19:34.708Z</time></trkpt><trkpt lat="42.8225125" lon="12.2119657"><ele>808.0</ele><time>2026-04-02T10:19:35.706Z</time></trkpt><trkpt lat="42.8226602" lon="12.2119363"><ele>806.0</ele><time>2026-04-02T10:19:36.707Z</time></trkpt><trkpt lat="42.8228011" lon="12.2119148"><ele>804.0</ele><time>2026-04-02T10:19:37.707Z</time></trkpt><trkpt lat="42.822937" lon="12.2118806"><ele>802.0</ele><time>2026-04-02T10:19:38.706Z</time></trkpt><trkpt lat="42.8230663" lon="12.21188"><ele>800.0</ele><time>2026-04-02T10:19:39.706Z</time></trkpt><trkpt lat="42.8231872" lon="12.2119076"><ele>800.0</ele><time>2026-04-02T10:19:40.704Z</time></trkpt><trkpt lat="42.8232829" lon="12.2120299"><ele>800.0</ele><time>2026-04-02T10:19:41.707Z</time></trkpt><trkpt lat="42.8233715" lon="12.21217"><ele>800.0</ele><time>2026-04-02T10:19:42.707Z</time></trkpt><trkpt lat="42.8234213" lon="12.2123504"><ele>800.0</ele><time>2026-04-02T10:19:43.71Z</time></trkpt><trkpt lat="42.8234955" lon="12.2125118"><ele>801.0</ele><time>2026-04-02T10:19:44.708Z</time></trkpt><trkpt lat="42.8236" lon="12.2126566"><ele>802.0</ele><time>2026-04-02T10:19:45.714Z</time></trkpt><trkpt lat="42.8237222" lon="12.2127783"><ele>803.0</ele><time>2026-04-02T10:19:46.711Z</time></trkpt><trkpt lat="42.8238571" lon="12.2128885"><ele>803.0</ele><time>2026-04-02T10:19:47.707Z</time></trkpt><trkpt lat="42.8239818" lon="12.2130039"><ele>803.0</ele><time>2026-04-02T10:19:48.706Z</time></trkpt><trkpt lat="42.8241056" lon="12.2131312"><ele>803.0</ele><time>2026-04-02T10:19:49.717Z</time></trkpt><trkpt lat="42.8241992" lon="12.2132852"><ele>802.5</ele><time>2026-04-02T10:19:50.711Z</time></trkpt><trkpt lat="42.8242803" lon="12.2134442"><ele>802.0</ele><time>2026-04-02T10:19:51.711Z</time></trkpt><trkpt lat="42.8243768" lon="12.2135842"><ele>801.5</ele><time>2026-04-02T10:19:52.706Z</time></trkpt><trkpt lat="42.8244796" lon="12.2136928"><ele>801.0</ele><time>2026-04-02T10:19:53.706Z</time></trkpt><trkpt lat="42.8245816" lon="12.2137545"><ele>801.0</ele><time>2026-04-02T10:19:54.705Z</time></trkpt><trkpt lat="42.8246867" lon="12.2137906"><ele>801.0</ele><time>2026-04-02T10:19:55.708Z</time></trkpt><trkpt lat="42.8247741" lon="12.2137733"><ele>801.0</ele><time>2026-04-02T10:19:56.708Z</time></trkpt><trkpt lat="42.8248598" lon="12.2137151"><ele>801.0</ele><time>2026-04-02T10:19:57.707Z</time></trkpt><trkpt lat="42.825003" lon="12.2136208"><ele>801.0</ele><time>2026-04-02T10:19:58.708Z</time></trkpt><trkpt lat="42.8251385" lon="12.2135859"><ele>801.0</ele><time>2026-04-02T10:19:59.708Z</time></trkpt><trkpt lat="42.8252773" lon="12.2135833"><ele>801.0</ele><time>2026-04-02T10:20:00.705Z</time></trkpt><trkpt lat="42.8254361" lon="12.2136568"><ele>801.0</ele><time>2026-04-02T10:20:01.708Z</time></trkpt><trkpt lat="42.8255776" lon="12.2137474"><ele>800.25</ele><time>2026-04-02T10:20:02.708Z</time></trkpt><trkpt lat="42.8257124" lon="12.2138596"><ele>799.5</ele><time>2026-04-02T10:20:03.706Z</time></trkpt><trkpt lat="42.8258342" lon="12.2139425"><ele>798.75</ele><time>2026-04-02T10:20:04.711Z</time></trkpt><trkpt lat="42.8259457" lon="12.213965"><ele>798.0</ele><time>2026-04-02T10:20:05.705Z</time></trkpt><trkpt lat="42.8260639" lon="12.2139349"><ele>794.25</ele><time>2026-04-02T10:20:06.71Z</time></trkpt><trkpt lat="42.8261797" lon="12.2138633"><ele>790.5</ele><time>2026-04-02T10:20:07.709Z</time></trkpt><trkpt lat="42.8262806" lon="12.2137523"><ele>786.75</ele><time>2026-04-02T10:20:08.704Z</time></trkpt><trkpt lat="42.8263721" lon="12.2136228"><ele>783.0</ele><time>2026-04-02T10:20:09.709Z</time></trkpt><trkpt lat="42.8264627" lon="12.2134937"><ele>783.0</ele><time>2026-04-02T10:20:10.707Z</time></trkpt><trkpt lat="42.8265393" lon="12.2133991"><ele>783.0</ele><time>2026-04-02T10:20:11.712Z</time></trkpt><trkpt lat="42.8266308" lon="12.213321"><ele>783.0</ele><time>2026-04-02T10:20:12.704Z</time></trkpt><trkpt lat="42.8267196" lon="12.2132828"><ele>783.0</ele><time>2026-04-02T10:20:13.708Z</time></trkpt><trkpt lat="42.826795" lon="12.2133122"><ele>783.0</ele><time>2026-04-02T10:20:14.707Z</time></trkpt><trkpt lat="42.8268963" lon="12.213361"><ele>781.0</ele><time>2026-04-02T10:20:15.711Z</time></trkpt><trkpt lat="42.8269657" lon="12.2134672"><ele>779.0</ele><time>2026-04-02T10:20:16.706Z</time></trkpt><trkpt lat="42.8270294" lon="12.2136579"><ele>777.0</ele><time>2026-04-02T10:20:17.709Z</time></trkpt><trkpt lat="42.8271084" lon="12.2137817"><ele>775.0</ele><time>2026-04-02T10:20:18.705Z</time></trkpt><trkpt lat="42.827212" lon="12.2138508"><ele>775.0</ele><time>2026-04-02T10:20:19.703Z</time></trkpt><trkpt lat="42.8273226" lon="12.2138896"><ele>775.0</ele><time>2026-04-02T10:20:20.703Z</time></trkpt><trkpt lat="42.827433" lon="12.2139006"><ele>775.0</ele><time>2026-04-02T10:20:21.708Z</time></trkpt><trkpt lat="42.8275374" lon="12.2138616"><ele>775.0</ele><time>2026-04-02T10:20:22.708Z</time></trkpt><trkpt lat="42.8276589" lon="12.2137708"><ele>770.25</ele><time>2026-04-02T10:20:23.712Z</time></trkpt><trkpt lat="42.8277479" lon="12.2136563"><ele>765.5</ele><time>2026-04-02T10:20:24.704Z</time></trkpt><trkpt lat="42.8277971" lon="12.213522"><ele>760.75</ele><time>2026-04-02T10:20:25.704Z</time></trkpt><trkpt lat="42.8277924" lon="12.2133534"><ele>756.0</ele><time>2026-04-02T10:20:26.708Z</time></trkpt><trkpt lat="42.8277527" lon="12.2131657"><ele>756.8</ele><time>2026-04-02T10:20:27.706Z</time></trkpt><trkpt lat="42.8277109" lon="12.212975"><ele>757.5999999999999</ele><time>2026-04-02T10:20:28.708Z</time></trkpt><trkpt lat="42.8277117" lon="12.2128162"><ele>758.4</ele><time>2026-04-02T10:20:29.706Z</time></trkpt><trkpt lat="42.8277339" lon="12.2126954"><ele>759.2</ele><time>2026-04-02T10:20:30.707Z</time></trkpt><trkpt lat="42.8277707" lon="12.2125914"><ele>760.0</ele><time>2026-04-02T10:20:31.707Z</time></trkpt><trkpt lat="42.827878" lon="12.212533"><ele>760.0</ele><time>2026-04-02T10:20:32.703Z</time></trkpt><trkpt lat="42.8280018" lon="12.212498"><ele>760.0</ele><time>2026-04-02T10:20:33.705Z</time></trkpt><trkpt lat="42.8281141" lon="12.212471"><ele>760.0</ele><time>2026-04-02T10:20:34.706Z</time></trkpt><trkpt lat="42.8282153" lon="12.2124229"><ele>760.0</ele><time>2026-04-02T10:20:35.716Z</time></trkpt><trkpt lat="42.8282994" lon="12.212336"><ele>758.4</ele><time>2026-04-02T10:20:36.707Z</time></trkpt><trkpt lat="42.8283493" lon="12.2122163"><ele>756.8</ele><time>2026-04-02T10:20:37.706Z</time></trkpt><trkpt lat="42.828368" lon="12.2120671"><ele>755.2</ele><time>2026-04-02T10:20:38.706Z</time></trkpt><trkpt lat="42.8284025" lon="12.2119344"><ele>753.6</ele><time>2026-04-02T10:20:39.709Z</time></trkpt><trkpt lat="42.8284552" lon="12.2118341"><ele>752.0</ele><time>2026-04-02T10:20:40.711Z</time></trkpt><trkpt lat="42.8285253" lon="12.211776"><ele>751.5</ele><time>2026-04-02T10:20:41.708Z</time></trkpt><trkpt lat="42.8285921" lon="12.2117815"><ele>751.0</ele><time>2026-04-02T10:20:42.705Z</time></trkpt><trkpt lat="42.8286463" lon="12.211856"><ele>750.5</ele><time>2026-04-02T10:20:43.72Z</time></trkpt><trkpt lat="42.8286849" lon="12.2119588"><ele>750.0</ele><time>2026-04-02T10:20:44.707Z</time></trkpt><trkpt lat="42.828705" lon="12.2120928"><ele>749.5</ele><time>2026-04-02T10:20:45.707Z</time></trkpt><trkpt lat="42.8287481" lon="12.2122165"><ele>749.0</ele><time>2026-04-02T10:20:46.707Z</time></trkpt><trkpt lat="42.8288232" lon="12.2123235"><ele>749.0</ele><time>2026-04-02T10:20:47.708Z</time></trkpt><trkpt lat="42.8289158" lon="12.2124236"><ele>749.0</ele><time>2026-04-02T10:20:48.708Z</time></trkpt><trkpt lat="42.8290147" lon="12.2125295"><ele>749.0</ele><time>2026-04-02T10:20:49.705Z</time></trkpt><trkpt lat="42.8291098" lon="12.2126432"><ele>749.0</ele><time>2026-04-02T10:20:50.705Z</time></trkpt><trkpt lat="42.8291728" lon="12.2127826"><ele>749.0</ele><time>2026-04-02T10:20:51.709Z</time></trkpt><trkpt lat="42.829244" lon="12.2129197"><ele>749.0</ele><time>2026-04-02T10:20:52.705Z</time></trkpt><trkpt lat="42.8293349" lon="12.2130377"><ele>749.0</ele><time>2026-04-02T10:20:53.706Z</time></trkpt><trkpt lat="42.8294456" lon="12.2131484"><ele>749.0</ele><time>2026-04-02T10:20:54.706Z</time></trkpt><trkpt lat="42.8295708" lon="12.2132284"><ele>747.25</ele><time>2026-04-02T10:20:55.708Z</time></trkpt><trkpt lat="42.8296894" lon="12.2132919"><ele>745.5</ele><time>2026-04-02T10:20:56.715Z</time></trkpt><trkpt lat="42.8298076" lon="12.2133712"><ele>743.75</ele><time>2026-04-02T10:20:57.705Z</time></trkpt><trkpt lat="42.8299164" lon="12.2134747"><ele>742.0</ele><time>2026-04-02T10:20:58.707Z</time></trkpt><trkpt lat="42.8300185" lon="12.2136078"><ele>742.0</ele><time>2026-04-02T10:20:59.705Z</time></trkpt><trkpt lat="42.8301076" lon="12.2137562"><ele>742.0</ele><time>2026-04-02T10:21:00.706Z</time></trkpt><trkpt lat="42.8301902" lon="12.2138918"><ele>742.0</ele><time>2026-04-02T10:21:01.708Z</time></trkpt><trkpt lat="42.8302834" lon="12.2140143"><ele>742.0</ele><time>2026-04-02T10:21:02.714Z</time></trkpt><trkpt lat="42.8303806" lon="12.2141132"><ele>741.75</ele><time>2026-04-02T10:21:03.712Z</time></trkpt><trkpt lat="42.8304899" lon="12.2141726"><ele>741.5</ele><time>2026-04-02T10:21:04.707Z</time></trkpt><trkpt lat="42.8306297" lon="12.2141953"><ele>741.25</ele><time>2026-04-02T10:21:05.709Z</time></trkpt><trkpt lat="42.830765" lon="12.2141764"><ele>741.0</ele><time>2026-04-02T10:21:06.708Z</time></trkpt><trkpt lat="42.8308972" lon="12.2141563"><ele>737.25</ele><time>2026-04-02T10:21:07.708Z</time></trkpt><trkpt lat="42.8310272" lon="12.2141745"><ele>733.5</ele><time>2026-04-02T10:21:08.706Z</time></trkpt><trkpt lat="42.8311586" lon="12.214189"><ele>729.75</ele><time>2026-04-02T10:21:09.707Z</time></trkpt><trkpt lat="42.8312809" lon="12.2142212"><ele>726.0</ele><time>2026-04-02T10:21:10.709Z</time></trkpt><trkpt lat="42.8313974" lon="12.2142728"><ele>726.0</ele><time>2026-04-02T10:21:11.707Z</time></trkpt><trkpt lat="42.8314983" lon="12.2143571"><ele>726.0</ele><time>2026-04-02T10:21:12.708Z</time></trkpt><trkpt lat="42.8315823" lon="12.2144674"><ele>726.0</ele><time>2026-04-02T10:21:13.708Z</time></trkpt><trkpt lat="42.8316451" lon="12.2146152"><ele>726.0</ele><time>2026-04-02T10:21:14.704Z</time></trkpt><trkpt lat="42.8316935" lon="12.2147561"><ele>724.75</ele><time>2026-04-02T10:21:15.706Z</time></trkpt><trkpt lat="42.831746" lon="12.2148862"><ele>723.5</ele><time>2026-04-02T10:21:16.714Z</time></trkpt><trkpt lat="42.8318781" lon="12.2149682"><ele>722.25</ele><time>2026-04-02T10:21:17.706Z</time></trkpt><trkpt lat="42.8320172" lon="12.2150043"><ele>721.0</ele><time>2026-04-02T10:21:18.709Z</time></trkpt><trkpt lat="42.8321493" lon="12.2150072"><ele>721.0</ele><time>2026-04-02T10:21:19.706Z</time></trkpt><trkpt lat="42.8323" lon="12.2149926"><ele>721.0</ele><time>2026-04-02T10:21:20.706Z</time></trkpt><trkpt lat="42.8324353" lon="12.2149872"><ele>721.0</ele><time>2026-04-02T10:21:21.713Z</time></trkpt><trkpt lat="42.8325618" lon="12.2149932"><ele>721.0</ele><time>2026-04-02T10:21:22.713Z</time></trkpt><trkpt lat="42.8326837" lon="12.2150026"><ele>718.25</ele><time>2026-04-02T10:21:23.706Z</time></trkpt><trkpt lat="42.8328075" lon="12.2150246"><ele>715.5</ele><time>2026-04-02T10:21:24.706Z</time></trkpt><trkpt lat="42.8329374" lon="12.2150687"><ele>712.75</ele><time>2026-04-02T10:21:25.705Z</time></trkpt><trkpt lat="42.8330589" lon="12.2151185"><ele>710.0</ele><time>2026-04-02T10:21:26.708Z</time></trkpt><trkpt lat="42.8331361" lon="12.2152077"><ele>710.0</ele><time>2026-04-02T10:21:27.701Z</time></trkpt><trkpt lat="42.8332023" lon="12.2153339"><ele>710.0</ele><time>2026-04-02T10:21:28.705Z</time></trkpt><trkpt lat="42.833242" lon="12.2154789"><ele>710.0</ele><time>2026-04-02T10:21:29.706Z</time></trkpt><trkpt lat="42.8332767" lon="12.2156278"><ele>710.0</ele><time>2026-04-02T10:21:30.705Z</time></trkpt><trkpt lat="42.8333188" lon="12.2157609"><ele>710.0</ele><time>2026-04-02T10:21:31.706Z</time></trkpt><trkpt lat="42.8333748" lon="12.2158872"><ele>711.4</ele><time>2026-04-02T10:21:32.707Z</time></trkpt><trkpt lat="42.8334317" lon="12.2160027"><ele>712.8</ele><time>2026-04-02T10:21:33.707Z</time></trkpt><trkpt lat="42.8334916" lon="12.2161059"><ele>714.2</ele><time>2026-04-02T10:21:34.705Z</time></trkpt><trkpt lat="42.8335574" lon="12.2161921"><ele>715.6</ele><time>2026-04-02T10:21:35.706Z</time></trkpt><trkpt lat="42.8336288" lon="12.2162847"><ele>717.0</ele><time>2026-04-02T10:21:36.71Z</time></trkpt><trkpt lat="42.8337066" lon="12.2163749"><ele>715.0</ele><time>2026-04-02T10:21:37.707Z</time></trkpt><trkpt lat="42.8337699" lon="12.2164604"><ele>713.0</ele><time>2026-04-02T10:21:38.707Z</time></trkpt><trkpt lat="42.8338224" lon="12.2165518"><ele>711.0</ele><time>2026-04-02T10:21:39.706Z</time></trkpt><trkpt lat="42.8338691" lon="12.2166432"><ele>709.0</ele><time>2026-04-02T10:21:40.704Z</time></trkpt><trkpt lat="42.8339072" lon="12.216732"><ele>707.0</ele><time>2026-04-02T10:21:41.709Z</time></trkpt><trkpt lat="42.833943" lon="12.2168288"><ele>705.0</ele><time>2026-04-02T10:21:42.705Z</time></trkpt><trkpt lat="42.8339865" lon="12.21693"><ele>705.0</ele><time>2026-04-02T10:21:43.708Z</time></trkpt><trkpt lat="42.8340373" lon="12.2170369"><ele>705.0</ele><time>2026-04-02T10:21:44.708Z</time></trkpt><trkpt lat="42.8340944" lon="12.217147"><ele>705.0</ele><time>2026-04-02T10:21:45.707Z</time></trkpt><trkpt lat="42.8341499" lon="12.2172546"><ele>705.0</ele><time>2026-04-02T10:21:46.714Z</time></trkpt><trkpt lat="42.8341958" lon="12.2173582"><ele>705.0</ele><time>2026-04-02T10:21:47.709Z</time></trkpt><trkpt lat="42.8342466" lon="12.2174561"><ele>705.4</ele><time>2026-04-02T10:21:48.704Z</time></trkpt><trkpt lat="42.8343001" lon="12.2175458"><ele>705.8</ele><time>2026-04-02T10:21:49.714Z</time></trkpt><trkpt lat="42.8343517" lon="12.2176447"><ele>706.2</ele><time>2026-04-02T10:21:50.704Z</time></trkpt><trkpt lat="42.834399" lon="12.2177661"><ele>706.6</ele><time>2026-04-02T10:21:51.711Z</time></trkpt><trkpt lat="42.8344485" lon="12.2178958"><ele>707.0</ele><time>2026-04-02T10:21:52.71Z</time></trkpt><trkpt lat="42.8344982" lon="12.2180387"><ele>706.0</ele><time>2026-04-02T10:21:53.713Z</time></trkpt><trkpt lat="42.8345496" lon="12.218189"><ele>705.0</ele><time>2026-04-02T10:21:54.711Z</time></trkpt><trkpt lat="42.8346002" lon="12.2183409"><ele>704.0</ele><time>2026-04-02T10:21:55.706Z</time></trkpt><trkpt lat="42.834654" lon="12.2184952"><ele>703.0</ele><time>2026-04-02T10:21:56.712Z</time></trkpt><trkpt lat="42.8347119" lon="12.2186512"><ele>703.0</ele><time>2026-04-02T10:21:57.708Z</time></trkpt><trkpt lat="42.834767" lon="12.2188054"><ele>703.0</ele><time>2026-04-02T10:21:58.706Z</time></trkpt><trkpt lat="42.834815" lon="12.2189674"><ele>703.0</ele><time>2026-04-02T10:21:59.706Z</time></trkpt><trkpt lat="42.8348477" lon="12.2191183"><ele>703.0</ele><time>2026-04-02T10:22:00.709Z</time></trkpt><trkpt lat="42.8348423" lon="12.2192821"><ele>704.75</ele><time>2026-04-02T10:22:01.704Z</time></trkpt><trkpt lat="42.8348214" lon="12.2194395"><ele>706.5</ele><time>2026-04-02T10:22:02.708Z</time></trkpt><trkpt lat="42.8348134" lon="12.2195899"><ele>708.25</ele><time>2026-04-02T10:22:03.71Z</time></trkpt><trkpt lat="42.8348537" lon="12.2197317"><ele>710.0</ele><time>2026-04-02T10:22:04.708Z</time></trkpt><trkpt lat="42.8349254" lon="12.2198517"><ele>708.25</ele><time>2026-04-02T10:22:05.71Z</time></trkpt><trkpt lat="42.835017" lon="12.2199334"><ele>706.5</ele><time>2026-04-02T10:22:06.712Z</time></trkpt><trkpt lat="42.8351284" lon="12.2199872"><ele>704.75</ele><time>2026-04-02T10:22:07.71Z</time></trkpt><trkpt lat="42.8352348" lon="12.2200517"><ele>703.0</ele><time>2026-04-02T10:22:08.708Z</time></trkpt><trkpt lat="42.8353298" lon="12.2201385"><ele>703.0</ele><time>2026-04-02T10:22:09.706Z</time></trkpt><trkpt lat="42.8354112" lon="12.2202697"><ele>703.0</ele><time>2026-04-02T10:22:10.708Z</time></trkpt><trkpt lat="42.8354573" lon="12.2204328"><ele>703.0</ele><time>2026-04-02T10:22:11.708Z</time></trkpt><trkpt lat="42.8355105" lon="12.2205955"><ele>703.0</ele><time>2026-04-02T10:22:12.708Z</time></trkpt><trkpt lat="42.8355636" lon="12.2207514"><ele>705.75</ele><time>2026-04-02T10:22:13.704Z</time></trkpt><trkpt lat="42.835615" lon="12.2209284"><ele>708.5</ele><time>2026-04-02T10:22:14.705Z</time></trkpt><trkpt lat="42.8356581" lon="12.221101"><ele>711.25</ele><time>2026-04-02T10:22:15.71Z</time></trkpt><trkpt lat="42.8356927" lon="12.2212498"><ele>714.0</ele><time>2026-04-02T10:22:16.709Z</time></trkpt><trkpt lat="42.8357419" lon="12.2213774"><ele>713.6</ele><time>2026-04-02T10:22:17.71Z</time></trkpt><trkpt lat="42.8358124" lon="12.2214839"><ele>713.2</ele><time>2026-04-02T10:22:18.709Z</time></trkpt><trkpt lat="42.8358901" lon="12.22159"><ele>712.8000000000001</ele><time>2026-04-02T10:22:19.704Z</time></trkpt><trkpt lat="42.8359711" lon="12.2216822"><ele>712.4000000000001</ele><time>2026-04-02T10:22:20.705Z</time></trkpt><trkpt lat="42.8360576" lon="12.2217826"><ele>712.0</ele><time>2026-04-02T10:22:21.71Z</time></trkpt><trkpt lat="42.8361394" lon="12.2218808"><ele>712.0</ele><time>2026-04-02T10:22:22.707Z</time></trkpt><trkpt lat="42.8362172" lon="12.2219823"><ele>712.0</ele><time>2026-04-02T10:22:23.704Z</time></trkpt><trkpt lat="42.8363018" lon="12.2220739"><ele>712.0</ele><time>2026-04-02T10:22:24.707Z</time></trkpt><trkpt lat="42.8363799" lon="12.2221574"><ele>712.0</ele><time>2026-04-02T10:22:25.706Z</time></trkpt><trkpt lat="42.8364613" lon="12.2222321"><ele>712.0</ele><time>2026-04-02T10:22:26.707Z</time></trkpt><trkpt lat="42.8365349" lon="12.2223096"><ele>713.6</ele><time>2026-04-02T10:22:27.706Z</time></trkpt><trkpt lat="42.8366112" lon="12.2223867"><ele>715.2</ele><time>2026-04-02T10:22:28.719Z</time></trkpt><trkpt lat="42.8366806" lon="12.222471"><ele>716.8</ele><time>2026-04-02T10:22:29.707Z</time></trkpt><trkpt lat="42.8367538" lon="12.222551"><ele>718.4</ele><time>2026-04-02T10:22:30.711Z</time></trkpt><trkpt lat="42.8368272" lon="12.2226343"><ele>720.0</ele><time>2026-04-02T10:22:31.706Z</time></trkpt><trkpt lat="42.8368989" lon="12.2227221"><ele>720.0</ele><time>2026-04-02T10:22:32.706Z</time></trkpt><trkpt lat="42.8369726" lon="12.2228098"><ele>720.0</ele><time>2026-04-02T10:22:33.707Z</time></trkpt><trkpt lat="42.8370454" lon="12.2228925"><ele>720.0</ele><time>2026-04-02T10:22:34.707Z</time></trkpt><trkpt lat="42.8371261" lon="12.2229747"><ele>720.0</ele><time>2026-04-02T10:22:35.705Z</time></trkpt><trkpt lat="42.8372037" lon="12.2230527"><ele>720.0</ele><time>2026-04-02T10:22:36.707Z</time></trkpt><trkpt lat="42.8372823" lon="12.2231208"><ele>720.5</ele><time>2026-04-02T10:22:37.705Z</time></trkpt><trkpt lat="42.8373512" lon="12.2231803"><ele>721.0</ele><time>2026-04-02T10:22:38.71Z</time></trkpt><trkpt lat="42.8374137" lon="12.223241"><ele>721.5</ele><time>2026-04-02T10:22:39.707Z</time></trkpt><trkpt lat="42.8374669" lon="12.2232944"><ele>722.0</ele><time>2026-04-02T10:22:40.707Z</time></trkpt><trkpt lat="42.8375385" lon="12.2233647"><ele>722.5</ele><time>2026-04-02T10:22:42.709Z</time></trkpt><trkpt lat="42.8376345" lon="12.2234021"><ele>723.0</ele><time>2026-04-02T10:23:21.705Z</time></trkpt><trkpt lat="42.8377491" lon="12.2234927"><ele>723.0</ele><time>2026-04-02T10:23:23.717Z</time></trkpt><trkpt lat="42.8378074" lon="12.2235308"><ele>723.0</ele><time>2026-04-02T10:23:24.707Z</time></trkpt><trkpt lat="42.8378671" lon="12.2235665"><ele>723.0</ele><time>2026-04-02T10:23:25.705Z</time></trkpt><trkpt lat="42.8379777" lon="12.2236347"><ele>723.0</ele><time>2026-04-02T10:23:27.71Z</time></trkpt><trkpt lat="42.8380417" lon="12.2236829"><ele>723.0</ele><time>2026-04-02T10:23:28.711Z</time></trkpt><trkpt lat="42.8381061" lon="12.2237334"><ele>723.0</ele><time>2026-04-02T10:23:29.707Z</time></trkpt><trkpt lat="42.8381953" lon="12.2237987"><ele>723.0</ele><time>2026-04-02T10:23:30.706Z</time></trkpt><trkpt lat="42.8382819" lon="12.2238575"><ele>723.0</ele><time>2026-04-02T10:23:31.707Z</time></trkpt><trkpt lat="42.8383649" lon="12.223919"><ele>723.0</ele><time>2026-04-02T10:23:32.705Z</time></trkpt><trkpt lat="42.8384518" lon="12.2239822"><ele>723.0</ele><time>2026-04-02T10:23:33.707Z</time></trkpt><trkpt lat="42.8385462" lon="12.2240481"><ele>723.0</ele><time>2026-04-02T10:23:34.713Z</time></trkpt><trkpt lat="42.8386441" lon="12.2241217"><ele>722.25</ele><time>2026-04-02T10:23:35.71Z</time></trkpt><trkpt lat="42.8387356" lon="12.2242014"><ele>721.5</ele><time>2026-04-02T10:23:36.708Z</time></trkpt><trkpt lat="42.8388283" lon="12.22429"><ele>720.75</ele><time>2026-04-02T10:23:37.714Z</time></trkpt><trkpt lat="42.8389246" lon="12.224381"><ele>720.0</ele><time>2026-04-02T10:23:38.709Z</time></trkpt><trkpt lat="42.8390279" lon="12.224478"><ele>720.0</ele><time>2026-04-02T10:23:39.713Z</time></trkpt><trkpt lat="42.8391274" lon="12.2245734"><ele>720.0</ele><time>2026-04-02T10:23:40.71Z</time></trkpt><trkpt lat="42.8392259" lon="12.2246578"><ele>720.0</ele><time>2026-04-02T10:23:41.706Z</time></trkpt><trkpt lat="42.8393323" lon="12.2247432"><ele>720.0</ele><time>2026-04-02T10:23:42.71Z</time></trkpt><trkpt lat="42.8394486" lon="12.2248104"><ele>720.5</ele><time>2026-04-02T10:23:43.708Z</time></trkpt><trkpt lat="42.8395779" lon="12.224848"><ele>721.0</ele><time>2026-04-02T10:23:44.709Z</time></trkpt><trkpt lat="42.8397224" lon="12.2248544"><ele>721.5</ele><time>2026-04-02T10:23:45.704Z</time></trkpt><trkpt lat="42.8398581" lon="12.2248297"><ele>722.0</ele><time>2026-04-02T10:23:46.707Z</time></trkpt><trkpt lat="42.8399976" lon="12.2247558"><ele>722.0</ele><time>2026-04-02T10:23:47.706Z</time></trkpt><trkpt lat="42.8401213" lon="12.224656"><ele>722.0</ele><time>2026-04-02T10:23:48.711Z</time></trkpt><trkpt lat="42.8402273" lon="12.2245144"><ele>722.0</ele><time>2026-04-02T10:23:49.707Z</time></trkpt><trkpt lat="42.8403226" lon="12.2243595"><ele>722.0</ele><time>2026-04-02T10:23:50.712Z</time></trkpt><trkpt lat="42.8404223" lon="12.2242097"><ele>721.6666666666666</ele><time>2026-04-02T10:23:51.707Z</time></trkpt><trkpt lat="42.8405378" lon="12.2240616"><ele>721.3333333333334</ele><time>2026-04-02T10:23:52.706Z</time></trkpt><trkpt lat="42.8406692" lon="12.2239301"><ele>721.0</ele><time>2026-04-02T10:23:53.706Z</time></trkpt><trkpt lat="42.8408066" lon="12.2238105"><ele>719.25</ele><time>2026-04-02T10:23:54.707Z</time></trkpt><trkpt lat="42.8409306" lon="12.2236985"><ele>717.5</ele><time>2026-04-02T10:23:55.712Z</time></trkpt><trkpt lat="42.841059" lon="12.2235999"><ele>715.75</ele><time>2026-04-02T10:23:56.707Z</time></trkpt><trkpt lat="42.8411727" lon="12.2235043"><ele>714.0</ele><time>2026-04-02T10:23:57.711Z</time></trkpt><trkpt lat="42.8412908" lon="12.2234187"><ele>714.0</ele><time>2026-04-02T10:23:58.712Z</time></trkpt><trkpt lat="42.8414022" lon="12.2233604"><ele>714.0</ele><time>2026-04-02T10:23:59.709Z</time></trkpt><trkpt lat="42.8415146" lon="12.2233417"><ele>714.0</ele><time>2026-04-02T10:24:00.709Z</time></trkpt><trkpt lat="42.8416334" lon="12.2233762"><ele>714.0</ele><time>2026-04-02T10:24:01.707Z</time></trkpt><trkpt lat="42.8417473" lon="12.2234389"><ele>711.25</ele><time>2026-04-02T10:24:02.707Z</time></trkpt><trkpt lat="42.8418776" lon="12.2235168"><ele>708.5</ele><time>2026-04-02T10:24:03.705Z</time></trkpt><trkpt lat="42.8419989" lon="12.2235958"><ele>705.75</ele><time>2026-04-02T10:24:04.71Z</time></trkpt><trkpt lat="42.8420851" lon="12.2237101"><ele>703.0</ele><time>2026-04-02T10:24:05.704Z</time></trkpt><trkpt lat="42.8422025" lon="12.2238298"><ele>703.0</ele><time>2026-04-02T10:24:06.706Z</time></trkpt><trkpt lat="42.8423332" lon="12.2239317"><ele>703.0</ele><time>2026-04-02T10:24:07.707Z</time></trkpt><trkpt lat="42.8424688" lon="12.2240154"><ele>703.0</ele><time>2026-04-02T10:24:08.71Z</time></trkpt><trkpt lat="42.8425977" lon="12.2240981"><ele>703.0</ele><time>2026-04-02T10:24:09.709Z</time></trkpt><trkpt lat="42.8427199" lon="12.2241753"><ele>704.0</ele><time>2026-04-02T10:24:10.707Z</time></trkpt><trkpt lat="42.8428427" lon="12.2242385"><ele>705.0</ele><time>2026-04-02T10:24:11.708Z</time></trkpt><trkpt lat="42.8429638" lon="12.2242498"><ele>706.0</ele><time>2026-04-02T10:24:12.707Z</time></trkpt><trkpt lat="42.8430836" lon="12.2242195"><ele>707.0</ele><time>2026-04-02T10:24:13.704Z</time></trkpt><trkpt lat="42.8432013" lon="12.2241237"><ele>707.0</ele><time>2026-04-02T10:24:14.712Z</time></trkpt><trkpt lat="42.8432989" lon="12.2239949"><ele>707.0</ele><time>2026-04-02T10:24:15.705Z</time></trkpt><trkpt lat="42.8433935" lon="12.2238458"><ele>707.0</ele><time>2026-04-02T10:24:16.713Z</time></trkpt><trkpt lat="42.8434939" lon="12.2236922"><ele>707.0</ele><time>2026-04-02T10:24:17.71Z</time></trkpt><trkpt lat="42.843584" lon="12.2235463"><ele>707.75</ele><time>2026-04-02T10:24:18.706Z</time></trkpt><trkpt lat="42.8436871" lon="12.2233976"><ele>708.5</ele><time>2026-04-02T10:24:19.705Z</time></trkpt><trkpt lat="42.8438016" lon="12.2232848"><ele>709.25</ele><time>2026-04-02T10:24:20.706Z</time></trkpt><trkpt lat="42.843925" lon="12.2231928"><ele>710.0</ele><time>2026-04-02T10:24:21.709Z</time></trkpt><trkpt lat="42.8440415" lon="12.2231461"><ele>710.0</ele><time>2026-04-02T10:24:22.706Z</time></trkpt><trkpt lat="42.8441465" lon="12.2231588"><ele>710.0</ele><time>2026-04-02T10:24:23.708Z</time></trkpt><trkpt lat="42.8442292" lon="12.2232158"><ele>710.0</ele><time>2026-04-02T10:24:24.708Z</time></trkpt><trkpt lat="42.8443118" lon="12.2233105"><ele>710.0</ele><time>2026-04-02T10:24:25.709Z</time></trkpt><trkpt lat="42.8443876" lon="12.2234097"><ele>710.0</ele><time>2026-04-02T10:24:26.708Z</time></trkpt><trkpt lat="42.8444707" lon="12.2235238"><ele>712.0</ele><time>2026-04-02T10:24:27.705Z</time></trkpt><trkpt lat="42.8445562" lon="12.2236376"><ele>714.0</ele><time>2026-04-02T10:24:28.708Z</time></trkpt><trkpt lat="42.844644" lon="12.2237391"><ele>716.0</ele><time>2026-04-02T10:24:29.707Z</time></trkpt><trkpt lat="42.8447456" lon="12.2237988"><ele>718.0</ele><time>2026-04-02T10:24:30.705Z</time></trkpt><trkpt lat="42.8448453" lon="12.2238133"><ele>720.0</ele><time>2026-04-02T10:24:31.704Z</time></trkpt><trkpt lat="42.8449416" lon="12.2237817"><ele>720.0</ele><time>2026-04-02T10:24:32.713Z</time></trkpt><trkpt lat="42.8450077" lon="12.2236883"><ele>720.0</ele><time>2026-04-02T10:24:33.708Z</time></trkpt><trkpt lat="42.845055" lon="12.2235768"><ele>720.0</ele><time>2026-04-02T10:24:34.713Z</time></trkpt><trkpt lat="42.8450758" lon="12.2234661"><ele>720.0</ele><time>2026-04-02T10:24:35.706Z</time></trkpt><trkpt lat="42.8450202" lon="12.2232906"><ele>720.0</ele><time>2026-04-02T10:24:36.709Z</time></trkpt><trkpt lat="42.8449835" lon="12.2231338"><ele>718.25</ele><time>2026-04-02T10:24:37.708Z</time></trkpt><trkpt lat="42.8449508" lon="12.2229721"><ele>716.5</ele><time>2026-04-02T10:24:38.706Z</time></trkpt><trkpt lat="42.8449333" lon="12.2227946"><ele>714.75</ele><time>2026-04-02T10:24:39.709Z</time></trkpt><trkpt lat="42.8449301" lon="12.2226248"><ele>713.0</ele><time>2026-04-02T10:24:40.706Z</time></trkpt><trkpt lat="42.8449657" lon="12.2224908"><ele>713.0</ele><time>2026-04-02T10:24:41.708Z</time></trkpt><trkpt lat="42.8450379" lon="12.2223824"><ele>713.0</ele><time>2026-04-02T10:24:42.706Z</time></trkpt><trkpt lat="42.8451149" lon="12.2222969"><ele>713.0</ele><time>2026-04-02T10:24:43.708Z</time></trkpt><trkpt lat="42.8451998" lon="12.222273"><ele>713.0</ele><time>2026-04-02T10:24:44.707Z</time></trkpt><trkpt lat="42.845298" lon="12.2222806"><ele>713.0</ele><time>2026-04-02T10:24:45.706Z</time></trkpt><trkpt lat="42.8455053" lon="12.2223875"><ele>712.75</ele><time>2026-04-02T10:24:46.706Z</time></trkpt><trkpt lat="42.8456178" lon="12.2225088"><ele>712.5</ele><time>2026-04-02T10:24:47.71Z</time></trkpt><trkpt lat="42.8456971" lon="12.2226614"><ele>712.25</ele><time>2026-04-02T10:24:48.707Z</time></trkpt><trkpt lat="42.8458077" lon="12.2227995"><ele>712.0</ele><time>2026-04-02T10:24:49.706Z</time></trkpt><trkpt lat="42.845927" lon="12.2229269"><ele>713.5</ele><time>2026-04-02T10:24:50.708Z</time></trkpt><trkpt lat="42.846062" lon="12.2230167"><ele>715.0</ele><time>2026-04-02T10:24:51.708Z</time></trkpt><trkpt lat="42.8462041" lon="12.2230711"><ele>716.5</ele><time>2026-04-02T10:24:52.708Z</time></trkpt><trkpt lat="42.8463353" lon="12.2230859"><ele>718.0</ele><time>2026-04-02T10:24:53.713Z</time></trkpt><trkpt lat="42.8464573" lon="12.223039"><ele>718.0</ele><time>2026-04-02T10:24:54.71Z</time></trkpt><trkpt lat="42.8465567" lon="12.2229448"><ele>718.0</ele><time>2026-04-02T10:24:55.709Z</time></trkpt><trkpt lat="42.8466364" lon="12.2228247"><ele>718.0</ele><time>2026-04-02T10:24:56.707Z</time></trkpt><trkpt lat="42.8466927" lon="12.2227147"><ele>718.0</ele><time>2026-04-02T10:24:57.705Z</time></trkpt><trkpt lat="42.8467173" lon="12.222591"><ele>718.0</ele><time>2026-04-02T10:24:58.709Z</time></trkpt><trkpt lat="42.8466637" lon="12.2223923"><ele>717.25</ele><time>2026-04-02T10:24:59.716Z</time></trkpt><trkpt lat="42.8465841" lon="12.2222145"><ele>716.5</ele><time>2026-04-02T10:25:00.707Z</time></trkpt><trkpt lat="42.8465068" lon="12.2220356"><ele>715.75</ele><time>2026-04-02T10:25:01.714Z</time></trkpt><trkpt lat="42.8464512" lon="12.221854"><ele>715.0</ele><time>2026-04-02T10:25:02.708Z</time></trkpt><trkpt lat="42.8464243" lon="12.2216715"><ele>715.0</ele><time>2026-04-02T10:25:03.712Z</time></trkpt><trkpt lat="42.8464301" lon="12.2215171"><ele>715.0</ele><time>2026-04-02T10:25:04.712Z</time></trkpt><trkpt lat="42.8464712" lon="12.2214038"><ele>715.0</ele><time>2026-04-02T10:25:05.709Z</time></trkpt><trkpt lat="42.8465368" lon="12.2213335"><ele>715.0</ele><time>2026-04-02T10:25:06.707Z</time></trkpt><trkpt lat="42.8466249" lon="12.2213105"><ele>715.0</ele><time>2026-04-02T10:25:07.713Z</time></trkpt><trkpt lat="42.8467278" lon="12.2213199"><ele>713.5</ele><time>2026-04-02T10:25:08.713Z</time></trkpt><trkpt lat="42.8468365" lon="12.2213743"><ele>712.0</ele><time>2026-04-02T10:25:09.712Z</time></trkpt><trkpt lat="42.8469558" lon="12.2214323"><ele>710.5</ele><time>2026-04-02T10:25:10.715Z</time></trkpt><trkpt lat="42.8470901" lon="12.2214671"><ele>709.0</ele><time>2026-04-02T10:25:11.71Z</time></trkpt><trkpt lat="42.8472269" lon="12.2214831"><ele>709.0</ele><time>2026-04-02T10:25:12.704Z</time></trkpt><trkpt lat="42.8473665" lon="12.2214967"><ele>709.0</ele><time>2026-04-02T10:25:13.708Z</time></trkpt><trkpt lat="42.8475105" lon="12.2215087"><ele>709.0</ele><time>2026-04-02T10:25:14.711Z</time></trkpt><trkpt lat="42.8476529" lon="12.2215193"><ele>709.0</ele><time>2026-04-02T10:25:15.709Z</time></trkpt><trkpt lat="42.8477996" lon="12.22153"><ele>709.25</ele><time>2026-04-02T10:25:16.71Z</time></trkpt><trkpt lat="42.8479442" lon="12.2215458"><ele>709.5</ele><time>2026-04-02T10:25:17.708Z</time></trkpt><trkpt lat="42.8480863" lon="12.2215617"><ele>709.75</ele><time>2026-04-02T10:25:18.709Z</time></trkpt><trkpt lat="42.8482271" lon="12.2215783"><ele>710.0</ele><time>2026-04-02T10:25:19.706Z</time></trkpt><trkpt lat="42.848371" lon="12.2215763"><ele>710.0</ele><time>2026-04-02T10:25:20.712Z</time></trkpt><trkpt lat="42.8485112" lon="12.2215423"><ele>710.0</ele><time>2026-04-02T10:25:21.704Z</time></trkpt><trkpt lat="42.8486445" lon="12.2215027"><ele>710.0</ele><time>2026-04-02T10:25:22.707Z</time></trkpt><trkpt lat="42.8487906" lon="12.2214488"><ele>710.0</ele><time>2026-04-02T10:25:23.712Z</time></trkpt><trkpt lat="42.8489394" lon="12.2213794"><ele>710.3333333333333</ele><time>2026-04-02T10:25:24.706Z</time></trkpt><trkpt lat="42.8490881" lon="12.2213123"><ele>710.6666666666666</ele><time>2026-04-02T10:25:25.707Z</time></trkpt><trkpt lat="42.84924" lon="12.2212485"><ele>711.0</ele><time>2026-04-02T10:25:26.707Z</time></trkpt><trkpt lat="42.8493931" lon="12.2211891"><ele>711.0</ele><time>2026-04-02T10:25:27.709Z</time></trkpt><trkpt lat="42.8495436" lon="12.2211366"><ele>711.0</ele><time>2026-04-02T10:25:28.706Z</time></trkpt><trkpt lat="42.849687" lon="12.2210819"><ele>711.0</ele><time>2026-04-02T10:25:29.713Z</time></trkpt><trkpt lat="42.8498379" lon="12.2210209"><ele>711.0</ele><time>2026-04-02T10:25:30.707Z</time></trkpt><trkpt lat="42.84999" lon="12.2209693"><ele>711.0</ele><time>2026-04-02T10:25:31.707Z</time></trkpt><trkpt lat="42.8501411" lon="12.2209164"><ele>711.0</ele><time>2026-04-02T10:25:32.707Z</time></trkpt><trkpt lat="42.8502899" lon="12.2208504"><ele>709.3333333333334</ele><time>2026-04-02T10:25:33.707Z</time></trkpt><trkpt lat="42.850435" lon="12.2207771"><ele>707.6666666666667</ele><time>2026-04-02T10:25:34.712Z</time></trkpt><trkpt lat="42.8505848" lon="12.2206626"><ele>706.0</ele><time>2026-04-02T10:25:35.709Z</time></trkpt><trkpt lat="42.8507165" lon="12.2205393"><ele>705.75</ele><time>2026-04-02T10:25:36.706Z</time></trkpt><trkpt lat="42.8508126" lon="12.2203924"><ele>705.5</ele><time>2026-04-02T10:25:37.706Z</time></trkpt><trkpt lat="42.850874" lon="12.2202181"><ele>705.25</ele><time>2026-04-02T10:25:38.713Z</time></trkpt><trkpt lat="42.8508984" lon="12.2200219"><ele>705.0</ele><time>2026-04-02T10:25:39.708Z</time></trkpt><trkpt lat="42.8508989" lon="12.2198139"><ele>704.75</ele><time>2026-04-02T10:25:40.707Z</time></trkpt><trkpt lat="42.8508796" lon="12.2196116"><ele>704.5</ele><time>2026-04-02T10:25:41.709Z</time></trkpt><trkpt lat="42.8508676" lon="12.2194186"><ele>704.25</ele><time>2026-04-02T10:25:42.709Z</time></trkpt><trkpt lat="42.8508868" lon="12.2192513"><ele>704.0</ele><time>2026-04-02T10:25:43.708Z</time></trkpt><trkpt lat="42.8509367" lon="12.2191039"><ele>702.75</ele><time>2026-04-02T10:25:44.709Z</time></trkpt><trkpt lat="42.8510093" lon="12.219012"><ele>701.5</ele><time>2026-04-02T10:25:45.708Z</time></trkpt><trkpt lat="42.8511119" lon="12.2189718"><ele>700.25</ele><time>2026-04-02T10:25:46.705Z</time></trkpt><trkpt lat="42.8512301" lon="12.2189686"><ele>699.0</ele><time>2026-04-02T10:25:47.706Z</time></trkpt><trkpt lat="42.8513618" lon="12.2189796"><ele>702.25</ele><time>2026-04-02T10:25:48.707Z</time></trkpt><trkpt lat="42.851496" lon="12.218999"><ele>705.5</ele><time>2026-04-02T10:25:49.708Z</time></trkpt><trkpt lat="42.8516332" lon="12.219022"><ele>708.75</ele><time>2026-04-02T10:25:50.71Z</time></trkpt><trkpt lat="42.8517772" lon="12.219048"><ele>712.0</ele><time>2026-04-02T10:25:51.706Z</time></trkpt><trkpt lat="42.8519194" lon="12.2190731"><ele>712.0</ele><time>2026-04-02T10:25:52.709Z</time></trkpt><trkpt lat="42.8520618" lon="12.2191059"><ele>712.0</ele><time>2026-04-02T10:25:53.708Z</time></trkpt><trkpt lat="42.8521979" lon="12.2191371"><ele>712.0</ele><time>2026-04-02T10:25:54.707Z</time></trkpt><trkpt lat="42.8523229" lon="12.2191594"><ele>712.0</ele><time>2026-04-02T10:25:55.707Z</time></trkpt><trkpt lat="42.8524471" lon="12.2191931"><ele>712.0</ele><time>2026-04-02T10:25:56.704Z</time></trkpt><trkpt lat="42.8525767" lon="12.2192291"><ele>712.0</ele><time>2026-04-02T10:25:57.708Z</time></trkpt><trkpt lat="42.8527186" lon="12.2192619"><ele>712.0</ele><time>2026-04-02T10:25:58.706Z</time></trkpt><trkpt lat="42.8528607" lon="12.2192945"><ele>712.0</ele><time>2026-04-02T10:25:59.709Z</time></trkpt><trkpt lat="42.8530079" lon="12.2193248"><ele>710.0</ele><time>2026-04-02T10:26:00.706Z</time></trkpt><trkpt lat="42.8531575" lon="12.2193596"><ele>708.0</ele><time>2026-04-02T10:26:01.708Z</time></trkpt><trkpt lat="42.8533048" lon="12.2193884"><ele>706.0</ele><time>2026-04-02T10:26:02.707Z</time></trkpt><trkpt lat="42.8534571" lon="12.2194035"><ele>705.0</ele><time>2026-04-02T10:26:03.708Z</time></trkpt><trkpt lat="42.8536058" lon="12.2194167"><ele>704.0</ele><time>2026-04-02T10:26:04.706Z</time></trkpt><trkpt lat="42.8537408" lon="12.2194442"><ele>703.0</ele><time>2026-04-02T10:26:05.711Z</time></trkpt><trkpt lat="42.8538716" lon="12.2194876"><ele>702.0</ele><time>2026-04-02T10:26:06.711Z</time></trkpt><trkpt lat="42.8539724" lon="12.2195991"><ele>702.0</ele><time>2026-04-02T10:26:07.706Z</time></trkpt><trkpt lat="42.8540461" lon="12.2197529"><ele>702.0</ele><time>2026-04-02T10:26:08.703Z</time></trkpt><trkpt lat="42.8541242" lon="12.2198992"><ele>702.0</ele><time>2026-04-02T10:26:09.709Z</time></trkpt><trkpt lat="42.8542269" lon="12.2200158"><ele>702.0</ele><time>2026-04-02T10:26:10.708Z</time></trkpt><trkpt lat="42.8543496" lon="12.2200894"><ele>702.5</ele><time>2026-04-02T10:26:11.705Z</time></trkpt><trkpt lat="42.8544784" lon="12.2201354"><ele>703.0</ele><time>2026-04-02T10:26:12.707Z</time></trkpt><trkpt lat="42.8546108" lon="12.2201278"><ele>703.5</ele><time>2026-04-02T10:26:13.71Z</time></trkpt><trkpt lat="42.8547462" lon="12.2200613"><ele>704.0</ele><time>2026-04-02T10:26:14.706Z</time></trkpt><trkpt lat="42.8548619" lon="12.2199749"><ele>704.0</ele><time>2026-04-02T10:26:15.707Z</time></trkpt><trkpt lat="42.8549707" lon="12.2198366"><ele>704.0</ele><time>2026-04-02T10:26:16.709Z</time></trkpt><trkpt lat="42.8550924" lon="12.2197177"><ele>704.0</ele><time>2026-04-02T10:26:17.708Z</time></trkpt><trkpt lat="42.8552124" lon="12.2196374"><ele>704.0</ele><time>2026-04-02T10:26:18.71Z</time></trkpt><trkpt lat="42.8553754" lon="12.2195916"><ele>698.3333333333333</ele><time>2026-04-02T10:26:19.707Z</time></trkpt><trkpt lat="42.8555274" lon="12.2195594"><ele>692.6666666666666</ele><time>2026-04-02T10:26:20.709Z</time></trkpt><trkpt lat="42.8556931" lon="12.2195662"><ele>687.0</ele><time>2026-04-02T10:26:21.708Z</time></trkpt><trkpt lat="42.8558394" lon="12.2195778"><ele>687.0</ele><time>2026-04-02T10:26:22.711Z</time></trkpt><trkpt lat="42.8559876" lon="12.2196151"><ele>687.0</ele><time>2026-04-02T10:26:23.708Z</time></trkpt><trkpt lat="42.8561003" lon="12.2196946"><ele>687.0</ele><time>2026-04-02T10:26:24.707Z</time></trkpt><trkpt lat="42.8561946" lon="12.2198017"><ele>687.0</ele><time>2026-04-02T10:26:25.712Z</time></trkpt><trkpt lat="42.856258" lon="12.2199584"><ele>687.0</ele><time>2026-04-02T10:26:26.705Z</time></trkpt><trkpt lat="42.8562965" lon="12.2201429"><ele>687.0</ele><time>2026-04-02T10:26:27.71Z</time></trkpt><trkpt lat="42.8563169" lon="12.2203381"><ele>687.0</ele><time>2026-04-02T10:26:28.71Z</time></trkpt><trkpt lat="42.8563585" lon="12.2205034"><ele>687.0</ele><time>2026-04-02T10:26:29.708Z</time></trkpt><trkpt lat="42.8564316" lon="12.220646"><ele>687.2</ele><time>2026-04-02T10:26:30.704Z</time></trkpt><trkpt lat="42.856537" lon="12.2207316"><ele>687.4000000000001</ele><time>2026-04-02T10:26:31.709Z</time></trkpt><trkpt lat="42.8566366" lon="12.2207659"><ele>687.5999999999999</ele><time>2026-04-02T10:26:32.708Z</time></trkpt><trkpt lat="42.8567393" lon="12.2207506"><ele>687.8</ele><time>2026-04-02T10:26:33.708Z</time></trkpt><trkpt lat="42.8568401" lon="12.2206764"><ele>688.0</ele><time>2026-04-02T10:26:34.706Z</time></trkpt><trkpt lat="42.8569125" lon="12.220595"><ele>688.0</ele><time>2026-04-02T10:26:35.711Z</time></trkpt><trkpt lat="42.8569569" lon="12.2204763"><ele>688.0</ele><time>2026-04-02T10:26:36.704Z</time></trkpt><trkpt lat="42.8570221" lon="12.2202949"><ele>688.0</ele><time>2026-04-02T10:26:37.707Z</time></trkpt><trkpt lat="42.8571074" lon="12.2201471"><ele>688.0</ele><time>2026-04-02T10:26:38.704Z</time></trkpt><trkpt lat="42.8572092" lon="12.2200276"><ele>688.0</ele><time>2026-04-02T10:26:39.708Z</time></trkpt><trkpt lat="42.8573197" lon="12.2199626"><ele>688.0</ele><time>2026-04-02T10:26:40.705Z</time></trkpt><trkpt lat="42.8574328" lon="12.2199541"><ele>688.0</ele><time>2026-04-02T10:26:41.706Z</time></trkpt><trkpt lat="42.8575335" lon="12.2199988"><ele>688.0</ele><time>2026-04-02T10:26:42.71Z</time></trkpt><trkpt lat="42.8576108" lon="12.2200874"><ele>688.0</ele><time>2026-04-02T10:26:43.707Z</time></trkpt><trkpt lat="42.8576392" lon="12.2202045"><ele>687.75</ele><time>2026-04-02T10:26:44.718Z</time></trkpt><trkpt lat="42.8576618" lon="12.2203238"><ele>687.5</ele><time>2026-04-02T10:26:45.704Z</time></trkpt><trkpt lat="42.857651" lon="12.220476"><ele>687.25</ele><time>2026-04-02T10:26:46.704Z</time></trkpt><trkpt lat="42.8576106" lon="12.2206625"><ele>687.0</ele><time>2026-04-02T10:26:47.708Z</time></trkpt><trkpt lat="42.8575795" lon="12.2208449"><ele>687.5</ele><time>2026-04-02T10:26:48.707Z</time></trkpt><trkpt lat="42.8575464" lon="12.2210508"><ele>688.0</ele><time>2026-04-02T10:26:49.707Z</time></trkpt><trkpt lat="42.8575129" lon="12.2212507"><ele>688.5</ele><time>2026-04-02T10:26:50.71Z</time></trkpt><trkpt lat="42.8574767" lon="12.2214307"><ele>689.0</ele><time>2026-04-02T10:26:51.707Z</time></trkpt><trkpt lat="42.8574437" lon="12.2216125"><ele>687.4000000000001</ele><time>2026-04-02T10:26:52.705Z</time></trkpt><trkpt lat="42.8574065" lon="12.2217839"><ele>685.8</ele><time>2026-04-02T10:26:53.71Z</time></trkpt><trkpt lat="42.8573746" lon="12.2219346"><ele>684.2</ele><time>2026-04-02T10:26:54.706Z</time></trkpt><trkpt lat="42.8573439" lon="12.2220802"><ele>682.5999999999999</ele><time>2026-04-02T10:26:55.707Z</time></trkpt><trkpt lat="42.8573274" lon="12.2222036"><ele>681.0</ele><time>2026-04-02T10:26:56.704Z</time></trkpt><trkpt lat="42.8573252" lon="12.2223207"><ele>681.0</ele><time>2026-04-02T10:26:57.712Z</time></trkpt><trkpt lat="42.8573876" lon="12.2224679"><ele>681.0</ele><time>2026-04-02T10:26:59.705Z</time></trkpt><trkpt lat="42.8574736" lon="12.2224323"><ele>681.0</ele><time>2026-04-02T10:27:00.707Z</time></trkpt><trkpt lat="42.8575314" lon="12.2223512"><ele>681.0</ele><time>2026-04-02T10:27:01.71Z</time></trkpt><trkpt lat="42.8575585" lon="12.2222334"><ele>681.0</ele><time>2026-04-02T10:27:02.709Z</time></trkpt><trkpt lat="42.8575686" lon="12.2220856"><ele>681.0</ele><time>2026-04-02T10:27:03.707Z</time></trkpt><trkpt lat="42.8575859" lon="12.2219301"><ele>681.0</ele><time>2026-04-02T10:27:04.706Z</time></trkpt><trkpt lat="42.857621" lon="12.2217577"><ele>681.0</ele><time>2026-04-02T10:27:05.705Z</time></trkpt><trkpt lat="42.8576555" lon="12.2216084"><ele>681.0</ele><time>2026-04-02T10:27:06.707Z</time></trkpt><trkpt lat="42.8577268" lon="12.2214534"><ele>681.8</ele><time>2026-04-02T10:27:07.706Z</time></trkpt><trkpt lat="42.8578014" lon="12.2213157"><ele>682.5999999999999</ele><time>2026-04-02T10:27:08.711Z</time></trkpt><trkpt lat="42.8578809" lon="12.2211999"><ele>683.4</ele><time>2026-04-02T10:27:09.708Z</time></trkpt><trkpt lat="42.8579722" lon="12.221133"><ele>684.2</ele><time>2026-04-02T10:27:10.711Z</time></trkpt><trkpt lat="42.8580709" lon="12.2211138"><ele>685.0</ele><time>2026-04-02T10:27:11.706Z</time></trkpt><trkpt lat="42.8581617" lon="12.2211475"><ele>685.0</ele><time>2026-04-02T10:27:12.709Z</time></trkpt><trkpt lat="42.8582721" lon="12.2212374"><ele>685.0</ele><time>2026-04-02T10:27:13.703Z</time></trkpt><trkpt lat="42.8583663" lon="12.2213611"><ele>685.0</ele><time>2026-04-02T10:27:14.707Z</time></trkpt><trkpt lat="42.8584528" lon="12.221486"><ele>685.0</ele><time>2026-04-02T10:27:15.706Z</time></trkpt><trkpt lat="42.8585371" lon="12.2216004"><ele>682.2</ele><time>2026-04-02T10:27:16.706Z</time></trkpt><trkpt lat="42.858617" lon="12.2217137"><ele>679.4</ele><time>2026-04-02T10:27:17.705Z</time></trkpt><trkpt lat="42.858691" lon="12.2218278"><ele>676.5999999999999</ele><time>2026-04-02T10:27:18.708Z</time></trkpt><trkpt lat="42.8587672" lon="12.2219027"><ele>673.8</ele><time>2026-04-02T10:27:19.712Z</time></trkpt><trkpt lat="42.8588614" lon="12.2219204"><ele>671.0</ele><time>2026-04-02T10:27:20.708Z</time></trkpt><trkpt lat="42.858955" lon="12.2218713"><ele>671.0</ele><time>2026-04-02T10:27:21.708Z</time></trkpt><trkpt lat="42.8590433" lon="12.2217919"><ele>671.0</ele><time>2026-04-02T10:27:22.707Z</time></trkpt><trkpt lat="42.8591301" lon="12.2217229"><ele>671.0</ele><time>2026-04-02T10:27:23.706Z</time></trkpt><trkpt lat="42.8592195" lon="12.2217026"><ele>671.0</ele><time>2026-04-02T10:27:24.711Z</time></trkpt><trkpt lat="42.8593019" lon="12.2217168"><ele>671.0</ele><time>2026-04-02T10:27:25.707Z</time></trkpt><trkpt lat="42.8593678" lon="12.2217824"><ele>672.0</ele><time>2026-04-02T10:27:26.71Z</time></trkpt><trkpt lat="42.8594312" lon="12.2219987"><ele>673.0</ele><time>2026-04-02T10:27:27.709Z</time></trkpt><trkpt lat="42.8594818" lon="12.222158"><ele>674.0</ele><time>2026-04-02T10:27:28.706Z</time></trkpt><trkpt lat="42.8595556" lon="12.2222925"><ele>675.0</ele><time>2026-04-02T10:27:29.709Z</time></trkpt><trkpt lat="42.8596567" lon="12.2223955"><ele>670.6666666666666</ele><time>2026-04-02T10:27:30.711Z</time></trkpt><trkpt lat="42.8597943" lon="12.2224486"><ele>666.3333333333333</ele><time>2026-04-02T10:27:31.709Z</time></trkpt><trkpt lat="42.8599368" lon="12.2225014"><ele>662.0</ele><time>2026-04-02T10:27:32.707Z</time></trkpt><trkpt lat="42.8601038" lon="12.2225476"><ele>662.3333333333333</ele><time>2026-04-02T10:27:33.71Z</time></trkpt><trkpt lat="42.8602741" lon="12.2225621"><ele>662.6666666666666</ele><time>2026-04-02T10:27:34.711Z</time></trkpt><trkpt lat="42.8604236" lon="12.2225368"><ele>663.0</ele><time>2026-04-02T10:27:35.707Z</time></trkpt><trkpt lat="42.8605639" lon="12.2225327"><ele>663.0</ele><time>2026-04-02T10:27:36.705Z</time></trkpt><trkpt lat="42.8606643" lon="12.2225993"><ele>663.0</ele><time>2026-04-02T10:27:37.707Z</time></trkpt><trkpt lat="42.8608646" lon="12.2228622"><ele>663.0</ele><time>2026-04-02T10:27:39.705Z</time></trkpt><trkpt lat="42.8609711" lon="12.2230376"><ele>660.75</ele><time>2026-04-02T10:27:40.713Z</time></trkpt><trkpt lat="42.8610762" lon="12.2231908"><ele>658.5</ele><time>2026-04-02T10:27:41.707Z</time></trkpt><trkpt lat="42.861188" lon="12.2233137"><ele>656.25</ele><time>2026-04-02T10:27:42.709Z</time></trkpt><trkpt lat="42.8613021" lon="12.2234053"><ele>654.0</ele><time>2026-04-02T10:27:43.707Z</time></trkpt><trkpt lat="42.8614461" lon="12.2234436"><ele>654.0</ele><time>2026-04-02T10:27:44.71Z</time></trkpt><trkpt lat="42.8615898" lon="12.22342"><ele>654.0</ele><time>2026-04-02T10:27:45.708Z</time></trkpt><trkpt lat="42.8617294" lon="12.2233847"><ele>654.0</ele><time>2026-04-02T10:27:46.708Z</time></trkpt><trkpt lat="42.8618836" lon="12.223384"><ele>654.0</ele><time>2026-04-02T10:27:47.706Z</time></trkpt><trkpt lat="42.8620383" lon="12.2234214"><ele>654.5</ele><time>2026-04-02T10:27:48.706Z</time></trkpt><trkpt lat="42.8621855" lon="12.2235277"><ele>655.0</ele><time>2026-04-02T10:27:49.705Z</time></trkpt><trkpt lat="42.8625027" lon="12.2239295"><ele>651.4</ele><time>2026-04-02T10:27:52.709Z</time></trkpt><trkpt lat="42.8625671" lon="12.2240689"><ele>647.8</ele><time>2026-04-02T10:27:53.711Z</time></trkpt><trkpt lat="42.8626333" lon="12.2241802"><ele>644.2</ele><time>2026-04-02T10:27:54.708Z</time></trkpt><trkpt lat="42.8627181" lon="12.2242514"><ele>640.6</ele><time>2026-04-02T10:27:55.709Z</time></trkpt><trkpt lat="42.8628122" lon="12.2242577"><ele>637.0</ele><time>2026-04-02T10:27:56.707Z</time></trkpt><trkpt lat="42.8629028" lon="12.2242455"><ele>635.0</ele><time>2026-04-02T10:27:57.71Z</time></trkpt><trkpt lat="42.8630067" lon="12.2240786"><ele>633.0</ele><time>2026-04-02T10:27:58.707Z</time></trkpt><trkpt lat="42.8631082" lon="12.2239403"><ele>631.0</ele><time>2026-04-02T10:27:59.706Z</time></trkpt><trkpt lat="42.8632433" lon="12.2238106"><ele>634.3333333333334</ele><time>2026-04-02T10:28:00.707Z</time></trkpt><trkpt lat="42.8633882" lon="12.2237126"><ele>637.6666666666666</ele><time>2026-04-02T10:28:01.709Z</time></trkpt><trkpt lat="42.863542" lon="12.2236571"><ele>641.0</ele><time>2026-04-02T10:28:02.705Z</time></trkpt><trkpt lat="42.8636993" lon="12.223645"><ele>641.0</ele><time>2026-04-02T10:28:03.705Z</time></trkpt><trkpt lat="42.863865" lon="12.2236556"><ele>641.0</ele><time>2026-04-02T10:28:04.713Z</time></trkpt><trkpt lat="42.8640253" lon="12.2236734"><ele>641.0</ele><time>2026-04-02T10:28:05.704Z</time></trkpt><trkpt lat="42.864179" lon="12.2236912"><ele>642.0</ele><time>2026-04-02T10:28:06.71Z</time></trkpt><trkpt lat="42.8643556" lon="12.2237302"><ele>643.0</ele><time>2026-04-02T10:28:07.709Z</time></trkpt><trkpt lat="42.8645143" lon="12.2237901"><ele>644.0</ele><time>2026-04-02T10:28:08.706Z</time></trkpt><trkpt lat="42.8646556" lon="12.223879"><ele>644.0</ele><time>2026-04-02T10:28:09.706Z</time></trkpt><trkpt lat="42.864791" lon="12.223972"><ele>644.0</ele><time>2026-04-02T10:28:10.708Z</time></trkpt><trkpt lat="42.864885" lon="12.2241236"><ele>644.0</ele><time>2026-04-02T10:28:11.706Z</time></trkpt><trkpt lat="42.8649739" lon="12.2243176"><ele>645.0</ele><time>2026-04-02T10:28:12.705Z</time></trkpt><trkpt lat="42.8650517" lon="12.2245268"><ele>646.0</ele><time>2026-04-02T10:28:13.707Z</time></trkpt><trkpt lat="42.8650994" lon="12.2247648"><ele>647.0</ele><time>2026-04-02T10:28:14.708Z</time></trkpt><trkpt lat="42.8651243" lon="12.2249876"><ele>647.0</ele><time>2026-04-02T10:28:15.709Z</time></trkpt><trkpt lat="42.8651324" lon="12.2252061"><ele>647.0</ele><time>2026-04-02T10:28:16.709Z</time></trkpt><trkpt lat="42.8651401" lon="12.2253951"><ele>647.0</ele><time>2026-04-02T10:28:17.717Z</time></trkpt><trkpt lat="42.8651554" lon="12.2255696"><ele>647.0</ele><time>2026-04-02T10:28:18.713Z</time></trkpt><trkpt lat="42.8651744" lon="12.2257356"><ele>642.6</ele><time>2026-04-02T10:28:19.716Z</time></trkpt><trkpt lat="42.8652363" lon="12.2258795"><ele>638.2</ele><time>2026-04-02T10:28:20.706Z</time></trkpt><trkpt lat="42.8653074" lon="12.2259951"><ele>633.8</ele><time>2026-04-02T10:28:21.71Z</time></trkpt><trkpt lat="42.8653912" lon="12.2260823"><ele>629.4</ele><time>2026-04-02T10:28:22.711Z</time></trkpt><trkpt lat="42.8654928" lon="12.2261252"><ele>625.0</ele><time>2026-04-02T10:28:23.707Z</time></trkpt><trkpt lat="42.865679" lon="12.2260384"><ele>625.0</ele><time>2026-04-02T10:28:24.705Z</time></trkpt><trkpt lat="42.8658666" lon="12.2259738"><ele>625.0</ele><time>2026-04-02T10:28:25.708Z</time></trkpt><trkpt lat="42.8660603" lon="12.2259765"><ele>625.0</ele><time>2026-04-02T10:28:26.709Z</time></trkpt><trkpt lat="42.8662358" lon="12.2259937"><ele>624.75</ele><time>2026-04-02T10:28:27.707Z</time></trkpt><trkpt lat="42.8663965" lon="12.2259798"><ele>624.5</ele><time>2026-04-02T10:28:28.708Z</time></trkpt><trkpt lat="42.8665302" lon="12.2259386"><ele>624.25</ele><time>2026-04-02T10:28:29.708Z</time></trkpt><trkpt lat="42.8666484" lon="12.2259393"><ele>624.0</ele><time>2026-04-02T10:28:30.707Z</time></trkpt><trkpt lat="42.8667431" lon="12.2259943"><ele>625.5</ele><time>2026-04-02T10:28:31.706Z</time></trkpt><trkpt lat="42.8668108" lon="12.2260862"><ele>627.0</ele><time>2026-04-02T10:28:32.708Z</time></trkpt><trkpt lat="42.8668547" lon="12.2262437"><ele>628.5</ele><time>2026-04-02T10:28:33.709Z</time></trkpt><trkpt lat="42.8668902" lon="12.226413"><ele>630.0</ele><time>2026-04-02T10:28:34.707Z</time></trkpt><trkpt lat="42.8669164" lon="12.2265938"><ele>630.0</ele><time>2026-04-02T10:28:35.711Z</time></trkpt><trkpt lat="42.8669495" lon="12.226769"><ele>630.0</ele><time>2026-04-02T10:28:36.71Z</time></trkpt><trkpt lat="42.8669602" lon="12.2269492"><ele>630.0</ele><time>2026-04-02T10:28:37.709Z</time></trkpt><trkpt lat="42.8669654" lon="12.2271383"><ele>630.0</ele><time>2026-04-02T10:28:38.713Z</time></trkpt><trkpt lat="42.8669279" lon="12.2273258"><ele>626.6666666666666</ele><time>2026-04-02T10:28:39.711Z</time></trkpt><trkpt lat="42.8668689" lon="12.227498"><ele>623.3333333333333</ele><time>2026-04-02T10:28:40.708Z</time></trkpt><trkpt lat="42.8668463" lon="12.2277107"><ele>620.0</ele><time>2026-04-02T10:28:41.71Z</time></trkpt><trkpt lat="42.866828" lon="12.227924"><ele>620.0</ele><time>2026-04-02T10:28:42.709Z</time></trkpt><trkpt lat="42.8668235" lon="12.2281168"><ele>620.0</ele><time>2026-04-02T10:28:43.714Z</time></trkpt><trkpt lat="42.8668552" lon="12.228304"><ele>620.0</ele><time>2026-04-02T10:28:44.707Z</time></trkpt><trkpt lat="42.8669234" lon="12.2284688"><ele>620.0</ele><time>2026-04-02T10:28:45.71Z</time></trkpt><trkpt lat="42.8670034" lon="12.2286167"><ele>615.75</ele><time>2026-04-02T10:28:46.711Z</time></trkpt><trkpt lat="42.8670838" lon="12.2287595"><ele>611.5</ele><time>2026-04-02T10:28:47.705Z</time></trkpt><trkpt lat="42.8671461" lon="12.2288868"><ele>607.25</ele><time>2026-04-02T10:28:48.709Z</time></trkpt><trkpt lat="42.8671897" lon="12.2290217"><ele>603.0</ele><time>2026-04-02T10:28:49.71Z</time></trkpt><trkpt lat="42.8672217" lon="12.2291545"><ele>601.1999999999999</ele><time>2026-04-02T10:28:50.705Z</time></trkpt><trkpt lat="42.8672223" lon="12.2292996"><ele>599.4</ele><time>2026-04-02T10:28:51.711Z</time></trkpt><trkpt lat="42.867206" lon="12.2294344"><ele>597.5999999999999</ele><time>2026-04-02T10:28:52.705Z</time></trkpt><trkpt lat="42.867161" lon="12.2295199"><ele>595.8</ele><time>2026-04-02T10:28:53.71Z</time></trkpt><trkpt lat="42.8670839" lon="12.2295812"><ele>594.0</ele><time>2026-04-02T10:28:54.71Z</time></trkpt><trkpt lat="42.8669905" lon="12.229632"><ele>594.0</ele><time>2026-04-02T10:28:55.707Z</time></trkpt><trkpt lat="42.8667861" lon="12.2296844"><ele>594.0</ele><time>2026-04-02T10:28:56.71Z</time></trkpt><trkpt lat="42.8665678" lon="12.2297104"><ele>594.0</ele><time>2026-04-02T10:28:57.707Z</time></trkpt><trkpt lat="42.8664066" lon="12.2297372"><ele>594.25</ele><time>2026-04-02T10:28:58.704Z</time></trkpt><trkpt lat="42.8662679" lon="12.2297649"><ele>594.5</ele><time>2026-04-02T10:28:59.706Z</time></trkpt><trkpt lat="42.8661575" lon="12.2298473"><ele>594.75</ele><time>2026-04-02T10:29:00.707Z</time></trkpt><trkpt lat="42.8660734" lon="12.2299597"><ele>595.0</ele><time>2026-04-02T10:29:01.705Z</time></trkpt><trkpt lat="42.8660303" lon="12.2301025"><ele>595.0</ele><time>2026-04-02T10:29:02.708Z</time></trkpt><trkpt lat="42.8660019" lon="12.230263"><ele>595.0</ele><time>2026-04-02T10:29:03.703Z</time></trkpt><trkpt lat="42.8660143" lon="12.2304611"><ele>595.0</ele><time>2026-04-02T10:29:04.706Z</time></trkpt><trkpt lat="42.866068" lon="12.2306567"><ele>595.0</ele><time>2026-04-02T10:29:05.706Z</time></trkpt><trkpt lat="42.8662535" lon="12.2308244"><ele>593.3333333333334</ele><time>2026-04-02T10:29:06.706Z</time></trkpt><trkpt lat="42.8664139" lon="12.231011"><ele>591.6666666666666</ele><time>2026-04-02T10:29:07.707Z</time></trkpt><trkpt lat="42.8665559" lon="12.2311956"><ele>590.0</ele><time>2026-04-02T10:29:08.709Z</time></trkpt><trkpt lat="42.8666928" lon="12.2313501"><ele>585.25</ele><time>2026-04-02T10:29:09.704Z</time></trkpt><trkpt lat="42.8667989" lon="12.2314911"><ele>580.5</ele><time>2026-04-02T10:29:10.706Z</time></trkpt><trkpt lat="42.8668714" lon="12.2316326"><ele>575.75</ele><time>2026-04-02T10:29:11.708Z</time></trkpt><trkpt lat="42.8669061" lon="12.2317792"><ele>571.0</ele><time>2026-04-02T10:29:12.708Z</time></trkpt><trkpt lat="42.8669036" lon="12.2319571"><ele>571.0</ele><time>2026-04-02T10:29:13.704Z</time></trkpt><trkpt lat="42.866861" lon="12.2321388"><ele>571.0</ele><time>2026-04-02T10:29:14.71Z</time></trkpt><trkpt lat="42.8668059" lon="12.2323236"><ele>571.0</ele><time>2026-04-02T10:29:15.716Z</time></trkpt><trkpt lat="42.8667233" lon="12.2324766"><ele>571.0</ele><time>2026-04-02T10:29:16.705Z</time></trkpt><trkpt lat="42.8666236" lon="12.2325646"><ele>572.3333333333334</ele><time>2026-04-02T10:29:17.71Z</time></trkpt><trkpt lat="42.8664959" lon="12.232634"><ele>573.6666666666666</ele><time>2026-04-02T10:29:18.709Z</time></trkpt><trkpt lat="42.8663505" lon="12.2326528"><ele>575.0</ele><time>2026-04-02T10:29:19.707Z</time></trkpt><trkpt lat="42.8661717" lon="12.2326377"><ele>575.0</ele><time>2026-04-02T10:29:20.708Z</time></trkpt><trkpt lat="42.8659093" lon="12.2325575"><ele>575.0</ele><time>2026-04-02T10:29:21.706Z</time></trkpt><trkpt lat="42.8657133" lon="12.2325097"><ele>575.0</ele><time>2026-04-02T10:29:22.709Z</time></trkpt><trkpt lat="42.8655586" lon="12.2324887"><ele>575.0</ele><time>2026-04-02T10:29:23.708Z</time></trkpt><trkpt lat="42.8654437" lon="12.2325001"><ele>575.0</ele><time>2026-04-02T10:29:24.709Z</time></trkpt><trkpt lat="42.8653581" lon="12.2325473"><ele>575.0</ele><time>2026-04-02T10:29:25.708Z</time></trkpt><trkpt lat="42.865294" lon="12.232674"><ele>575.0</ele><time>2026-04-02T10:29:26.705Z</time></trkpt><trkpt lat="42.8652606" lon="12.2328578"><ele>575.0</ele><time>2026-04-02T10:29:27.703Z</time></trkpt><trkpt lat="42.8652441" lon="12.233056"><ele>575.0</ele><time>2026-04-02T10:29:28.71Z</time></trkpt><trkpt lat="42.8652013" lon="12.2332515"><ele>575.0</ele><time>2026-04-02T10:29:29.709Z</time></trkpt><trkpt lat="42.8650935" lon="12.2334682"><ele>572.75</ele><time>2026-04-02T10:29:30.713Z</time></trkpt><trkpt lat="42.8649945" lon="12.2336367"><ele>570.5</ele><time>2026-04-02T10:29:31.711Z</time></trkpt><trkpt lat="42.8649097" lon="12.2337832"><ele>568.25</ele><time>2026-04-02T10:29:32.706Z</time></trkpt><trkpt lat="42.8648566" lon="12.2339548"><ele>566.0</ele><time>2026-04-02T10:29:33.707Z</time></trkpt><trkpt lat="42.8648418" lon="12.2341485"><ele>565.6666666666666</ele><time>2026-04-02T10:29:34.709Z</time></trkpt><trkpt lat="42.864865" lon="12.2343836"><ele>565.3333333333334</ele><time>2026-04-02T10:29:35.705Z</time></trkpt><trkpt lat="42.8648956" lon="12.2346217"><ele>565.0</ele><time>2026-04-02T10:29:36.709Z</time></trkpt><trkpt lat="42.8649169" lon="12.2348333"><ele>566.0</ele><time>2026-04-02T10:29:37.707Z</time></trkpt><trkpt lat="42.8649577" lon="12.2350223"><ele>567.0</ele><time>2026-04-02T10:29:38.711Z</time></trkpt><trkpt lat="42.8650522" lon="12.2352049"><ele>568.0</ele><time>2026-04-02T10:29:39.709Z</time></trkpt><trkpt lat="42.8651585" lon="12.2353686"><ele>568.0</ele><time>2026-04-02T10:29:40.709Z</time></trkpt><trkpt lat="42.8652712" lon="12.235513"><ele>568.0</ele><time>2026-04-02T10:29:41.706Z</time></trkpt><trkpt lat="42.8653473" lon="12.2356533"><ele>568.0</ele><time>2026-04-02T10:29:42.706Z</time></trkpt><trkpt lat="42.8653892" lon="12.2357932"><ele>568.0</ele><time>2026-04-02T10:29:43.708Z</time></trkpt><trkpt lat="42.865391" lon="12.2359531"><ele>566.75</ele><time>2026-04-02T10:29:44.71Z</time></trkpt><trkpt lat="42.865357" lon="12.2361269"><ele>565.5</ele><time>2026-04-02T10:29:45.709Z</time></trkpt><trkpt lat="42.8652925" lon="12.2363055"><ele>564.25</ele><time>2026-04-02T10:29:46.709Z</time></trkpt><trkpt lat="42.8652155" lon="12.2365026"><ele>563.0</ele><time>2026-04-02T10:29:47.707Z</time></trkpt><trkpt lat="42.8651283" lon="12.2367127"><ele>558.6666666666666</ele><time>2026-04-02T10:29:48.706Z</time></trkpt><trkpt lat="42.8650352" lon="12.236955"><ele>554.3333333333334</ele><time>2026-04-02T10:29:49.709Z</time></trkpt><trkpt lat="42.8649412" lon="12.2372164"><ele>550.0</ele><time>2026-04-02T10:29:50.707Z</time></trkpt><trkpt lat="42.8648449" lon="12.2374627"><ele>549.0</ele><time>2026-04-02T10:29:51.713Z</time></trkpt><trkpt lat="42.864748" lon="12.2376998"><ele>548.0</ele><time>2026-04-02T10:29:52.705Z</time></trkpt><trkpt lat="42.8646683" lon="12.2379331"><ele>547.0</ele><time>2026-04-02T10:29:53.712Z</time></trkpt><trkpt lat="42.8646194" lon="12.2381942"><ele>545.0</ele><time>2026-04-02T10:29:54.71Z</time></trkpt><trkpt lat="42.8645846" lon="12.2384503"><ele>543.0</ele><time>2026-04-02T10:29:55.706Z</time></trkpt><trkpt lat="42.8645555" lon="12.2387673"><ele>541.0</ele><time>2026-04-02T10:29:56.706Z</time></trkpt><trkpt lat="42.864534" lon="12.2390568"><ele>541.0</ele><time>2026-04-02T10:29:57.707Z</time></trkpt><trkpt lat="42.864514" lon="12.2393046"><ele>541.0</ele><time>2026-04-02T10:29:58.71Z</time></trkpt><trkpt lat="42.8644787" lon="12.2395013"><ele>541.0</ele><time>2026-04-02T10:29:59.704Z</time></trkpt><trkpt lat="42.8644379" lon="12.2396966"><ele>541.6666666666667</ele><time>2026-04-02T10:30:00.711Z</time></trkpt><trkpt lat="42.8643631" lon="12.2398743"><ele>542.3333333333334</ele><time>2026-04-02T10:30:01.711Z</time></trkpt><trkpt lat="42.8642404" lon="12.2400418"><ele>543.0</ele><time>2026-04-02T10:30:02.708Z</time></trkpt><trkpt lat="42.8640817" lon="12.2401901"><ele>541.0</ele><time>2026-04-02T10:30:03.706Z</time></trkpt><trkpt lat="42.8638936" lon="12.2403247"><ele>539.0</ele><time>2026-04-02T10:30:04.712Z</time></trkpt><trkpt lat="42.8637053" lon="12.2404739"><ele>537.0</ele><time>2026-04-02T10:30:05.709Z</time></trkpt><trkpt lat="42.8634887" lon="12.2406147"><ele>535.0</ele><time>2026-04-02T10:30:06.707Z</time></trkpt><trkpt lat="42.863293" lon="12.2407495"><ele>533.0</ele><time>2026-04-02T10:30:07.711Z</time></trkpt><trkpt lat="42.8631167" lon="12.2408986"><ele>531.0</ele><time>2026-04-02T10:30:08.706Z</time></trkpt><trkpt lat="42.862949" lon="12.2410216"><ele>531.0</ele><time>2026-04-02T10:30:09.71Z</time></trkpt><trkpt lat="42.86279" lon="12.2411389"><ele>531.0</ele><time>2026-04-02T10:30:10.709Z</time></trkpt><trkpt lat="42.8626404" lon="12.2412481"><ele>531.0</ele><time>2026-04-02T10:30:11.705Z</time></trkpt><trkpt lat="42.8624907" lon="12.2413649"><ele>530.6666666666666</ele><time>2026-04-02T10:30:12.71Z</time></trkpt><trkpt lat="42.8623615" lon="12.2414803"><ele>530.3333333333333</ele><time>2026-04-02T10:30:13.71Z</time></trkpt><trkpt lat="42.862234" lon="12.2416081"><ele>530.0</ele><time>2026-04-02T10:30:14.708Z</time></trkpt><trkpt lat="42.8621083" lon="12.2417512"><ele>530.0</ele><time>2026-04-02T10:30:15.709Z</time></trkpt><trkpt lat="42.8620116" lon="12.2419041"><ele>530.0</ele><time>2026-04-02T10:30:16.707Z</time></trkpt><trkpt lat="42.8619337" lon="12.2420447"><ele>530.0</ele><time>2026-04-02T10:30:17.707Z</time></trkpt><trkpt lat="42.8618405" lon="12.2421459"><ele>530.0</ele><time>2026-04-02T10:30:18.713Z</time></trkpt><trkpt lat="42.8617189" lon="12.242217"><ele>524.75</ele><time>2026-04-02T10:30:19.708Z</time></trkpt><trkpt lat="42.8615832" lon="12.2422407"><ele>519.5</ele><time>2026-04-02T10:30:20.716Z</time></trkpt><trkpt lat="42.8614485" lon="12.2422224"><ele>514.25</ele><time>2026-04-02T10:30:21.707Z</time></trkpt><trkpt lat="42.8613291" lon="12.2422102"><ele>509.0</ele><time>2026-04-02T10:30:22.706Z</time></trkpt><trkpt lat="42.8612206" lon="12.2422163"><ele>509.0</ele><time>2026-04-02T10:30:23.709Z</time></trkpt><trkpt lat="42.861116" lon="12.2422639"><ele>509.0</ele><time>2026-04-02T10:30:24.709Z</time></trkpt><trkpt lat="42.861038" lon="12.2423373"><ele>509.0</ele><time>2026-04-02T10:30:25.707Z</time></trkpt><trkpt lat="42.8609854" lon="12.2424877"><ele>509.0</ele><time>2026-04-02T10:30:26.71Z</time></trkpt><trkpt lat="42.8609938" lon="12.2426585"><ele>506.75</ele><time>2026-04-02T10:30:27.705Z</time></trkpt><trkpt lat="42.8609848" lon="12.2428569"><ele>504.5</ele><time>2026-04-02T10:30:28.706Z</time></trkpt><trkpt lat="42.8609447" lon="12.2430109"><ele>502.25</ele><time>2026-04-02T10:30:29.707Z</time></trkpt><trkpt lat="42.8608598" lon="12.2431251"><ele>500.0</ele><time>2026-04-02T10:30:30.711Z</time></trkpt><trkpt lat="42.8607221" lon="12.2432034"><ele>500.0</ele><time>2026-04-02T10:30:31.703Z</time></trkpt><trkpt lat="42.8605892" lon="12.243271"><ele>500.0</ele><time>2026-04-02T10:30:32.71Z</time></trkpt><trkpt lat="42.8604206" lon="12.2433759"><ele>500.0</ele><time>2026-04-02T10:30:33.707Z</time></trkpt><trkpt lat="42.8602854" lon="12.2434978"><ele>500.0</ele><time>2026-04-02T10:30:34.708Z</time></trkpt><trkpt lat="42.8601702" lon="12.2436454"><ele>500.0</ele><time>2026-04-02T10:30:35.712Z</time></trkpt><trkpt lat="42.8600869" lon="12.243841"><ele>500.0</ele><time>2026-04-02T10:30:36.706Z</time></trkpt><trkpt lat="42.8600425" lon="12.2440666"><ele>498.0</ele><time>2026-04-02T10:30:37.703Z</time></trkpt><trkpt lat="42.8600258" lon="12.2443252"><ele>496.0</ele><time>2026-04-02T10:30:38.713Z</time></trkpt><trkpt lat="42.8600227" lon="12.2445716"><ele>494.0</ele><time>2026-04-02T10:30:39.707Z</time></trkpt><trkpt lat="42.8600295" lon="12.2447891"><ele>494.25</ele><time>2026-04-02T10:30:40.709Z</time></trkpt><trkpt lat="42.8600374" lon="12.2450033"><ele>494.5</ele><time>2026-04-02T10:30:41.708Z</time></trkpt><trkpt lat="42.8599964" lon="12.2451739"><ele>494.75</ele><time>2026-04-02T10:30:42.71Z</time></trkpt><trkpt lat="42.8599419" lon="12.2453439"><ele>495.0</ele><time>2026-04-02T10:30:43.707Z</time></trkpt><trkpt lat="42.8598515" lon="12.2455034"><ele>495.0</ele><time>2026-04-02T10:30:44.705Z</time></trkpt><trkpt lat="42.8597416" lon="12.2456092"><ele>495.0</ele><time>2026-04-02T10:30:45.708Z</time></trkpt><trkpt lat="42.859605" lon="12.2456879"><ele>495.0</ele><time>2026-04-02T10:30:46.703Z</time></trkpt><trkpt lat="42.8593569" lon="12.2457665"><ele>494.66666666666663</ele><time>2026-04-02T10:30:47.706Z</time></trkpt><trkpt lat="42.8591754" lon="12.2458769"><ele>494.3333333333333</ele><time>2026-04-02T10:30:48.709Z</time></trkpt><trkpt lat="42.8590331" lon="12.2460249"><ele>494.0</ele><time>2026-04-02T10:30:49.704Z</time></trkpt><trkpt lat="42.8589115" lon="12.2462155"><ele>494.0</ele><time>2026-04-02T10:30:50.706Z</time></trkpt><trkpt lat="42.8588089" lon="12.2464234"><ele>494.0</ele><time>2026-04-02T10:30:51.706Z</time></trkpt><trkpt lat="42.8587136" lon="12.2466222"><ele>494.0</ele><time>2026-04-02T10:30:52.707Z</time></trkpt><trkpt lat="42.8586363" lon="12.2468157"><ele>494.5</ele><time>2026-04-02T10:30:53.704Z</time></trkpt><trkpt lat="42.8585837" lon="12.2470015"><ele>495.0</ele><time>2026-04-02T10:30:54.707Z</time></trkpt><trkpt lat="42.858562" lon="12.2471958"><ele>495.5</ele><time>2026-04-02T10:30:55.707Z</time></trkpt><trkpt lat="42.8585826" lon="12.2473911"><ele>496.0</ele><time>2026-04-02T10:30:56.713Z</time></trkpt><trkpt lat="42.8586599" lon="12.2476084"><ele>496.0</ele><time>2026-04-02T10:30:57.708Z</time></trkpt><trkpt lat="42.8587452" lon="12.2478189"><ele>496.0</ele><time>2026-04-02T10:30:58.705Z</time></trkpt><trkpt lat="42.8588445" lon="12.2480368"><ele>496.0</ele><time>2026-04-02T10:30:59.707Z</time></trkpt><trkpt lat="42.8589766" lon="12.248249"><ele>496.6666666666667</ele><time>2026-04-02T10:31:00.709Z</time></trkpt><trkpt lat="42.8591346" lon="12.2484426"><ele>497.33333333333337</ele><time>2026-04-02T10:31:01.708Z</time></trkpt><trkpt lat="42.859298" lon="12.2486091"><ele>498.0</ele><time>2026-04-02T10:31:02.706Z</time></trkpt><trkpt lat="42.8594374" lon="12.2487738"><ele>498.0</ele><time>2026-04-02T10:31:03.71Z</time></trkpt><trkpt lat="42.8595631" lon="12.2489343"><ele>498.0</ele><time>2026-04-02T10:31:04.708Z</time></trkpt><trkpt lat="42.8596276" lon="12.2490725"><ele>498.0</ele><time>2026-04-02T10:31:05.716Z</time></trkpt><trkpt lat="42.859674" lon="12.2492317"><ele>498.0</ele><time>2026-04-02T10:31:06.709Z</time></trkpt><trkpt lat="42.859692" lon="12.2494098"><ele>496.33333333333337</ele><time>2026-04-02T10:31:07.705Z</time></trkpt><trkpt lat="42.8596601" lon="12.2496026"><ele>494.6666666666667</ele><time>2026-04-02T10:31:08.708Z</time></trkpt><trkpt lat="42.8595904" lon="12.2497968"><ele>493.0</ele><time>2026-04-02T10:31:09.714Z</time></trkpt><trkpt lat="42.8595145" lon="12.2499853"><ele>490.33333333333337</ele><time>2026-04-02T10:31:10.707Z</time></trkpt><trkpt lat="42.8593956" lon="12.2501753"><ele>487.66666666666663</ele><time>2026-04-02T10:31:11.707Z</time></trkpt><trkpt lat="42.8592428" lon="12.2503444"><ele>485.0</ele><time>2026-04-02T10:31:12.709Z</time></trkpt><trkpt lat="42.8590909" lon="12.250489"><ele>482.66666666666663</ele><time>2026-04-02T10:31:13.707Z</time></trkpt><trkpt lat="42.8589526" lon="12.2506475"><ele>480.33333333333337</ele><time>2026-04-02T10:31:14.707Z</time></trkpt><trkpt lat="42.8588593" lon="12.2508133"><ele>478.0</ele><time>2026-04-02T10:31:15.705Z</time></trkpt><trkpt lat="42.8587975" lon="12.250969"><ele>478.0</ele><time>2026-04-02T10:31:16.712Z</time></trkpt><trkpt lat="42.8588015" lon="12.2511446"><ele>478.0</ele><time>2026-04-02T10:31:17.71Z</time></trkpt><trkpt lat="42.8588507" lon="12.2513302"><ele>478.0</ele><time>2026-04-02T10:31:18.708Z</time></trkpt><trkpt lat="42.8589067" lon="12.2515266"><ele>478.0</ele><time>2026-04-02T10:31:19.709Z</time></trkpt><trkpt lat="42.8589594" lon="12.2517324"><ele>477.6666666666667</ele><time>2026-04-02T10:31:20.705Z</time></trkpt><trkpt lat="42.8590107" lon="12.251951"><ele>477.33333333333337</ele><time>2026-04-02T10:31:21.707Z</time></trkpt><trkpt lat="42.8590482" lon="12.252186"><ele>477.0</ele><time>2026-04-02T10:31:22.708Z</time></trkpt><trkpt lat="42.8590915" lon="12.2524322"><ele>477.0</ele><time>2026-04-02T10:31:23.71Z</time></trkpt><trkpt lat="42.8591323" lon="12.2526826"><ele>477.0</ele><time>2026-04-02T10:31:24.708Z</time></trkpt><trkpt lat="42.859176" lon="12.2529327"><ele>477.0</ele><time>2026-04-02T10:31:25.705Z</time></trkpt><trkpt lat="42.8592201" lon="12.2531886"><ele>476.0</ele><time>2026-04-02T10:31:26.709Z</time></trkpt><trkpt lat="42.8592693" lon="12.2534418"><ele>475.0</ele><time>2026-04-02T10:31:27.708Z</time></trkpt><trkpt lat="42.8593102" lon="12.253691"><ele>474.0</ele><time>2026-04-02T10:31:28.711Z</time></trkpt><trkpt lat="42.859333" lon="12.2539479"><ele>473.33333333333337</ele><time>2026-04-02T10:31:29.715Z</time></trkpt><trkpt lat="42.8593249" lon="12.254199"><ele>472.6666666666667</ele><time>2026-04-02T10:31:30.708Z</time></trkpt><trkpt lat="42.8593043" lon="12.2544296"><ele>472.0</ele><time>2026-04-02T10:31:31.712Z</time></trkpt><trkpt lat="42.8592819" lon="12.2546307"><ele>472.25</ele><time>2026-04-02T10:31:32.709Z</time></trkpt><trkpt lat="42.8592587" lon="12.2548203"><ele>472.5</ele><time>2026-04-02T10:31:33.71Z</time></trkpt><trkpt lat="42.8592388" lon="12.2549968"><ele>472.75</ele><time>2026-04-02T10:31:34.714Z</time></trkpt><trkpt lat="42.8592123" lon="12.2551448"><ele>473.0</ele><time>2026-04-02T10:31:35.711Z</time></trkpt><trkpt lat="42.8591837" lon="12.2553018"><ele>473.0</ele><time>2026-04-02T10:31:36.707Z</time></trkpt><trkpt lat="42.8591661" lon="12.2554835"><ele>473.0</ele><time>2026-04-02T10:31:37.711Z</time></trkpt><trkpt lat="42.8591431" lon="12.2556743"><ele>473.0</ele><time>2026-04-02T10:31:38.709Z</time></trkpt><trkpt lat="42.8591115" lon="12.2558686"><ele>473.0</ele><time>2026-04-02T10:31:39.711Z</time></trkpt><trkpt lat="42.8590632" lon="12.2560703"><ele>473.0</ele><time>2026-04-02T10:31:40.707Z</time></trkpt><trkpt lat="42.8590093" lon="12.2562836"><ele>473.0</ele><time>2026-04-02T10:31:41.716Z</time></trkpt><trkpt lat="42.858952" lon="12.2565006"><ele>473.0</ele><time>2026-04-02T10:31:42.707Z</time></trkpt><trkpt lat="42.8588931" lon="12.2567242"><ele>472.3333333333333</ele><time>2026-04-02T10:31:43.715Z</time></trkpt><trkpt lat="42.8588517" lon="12.256958"><ele>471.66666666666663</ele><time>2026-04-02T10:31:44.708Z</time></trkpt><trkpt lat="42.8588152" lon="12.2571877"><ele>471.0</ele><time>2026-04-02T10:31:45.709Z</time></trkpt><trkpt lat="42.8587902" lon="12.2574229"><ele>470.0</ele><time>2026-04-02T10:31:46.707Z</time></trkpt><trkpt lat="42.8587722" lon="12.2576789"><ele>469.0</ele><time>2026-04-02T10:31:47.708Z</time></trkpt><trkpt lat="42.8587582" lon="12.2579262"><ele>468.0</ele><time>2026-04-02T10:31:48.711Z</time></trkpt><trkpt lat="42.8587372" lon="12.2581686"><ele>466.0</ele><time>2026-04-02T10:31:49.709Z</time></trkpt><trkpt lat="42.858731" lon="12.2583941"><ele>464.0</ele><time>2026-04-02T10:31:50.709Z</time></trkpt><trkpt lat="42.8587365" lon="12.2586244"><ele>462.0</ele><time>2026-04-02T10:31:51.711Z</time></trkpt><trkpt lat="42.8587717" lon="12.2588465"><ele>461.0</ele><time>2026-04-02T10:31:52.709Z</time></trkpt><trkpt lat="42.858853" lon="12.259058"><ele>460.0</ele><time>2026-04-02T10:31:53.71Z</time></trkpt><trkpt lat="42.8589549" lon="12.2592544"><ele>459.0</ele><time>2026-04-02T10:31:54.707Z</time></trkpt><trkpt lat="42.859064" lon="12.2594357"><ele>459.0</ele><time>2026-04-02T10:31:55.708Z</time></trkpt><trkpt lat="42.8591667" lon="12.2596053"><ele>459.0</ele><time>2026-04-02T10:31:56.712Z</time></trkpt><trkpt lat="42.8592674" lon="12.2597865"><ele>459.0</ele><time>2026-04-02T10:31:57.709Z</time></trkpt><trkpt lat="42.8593677" lon="12.2599643"><ele>459.0</ele><time>2026-04-02T10:31:58.711Z</time></trkpt><trkpt lat="42.8594871" lon="12.2601244"><ele>459.0</ele><time>2026-04-02T10:31:59.711Z</time></trkpt><trkpt lat="42.8596187" lon="12.2602487"><ele>459.0</ele><time>2026-04-02T10:32:00.711Z</time></trkpt><trkpt lat="42.8597491" lon="12.2603504"><ele>459.0</ele><time>2026-04-02T10:32:01.709Z</time></trkpt><trkpt lat="42.8598752" lon="12.2604496"><ele>459.0</ele><time>2026-04-02T10:32:02.71Z</time></trkpt><trkpt lat="42.8599918" lon="12.2605539"><ele>459.0</ele><time>2026-04-02T10:32:03.709Z</time></trkpt><trkpt lat="42.8601167" lon="12.2606668"><ele>459.0</ele><time>2026-04-02T10:32:04.709Z</time></trkpt><trkpt lat="42.8602347" lon="12.2607944"><ele>459.0</ele><time>2026-04-02T10:32:05.712Z</time></trkpt><trkpt lat="42.8603552" lon="12.2609389"><ele>459.0</ele><time>2026-04-02T10:32:06.716Z</time></trkpt><trkpt lat="42.8604824" lon="12.2611052"><ele>459.0</ele><time>2026-04-02T10:32:07.706Z</time></trkpt><trkpt lat="42.8606146" lon="12.2612831"><ele>458.66666666666663</ele><time>2026-04-02T10:32:08.712Z</time></trkpt><trkpt lat="42.8607516" lon="12.2614931"><ele>458.3333333333333</ele><time>2026-04-02T10:32:09.709Z</time></trkpt><trkpt lat="42.8608812" lon="12.2617292"><ele>458.0</ele><time>2026-04-02T10:32:10.709Z</time></trkpt><trkpt lat="42.8610079" lon="12.2619957"><ele>458.0</ele><time>2026-04-02T10:32:11.709Z</time></trkpt><trkpt lat="42.8611343" lon="12.2622343"><ele>458.0</ele><time>2026-04-02T10:32:12.706Z</time></trkpt><trkpt lat="42.861259" lon="12.2624444"><ele>458.0</ele><time>2026-04-02T10:32:13.708Z</time></trkpt><trkpt lat="42.8613731" lon="12.2626277"><ele>457.75</ele><time>2026-04-02T10:32:14.712Z</time></trkpt><trkpt lat="42.861481" lon="12.2627752"><ele>457.5</ele><time>2026-04-02T10:32:15.712Z</time></trkpt><trkpt lat="42.8615926" lon="12.2628901"><ele>457.25</ele><time>2026-04-02T10:32:16.711Z</time></trkpt><trkpt lat="42.861686" lon="12.2629096"><ele>457.0</ele><time>2026-04-02T10:32:17.711Z</time></trkpt><trkpt lat="42.8617934" lon="12.2628963"><ele>453.25</ele><time>2026-04-02T10:32:18.715Z</time></trkpt><trkpt lat="42.8619018" lon="12.2628158"><ele>449.5</ele><time>2026-04-02T10:32:19.709Z</time></trkpt><trkpt lat="42.8620008" lon="12.2626828"><ele>445.75</ele><time>2026-04-02T10:32:20.712Z</time></trkpt><trkpt lat="42.8620995" lon="12.2625159"><ele>442.0</ele><time>2026-04-02T10:32:21.709Z</time></trkpt><trkpt lat="42.8621697" lon="12.2623207"><ele>441.6666666666667</ele><time>2026-04-02T10:32:22.711Z</time></trkpt><trkpt lat="42.8622012" lon="12.2621071"><ele>441.33333333333337</ele><time>2026-04-02T10:32:23.713Z</time></trkpt><trkpt lat="42.862201" lon="12.2618979"><ele>441.0</ele><time>2026-04-02T10:32:24.715Z</time></trkpt><trkpt lat="42.8621721" lon="12.2616688"><ele>441.33333333333337</ele><time>2026-04-02T10:32:25.711Z</time></trkpt><trkpt lat="42.8621094" lon="12.2614415"><ele>441.6666666666667</ele><time>2026-04-02T10:32:26.708Z</time></trkpt><trkpt lat="42.8620225" lon="12.2612449"><ele>442.0</ele><time>2026-04-02T10:32:27.706Z</time></trkpt><trkpt lat="42.8619349" lon="12.2610813"><ele>442.0</ele><time>2026-04-02T10:32:28.712Z</time></trkpt><trkpt lat="42.8618602" lon="12.2609292"><ele>442.0</ele><time>2026-04-02T10:32:29.708Z</time></trkpt><trkpt lat="42.8618231" lon="12.2607845"><ele>442.0</ele><time>2026-04-02T10:32:30.708Z</time></trkpt><trkpt lat="42.8618234" lon="12.2606345"><ele>442.0</ele><time>2026-04-02T10:32:31.71Z</time></trkpt><trkpt lat="42.8618635" lon="12.2604956"><ele>441.75</ele><time>2026-04-02T10:32:32.707Z</time></trkpt><trkpt lat="42.8619494" lon="12.26038"><ele>441.5</ele><time>2026-04-02T10:32:33.706Z</time></trkpt><trkpt lat="42.8620633" lon="12.2603056"><ele>441.25</ele><time>2026-04-02T10:32:34.71Z</time></trkpt><trkpt lat="42.8621973" lon="12.2602837"><ele>441.0</ele><time>2026-04-02T10:32:35.709Z</time></trkpt><trkpt lat="42.862351" lon="12.2603074"><ele>441.0</ele><time>2026-04-02T10:32:36.712Z</time></trkpt><trkpt lat="42.8625136" lon="12.2603586"><ele>441.0</ele><time>2026-04-02T10:32:37.707Z</time></trkpt><trkpt lat="42.8626809" lon="12.2604279"><ele>441.0</ele><time>2026-04-02T10:32:38.711Z</time></trkpt><trkpt lat="42.8628623" lon="12.2605017"><ele>440.33333333333337</ele><time>2026-04-02T10:32:39.711Z</time></trkpt><trkpt lat="42.8630572" lon="12.2605808"><ele>439.6666666666667</ele><time>2026-04-02T10:32:40.712Z</time></trkpt><trkpt lat="42.8632547" lon="12.2606601"><ele>439.0</ele><time>2026-04-02T10:32:41.713Z</time></trkpt><trkpt lat="42.863449" lon="12.2607332"><ele>439.0</ele><time>2026-04-02T10:32:42.711Z</time></trkpt><trkpt lat="42.8636392" lon="12.2608071"><ele>439.0</ele><time>2026-04-02T10:32:43.714Z</time></trkpt><trkpt lat="42.863833" lon="12.2608856"><ele>439.0</ele><time>2026-04-02T10:32:44.711Z</time></trkpt><trkpt lat="42.8640268" lon="12.2609608"><ele>439.0</ele><time>2026-04-02T10:32:45.706Z</time></trkpt><trkpt lat="42.864215" lon="12.261045"><ele>439.0</ele><time>2026-04-02T10:32:46.716Z</time></trkpt><trkpt lat="42.8644087" lon="12.2611311"><ele>439.0</ele><time>2026-04-02T10:32:47.716Z</time></trkpt><trkpt lat="42.8645951" lon="12.2612372"><ele>441.0</ele><time>2026-04-02T10:32:48.706Z</time></trkpt><trkpt lat="42.8647531" lon="12.2613599"><ele>443.0</ele><time>2026-04-02T10:32:49.713Z</time></trkpt><trkpt lat="42.8648831" lon="12.2614948"><ele>445.0</ele><time>2026-04-02T10:32:50.708Z</time></trkpt><trkpt lat="42.8649807" lon="12.2616376"><ele>445.0</ele><time>2026-04-02T10:32:51.708Z</time></trkpt><trkpt lat="42.8650508" lon="12.2618045"><ele>445.0</ele><time>2026-04-02T10:32:52.709Z</time></trkpt><trkpt lat="42.8651082" lon="12.2619877"><ele>445.0</ele><time>2026-04-02T10:32:53.707Z</time></trkpt><trkpt lat="42.8651714" lon="12.2621752"><ele>445.0</ele><time>2026-04-02T10:32:54.708Z</time></trkpt><trkpt lat="42.8652471" lon="12.2623645"><ele>441.0</ele><time>2026-04-02T10:32:55.706Z</time></trkpt><trkpt lat="42.8653329" lon="12.2625498"><ele>437.0</ele><time>2026-04-02T10:32:56.708Z</time></trkpt><trkpt lat="42.8654216" lon="12.2627153"><ele>433.0</ele><time>2026-04-02T10:32:57.709Z</time></trkpt><trkpt lat="42.8655103" lon="12.2628721"><ele>433.0</ele><time>2026-04-02T10:32:58.709Z</time></trkpt><trkpt lat="42.8655927" lon="12.2630102"><ele>433.0</ele><time>2026-04-02T10:32:59.708Z</time></trkpt><trkpt lat="42.8656752" lon="12.2631417"><ele>433.0</ele><time>2026-04-02T10:33:00.708Z</time></trkpt><trkpt lat="42.8657505" lon="12.2632655"><ele>433.0</ele><time>2026-04-02T10:33:01.709Z</time></trkpt><trkpt lat="42.8658343" lon="12.263392"><ele>431.5</ele><time>2026-04-02T10:33:02.713Z</time></trkpt><trkpt lat="42.8659197" lon="12.2635125"><ele>430.0</ele><time>2026-04-02T10:33:03.707Z</time></trkpt><trkpt lat="42.8660082" lon="12.2636231"><ele>428.5</ele><time>2026-04-02T10:33:04.716Z</time></trkpt><trkpt lat="42.8661205" lon="12.2637263"><ele>427.0</ele><time>2026-04-02T10:33:05.709Z</time></trkpt><trkpt lat="42.86626" lon="12.263825"><ele>427.0</ele><time>2026-04-02T10:33:06.711Z</time></trkpt><trkpt lat="42.8664019" lon="12.2639368"><ele>427.0</ele><time>2026-04-02T10:33:07.71Z</time></trkpt><trkpt lat="42.866554" lon="12.2640469"><ele>427.0</ele><time>2026-04-02T10:33:08.71Z</time></trkpt><trkpt lat="42.8667069" lon="12.2641589"><ele>430.6666666666667</ele><time>2026-04-02T10:33:09.715Z</time></trkpt><trkpt lat="42.8668587" lon="12.2642696"><ele>434.33333333333337</ele><time>2026-04-02T10:33:10.708Z</time></trkpt><trkpt lat="42.8670068" lon="12.2643722"><ele>438.0</ele><time>2026-04-02T10:33:11.707Z</time></trkpt><trkpt lat="42.8671495" lon="12.2644775"><ele>438.0</ele><time>2026-04-02T10:33:12.706Z</time></trkpt><trkpt lat="42.8672821" lon="12.2645885"><ele>438.0</ele><time>2026-04-02T10:33:13.708Z</time></trkpt><trkpt lat="42.8674002" lon="12.2647119"><ele>438.0</ele><time>2026-04-02T10:33:14.71Z</time></trkpt><trkpt lat="42.8674889" lon="12.2648504"><ele>438.0</ele><time>2026-04-02T10:33:15.708Z</time></trkpt><trkpt lat="42.8675533" lon="12.2650217"><ele>439.75</ele><time>2026-04-02T10:33:16.718Z</time></trkpt><trkpt lat="42.8676037" lon="12.2651972"><ele>441.5</ele><time>2026-04-02T10:33:17.709Z</time></trkpt><trkpt lat="42.8676563" lon="12.2653581"><ele>443.25</ele><time>2026-04-02T10:33:18.708Z</time></trkpt><trkpt lat="42.8676987" lon="12.2654981"><ele>445.0</ele><time>2026-04-02T10:33:19.708Z</time></trkpt><trkpt lat="42.8677435" lon="12.2656365"><ele>447.00000000000006</ele><time>2026-04-02T10:33:20.705Z</time></trkpt><trkpt lat="42.8677769" lon="12.265762"><ele>449.0</ele><time>2026-04-02T10:33:21.71Z</time></trkpt><trkpt lat="42.8678005" lon="12.2658697"><ele>451.0</ele><time>2026-04-02T10:33:22.708Z</time></trkpt><trkpt lat="42.8678348" lon="12.2659978"><ele>453.0</ele><time>2026-04-02T10:33:24.711Z</time></trkpt><trkpt lat="42.8679104" lon="12.2660073"><ele>455.00000000000006</ele><time>2026-04-02T10:33:28.711Z</time></trkpt><trkpt lat="42.8679525" lon="12.266101"><ele>457.0</ele><time>2026-04-02T10:35:32.706Z</time></trkpt><trkpt lat="42.8679171" lon="12.266002"><ele>457.00000000000006</ele><time>2026-04-02T10:43:13.71Z</time></trkpt><trkpt lat="42.867859" lon="12.2660459"><ele>457.0</ele><time>2026-04-02T10:43:25.709Z</time></trkpt><trkpt lat="42.8678759" lon="12.2661705"><ele>457.0</ele><time>2026-04-02T10:43:27.707Z</time></trkpt><trkpt lat="42.8679122" lon="12.2663182"><ele>457.0</ele><time>2026-04-02T10:43:29.71Z</time></trkpt><trkpt lat="42.8679292" lon="12.2664098"><ele>457.00000000000006</ele><time>2026-04-02T10:43:30.719Z</time></trkpt><trkpt lat="42.8679559" lon="12.2665054"><ele>457.0</ele><time>2026-04-02T10:43:31.714Z</time></trkpt><trkpt lat="42.8679815" lon="12.2666153"><ele>457.00000000000006</ele><time>2026-04-02T10:43:32.707Z</time></trkpt><trkpt lat="42.8680079" lon="12.2667231"><ele>457.0</ele><time>2026-04-02T10:43:33.715Z</time></trkpt><trkpt lat="42.8680229" lon="12.2668391"><ele>457.0</ele><time>2026-04-02T10:43:34.711Z</time></trkpt><trkpt lat="42.8680378" lon="12.2669457"><ele>457.0</ele><time>2026-04-02T10:43:35.711Z</time></trkpt><trkpt lat="42.8680517" lon="12.267072"><ele>457.00000000000006</ele><time>2026-04-02T10:43:36.711Z</time></trkpt><trkpt lat="42.8680533" lon="12.2672027"><ele>457.0</ele><time>2026-04-02T10:43:37.709Z</time></trkpt><trkpt lat="42.8680393" lon="12.2673401"><ele>457.0</ele><time>2026-04-02T10:43:38.713Z</time></trkpt><trkpt lat="42.8680339" lon="12.267487"><ele>457.00000000000006</ele><time>2026-04-02T10:43:39.708Z</time></trkpt><trkpt lat="42.8680214" lon="12.2676362"><ele>457.00000000000006</ele><time>2026-04-02T10:43:40.711Z</time></trkpt><trkpt lat="42.8680155" lon="12.2677932"><ele>457.0</ele><time>2026-04-02T10:43:41.715Z</time></trkpt><trkpt lat="42.8680137" lon="12.2679425"><ele>457.0</ele><time>2026-04-02T10:43:42.712Z</time></trkpt><trkpt lat="42.8680115" lon="12.2680947"><ele>456.25</ele><time>2026-04-02T10:43:43.715Z</time></trkpt><trkpt lat="42.8680253" lon="12.2682447"><ele>455.5</ele><time>2026-04-02T10:43:44.713Z</time></trkpt><trkpt lat="42.868061" lon="12.2683894"><ele>454.75</ele><time>2026-04-02T10:43:45.714Z</time></trkpt><trkpt lat="42.8681092" lon="12.2685242"><ele>454.0</ele><time>2026-04-02T10:43:46.708Z</time></trkpt><trkpt lat="42.8681791" lon="12.2686541"><ele>454.0</ele><time>2026-04-02T10:43:47.714Z</time></trkpt><trkpt lat="42.8682712" lon="12.2687618"><ele>454.0</ele><time>2026-04-02T10:43:48.713Z</time></trkpt><trkpt lat="42.8683616" lon="12.2688434"><ele>454.0</ele><time>2026-04-02T10:43:49.712Z</time></trkpt><trkpt lat="42.8684452" lon="12.2689332"><ele>454.0</ele><time>2026-04-02T10:43:50.718Z</time></trkpt><trkpt lat="42.8685148" lon="12.2690279"><ele>454.0</ele><time>2026-04-02T10:43:51.707Z</time></trkpt><trkpt lat="42.8685759" lon="12.2691431"><ele>453.2</ele><time>2026-04-02T10:43:52.711Z</time></trkpt><trkpt lat="42.8686035" lon="12.2692631"><ele>452.4</ele><time>2026-04-02T10:43:53.713Z</time></trkpt><trkpt lat="42.8686125" lon="12.2694065"><ele>451.6</ele><time>2026-04-02T10:43:54.711Z</time></trkpt><trkpt lat="42.8686015" lon="12.2695639"><ele>450.8</ele><time>2026-04-02T10:43:55.716Z</time></trkpt><trkpt lat="42.8685647" lon="12.2697168"><ele>450.0</ele><time>2026-04-02T10:43:56.71Z</time></trkpt><trkpt lat="42.8685288" lon="12.2698667"><ele>448.0</ele><time>2026-04-02T10:43:57.709Z</time></trkpt><trkpt lat="42.8685154" lon="12.2700139"><ele>446.0</ele><time>2026-04-02T10:43:58.713Z</time></trkpt><trkpt lat="42.8685373" lon="12.2701647"><ele>444.0</ele><time>2026-04-02T10:43:59.709Z</time></trkpt><trkpt lat="42.8685872" lon="12.2703039"><ele>442.0</ele><time>2026-04-02T10:44:00.709Z</time></trkpt><trkpt lat="42.8686683" lon="12.2704203"><ele>442.0</ele><time>2026-04-02T10:44:01.709Z</time></trkpt><trkpt lat="42.8687639" lon="12.2705085"><ele>442.0</ele><time>2026-04-02T10:44:02.708Z</time></trkpt><trkpt lat="42.8688836" lon="12.2705546"><ele>442.0</ele><time>2026-04-02T10:44:03.709Z</time></trkpt><trkpt lat="42.869006" lon="12.2705632"><ele>442.0</ele><time>2026-04-02T10:44:04.71Z</time></trkpt><trkpt lat="42.8691261" lon="12.2705119"><ele>442.0</ele><time>2026-04-02T10:44:05.705Z</time></trkpt><trkpt lat="42.869244" lon="12.270434"><ele>442.0</ele><time>2026-04-02T10:44:06.713Z</time></trkpt><trkpt lat="42.8693668" lon="12.2703473"><ele>442.0</ele><time>2026-04-02T10:44:07.712Z</time></trkpt><trkpt lat="42.8694723" lon="12.2702521"><ele>442.0</ele><time>2026-04-02T10:44:08.709Z</time></trkpt><trkpt lat="42.8695851" lon="12.27017"><ele>440.0</ele><time>2026-04-02T10:44:09.711Z</time></trkpt><trkpt lat="42.8697147" lon="12.2701087"><ele>438.0</ele><time>2026-04-02T10:44:10.711Z</time></trkpt><trkpt lat="42.8698474" lon="12.2700742"><ele>436.0</ele><time>2026-04-02T10:44:11.708Z</time></trkpt><trkpt lat="42.8699839" lon="12.2700685"><ele>434.0</ele><time>2026-04-02T10:44:12.711Z</time></trkpt><trkpt lat="42.8701208" lon="12.27009"><ele>432.0</ele><time>2026-04-02T10:44:13.708Z</time></trkpt><trkpt lat="42.870256" lon="12.2701307"><ele>430.0</ele><time>2026-04-02T10:44:14.705Z</time></trkpt><trkpt lat="42.8703893" lon="12.2701845"><ele>428.0</ele><time>2026-04-02T10:44:15.71Z</time></trkpt><trkpt lat="42.8705124" lon="12.2702501"><ele>426.0</ele><time>2026-04-02T10:44:16.708Z</time></trkpt><trkpt lat="42.8706367" lon="12.2703233"><ele>426.0</ele><time>2026-04-02T10:44:17.712Z</time></trkpt><trkpt lat="42.8707596" lon="12.2704016"><ele>426.0</ele><time>2026-04-02T10:44:18.711Z</time></trkpt><trkpt lat="42.8709006" lon="12.2704698"><ele>426.0</ele><time>2026-04-02T10:44:19.711Z</time></trkpt><trkpt lat="42.8710374" lon="12.2705398"><ele>426.0</ele><time>2026-04-02T10:44:20.71Z</time></trkpt><trkpt lat="42.8711833" lon="12.2706069"><ele>424.33333333333337</ele><time>2026-04-02T10:44:21.71Z</time></trkpt><trkpt lat="42.8713393" lon="12.270657"><ele>422.6666666666667</ele><time>2026-04-02T10:44:22.714Z</time></trkpt><trkpt lat="42.8714846" lon="12.2706898"><ele>421.0</ele><time>2026-04-02T10:44:23.709Z</time></trkpt><trkpt lat="42.8716345" lon="12.2707325"><ele>421.6666666666667</ele><time>2026-04-02T10:44:24.709Z</time></trkpt><trkpt lat="42.8717847" lon="12.2707816"><ele>422.33333333333337</ele><time>2026-04-02T10:44:25.707Z</time></trkpt><trkpt lat="42.8719367" lon="12.270833"><ele>423.0</ele><time>2026-04-02T10:44:26.71Z</time></trkpt><trkpt lat="42.8720775" lon="12.2708901"><ele>423.0</ele><time>2026-04-02T10:44:27.711Z</time></trkpt><trkpt lat="42.87221" lon="12.2709354"><ele>423.0</ele><time>2026-04-02T10:44:28.711Z</time></trkpt><trkpt lat="42.8723387" lon="12.2709858"><ele>423.0</ele><time>2026-04-02T10:44:29.71Z</time></trkpt><trkpt lat="42.8724603" lon="12.2710657"><ele>423.0</ele><time>2026-04-02T10:44:30.712Z</time></trkpt><trkpt lat="42.8725669" lon="12.2711691"><ele>421.75</ele><time>2026-04-02T10:44:31.706Z</time></trkpt><trkpt lat="42.8726473" lon="12.2712981"><ele>420.5</ele><time>2026-04-02T10:44:32.711Z</time></trkpt><trkpt lat="42.8726995" lon="12.2714499"><ele>419.25</ele><time>2026-04-02T10:44:33.71Z</time></trkpt><trkpt lat="42.8727161" lon="12.2716359"><ele>418.0</ele><time>2026-04-02T10:44:34.71Z</time></trkpt><trkpt lat="42.8727069" lon="12.27183"><ele>416.6666666666667</ele><time>2026-04-02T10:44:35.712Z</time></trkpt><trkpt lat="42.8726963" lon="12.2720319"><ele>415.33333333333337</ele><time>2026-04-02T10:44:36.714Z</time></trkpt><trkpt lat="42.8727013" lon="12.2722413"><ele>414.0</ele><time>2026-04-02T10:44:37.71Z</time></trkpt><trkpt lat="42.8727269" lon="12.2724522"><ele>412.66666666666663</ele><time>2026-04-02T10:44:38.712Z</time></trkpt><trkpt lat="42.872749" lon="12.27266"><ele>411.3333333333333</ele><time>2026-04-02T10:44:39.711Z</time></trkpt><trkpt lat="42.8727661" lon="12.2728694"><ele>410.0</ele><time>2026-04-02T10:44:40.709Z</time></trkpt><trkpt lat="42.8727789" lon="12.2730891"><ele>407.0</ele><time>2026-04-02T10:44:41.711Z</time></trkpt><trkpt lat="42.8727828" lon="12.2733049"><ele>404.0</ele><time>2026-04-02T10:44:42.71Z</time></trkpt><trkpt lat="42.8727772" lon="12.2735194"><ele>401.0</ele><time>2026-04-02T10:44:43.708Z</time></trkpt><trkpt lat="42.8727685" lon="12.273751"><ele>399.0</ele><time>2026-04-02T10:44:44.707Z</time></trkpt><trkpt lat="42.8727458" lon="12.2739884"><ele>397.0</ele><time>2026-04-02T10:44:45.708Z</time></trkpt><trkpt lat="42.8727205" lon="12.27423"><ele>395.0</ele><time>2026-04-02T10:44:46.709Z</time></trkpt><trkpt lat="42.8727096" lon="12.2744695"><ele>395.0</ele><time>2026-04-02T10:44:47.709Z</time></trkpt><trkpt lat="42.8727211" lon="12.2747146"><ele>395.0</ele><time>2026-04-02T10:44:48.707Z</time></trkpt><trkpt lat="42.8727739" lon="12.2749846"><ele>395.0</ele><time>2026-04-02T10:44:49.711Z</time></trkpt><trkpt lat="42.8728522" lon="12.2752387"><ele>395.3333333333333</ele><time>2026-04-02T10:44:50.719Z</time></trkpt><trkpt lat="42.8729368" lon="12.2754692"><ele>395.66666666666663</ele><time>2026-04-02T10:44:51.709Z</time></trkpt><trkpt lat="42.8730214" lon="12.2756838"><ele>396.0</ele><time>2026-04-02T10:44:52.71Z</time></trkpt><trkpt lat="42.8730983" lon="12.2758916"><ele>396.0</ele><time>2026-04-02T10:44:53.707Z</time></trkpt><trkpt lat="42.8731701" lon="12.2760935"><ele>396.0</ele><time>2026-04-02T10:44:54.708Z</time></trkpt><trkpt lat="42.8732447" lon="12.276295"><ele>396.0</ele><time>2026-04-02T10:44:55.712Z</time></trkpt><trkpt lat="42.8733185" lon="12.2764977"><ele>396.33333333333337</ele><time>2026-04-02T10:44:56.712Z</time></trkpt><trkpt lat="42.8733924" lon="12.2766946"><ele>396.6666666666667</ele><time>2026-04-02T10:44:57.713Z</time></trkpt><trkpt lat="42.8734803" lon="12.27687"><ele>397.0</ele><time>2026-04-02T10:44:58.713Z</time></trkpt><trkpt lat="42.8735976" lon="12.2770117"><ele>397.0</ele><time>2026-04-02T10:44:59.713Z</time></trkpt><trkpt lat="42.8737199" lon="12.2771034"><ele>397.0</ele><time>2026-04-02T10:45:00.71Z</time></trkpt><trkpt lat="42.8738642" lon="12.2771662"><ele>397.0</ele><time>2026-04-02T10:45:01.711Z</time></trkpt><trkpt lat="42.8739835" lon="12.2772595"><ele>397.0</ele><time>2026-04-02T10:45:02.711Z</time></trkpt><trkpt lat="42.8740828" lon="12.2773883"><ele>395.75</ele><time>2026-04-02T10:45:03.709Z</time></trkpt><trkpt lat="42.8741596" lon="12.2775452"><ele>394.5</ele><time>2026-04-02T10:45:04.709Z</time></trkpt><trkpt lat="42.8742179" lon="12.2777127"><ele>393.25</ele><time>2026-04-02T10:45:05.709Z</time></trkpt><trkpt lat="42.8742933" lon="12.2778666"><ele>392.0</ele><time>2026-04-02T10:45:06.709Z</time></trkpt><trkpt lat="42.8743895" lon="12.2780202"><ele>394.75</ele><time>2026-04-02T10:45:07.712Z</time></trkpt><trkpt lat="42.87448" lon="12.2781707"><ele>397.5</ele><time>2026-04-02T10:45:08.713Z</time></trkpt><trkpt lat="42.8745767" lon="12.2783215"><ele>400.25</ele><time>2026-04-02T10:45:09.712Z</time></trkpt><trkpt lat="42.8746827" lon="12.2784734"><ele>403.0</ele><time>2026-04-02T10:45:10.713Z</time></trkpt><trkpt lat="42.8747962" lon="12.2786214"><ele>403.0</ele><time>2026-04-02T10:45:11.711Z</time></trkpt><trkpt lat="42.87492" lon="12.2787605"><ele>403.0</ele><time>2026-04-02T10:45:12.71Z</time></trkpt><trkpt lat="42.8750643" lon="12.2788767"><ele>403.0</ele><time>2026-04-02T10:45:13.713Z</time></trkpt><trkpt lat="42.875206" lon="12.2789836"><ele>404.0</ele><time>2026-04-02T10:45:14.715Z</time></trkpt><trkpt lat="42.8753563" lon="12.279093"><ele>405.0</ele><time>2026-04-02T10:45:15.711Z</time></trkpt><trkpt lat="42.8755044" lon="12.279203"><ele>406.0</ele><time>2026-04-02T10:45:16.714Z</time></trkpt><trkpt lat="42.8756583" lon="12.2793009"><ele>406.0</ele><time>2026-04-02T10:45:17.713Z</time></trkpt><trkpt lat="42.8758111" lon="12.2793924"><ele>406.0</ele><time>2026-04-02T10:45:18.713Z</time></trkpt><trkpt lat="42.8759681" lon="12.2794935"><ele>406.0</ele><time>2026-04-02T10:45:19.713Z</time></trkpt><trkpt lat="42.8761263" lon="12.2795954"><ele>406.0</ele><time>2026-04-02T10:45:20.712Z</time></trkpt><trkpt lat="42.8762827" lon="12.2796981"><ele>406.0</ele><time>2026-04-02T10:45:21.715Z</time></trkpt><trkpt lat="42.8764402" lon="12.2798049"><ele>406.0</ele><time>2026-04-02T10:45:22.708Z</time></trkpt><trkpt lat="42.8766031" lon="12.2799123"><ele>407.0</ele><time>2026-04-02T10:45:23.709Z</time></trkpt><trkpt lat="42.8767729" lon="12.2800145"><ele>408.0</ele><time>2026-04-02T10:45:24.71Z</time></trkpt><trkpt lat="42.8769467" lon="12.2801216"><ele>409.0</ele><time>2026-04-02T10:45:25.715Z</time></trkpt><trkpt lat="42.8771235" lon="12.2802281"><ele>409.0</ele><time>2026-04-02T10:45:26.711Z</time></trkpt><trkpt lat="42.8773051" lon="12.2803372"><ele>409.0</ele><time>2026-04-02T10:45:27.711Z</time></trkpt><trkpt lat="42.8774826" lon="12.2804489"><ele>409.0</ele><time>2026-04-02T10:45:28.711Z</time></trkpt><trkpt lat="42.8776651" lon="12.2805517"><ele>408.6666666666667</ele><time>2026-04-02T10:45:29.708Z</time></trkpt><trkpt lat="42.8778471" lon="12.280659"><ele>408.33333333333337</ele><time>2026-04-02T10:45:30.709Z</time></trkpt><trkpt lat="42.8780306" lon="12.2807631"><ele>408.0</ele><time>2026-04-02T10:45:31.712Z</time></trkpt><trkpt lat="42.8782001" lon="12.2808961"><ele>408.0</ele><time>2026-04-02T10:45:32.712Z</time></trkpt><trkpt lat="42.8783506" lon="12.2810642"><ele>408.0</ele><time>2026-04-02T10:45:33.713Z</time></trkpt><trkpt lat="42.8784741" lon="12.2812704"><ele>408.0</ele><time>2026-04-02T10:45:34.713Z</time></trkpt><trkpt lat="42.878563" lon="12.281483"><ele>410.0</ele><time>2026-04-02T10:45:35.715Z</time></trkpt><trkpt lat="42.8786395" lon="12.2816955"><ele>412.0</ele><time>2026-04-02T10:45:36.709Z</time></trkpt><trkpt lat="42.8787065" lon="12.2818954"><ele>414.0</ele><time>2026-04-02T10:45:37.711Z</time></trkpt><trkpt lat="42.8787686" lon="12.2820958"><ele>414.66666666666663</ele><time>2026-04-02T10:45:38.711Z</time></trkpt><trkpt lat="42.8788471" lon="12.282287"><ele>415.3333333333333</ele><time>2026-04-02T10:45:39.713Z</time></trkpt><trkpt lat="42.8789563" lon="12.2824565"><ele>416.0</ele><time>2026-04-02T10:45:40.712Z</time></trkpt><trkpt lat="42.8790769" lon="12.2826023"><ele>416.0</ele><time>2026-04-02T10:45:41.716Z</time></trkpt><trkpt lat="42.8792304" lon="12.2827102"><ele>416.0</ele><time>2026-04-02T10:45:42.713Z</time></trkpt><trkpt lat="42.8793841" lon="12.2828046"><ele>416.0</ele><time>2026-04-02T10:45:43.714Z</time></trkpt><trkpt lat="42.8795409" lon="12.282868"><ele>417.66666666666663</ele><time>2026-04-02T10:45:44.715Z</time></trkpt><trkpt lat="42.8797036" lon="12.2829037"><ele>419.33333333333337</ele><time>2026-04-02T10:45:45.717Z</time></trkpt><trkpt lat="42.8798622" lon="12.2829352"><ele>421.0</ele><time>2026-04-02T10:45:46.708Z</time></trkpt><trkpt lat="42.880023" lon="12.282942"><ele>421.0</ele><time>2026-04-02T10:45:47.713Z</time></trkpt><trkpt lat="42.8801766" lon="12.2829321"><ele>421.0</ele><time>2026-04-02T10:45:48.714Z</time></trkpt><trkpt lat="42.8803338" lon="12.2829114"><ele>421.0</ele><time>2026-04-02T10:45:49.709Z</time></trkpt><trkpt lat="42.8804921" lon="12.2828855"><ele>421.0</ele><time>2026-04-02T10:45:50.715Z</time></trkpt><trkpt lat="42.8806514" lon="12.2828674"><ele>421.0</ele><time>2026-04-02T10:45:51.71Z</time></trkpt><trkpt lat="42.8808102" lon="12.2828446"><ele>421.0</ele><time>2026-04-02T10:45:52.712Z</time></trkpt><trkpt lat="42.8809733" lon="12.2828181"><ele>421.6666666666667</ele><time>2026-04-02T10:45:53.709Z</time></trkpt><trkpt lat="42.8811384" lon="12.2827939"><ele>422.33333333333337</ele><time>2026-04-02T10:45:54.708Z</time></trkpt><trkpt lat="42.8813113" lon="12.2827731"><ele>423.0</ele><time>2026-04-02T10:45:55.71Z</time></trkpt><trkpt lat="42.8814842" lon="12.2827528"><ele>423.0</ele><time>2026-04-02T10:45:56.713Z</time></trkpt><trkpt lat="42.8816574" lon="12.2827655"><ele>423.0</ele><time>2026-04-02T10:45:57.711Z</time></trkpt><trkpt lat="42.8818318" lon="12.2828109"><ele>423.0</ele><time>2026-04-02T10:45:58.71Z</time></trkpt><trkpt lat="42.8820026" lon="12.2828715"><ele>424.33333333333337</ele><time>2026-04-02T10:45:59.71Z</time></trkpt><trkpt lat="42.8821655" lon="12.2829274"><ele>425.6666666666667</ele><time>2026-04-02T10:46:00.717Z</time></trkpt><trkpt lat="42.8823291" lon="12.2829847"><ele>427.0</ele><time>2026-04-02T10:46:01.713Z</time></trkpt><trkpt lat="42.8824992" lon="12.2830332"><ele>428.0</ele><time>2026-04-02T10:46:02.711Z</time></trkpt><trkpt lat="42.8826733" lon="12.2830672"><ele>429.0</ele><time>2026-04-02T10:46:03.709Z</time></trkpt><trkpt lat="42.8828489" lon="12.2830955"><ele>430.0</ele><time>2026-04-02T10:46:04.708Z</time></trkpt><trkpt lat="42.8830295" lon="12.2831305"><ele>425.33333333333337</ele><time>2026-04-02T10:46:05.713Z</time></trkpt><trkpt lat="42.8832078" lon="12.2831592"><ele>420.66666666666663</ele><time>2026-04-02T10:46:06.711Z</time></trkpt><trkpt lat="42.8833854" lon="12.2831866"><ele>416.0</ele><time>2026-04-02T10:46:07.715Z</time></trkpt><trkpt lat="42.883567" lon="12.2832221"><ele>415.66666666666663</ele><time>2026-04-02T10:46:08.709Z</time></trkpt><trkpt lat="42.8837433" lon="12.283272"><ele>415.33333333333337</ele><time>2026-04-02T10:46:09.71Z</time></trkpt><trkpt lat="42.8839064" lon="12.2833232"><ele>415.0</ele><time>2026-04-02T10:46:10.714Z</time></trkpt><trkpt lat="42.8840718" lon="12.2833737"><ele>415.0</ele><time>2026-04-02T10:46:11.716Z</time></trkpt><trkpt lat="42.8842431" lon="12.2834012"><ele>415.0</ele><time>2026-04-02T10:46:12.712Z</time></trkpt><trkpt lat="42.8844228" lon="12.2833864"><ele>415.0</ele><time>2026-04-02T10:46:13.707Z</time></trkpt><trkpt lat="42.8846002" lon="12.2833354"><ele>413.33333333333337</ele><time>2026-04-02T10:46:14.71Z</time></trkpt><trkpt lat="42.8847708" lon="12.2832791"><ele>411.66666666666663</ele><time>2026-04-02T10:46:15.709Z</time></trkpt><trkpt lat="42.884927" lon="12.283214"><ele>410.0</ele><time>2026-04-02T10:46:16.712Z</time></trkpt><trkpt lat="42.885088" lon="12.2831451"><ele>414.3333333333333</ele><time>2026-04-02T10:46:17.709Z</time></trkpt><trkpt lat="42.8852503" lon="12.2830794"><ele>418.66666666666663</ele><time>2026-04-02T10:46:18.712Z</time></trkpt><trkpt lat="42.8854255" lon="12.2830238"><ele>423.0</ele><time>2026-04-02T10:46:19.71Z</time></trkpt><trkpt lat="42.8855753" lon="12.2830111"><ele>423.0</ele><time>2026-04-02T10:46:20.71Z</time></trkpt><trkpt lat="42.8857288" lon="12.2830199"><ele>423.0</ele><time>2026-04-02T10:46:21.709Z</time></trkpt><trkpt lat="42.8858554" lon="12.2830603"><ele>423.0</ele><time>2026-04-02T10:46:22.71Z</time></trkpt><trkpt lat="42.8860121" lon="12.2831453"><ele>417.0</ele><time>2026-04-02T10:46:23.712Z</time></trkpt><trkpt lat="42.8861404" lon="12.2832782"><ele>411.0</ele><time>2026-04-02T10:46:24.717Z</time></trkpt><trkpt lat="42.8862831" lon="12.2833948"><ele>405.0</ele><time>2026-04-02T10:46:25.715Z</time></trkpt><trkpt lat="42.8864104" lon="12.2835064"><ele>405.0</ele><time>2026-04-02T10:46:26.709Z</time></trkpt><trkpt lat="42.8865374" lon="12.2836236"><ele>405.0</ele><time>2026-04-02T10:46:27.716Z</time></trkpt><trkpt lat="42.8866718" lon="12.2837479"><ele>405.0</ele><time>2026-04-02T10:46:28.709Z</time></trkpt><trkpt lat="42.8868213" lon="12.2838673"><ele>401.33333333333337</ele><time>2026-04-02T10:46:29.711Z</time></trkpt><trkpt lat="42.8869881" lon="12.2839648"><ele>397.6666666666667</ele><time>2026-04-02T10:46:30.709Z</time></trkpt><trkpt lat="42.8871668" lon="12.2840255"><ele>394.0</ele><time>2026-04-02T10:46:31.713Z</time></trkpt><trkpt lat="42.8873376" lon="12.2840593"><ele>394.0</ele><time>2026-04-02T10:46:32.71Z</time></trkpt><trkpt lat="42.8875021" lon="12.2840943"><ele>394.0</ele><time>2026-04-02T10:46:33.713Z</time></trkpt><trkpt lat="42.8876492" lon="12.2841447"><ele>394.0</ele><time>2026-04-02T10:46:34.713Z</time></trkpt><trkpt lat="42.8877737" lon="12.2842122"><ele>391.25</ele><time>2026-04-02T10:46:35.711Z</time></trkpt><trkpt lat="42.8878715" lon="12.2843109"><ele>388.5</ele><time>2026-04-02T10:46:36.71Z</time></trkpt><trkpt lat="42.8879291" lon="12.2844388"><ele>385.75</ele><time>2026-04-02T10:46:37.714Z</time></trkpt><trkpt lat="42.8879864" lon="12.2846122"><ele>383.0</ele><time>2026-04-02T10:46:38.707Z</time></trkpt><trkpt lat="42.8879905" lon="12.284808"><ele>383.0</ele><time>2026-04-02T10:46:39.706Z</time></trkpt><trkpt lat="42.88801" lon="12.2849974"><ele>383.0</ele><time>2026-04-02T10:46:40.71Z</time></trkpt><trkpt lat="42.8880533" lon="12.2851871"><ele>383.0</ele><time>2026-04-02T10:46:41.711Z</time></trkpt><trkpt lat="42.8881279" lon="12.2853676"><ele>383.0</ele><time>2026-04-02T10:46:42.717Z</time></trkpt><trkpt lat="42.8882339" lon="12.285545"><ele>384.6666666666667</ele><time>2026-04-02T10:46:43.713Z</time></trkpt><trkpt lat="42.8883669" lon="12.2857235"><ele>386.33333333333337</ele><time>2026-04-02T10:46:44.715Z</time></trkpt><trkpt lat="42.8885186" lon="12.2859197"><ele>388.0</ele><time>2026-04-02T10:46:45.71Z</time></trkpt><trkpt lat="42.8886846" lon="12.2861316"><ele>385.5</ele><time>2026-04-02T10:46:46.711Z</time></trkpt><trkpt lat="42.8888482" lon="12.2863551"><ele>383.0</ele><time>2026-04-02T10:46:47.708Z</time></trkpt><trkpt lat="42.8890115" lon="12.2865805"><ele>383.0</ele><time>2026-04-02T10:46:48.709Z</time></trkpt><trkpt lat="42.8891838" lon="12.2867989"><ele>383.0</ele><time>2026-04-02T10:46:49.713Z</time></trkpt><trkpt lat="42.8893444" lon="12.2869989"><ele>381.0</ele><time>2026-04-02T10:46:50.709Z</time></trkpt><trkpt lat="42.8895065" lon="12.287187"><ele>379.0</ele><time>2026-04-02T10:46:51.711Z</time></trkpt><trkpt lat="42.8896572" lon="12.2873851"><ele>377.0</ele><time>2026-04-02T10:46:52.716Z</time></trkpt><trkpt lat="42.8897943" lon="12.2876197"><ele>377.0</ele><time>2026-04-02T10:46:53.71Z</time></trkpt><trkpt lat="42.8899078" lon="12.2878769"><ele>377.0</ele><time>2026-04-02T10:46:54.711Z</time></trkpt><trkpt lat="42.8900075" lon="12.2881112"><ele>377.0</ele><time>2026-04-02T10:46:55.713Z</time></trkpt><trkpt lat="42.8901078" lon="12.2883207"><ele>376.0</ele><time>2026-04-02T10:46:56.715Z</time></trkpt><trkpt lat="42.8902202" lon="12.2885004"><ele>375.0</ele><time>2026-04-02T10:46:57.712Z</time></trkpt><trkpt lat="42.8903606" lon="12.2886531"><ele>374.0</ele><time>2026-04-02T10:46:58.71Z</time></trkpt><trkpt lat="42.8905119" lon="12.2887857"><ele>374.0</ele><time>2026-04-02T10:46:59.708Z</time></trkpt><trkpt lat="42.8906504" lon="12.2889108"><ele>374.0</ele><time>2026-04-02T10:47:00.707Z</time></trkpt><trkpt lat="42.8907805" lon="12.289035"><ele>374.0</ele><time>2026-04-02T10:47:01.712Z</time></trkpt><trkpt lat="42.8908926" lon="12.2891662"><ele>375.0</ele><time>2026-04-02T10:47:02.71Z</time></trkpt><trkpt lat="42.8909506" lon="12.289301"><ele>376.0</ele><time>2026-04-02T10:47:03.71Z</time></trkpt><trkpt lat="42.8909728" lon="12.2894624"><ele>377.0</ele><time>2026-04-02T10:47:04.711Z</time></trkpt><trkpt lat="42.8909619" lon="12.2896284"><ele>378.0</ele><time>2026-04-02T10:47:05.712Z</time></trkpt><trkpt lat="42.8909119" lon="12.2898147"><ele>378.0</ele><time>2026-04-02T10:47:06.711Z</time></trkpt><trkpt lat="42.8908471" lon="12.2900029"><ele>378.0</ele><time>2026-04-02T10:47:07.707Z</time></trkpt><trkpt lat="42.890801" lon="12.2901919"><ele>378.0</ele><time>2026-04-02T10:47:08.712Z</time></trkpt><trkpt lat="42.8907714" lon="12.2903902"><ele>378.0</ele><time>2026-04-02T10:47:09.71Z</time></trkpt><trkpt lat="42.8907794" lon="12.2906009"><ele>378.0</ele><time>2026-04-02T10:47:10.71Z</time></trkpt><trkpt lat="42.8908154" lon="12.2908056"><ele>378.0</ele><time>2026-04-02T10:47:11.709Z</time></trkpt><trkpt lat="42.890878" lon="12.2909929"><ele>378.0</ele><time>2026-04-02T10:47:12.709Z</time></trkpt><trkpt lat="42.8909265" lon="12.2911762"><ele>378.0</ele><time>2026-04-02T10:47:13.709Z</time></trkpt><trkpt lat="42.8909473" lon="12.2913752"><ele>377.3333333333333</ele><time>2026-04-02T10:47:14.713Z</time></trkpt><trkpt lat="42.8909218" lon="12.2915739"><ele>376.66666666666663</ele><time>2026-04-02T10:47:15.708Z</time></trkpt><trkpt lat="42.8908589" lon="12.2917519"><ele>376.0</ele><time>2026-04-02T10:47:16.708Z</time></trkpt><trkpt lat="42.8907609" lon="12.2919289"><ele>376.0</ele><time>2026-04-02T10:47:17.712Z</time></trkpt><trkpt lat="42.8906717" lon="12.2921193"><ele>376.0</ele><time>2026-04-02T10:47:18.712Z</time></trkpt><trkpt lat="42.8905938" lon="12.2923241"><ele>376.0</ele><time>2026-04-02T10:47:19.708Z</time></trkpt><trkpt lat="42.8905172" lon="12.2925407"><ele>377.3333333333333</ele><time>2026-04-02T10:47:20.71Z</time></trkpt><trkpt lat="42.8904476" lon="12.2927706"><ele>378.6666666666667</ele><time>2026-04-02T10:47:21.709Z</time></trkpt><trkpt lat="42.8903795" lon="12.2930047"><ele>380.0</ele><time>2026-04-02T10:47:22.715Z</time></trkpt><trkpt lat="42.8903109" lon="12.2932351"><ele>381.6666666666667</ele><time>2026-04-02T10:47:23.711Z</time></trkpt><trkpt lat="42.8902491" lon="12.2934502"><ele>383.33333333333337</ele><time>2026-04-02T10:47:24.71Z</time></trkpt><trkpt lat="42.8901843" lon="12.2936352"><ele>385.0</ele><time>2026-04-02T10:47:25.711Z</time></trkpt><trkpt lat="42.8901208" lon="12.2938085"><ele>385.5</ele><time>2026-04-02T10:47:26.714Z</time></trkpt><trkpt lat="42.8900749" lon="12.2939833"><ele>386.0</ele><time>2026-04-02T10:47:27.713Z</time></trkpt><trkpt lat="42.8900465" lon="12.2941784"><ele>386.5</ele><time>2026-04-02T10:47:28.713Z</time></trkpt><trkpt lat="42.8900672" lon="12.2944004"><ele>387.0</ele><time>2026-04-02T10:47:29.713Z</time></trkpt><trkpt lat="42.8900929" lon="12.2946004"><ele>384.0</ele><time>2026-04-02T10:47:30.713Z</time></trkpt><trkpt lat="42.8901286" lon="12.2947886"><ele>381.0</ele><time>2026-04-02T10:47:31.71Z</time></trkpt><trkpt lat="42.8901891" lon="12.2949608"><ele>378.0</ele><time>2026-04-02T10:47:32.709Z</time></trkpt><trkpt lat="42.8902948" lon="12.2951201"><ele>375.0</ele><time>2026-04-02T10:47:33.713Z</time></trkpt><trkpt lat="42.8903981" lon="12.2952686"><ele>375.0</ele><time>2026-04-02T10:47:34.709Z</time></trkpt><trkpt lat="42.8904877" lon="12.2954325"><ele>375.0</ele><time>2026-04-02T10:47:35.71Z</time></trkpt><trkpt lat="42.8905743" lon="12.2956138"><ele>375.0</ele><time>2026-04-02T10:47:36.71Z</time></trkpt><trkpt lat="42.8906476" lon="12.2958129"><ele>371.0</ele><time>2026-04-02T10:47:37.709Z</time></trkpt><trkpt lat="42.8907059" lon="12.2960179"><ele>367.0</ele><time>2026-04-02T10:47:38.706Z</time></trkpt><trkpt lat="42.8907573" lon="12.2962185"><ele>363.0</ele><time>2026-04-02T10:47:39.706Z</time></trkpt><trkpt lat="42.8907964" lon="12.2964084"><ele>361.5</ele><time>2026-04-02T10:47:40.71Z</time></trkpt><trkpt lat="42.8908089" lon="12.2965915"><ele>360.0</ele><time>2026-04-02T10:47:41.711Z</time></trkpt><trkpt lat="42.8907931" lon="12.2967828"><ele>358.5</ele><time>2026-04-02T10:47:42.71Z</time></trkpt><trkpt lat="42.8907304" lon="12.2969704"><ele>357.0</ele><time>2026-04-02T10:47:43.71Z</time></trkpt><trkpt lat="42.8906623" lon="12.2971359"><ele>355.40000000000003</ele><time>2026-04-02T10:47:44.709Z</time></trkpt><trkpt lat="42.8906161" lon="12.29728"><ele>353.8</ele><time>2026-04-02T10:47:45.712Z</time></trkpt><trkpt lat="42.8905825" lon="12.2974205"><ele>352.2</ele><time>2026-04-02T10:47:46.708Z</time></trkpt><trkpt lat="42.8906243" lon="12.2975179"><ele>350.6</ele><time>2026-04-02T10:47:47.708Z</time></trkpt><trkpt lat="42.8907033" lon="12.2975755"><ele>349.0</ele><time>2026-04-02T10:47:48.726Z</time></trkpt><trkpt lat="42.8908003" lon="12.2975899"><ele>349.0</ele><time>2026-04-02T10:47:49.714Z</time></trkpt><trkpt lat="42.8909176" lon="12.2975747"><ele>349.0</ele><time>2026-04-02T10:47:50.712Z</time></trkpt><trkpt lat="42.8910495" lon="12.2975434"><ele>349.0</ele><time>2026-04-02T10:47:51.709Z</time></trkpt><trkpt lat="42.891186" lon="12.2974815"><ele>349.0</ele><time>2026-04-02T10:47:52.714Z</time></trkpt><trkpt lat="42.8913313" lon="12.29741"><ele>347.75</ele><time>2026-04-02T10:47:53.715Z</time></trkpt><trkpt lat="42.8914643" lon="12.2973175"><ele>346.5</ele><time>2026-04-02T10:47:54.709Z</time></trkpt><trkpt lat="42.8915935" lon="12.2972337"><ele>345.25</ele><time>2026-04-02T10:47:55.713Z</time></trkpt><trkpt lat="42.8917391" lon="12.2971901"><ele>344.0</ele><time>2026-04-02T10:47:56.708Z</time></trkpt><trkpt lat="42.8918997" lon="12.2971872"><ele>344.6666666666667</ele><time>2026-04-02T10:47:57.709Z</time></trkpt><trkpt lat="42.8920637" lon="12.2972276"><ele>345.3333333333333</ele><time>2026-04-02T10:47:58.709Z</time></trkpt><trkpt lat="42.892211" lon="12.297301"><ele>346.0</ele><time>2026-04-02T10:47:59.711Z</time></trkpt><trkpt lat="42.8923378" lon="12.2973952"><ele>346.0</ele><time>2026-04-02T10:48:00.706Z</time></trkpt><trkpt lat="42.8924279" lon="12.2974939"><ele>346.0</ele><time>2026-04-02T10:48:01.708Z</time></trkpt><trkpt lat="42.8925039" lon="12.2976192"><ele>346.0</ele><time>2026-04-02T10:48:02.71Z</time></trkpt><trkpt lat="42.892563" lon="12.2977743"><ele>346.0</ele><time>2026-04-02T10:48:03.71Z</time></trkpt><trkpt lat="42.8925885" lon="12.2979159"><ele>346.0</ele><time>2026-04-02T10:48:04.708Z</time></trkpt><trkpt lat="42.8925844" lon="12.298051"><ele>346.0</ele><time>2026-04-02T10:48:05.709Z</time></trkpt><trkpt lat="42.8925397" lon="12.2981848"><ele>346.0</ele><time>2026-04-02T10:48:06.712Z</time></trkpt><trkpt lat="42.892454" lon="12.2983145"><ele>346.0</ele><time>2026-04-02T10:48:07.708Z</time></trkpt><trkpt lat="42.8923706" lon="12.2984315"><ele>344.6</ele><time>2026-04-02T10:48:08.712Z</time></trkpt><trkpt lat="42.8922941" lon="12.2985519"><ele>343.20000000000005</ele><time>2026-04-02T10:48:09.709Z</time></trkpt><trkpt lat="42.8922332" lon="12.2986486"><ele>341.79999999999995</ele><time>2026-04-02T10:48:10.708Z</time></trkpt><trkpt lat="42.8922053" lon="12.2987566"><ele>340.4</ele><time>2026-04-02T10:48:11.713Z</time></trkpt><trkpt lat="42.8922189" lon="12.2988677"><ele>339.0</ele><time>2026-04-02T10:48:12.713Z</time></trkpt><trkpt lat="42.8922801" lon="12.2989635"><ele>337.25</ele><time>2026-04-02T10:48:13.708Z</time></trkpt><trkpt lat="42.8923811" lon="12.2990242"><ele>335.5</ele><time>2026-04-02T10:48:14.711Z</time></trkpt><trkpt lat="42.892505" lon="12.2990509"><ele>333.75</ele><time>2026-04-02T10:48:15.71Z</time></trkpt><trkpt lat="42.8926391" lon="12.2990978"><ele>332.0</ele><time>2026-04-02T10:48:16.707Z</time></trkpt><trkpt lat="42.892759" lon="12.2991685"><ele>333.25</ele><time>2026-04-02T10:48:17.708Z</time></trkpt><trkpt lat="42.8928429" lon="12.2993201"><ele>334.5</ele><time>2026-04-02T10:48:18.708Z</time></trkpt><trkpt lat="42.8929275" lon="12.2994822"><ele>335.75</ele><time>2026-04-02T10:48:19.715Z</time></trkpt><trkpt lat="42.8929957" lon="12.2996688"><ele>337.0</ele><time>2026-04-02T10:48:20.713Z</time></trkpt><trkpt lat="42.8930458" lon="12.2998757"><ele>337.0</ele><time>2026-04-02T10:48:21.715Z</time></trkpt><trkpt lat="42.8930885" lon="12.3001028"><ele>337.0</ele><time>2026-04-02T10:48:22.711Z</time></trkpt><trkpt lat="42.8931381" lon="12.3003286"><ele>337.0</ele><time>2026-04-02T10:48:23.708Z</time></trkpt><trkpt lat="42.8931842" lon="12.3005445"><ele>335.5</ele><time>2026-04-02T10:48:24.707Z</time></trkpt><trkpt lat="42.8932009" lon="12.3007428"><ele>334.0</ele><time>2026-04-02T10:48:25.714Z</time></trkpt><trkpt lat="42.893216" lon="12.3009312"><ele>332.5</ele><time>2026-04-02T10:48:26.712Z</time></trkpt><trkpt lat="42.8932188" lon="12.3010967"><ele>331.0</ele><time>2026-04-02T10:48:27.714Z</time></trkpt><trkpt lat="42.8932351" lon="12.3012289"><ele>331.0</ele><time>2026-04-02T10:48:28.712Z</time></trkpt><trkpt lat="42.8932871" lon="12.3013361"><ele>331.0</ele><time>2026-04-02T10:48:29.708Z</time></trkpt><trkpt lat="42.8933433" lon="12.3014205"><ele>331.0</ele><time>2026-04-02T10:48:30.712Z</time></trkpt><trkpt lat="42.8934786" lon="12.3014324"><ele>331.0</ele><time>2026-04-02T10:48:31.713Z</time></trkpt><trkpt lat="42.8935996" lon="12.3014101"><ele>331.0</ele><time>2026-04-02T10:48:32.716Z</time></trkpt><trkpt lat="42.8937181" lon="12.3013512"><ele>332.0</ele><time>2026-04-02T10:48:33.709Z</time></trkpt><trkpt lat="42.8938391" lon="12.3012389"><ele>333.0</ele><time>2026-04-02T10:48:34.71Z</time></trkpt><trkpt lat="42.8939483" lon="12.3011041"><ele>334.0</ele><time>2026-04-02T10:48:35.706Z</time></trkpt><trkpt lat="42.8940455" lon="12.3009721"><ele>335.0</ele><time>2026-04-02T10:48:36.707Z</time></trkpt><trkpt lat="42.8941448" lon="12.3008662"><ele>334.75</ele><time>2026-04-02T10:48:37.714Z</time></trkpt><trkpt lat="42.8942605" lon="12.300787"><ele>334.5</ele><time>2026-04-02T10:48:38.711Z</time></trkpt><trkpt lat="42.8943972" lon="12.3007532"><ele>334.25</ele><time>2026-04-02T10:48:39.711Z</time></trkpt><trkpt lat="42.8945414" lon="12.3007567"><ele>334.0</ele><time>2026-04-02T10:48:40.712Z</time></trkpt><trkpt lat="42.8946902" lon="12.3007995"><ele>334.0</ele><time>2026-04-02T10:48:41.708Z</time></trkpt><trkpt lat="42.8948366" lon="12.300901"><ele>334.0</ele><time>2026-04-02T10:48:42.709Z</time></trkpt><trkpt lat="42.8949964" lon="12.3010094"><ele>334.0</ele><time>2026-04-02T10:48:43.709Z</time></trkpt><trkpt lat="42.8951618" lon="12.3011026"><ele>332.0</ele><time>2026-04-02T10:48:44.711Z</time></trkpt><trkpt lat="42.8953016" lon="12.3011998"><ele>330.0</ele><time>2026-04-02T10:48:45.713Z</time></trkpt><trkpt lat="42.8954338" lon="12.3013278"><ele>328.0</ele><time>2026-04-02T10:48:46.713Z</time></trkpt><trkpt lat="42.8955544" lon="12.3014892"><ele>328.0</ele><time>2026-04-02T10:48:47.716Z</time></trkpt><trkpt lat="42.8956507" lon="12.3016713"><ele>328.0</ele><time>2026-04-02T10:48:48.71Z</time></trkpt><trkpt lat="42.8957356" lon="12.3018848"><ele>328.0</ele><time>2026-04-02T10:48:49.709Z</time></trkpt><trkpt lat="42.8958163" lon="12.3021013"><ele>323.66666666666663</ele><time>2026-04-02T10:48:50.717Z</time></trkpt><trkpt lat="42.8959154" lon="12.3023161"><ele>319.3333333333333</ele><time>2026-04-02T10:48:51.712Z</time></trkpt><trkpt lat="42.8960149" lon="12.3025257"><ele>315.0</ele><time>2026-04-02T10:48:52.709Z</time></trkpt><trkpt lat="42.8960999" lon="12.3027234"><ele>317.0</ele><time>2026-04-02T10:48:53.707Z</time></trkpt><trkpt lat="42.8961851" lon="12.3029032"><ele>319.0</ele><time>2026-04-02T10:48:54.716Z</time></trkpt><trkpt lat="42.8962624" lon="12.3030618"><ele>321.0</ele><time>2026-04-02T10:48:55.713Z</time></trkpt><trkpt lat="42.8963483" lon="12.3032171"><ele>323.0</ele><time>2026-04-02T10:48:56.713Z</time></trkpt><trkpt lat="42.8964673" lon="12.3033549"><ele>323.0</ele><time>2026-04-02T10:48:57.708Z</time></trkpt><trkpt lat="42.8965969" lon="12.3034789"><ele>323.0</ele><time>2026-04-02T10:48:58.712Z</time></trkpt><trkpt lat="42.8967298" lon="12.303598"><ele>323.0</ele><time>2026-04-02T10:48:59.714Z</time></trkpt><trkpt lat="42.8968537" lon="12.3037127"><ele>328.0</ele><time>2026-04-02T10:49:00.71Z</time></trkpt><trkpt lat="42.8969823" lon="12.3038245"><ele>333.0</ele><time>2026-04-02T10:49:01.714Z</time></trkpt><trkpt lat="42.8971305" lon="12.3039092"><ele>338.0</ele><time>2026-04-02T10:49:02.71Z</time></trkpt><trkpt lat="42.8973043" lon="12.30397"><ele>327.33333333333337</ele><time>2026-04-02T10:49:03.708Z</time></trkpt><trkpt lat="42.8974583" lon="12.3040338"><ele>316.6666666666667</ele><time>2026-04-02T10:49:04.708Z</time></trkpt><trkpt lat="42.8976139" lon="12.3040868"><ele>306.0</ele><time>2026-04-02T10:49:05.709Z</time></trkpt><trkpt lat="42.8977593" lon="12.3041208"><ele>304.3333333333333</ele><time>2026-04-02T10:49:06.711Z</time></trkpt><trkpt lat="42.8979015" lon="12.3041369"><ele>302.66666666666663</ele><time>2026-04-02T10:49:07.707Z</time></trkpt><trkpt lat="42.898058" lon="12.3040771"><ele>301.0</ele><time>2026-04-02T10:49:08.709Z</time></trkpt><trkpt lat="42.8982118" lon="12.3040025"><ele>301.0</ele><time>2026-04-02T10:49:09.712Z</time></trkpt><trkpt lat="42.8983664" lon="12.303916"><ele>301.0</ele><time>2026-04-02T10:49:10.709Z</time></trkpt><trkpt lat="42.898528" lon="12.3038395"><ele>301.0</ele><time>2026-04-02T10:49:11.71Z</time></trkpt><trkpt lat="42.8986932" lon="12.3037689"><ele>307.66666666666663</ele><time>2026-04-02T10:49:12.713Z</time></trkpt><trkpt lat="42.8988584" lon="12.3037078"><ele>314.3333333333333</ele><time>2026-04-02T10:49:13.707Z</time></trkpt><trkpt lat="42.8990282" lon="12.3036807"><ele>321.0</ele><time>2026-04-02T10:49:14.71Z</time></trkpt><trkpt lat="42.8992015" lon="12.3036931"><ele>319.0</ele><time>2026-04-02T10:49:15.708Z</time></trkpt><trkpt lat="42.8993759" lon="12.3037112"><ele>317.0</ele><time>2026-04-02T10:49:16.711Z</time></trkpt><trkpt lat="42.8995483" lon="12.3037267"><ele>315.0</ele><time>2026-04-02T10:49:17.714Z</time></trkpt><trkpt lat="42.8997236" lon="12.3037476"><ele>315.0</ele><time>2026-04-02T10:49:18.71Z</time></trkpt><trkpt lat="42.8999037" lon="12.3037694"><ele>315.0</ele><time>2026-04-02T10:49:19.714Z</time></trkpt><trkpt lat="42.9000907" lon="12.303782"><ele>315.0</ele><time>2026-04-02T10:49:20.709Z</time></trkpt><trkpt lat="42.9002734" lon="12.303783"><ele>312.6666666666667</ele><time>2026-04-02T10:49:21.714Z</time></trkpt><trkpt lat="42.9004516" lon="12.3037722"><ele>310.33333333333337</ele><time>2026-04-02T10:49:22.71Z</time></trkpt><trkpt lat="42.9006361" lon="12.3037326"><ele>308.0</ele><time>2026-04-02T10:49:23.71Z</time></trkpt><trkpt lat="42.9008114" lon="12.3036794"><ele>307.0</ele><time>2026-04-02T10:49:24.711Z</time></trkpt><trkpt lat="42.9009801" lon="12.3036284"><ele>306.0</ele><time>2026-04-02T10:49:25.712Z</time></trkpt><trkpt lat="42.9011272" lon="12.3035994"><ele>305.0</ele><time>2026-04-02T10:49:26.712Z</time></trkpt><trkpt lat="42.9012703" lon="12.3035815"><ele>305.0</ele><time>2026-04-02T10:49:27.711Z</time></trkpt><trkpt lat="42.90138" lon="12.3036009"><ele>305.0</ele><time>2026-04-02T10:49:28.709Z</time></trkpt><trkpt lat="42.9014775" lon="12.3036564"><ele>305.0</ele><time>2026-04-02T10:49:29.707Z</time></trkpt><trkpt lat="42.9015704" lon="12.3037567"><ele>305.0</ele><time>2026-04-02T10:49:30.71Z</time></trkpt><trkpt lat="42.9016543" lon="12.303891"><ele>304.75</ele><time>2026-04-02T10:49:31.709Z</time></trkpt><trkpt lat="42.9017407" lon="12.3040413"><ele>304.5</ele><time>2026-04-02T10:49:32.709Z</time></trkpt><trkpt lat="42.901834" lon="12.3042024"><ele>304.25</ele><time>2026-04-02T10:49:33.715Z</time></trkpt><trkpt lat="42.9019248" lon="12.3043742"><ele>304.0</ele><time>2026-04-02T10:49:34.706Z</time></trkpt><trkpt lat="42.9020116" lon="12.3045423"><ele>304.0</ele><time>2026-04-02T10:49:35.71Z</time></trkpt><trkpt lat="42.9020949" lon="12.3046982"><ele>304.0</ele><time>2026-04-02T10:49:36.717Z</time></trkpt><trkpt lat="42.902179" lon="12.3048383"><ele>304.0</ele><time>2026-04-02T10:49:37.714Z</time></trkpt><trkpt lat="42.9022873" lon="12.3049533"><ele>304.0</ele><time>2026-04-02T10:49:38.708Z</time></trkpt><trkpt lat="42.902426" lon="12.3050283"><ele>300.66666666666663</ele><time>2026-04-02T10:49:39.709Z</time></trkpt><trkpt lat="42.9025869" lon="12.3050782"><ele>297.3333333333333</ele><time>2026-04-02T10:49:40.708Z</time></trkpt><trkpt lat="42.9027438" lon="12.3051433"><ele>294.0</ele><time>2026-04-02T10:49:41.715Z</time></trkpt><trkpt lat="42.9028915" lon="12.3052583"><ele>294.0</ele><time>2026-04-02T10:49:42.704Z</time></trkpt><trkpt lat="42.9030297" lon="12.3054099"><ele>294.0</ele><time>2026-04-02T10:49:43.709Z</time></trkpt><trkpt lat="42.9031673" lon="12.3056192"><ele>294.0</ele><time>2026-04-02T10:49:44.711Z</time></trkpt><trkpt lat="42.9033" lon="12.3058139"><ele>294.75</ele><time>2026-04-02T10:49:45.711Z</time></trkpt><trkpt lat="42.9034109" lon="12.305981"><ele>295.5</ele><time>2026-04-02T10:49:46.706Z</time></trkpt><trkpt lat="42.9034819" lon="12.306137"><ele>296.25</ele><time>2026-04-02T10:49:47.709Z</time></trkpt><trkpt lat="42.903507" lon="12.3063127"><ele>297.0</ele><time>2026-04-02T10:49:48.713Z</time></trkpt><trkpt lat="42.9034941" lon="12.3065072"><ele>297.0</ele><time>2026-04-02T10:49:49.711Z</time></trkpt><trkpt lat="42.9034401" lon="12.3067106"><ele>297.0</ele><time>2026-04-02T10:49:50.71Z</time></trkpt><trkpt lat="42.9033549" lon="12.3069161"><ele>297.0</ele><time>2026-04-02T10:49:51.709Z</time></trkpt><trkpt lat="42.9032469" lon="12.3071147"><ele>292.0</ele><time>2026-04-02T10:49:52.708Z</time></trkpt><trkpt lat="42.9031328" lon="12.3073108"><ele>287.0</ele><time>2026-04-02T10:49:53.709Z</time></trkpt><trkpt lat="42.9030038" lon="12.3075104"><ele>282.0</ele><time>2026-04-02T10:49:54.712Z</time></trkpt><trkpt lat="42.9028874" lon="12.307697"><ele>282.0</ele><time>2026-04-02T10:49:55.711Z</time></trkpt><trkpt lat="42.9027739" lon="12.3078678"><ele>282.0</ele><time>2026-04-02T10:49:56.717Z</time></trkpt><trkpt lat="42.9026681" lon="12.3080244"><ele>282.0</ele><time>2026-04-02T10:49:57.716Z</time></trkpt><trkpt lat="42.9025773" lon="12.3081591"><ele>279.8</ele><time>2026-04-02T10:49:58.708Z</time></trkpt><trkpt lat="42.9024972" lon="12.3082819"><ele>277.6</ele><time>2026-04-02T10:49:59.712Z</time></trkpt><trkpt lat="42.9024474" lon="12.3084088"><ele>275.40000000000003</ele><time>2026-04-02T10:50:00.707Z</time></trkpt><trkpt lat="42.9024323" lon="12.3085394"><ele>273.2</ele><time>2026-04-02T10:50:01.714Z</time></trkpt><trkpt lat="42.9024614" lon="12.3086588"><ele>271.0</ele><time>2026-04-02T10:50:02.709Z</time></trkpt><trkpt lat="42.9025467" lon="12.308753"><ele>273.5</ele><time>2026-04-02T10:50:03.708Z</time></trkpt><trkpt lat="42.9026642" lon="12.3088116"><ele>276.0</ele><time>2026-04-02T10:50:04.707Z</time></trkpt><trkpt lat="42.9027973" lon="12.3088292"><ele>278.5</ele><time>2026-04-02T10:50:05.711Z</time></trkpt><trkpt lat="42.9029263" lon="12.3088406"><ele>281.0</ele><time>2026-04-02T10:50:06.712Z</time></trkpt><trkpt lat="42.9030523" lon="12.3088795"><ele>281.5</ele><time>2026-04-02T10:50:07.707Z</time></trkpt><trkpt lat="42.9031701" lon="12.3089663"><ele>282.0</ele><time>2026-04-02T10:50:08.71Z</time></trkpt><trkpt lat="42.9032859" lon="12.3091015"><ele>282.5</ele><time>2026-04-02T10:50:09.711Z</time></trkpt><trkpt lat="42.9034022" lon="12.3092512"><ele>283.0</ele><time>2026-04-02T10:50:10.706Z</time></trkpt><trkpt lat="42.9035186" lon="12.3094057"><ele>283.0</ele><time>2026-04-02T10:50:11.708Z</time></trkpt><trkpt lat="42.9036301" lon="12.3095441"><ele>283.0</ele><time>2026-04-02T10:50:12.712Z</time></trkpt><trkpt lat="42.9037376" lon="12.3096727"><ele>283.0</ele><time>2026-04-02T10:50:13.709Z</time></trkpt><trkpt lat="42.9038344" lon="12.3098006"><ele>283.0</ele><time>2026-04-02T10:50:14.71Z</time></trkpt><trkpt lat="42.9039165" lon="12.3099386"><ele>280.5</ele><time>2026-04-02T10:50:15.707Z</time></trkpt><trkpt lat="42.903963" lon="12.3100828"><ele>278.0</ele><time>2026-04-02T10:50:16.71Z</time></trkpt><trkpt lat="42.9039889" lon="12.3102394"><ele>275.5</ele><time>2026-04-02T10:50:17.708Z</time></trkpt><trkpt lat="42.9039681" lon="12.3104018"><ele>273.0</ele><time>2026-04-02T10:50:18.714Z</time></trkpt><trkpt lat="42.9039147" lon="12.3105712"><ele>271.5</ele><time>2026-04-02T10:50:19.707Z</time></trkpt><trkpt lat="42.9038474" lon="12.3107259"><ele>270.0</ele><time>2026-04-02T10:50:20.709Z</time></trkpt><trkpt lat="42.903789" lon="12.3108766"><ele>268.5</ele><time>2026-04-02T10:50:21.706Z</time></trkpt><trkpt lat="42.9037646" lon="12.3110529"><ele>267.0</ele><time>2026-04-02T10:50:22.71Z</time></trkpt><trkpt lat="42.9037855" lon="12.3112414"><ele>265.5</ele><time>2026-04-02T10:50:23.712Z</time></trkpt><trkpt lat="42.9038413" lon="12.3114238"><ele>264.0</ele><time>2026-04-02T10:50:24.715Z</time></trkpt><trkpt lat="42.9039179" lon="12.3116049"><ele>262.5</ele><time>2026-04-02T10:50:25.711Z</time></trkpt><trkpt lat="42.9039895" lon="12.3117712"><ele>261.0</ele><time>2026-04-02T10:50:26.711Z</time></trkpt><trkpt lat="42.9040568" lon="12.3119198"><ele>261.0</ele><time>2026-04-02T10:50:27.711Z</time></trkpt><trkpt lat="42.9041356" lon="12.3120556"><ele>261.0</ele><time>2026-04-02T10:50:28.709Z</time></trkpt><trkpt lat="42.904263" lon="12.3121313"><ele>261.0</ele><time>2026-04-02T10:50:29.711Z</time></trkpt><trkpt lat="42.9044038" lon="12.3121815"><ele>261.0</ele><time>2026-04-02T10:50:30.71Z</time></trkpt><trkpt lat="42.9045582" lon="12.312218"><ele>258.25</ele><time>2026-04-02T10:50:31.71Z</time></trkpt><trkpt lat="42.9047135" lon="12.3122441"><ele>255.5</ele><time>2026-04-02T10:50:32.712Z</time></trkpt><trkpt lat="42.9048575" lon="12.3122707"><ele>252.75</ele><time>2026-04-02T10:50:33.708Z</time></trkpt><trkpt lat="42.9049881" lon="12.3122975"><ele>250.0</ele><time>2026-04-02T10:50:34.708Z</time></trkpt><trkpt lat="42.9051073" lon="12.3123268"><ele>250.0</ele><time>2026-04-02T10:50:35.714Z</time></trkpt><trkpt lat="42.9052248" lon="12.3123583"><ele>250.0</ele><time>2026-04-02T10:50:36.708Z</time></trkpt><trkpt lat="42.9052777" lon="12.3124517"><ele>250.0</ele><time>2026-04-02T10:50:37.712Z</time></trkpt><trkpt lat="42.9053263" lon="12.3125613"><ele>250.0</ele><time>2026-04-02T10:50:38.708Z</time></trkpt><trkpt lat="42.9053447" lon="12.3126829"><ele>250.0</ele><time>2026-04-02T10:50:39.712Z</time></trkpt><trkpt lat="42.905316" lon="12.3128"><ele>250.0</ele><time>2026-04-02T10:50:40.709Z</time></trkpt><trkpt lat="42.905255" lon="12.3128998"><ele>250.0</ele><time>2026-04-02T10:50:41.71Z</time></trkpt><trkpt lat="42.9051571" lon="12.3129639"><ele>250.0</ele><time>2026-04-02T10:50:42.709Z</time></trkpt><trkpt lat="42.9050317" lon="12.3129857"><ele>250.0</ele><time>2026-04-02T10:50:43.708Z</time></trkpt><trkpt lat="42.9048929" lon="12.3129934"><ele>250.0</ele><time>2026-04-02T10:50:44.715Z</time></trkpt><trkpt lat="42.9047424" lon="12.3130234"><ele>250.0</ele><time>2026-04-02T10:50:45.719Z</time></trkpt><trkpt lat="42.9045892" lon="12.313086"><ele>250.0</ele><time>2026-04-02T10:50:46.713Z</time></trkpt><trkpt lat="42.9044399" lon="12.3131541"><ele>246.0</ele><time>2026-04-02T10:50:47.709Z</time></trkpt><trkpt lat="42.9042954" lon="12.3132375"><ele>242.0</ele><time>2026-04-02T10:50:48.714Z</time></trkpt><trkpt lat="42.9041716" lon="12.3133408"><ele>238.0</ele><time>2026-04-02T10:50:49.71Z</time></trkpt><trkpt lat="42.9040542" lon="12.3134575"><ele>234.0</ele><time>2026-04-02T10:50:50.713Z</time></trkpt><trkpt lat="42.9039527" lon="12.3135896"><ele>234.0</ele><time>2026-04-02T10:50:51.708Z</time></trkpt><trkpt lat="42.9038681" lon="12.313712"><ele>234.0</ele><time>2026-04-02T10:50:52.708Z</time></trkpt><trkpt lat="42.9037958" lon="12.3137869"><ele>234.0</ele><time>2026-04-02T10:50:53.713Z</time></trkpt><trkpt lat="42.9037236" lon="12.3138283"><ele>234.0</ele><time>2026-04-02T10:50:54.72Z</time></trkpt><trkpt lat="42.9036582" lon="12.3138016"><ele>234.0</ele><time>2026-04-02T10:50:55.711Z</time></trkpt><trkpt lat="42.9036037" lon="12.3137193"><ele>234.0</ele><time>2026-04-02T10:50:56.717Z</time></trkpt><trkpt lat="42.9035748" lon="12.31359"><ele>234.0</ele><time>2026-04-02T10:50:57.711Z</time></trkpt><trkpt lat="42.9035583" lon="12.3134383"><ele>234.0</ele><time>2026-04-02T10:50:58.71Z</time></trkpt><trkpt lat="42.903526" lon="12.3132654"><ele>234.0</ele><time>2026-04-02T10:50:59.708Z</time></trkpt><trkpt lat="42.9034584" lon="12.3130919"><ele>234.0</ele><time>2026-04-02T10:51:00.709Z</time></trkpt><trkpt lat="42.9033611" lon="12.3129236"><ele>233.33333333333331</ele><time>2026-04-02T10:51:01.712Z</time></trkpt><trkpt lat="42.9032507" lon="12.3127839"><ele>232.66666666666666</ele><time>2026-04-02T10:51:02.708Z</time></trkpt><trkpt lat="42.9031216" lon="12.3125964"><ele>232.0</ele><time>2026-04-02T10:51:03.709Z</time></trkpt><trkpt lat="42.90302" lon="12.3123988"><ele>236.0</ele><time>2026-04-02T10:51:04.708Z</time></trkpt><trkpt lat="42.9029219" lon="12.3122085"><ele>240.0</ele><time>2026-04-02T10:51:05.707Z</time></trkpt><trkpt lat="42.9028026" lon="12.312053"><ele>244.0</ele><time>2026-04-02T10:51:06.709Z</time></trkpt><trkpt lat="42.9026845" lon="12.3119194"><ele>237.66666666666666</ele><time>2026-04-02T10:51:07.708Z</time></trkpt><trkpt lat="42.9025659" lon="12.3117993"><ele>231.33333333333331</ele><time>2026-04-02T10:51:08.71Z</time></trkpt><trkpt lat="42.9024316" lon="12.3116961"><ele>225.0</ele><time>2026-04-02T10:51:09.717Z</time></trkpt><trkpt lat="42.9022584" lon="12.3116341"><ele>225.0</ele><time>2026-04-02T10:51:10.71Z</time></trkpt><trkpt lat="42.9020934" lon="12.3115859"><ele>225.0</ele><time>2026-04-02T10:51:11.709Z</time></trkpt><trkpt lat="42.9019341" lon="12.3115388"><ele>225.0</ele><time>2026-04-02T10:51:12.71Z</time></trkpt><trkpt lat="42.9017873" lon="12.3115022"><ele>223.0</ele><time>2026-04-02T10:51:13.708Z</time></trkpt><trkpt lat="42.9016472" lon="12.3114987"><ele>221.0</ele><time>2026-04-02T10:51:14.71Z</time></trkpt><trkpt lat="42.901524" lon="12.3115308"><ele>219.0</ele><time>2026-04-02T10:51:15.708Z</time></trkpt><trkpt lat="42.9013926" lon="12.3116096"><ele>217.0</ele><time>2026-04-02T10:51:16.713Z</time></trkpt><trkpt lat="42.9012797" lon="12.311724"><ele>217.0</ele><time>2026-04-02T10:51:17.71Z</time></trkpt><trkpt lat="42.9011992" lon="12.3118838"><ele>217.0</ele><time>2026-04-02T10:51:18.712Z</time></trkpt><trkpt lat="42.9011444" lon="12.3120792"><ele>217.0</ele><time>2026-04-02T10:51:19.717Z</time></trkpt><trkpt lat="42.9011049" lon="12.3122929"><ele>214.66666666666666</ele><time>2026-04-02T10:51:20.711Z</time></trkpt><trkpt lat="42.901061" lon="12.3125131"><ele>212.33333333333331</ele><time>2026-04-02T10:51:21.711Z</time></trkpt><trkpt lat="42.9010306" lon="12.3127492"><ele>210.0</ele><time>2026-04-02T10:51:22.708Z</time></trkpt><trkpt lat="42.9010232" lon="12.3129886"><ele>209.33333333333331</ele><time>2026-04-02T10:51:23.709Z</time></trkpt><trkpt lat="42.9010399" lon="12.3132351"><ele>208.66666666666666</ele><time>2026-04-02T10:51:24.714Z</time></trkpt><trkpt lat="42.9010671" lon="12.3134843"><ele>208.0</ele><time>2026-04-02T10:51:25.71Z</time></trkpt><trkpt lat="42.9010756" lon="12.31374"><ele>207.33333333333331</ele><time>2026-04-02T10:51:26.712Z</time></trkpt><trkpt lat="42.9011061" lon="12.314001"><ele>206.66666666666669</ele><time>2026-04-02T10:51:27.708Z</time></trkpt><trkpt lat="42.901113" lon="12.3142575"><ele>206.0</ele><time>2026-04-02T10:51:28.712Z</time></trkpt><trkpt lat="42.9011184" lon="12.3145162"><ele>207.0</ele><time>2026-04-02T10:51:29.708Z</time></trkpt><trkpt lat="42.901154" lon="12.3147884"><ele>208.0</ele><time>2026-04-02T10:51:30.709Z</time></trkpt><trkpt lat="42.9012062" lon="12.3150602"><ele>209.0</ele><time>2026-04-02T10:51:31.716Z</time></trkpt><trkpt lat="42.9012782" lon="12.3153254"><ele>210.33333333333334</ele><time>2026-04-02T10:51:32.71Z</time></trkpt><trkpt lat="42.9013694" lon="12.3155838"><ele>211.66666666666669</ele><time>2026-04-02T10:51:33.709Z</time></trkpt><trkpt lat="42.9014818" lon="12.3158315"><ele>213.0</ele><time>2026-04-02T10:51:34.712Z</time></trkpt><trkpt lat="42.90159" lon="12.3160752"><ele>213.0</ele><time>2026-04-02T10:51:35.71Z</time></trkpt><trkpt lat="42.9016992" lon="12.316323"><ele>213.0</ele><time>2026-04-02T10:51:36.71Z</time></trkpt><trkpt lat="42.9018187" lon="12.3165656"><ele>213.0</ele><time>2026-04-02T10:51:37.716Z</time></trkpt><trkpt lat="42.9019367" lon="12.3168071"><ele>212.66666666666669</ele><time>2026-04-02T10:51:38.716Z</time></trkpt><trkpt lat="42.9020516" lon="12.3170554"><ele>212.33333333333334</ele><time>2026-04-02T10:51:39.713Z</time></trkpt><trkpt lat="42.9021518" lon="12.3173051"><ele>212.0</ele><time>2026-04-02T10:51:40.719Z</time></trkpt><trkpt lat="42.9022433" lon="12.3175699"><ele>212.0</ele><time>2026-04-02T10:51:41.714Z</time></trkpt><trkpt lat="42.9023289" lon="12.3178345"><ele>212.0</ele><time>2026-04-02T10:51:42.711Z</time></trkpt><trkpt lat="42.9024236" lon="12.3180889"><ele>212.0</ele><time>2026-04-02T10:51:43.712Z</time></trkpt><trkpt lat="42.902518" lon="12.3183412"><ele>211.33333333333334</ele><time>2026-04-02T10:51:44.708Z</time></trkpt><trkpt lat="42.9026042" lon="12.3185944"><ele>210.66666666666669</ele><time>2026-04-02T10:51:45.716Z</time></trkpt><trkpt lat="42.902668" lon="12.31883"><ele>210.0</ele><time>2026-04-02T10:51:46.709Z</time></trkpt><trkpt lat="42.9027165" lon="12.3190625"><ele>210.0</ele><time>2026-04-02T10:51:47.707Z</time></trkpt><trkpt lat="42.9027548" lon="12.3193069"><ele>210.0</ele><time>2026-04-02T10:51:48.71Z</time></trkpt><trkpt lat="42.902782" lon="12.3195608"><ele>210.0</ele><time>2026-04-02T10:51:49.714Z</time></trkpt><trkpt lat="42.9028128" lon="12.319824"><ele>210.66666666666669</ele><time>2026-04-02T10:51:50.715Z</time></trkpt><trkpt lat="42.9028385" lon="12.3200882"><ele>211.33333333333334</ele><time>2026-04-02T10:51:51.711Z</time></trkpt><trkpt lat="42.9028616" lon="12.3203548"><ele>212.0</ele><time>2026-04-02T10:51:52.712Z</time></trkpt><trkpt lat="42.9028828" lon="12.3206254"><ele>212.0</ele><time>2026-04-02T10:51:53.71Z</time></trkpt><trkpt lat="42.902912" lon="12.3209023"><ele>212.0</ele><time>2026-04-02T10:51:54.71Z</time></trkpt><trkpt lat="42.9029389" lon="12.3211775"><ele>212.0</ele><time>2026-04-02T10:51:55.707Z</time></trkpt><trkpt lat="42.9029592" lon="12.3214604"><ele>211.66666666666669</ele><time>2026-04-02T10:51:56.711Z</time></trkpt><trkpt lat="42.9029792" lon="12.3217381"><ele>211.33333333333331</ele><time>2026-04-02T10:51:57.714Z</time></trkpt><trkpt lat="42.902998" lon="12.3220194"><ele>211.0</ele><time>2026-04-02T10:51:58.714Z</time></trkpt><trkpt lat="42.9030214" lon="12.322298"><ele>210.33333333333331</ele><time>2026-04-02T10:51:59.709Z</time></trkpt><trkpt lat="42.9030433" lon="12.3225842"><ele>209.66666666666669</ele><time>2026-04-02T10:52:00.709Z</time></trkpt><trkpt lat="42.9030649" lon="12.322864"><ele>209.0</ele><time>2026-04-02T10:52:01.709Z</time></trkpt><trkpt lat="42.9030866" lon="12.3231465"><ele>208.33333333333334</ele><time>2026-04-02T10:52:02.709Z</time></trkpt><trkpt lat="42.9031141" lon="12.3234293"><ele>207.66666666666669</ele><time>2026-04-02T10:52:03.71Z</time></trkpt><trkpt lat="42.9031372" lon="12.3237107"><ele>207.0</ele><time>2026-04-02T10:52:04.714Z</time></trkpt><trkpt lat="42.9031559" lon="12.323989"><ele>207.0</ele><time>2026-04-02T10:52:05.713Z</time></trkpt><trkpt lat="42.9031762" lon="12.3242598"><ele>207.0</ele><time>2026-04-02T10:52:06.71Z</time></trkpt><trkpt lat="42.9031948" lon="12.3245168"><ele>207.0</ele><time>2026-04-02T10:52:07.712Z</time></trkpt><trkpt lat="42.9032125" lon="12.3247572"><ele>206.66666666666669</ele><time>2026-04-02T10:52:08.71Z</time></trkpt><trkpt lat="42.9032326" lon="12.3249893"><ele>206.33333333333334</ele><time>2026-04-02T10:52:09.714Z</time></trkpt><trkpt lat="42.9032563" lon="12.3251992"><ele>206.0</ele><time>2026-04-02T10:52:10.711Z</time></trkpt><trkpt lat="42.9033025" lon="12.3254011"><ele>206.66666666666669</ele><time>2026-04-02T10:52:11.711Z</time></trkpt><trkpt lat="42.9033793" lon="12.3255932"><ele>207.33333333333331</ele><time>2026-04-02T10:52:12.708Z</time></trkpt><trkpt lat="42.9034917" lon="12.3257702"><ele>208.0</ele><time>2026-04-02T10:52:13.712Z</time></trkpt><trkpt lat="42.903631" lon="12.3259254"><ele>206.33333333333331</ele><time>2026-04-02T10:52:14.711Z</time></trkpt><trkpt lat="42.9037815" lon="12.3260722"><ele>204.66666666666669</ele><time>2026-04-02T10:52:15.712Z</time></trkpt><trkpt lat="42.9039272" lon="12.326231"><ele>203.0</ele><time>2026-04-02T10:52:16.717Z</time></trkpt><trkpt lat="42.9040706" lon="12.3263921"><ele>203.0</ele><time>2026-04-02T10:52:17.709Z</time></trkpt><trkpt lat="42.9042157" lon="12.3265594"><ele>203.0</ele><time>2026-04-02T10:52:18.708Z</time></trkpt><trkpt lat="42.9043715" lon="12.3267291"><ele>203.0</ele><time>2026-04-02T10:52:19.71Z</time></trkpt><trkpt lat="42.9045233" lon="12.3268903"><ele>203.0</ele><time>2026-04-02T10:52:20.711Z</time></trkpt><trkpt lat="42.9046771" lon="12.3270598"><ele>203.0</ele><time>2026-04-02T10:52:21.716Z</time></trkpt><trkpt lat="42.9048377" lon="12.3272323"><ele>203.0</ele><time>2026-04-02T10:52:22.711Z</time></trkpt><trkpt lat="42.9049993" lon="12.3274033"><ele>203.0</ele><time>2026-04-02T10:52:23.712Z</time></trkpt><trkpt lat="42.9051637" lon="12.3275737"><ele>203.0</ele><time>2026-04-02T10:52:24.71Z</time></trkpt><trkpt lat="42.9053282" lon="12.3277483"><ele>203.0</ele><time>2026-04-02T10:52:25.715Z</time></trkpt><trkpt lat="42.9054876" lon="12.3279216"><ele>203.33333333333334</ele><time>2026-04-02T10:52:26.71Z</time></trkpt><trkpt lat="42.9056375" lon="12.3280935"><ele>203.66666666666669</ele><time>2026-04-02T10:52:27.71Z</time></trkpt><trkpt lat="42.9057906" lon="12.3282636"><ele>204.0</ele><time>2026-04-02T10:52:28.713Z</time></trkpt><trkpt lat="42.9059487" lon="12.328429"><ele>204.0</ele><time>2026-04-02T10:52:29.712Z</time></trkpt><trkpt lat="42.906105" lon="12.3285978"><ele>204.0</ele><time>2026-04-02T10:52:30.714Z</time></trkpt><trkpt lat="42.9062592" lon="12.3287636"><ele>204.0</ele><time>2026-04-02T10:52:31.71Z</time></trkpt><trkpt lat="42.9064128" lon="12.3289393"><ele>205.0</ele><time>2026-04-02T10:52:32.707Z</time></trkpt><trkpt lat="42.9065443" lon="12.3291321"><ele>206.0</ele><time>2026-04-02T10:52:33.71Z</time></trkpt><trkpt lat="42.9066669" lon="12.3293438"><ele>207.0</ele><time>2026-04-02T10:52:34.71Z</time></trkpt><trkpt lat="42.906785" lon="12.3295521"><ele>207.66666666666669</ele><time>2026-04-02T10:52:35.709Z</time></trkpt><trkpt lat="42.9068953" lon="12.3297716"><ele>208.33333333333334</ele><time>2026-04-02T10:52:36.71Z</time></trkpt><trkpt lat="42.9069922" lon="12.3300067"><ele>209.0</ele><time>2026-04-02T10:52:37.712Z</time></trkpt><trkpt lat="42.9070641" lon="12.3302326"><ele>209.0</ele><time>2026-04-02T10:52:38.711Z</time></trkpt><trkpt lat="42.9071167" lon="12.3304551"><ele>209.0</ele><time>2026-04-02T10:52:39.711Z</time></trkpt><trkpt lat="42.9071395" lon="12.3306779"><ele>209.0</ele><time>2026-04-02T10:52:40.708Z</time></trkpt><trkpt lat="42.9071369" lon="12.3309073"><ele>209.0</ele><time>2026-04-02T10:52:41.708Z</time></trkpt><trkpt lat="42.9071155" lon="12.3311473"><ele>209.0</ele><time>2026-04-02T10:52:42.711Z</time></trkpt><trkpt lat="42.9070822" lon="12.3313859"><ele>209.0</ele><time>2026-04-02T10:52:43.711Z</time></trkpt><trkpt lat="42.907049" lon="12.3316321"><ele>208.66666666666669</ele><time>2026-04-02T10:52:44.708Z</time></trkpt><trkpt lat="42.9070178" lon="12.3318655"><ele>208.33333333333331</ele><time>2026-04-02T10:52:45.707Z</time></trkpt><trkpt lat="42.9069743" lon="12.3320867"><ele>208.0</ele><time>2026-04-02T10:52:46.71Z</time></trkpt><trkpt lat="42.9069413" lon="12.3323013"><ele>207.66666666666666</ele><time>2026-04-02T10:52:47.708Z</time></trkpt><trkpt lat="42.9069179" lon="12.3325075"><ele>207.33333333333331</ele><time>2026-04-02T10:52:48.709Z</time></trkpt><trkpt lat="42.9069119" lon="12.3327178"><ele>207.0</ele><time>2026-04-02T10:52:49.714Z</time></trkpt><trkpt lat="42.9069369" lon="12.3329299"><ele>206.66666666666669</ele><time>2026-04-02T10:52:50.719Z</time></trkpt><trkpt lat="42.9069837" lon="12.3331626"><ele>206.33333333333334</ele><time>2026-04-02T10:52:51.712Z</time></trkpt><trkpt lat="42.9070472" lon="12.3333545"><ele>206.0</ele><time>2026-04-02T10:52:52.711Z</time></trkpt><trkpt lat="42.9071198" lon="12.3335471"><ele>206.0</ele><time>2026-04-02T10:52:53.709Z</time></trkpt><trkpt lat="42.9071966" lon="12.3337363"><ele>206.0</ele><time>2026-04-02T10:52:54.709Z</time></trkpt><trkpt lat="42.9072704" lon="12.3339266"><ele>206.0</ele><time>2026-04-02T10:52:55.706Z</time></trkpt><trkpt lat="42.9073478" lon="12.3341008"><ele>205.0</ele><time>2026-04-02T10:52:56.711Z</time></trkpt><trkpt lat="42.9074116" lon="12.3342754"><ele>204.0</ele><time>2026-04-02T10:52:57.708Z</time></trkpt><trkpt lat="42.9074772" lon="12.3344409"><ele>203.0</ele><time>2026-04-02T10:52:58.711Z</time></trkpt><trkpt lat="42.9075591" lon="12.3345756"><ele>202.0</ele><time>2026-04-02T10:52:59.711Z</time></trkpt><trkpt lat="42.9076595" lon="12.3346917"><ele>202.0</ele><time>2026-04-02T10:53:00.711Z</time></trkpt><trkpt lat="42.9077757" lon="12.334755"><ele>202.0</ele><time>2026-04-02T10:53:01.709Z</time></trkpt><trkpt lat="42.9078921" lon="12.3347962"><ele>202.0</ele><time>2026-04-02T10:53:02.708Z</time></trkpt><trkpt lat="42.9080081" lon="12.3347964"><ele>202.0</ele><time>2026-04-02T10:53:03.714Z</time></trkpt><trkpt lat="42.9081873" lon="12.3346763"><ele>202.0</ele><time>2026-04-02T10:53:04.714Z</time></trkpt><trkpt lat="42.908323" lon="12.3345989"><ele>202.0</ele><time>2026-04-02T10:53:05.709Z</time></trkpt><trkpt lat="42.9084486" lon="12.3345256"><ele>202.0</ele><time>2026-04-02T10:53:06.71Z</time></trkpt><trkpt lat="42.9085652" lon="12.3344713"><ele>202.0</ele><time>2026-04-02T10:53:07.713Z</time></trkpt><trkpt lat="42.9086741" lon="12.3344304"><ele>200.39999999999998</ele><time>2026-04-02T10:53:08.71Z</time></trkpt><trkpt lat="42.908783" lon="12.3343956"><ele>198.79999999999998</ele><time>2026-04-02T10:53:09.709Z</time></trkpt><trkpt lat="42.9088903" lon="12.3344277"><ele>197.2</ele><time>2026-04-02T10:53:10.709Z</time></trkpt><trkpt lat="42.908979" lon="12.3345026"><ele>195.6</ele><time>2026-04-02T10:53:11.71Z</time></trkpt><trkpt lat="42.9090654" lon="12.3345908"><ele>194.0</ele><time>2026-04-02T10:53:12.711Z</time></trkpt><trkpt lat="42.9091477" lon="12.3346622"><ele>193.50000000000003</ele><time>2026-04-02T10:53:13.711Z</time></trkpt><trkpt lat="42.9092176" lon="12.3347434"><ele>193.0</ele><time>2026-04-02T10:53:14.712Z</time></trkpt><trkpt lat="42.9092606" lon="12.3348384"><ele>192.5</ele><time>2026-04-02T10:53:15.711Z</time></trkpt><trkpt lat="42.9092856" lon="12.3349246"><ele>192.0</ele><time>2026-04-02T10:53:16.71Z</time></trkpt><trkpt lat="42.9093199" lon="12.3350312"><ele>191.5</ele><time>2026-04-02T10:53:18.71Z</time></trkpt><trkpt lat="42.9093616" lon="12.3351249"><ele>191.0</ele><time>2026-04-02T10:53:21.712Z</time></trkpt><trkpt lat="42.9094786" lon="12.3351683"><ele>190.0</ele><time>2026-04-02T10:53:23.718Z</time></trkpt><trkpt lat="42.9095446" lon="12.3351887"><ele>189.0</ele><time>2026-04-02T10:53:24.708Z</time></trkpt><trkpt lat="42.9096522" lon="12.335246"><ele>188.0</ele><time>2026-04-02T10:53:26.71Z</time></trkpt><trkpt lat="42.9097427" lon="12.3353068"><ele>187.0</ele><time>2026-04-02T10:53:28.718Z</time></trkpt><trkpt lat="42.9098412" lon="12.3352772"><ele>186.0</ele><time>2026-04-02T10:53:30.712Z</time></trkpt><trkpt lat="42.9098957" lon="12.3352279"><ele>186.0</ele><time>2026-04-02T10:53:31.709Z</time></trkpt><trkpt lat="42.9099882" lon="12.3350993"><ele>186.0</ele><time>2026-04-02T10:53:33.711Z</time></trkpt><trkpt lat="42.9100294" lon="12.3350179"><ele>186.0</ele><time>2026-04-02T10:53:34.711Z</time></trkpt><trkpt lat="42.9100564" lon="12.3349306"><ele>186.0</ele><time>2026-04-02T10:53:35.711Z</time></trkpt><trkpt lat="42.9100788" lon="12.3348402"><ele>186.0</ele><time>2026-04-02T10:53:36.712Z</time></trkpt><trkpt lat="42.9100987" lon="12.3347497"><ele>186.0</ele><time>2026-04-02T10:53:37.709Z</time></trkpt><trkpt lat="42.9101195" lon="12.3346576"><ele>184.5</ele><time>2026-04-02T10:53:38.711Z</time></trkpt><trkpt lat="42.9101436" lon="12.3345596"><ele>183.0</ele><time>2026-04-02T10:53:39.713Z</time></trkpt><trkpt lat="42.9101659" lon="12.3344596"><ele>181.5</ele><time>2026-04-02T10:53:40.714Z</time></trkpt><trkpt lat="42.9101902" lon="12.3343562"><ele>180.0</ele><time>2026-04-02T10:53:41.711Z</time></trkpt><trkpt lat="42.9102151" lon="12.3342479"><ele>178.5</ele><time>2026-04-02T10:53:42.712Z</time></trkpt><trkpt lat="42.9102421" lon="12.3341433"><ele>177.0</ele><time>2026-04-02T10:53:43.705Z</time></trkpt><trkpt lat="42.9102821" lon="12.3340231"><ele>177.0</ele><time>2026-04-02T10:53:44.712Z</time></trkpt><trkpt lat="42.9103316" lon="12.3339122"><ele>177.0</ele><time>2026-04-02T10:53:45.707Z</time></trkpt><trkpt lat="42.9103865" lon="12.3337933"><ele>177.0</ele><time>2026-04-02T10:53:46.712Z</time></trkpt><trkpt lat="42.9104463" lon="12.3336733"><ele>177.0</ele><time>2026-04-02T10:53:47.711Z</time></trkpt><trkpt lat="42.9104993" lon="12.3335627"><ele>177.0</ele><time>2026-04-02T10:53:48.712Z</time></trkpt><trkpt lat="42.910554" lon="12.3334473"><ele>178.0</ele><time>2026-04-02T10:53:49.71Z</time></trkpt><trkpt lat="42.9106051" lon="12.33334"><ele>179.0</ele><time>2026-04-02T10:53:50.715Z</time></trkpt><trkpt lat="42.9106436" lon="12.3332237"><ele>180.0</ele><time>2026-04-02T10:53:51.709Z</time></trkpt><trkpt lat="42.9106753" lon="12.3331181"><ele>181.0</ele><time>2026-04-02T10:53:52.709Z</time></trkpt><trkpt lat="42.9107104" lon="12.333023"><ele>182.0</ele><time>2026-04-02T10:53:53.713Z</time></trkpt><trkpt lat="42.9107441" lon="12.3329057"><ele>183.0</ele><time>2026-04-02T10:53:54.709Z</time></trkpt><trkpt lat="42.9107757" lon="12.3327834"><ele>183.33333333333334</ele><time>2026-04-02T10:53:55.717Z</time></trkpt><trkpt lat="42.9108071" lon="12.3326562"><ele>183.66666666666666</ele><time>2026-04-02T10:53:56.713Z</time></trkpt><trkpt lat="42.9108384" lon="12.3325343"><ele>184.0</ele><time>2026-04-02T10:53:57.711Z</time></trkpt><trkpt lat="42.9108625" lon="12.3324208"><ele>184.33333333333331</ele><time>2026-04-02T10:53:58.712Z</time></trkpt><trkpt lat="42.9108851" lon="12.3323068"><ele>184.66666666666666</ele><time>2026-04-02T10:53:59.712Z</time></trkpt><trkpt lat="42.9109089" lon="12.3322024"><ele>185.0</ele><time>2026-04-02T10:54:00.712Z</time></trkpt><trkpt lat="42.9109305" lon="12.3321183"><ele>184.0</ele><time>2026-04-02T10:54:01.709Z</time></trkpt><trkpt lat="42.9109752" lon="12.3319851"><ele>183.0</ele><time>2026-04-02T10:54:03.711Z</time></trkpt><trkpt lat="42.9110601" lon="12.3319333"><ele>182.0</ele><time>2026-04-02T10:54:05.712Z</time></trkpt><trkpt lat="42.9111637" lon="12.3320286"><ele>181.0</ele><time>2026-04-02T10:54:07.708Z</time></trkpt><trkpt lat="42.9112128" lon="12.3321237"><ele>180.0</ele><time>2026-04-02T10:54:08.716Z</time></trkpt><trkpt lat="42.9112525" lon="12.3322387"><ele>179.0</ele><time>2026-04-02T10:54:09.711Z</time></trkpt><trkpt lat="42.9113015" lon="12.332381"><ele>178.0</ele><time>2026-04-02T10:54:10.712Z</time></trkpt><trkpt lat="42.9113585" lon="12.332532"><ele>177.0</ele><time>2026-04-02T10:54:11.711Z</time></trkpt><trkpt lat="42.9114322" lon="12.3326883"><ele>176.0</ele><time>2026-04-02T10:54:12.709Z</time></trkpt><trkpt lat="42.9115139" lon="12.3328562"><ele>176.0</ele><time>2026-04-02T10:54:13.709Z</time></trkpt><trkpt lat="42.9116" lon="12.3330475"><ele>176.0</ele><time>2026-04-02T10:54:14.709Z</time></trkpt><trkpt lat="42.911683" lon="12.3332409"><ele>176.0</ele><time>2026-04-02T10:54:15.718Z</time></trkpt><trkpt lat="42.9117675" lon="12.3334253"><ele>172.66666666666666</ele><time>2026-04-02T10:54:16.709Z</time></trkpt><trkpt lat="42.9118461" lon="12.3336105"><ele>169.33333333333334</ele><time>2026-04-02T10:54:17.71Z</time></trkpt><trkpt lat="42.9119283" lon="12.3337837"><ele>166.0</ele><time>2026-04-02T10:54:18.713Z</time></trkpt><trkpt lat="42.9120067" lon="12.3339555"><ele>166.0</ele><time>2026-04-02T10:54:19.71Z</time></trkpt><trkpt lat="42.912087" lon="12.3341177"><ele>166.0</ele><time>2026-04-02T10:54:20.718Z</time></trkpt><trkpt lat="42.9121902" lon="12.3342783"><ele>166.0</ele><time>2026-04-02T10:54:21.709Z</time></trkpt><trkpt lat="42.9123128" lon="12.3344189"><ele>166.0</ele><time>2026-04-02T10:54:22.71Z</time></trkpt><trkpt lat="42.9124399" lon="12.3345505"><ele>166.0</ele><time>2026-04-02T10:54:23.711Z</time></trkpt><trkpt lat="42.9125598" lon="12.3346675"><ele>166.0</ele><time>2026-04-02T10:54:24.71Z</time></trkpt><trkpt lat="42.9126714" lon="12.3347829"><ele>166.0</ele><time>2026-04-02T10:54:25.707Z</time></trkpt><trkpt lat="42.9127715" lon="12.3348901"><ele>165.5</ele><time>2026-04-02T10:54:26.712Z</time></trkpt><trkpt lat="42.9128485" lon="12.3350208"><ele>165.0</ele><time>2026-04-02T10:54:27.708Z</time></trkpt><trkpt lat="42.9129005" lon="12.3351642"><ele>164.5</ele><time>2026-04-02T10:54:28.71Z</time></trkpt><trkpt lat="42.9129356" lon="12.3353257"><ele>164.0</ele><time>2026-04-02T10:54:29.712Z</time></trkpt><trkpt lat="42.9129396" lon="12.3355046"><ele>164.5</ele><time>2026-04-02T10:54:30.711Z</time></trkpt><trkpt lat="42.9129037" lon="12.3356897"><ele>165.0</ele><time>2026-04-02T10:54:31.715Z</time></trkpt><trkpt lat="42.9128537" lon="12.3358576"><ele>165.5</ele><time>2026-04-02T10:54:32.712Z</time></trkpt><trkpt lat="42.9128094" lon="12.3360106"><ele>166.0</ele><time>2026-04-02T10:54:33.712Z</time></trkpt><trkpt lat="42.9127722" lon="12.3361575"><ele>166.0</ele><time>2026-04-02T10:54:34.71Z</time></trkpt><trkpt lat="42.91274" lon="12.3362928"><ele>166.0</ele><time>2026-04-02T10:54:35.713Z</time></trkpt><trkpt lat="42.9127137" lon="12.3364238"><ele>166.0</ele><time>2026-04-02T10:54:36.709Z</time></trkpt><trkpt lat="42.912691" lon="12.3365356"><ele>166.0</ele><time>2026-04-02T10:54:37.707Z</time></trkpt><trkpt lat="42.91267" lon="12.3366401"><ele>166.0</ele><time>2026-04-02T10:54:38.712Z</time></trkpt><trkpt lat="42.9126512" lon="12.336732"><ele>166.0</ele><time>2026-04-02T10:54:39.711Z</time></trkpt><trkpt lat="42.9126184" lon="12.3368313"><ele>166.0</ele><time>2026-04-02T10:54:41.708Z</time></trkpt><trkpt lat="42.9125652" lon="12.3369115"><ele>166.0</ele><time>2026-04-02T10:54:45.709Z</time></trkpt><trkpt lat="42.9125146" lon="12.3369898"><ele>166.0</ele><time>2026-04-02T10:54:47.714Z</time></trkpt><trkpt lat="42.9125217" lon="12.3370969"><ele>166.0</ele><time>2026-04-02T10:54:49.714Z</time></trkpt><trkpt lat="42.9125804" lon="12.337133"><ele>166.0</ele><time>2026-04-02T10:54:50.717Z</time></trkpt><trkpt lat="42.9126456" lon="12.3371326"><ele>166.0</ele><time>2026-04-02T10:54:51.712Z</time></trkpt><trkpt lat="42.9127869" lon="12.3371356"><ele>166.20000000000002</ele><time>2026-04-02T10:54:53.714Z</time></trkpt><trkpt lat="42.9128599" lon="12.3371355"><ele>166.4</ele><time>2026-04-02T10:54:54.712Z</time></trkpt><trkpt lat="42.9129444" lon="12.3371388"><ele>166.6</ele><time>2026-04-02T10:54:55.709Z</time></trkpt><trkpt lat="42.913044" lon="12.3371408"><ele>166.8</ele><time>2026-04-02T10:54:56.715Z</time></trkpt><trkpt lat="42.9131644" lon="12.3371285"><ele>167.0</ele><time>2026-04-02T10:54:57.715Z</time></trkpt><trkpt lat="42.913298" lon="12.3371201"><ele>166.75</ele><time>2026-04-02T10:54:58.714Z</time></trkpt><trkpt lat="42.9134423" lon="12.3371281"><ele>166.5</ele><time>2026-04-02T10:54:59.712Z</time></trkpt><trkpt lat="42.9135868" lon="12.3371307"><ele>166.25</ele><time>2026-04-02T10:55:00.709Z</time></trkpt><trkpt lat="42.9137337" lon="12.3371421"><ele>166.0</ele><time>2026-04-02T10:55:01.716Z</time></trkpt><trkpt lat="42.913888" lon="12.3371509"><ele>166.0</ele><time>2026-04-02T10:55:02.712Z</time></trkpt><trkpt lat="42.914054" lon="12.3371517"><ele>166.0</ele><time>2026-04-02T10:55:03.709Z</time></trkpt><trkpt lat="42.9142166" lon="12.33715"><ele>166.0</ele><time>2026-04-02T10:55:04.714Z</time></trkpt><trkpt lat="42.9143849" lon="12.3371486"><ele>165.66666666666669</ele><time>2026-04-02T10:55:05.708Z</time></trkpt><trkpt lat="42.9145559" lon="12.3371531"><ele>165.33333333333334</ele><time>2026-04-02T10:55:06.71Z</time></trkpt><trkpt lat="42.9147311" lon="12.3371587"><ele>165.0</ele><time>2026-04-02T10:55:07.708Z</time></trkpt><trkpt lat="42.9149062" lon="12.3371636"><ele>165.0</ele><time>2026-04-02T10:55:08.708Z</time></trkpt><trkpt lat="42.9150949" lon="12.3371536"><ele>165.0</ele><time>2026-04-02T10:55:09.712Z</time></trkpt><trkpt lat="42.9152706" lon="12.3371489"><ele>165.0</ele><time>2026-04-02T10:55:10.709Z</time></trkpt><trkpt lat="42.9154498" lon="12.3371504"><ele>165.0</ele><time>2026-04-02T10:55:11.711Z</time></trkpt><trkpt lat="42.915632" lon="12.3371502"><ele>165.0</ele><time>2026-04-02T10:55:12.711Z</time></trkpt><trkpt lat="42.9157966" lon="12.3371533"><ele>165.0</ele><time>2026-04-02T10:55:13.713Z</time></trkpt><trkpt lat="42.9159529" lon="12.337175"><ele>165.0</ele><time>2026-04-02T10:55:14.711Z</time></trkpt><trkpt lat="42.9160899" lon="12.3372356"><ele>165.0</ele><time>2026-04-02T10:55:15.709Z</time></trkpt><trkpt lat="42.9162359" lon="12.3373213"><ele>165.0</ele><time>2026-04-02T10:55:16.709Z</time></trkpt><trkpt lat="42.9163745" lon="12.3374385"><ele>165.0</ele><time>2026-04-02T10:55:17.714Z</time></trkpt><trkpt lat="42.9165037" lon="12.337569"><ele>165.0</ele><time>2026-04-02T10:55:18.714Z</time></trkpt><trkpt lat="42.9166247" lon="12.3376909"><ele>165.0</ele><time>2026-04-02T10:55:19.718Z</time></trkpt><trkpt lat="42.9167421" lon="12.3377939"><ele>165.75</ele><time>2026-04-02T10:55:20.718Z</time></trkpt><trkpt lat="42.9168596" lon="12.3378749"><ele>166.5</ele><time>2026-04-02T10:55:21.711Z</time></trkpt><trkpt lat="42.9169862" lon="12.3379267"><ele>167.25</ele><time>2026-04-02T10:55:22.71Z</time></trkpt><trkpt lat="42.9171026" lon="12.3379422"><ele>168.0</ele><time>2026-04-02T10:55:23.712Z</time></trkpt><trkpt lat="42.9171973" lon="12.337956"><ele>168.0</ele><time>2026-04-02T10:55:24.712Z</time></trkpt><trkpt lat="42.9172806" lon="12.3379773"><ele>168.0</ele><time>2026-04-02T10:55:25.713Z</time></trkpt><trkpt lat="42.9173533" lon="12.3380114"><ele>168.0</ele><time>2026-04-02T10:55:26.709Z</time></trkpt><trkpt lat="42.917436" lon="12.3380363"><ele>168.0</ele><time>2026-04-02T10:55:27.713Z</time></trkpt><trkpt lat="42.9175509" lon="12.3379792"><ele>168.0</ele><time>2026-04-02T10:55:29.712Z</time></trkpt><trkpt lat="42.917588" lon="12.3378867"><ele>168.0</ele><time>2026-04-02T10:55:30.711Z</time></trkpt><trkpt lat="42.9176263" lon="12.3377684"><ele>168.5</ele><time>2026-04-02T10:55:31.71Z</time></trkpt><trkpt lat="42.9176949" lon="12.33765"><ele>169.0</ele><time>2026-04-02T10:55:32.712Z</time></trkpt><trkpt lat="42.9177884" lon="12.3375433"><ele>169.5</ele><time>2026-04-02T10:55:33.718Z</time></trkpt><trkpt lat="42.9178968" lon="12.3374566"><ele>170.0</ele><time>2026-04-02T10:55:34.707Z</time></trkpt><trkpt lat="42.9180042" lon="12.3373794"><ele>170.0</ele><time>2026-04-02T10:55:35.717Z</time></trkpt><trkpt lat="42.918137" lon="12.3372766"><ele>170.0</ele><time>2026-04-02T10:55:36.711Z</time></trkpt><trkpt lat="42.9182674" lon="12.3371709"><ele>170.0</ele><time>2026-04-02T10:55:37.709Z</time></trkpt><trkpt lat="42.9184068" lon="12.3370653"><ele>170.66666666666666</ele><time>2026-04-02T10:55:38.712Z</time></trkpt><trkpt lat="42.9185424" lon="12.3369619"><ele>171.33333333333334</ele><time>2026-04-02T10:55:39.707Z</time></trkpt><trkpt lat="42.9186768" lon="12.336846"><ele>172.0</ele><time>2026-04-02T10:55:40.71Z</time></trkpt><trkpt lat="42.9187969" lon="12.3366938"><ele>172.0</ele><time>2026-04-02T10:55:41.71Z</time></trkpt><trkpt lat="42.9188948" lon="12.3365005"><ele>172.0</ele><time>2026-04-02T10:55:42.714Z</time></trkpt><trkpt lat="42.9189722" lon="12.3362909"><ele>172.0</ele><time>2026-04-02T10:55:43.711Z</time></trkpt><trkpt lat="42.9190407" lon="12.3360686"><ele>172.33333333333334</ele><time>2026-04-02T10:55:44.71Z</time></trkpt><trkpt lat="42.9191106" lon="12.335853"><ele>172.66666666666666</ele><time>2026-04-02T10:55:45.717Z</time></trkpt><trkpt lat="42.9191928" lon="12.3356375"><ele>173.0</ele><time>2026-04-02T10:55:46.71Z</time></trkpt><trkpt lat="42.9192701" lon="12.3354083"><ele>175.0</ele><time>2026-04-02T10:55:47.713Z</time></trkpt><trkpt lat="42.9193451" lon="12.3351796"><ele>177.0</ele><time>2026-04-02T10:55:48.714Z</time></trkpt><trkpt lat="42.9194225" lon="12.3349479"><ele>179.0</ele><time>2026-04-02T10:55:49.71Z</time></trkpt><trkpt lat="42.9194965" lon="12.3347224"><ele>178.66666666666666</ele><time>2026-04-02T10:55:50.71Z</time></trkpt><trkpt lat="42.9195727" lon="12.334494"><ele>178.33333333333334</ele><time>2026-04-02T10:55:51.718Z</time></trkpt><trkpt lat="42.9196446" lon="12.3342649"><ele>178.0</ele><time>2026-04-02T10:55:52.712Z</time></trkpt><trkpt lat="42.9197158" lon="12.3340353"><ele>178.0</ele><time>2026-04-02T10:55:53.708Z</time></trkpt><trkpt lat="42.9197964" lon="12.3338051"><ele>178.0</ele><time>2026-04-02T10:55:54.711Z</time></trkpt><trkpt lat="42.9198746" lon="12.3335734"><ele>178.0</ele><time>2026-04-02T10:55:55.717Z</time></trkpt><trkpt lat="42.9199508" lon="12.3333425"><ele>178.0</ele><time>2026-04-02T10:55:56.714Z</time></trkpt><trkpt lat="42.9200298" lon="12.3331112"><ele>178.0</ele><time>2026-04-02T10:55:57.717Z</time></trkpt><trkpt lat="42.9201071" lon="12.3328762"><ele>178.0</ele><time>2026-04-02T10:55:58.712Z</time></trkpt><trkpt lat="42.9201829" lon="12.3326406"><ele>179.66666666666669</ele><time>2026-04-02T10:55:59.711Z</time></trkpt><trkpt lat="42.9202612" lon="12.332405"><ele>181.33333333333334</ele><time>2026-04-02T10:56:00.71Z</time></trkpt><trkpt lat="42.9203401" lon="12.3321622"><ele>183.0</ele><time>2026-04-02T10:56:01.713Z</time></trkpt><trkpt lat="42.9204204" lon="12.3319221"><ele>183.66666666666666</ele><time>2026-04-02T10:56:02.711Z</time></trkpt><trkpt lat="42.9205003" lon="12.3316735"><ele>184.33333333333331</ele><time>2026-04-02T10:56:03.71Z</time></trkpt><trkpt lat="42.9205868" lon="12.3314182"><ele>185.0</ele><time>2026-04-02T10:56:04.708Z</time></trkpt><trkpt lat="42.9206765" lon="12.3311649"><ele>185.66666666666666</ele><time>2026-04-02T10:56:05.715Z</time></trkpt><trkpt lat="42.920764" lon="12.3309028"><ele>186.33333333333334</ele><time>2026-04-02T10:56:06.71Z</time></trkpt><trkpt lat="42.9208537" lon="12.3306406"><ele>187.0</ele><time>2026-04-02T10:56:07.711Z</time></trkpt><trkpt lat="42.9209439" lon="12.3303773"><ele>188.33333333333334</ele><time>2026-04-02T10:56:08.713Z</time></trkpt><trkpt lat="42.9210369" lon="12.330114"><ele>189.66666666666666</ele><time>2026-04-02T10:56:09.707Z</time></trkpt><trkpt lat="42.9211247" lon="12.3298546"><ele>191.0</ele><time>2026-04-02T10:56:10.713Z</time></trkpt><trkpt lat="42.9212057" lon="12.3296025"><ele>191.0</ele><time>2026-04-02T10:56:11.711Z</time></trkpt><trkpt lat="42.9212896" lon="12.3293508"><ele>191.0</ele><time>2026-04-02T10:56:12.712Z</time></trkpt><trkpt lat="42.9213704" lon="12.3291114"><ele>191.0</ele><time>2026-04-02T10:56:13.708Z</time></trkpt><trkpt lat="42.9214466" lon="12.3288621"><ele>192.33333333333331</ele><time>2026-04-02T10:56:14.711Z</time></trkpt><trkpt lat="42.9215087" lon="12.3286146"><ele>193.66666666666666</ele><time>2026-04-02T10:56:15.71Z</time></trkpt><trkpt lat="42.9215357" lon="12.3283577"><ele>195.0</ele><time>2026-04-02T10:56:16.712Z</time></trkpt><trkpt lat="42.9215282" lon="12.3280934"><ele>197.0</ele><time>2026-04-02T10:56:17.708Z</time></trkpt><trkpt lat="42.9215024" lon="12.3278366"><ele>199.0</ele><time>2026-04-02T10:56:18.709Z</time></trkpt><trkpt lat="42.921473" lon="12.3275747"><ele>201.0</ele><time>2026-04-02T10:56:19.712Z</time></trkpt><trkpt lat="42.9214503" lon="12.327314"><ele>202.0</ele><time>2026-04-02T10:56:20.707Z</time></trkpt><trkpt lat="42.9214255" lon="12.3270563"><ele>203.0</ele><time>2026-04-02T10:56:21.709Z</time></trkpt><trkpt lat="42.9213971" lon="12.326803"><ele>204.0</ele><time>2026-04-02T10:56:22.712Z</time></trkpt><trkpt lat="42.9213719" lon="12.3265684"><ele>204.75</ele><time>2026-04-02T10:56:23.711Z</time></trkpt><trkpt lat="42.9213484" lon="12.3263569"><ele>205.5</ele><time>2026-04-02T10:56:24.71Z</time></trkpt><trkpt lat="42.9213251" lon="12.3261717"><ele>206.25</ele><time>2026-04-02T10:56:25.71Z</time></trkpt><trkpt lat="42.921312" lon="12.3260076"><ele>207.0</ele><time>2026-04-02T10:56:26.711Z</time></trkpt><trkpt lat="42.9213114" lon="12.3258656"><ele>207.0</ele><time>2026-04-02T10:56:27.708Z</time></trkpt><trkpt lat="42.9213397" lon="12.3257333"><ele>207.0</ele><time>2026-04-02T10:56:28.709Z</time></trkpt><trkpt lat="42.9213906" lon="12.3256287"><ele>207.0</ele><time>2026-04-02T10:56:29.71Z</time></trkpt><trkpt lat="42.9214792" lon="12.3255703"><ele>207.0</ele><time>2026-04-02T10:56:30.71Z</time></trkpt><trkpt lat="42.921572" lon="12.32556"><ele>207.0</ele><time>2026-04-02T10:56:31.708Z</time></trkpt><trkpt lat="42.9216631" lon="12.325608"><ele>209.75</ele><time>2026-04-02T10:56:32.712Z</time></trkpt><trkpt lat="42.9217433" lon="12.3256968"><ele>212.5</ele><time>2026-04-02T10:56:33.709Z</time></trkpt><trkpt lat="42.9218056" lon="12.3258316"><ele>215.25</ele><time>2026-04-02T10:56:34.713Z</time></trkpt><trkpt lat="42.9218689" lon="12.3259827"><ele>218.0</ele><time>2026-04-02T10:56:35.711Z</time></trkpt><trkpt lat="42.9219396" lon="12.3261361"><ele>218.0</ele><time>2026-04-02T10:56:36.709Z</time></trkpt><trkpt lat="42.9220113" lon="12.3263123"><ele>218.0</ele><time>2026-04-02T10:56:37.714Z</time></trkpt><trkpt lat="42.9220852" lon="12.3264817"><ele>218.0</ele><time>2026-04-02T10:56:38.709Z</time></trkpt><trkpt lat="42.9221466" lon="12.326653"><ele>218.0</ele><time>2026-04-02T10:56:39.713Z</time></trkpt><trkpt lat="42.9222004" lon="12.3268409"><ele>217.75</ele><time>2026-04-02T10:56:40.711Z</time></trkpt><trkpt lat="42.9222415" lon="12.3270296"><ele>217.5</ele><time>2026-04-02T10:56:41.719Z</time></trkpt><trkpt lat="42.9222748" lon="12.3272113"><ele>217.25</ele><time>2026-04-02T10:56:42.709Z</time></trkpt><trkpt lat="42.9223056" lon="12.3273756"><ele>217.0</ele><time>2026-04-02T10:56:43.713Z</time></trkpt><trkpt lat="42.9223421" lon="12.3275098"><ele>216.0</ele><time>2026-04-02T10:56:44.712Z</time></trkpt><trkpt lat="42.9224023" lon="12.3276203"><ele>215.0</ele><time>2026-04-02T10:56:45.708Z</time></trkpt><trkpt lat="42.9224755" lon="12.3276809"><ele>214.0</ele><time>2026-04-02T10:56:46.708Z</time></trkpt><trkpt lat="42.9225453" lon="12.3277069"><ele>213.0</ele><time>2026-04-02T10:56:47.711Z</time></trkpt><trkpt lat="42.9226428" lon="12.327676"><ele>212.0</ele><time>2026-04-02T10:56:48.71Z</time></trkpt><trkpt lat="42.9227207" lon="12.3276003"><ele>214.5</ele><time>2026-04-02T10:56:49.711Z</time></trkpt><trkpt lat="42.922769" lon="12.3274911"><ele>217.0</ele><time>2026-04-02T10:56:50.711Z</time></trkpt><trkpt lat="42.9227785" lon="12.3273521"><ele>219.5</ele><time>2026-04-02T10:56:51.714Z</time></trkpt><trkpt lat="42.9227622" lon="12.3271845"><ele>222.0</ele><time>2026-04-02T10:56:52.716Z</time></trkpt><trkpt lat="42.922735" lon="12.3270073"><ele>223.5</ele><time>2026-04-02T10:56:53.714Z</time></trkpt><trkpt lat="42.9227123" lon="12.3268169"><ele>225.0</ele><time>2026-04-02T10:56:54.713Z</time></trkpt><trkpt lat="42.9226806" lon="12.3266233"><ele>226.5</ele><time>2026-04-02T10:56:55.71Z</time></trkpt><trkpt lat="42.9226471" lon="12.3264189"><ele>228.0</ele><time>2026-04-02T10:56:56.708Z</time></trkpt><trkpt lat="42.9226104" lon="12.3262218"><ele>228.5</ele><time>2026-04-02T10:56:57.714Z</time></trkpt><trkpt lat="42.9225876" lon="12.3260445"><ele>229.0</ele><time>2026-04-02T10:56:58.711Z</time></trkpt><trkpt lat="42.9225897" lon="12.325872"><ele>229.5</ele><time>2026-04-02T10:56:59.711Z</time></trkpt><trkpt lat="42.9226177" lon="12.3257032"><ele>230.0</ele><time>2026-04-02T10:57:00.712Z</time></trkpt><trkpt lat="42.9226753" lon="12.3255573"><ele>228.5</ele><time>2026-04-02T10:57:01.715Z</time></trkpt><trkpt lat="42.9227615" lon="12.3254304"><ele>227.0</ele><time>2026-04-02T10:57:02.717Z</time></trkpt><trkpt lat="42.9228733" lon="12.325347"><ele>225.5</ele><time>2026-04-02T10:57:03.709Z</time></trkpt><trkpt lat="42.9230035" lon="12.3253008"><ele>224.0</ele><time>2026-04-02T10:57:04.713Z</time></trkpt><trkpt lat="42.9231457" lon="12.3252825"><ele>224.0</ele><time>2026-04-02T10:57:05.717Z</time></trkpt><trkpt lat="42.9232907" lon="12.3252645"><ele>224.0</ele><time>2026-04-02T10:57:06.711Z</time></trkpt><trkpt lat="42.9234471" lon="12.3252461"><ele>224.0</ele><time>2026-04-02T10:57:07.713Z</time></trkpt><trkpt lat="42.9235915" lon="12.3252222"><ele>224.0</ele><time>2026-04-02T10:57:08.712Z</time></trkpt><trkpt lat="42.9237387" lon="12.325181"><ele>227.33333333333334</ele><time>2026-04-02T10:57:09.714Z</time></trkpt><trkpt lat="42.9238766" lon="12.325094"><ele>230.66666666666669</ele><time>2026-04-02T10:57:10.713Z</time></trkpt><trkpt lat="42.924" lon="12.3249587"><ele>234.0</ele><time>2026-04-02T10:57:11.714Z</time></trkpt><trkpt lat="42.9241083" lon="12.3248102"><ele>233.66666666666669</ele><time>2026-04-02T10:57:12.716Z</time></trkpt><trkpt lat="42.924188" lon="12.3246456"><ele>233.33333333333334</ele><time>2026-04-02T10:57:13.708Z</time></trkpt><trkpt lat="42.9242425" lon="12.3244495"><ele>233.0</ele><time>2026-04-02T10:57:14.718Z</time></trkpt><trkpt lat="42.9242684" lon="12.3242436"><ele>235.33333333333334</ele><time>2026-04-02T10:57:15.71Z</time></trkpt><trkpt lat="42.9242726" lon="12.3240162"><ele>237.66666666666669</ele><time>2026-04-02T10:57:16.712Z</time></trkpt><trkpt lat="42.9242624" lon="12.3237961"><ele>240.0</ele><time>2026-04-02T10:57:17.709Z</time></trkpt><trkpt lat="42.9242137" lon="12.3235838"><ele>240.0</ele><time>2026-04-02T10:57:18.707Z</time></trkpt><trkpt lat="42.9241229" lon="12.3233913"><ele>240.0</ele><time>2026-04-02T10:57:19.71Z</time></trkpt><trkpt lat="42.9240068" lon="12.3232105"><ele>240.0</ele><time>2026-04-02T10:57:20.708Z</time></trkpt><trkpt lat="42.9238991" lon="12.3230471"><ele>241.4</ele><time>2026-04-02T10:57:21.715Z</time></trkpt><trkpt lat="42.9238113" lon="12.3229038"><ele>242.8</ele><time>2026-04-02T10:57:22.712Z</time></trkpt><trkpt lat="42.9237535" lon="12.322787"><ele>244.2</ele><time>2026-04-02T10:57:23.709Z</time></trkpt><trkpt lat="42.9237386" lon="12.3226621"><ele>245.6</ele><time>2026-04-02T10:57:24.711Z</time></trkpt><trkpt lat="42.9237539" lon="12.3225247"><ele>247.0</ele><time>2026-04-02T10:57:25.71Z</time></trkpt><trkpt lat="42.9238103" lon="12.322423"><ele>247.0</ele><time>2026-04-02T10:57:26.706Z</time></trkpt><trkpt lat="42.9238908" lon="12.3223596"><ele>247.0</ele><time>2026-04-02T10:57:27.717Z</time></trkpt><trkpt lat="42.9239953" lon="12.3223476"><ele>247.0</ele><time>2026-04-02T10:57:28.713Z</time></trkpt><trkpt lat="42.924101" lon="12.3224037"><ele>247.0</ele><time>2026-04-02T10:57:29.712Z</time></trkpt><trkpt lat="42.9241992" lon="12.3225055"><ele>247.0</ele><time>2026-04-02T10:57:30.707Z</time></trkpt><trkpt lat="42.9242923" lon="12.3226405"><ele>246.0</ele><time>2026-04-02T10:57:31.713Z</time></trkpt><trkpt lat="42.9244035" lon="12.3227826"><ele>245.0</ele><time>2026-04-02T10:57:32.713Z</time></trkpt><trkpt lat="42.9245145" lon="12.3229296"><ele>244.0</ele><time>2026-04-02T10:57:33.708Z</time></trkpt><trkpt lat="42.9246283" lon="12.3230773"><ele>244.0</ele><time>2026-04-02T10:57:34.711Z</time></trkpt><trkpt lat="42.9247455" lon="12.3232359"><ele>244.0</ele><time>2026-04-02T10:57:35.711Z</time></trkpt><trkpt lat="42.9248681" lon="12.3233967"><ele>244.0</ele><time>2026-04-02T10:57:36.709Z</time></trkpt><trkpt lat="42.9249941" lon="12.3235587"><ele>242.66666666666666</ele><time>2026-04-02T10:57:37.711Z</time></trkpt><trkpt lat="42.9251266" lon="12.3237154"><ele>241.33333333333331</ele><time>2026-04-02T10:57:38.711Z</time></trkpt><trkpt lat="42.9252673" lon="12.3238739"><ele>240.0</ele><time>2026-04-02T10:57:39.711Z</time></trkpt><trkpt lat="42.9254094" lon="12.3240317"><ele>243.0</ele><time>2026-04-02T10:57:40.72Z</time></trkpt><trkpt lat="42.9255452" lon="12.3241945"><ele>246.0</ele><time>2026-04-02T10:57:41.713Z</time></trkpt><trkpt lat="42.9256876" lon="12.3243507"><ele>249.0</ele><time>2026-04-02T10:57:42.71Z</time></trkpt><trkpt lat="42.9258253" lon="12.3245044"><ele>249.33333333333331</ele><time>2026-04-02T10:57:43.709Z</time></trkpt><trkpt lat="42.9259631" lon="12.3246659"><ele>249.66666666666666</ele><time>2026-04-02T10:57:44.712Z</time></trkpt><trkpt lat="42.9260922" lon="12.3248414"><ele>250.0</ele><time>2026-04-02T10:57:45.708Z</time></trkpt><trkpt lat="42.9262095" lon="12.3250367"><ele>250.0</ele><time>2026-04-02T10:57:46.71Z</time></trkpt><trkpt lat="42.9263105" lon="12.3252443"><ele>250.0</ele><time>2026-04-02T10:57:47.709Z</time></trkpt><trkpt lat="42.9264204" lon="12.3254477"><ele>250.0</ele><time>2026-04-02T10:57:48.709Z</time></trkpt><trkpt lat="42.9265496" lon="12.3256207"><ele>251.66666666666666</ele><time>2026-04-02T10:57:49.711Z</time></trkpt><trkpt lat="42.9267004" lon="12.3257587"><ele>253.33333333333331</ele><time>2026-04-02T10:57:50.711Z</time></trkpt><trkpt lat="42.9268558" lon="12.325877"><ele>255.0</ele><time>2026-04-02T10:57:51.708Z</time></trkpt><trkpt lat="42.9270332" lon="12.3259581"><ele>255.33333333333331</ele><time>2026-04-02T10:57:52.71Z</time></trkpt><trkpt lat="42.9272083" lon="12.3260327"><ele>255.66666666666666</ele><time>2026-04-02T10:57:53.71Z</time></trkpt><trkpt lat="42.9273943" lon="12.3260925"><ele>256.0</ele><time>2026-04-02T10:57:54.711Z</time></trkpt><trkpt lat="42.9275737" lon="12.3261511"><ele>256.3333333333333</ele><time>2026-04-02T10:57:55.716Z</time></trkpt><trkpt lat="42.9277452" lon="12.3262096"><ele>256.6666666666667</ele><time>2026-04-02T10:57:56.714Z</time></trkpt><trkpt lat="42.9279261" lon="12.3262634"><ele>257.0</ele><time>2026-04-02T10:57:57.711Z</time></trkpt><trkpt lat="42.9281056" lon="12.3263194"><ele>257.0</ele><time>2026-04-02T10:57:58.711Z</time></trkpt><trkpt lat="42.9282807" lon="12.3263653"><ele>257.0</ele><time>2026-04-02T10:57:59.711Z</time></trkpt><trkpt lat="42.92846" lon="12.3264044"><ele>257.0</ele><time>2026-04-02T10:58:00.714Z</time></trkpt><trkpt lat="42.9286378" lon="12.3264399"><ele>261.33333333333337</ele><time>2026-04-02T10:58:01.713Z</time></trkpt><trkpt lat="42.9288147" lon="12.3264645"><ele>265.6666666666667</ele><time>2026-04-02T10:58:02.708Z</time></trkpt><trkpt lat="42.928995" lon="12.3264667"><ele>270.0</ele><time>2026-04-02T10:58:03.717Z</time></trkpt><trkpt lat="42.9291727" lon="12.3264499"><ele>269.6666666666667</ele><time>2026-04-02T10:58:04.71Z</time></trkpt><trkpt lat="42.9293464" lon="12.3264246"><ele>269.33333333333337</ele><time>2026-04-02T10:58:05.709Z</time></trkpt><trkpt lat="42.929523" lon="12.3263814"><ele>269.0</ele><time>2026-04-02T10:58:06.712Z</time></trkpt><trkpt lat="42.9296928" lon="12.3263218"><ele>269.0</ele><time>2026-04-02T10:58:07.716Z</time></trkpt><trkpt lat="42.9298584" lon="12.3262556"><ele>269.0</ele><time>2026-04-02T10:58:08.718Z</time></trkpt><trkpt lat="42.9300233" lon="12.3261781"><ele>269.0</ele><time>2026-04-02T10:58:09.711Z</time></trkpt><trkpt lat="42.9301809" lon="12.3260849"><ele>272.0</ele><time>2026-04-02T10:58:10.711Z</time></trkpt><trkpt lat="42.9303334" lon="12.3259821"><ele>275.0</ele><time>2026-04-02T10:58:11.715Z</time></trkpt><trkpt lat="42.9304821" lon="12.3258637"><ele>278.0</ele><time>2026-04-02T10:58:12.715Z</time></trkpt><trkpt lat="42.9306234" lon="12.3257377"><ele>278.0</ele><time>2026-04-02T10:58:13.713Z</time></trkpt><trkpt lat="42.9307602" lon="12.3255881"><ele>278.0</ele><time>2026-04-02T10:58:14.712Z</time></trkpt><trkpt lat="42.9308845" lon="12.325417"><ele>278.0</ele><time>2026-04-02T10:58:15.717Z</time></trkpt><trkpt lat="42.9310088" lon="12.3252319"><ele>279.6666666666667</ele><time>2026-04-02T10:58:16.714Z</time></trkpt><trkpt lat="42.9311312" lon="12.3250437"><ele>281.3333333333333</ele><time>2026-04-02T10:58:17.711Z</time></trkpt><trkpt lat="42.9312512" lon="12.3248507"><ele>283.0</ele><time>2026-04-02T10:58:18.72Z</time></trkpt><trkpt lat="42.9313725" lon="12.3246513"><ele>283.0</ele><time>2026-04-02T10:58:19.712Z</time></trkpt><trkpt lat="42.9314812" lon="12.3244578"><ele>283.0</ele><time>2026-04-02T10:58:20.712Z</time></trkpt><trkpt lat="42.9315964" lon="12.3242753"><ele>283.0</ele><time>2026-04-02T10:58:21.713Z</time></trkpt><trkpt lat="42.9317259" lon="12.3241094"><ele>283.0</ele><time>2026-04-02T10:58:22.712Z</time></trkpt><trkpt lat="42.9318703" lon="12.3239723"><ele>283.0</ele><time>2026-04-02T10:58:23.712Z</time></trkpt><trkpt lat="42.9320144" lon="12.3238727"><ele>283.0</ele><time>2026-04-02T10:58:24.71Z</time></trkpt><trkpt lat="42.9321679" lon="12.3238011"><ele>283.0</ele><time>2026-04-02T10:58:25.714Z</time></trkpt><trkpt lat="42.9323354" lon="12.3237787"><ele>283.0</ele><time>2026-04-02T10:58:26.711Z</time></trkpt><trkpt lat="42.9325023" lon="12.3237978"><ele>283.0</ele><time>2026-04-02T10:58:27.717Z</time></trkpt><trkpt lat="42.9326717" lon="12.323841"><ele>282.3333333333333</ele><time>2026-04-02T10:58:28.712Z</time></trkpt><trkpt lat="42.9328447" lon="12.3238959"><ele>281.6666666666667</ele><time>2026-04-02T10:58:29.711Z</time></trkpt><trkpt lat="42.9330214" lon="12.3239499"><ele>281.0</ele><time>2026-04-02T10:58:30.713Z</time></trkpt><trkpt lat="42.933202" lon="12.3240019"><ele>283.6666666666667</ele><time>2026-04-02T10:58:31.715Z</time></trkpt><trkpt lat="42.9333856" lon="12.3240561"><ele>286.3333333333333</ele><time>2026-04-02T10:58:32.711Z</time></trkpt><trkpt lat="42.9335719" lon="12.3241188"><ele>289.0</ele><time>2026-04-02T10:58:33.712Z</time></trkpt><trkpt lat="42.9337574" lon="12.3241791"><ele>289.0</ele><time>2026-04-02T10:58:34.711Z</time></trkpt><trkpt lat="42.9339468" lon="12.3242418"><ele>289.0</ele><time>2026-04-02T10:58:35.71Z</time></trkpt><trkpt lat="42.93414" lon="12.3243077"><ele>289.0</ele><time>2026-04-02T10:58:36.709Z</time></trkpt><trkpt lat="42.9343285" lon="12.3243766"><ele>288.66666666666663</ele><time>2026-04-02T10:58:37.71Z</time></trkpt><trkpt lat="42.9345231" lon="12.3244333"><ele>288.3333333333333</ele><time>2026-04-02T10:58:38.711Z</time></trkpt><trkpt lat="42.9347198" lon="12.3244659"><ele>288.0</ele><time>2026-04-02T10:58:39.711Z</time></trkpt><trkpt lat="42.9349229" lon="12.3244733"><ele>287.6666666666667</ele><time>2026-04-02T10:58:40.711Z</time></trkpt><trkpt lat="42.9351276" lon="12.3244429"><ele>287.33333333333337</ele><time>2026-04-02T10:58:41.71Z</time></trkpt><trkpt lat="42.9353292" lon="12.3243685"><ele>287.0</ele><time>2026-04-02T10:58:42.716Z</time></trkpt><trkpt lat="42.9355267" lon="12.3242772"><ele>287.0</ele><time>2026-04-02T10:58:43.714Z</time></trkpt><trkpt lat="42.9357272" lon="12.3241935"><ele>287.0</ele><time>2026-04-02T10:58:44.713Z</time></trkpt><trkpt lat="42.9359259" lon="12.3241167"><ele>287.0</ele><time>2026-04-02T10:58:45.714Z</time></trkpt><trkpt lat="42.9361222" lon="12.3240336"><ele>286.6666666666667</ele><time>2026-04-02T10:58:46.707Z</time></trkpt><trkpt lat="42.936319" lon="12.3239531"><ele>286.3333333333333</ele><time>2026-04-02T10:58:47.709Z</time></trkpt><trkpt lat="42.9365101" lon="12.3238777"><ele>286.0</ele><time>2026-04-02T10:58:48.709Z</time></trkpt><trkpt lat="42.9367039" lon="12.3238025"><ele>288.0</ele><time>2026-04-02T10:58:49.709Z</time></trkpt><trkpt lat="42.9368977" lon="12.3237256"><ele>290.0</ele><time>2026-04-02T10:58:50.716Z</time></trkpt><trkpt lat="42.9370897" lon="12.3236454"><ele>292.0</ele><time>2026-04-02T10:58:51.707Z</time></trkpt><trkpt lat="42.9372775" lon="12.3235628"><ele>292.0</ele><time>2026-04-02T10:58:52.709Z</time></trkpt><trkpt lat="42.9374662" lon="12.3234881"><ele>292.0</ele><time>2026-04-02T10:58:53.709Z</time></trkpt><trkpt lat="42.9376591" lon="12.3234086"><ele>292.0</ele><time>2026-04-02T10:58:54.713Z</time></trkpt><trkpt lat="42.9378539" lon="12.323329"><ele>292.0</ele><time>2026-04-02T10:58:55.715Z</time></trkpt><trkpt lat="42.9380486" lon="12.3232561"><ele>292.0</ele><time>2026-04-02T10:58:56.712Z</time></trkpt><trkpt lat="42.9382438" lon="12.3231841"><ele>292.0</ele><time>2026-04-02T10:58:57.714Z</time></trkpt><trkpt lat="42.9384396" lon="12.3231064"><ele>293.3333333333333</ele><time>2026-04-02T10:58:58.714Z</time></trkpt><trkpt lat="42.9386348" lon="12.3230293"><ele>294.6666666666667</ele><time>2026-04-02T10:58:59.713Z</time></trkpt><trkpt lat="42.9388312" lon="12.3229504"><ele>296.0</ele><time>2026-04-02T10:59:00.711Z</time></trkpt><trkpt lat="42.9390263" lon="12.3228745"><ele>295.0</ele><time>2026-04-02T10:59:01.709Z</time></trkpt><trkpt lat="42.9392318" lon="12.3228018"><ele>294.0</ele><time>2026-04-02T10:59:02.712Z</time></trkpt><trkpt lat="42.9394283" lon="12.3227514"><ele>293.0</ele><time>2026-04-02T10:59:03.71Z</time></trkpt><trkpt lat="42.9396304" lon="12.3226976"><ele>293.0</ele><time>2026-04-02T10:59:04.708Z</time></trkpt><trkpt lat="42.9398316" lon="12.3226399"><ele>293.0</ele><time>2026-04-02T10:59:05.714Z</time></trkpt><trkpt lat="42.9400348" lon="12.3225838"><ele>293.0</ele><time>2026-04-02T10:59:06.711Z</time></trkpt><trkpt lat="42.9402369" lon="12.3225313"><ele>293.6666666666667</ele><time>2026-04-02T10:59:07.709Z</time></trkpt><trkpt lat="42.940441" lon="12.3224822"><ele>294.3333333333333</ele><time>2026-04-02T10:59:08.714Z</time></trkpt><trkpt lat="42.9406426" lon="12.3224325"><ele>295.0</ele><time>2026-04-02T10:59:09.711Z</time></trkpt><trkpt lat="42.9408461" lon="12.3223865"><ele>295.3333333333333</ele><time>2026-04-02T10:59:10.711Z</time></trkpt><trkpt lat="42.9410449" lon="12.322333"><ele>295.6666666666667</ele><time>2026-04-02T10:59:11.708Z</time></trkpt><trkpt lat="42.9412438" lon="12.3222741"><ele>296.0</ele><time>2026-04-02T10:59:12.71Z</time></trkpt><trkpt lat="42.9414427" lon="12.3221987"><ele>296.0</ele><time>2026-04-02T10:59:13.71Z</time></trkpt><trkpt lat="42.9416362" lon="12.3221097"><ele>296.0</ele><time>2026-04-02T10:59:14.71Z</time></trkpt><trkpt lat="42.9418215" lon="12.3220099"><ele>296.0</ele><time>2026-04-02T10:59:15.711Z</time></trkpt><trkpt lat="42.9420054" lon="12.3218879"><ele>297.33333333333337</ele><time>2026-04-02T10:59:16.71Z</time></trkpt><trkpt lat="42.9421789" lon="12.3217627"><ele>298.6666666666667</ele><time>2026-04-02T10:59:17.711Z</time></trkpt><trkpt lat="42.9423608" lon="12.321633"><ele>300.0</ele><time>2026-04-02T10:59:18.709Z</time></trkpt><trkpt lat="42.9425446" lon="12.3215051"><ele>300.0</ele><time>2026-04-02T10:59:19.713Z</time></trkpt><trkpt lat="42.9427271" lon="12.321375"><ele>300.0</ele><time>2026-04-02T10:59:20.71Z</time></trkpt><trkpt lat="42.9429155" lon="12.3212359"><ele>300.0</ele><time>2026-04-02T10:59:21.71Z</time></trkpt><trkpt lat="42.9430933" lon="12.3211039"><ele>300.0</ele><time>2026-04-02T10:59:22.711Z</time></trkpt><trkpt lat="42.9432729" lon="12.3209666"><ele>300.0</ele><time>2026-04-02T10:59:23.715Z</time></trkpt><trkpt lat="42.9434536" lon="12.3208413"><ele>300.0</ele><time>2026-04-02T10:59:24.712Z</time></trkpt><trkpt lat="42.9436347" lon="12.3207093"><ele>300.6666666666667</ele><time>2026-04-02T10:59:25.711Z</time></trkpt><trkpt lat="42.9438161" lon="12.3205963"><ele>301.33333333333337</ele><time>2026-04-02T10:59:26.71Z</time></trkpt><trkpt lat="42.9439993" lon="12.3205044"><ele>302.0</ele><time>2026-04-02T10:59:27.714Z</time></trkpt><trkpt lat="42.9441843" lon="12.3203981"><ele>302.0</ele><time>2026-04-02T10:59:28.712Z</time></trkpt><trkpt lat="42.9443573" lon="12.3202598"><ele>302.0</ele><time>2026-04-02T10:59:29.71Z</time></trkpt><trkpt lat="42.944519" lon="12.3200867"><ele>302.0</ele><time>2026-04-02T10:59:30.711Z</time></trkpt><trkpt lat="42.9446586" lon="12.3198865"><ele>302.0</ele><time>2026-04-02T10:59:31.714Z</time></trkpt><trkpt lat="42.9448015" lon="12.3196871"><ele>302.0</ele><time>2026-04-02T10:59:32.712Z</time></trkpt><trkpt lat="42.9449578" lon="12.3195055"><ele>302.0</ele><time>2026-04-02T10:59:33.716Z</time></trkpt><trkpt lat="42.9451354" lon="12.319353"><ele>302.0</ele><time>2026-04-02T10:59:34.712Z</time></trkpt><trkpt lat="42.9453201" lon="12.3192254"><ele>302.0</ele><time>2026-04-02T10:59:35.713Z</time></trkpt><trkpt lat="42.9455104" lon="12.3191041"><ele>302.0</ele><time>2026-04-02T10:59:36.709Z</time></trkpt><trkpt lat="42.9456976" lon="12.3189821"><ele>303.33333333333337</ele><time>2026-04-02T10:59:37.709Z</time></trkpt><trkpt lat="42.9458879" lon="12.3188648"><ele>304.6666666666667</ele><time>2026-04-02T10:59:38.713Z</time></trkpt><trkpt lat="42.9460787" lon="12.3187587"><ele>306.0</ele><time>2026-04-02T10:59:39.71Z</time></trkpt><trkpt lat="42.9462779" lon="12.3186771"><ele>306.0</ele><time>2026-04-02T10:59:40.714Z</time></trkpt><trkpt lat="42.9464802" lon="12.3186095"><ele>306.0</ele><time>2026-04-02T10:59:41.711Z</time></trkpt><trkpt lat="42.9466826" lon="12.3185377"><ele>306.0</ele><time>2026-04-02T10:59:42.716Z</time></trkpt><trkpt lat="42.94688" lon="12.3184828"><ele>306.6666666666667</ele><time>2026-04-02T10:59:43.713Z</time></trkpt><trkpt lat="42.9470832" lon="12.3184483"><ele>307.33333333333337</ele><time>2026-04-02T10:59:44.714Z</time></trkpt><trkpt lat="42.947285" lon="12.3184298"><ele>308.0</ele><time>2026-04-02T10:59:45.715Z</time></trkpt><trkpt lat="42.9474803" lon="12.3184078"><ele>307.33333333333337</ele><time>2026-04-02T10:59:46.707Z</time></trkpt><trkpt lat="42.9476838" lon="12.3183884"><ele>306.6666666666667</ele><time>2026-04-02T10:59:47.711Z</time></trkpt><trkpt lat="42.9478807" lon="12.3183784"><ele>306.0</ele><time>2026-04-02T10:59:48.71Z</time></trkpt><trkpt lat="42.9480827" lon="12.318361"><ele>306.0</ele><time>2026-04-02T10:59:49.712Z</time></trkpt><trkpt lat="42.9482944" lon="12.3183424"><ele>306.0</ele><time>2026-04-02T10:59:50.709Z</time></trkpt><trkpt lat="42.9484959" lon="12.3183305"><ele>306.0</ele><time>2026-04-02T10:59:51.71Z</time></trkpt><trkpt lat="42.9487018" lon="12.31832"><ele>306.6666666666667</ele><time>2026-04-02T10:59:52.711Z</time></trkpt><trkpt lat="42.9489111" lon="12.318312"><ele>307.33333333333337</ele><time>2026-04-02T10:59:53.712Z</time></trkpt><trkpt lat="42.9491069" lon="12.3183116"><ele>308.0</ele><time>2026-04-02T10:59:54.712Z</time></trkpt><trkpt lat="42.9493156" lon="12.3183273"><ele>308.6666666666667</ele><time>2026-04-02T10:59:55.72Z</time></trkpt><trkpt lat="42.9495227" lon="12.3183527"><ele>309.3333333333333</ele><time>2026-04-02T10:59:56.714Z</time></trkpt><trkpt lat="42.9497193" lon="12.3184086"><ele>310.0</ele><time>2026-04-02T10:59:57.711Z</time></trkpt><trkpt lat="42.9499145" lon="12.3184864"><ele>310.3333333333333</ele><time>2026-04-02T10:59:58.717Z</time></trkpt><trkpt lat="42.9500856" lon="12.3185753"><ele>310.6666666666667</ele><time>2026-04-02T10:59:59.713Z</time></trkpt><trkpt lat="42.9502361" lon="12.3186556"><ele>311.0</ele><time>2026-04-02T11:00:00.713Z</time></trkpt><trkpt lat="42.9503698" lon="12.318734"><ele>311.0</ele><time>2026-04-02T11:00:01.71Z</time></trkpt><trkpt lat="42.9504866" lon="12.3187993"><ele>311.0</ele><time>2026-04-02T11:00:02.712Z</time></trkpt><trkpt lat="42.9506108" lon="12.3188346"><ele>311.0</ele><time>2026-04-02T11:00:03.716Z</time></trkpt><trkpt lat="42.9507448" lon="12.3188383"><ele>311.0</ele><time>2026-04-02T11:00:04.709Z</time></trkpt><trkpt lat="42.9509051" lon="12.3187733"><ele>311.6666666666667</ele><time>2026-04-02T11:00:05.71Z</time></trkpt><trkpt lat="42.9510524" lon="12.3187079"><ele>312.3333333333333</ele><time>2026-04-02T11:00:06.711Z</time></trkpt><trkpt lat="42.9512139" lon="12.3186459"><ele>313.0</ele><time>2026-04-02T11:00:07.707Z</time></trkpt><trkpt lat="42.9513804" lon="12.318578"><ele>313.0</ele><time>2026-04-02T11:00:08.713Z</time></trkpt><trkpt lat="42.9515306" lon="12.3185067"><ele>313.0</ele><time>2026-04-02T11:00:09.711Z</time></trkpt><trkpt lat="42.9516937" lon="12.3184326"><ele>313.0</ele><time>2026-04-02T11:00:10.706Z</time></trkpt><trkpt lat="42.9518622" lon="12.3183553"><ele>312.66666666666663</ele><time>2026-04-02T11:00:11.713Z</time></trkpt><trkpt lat="42.9520338" lon="12.3182791"><ele>312.3333333333333</ele><time>2026-04-02T11:00:12.708Z</time></trkpt><trkpt lat="42.9522024" lon="12.3182014"><ele>312.0</ele><time>2026-04-02T11:00:13.718Z</time></trkpt><trkpt lat="42.9523783" lon="12.3181219"><ele>313.6666666666667</ele><time>2026-04-02T11:00:14.716Z</time></trkpt><trkpt lat="42.9525434" lon="12.3180425"><ele>315.33333333333337</ele><time>2026-04-02T11:00:15.715Z</time></trkpt><trkpt lat="42.9526982" lon="12.3179745"><ele>317.0</ele><time>2026-04-02T11:00:16.71Z</time></trkpt><trkpt lat="42.9528446" lon="12.3179139"><ele>317.0</ele><time>2026-04-02T11:00:17.714Z</time></trkpt><trkpt lat="42.9529847" lon="12.3178428"><ele>317.0</ele><time>2026-04-02T11:00:18.712Z</time></trkpt><trkpt lat="42.9530701" lon="12.3178158"><ele>317.0</ele><time>2026-04-02T11:00:19.713Z</time></trkpt><trkpt lat="42.9531546" lon="12.3177897"><ele>317.0</ele><time>2026-04-02T11:00:20.711Z</time></trkpt><trkpt lat="42.953227" lon="12.3177509"><ele>317.0</ele><time>2026-04-02T11:00:21.709Z</time></trkpt><trkpt lat="42.953296" lon="12.317674"><ele>317.0</ele><time>2026-04-02T11:00:22.711Z</time></trkpt><trkpt lat="42.9533542" lon="12.3175394"><ele>317.0</ele><time>2026-04-02T11:00:23.72Z</time></trkpt><trkpt lat="42.9534221" lon="12.3173887"><ele>317.0</ele><time>2026-04-02T11:00:24.708Z</time></trkpt><trkpt lat="42.9534975" lon="12.3172337"><ele>317.0</ele><time>2026-04-02T11:00:25.71Z</time></trkpt><trkpt lat="42.9535734" lon="12.3170642"><ele>316.6666666666667</ele><time>2026-04-02T11:00:26.711Z</time></trkpt><trkpt lat="42.9536599" lon="12.3168916"><ele>316.3333333333333</ele><time>2026-04-02T11:00:27.713Z</time></trkpt><trkpt lat="42.9537569" lon="12.3167162"><ele>316.0</ele><time>2026-04-02T11:00:28.708Z</time></trkpt><trkpt lat="42.9538561" lon="12.3165477"><ele>314.66666666666663</ele><time>2026-04-02T11:00:29.719Z</time></trkpt><trkpt lat="42.9539593" lon="12.3163811"><ele>313.3333333333333</ele><time>2026-04-02T11:00:30.709Z</time></trkpt><trkpt lat="42.9540507" lon="12.316216"><ele>312.0</ele><time>2026-04-02T11:00:31.714Z</time></trkpt><trkpt lat="42.9541134" lon="12.3160353"><ele>312.0</ele><time>2026-04-02T11:00:32.713Z</time></trkpt><trkpt lat="42.9541666" lon="12.3158271"><ele>312.0</ele><time>2026-04-02T11:00:33.711Z</time></trkpt><trkpt lat="42.9542081" lon="12.3155931"><ele>312.0</ele><time>2026-04-02T11:00:34.716Z</time></trkpt><trkpt lat="42.9542365" lon="12.3153531"><ele>308.0</ele><time>2026-04-02T11:00:35.712Z</time></trkpt><trkpt lat="42.954259" lon="12.3150948"><ele>304.0</ele><time>2026-04-02T11:00:36.712Z</time></trkpt><trkpt lat="42.9542719" lon="12.3148377"><ele>300.0</ele><time>2026-04-02T11:00:37.717Z</time></trkpt><trkpt lat="42.9542757" lon="12.3145829"><ele>300.6666666666667</ele><time>2026-04-02T11:00:38.707Z</time></trkpt><trkpt lat="42.9542554" lon="12.3143243"><ele>301.33333333333337</ele><time>2026-04-02T11:00:39.714Z</time></trkpt><trkpt lat="42.9542231" lon="12.3140706"><ele>302.0</ele><time>2026-04-02T11:00:40.71Z</time></trkpt><trkpt lat="42.9541911" lon="12.313823"><ele>302.0</ele><time>2026-04-02T11:00:41.712Z</time></trkpt><trkpt lat="42.954166" lon="12.3136001"><ele>302.0</ele><time>2026-04-02T11:00:42.706Z</time></trkpt><trkpt lat="42.9541418" lon="12.3133868"><ele>302.0</ele><time>2026-04-02T11:00:43.712Z</time></trkpt><trkpt lat="42.9541403" lon="12.3131678"><ele>302.0</ele><time>2026-04-02T11:00:44.708Z</time></trkpt><trkpt lat="42.9541785" lon="12.3129461"><ele>302.0</ele><time>2026-04-02T11:00:45.709Z</time></trkpt><trkpt lat="42.954238" lon="12.3127234"><ele>302.0</ele><time>2026-04-02T11:00:46.716Z</time></trkpt><trkpt lat="42.9543016" lon="12.3124966"><ele>300.0</ele><time>2026-04-02T11:00:47.71Z</time></trkpt><trkpt lat="42.9543695" lon="12.3122605"><ele>298.0</ele><time>2026-04-02T11:00:48.718Z</time></trkpt><trkpt lat="42.9544395" lon="12.3120212"><ele>296.0</ele><time>2026-04-02T11:00:49.72Z</time></trkpt><trkpt lat="42.9545123" lon="12.3117718"><ele>296.0</ele><time>2026-04-02T11:00:50.71Z</time></trkpt><trkpt lat="42.954583" lon="12.31153"><ele>296.0</ele><time>2026-04-02T11:00:51.715Z</time></trkpt><trkpt lat="42.9546534" lon="12.3112865"><ele>296.0</ele><time>2026-04-02T11:00:52.707Z</time></trkpt><trkpt lat="42.954727" lon="12.3110289"><ele>296.0</ele><time>2026-04-02T11:00:53.716Z</time></trkpt><trkpt lat="42.954792" lon="12.3107848"><ele>296.0</ele><time>2026-04-02T11:00:54.711Z</time></trkpt><trkpt lat="42.9548697" lon="12.3105281"><ele>296.0</ele><time>2026-04-02T11:00:55.714Z</time></trkpt><trkpt lat="42.9549377" lon="12.3102771"><ele>294.33333333333337</ele><time>2026-04-02T11:00:56.707Z</time></trkpt><trkpt lat="42.9550248" lon="12.3100333"><ele>292.6666666666667</ele><time>2026-04-02T11:00:57.718Z</time></trkpt><trkpt lat="42.9551212" lon="12.3097952"><ele>291.0</ele><time>2026-04-02T11:00:58.712Z</time></trkpt><trkpt lat="42.9552115" lon="12.3095591"><ele>290.3333333333333</ele><time>2026-04-02T11:00:59.711Z</time></trkpt><trkpt lat="42.9552986" lon="12.3093178"><ele>289.66666666666663</ele><time>2026-04-02T11:01:00.715Z</time></trkpt><trkpt lat="42.9553861" lon="12.3090756"><ele>289.0</ele><time>2026-04-02T11:01:01.71Z</time></trkpt><trkpt lat="42.9554761" lon="12.308838"><ele>287.3333333333333</ele><time>2026-04-02T11:01:02.709Z</time></trkpt><trkpt lat="42.9555521" lon="12.308628"><ele>285.6666666666667</ele><time>2026-04-02T11:01:03.712Z</time></trkpt><trkpt lat="42.9556269" lon="12.3084266"><ele>284.0</ele><time>2026-04-02T11:01:04.711Z</time></trkpt><trkpt lat="42.955697" lon="12.3082353"><ele>283.33333333333337</ele><time>2026-04-02T11:01:05.712Z</time></trkpt><trkpt lat="42.9557632" lon="12.3080493"><ele>282.6666666666667</ele><time>2026-04-02T11:01:06.721Z</time></trkpt><trkpt lat="42.9558379" lon="12.3078638"><ele>282.0</ele><time>2026-04-02T11:01:07.717Z</time></trkpt><trkpt lat="42.9559265" lon="12.3076767"><ele>283.6666666666667</ele><time>2026-04-02T11:01:08.709Z</time></trkpt><trkpt lat="42.9560394" lon="12.3074964"><ele>285.33333333333337</ele><time>2026-04-02T11:01:09.709Z</time></trkpt><trkpt lat="42.9561671" lon="12.3073303"><ele>287.0</ele><time>2026-04-02T11:01:10.714Z</time></trkpt><trkpt lat="42.9562905" lon="12.3071602"><ele>287.0</ele><time>2026-04-02T11:01:11.715Z</time></trkpt><trkpt lat="42.956415" lon="12.3069824"><ele>287.0</ele><time>2026-04-02T11:01:12.711Z</time></trkpt><trkpt lat="42.9565422" lon="12.3068044"><ele>287.0</ele><time>2026-04-02T11:01:13.714Z</time></trkpt><trkpt lat="42.9566581" lon="12.3066252"><ele>289.6666666666667</ele><time>2026-04-02T11:01:14.713Z</time></trkpt><trkpt lat="42.9567584" lon="12.306432"><ele>292.3333333333333</ele><time>2026-04-02T11:01:15.717Z</time></trkpt><trkpt lat="42.9568491" lon="12.3062201"><ele>295.0</ele><time>2026-04-02T11:01:16.715Z</time></trkpt><trkpt lat="42.9569037" lon="12.305987"><ele>295.0</ele><time>2026-04-02T11:01:17.713Z</time></trkpt><trkpt lat="42.9569454" lon="12.3057489"><ele>295.0</ele><time>2026-04-02T11:01:18.71Z</time></trkpt><trkpt lat="42.9569279" lon="12.3054827"><ele>295.0</ele><time>2026-04-02T11:01:19.712Z</time></trkpt><trkpt lat="42.9569028" lon="12.3052195"><ele>295.66666666666663</ele><time>2026-04-02T11:01:20.712Z</time></trkpt><trkpt lat="42.9568713" lon="12.3049555"><ele>296.3333333333333</ele><time>2026-04-02T11:01:21.715Z</time></trkpt><trkpt lat="42.9568419" lon="12.3047079"><ele>297.0</ele><time>2026-04-02T11:01:22.707Z</time></trkpt><trkpt lat="42.9568197" lon="12.3044738"><ele>297.0</ele><time>2026-04-02T11:01:23.718Z</time></trkpt><trkpt lat="42.9568002" lon="12.3042654"><ele>297.0</ele><time>2026-04-02T11:01:24.719Z</time></trkpt><trkpt lat="42.9567893" lon="12.3040712"><ele>297.0</ele><time>2026-04-02T11:01:25.714Z</time></trkpt><trkpt lat="42.956797" lon="12.3038765"><ele>297.0</ele><time>2026-04-02T11:01:26.711Z</time></trkpt><trkpt lat="42.9568137" lon="12.3036873"><ele>297.3333333333333</ele><time>2026-04-02T11:01:27.714Z</time></trkpt><trkpt lat="42.9568688" lon="12.3034815"><ele>297.66666666666663</ele><time>2026-04-02T11:01:28.714Z</time></trkpt><trkpt lat="42.9569287" lon="12.3032818"><ele>298.0</ele><time>2026-04-02T11:01:29.715Z</time></trkpt><trkpt lat="42.9570005" lon="12.3030831"><ele>295.66666666666663</ele><time>2026-04-02T11:01:30.714Z</time></trkpt><trkpt lat="42.9570741" lon="12.3028892"><ele>293.3333333333333</ele><time>2026-04-02T11:01:31.714Z</time></trkpt><trkpt lat="42.9571498" lon="12.3026924"><ele>291.0</ele><time>2026-04-02T11:01:32.718Z</time></trkpt><trkpt lat="42.9572395" lon="12.3024944"><ele>291.0</ele><time>2026-04-02T11:01:33.713Z</time></trkpt><trkpt lat="42.9573458" lon="12.3023073"><ele>291.0</ele><time>2026-04-02T11:01:34.709Z</time></trkpt><trkpt lat="42.9574418" lon="12.3021339"><ele>291.0</ele><time>2026-04-02T11:01:35.718Z</time></trkpt><trkpt lat="42.9575426" lon="12.3019649"><ele>290.3333333333333</ele><time>2026-04-02T11:01:36.708Z</time></trkpt><trkpt lat="42.957671" lon="12.3018055"><ele>289.66666666666663</ele><time>2026-04-02T11:01:37.71Z</time></trkpt><trkpt lat="42.9578102" lon="12.3016507"><ele>289.0</ele><time>2026-04-02T11:01:38.708Z</time></trkpt><trkpt lat="42.9579499" lon="12.3014875"><ele>285.66666666666663</ele><time>2026-04-02T11:01:39.708Z</time></trkpt><trkpt lat="42.958087" lon="12.3013112"><ele>282.3333333333333</ele><time>2026-04-02T11:01:40.713Z</time></trkpt><trkpt lat="42.9582188" lon="12.3011328"><ele>279.0</ele><time>2026-04-02T11:01:41.707Z</time></trkpt><trkpt lat="42.9583336" lon="12.3009526"><ele>279.6666666666667</ele><time>2026-04-02T11:01:42.71Z</time></trkpt><trkpt lat="42.9584474" lon="12.3007907"><ele>280.33333333333337</ele><time>2026-04-02T11:01:43.711Z</time></trkpt><trkpt lat="42.9585668" lon="12.3006313"><ele>281.0</ele><time>2026-04-02T11:01:44.714Z</time></trkpt><trkpt lat="42.9586972" lon="12.3004876"><ele>279.33333333333337</ele><time>2026-04-02T11:01:45.713Z</time></trkpt><trkpt lat="42.9588353" lon="12.3003463"><ele>277.6666666666667</ele><time>2026-04-02T11:01:46.712Z</time></trkpt><trkpt lat="42.9589678" lon="12.3002223"><ele>276.0</ele><time>2026-04-02T11:01:47.709Z</time></trkpt><trkpt lat="42.9591013" lon="12.3001018"><ele>272.3333333333333</ele><time>2026-04-02T11:01:48.711Z</time></trkpt><trkpt lat="42.9592319" lon="12.2999739"><ele>268.66666666666663</ele><time>2026-04-02T11:01:49.712Z</time></trkpt><trkpt lat="42.9593624" lon="12.2998265"><ele>265.0</ele><time>2026-04-02T11:01:50.709Z</time></trkpt><trkpt lat="42.9594879" lon="12.2996738"><ele>264.3333333333333</ele><time>2026-04-02T11:01:51.711Z</time></trkpt><trkpt lat="42.9596079" lon="12.2995175"><ele>263.6666666666667</ele><time>2026-04-02T11:01:52.711Z</time></trkpt><trkpt lat="42.9597223" lon="12.2993592"><ele>263.0</ele><time>2026-04-02T11:01:53.71Z</time></trkpt><trkpt lat="42.959832" lon="12.2992067"><ele>263.0</ele><time>2026-04-02T11:01:54.712Z</time></trkpt><trkpt lat="42.9599472" lon="12.2990809"><ele>263.0</ele><time>2026-04-02T11:01:55.712Z</time></trkpt><trkpt lat="42.9600684" lon="12.2989866"><ele>263.0</ele><time>2026-04-02T11:01:56.713Z</time></trkpt><trkpt lat="42.9602118" lon="12.2989341"><ele>263.0</ele><time>2026-04-02T11:01:57.709Z</time></trkpt><trkpt lat="42.9603748" lon="12.2989171"><ele>259.0</ele><time>2026-04-02T11:01:58.718Z</time></trkpt><trkpt lat="42.9605469" lon="12.2989132"><ele>255.0</ele><time>2026-04-02T11:01:59.71Z</time></trkpt><trkpt lat="42.9607217" lon="12.2989113"><ele>251.0</ele><time>2026-04-02T11:02:00.713Z</time></trkpt><trkpt lat="42.960899" lon="12.2989091"><ele>248.66666666666669</ele><time>2026-04-02T11:02:01.711Z</time></trkpt><trkpt lat="42.961077" lon="12.298907"><ele>246.33333333333331</ele><time>2026-04-02T11:02:02.712Z</time></trkpt><trkpt lat="42.9612516" lon="12.2989089"><ele>244.0</ele><time>2026-04-02T11:02:03.714Z</time></trkpt><trkpt lat="42.961431" lon="12.2988963"><ele>244.0</ele><time>2026-04-02T11:02:04.716Z</time></trkpt><trkpt lat="42.9616158" lon="12.2988859"><ele>244.0</ele><time>2026-04-02T11:02:05.718Z</time></trkpt><trkpt lat="42.961797" lon="12.2988733"><ele>244.0</ele><time>2026-04-02T11:02:06.712Z</time></trkpt><trkpt lat="42.9619816" lon="12.2988423"><ele>242.66666666666666</ele><time>2026-04-02T11:02:07.714Z</time></trkpt><trkpt lat="42.9621616" lon="12.2987802"><ele>241.33333333333331</ele><time>2026-04-02T11:02:08.713Z</time></trkpt><trkpt lat="42.9623355" lon="12.2986962"><ele>240.0</ele><time>2026-04-02T11:02:09.718Z</time></trkpt><trkpt lat="42.9625075" lon="12.2986076"><ele>238.0</ele><time>2026-04-02T11:02:10.717Z</time></trkpt><trkpt lat="42.9626836" lon="12.2985329"><ele>236.0</ele><time>2026-04-02T11:02:11.71Z</time></trkpt><trkpt lat="42.9628617" lon="12.2984718"><ele>234.0</ele><time>2026-04-02T11:02:12.707Z</time></trkpt><trkpt lat="42.9630409" lon="12.2984122"><ele>234.0</ele><time>2026-04-02T11:02:13.712Z</time></trkpt><trkpt lat="42.9632228" lon="12.2983596"><ele>234.0</ele><time>2026-04-02T11:02:14.713Z</time></trkpt><trkpt lat="42.9634036" lon="12.2983111"><ele>234.0</ele><time>2026-04-02T11:02:15.709Z</time></trkpt><trkpt lat="42.9635868" lon="12.2982759"><ele>232.0</ele><time>2026-04-02T11:02:16.715Z</time></trkpt><trkpt lat="42.9637656" lon="12.2982478"><ele>230.0</ele><time>2026-04-02T11:02:17.711Z</time></trkpt><trkpt lat="42.9639512" lon="12.2982275"><ele>228.0</ele><time>2026-04-02T11:02:18.714Z</time></trkpt><trkpt lat="42.96413" lon="12.2982269"><ele>226.0</ele><time>2026-04-02T11:02:19.712Z</time></trkpt><trkpt lat="42.9642936" lon="12.2982369"><ele>224.0</ele><time>2026-04-02T11:02:20.712Z</time></trkpt><trkpt lat="42.9644613" lon="12.2982384"><ele>222.0</ele><time>2026-04-02T11:02:21.709Z</time></trkpt><trkpt lat="42.9646326" lon="12.2982229"><ele>222.0</ele><time>2026-04-02T11:02:22.712Z</time></trkpt><trkpt lat="42.9648066" lon="12.2981937"><ele>222.0</ele><time>2026-04-02T11:02:23.713Z</time></trkpt><trkpt lat="42.9649798" lon="12.2981405"><ele>222.0</ele><time>2026-04-02T11:02:24.713Z</time></trkpt><trkpt lat="42.9651545" lon="12.2980693"><ele>219.66666666666669</ele><time>2026-04-02T11:02:25.71Z</time></trkpt><trkpt lat="42.9653306" lon="12.2979746"><ele>217.33333333333334</ele><time>2026-04-02T11:02:26.713Z</time></trkpt><trkpt lat="42.9654912" lon="12.2978557"><ele>215.0</ele><time>2026-04-02T11:02:27.719Z</time></trkpt><trkpt lat="42.9656468" lon="12.297703"><ele>215.0</ele><time>2026-04-02T11:02:28.717Z</time></trkpt><trkpt lat="42.9658043" lon="12.2975289"><ele>215.0</ele><time>2026-04-02T11:02:29.714Z</time></trkpt><trkpt lat="42.9659606" lon="12.2973609"><ele>215.0</ele><time>2026-04-02T11:02:30.708Z</time></trkpt><trkpt lat="42.9661209" lon="12.2971964"><ele>211.33333333333334</ele><time>2026-04-02T11:02:31.715Z</time></trkpt><trkpt lat="42.96628" lon="12.2970344"><ele>207.66666666666669</ele><time>2026-04-02T11:02:32.713Z</time></trkpt><trkpt lat="42.9664404" lon="12.2968675"><ele>204.0</ele><time>2026-04-02T11:02:33.71Z</time></trkpt><trkpt lat="42.9665964" lon="12.2966996"><ele>203.0</ele><time>2026-04-02T11:02:34.717Z</time></trkpt><trkpt lat="42.9667458" lon="12.2965231"><ele>202.0</ele><time>2026-04-02T11:02:35.717Z</time></trkpt><trkpt lat="42.9668983" lon="12.2963528"><ele>201.0</ele><time>2026-04-02T11:02:36.707Z</time></trkpt><trkpt lat="42.9670529" lon="12.2961804"><ele>201.0</ele><time>2026-04-02T11:02:37.71Z</time></trkpt><trkpt lat="42.967195" lon="12.2960479"><ele>201.0</ele><time>2026-04-02T11:02:38.714Z</time></trkpt><trkpt lat="42.967357" lon="12.2959228"><ele>201.0</ele><time>2026-04-02T11:02:39.712Z</time></trkpt><trkpt lat="42.9675238" lon="12.2958353"><ele>200.0</ele><time>2026-04-02T11:02:40.714Z</time></trkpt><trkpt lat="42.9676936" lon="12.2957519"><ele>199.0</ele><time>2026-04-02T11:02:41.717Z</time></trkpt><trkpt lat="42.9678613" lon="12.2956251"><ele>198.0</ele><time>2026-04-02T11:02:42.711Z</time></trkpt><trkpt lat="42.9680027" lon="12.2954622"><ele>198.0</ele><time>2026-04-02T11:02:43.71Z</time></trkpt><trkpt lat="42.9681305" lon="12.2952724"><ele>198.0</ele><time>2026-04-02T11:02:44.713Z</time></trkpt><trkpt lat="42.968231" lon="12.2950617"><ele>198.0</ele><time>2026-04-02T11:02:45.71Z</time></trkpt><trkpt lat="42.9683419" lon="12.2948448"><ele>197.33333333333331</ele><time>2026-04-02T11:02:46.71Z</time></trkpt><trkpt lat="42.9684472" lon="12.294626"><ele>196.66666666666666</ele><time>2026-04-02T11:02:47.707Z</time></trkpt><trkpt lat="42.9685664" lon="12.2944156"><ele>196.0</ele><time>2026-04-02T11:02:48.711Z</time></trkpt><trkpt lat="42.9686692" lon="12.2941928"><ele>196.0</ele><time>2026-04-02T11:02:49.724Z</time></trkpt><trkpt lat="42.9687557" lon="12.2939489"><ele>196.0</ele><time>2026-04-02T11:02:50.708Z</time></trkpt><trkpt lat="42.968829" lon="12.2937011"><ele>196.0</ele><time>2026-04-02T11:02:51.711Z</time></trkpt><trkpt lat="42.9689052" lon="12.2934564"><ele>196.0</ele><time>2026-04-02T11:02:52.709Z</time></trkpt><trkpt lat="42.9689802" lon="12.293212"><ele>196.0</ele><time>2026-04-02T11:02:53.715Z</time></trkpt><trkpt lat="42.9690522" lon="12.292964"><ele>196.0</ele><time>2026-04-02T11:02:54.709Z</time></trkpt><trkpt lat="42.96912" lon="12.2927221"><ele>196.0</ele><time>2026-04-02T11:02:55.712Z</time></trkpt><trkpt lat="42.9691833" lon="12.2924814"><ele>196.0</ele><time>2026-04-02T11:02:56.725Z</time></trkpt><trkpt lat="42.9692434" lon="12.2922437"><ele>196.0</ele><time>2026-04-02T11:02:57.709Z</time></trkpt><trkpt lat="42.9693085" lon="12.2920102"><ele>196.0</ele><time>2026-04-02T11:02:58.713Z</time></trkpt><trkpt lat="42.9693621" lon="12.291788"><ele>196.0</ele><time>2026-04-02T11:02:59.713Z</time></trkpt><trkpt lat="42.9694237" lon="12.2915687"><ele>196.0</ele><time>2026-04-02T11:03:00.714Z</time></trkpt><trkpt lat="42.9694847" lon="12.2913546"><ele>196.0</ele><time>2026-04-02T11:03:01.714Z</time></trkpt><trkpt lat="42.9695689" lon="12.2911548"><ele>196.0</ele><time>2026-04-02T11:03:02.711Z</time></trkpt><trkpt lat="42.9696779" lon="12.2909626"><ele>196.0</ele><time>2026-04-02T11:03:03.715Z</time></trkpt><trkpt lat="42.969807" lon="12.2907922"><ele>196.0</ele><time>2026-04-02T11:03:04.706Z</time></trkpt><trkpt lat="42.9699446" lon="12.2906317"><ele>196.0</ele><time>2026-04-02T11:03:05.718Z</time></trkpt><trkpt lat="42.9700864" lon="12.2904728"><ele>196.0</ele><time>2026-04-02T11:03:06.711Z</time></trkpt><trkpt lat="42.9702241" lon="12.290314"><ele>195.66666666666666</ele><time>2026-04-02T11:03:07.715Z</time></trkpt><trkpt lat="42.9703638" lon="12.2901575"><ele>195.33333333333331</ele><time>2026-04-02T11:03:08.711Z</time></trkpt><trkpt lat="42.9705033" lon="12.2899966"><ele>195.0</ele><time>2026-04-02T11:03:09.708Z</time></trkpt><trkpt lat="42.9706421" lon="12.289838"><ele>194.66666666666669</ele><time>2026-04-02T11:03:10.715Z</time></trkpt><trkpt lat="42.9707819" lon="12.2896853"><ele>194.33333333333334</ele><time>2026-04-02T11:03:11.715Z</time></trkpt><trkpt lat="42.9709262" lon="12.2895409"><ele>194.0</ele><time>2026-04-02T11:03:12.709Z</time></trkpt><trkpt lat="42.9710782" lon="12.2894077"><ele>194.66666666666669</ele><time>2026-04-02T11:03:13.712Z</time></trkpt><trkpt lat="42.9712278" lon="12.2892759"><ele>195.33333333333331</ele><time>2026-04-02T11:03:14.713Z</time></trkpt><trkpt lat="42.9713754" lon="12.289146"><ele>196.0</ele><time>2026-04-02T11:03:15.712Z</time></trkpt><trkpt lat="42.9715251" lon="12.2890156"><ele>197.0</ele><time>2026-04-02T11:03:16.713Z</time></trkpt><trkpt lat="42.9716734" lon="12.2888823"><ele>198.0</ele><time>2026-04-02T11:03:17.711Z</time></trkpt><trkpt lat="42.9718195" lon="12.2887504"><ele>199.0</ele><time>2026-04-02T11:03:18.718Z</time></trkpt><trkpt lat="42.9719691" lon="12.288622"><ele>200.66666666666666</ele><time>2026-04-02T11:03:19.717Z</time></trkpt><trkpt lat="42.9721196" lon="12.2884961"><ele>202.33333333333331</ele><time>2026-04-02T11:03:20.717Z</time></trkpt><trkpt lat="42.9722736" lon="12.2883747"><ele>204.0</ele><time>2026-04-02T11:03:21.711Z</time></trkpt><trkpt lat="42.9724291" lon="12.2882727"><ele>206.0</ele><time>2026-04-02T11:03:22.711Z</time></trkpt><trkpt lat="42.9725893" lon="12.2881808"><ele>208.0</ele><time>2026-04-02T11:03:23.713Z</time></trkpt><trkpt lat="42.9727462" lon="12.2880858"><ele>210.0</ele><time>2026-04-02T11:03:24.715Z</time></trkpt><trkpt lat="42.9728939" lon="12.2879851"><ele>210.0</ele><time>2026-04-02T11:03:25.71Z</time></trkpt><trkpt lat="42.9730222" lon="12.2878713"><ele>210.0</ele><time>2026-04-02T11:03:26.718Z</time></trkpt><trkpt lat="42.9731271" lon="12.2877562"><ele>210.0</ele><time>2026-04-02T11:03:27.71Z</time></trkpt><trkpt lat="42.9732284" lon="12.2876187"><ele>210.0</ele><time>2026-04-02T11:03:28.709Z</time></trkpt><trkpt lat="42.9733285" lon="12.2874645"><ele>211.0</ele><time>2026-04-02T11:03:29.71Z</time></trkpt><trkpt lat="42.9734291" lon="12.2873039"><ele>212.0</ele><time>2026-04-02T11:03:30.712Z</time></trkpt><trkpt lat="42.9735276" lon="12.2871347"><ele>213.0</ele><time>2026-04-02T11:03:31.714Z</time></trkpt><trkpt lat="42.9736361" lon="12.2869609"><ele>213.0</ele><time>2026-04-02T11:03:32.714Z</time></trkpt><trkpt lat="42.9737436" lon="12.2867825"><ele>213.0</ele><time>2026-04-02T11:03:33.716Z</time></trkpt><trkpt lat="42.9738479" lon="12.2866001"><ele>213.0</ele><time>2026-04-02T11:03:34.714Z</time></trkpt><trkpt lat="42.9739547" lon="12.2864042"><ele>211.66666666666669</ele><time>2026-04-02T11:03:35.713Z</time></trkpt><trkpt lat="42.9740341" lon="12.2861885"><ele>210.33333333333334</ele><time>2026-04-02T11:03:36.71Z</time></trkpt><trkpt lat="42.9741024" lon="12.2859527"><ele>209.0</ele><time>2026-04-02T11:03:37.709Z</time></trkpt><trkpt lat="42.97417" lon="12.2857205"><ele>208.66666666666669</ele><time>2026-04-02T11:03:38.713Z</time></trkpt><trkpt lat="42.9742492" lon="12.2854988"><ele>208.33333333333331</ele><time>2026-04-02T11:03:39.709Z</time></trkpt><trkpt lat="42.9743391" lon="12.285277"><ele>208.0</ele><time>2026-04-02T11:03:40.713Z</time></trkpt><trkpt lat="42.9744304" lon="12.2850541"><ele>208.0</ele><time>2026-04-02T11:03:41.71Z</time></trkpt><trkpt lat="42.9745265" lon="12.2848324"><ele>208.0</ele><time>2026-04-02T11:03:42.712Z</time></trkpt><trkpt lat="42.9746273" lon="12.2846062"><ele>208.0</ele><time>2026-04-02T11:03:43.715Z</time></trkpt><trkpt lat="42.9747317" lon="12.2843859"><ele>207.0</ele><time>2026-04-02T11:03:44.713Z</time></trkpt><trkpt lat="42.9748376" lon="12.284172"><ele>206.0</ele><time>2026-04-02T11:03:45.712Z</time></trkpt><trkpt lat="42.9749336" lon="12.2839532"><ele>205.0</ele><time>2026-04-02T11:03:46.716Z</time></trkpt><trkpt lat="42.9750097" lon="12.2837243"><ele>205.0</ele><time>2026-04-02T11:03:47.714Z</time></trkpt><trkpt lat="42.975059" lon="12.2834785"><ele>205.0</ele><time>2026-04-02T11:03:48.715Z</time></trkpt><trkpt lat="42.9750826" lon="12.2832298"><ele>205.0</ele><time>2026-04-02T11:03:49.71Z</time></trkpt><trkpt lat="42.975094" lon="12.2829829"><ele>205.66666666666666</ele><time>2026-04-02T11:03:50.71Z</time></trkpt><trkpt lat="42.9751041" lon="12.2827396"><ele>206.33333333333331</ele><time>2026-04-02T11:03:51.709Z</time></trkpt><trkpt lat="42.9751267" lon="12.2824908"><ele>207.0</ele><time>2026-04-02T11:03:52.711Z</time></trkpt><trkpt lat="42.9751786" lon="12.2822476"><ele>207.66666666666669</ele><time>2026-04-02T11:03:53.713Z</time></trkpt><trkpt lat="42.9752517" lon="12.2820295"><ele>208.33333333333334</ele><time>2026-04-02T11:03:54.708Z</time></trkpt><trkpt lat="42.9753275" lon="12.2818083"><ele>209.0</ele><time>2026-04-02T11:03:55.713Z</time></trkpt><trkpt lat="42.9753829" lon="12.2815721"><ele>208.66666666666669</ele><time>2026-04-02T11:03:56.712Z</time></trkpt><trkpt lat="42.975424" lon="12.2813234"><ele>208.33333333333331</ele><time>2026-04-02T11:03:57.711Z</time></trkpt><trkpt lat="42.9754561" lon="12.2810706"><ele>208.0</ele><time>2026-04-02T11:03:58.706Z</time></trkpt><trkpt lat="42.9754782" lon="12.2808121"><ele>208.0</ele><time>2026-04-02T11:03:59.713Z</time></trkpt><trkpt lat="42.9754852" lon="12.2805559"><ele>208.0</ele><time>2026-04-02T11:04:00.711Z</time></trkpt><trkpt lat="42.9754893" lon="12.2802946"><ele>208.0</ele><time>2026-04-02T11:04:01.711Z</time></trkpt><trkpt lat="42.9754889" lon="12.2800301"><ele>208.0</ele><time>2026-04-02T11:04:02.712Z</time></trkpt><trkpt lat="42.9754826" lon="12.2797699"><ele>208.0</ele><time>2026-04-02T11:04:03.71Z</time></trkpt><trkpt lat="42.975465" lon="12.2795118"><ele>208.0</ele><time>2026-04-02T11:04:04.713Z</time></trkpt><trkpt lat="42.9754377" lon="12.2792612"><ele>207.66666666666666</ele><time>2026-04-02T11:04:05.712Z</time></trkpt><trkpt lat="42.9754106" lon="12.279006"><ele>207.33333333333331</ele><time>2026-04-02T11:04:06.718Z</time></trkpt><trkpt lat="42.9753906" lon="12.2787586"><ele>207.0</ele><time>2026-04-02T11:04:07.717Z</time></trkpt><trkpt lat="42.975381" lon="12.2785071"><ele>207.0</ele><time>2026-04-02T11:04:08.713Z</time></trkpt><trkpt lat="42.9753761" lon="12.2782624"><ele>207.0</ele><time>2026-04-02T11:04:09.708Z</time></trkpt><trkpt lat="42.9753858" lon="12.2780209"><ele>207.0</ele><time>2026-04-02T11:04:10.715Z</time></trkpt><trkpt lat="42.9754168" lon="12.2777764"><ele>207.0</ele><time>2026-04-02T11:04:11.71Z</time></trkpt><trkpt lat="42.9754649" lon="12.2775411"><ele>207.0</ele><time>2026-04-02T11:04:12.71Z</time></trkpt><trkpt lat="42.9755134" lon="12.2773102"><ele>207.0</ele><time>2026-04-02T11:04:13.71Z</time></trkpt><trkpt lat="42.975563" lon="12.2770906"><ele>207.33333333333331</ele><time>2026-04-02T11:04:14.715Z</time></trkpt><trkpt lat="42.9756013" lon="12.2768912"><ele>207.66666666666666</ele><time>2026-04-02T11:04:15.713Z</time></trkpt><trkpt lat="42.9756484" lon="12.2766905"><ele>208.0</ele><time>2026-04-02T11:04:16.711Z</time></trkpt><trkpt lat="42.9757043" lon="12.276495"><ele>207.66666666666666</ele><time>2026-04-02T11:04:17.719Z</time></trkpt><trkpt lat="42.9757807" lon="12.2763118"><ele>207.33333333333331</ele><time>2026-04-02T11:04:18.714Z</time></trkpt><trkpt lat="42.9758763" lon="12.2761472"><ele>207.0</ele><time>2026-04-02T11:04:19.711Z</time></trkpt><trkpt lat="42.9759784" lon="12.2760015"><ele>206.5</ele><time>2026-04-02T11:04:20.711Z</time></trkpt><trkpt lat="42.9760831" lon="12.2758677"><ele>206.0</ele><time>2026-04-02T11:04:21.712Z</time></trkpt><trkpt lat="42.9761769" lon="12.2757408"><ele>205.5</ele><time>2026-04-02T11:04:22.711Z</time></trkpt><trkpt lat="42.9762752" lon="12.275612"><ele>205.0</ele><time>2026-04-02T11:04:23.712Z</time></trkpt><trkpt lat="42.9763737" lon="12.2754791"><ele>205.0</ele><time>2026-04-02T11:04:24.711Z</time></trkpt><trkpt lat="42.9764814" lon="12.2753448"><ele>205.0</ele><time>2026-04-02T11:04:25.709Z</time></trkpt><trkpt lat="42.9765906" lon="12.2752091"><ele>205.0</ele><time>2026-04-02T11:04:26.713Z</time></trkpt><trkpt lat="42.9767097" lon="12.2750702"><ele>205.66666666666666</ele><time>2026-04-02T11:04:27.711Z</time></trkpt><trkpt lat="42.9768349" lon="12.2749359"><ele>206.33333333333331</ele><time>2026-04-02T11:04:28.71Z</time></trkpt><trkpt lat="42.9769614" lon="12.2748043"><ele>207.0</ele><time>2026-04-02T11:04:29.71Z</time></trkpt><trkpt lat="42.9771003" lon="12.2746789"><ele>207.0</ele><time>2026-04-02T11:04:30.71Z</time></trkpt><trkpt lat="42.9772467" lon="12.2745631"><ele>207.0</ele><time>2026-04-02T11:04:31.717Z</time></trkpt><trkpt lat="42.9774019" lon="12.2744634"><ele>207.0</ele><time>2026-04-02T11:04:32.713Z</time></trkpt><trkpt lat="42.9775659" lon="12.2743831"><ele>207.0</ele><time>2026-04-02T11:04:33.71Z</time></trkpt><trkpt lat="42.9777416" lon="12.2743404"><ele>207.0</ele><time>2026-04-02T11:04:34.714Z</time></trkpt><trkpt lat="42.9779227" lon="12.2743194"><ele>207.0</ele><time>2026-04-02T11:04:35.71Z</time></trkpt><trkpt lat="42.9781016" lon="12.2743289"><ele>207.0</ele><time>2026-04-02T11:04:36.712Z</time></trkpt><trkpt lat="42.9782808" lon="12.2743591"><ele>207.0</ele><time>2026-04-02T11:04:37.71Z</time></trkpt><trkpt lat="42.9784627" lon="12.2743978"><ele>207.0</ele><time>2026-04-02T11:04:38.711Z</time></trkpt><trkpt lat="42.9786493" lon="12.2744444"><ele>207.66666666666669</ele><time>2026-04-02T11:04:39.717Z</time></trkpt><trkpt lat="42.9788282" lon="12.2744974"><ele>208.33333333333334</ele><time>2026-04-02T11:04:40.715Z</time></trkpt><trkpt lat="42.9790115" lon="12.2745532"><ele>209.0</ele><time>2026-04-02T11:04:41.71Z</time></trkpt><trkpt lat="42.979197" lon="12.2746057"><ele>209.66666666666669</ele><time>2026-04-02T11:04:42.713Z</time></trkpt><trkpt lat="42.9793768" lon="12.274658"><ele>210.33333333333331</ele><time>2026-04-02T11:04:43.712Z</time></trkpt><trkpt lat="42.9795582" lon="12.2747115"><ele>211.0</ele><time>2026-04-02T11:04:44.714Z</time></trkpt><trkpt lat="42.9797397" lon="12.2747653"><ele>212.33333333333331</ele><time>2026-04-02T11:04:45.713Z</time></trkpt><trkpt lat="42.9799254" lon="12.2748188"><ele>213.66666666666669</ele><time>2026-04-02T11:04:46.71Z</time></trkpt><trkpt lat="42.9801115" lon="12.2748724"><ele>215.0</ele><time>2026-04-02T11:04:47.711Z</time></trkpt><trkpt lat="42.9802947" lon="12.2749247"><ele>216.0</ele><time>2026-04-02T11:04:48.713Z</time></trkpt><trkpt lat="42.9804768" lon="12.2749762"><ele>217.0</ele><time>2026-04-02T11:04:49.714Z</time></trkpt><trkpt lat="42.9806566" lon="12.2750282"><ele>218.0</ele><time>2026-04-02T11:04:50.728Z</time></trkpt><trkpt lat="42.980836" lon="12.2750788"><ele>219.33333333333334</ele><time>2026-04-02T11:04:51.714Z</time></trkpt><trkpt lat="42.9810138" lon="12.2751346"><ele>220.66666666666669</ele><time>2026-04-02T11:04:52.709Z</time></trkpt><trkpt lat="42.9811922" lon="12.2751853"><ele>222.0</ele><time>2026-04-02T11:04:53.707Z</time></trkpt><trkpt lat="42.9813718" lon="12.2752321"><ele>222.0</ele><time>2026-04-02T11:04:54.708Z</time></trkpt><trkpt lat="42.9815536" lon="12.2752699"><ele>222.0</ele><time>2026-04-02T11:04:55.709Z</time></trkpt><trkpt lat="42.98174" lon="12.2752951"><ele>222.0</ele><time>2026-04-02T11:04:56.712Z</time></trkpt><trkpt lat="42.9819287" lon="12.2753174"><ele>223.0</ele><time>2026-04-02T11:04:57.713Z</time></trkpt><trkpt lat="42.9821203" lon="12.2753267"><ele>224.0</ele><time>2026-04-02T11:04:58.713Z</time></trkpt><trkpt lat="42.9823125" lon="12.2753145"><ele>225.0</ele><time>2026-04-02T11:04:59.71Z</time></trkpt><trkpt lat="42.9825008" lon="12.275278"><ele>226.66666666666669</ele><time>2026-04-02T11:05:00.713Z</time></trkpt><trkpt lat="42.9826906" lon="12.2752247"><ele>228.33333333333334</ele><time>2026-04-02T11:05:01.712Z</time></trkpt><trkpt lat="42.9828801" lon="12.2751628"><ele>230.0</ele><time>2026-04-02T11:05:02.712Z</time></trkpt><trkpt lat="42.9830727" lon="12.2750979"><ele>230.0</ele><time>2026-04-02T11:05:03.711Z</time></trkpt><trkpt lat="42.983264" lon="12.2750279"><ele>230.0</ele><time>2026-04-02T11:05:04.712Z</time></trkpt><trkpt lat="42.983455" lon="12.2749594"><ele>230.0</ele><time>2026-04-02T11:05:05.709Z</time></trkpt><trkpt lat="42.9836387" lon="12.2748948"><ele>232.33333333333334</ele><time>2026-04-02T11:05:06.708Z</time></trkpt><trkpt lat="42.9838262" lon="12.2748176"><ele>234.66666666666669</ele><time>2026-04-02T11:05:07.708Z</time></trkpt><trkpt lat="42.98401" lon="12.2747429"><ele>237.0</ele><time>2026-04-02T11:05:08.705Z</time></trkpt><trkpt lat="42.9841876" lon="12.2746785"><ele>241.0</ele><time>2026-04-02T11:05:09.706Z</time></trkpt><trkpt lat="42.9843651" lon="12.2746091"><ele>245.0</ele><time>2026-04-02T11:05:10.706Z</time></trkpt><trkpt lat="42.9845416" lon="12.2745411"><ele>249.0</ele><time>2026-04-02T11:05:11.725Z</time></trkpt><trkpt lat="42.9847144" lon="12.274471"><ele>249.0</ele><time>2026-04-02T11:05:12.713Z</time></trkpt><trkpt lat="42.984888" lon="12.2744037"><ele>249.0</ele><time>2026-04-02T11:05:13.708Z</time></trkpt><trkpt lat="42.9850579" lon="12.2743402"><ele>249.0</ele><time>2026-04-02T11:05:14.716Z</time></trkpt><trkpt lat="42.9852317" lon="12.2742787"><ele>252.33333333333331</ele><time>2026-04-02T11:05:15.714Z</time></trkpt><trkpt lat="42.9853999" lon="12.2742114"><ele>255.66666666666666</ele><time>2026-04-02T11:05:16.708Z</time></trkpt><trkpt lat="42.9855676" lon="12.2741484"><ele>259.0</ele><time>2026-04-02T11:05:17.713Z</time></trkpt><trkpt lat="42.9857353" lon="12.2740836"><ele>260.3333333333333</ele><time>2026-04-02T11:05:18.712Z</time></trkpt><trkpt lat="42.9858971" lon="12.2740267"><ele>261.6666666666667</ele><time>2026-04-02T11:05:19.716Z</time></trkpt><trkpt lat="42.9860417" lon="12.2739899"><ele>263.0</ele><time>2026-04-02T11:05:20.71Z</time></trkpt><trkpt lat="42.9861822" lon="12.2739694"><ele>263.0</ele><time>2026-04-02T11:05:21.71Z</time></trkpt><trkpt lat="42.9863185" lon="12.273956"><ele>263.0</ele><time>2026-04-02T11:05:22.709Z</time></trkpt><trkpt lat="42.9864391" lon="12.2739578"><ele>263.0</ele><time>2026-04-02T11:05:23.715Z</time></trkpt><trkpt lat="42.9865407" lon="12.2739586"><ele>263.0</ele><time>2026-04-02T11:05:24.713Z</time></trkpt><trkpt lat="42.9866355" lon="12.2739636"><ele>262.4</ele><time>2026-04-02T11:05:25.713Z</time></trkpt><trkpt lat="42.9867276" lon="12.2739882"><ele>261.8</ele><time>2026-04-02T11:05:26.712Z</time></trkpt><trkpt lat="42.9868217" lon="12.274031"><ele>261.2</ele><time>2026-04-02T11:05:27.711Z</time></trkpt><trkpt lat="42.9869169" lon="12.2740851"><ele>260.6</ele><time>2026-04-02T11:05:28.709Z</time></trkpt><trkpt lat="42.9870253" lon="12.2741404"><ele>260.0</ele><time>2026-04-02T11:05:29.714Z</time></trkpt><trkpt lat="42.9871327" lon="12.2742085"><ele>260.0</ele><time>2026-04-02T11:05:30.72Z</time></trkpt><trkpt lat="42.9872476" lon="12.2742915"><ele>260.0</ele><time>2026-04-02T11:05:31.711Z</time></trkpt><trkpt lat="42.987368" lon="12.2743807"><ele>260.0</ele><time>2026-04-02T11:05:32.719Z</time></trkpt><trkpt lat="42.9874951" lon="12.2744976"><ele>260.0</ele><time>2026-04-02T11:05:33.713Z</time></trkpt><trkpt lat="42.9876239" lon="12.2746284"><ele>258.33333333333337</ele><time>2026-04-02T11:05:34.714Z</time></trkpt><trkpt lat="42.9877507" lon="12.274772"><ele>256.6666666666667</ele><time>2026-04-02T11:05:35.714Z</time></trkpt><trkpt lat="42.9878781" lon="12.2749275"><ele>255.0</ele><time>2026-04-02T11:05:36.712Z</time></trkpt><trkpt lat="42.9880181" lon="12.2750887"><ele>255.0</ele><time>2026-04-02T11:05:37.713Z</time></trkpt><trkpt lat="42.988162" lon="12.2752562"><ele>255.0</ele><time>2026-04-02T11:05:38.713Z</time></trkpt><trkpt lat="42.9883091" lon="12.2754265"><ele>255.0</ele><time>2026-04-02T11:05:39.712Z</time></trkpt><trkpt lat="42.9884613" lon="12.275603"><ele>251.66666666666669</ele><time>2026-04-02T11:05:40.714Z</time></trkpt><trkpt lat="42.9886178" lon="12.2757794"><ele>248.33333333333334</ele><time>2026-04-02T11:05:41.71Z</time></trkpt><trkpt lat="42.9887771" lon="12.2759597"><ele>245.0</ele><time>2026-04-02T11:05:42.71Z</time></trkpt><trkpt lat="42.9889339" lon="12.2761492"><ele>245.0</ele><time>2026-04-02T11:05:43.716Z</time></trkpt><trkpt lat="42.9891" lon="12.2763465"><ele>245.0</ele><time>2026-04-02T11:05:44.714Z</time></trkpt><trkpt lat="42.9892742" lon="12.2765511"><ele>242.5</ele><time>2026-04-02T11:05:45.712Z</time></trkpt><trkpt lat="42.9894605" lon="12.2767529"><ele>240.0</ele><time>2026-04-02T11:05:46.718Z</time></trkpt><trkpt lat="42.9896583" lon="12.2769473"><ele>240.0</ele><time>2026-04-02T11:05:47.717Z</time></trkpt><trkpt lat="42.9898655" lon="12.277128"><ele>240.0</ele><time>2026-04-02T11:05:48.71Z</time></trkpt><trkpt lat="42.9900749" lon="12.277289"><ele>238.0</ele><time>2026-04-02T11:05:49.717Z</time></trkpt><trkpt lat="42.9902849" lon="12.2774275"><ele>236.0</ele><time>2026-04-02T11:05:50.711Z</time></trkpt><trkpt lat="42.9904931" lon="12.277549"><ele>236.0</ele><time>2026-04-02T11:05:51.711Z</time></trkpt><trkpt lat="42.9907023" lon="12.2776513"><ele>236.0</ele><time>2026-04-02T11:05:52.712Z</time></trkpt><trkpt lat="42.9909127" lon="12.2777347"><ele>236.0</ele><time>2026-04-02T11:05:53.711Z</time></trkpt><trkpt lat="42.9911252" lon="12.277802"><ele>237.66666666666669</ele><time>2026-04-02T11:05:54.71Z</time></trkpt><trkpt lat="42.9913379" lon="12.277856"><ele>239.33333333333331</ele><time>2026-04-02T11:05:55.707Z</time></trkpt><trkpt lat="42.9915561" lon="12.2778962"><ele>241.0</ele><time>2026-04-02T11:05:56.711Z</time></trkpt><trkpt lat="42.9917783" lon="12.2779168"><ele>243.33333333333331</ele><time>2026-04-02T11:05:57.712Z</time></trkpt><trkpt lat="42.9920017" lon="12.2779273"><ele>245.66666666666669</ele><time>2026-04-02T11:05:58.719Z</time></trkpt><trkpt lat="42.9922226" lon="12.277934"><ele>248.0</ele><time>2026-04-02T11:05:59.714Z</time></trkpt><trkpt lat="42.9924454" lon="12.2779439"><ele>250.66666666666669</ele><time>2026-04-02T11:06:00.716Z</time></trkpt><trkpt lat="42.9926696" lon="12.277945"><ele>253.33333333333331</ele><time>2026-04-02T11:06:01.714Z</time></trkpt><trkpt lat="42.9928886" lon="12.2779493"><ele>256.0</ele><time>2026-04-02T11:06:02.708Z</time></trkpt><trkpt lat="42.9931037" lon="12.2779534"><ele>256.0</ele><time>2026-04-02T11:06:03.711Z</time></trkpt><trkpt lat="42.9933083" lon="12.2779612"><ele>256.0</ele><time>2026-04-02T11:06:04.712Z</time></trkpt><trkpt lat="42.9935104" lon="12.2779715"><ele>256.0</ele><time>2026-04-02T11:06:05.712Z</time></trkpt><trkpt lat="42.9937133" lon="12.2779829"><ele>259.0</ele><time>2026-04-02T11:06:06.711Z</time></trkpt><trkpt lat="42.9939053" lon="12.2779916"><ele>262.0</ele><time>2026-04-02T11:06:07.715Z</time></trkpt><trkpt lat="42.9940948" lon="12.2779978"><ele>265.0</ele><time>2026-04-02T11:06:08.711Z</time></trkpt><trkpt lat="42.9942731" lon="12.2779981"><ele>268.0</ele><time>2026-04-02T11:06:09.717Z</time></trkpt><trkpt lat="42.9944397" lon="12.2780031"><ele>271.0</ele><time>2026-04-02T11:06:10.713Z</time></trkpt><trkpt lat="42.9946067" lon="12.2780037"><ele>274.0</ele><time>2026-04-02T11:06:11.719Z</time></trkpt><trkpt lat="42.9947706" lon="12.2780084"><ele>274.0</ele><time>2026-04-02T11:06:12.71Z</time></trkpt><trkpt lat="42.9949335" lon="12.2780202"><ele>274.0</ele><time>2026-04-02T11:06:13.711Z</time></trkpt><trkpt lat="42.9950968" lon="12.2780252"><ele>274.0</ele><time>2026-04-02T11:06:14.719Z</time></trkpt><trkpt lat="42.995261" lon="12.278012"><ele>275.0</ele><time>2026-04-02T11:06:15.714Z</time></trkpt><trkpt lat="42.9954199" lon="12.2779719"><ele>276.0</ele><time>2026-04-02T11:06:16.711Z</time></trkpt><trkpt lat="42.9955755" lon="12.2779106"><ele>277.0</ele><time>2026-04-02T11:06:17.715Z</time></trkpt><trkpt lat="42.9957298" lon="12.2778226"><ele>275.0</ele><time>2026-04-02T11:06:18.711Z</time></trkpt><trkpt lat="42.995881" lon="12.277712"><ele>273.0</ele><time>2026-04-02T11:06:19.715Z</time></trkpt><trkpt lat="42.9960232" lon="12.2775737"><ele>271.0</ele><time>2026-04-02T11:06:20.711Z</time></trkpt><trkpt lat="42.9961636" lon="12.2774105"><ele>273.0</ele><time>2026-04-02T11:06:21.721Z</time></trkpt><trkpt lat="42.9963074" lon="12.2772523"><ele>275.0</ele><time>2026-04-02T11:06:22.712Z</time></trkpt><trkpt lat="42.9964536" lon="12.277095"><ele>277.0</ele><time>2026-04-02T11:06:23.712Z</time></trkpt><trkpt lat="42.996607" lon="12.2769494"><ele>275.66666666666663</ele><time>2026-04-02T11:06:24.714Z</time></trkpt><trkpt lat="42.9967638" lon="12.2768138"><ele>274.3333333333333</ele><time>2026-04-02T11:06:25.718Z</time></trkpt><trkpt lat="42.996922" lon="12.2766829"><ele>273.0</ele><time>2026-04-02T11:06:26.719Z</time></trkpt><trkpt lat="42.9970747" lon="12.2765435"><ele>274.0</ele><time>2026-04-02T11:06:27.715Z</time></trkpt><trkpt lat="42.9972319" lon="12.2764007"><ele>275.0</ele><time>2026-04-02T11:06:28.714Z</time></trkpt><trkpt lat="42.997391" lon="12.2762504"><ele>276.0</ele><time>2026-04-02T11:06:29.711Z</time></trkpt><trkpt lat="42.9975362" lon="12.2761114"><ele>276.0</ele><time>2026-04-02T11:06:30.709Z</time></trkpt><trkpt lat="42.99768" lon="12.2759732"><ele>276.0</ele><time>2026-04-02T11:06:31.712Z</time></trkpt><trkpt lat="42.9978222" lon="12.2758354"><ele>276.0</ele><time>2026-04-02T11:06:32.71Z</time></trkpt><trkpt lat="42.9979677" lon="12.2757084"><ele>276.6666666666667</ele><time>2026-04-02T11:06:33.717Z</time></trkpt><trkpt lat="42.9981108" lon="12.2755784"><ele>277.33333333333337</ele><time>2026-04-02T11:06:34.713Z</time></trkpt><trkpt lat="42.9982472" lon="12.2754613"><ele>278.0</ele><time>2026-04-02T11:06:35.709Z</time></trkpt><trkpt lat="42.998379" lon="12.2753413"><ele>276.33333333333337</ele><time>2026-04-02T11:06:36.711Z</time></trkpt><trkpt lat="42.9985061" lon="12.2752156"><ele>274.6666666666667</ele><time>2026-04-02T11:06:37.713Z</time></trkpt><trkpt lat="42.9986361" lon="12.2750962"><ele>273.0</ele><time>2026-04-02T11:06:38.714Z</time></trkpt><trkpt lat="42.9987594" lon="12.2749937"><ele>273.0</ele><time>2026-04-02T11:06:39.716Z</time></trkpt><trkpt lat="42.99888" lon="12.2748957"><ele>273.0</ele><time>2026-04-02T11:06:40.714Z</time></trkpt><trkpt lat="42.9990107" lon="12.27481"><ele>273.0</ele><time>2026-04-02T11:06:41.715Z</time></trkpt><trkpt lat="42.9991481" lon="12.2747548"><ele>273.0</ele><time>2026-04-02T11:06:42.713Z</time></trkpt><trkpt lat="42.999284" lon="12.2747244"><ele>272.5</ele><time>2026-04-02T11:06:43.712Z</time></trkpt><trkpt lat="42.9994099" lon="12.2747295"><ele>272.0</ele><time>2026-04-02T11:06:44.71Z</time></trkpt><trkpt lat="42.9995372" lon="12.2747686"><ele>271.5</ele><time>2026-04-02T11:06:45.71Z</time></trkpt><trkpt lat="42.9996635" lon="12.2748536"><ele>271.0</ele><time>2026-04-02T11:06:46.719Z</time></trkpt><trkpt lat="42.9997853" lon="12.2749876"><ele>271.0</ele><time>2026-04-02T11:06:47.714Z</time></trkpt><trkpt lat="42.999872" lon="12.2751567"><ele>271.0</ele><time>2026-04-02T11:06:48.713Z</time></trkpt><trkpt lat="42.9999649" lon="12.2753281"><ele>271.0</ele><time>2026-04-02T11:06:49.709Z</time></trkpt><trkpt lat="43.0000689" lon="12.2755012"><ele>271.66666666666663</ele><time>2026-04-02T11:06:50.71Z</time></trkpt><trkpt lat="43.0001703" lon="12.2756781"><ele>272.3333333333333</ele><time>2026-04-02T11:06:51.712Z</time></trkpt><trkpt lat="43.0002714" lon="12.2758627"><ele>273.0</ele><time>2026-04-02T11:06:52.714Z</time></trkpt><trkpt lat="43.0003809" lon="12.2760561"><ele>273.0</ele><time>2026-04-02T11:06:53.71Z</time></trkpt><trkpt lat="43.0004898" lon="12.2762633"><ele>273.0</ele><time>2026-04-02T11:06:54.714Z</time></trkpt><trkpt lat="43.0005986" lon="12.2764733"><ele>273.0</ele><time>2026-04-02T11:06:55.71Z</time></trkpt><trkpt lat="43.0007132" lon="12.2766932"><ele>272.0</ele><time>2026-04-02T11:06:56.713Z</time></trkpt><trkpt lat="43.0008259" lon="12.2769146"><ele>271.0</ele><time>2026-04-02T11:06:57.717Z</time></trkpt><trkpt lat="43.0009433" lon="12.2771365"><ele>270.0</ele><time>2026-04-02T11:06:58.719Z</time></trkpt><trkpt lat="43.0010659" lon="12.2773703"><ele>268.3333333333333</ele><time>2026-04-02T11:06:59.709Z</time></trkpt><trkpt lat="43.0011931" lon="12.2776062"><ele>266.66666666666663</ele><time>2026-04-02T11:07:00.711Z</time></trkpt><trkpt lat="43.0013163" lon="12.2778401"><ele>265.0</ele><time>2026-04-02T11:07:01.712Z</time></trkpt><trkpt lat="43.0014427" lon="12.2780716"><ele>265.3333333333333</ele><time>2026-04-02T11:07:02.713Z</time></trkpt><trkpt lat="43.00157" lon="12.2783032"><ele>265.6666666666667</ele><time>2026-04-02T11:07:03.712Z</time></trkpt><trkpt lat="43.0016971" lon="12.2785379"><ele>266.0</ele><time>2026-04-02T11:07:04.715Z</time></trkpt><trkpt lat="43.0018282" lon="12.2787778"><ele>263.5</ele><time>2026-04-02T11:07:05.712Z</time></trkpt><trkpt lat="43.0019608" lon="12.2790266"><ele>261.0</ele><time>2026-04-02T11:07:06.717Z</time></trkpt><trkpt lat="43.0020954" lon="12.2792855"><ele>261.0</ele><time>2026-04-02T11:07:07.711Z</time></trkpt><trkpt lat="43.0022337" lon="12.2795507"><ele>261.0</ele><time>2026-04-02T11:07:08.714Z</time></trkpt><trkpt lat="43.0023736" lon="12.2798186"><ele>263.0</ele><time>2026-04-02T11:07:09.717Z</time></trkpt><trkpt lat="43.0025079" lon="12.2800882"><ele>265.0</ele><time>2026-04-02T11:07:10.71Z</time></trkpt><trkpt lat="43.0026293" lon="12.2803399"><ele>265.0</ele><time>2026-04-02T11:07:11.712Z</time></trkpt><trkpt lat="43.0027385" lon="12.28056"><ele>265.0</ele><time>2026-04-02T11:07:12.713Z</time></trkpt><trkpt lat="43.0028402" lon="12.2807629"><ele>265.0</ele><time>2026-04-02T11:07:13.712Z</time></trkpt><trkpt lat="43.0029226" lon="12.2809713"><ele>265.3333333333333</ele><time>2026-04-02T11:07:14.712Z</time></trkpt><trkpt lat="43.0029786" lon="12.2811995"><ele>265.6666666666667</ele><time>2026-04-02T11:07:15.714Z</time></trkpt><trkpt lat="43.0030025" lon="12.2814311"><ele>266.0</ele><time>2026-04-02T11:07:16.711Z</time></trkpt><trkpt lat="43.0029965" lon="12.2816654"><ele>266.0</ele><time>2026-04-02T11:07:17.714Z</time></trkpt><trkpt lat="43.00297" lon="12.2818984"><ele>266.0</ele><time>2026-04-02T11:07:18.711Z</time></trkpt><trkpt lat="43.0029491" lon="12.2821392"><ele>266.0</ele><time>2026-04-02T11:07:19.711Z</time></trkpt><trkpt lat="43.0029582" lon="12.2823797"><ele>268.33333333333337</ele><time>2026-04-02T11:07:20.71Z</time></trkpt><trkpt lat="43.0029963" lon="12.2826128"><ele>270.6666666666667</ele><time>2026-04-02T11:07:21.714Z</time></trkpt><trkpt lat="43.0030477" lon="12.2828409"><ele>273.0</ele><time>2026-04-02T11:07:22.713Z</time></trkpt><trkpt lat="43.0030956" lon="12.2830708"><ele>275.3333333333333</ele><time>2026-04-02T11:07:23.719Z</time></trkpt><trkpt lat="43.0031423" lon="12.2832804"><ele>277.66666666666663</ele><time>2026-04-02T11:07:24.709Z</time></trkpt><trkpt lat="43.0031973" lon="12.2834859"><ele>280.0</ele><time>2026-04-02T11:07:25.715Z</time></trkpt><trkpt lat="43.0032649" lon="12.2836942"><ele>280.3333333333333</ele><time>2026-04-02T11:07:26.711Z</time></trkpt><trkpt lat="43.003335" lon="12.2839014"><ele>280.6666666666667</ele><time>2026-04-02T11:07:27.711Z</time></trkpt><trkpt lat="43.0034054" lon="12.2841129"><ele>281.0</ele><time>2026-04-02T11:07:28.709Z</time></trkpt><trkpt lat="43.0034801" lon="12.2843183"><ele>281.0</ele><time>2026-04-02T11:07:29.708Z</time></trkpt><trkpt lat="43.0035466" lon="12.2845188"><ele>281.0</ele><time>2026-04-02T11:07:30.712Z</time></trkpt><trkpt lat="43.003594" lon="12.2847145"><ele>281.0</ele><time>2026-04-02T11:07:31.713Z</time></trkpt><trkpt lat="43.0036211" lon="12.2849127"><ele>281.0</ele><time>2026-04-02T11:07:32.709Z</time></trkpt><trkpt lat="43.0036296" lon="12.2851123"><ele>281.0</ele><time>2026-04-02T11:07:33.712Z</time></trkpt><trkpt lat="43.0036289" lon="12.285295"><ele>281.0</ele><time>2026-04-02T11:07:34.708Z</time></trkpt><trkpt lat="43.003628" lon="12.2854678"><ele>281.0</ele><time>2026-04-02T11:07:35.71Z</time></trkpt><trkpt lat="43.0036315" lon="12.2856243"><ele>281.0</ele><time>2026-04-02T11:07:36.711Z</time></trkpt><trkpt lat="43.0036384" lon="12.2857614"><ele>281.0</ele><time>2026-04-02T11:07:37.711Z</time></trkpt><trkpt lat="43.0036571" lon="12.2858729"><ele>281.0</ele><time>2026-04-02T11:07:38.71Z</time></trkpt><trkpt lat="43.0037063" lon="12.2859704"><ele>281.0</ele><time>2026-04-02T11:07:39.711Z</time></trkpt><trkpt lat="43.0037882" lon="12.2860591"><ele>281.0</ele><time>2026-04-02T11:07:40.709Z</time></trkpt><trkpt lat="43.0038829" lon="12.2861479"><ele>281.0</ele><time>2026-04-02T11:07:41.71Z</time></trkpt><trkpt lat="43.0039986" lon="12.2862439"><ele>281.0</ele><time>2026-04-02T11:07:42.71Z</time></trkpt><trkpt lat="43.0041225" lon="12.2863534"><ele>281.0</ele><time>2026-04-02T11:07:43.711Z</time></trkpt><trkpt lat="43.0042501" lon="12.2864582"><ele>281.0</ele><time>2026-04-02T11:07:44.709Z</time></trkpt><trkpt lat="43.0043732" lon="12.2865662"><ele>280.0</ele><time>2026-04-02T11:07:45.716Z</time></trkpt><trkpt lat="43.0045036" lon="12.286686"><ele>279.0</ele><time>2026-04-02T11:07:46.712Z</time></trkpt><trkpt lat="43.0046419" lon="12.2868066"><ele>278.0</ele><time>2026-04-02T11:07:47.709Z</time></trkpt><trkpt lat="43.0047848" lon="12.2869303"><ele>278.0</ele><time>2026-04-02T11:07:48.718Z</time></trkpt><trkpt lat="43.0049284" lon="12.2870528"><ele>278.0</ele><time>2026-04-02T11:07:49.713Z</time></trkpt><trkpt lat="43.0050714" lon="12.2871822"><ele>278.0</ele><time>2026-04-02T11:07:50.714Z</time></trkpt><trkpt lat="43.0052167" lon="12.2873115"><ele>277.33333333333337</ele><time>2026-04-02T11:07:51.716Z</time></trkpt><trkpt lat="43.0053652" lon="12.2874388"><ele>276.6666666666667</ele><time>2026-04-02T11:07:52.717Z</time></trkpt><trkpt lat="43.0055183" lon="12.2875738"><ele>276.0</ele><time>2026-04-02T11:07:53.71Z</time></trkpt><trkpt lat="43.0056698" lon="12.2877021"><ele>276.0</ele><time>2026-04-02T11:07:54.712Z</time></trkpt><trkpt lat="43.005823" lon="12.2878336"><ele>276.0</ele><time>2026-04-02T11:07:55.711Z</time></trkpt><trkpt lat="43.0059802" lon="12.2879675"><ele>276.0</ele><time>2026-04-02T11:07:56.714Z</time></trkpt><trkpt lat="43.0061412" lon="12.2881023"><ele>276.0</ele><time>2026-04-02T11:07:57.713Z</time></trkpt><trkpt lat="43.0062979" lon="12.2882386"><ele>276.0</ele><time>2026-04-02T11:07:58.714Z</time></trkpt><trkpt lat="43.0064503" lon="12.2883753"><ele>276.0</ele><time>2026-04-02T11:07:59.718Z</time></trkpt><trkpt lat="43.0066076" lon="12.2885212"><ele>276.0</ele><time>2026-04-02T11:08:00.715Z</time></trkpt><trkpt lat="43.0067692" lon="12.2886635"><ele>276.0</ele><time>2026-04-02T11:08:01.711Z</time></trkpt><trkpt lat="43.0069269" lon="12.2888028"><ele>276.0</ele><time>2026-04-02T11:08:02.712Z</time></trkpt><trkpt lat="43.0070816" lon="12.2889401"><ele>276.0</ele><time>2026-04-02T11:08:03.714Z</time></trkpt><trkpt lat="43.0072407" lon="12.2890737"><ele>276.0</ele><time>2026-04-02T11:08:04.714Z</time></trkpt><trkpt lat="43.0073912" lon="12.2891997"><ele>276.0</ele><time>2026-04-02T11:08:05.711Z</time></trkpt><trkpt lat="43.0075229" lon="12.2893159"><ele>276.75</ele><time>2026-04-02T11:08:06.712Z</time></trkpt><trkpt lat="43.0076465" lon="12.2894242"><ele>277.5</ele><time>2026-04-02T11:08:07.717Z</time></trkpt><trkpt lat="43.0077631" lon="12.2895273"><ele>278.25</ele><time>2026-04-02T11:08:08.711Z</time></trkpt><trkpt lat="43.0078717" lon="12.2896126"><ele>279.0</ele><time>2026-04-02T11:08:09.713Z</time></trkpt><trkpt lat="43.0079827" lon="12.2896794"><ele>279.0</ele><time>2026-04-02T11:08:10.713Z</time></trkpt><trkpt lat="43.008091" lon="12.2897272"><ele>279.0</ele><time>2026-04-02T11:08:11.712Z</time></trkpt><trkpt lat="43.008186" lon="12.2897966"><ele>279.0</ele><time>2026-04-02T11:08:12.715Z</time></trkpt><trkpt lat="43.0082827" lon="12.2898929"><ele>279.0</ele><time>2026-04-02T11:08:13.714Z</time></trkpt><trkpt lat="43.0083847" lon="12.2899941"><ele>279.0</ele><time>2026-04-02T11:08:14.711Z</time></trkpt><trkpt lat="43.0084875" lon="12.2901029"><ele>279.0</ele><time>2026-04-02T11:08:15.716Z</time></trkpt><trkpt lat="43.0086047" lon="12.2902115"><ele>279.0</ele><time>2026-04-02T11:08:16.714Z</time></trkpt><trkpt lat="43.0087163" lon="12.290324"><ele>279.0</ele><time>2026-04-02T11:08:17.713Z</time></trkpt><trkpt lat="43.0088171" lon="12.2904373"><ele>279.0</ele><time>2026-04-02T11:08:18.714Z</time></trkpt><trkpt lat="43.008903" lon="12.2905494"><ele>279.0</ele><time>2026-04-02T11:08:19.713Z</time></trkpt><trkpt lat="43.0089763" lon="12.2906795"><ele>279.0</ele><time>2026-04-02T11:08:20.714Z</time></trkpt><trkpt lat="43.0090321" lon="12.2908255"><ele>279.0</ele><time>2026-04-02T11:08:21.713Z</time></trkpt><trkpt lat="43.0090885" lon="12.2909629"><ele>278.4</ele><time>2026-04-02T11:08:22.717Z</time></trkpt><trkpt lat="43.0091531" lon="12.2910834"><ele>277.79999999999995</ele><time>2026-04-02T11:08:23.711Z</time></trkpt><trkpt lat="43.0092265" lon="12.291168"><ele>277.20000000000005</ele><time>2026-04-02T11:08:24.715Z</time></trkpt><trkpt lat="43.0093065" lon="12.2912246"><ele>276.6</ele><time>2026-04-02T11:08:25.715Z</time></trkpt><trkpt lat="43.009394" lon="12.2912486"><ele>276.0</ele><time>2026-04-02T11:08:26.713Z</time></trkpt><trkpt lat="43.0094849" lon="12.2912336"><ele>275.75</ele><time>2026-04-02T11:08:27.71Z</time></trkpt><trkpt lat="43.0095779" lon="12.2911805"><ele>275.5</ele><time>2026-04-02T11:08:28.711Z</time></trkpt><trkpt lat="43.0096661" lon="12.2910903"><ele>275.25</ele><time>2026-04-02T11:08:29.71Z</time></trkpt><trkpt lat="43.0097579" lon="12.29098"><ele>275.0</ele><time>2026-04-02T11:08:30.718Z</time></trkpt><trkpt lat="43.0098594" lon="12.2908562"><ele>275.0</ele><time>2026-04-02T11:08:31.711Z</time></trkpt><trkpt lat="43.0099591" lon="12.2907329"><ele>275.0</ele><time>2026-04-02T11:08:32.71Z</time></trkpt><trkpt lat="43.0100677" lon="12.2905992"><ele>275.0</ele><time>2026-04-02T11:08:33.71Z</time></trkpt><trkpt lat="43.0101829" lon="12.290455"><ele>275.0</ele><time>2026-04-02T11:08:34.713Z</time></trkpt><trkpt lat="43.0102936" lon="12.2903152"><ele>272.33333333333337</ele><time>2026-04-02T11:08:35.712Z</time></trkpt><trkpt lat="43.0104051" lon="12.2901782"><ele>269.6666666666667</ele><time>2026-04-02T11:08:36.713Z</time></trkpt><trkpt lat="43.0105182" lon="12.2900452"><ele>267.0</ele><time>2026-04-02T11:08:37.714Z</time></trkpt><trkpt lat="43.0106359" lon="12.2899159"><ele>267.0</ele><time>2026-04-02T11:08:38.712Z</time></trkpt><trkpt lat="43.010754" lon="12.2898021"><ele>267.0</ele><time>2026-04-02T11:08:39.716Z</time></trkpt><trkpt lat="43.0108682" lon="12.2896962"><ele>267.0</ele><time>2026-04-02T11:08:40.712Z</time></trkpt><trkpt lat="43.0109807" lon="12.2896015"><ele>267.0</ele><time>2026-04-02T11:08:41.711Z</time></trkpt><trkpt lat="43.0110921" lon="12.2895135"><ele>265.5</ele><time>2026-04-02T11:08:42.719Z</time></trkpt><trkpt lat="43.0112172" lon="12.2894364"><ele>264.0</ele><time>2026-04-02T11:08:43.718Z</time></trkpt><trkpt lat="43.011343" lon="12.2893567"><ele>262.5</ele><time>2026-04-02T11:08:44.712Z</time></trkpt><trkpt lat="43.0114744" lon="12.2892876"><ele>261.0</ele><time>2026-04-02T11:08:45.714Z</time></trkpt><trkpt lat="43.011605" lon="12.2892206"><ele>260.25</ele><time>2026-04-02T11:08:46.712Z</time></trkpt><trkpt lat="43.0117388" lon="12.2891471"><ele>259.5</ele><time>2026-04-02T11:08:47.709Z</time></trkpt><trkpt lat="43.0118732" lon="12.2890717"><ele>258.75</ele><time>2026-04-02T11:08:48.713Z</time></trkpt><trkpt lat="43.0120098" lon="12.2889993"><ele>258.0</ele><time>2026-04-02T11:08:49.71Z</time></trkpt><trkpt lat="43.0121462" lon="12.2889303"><ele>257.75</ele><time>2026-04-02T11:08:50.711Z</time></trkpt><trkpt lat="43.0122832" lon="12.2888689"><ele>257.5</ele><time>2026-04-02T11:08:51.713Z</time></trkpt><trkpt lat="43.0124205" lon="12.2888007"><ele>257.25</ele><time>2026-04-02T11:08:52.714Z</time></trkpt><trkpt lat="43.0125515" lon="12.2887377"><ele>257.0</ele><time>2026-04-02T11:08:53.711Z</time></trkpt><trkpt lat="43.0126783" lon="12.2886713"><ele>256.5</ele><time>2026-04-02T11:08:54.712Z</time></trkpt><trkpt lat="43.0128095" lon="12.2886028"><ele>256.0</ele><time>2026-04-02T11:08:55.709Z</time></trkpt><trkpt lat="43.0129469" lon="12.2885145"><ele>255.5</ele><time>2026-04-02T11:08:56.712Z</time></trkpt><trkpt lat="43.0130813" lon="12.2884157"><ele>255.0</ele><time>2026-04-02T11:08:57.713Z</time></trkpt><trkpt lat="43.0132174" lon="12.2883083"><ele>254.33333333333331</ele><time>2026-04-02T11:08:58.711Z</time></trkpt><trkpt lat="43.013351" lon="12.2882049"><ele>253.66666666666666</ele><time>2026-04-02T11:08:59.711Z</time></trkpt><trkpt lat="43.0134862" lon="12.2881"><ele>253.0</ele><time>2026-04-02T11:09:00.711Z</time></trkpt><trkpt lat="43.0136217" lon="12.2879912"><ele>252.66666666666666</ele><time>2026-04-02T11:09:01.711Z</time></trkpt><trkpt lat="43.0137583" lon="12.2878806"><ele>252.33333333333331</ele><time>2026-04-02T11:09:02.718Z</time></trkpt><trkpt lat="43.013896" lon="12.2877742"><ele>252.0</ele><time>2026-04-02T11:09:03.717Z</time></trkpt><trkpt lat="43.0140338" lon="12.2876895"><ele>252.0</ele><time>2026-04-02T11:09:04.717Z</time></trkpt><trkpt lat="43.0141795" lon="12.2876127"><ele>252.0</ele><time>2026-04-02T11:09:05.712Z</time></trkpt><trkpt lat="43.0143316" lon="12.2875455"><ele>252.0</ele><time>2026-04-02T11:09:06.718Z</time></trkpt><trkpt lat="43.0144823" lon="12.2874547"><ele>252.0</ele><time>2026-04-02T11:09:07.72Z</time></trkpt><trkpt lat="43.0146188" lon="12.2873449"><ele>252.0</ele><time>2026-04-02T11:09:08.713Z</time></trkpt><trkpt lat="43.0147386" lon="12.2872293"><ele>252.0</ele><time>2026-04-02T11:09:09.714Z</time></trkpt><trkpt lat="43.0148529" lon="12.2871201"><ele>252.0</ele><time>2026-04-02T11:09:10.71Z</time></trkpt><trkpt lat="43.0149554" lon="12.2870146"><ele>252.8</ele><time>2026-04-02T11:09:11.713Z</time></trkpt><trkpt lat="43.015046" lon="12.2869662"><ele>253.6</ele><time>2026-04-02T11:09:12.713Z</time></trkpt><trkpt lat="43.0151494" lon="12.2869187"><ele>254.40000000000003</ele><time>2026-04-02T11:09:13.713Z</time></trkpt><trkpt lat="43.0152563" lon="12.2869254"><ele>255.20000000000002</ele><time>2026-04-02T11:09:14.712Z</time></trkpt><trkpt lat="43.0153625" lon="12.2869549"><ele>256.0</ele><time>2026-04-02T11:09:15.708Z</time></trkpt><trkpt lat="43.015467" lon="12.2869974"><ele>256.0</ele><time>2026-04-02T11:09:16.713Z</time></trkpt><trkpt lat="43.015576" lon="12.2870355"><ele>256.0</ele><time>2026-04-02T11:09:17.711Z</time></trkpt><trkpt lat="43.0156877" lon="12.2870652"><ele>256.0</ele><time>2026-04-02T11:09:18.715Z</time></trkpt><trkpt lat="43.0157929" lon="12.2871"><ele>256.0</ele><time>2026-04-02T11:09:19.709Z</time></trkpt><trkpt lat="43.0158922" lon="12.2871336"><ele>256.0</ele><time>2026-04-02T11:09:20.712Z</time></trkpt><trkpt lat="43.0159768" lon="12.2871695"><ele>256.3333333333333</ele><time>2026-04-02T11:09:21.711Z</time></trkpt><trkpt lat="43.0160526" lon="12.2872121"><ele>256.66666666666663</ele><time>2026-04-02T11:09:22.71Z</time></trkpt><trkpt lat="43.0161373" lon="12.287307"><ele>257.0</ele><time>2026-04-02T11:09:24.711Z</time></trkpt><trkpt lat="43.0162086" lon="12.2873789"><ele>257.3333333333333</ele><time>2026-04-02T11:09:26.713Z</time></trkpt><trkpt lat="43.0162702" lon="12.2874039"><ele>257.6666666666667</ele><time>2026-04-02T11:09:27.712Z</time></trkpt><trkpt lat="43.0163321" lon="12.2874215"><ele>258.0</ele><time>2026-04-02T11:09:28.711Z</time></trkpt><trkpt lat="43.0164148" lon="12.2874475"><ele>258.0</ele><time>2026-04-02T11:09:29.71Z</time></trkpt><trkpt lat="43.0165032" lon="12.2874842"><ele>258.0</ele><time>2026-04-02T11:09:30.713Z</time></trkpt><trkpt lat="43.0165996" lon="12.2875237"><ele>258.0</ele><time>2026-04-02T11:09:31.712Z</time></trkpt><trkpt lat="43.0166988" lon="12.2875652"><ele>258.0</ele><time>2026-04-02T11:09:32.709Z</time></trkpt><trkpt lat="43.0168048" lon="12.2876118"><ele>258.0</ele><time>2026-04-02T11:09:33.713Z</time></trkpt><trkpt lat="43.0169098" lon="12.2876688"><ele>259.25</ele><time>2026-04-02T11:09:34.712Z</time></trkpt><trkpt lat="43.0170245" lon="12.2877293"><ele>260.5</ele><time>2026-04-02T11:09:35.711Z</time></trkpt><trkpt lat="43.0171436" lon="12.2877902"><ele>261.75</ele><time>2026-04-02T11:09:36.715Z</time></trkpt><trkpt lat="43.0172671" lon="12.2878452"><ele>263.0</ele><time>2026-04-02T11:09:37.711Z</time></trkpt><trkpt lat="43.0173934" lon="12.2878978"><ele>262.5</ele><time>2026-04-02T11:09:38.718Z</time></trkpt><trkpt lat="43.0175241" lon="12.2879435"><ele>262.0</ele><time>2026-04-02T11:09:39.712Z</time></trkpt><trkpt lat="43.0176529" lon="12.28798"><ele>261.5</ele><time>2026-04-02T11:09:40.712Z</time></trkpt><trkpt lat="43.0177814" lon="12.2880134"><ele>261.0</ele><time>2026-04-02T11:09:41.717Z</time></trkpt><trkpt lat="43.0178991" lon="12.2880481"><ele>261.0</ele><time>2026-04-02T11:09:42.71Z</time></trkpt><trkpt lat="43.0180038" lon="12.2880817"><ele>261.0</ele><time>2026-04-02T11:09:43.715Z</time></trkpt><trkpt lat="43.0180941" lon="12.2881241"><ele>261.0</ele><time>2026-04-02T11:09:44.718Z</time></trkpt><trkpt lat="43.0181718" lon="12.2881852"><ele>261.0</ele><time>2026-04-02T11:09:45.712Z</time></trkpt><trkpt lat="43.0182364" lon="12.288261"><ele>261.0</ele><time>2026-04-02T11:09:46.714Z</time></trkpt><trkpt lat="43.0182815" lon="12.2883272"><ele>261.0</ele><time>2026-04-02T11:09:47.712Z</time></trkpt><trkpt lat="43.0183529" lon="12.2884399"><ele>260.6</ele><time>2026-04-02T11:09:49.712Z</time></trkpt><trkpt lat="43.0184769" lon="12.2884867"><ele>260.20000000000005</ele><time>2026-04-02T11:09:51.715Z</time></trkpt><trkpt lat="43.0185562" lon="12.2884982"><ele>259.79999999999995</ele><time>2026-04-02T11:09:52.712Z</time></trkpt><trkpt lat="43.0186534" lon="12.2885136"><ele>259.4</ele><time>2026-04-02T11:09:53.71Z</time></trkpt><trkpt lat="43.018764" lon="12.2885366"><ele>259.0</ele><time>2026-04-02T11:09:54.712Z</time></trkpt><trkpt lat="43.0188842" lon="12.2885706"><ele>259.0</ele><time>2026-04-02T11:09:55.715Z</time></trkpt><trkpt lat="43.019007" lon="12.2886013"><ele>259.0</ele><time>2026-04-02T11:09:56.713Z</time></trkpt><trkpt lat="43.0191498" lon="12.2886343"><ele>259.0</ele><time>2026-04-02T11:09:57.713Z</time></trkpt><trkpt lat="43.0192892" lon="12.2886765"><ele>259.0</ele><time>2026-04-02T11:09:58.72Z</time></trkpt><trkpt lat="43.0194382" lon="12.2887171"><ele>257.0</ele><time>2026-04-02T11:09:59.712Z</time></trkpt><trkpt lat="43.0195951" lon="12.2887583"><ele>255.0</ele><time>2026-04-02T11:10:00.717Z</time></trkpt><trkpt lat="43.0197589" lon="12.2888035"><ele>253.0</ele><time>2026-04-02T11:10:01.712Z</time></trkpt><trkpt lat="43.0199268" lon="12.2888472"><ele>253.0</ele><time>2026-04-02T11:10:02.711Z</time></trkpt><trkpt lat="43.0200965" lon="12.288891"><ele>253.0</ele><time>2026-04-02T11:10:03.712Z</time></trkpt><trkpt lat="43.0202693" lon="12.2889372"><ele>253.0</ele><time>2026-04-02T11:10:04.715Z</time></trkpt><trkpt lat="43.020446" lon="12.2889822"><ele>253.0</ele><time>2026-04-02T11:10:05.712Z</time></trkpt><trkpt lat="43.020631" lon="12.2890231"><ele>253.0</ele><time>2026-04-02T11:10:06.708Z</time></trkpt><trkpt lat="43.0208213" lon="12.2890754"><ele>253.0</ele><time>2026-04-02T11:10:07.718Z</time></trkpt><trkpt lat="43.0210142" lon="12.2891239"><ele>252.0</ele><time>2026-04-02T11:10:08.714Z</time></trkpt><trkpt lat="43.0212155" lon="12.2891692"><ele>251.0</ele><time>2026-04-02T11:10:09.711Z</time></trkpt><trkpt lat="43.0214131" lon="12.28921"><ele>250.0</ele><time>2026-04-02T11:10:10.715Z</time></trkpt><trkpt lat="43.0216199" lon="12.2892608"><ele>249.33333333333331</ele><time>2026-04-02T11:10:11.709Z</time></trkpt><trkpt lat="43.0218195" lon="12.2893126"><ele>248.66666666666669</ele><time>2026-04-02T11:10:12.713Z</time></trkpt><trkpt lat="43.0220059" lon="12.289355"><ele>248.0</ele><time>2026-04-02T11:10:13.713Z</time></trkpt><trkpt lat="43.0221728" lon="12.2893944"><ele>248.0</ele><time>2026-04-02T11:10:14.711Z</time></trkpt><trkpt lat="43.0223315" lon="12.2894337"><ele>248.0</ele><time>2026-04-02T11:10:15.717Z</time></trkpt><trkpt lat="43.0224893" lon="12.2894751"><ele>248.0</ele><time>2026-04-02T11:10:16.734Z</time></trkpt><trkpt lat="43.0226378" lon="12.2895188"><ele>249.0</ele><time>2026-04-02T11:10:17.72Z</time></trkpt><trkpt lat="43.0227779" lon="12.2895296"><ele>250.0</ele><time>2026-04-02T11:10:18.716Z</time></trkpt><trkpt lat="43.0229249" lon="12.2895009"><ele>251.0</ele><time>2026-04-02T11:10:19.713Z</time></trkpt><trkpt lat="43.0230801" lon="12.2894523"><ele>252.0</ele><time>2026-04-02T11:10:20.713Z</time></trkpt><trkpt lat="43.0232366" lon="12.2894055"><ele>253.66666666666669</ele><time>2026-04-02T11:10:21.714Z</time></trkpt><trkpt lat="43.0233989" lon="12.2893535"><ele>255.33333333333334</ele><time>2026-04-02T11:10:22.718Z</time></trkpt><trkpt lat="43.0235652" lon="12.2893027"><ele>257.0</ele><time>2026-04-02T11:10:23.717Z</time></trkpt><trkpt lat="43.0237343" lon="12.2892456"><ele>257.0</ele><time>2026-04-02T11:10:24.712Z</time></trkpt><trkpt lat="43.023911" lon="12.2891803"><ele>257.0</ele><time>2026-04-02T11:10:25.718Z</time></trkpt><trkpt lat="43.0240828" lon="12.2891233"><ele>257.0</ele><time>2026-04-02T11:10:26.716Z</time></trkpt><trkpt lat="43.0242599" lon="12.2890662"><ele>257.0</ele><time>2026-04-02T11:10:27.714Z</time></trkpt><trkpt lat="43.0244367" lon="12.289023"><ele>257.0</ele><time>2026-04-02T11:10:28.713Z</time></trkpt><trkpt lat="43.024618" lon="12.2889666"><ele>257.0</ele><time>2026-04-02T11:10:29.709Z</time></trkpt><trkpt lat="43.0247927" lon="12.288911"><ele>257.0</ele><time>2026-04-02T11:10:30.712Z</time></trkpt><trkpt lat="43.0249698" lon="12.2888535"><ele>257.0</ele><time>2026-04-02T11:10:31.717Z</time></trkpt><trkpt lat="43.0251399" lon="12.2888036"><ele>257.0</ele><time>2026-04-02T11:10:32.709Z</time></trkpt><trkpt lat="43.025301" lon="12.2887745"><ele>256.6666666666667</ele><time>2026-04-02T11:10:33.717Z</time></trkpt><trkpt lat="43.0254668" lon="12.2887757"><ele>256.3333333333333</ele><time>2026-04-02T11:10:34.711Z</time></trkpt><trkpt lat="43.0256315" lon="12.2888092"><ele>256.0</ele><time>2026-04-02T11:10:35.714Z</time></trkpt><trkpt lat="43.0257936" lon="12.2888665"><ele>256.0</ele><time>2026-04-02T11:10:36.712Z</time></trkpt><trkpt lat="43.0259577" lon="12.2889232"><ele>256.0</ele><time>2026-04-02T11:10:37.71Z</time></trkpt><trkpt lat="43.0261106" lon="12.2889631"><ele>256.0</ele><time>2026-04-02T11:10:38.71Z</time></trkpt><trkpt lat="43.0262618" lon="12.2889937"><ele>256.0</ele><time>2026-04-02T11:10:39.712Z</time></trkpt><trkpt lat="43.0264157" lon="12.2890253"><ele>256.0</ele><time>2026-04-02T11:10:40.712Z</time></trkpt><trkpt lat="43.0265726" lon="12.2890578"><ele>256.0</ele><time>2026-04-02T11:10:41.712Z</time></trkpt><trkpt lat="43.0267331" lon="12.2890913"><ele>256.0</ele><time>2026-04-02T11:10:42.714Z</time></trkpt><trkpt lat="43.0268913" lon="12.2891207"><ele>256.0</ele><time>2026-04-02T11:10:43.715Z</time></trkpt><trkpt lat="43.0270486" lon="12.2891546"><ele>256.0</ele><time>2026-04-02T11:10:44.71Z</time></trkpt><trkpt lat="43.0272075" lon="12.2891944"><ele>256.0</ele><time>2026-04-02T11:10:45.712Z</time></trkpt><trkpt lat="43.0273631" lon="12.2892412"><ele>256.0</ele><time>2026-04-02T11:10:46.711Z</time></trkpt><trkpt lat="43.0275151" lon="12.2892869"><ele>256.0</ele><time>2026-04-02T11:10:47.711Z</time></trkpt><trkpt lat="43.0276609" lon="12.2893261"><ele>256.75</ele><time>2026-04-02T11:10:48.718Z</time></trkpt><trkpt lat="43.0277948" lon="12.2893749"><ele>257.5</ele><time>2026-04-02T11:10:49.714Z</time></trkpt><trkpt lat="43.0279231" lon="12.2894243"><ele>258.25</ele><time>2026-04-02T11:10:50.71Z</time></trkpt><trkpt lat="43.0280442" lon="12.2894716"><ele>259.0</ele><time>2026-04-02T11:10:51.712Z</time></trkpt><trkpt lat="43.0281514" lon="12.289511"><ele>259.0</ele><time>2026-04-02T11:10:52.711Z</time></trkpt><trkpt lat="43.0282537" lon="12.2895526"><ele>259.0</ele><time>2026-04-02T11:10:53.711Z</time></trkpt><trkpt lat="43.0283199" lon="12.2895824"><ele>259.0</ele><time>2026-04-02T11:10:54.714Z</time></trkpt><trkpt lat="43.0284214" lon="12.2896343"><ele>259.0</ele><time>2026-04-02T11:10:56.714Z</time></trkpt><trkpt lat="43.0284872" lon="12.2896675"><ele>259.0</ele><time>2026-04-02T11:10:58.712Z</time></trkpt><trkpt lat="43.0285643" lon="12.2896937"><ele>259.0</ele><time>2026-04-02T11:11:00.716Z</time></trkpt><trkpt lat="43.0286375" lon="12.2897035"><ele>258.8333333333333</ele><time>2026-04-02T11:11:02.716Z</time></trkpt><trkpt lat="43.0287027" lon="12.2897464"><ele>258.66666666666663</ele><time>2026-04-02T11:11:05.713Z</time></trkpt><trkpt lat="43.0287637" lon="12.289825"><ele>258.5</ele><time>2026-04-02T11:11:08.713Z</time></trkpt><trkpt lat="43.0288211" lon="12.2899323"><ele>258.3333333333333</ele><time>2026-04-02T11:11:10.715Z</time></trkpt><trkpt lat="43.0288532" lon="12.2900185"><ele>258.1666666666667</ele><time>2026-04-02T11:11:23.712Z</time></trkpt><trkpt lat="43.0289032" lon="12.2900821"><ele>258.0</ele><time>2026-04-02T11:11:25.711Z</time></trkpt><trkpt lat="43.0289444" lon="12.2901573"><ele>257.99999999999994</ele><time>2026-04-02T11:11:27.709Z</time></trkpt><trkpt lat="43.0289836" lon="12.290231"><ele>258.0</ele><time>2026-04-02T11:11:29.712Z</time></trkpt><trkpt lat="43.0290228" lon="12.2903204"><ele>258.0</ele><time>2026-04-02T11:11:31.711Z</time></trkpt><trkpt lat="43.0290671" lon="12.2904067"><ele>258.0</ele><time>2026-04-02T11:11:34.71Z</time></trkpt><trkpt lat="43.0291142" lon="12.290504"><ele>258.0</ele><time>2026-04-02T11:11:39.711Z</time></trkpt><trkpt lat="43.0291626" lon="12.2905743"><ele>257.99999999999994</ele><time>2026-04-02T11:11:41.711Z</time></trkpt><trkpt lat="43.0292101" lon="12.290641"><ele>258.0</ele><time>2026-04-02T11:11:44.709Z</time></trkpt><trkpt lat="43.0292492" lon="12.2907167"><ele>258.5</ele><time>2026-04-02T11:11:46.712Z</time></trkpt><trkpt lat="43.0293114" lon="12.2908341"><ele>259.0</ele><time>2026-04-02T11:11:48.713Z</time></trkpt><trkpt lat="43.029359" lon="12.2909123"><ele>259.5</ele><time>2026-04-02T11:11:50.72Z</time></trkpt><trkpt lat="43.02939" lon="12.2910006"><ele>260.0</ele><time>2026-04-02T11:11:53.714Z</time></trkpt><trkpt lat="43.0293984" lon="12.2911013"><ele>260.5</ele><time>2026-04-02T11:11:56.721Z</time></trkpt><trkpt lat="43.0294504" lon="12.2912094"><ele>261.0</ele><time>2026-04-02T11:11:58.714Z</time></trkpt><trkpt lat="43.0294925" lon="12.2912774"><ele>261.0</ele><time>2026-04-02T11:11:59.709Z</time></trkpt><trkpt lat="43.0295462" lon="12.2913642"><ele>261.0</ele><time>2026-04-02T11:12:00.709Z</time></trkpt><trkpt lat="43.0296047" lon="12.2914552"><ele>261.0</ele><time>2026-04-02T11:12:01.713Z</time></trkpt><trkpt lat="43.0296654" lon="12.2915548"><ele>261.0</ele><time>2026-04-02T11:12:02.709Z</time></trkpt><trkpt lat="43.0297238" lon="12.2916436"><ele>261.0</ele><time>2026-04-02T11:12:03.714Z</time></trkpt><trkpt lat="43.0297816" lon="12.2917234"><ele>261.0</ele><time>2026-04-02T11:12:04.716Z</time></trkpt><trkpt lat="43.0298299" lon="12.2918078"><ele>260.8333333333333</ele><time>2026-04-02T11:12:05.717Z</time></trkpt><trkpt lat="43.0298843" lon="12.2918909"><ele>260.6666666666667</ele><time>2026-04-02T11:12:06.716Z</time></trkpt><trkpt lat="43.029936" lon="12.2919753"><ele>260.5</ele><time>2026-04-02T11:12:07.709Z</time></trkpt><trkpt lat="43.0299868" lon="12.2920612"><ele>260.33333333333337</ele><time>2026-04-02T11:12:08.713Z</time></trkpt><trkpt lat="43.0300241" lon="12.2921552"><ele>260.1666666666667</ele><time>2026-04-02T11:12:09.709Z</time></trkpt><trkpt lat="43.0300631" lon="12.2922566"><ele>260.0</ele><time>2026-04-02T11:12:10.71Z</time></trkpt><trkpt lat="43.0300905" lon="12.2923682"><ele>259.4</ele><time>2026-04-02T11:12:11.712Z</time></trkpt><trkpt lat="43.0301148" lon="12.2925027"><ele>258.8</ele><time>2026-04-02T11:12:12.711Z</time></trkpt><trkpt lat="43.0301458" lon="12.2926472"><ele>258.2</ele><time>2026-04-02T11:12:13.711Z</time></trkpt><trkpt lat="43.0301811" lon="12.2927999"><ele>257.6</ele><time>2026-04-02T11:12:14.712Z</time></trkpt><trkpt lat="43.0302117" lon="12.2929523"><ele>257.0</ele><time>2026-04-02T11:12:15.712Z</time></trkpt><trkpt lat="43.0302366" lon="12.2930937"><ele>256.4</ele><time>2026-04-02T11:12:16.709Z</time></trkpt><trkpt lat="43.0302623" lon="12.2932389"><ele>255.79999999999998</ele><time>2026-04-02T11:12:17.712Z</time></trkpt><trkpt lat="43.0302932" lon="12.2933756"><ele>255.2</ele><time>2026-04-02T11:12:18.71Z</time></trkpt><trkpt lat="43.0303279" lon="12.2935194"><ele>254.6</ele><time>2026-04-02T11:12:19.711Z</time></trkpt><trkpt lat="43.0303659" lon="12.2936553"><ele>254.0</ele><time>2026-04-02T11:12:20.714Z</time></trkpt><trkpt lat="43.0304039" lon="12.2937952"><ele>253.83333333333334</ele><time>2026-04-02T11:12:21.719Z</time></trkpt><trkpt lat="43.0304419" lon="12.2939318"><ele>253.66666666666669</ele><time>2026-04-02T11:12:22.713Z</time></trkpt><trkpt lat="43.0304675" lon="12.2940606"><ele>253.5</ele><time>2026-04-02T11:12:23.708Z</time></trkpt><trkpt lat="43.0304883" lon="12.2941807"><ele>253.33333333333331</ele><time>2026-04-02T11:12:24.713Z</time></trkpt><trkpt lat="43.0305064" lon="12.294289"><ele>253.16666666666666</ele><time>2026-04-02T11:12:25.713Z</time></trkpt><trkpt lat="43.030525" lon="12.2943855"><ele>253.0</ele><time>2026-04-02T11:12:26.709Z</time></trkpt><trkpt lat="43.0305554" lon="12.2944926"><ele>253.0</ele><time>2026-04-02T11:12:27.71Z</time></trkpt><trkpt lat="43.0305873" lon="12.2946063"><ele>253.0</ele><time>2026-04-02T11:12:28.71Z</time></trkpt><trkpt lat="43.0306254" lon="12.2947245"><ele>253.0</ele><time>2026-04-02T11:12:29.717Z</time></trkpt><trkpt lat="43.0306706" lon="12.2948539"><ele>253.0</ele><time>2026-04-02T11:12:30.713Z</time></trkpt><trkpt lat="43.0307184" lon="12.2949724"><ele>253.0</ele><time>2026-04-02T11:12:31.712Z</time></trkpt><trkpt lat="43.0307651" lon="12.2950902"><ele>253.0</ele><time>2026-04-02T11:12:32.713Z</time></trkpt><trkpt lat="43.0308045" lon="12.2952106"><ele>253.0</ele><time>2026-04-02T11:12:33.712Z</time></trkpt><trkpt lat="43.0308467" lon="12.2953297"><ele>253.0</ele><time>2026-04-02T11:12:34.715Z</time></trkpt><trkpt lat="43.0308922" lon="12.2954444"><ele>253.0</ele><time>2026-04-02T11:12:35.709Z</time></trkpt><trkpt lat="43.0309416" lon="12.2955709"><ele>253.0</ele><time>2026-04-02T11:12:36.712Z</time></trkpt><trkpt lat="43.0309876" lon="12.2956883"><ele>253.0</ele><time>2026-04-02T11:12:37.71Z</time></trkpt><trkpt lat="43.0310277" lon="12.2958022"><ele>253.0</ele><time>2026-04-02T11:12:38.712Z</time></trkpt><trkpt lat="43.0310746" lon="12.2959125"><ele>253.0</ele><time>2026-04-02T11:12:39.715Z</time></trkpt><trkpt lat="43.0311403" lon="12.2960157"><ele>253.0</ele><time>2026-04-02T11:12:40.712Z</time></trkpt><trkpt lat="43.0312044" lon="12.2961158"><ele>253.0</ele><time>2026-04-02T11:12:41.714Z</time></trkpt><trkpt lat="43.0312831" lon="12.2962146"><ele>253.0</ele><time>2026-04-02T11:12:42.708Z</time></trkpt><trkpt lat="43.0313545" lon="12.2963159"><ele>253.0</ele><time>2026-04-02T11:12:43.713Z</time></trkpt><trkpt lat="43.0314261" lon="12.2964118"><ele>253.0</ele><time>2026-04-02T11:12:44.712Z</time></trkpt><trkpt lat="43.0315007" lon="12.2965014"><ele>253.0</ele><time>2026-04-02T11:12:45.717Z</time></trkpt><trkpt lat="43.0315765" lon="12.296589"><ele>253.0</ele><time>2026-04-02T11:12:46.722Z</time></trkpt><trkpt lat="43.031641" lon="12.2966668"><ele>252.60000000000002</ele><time>2026-04-02T11:12:47.713Z</time></trkpt><trkpt lat="43.0317013" lon="12.2967363"><ele>252.20000000000002</ele><time>2026-04-02T11:12:48.713Z</time></trkpt><trkpt lat="43.0317657" lon="12.2968153"><ele>251.8</ele><time>2026-04-02T11:12:49.71Z</time></trkpt><trkpt lat="43.0318303" lon="12.29691"><ele>251.4</ele><time>2026-04-02T11:12:50.716Z</time></trkpt><trkpt lat="43.0319019" lon="12.2970041"><ele>251.0</ele><time>2026-04-02T11:12:51.718Z</time></trkpt><trkpt lat="43.0319736" lon="12.297101"><ele>251.0</ele><time>2026-04-02T11:12:52.715Z</time></trkpt><trkpt lat="43.0320442" lon="12.2971958"><ele>251.00000000000003</ele><time>2026-04-02T11:12:53.714Z</time></trkpt><trkpt lat="43.0321169" lon="12.2972895"><ele>251.00000000000003</ele><time>2026-04-02T11:12:54.712Z</time></trkpt><trkpt lat="43.0321668" lon="12.2973674"><ele>251.0</ele><time>2026-04-02T11:12:55.71Z</time></trkpt><trkpt lat="43.032243" lon="12.2974489"><ele>251.0</ele><time>2026-04-02T11:12:56.715Z</time></trkpt><trkpt lat="43.032304" lon="12.2975311"><ele>251.00000000000003</ele><time>2026-04-02T11:12:57.708Z</time></trkpt><trkpt lat="43.0323608" lon="12.2976169"><ele>251.0</ele><time>2026-04-02T11:12:58.71Z</time></trkpt><trkpt lat="43.0324171" lon="12.297699"><ele>251.0</ele><time>2026-04-02T11:12:59.713Z</time></trkpt><trkpt lat="43.0324808" lon="12.2977794"><ele>251.0</ele><time>2026-04-02T11:13:00.712Z</time></trkpt><trkpt lat="43.0325381" lon="12.2978659"><ele>251.00000000000003</ele><time>2026-04-02T11:13:01.714Z</time></trkpt><trkpt lat="43.032594" lon="12.2979601"><ele>251.0</ele><time>2026-04-02T11:13:02.711Z</time></trkpt><trkpt lat="43.0326551" lon="12.298056"><ele>250.60000000000002</ele><time>2026-04-02T11:13:03.712Z</time></trkpt><trkpt lat="43.0327127" lon="12.29815"><ele>250.20000000000002</ele><time>2026-04-02T11:13:04.716Z</time></trkpt><trkpt lat="43.032772" lon="12.2982532"><ele>249.79999999999998</ele><time>2026-04-02T11:13:05.714Z</time></trkpt><trkpt lat="43.0328302" lon="12.2983561"><ele>249.39999999999998</ele><time>2026-04-02T11:13:06.712Z</time></trkpt><trkpt lat="43.0328853" lon="12.2984526"><ele>249.0</ele><time>2026-04-02T11:13:07.717Z</time></trkpt><trkpt lat="43.0329468" lon="12.2985586"><ele>249.0</ele><time>2026-04-02T11:13:08.711Z</time></trkpt><trkpt lat="43.0330013" lon="12.2986531"><ele>249.0</ele><time>2026-04-02T11:13:09.709Z</time></trkpt><trkpt lat="43.0330461" lon="12.2987477"><ele>249.0</ele><time>2026-04-02T11:13:10.709Z</time></trkpt><trkpt lat="43.0330857" lon="12.2988335"><ele>249.0</ele><time>2026-04-02T11:13:11.711Z</time></trkpt><trkpt lat="43.0331264" lon="12.2989356"><ele>249.0</ele><time>2026-04-02T11:13:12.712Z</time></trkpt><trkpt lat="43.0331578" lon="12.2990446"><ele>249.0</ele><time>2026-04-02T11:13:13.711Z</time></trkpt><trkpt lat="43.033191" lon="12.2991455"><ele>248.5</ele><time>2026-04-02T11:13:14.712Z</time></trkpt><trkpt lat="43.0332233" lon="12.2992465"><ele>248.0</ele><time>2026-04-02T11:13:15.712Z</time></trkpt><trkpt lat="43.033253" lon="12.2993451"><ele>247.5</ele><time>2026-04-02T11:13:16.712Z</time></trkpt><trkpt lat="43.0332804" lon="12.2994374"><ele>247.0</ele><time>2026-04-02T11:13:17.717Z</time></trkpt><trkpt lat="43.0333106" lon="12.2995134"><ele>246.5</ele><time>2026-04-02T11:13:18.71Z</time></trkpt><trkpt lat="43.0333415" lon="12.2996525"><ele>246.0</ele><time>2026-04-02T11:13:20.715Z</time></trkpt><trkpt lat="43.0333747" lon="12.2997688"><ele>245.66666666666666</ele><time>2026-04-02T11:13:22.714Z</time></trkpt><trkpt lat="43.0334048" lon="12.2998618"><ele>245.33333333333331</ele><time>2026-04-02T11:13:26.713Z</time></trkpt><trkpt lat="43.0334572" lon="12.2999278"><ele>245.0</ele><time>2026-04-02T11:13:34.714Z</time></trkpt><trkpt lat="43.0335161" lon="12.2999665"><ele>244.66666666666666</ele><time>2026-04-02T11:13:36.714Z</time></trkpt><trkpt lat="43.0335673" lon="12.3000758"><ele>244.33333333333331</ele><time>2026-04-02T11:13:38.724Z</time></trkpt><trkpt lat="43.0336213" lon="12.3002276"><ele>244.0</ele><time>2026-04-02T11:13:40.714Z</time></trkpt><trkpt lat="43.0336523" lon="12.30031"><ele>243.99999999999997</ele><time>2026-04-02T11:13:41.711Z</time></trkpt><trkpt lat="43.0336825" lon="12.3004008"><ele>244.0</ele><time>2026-04-02T11:13:42.711Z</time></trkpt><trkpt lat="43.0337129" lon="12.300487"><ele>244.0</ele><time>2026-04-02T11:13:43.716Z</time></trkpt><trkpt lat="43.0337414" lon="12.3005784"><ele>244.0</ele><time>2026-04-02T11:13:44.716Z</time></trkpt><trkpt lat="43.0337758" lon="12.3006763"><ele>243.99999999999997</ele><time>2026-04-02T11:13:45.711Z</time></trkpt><trkpt lat="43.0338149" lon="12.3007933"><ele>244.0</ele><time>2026-04-02T11:13:46.717Z</time></trkpt><trkpt lat="43.0338528" lon="12.3009138"><ele>244.33333333333331</ele><time>2026-04-02T11:13:47.717Z</time></trkpt><trkpt lat="43.033891" lon="12.3010302"><ele>244.66666666666666</ele><time>2026-04-02T11:13:48.715Z</time></trkpt><trkpt lat="43.0339298" lon="12.3011352"><ele>245.0</ele><time>2026-04-02T11:13:49.713Z</time></trkpt><trkpt lat="43.0339659" lon="12.3012457"><ele>245.33333333333331</ele><time>2026-04-02T11:13:50.716Z</time></trkpt><trkpt lat="43.0340085" lon="12.3013566"><ele>245.66666666666666</ele><time>2026-04-02T11:13:51.714Z</time></trkpt><trkpt lat="43.0340556" lon="12.3014613"><ele>246.0</ele><time>2026-04-02T11:13:52.711Z</time></trkpt><trkpt lat="43.0341069" lon="12.3015697"><ele>246.0</ele><time>2026-04-02T11:13:53.711Z</time></trkpt><trkpt lat="43.0341693" lon="12.301691"><ele>246.0</ele><time>2026-04-02T11:13:54.71Z</time></trkpt><trkpt lat="43.0342379" lon="12.3018242"><ele>246.0</ele><time>2026-04-02T11:13:55.713Z</time></trkpt><trkpt lat="43.0343134" lon="12.301955"><ele>246.0</ele><time>2026-04-02T11:13:56.71Z</time></trkpt><trkpt lat="43.0343855" lon="12.3020809"><ele>246.0</ele><time>2026-04-02T11:13:57.713Z</time></trkpt><trkpt lat="43.034455" lon="12.3021997"><ele>246.0</ele><time>2026-04-02T11:13:58.714Z</time></trkpt><trkpt lat="43.0345192" lon="12.3023058"><ele>246.0</ele><time>2026-04-02T11:13:59.712Z</time></trkpt><trkpt lat="43.0345678" lon="12.3024005"><ele>246.0</ele><time>2026-04-02T11:14:00.712Z</time></trkpt><trkpt lat="43.0346144" lon="12.3024728"><ele>246.0</ele><time>2026-04-02T11:14:01.715Z</time></trkpt><trkpt lat="43.0346581" lon="12.3025406"><ele>246.0</ele><time>2026-04-02T11:14:02.716Z</time></trkpt><trkpt lat="43.0346576" lon="12.3026439"><ele>246.8</ele><time>2026-04-02T11:14:06.712Z</time></trkpt><trkpt lat="43.0346175" lon="12.3027358"><ele>247.60000000000002</ele><time>2026-04-02T11:14:09.715Z</time></trkpt><trkpt lat="43.0346603" lon="12.3028534"><ele>248.4</ele><time>2026-04-02T11:14:11.719Z</time></trkpt><trkpt lat="43.0347176" lon="12.3029808"><ele>249.2</ele><time>2026-04-02T11:14:13.715Z</time></trkpt><trkpt lat="43.0347744" lon="12.3030834"><ele>250.0</ele><time>2026-04-02T11:14:15.715Z</time></trkpt><trkpt lat="43.0348331" lon="12.3031644"><ele>250.83333333333331</ele><time>2026-04-02T11:14:19.723Z</time></trkpt><trkpt lat="43.0348883" lon="12.3032146"><ele>251.66666666666666</ele><time>2026-04-02T11:14:23.713Z</time></trkpt><trkpt lat="43.034888" lon="12.3033327"><ele>252.5</ele><time>2026-04-02T11:14:27.714Z</time></trkpt><trkpt lat="43.0349333" lon="12.3034122"><ele>253.33333333333331</ele><time>2026-04-02T11:14:28.714Z</time></trkpt><trkpt lat="43.0349878" lon="12.3035151"><ele>254.16666666666666</ele><time>2026-04-02T11:14:29.715Z</time></trkpt><trkpt lat="43.0350265" lon="12.3035895"><ele>255.0</ele><time>2026-04-02T11:14:30.711Z</time></trkpt><trkpt lat="43.0350528" lon="12.3036706"><ele>255.0</ele><time>2026-04-02T11:14:31.709Z</time></trkpt><trkpt lat="43.0350953" lon="12.3037569"><ele>255.0</ele><time>2026-04-02T11:14:32.71Z</time></trkpt><trkpt lat="43.0351379" lon="12.3038521"><ele>255.0</ele><time>2026-04-02T11:14:33.712Z</time></trkpt><trkpt lat="43.0351902" lon="12.303958"><ele>255.0</ele><time>2026-04-02T11:14:34.711Z</time></trkpt><trkpt lat="43.03525" lon="12.3040715"><ele>255.0</ele><time>2026-04-02T11:14:35.714Z</time></trkpt><trkpt lat="43.0353025" lon="12.3041683"><ele>255.0</ele><time>2026-04-02T11:14:36.713Z</time></trkpt><trkpt lat="43.0353648" lon="12.3042823"><ele>255.5</ele><time>2026-04-02T11:14:37.711Z</time></trkpt><trkpt lat="43.0354178" lon="12.3043837"><ele>256.0</ele><time>2026-04-02T11:14:38.711Z</time></trkpt><trkpt lat="43.035458" lon="12.3044687"><ele>256.5</ele><time>2026-04-02T11:14:39.713Z</time></trkpt><trkpt lat="43.0355051" lon="12.3045507"><ele>257.0</ele><time>2026-04-02T11:14:40.715Z</time></trkpt><trkpt lat="43.0355759" lon="12.3046467"><ele>257.5</ele><time>2026-04-02T11:14:42.714Z</time></trkpt><trkpt lat="43.0355847" lon="12.3047373"><ele>258.0</ele><time>2026-04-02T11:14:44.713Z</time></trkpt><trkpt lat="43.0355374" lon="12.304828"><ele>258.4</ele><time>2026-04-02T11:14:46.711Z</time></trkpt><trkpt lat="43.0354985" lon="12.3048986"><ele>258.8</ele><time>2026-04-02T11:14:47.712Z</time></trkpt><trkpt lat="43.0354084" lon="12.3049867"><ele>259.2</ele><time>2026-04-02T11:14:49.717Z</time></trkpt><trkpt lat="43.0353271" lon="12.30502"><ele>259.6</ele><time>2026-04-02T11:14:51.71Z</time></trkpt><trkpt lat="43.0351441" lon="12.3050338"><ele>260.0</ele><time>2026-04-02T11:15:04.714Z</time></trkpt><trkpt lat="43.0350515" lon="12.3050373"><ele>260.0</ele><time>2026-04-02T11:15:06.711Z</time></trkpt><trkpt lat="43.0349754" lon="12.3050552"><ele>260.0</ele><time>2026-04-02T11:15:08.709Z</time></trkpt><trkpt lat="43.0348909" lon="12.3050631"><ele>260.0</ele><time>2026-04-02T11:15:10.712Z</time></trkpt><trkpt lat="43.0348039" lon="12.3050768"><ele>260.0</ele><time>2026-04-02T11:15:12.712Z</time></trkpt><trkpt lat="43.0347193" lon="12.305113"><ele>260.0</ele><time>2026-04-02T11:15:15.714Z</time></trkpt><trkpt lat="43.0346505" lon="12.3051737"><ele>260.0</ele><time>2026-04-02T11:15:17.716Z</time></trkpt><trkpt lat="43.0345657" lon="12.3052621"><ele>259.83333333333337</ele><time>2026-04-02T11:15:19.71Z</time></trkpt><trkpt lat="43.0344784" lon="12.305374"><ele>259.6666666666667</ele><time>2026-04-02T11:15:21.713Z</time></trkpt><trkpt lat="43.0344293" lon="12.305434"><ele>259.5</ele><time>2026-04-02T11:15:22.718Z</time></trkpt><trkpt lat="43.0343748" lon="12.3055125"><ele>259.3333333333333</ele><time>2026-04-02T11:15:23.718Z</time></trkpt><trkpt lat="43.0343277" lon="12.3056005"><ele>259.16666666666663</ele><time>2026-04-02T11:15:24.71Z</time></trkpt><trkpt lat="43.0342808" lon="12.3056701"><ele>259.0</ele><time>2026-04-02T11:15:25.709Z</time></trkpt><trkpt lat="43.0342132" lon="12.3057881"><ele>259.59999999999997</ele><time>2026-04-02T11:15:27.713Z</time></trkpt><trkpt lat="43.034152" lon="12.3058818"><ele>260.2</ele><time>2026-04-02T11:15:29.711Z</time></trkpt><trkpt lat="43.0340841" lon="12.3059913"><ele>260.79999999999995</ele><time>2026-04-02T11:15:31.709Z</time></trkpt><trkpt lat="43.0340432" lon="12.3060793"><ele>261.4</ele><time>2026-04-02T11:15:32.72Z</time></trkpt><trkpt lat="43.0339873" lon="12.3061851"><ele>262.0</ele><time>2026-04-02T11:15:34.713Z</time></trkpt><trkpt lat="43.0339266" lon="12.3062723"><ele>262.5</ele><time>2026-04-02T11:15:37.713Z</time></trkpt><trkpt lat="43.0338898" lon="12.3063466"><ele>263.0</ele><time>2026-04-02T11:15:39.712Z</time></trkpt><trkpt lat="43.0338453" lon="12.3064238"><ele>263.5</ele><time>2026-04-02T11:15:41.718Z</time></trkpt><trkpt lat="43.0337777" lon="12.3065284"><ele>264.0</ele><time>2026-04-02T11:15:43.71Z</time></trkpt><trkpt lat="43.0336996" lon="12.3066243"><ele>264.5</ele><time>2026-04-02T11:15:45.711Z</time></trkpt><trkpt lat="43.0336361" lon="12.3067121"><ele>265.0</ele><time>2026-04-02T11:15:47.711Z</time></trkpt><trkpt lat="43.0335766" lon="12.3067697"><ele>265.1428571428571</ele><time>2026-04-02T11:15:49.711Z</time></trkpt><trkpt lat="43.0335288" lon="12.3068287"><ele>265.2857142857143</ele><time>2026-04-02T11:15:57.711Z</time></trkpt><trkpt lat="43.0334843" lon="12.3068921"><ele>265.42857142857144</ele><time>2026-04-02T11:16:01.711Z</time></trkpt><trkpt lat="43.0334337" lon="12.3069693"><ele>265.57142857142856</ele><time>2026-04-02T11:16:09.715Z</time></trkpt><trkpt lat="43.0333624" lon="12.307005"><ele>265.7142857142857</ele><time>2026-04-02T11:16:13.713Z</time></trkpt><trkpt lat="43.033298" lon="12.3070438"><ele>265.85714285714283</ele><time>2026-04-02T11:16:15.71Z</time></trkpt><trkpt lat="43.0332252" lon="12.3070658"><ele>266.0</ele><time>2026-04-02T11:16:18.71Z</time></trkpt><trkpt lat="43.0331512" lon="12.3071239"><ele>266.14285714285717</ele><time>2026-04-02T11:16:32.714Z</time></trkpt><trkpt lat="43.0330576" lon="12.3071618"><ele>266.2857142857143</ele><time>2026-04-02T11:16:37.712Z</time></trkpt><trkpt lat="43.0329969" lon="12.3071894"><ele>266.42857142857144</ele><time>2026-04-02T11:16:40.711Z</time></trkpt><trkpt lat="43.03293" lon="12.3072536"><ele>266.57142857142856</ele><time>2026-04-02T11:17:24.713Z</time></trkpt><trkpt lat="43.0328718" lon="12.3072921"><ele>266.7142857142857</ele><time>2026-04-02T11:17:28.713Z</time></trkpt><trkpt lat="43.0328081" lon="12.3073153"><ele>266.8571428571429</ele><time>2026-04-02T11:17:40.712Z</time></trkpt><trkpt lat="43.0327418" lon="12.3073412"><ele>267.0</ele><time>2026-04-02T11:17:44.714Z</time></trkpt><trkpt lat="43.0326719" lon="12.3073755"><ele>266.5</ele><time>2026-04-02T11:17:54.715Z</time></trkpt><trkpt lat="43.0326049" lon="12.3074083"><ele>266.0</ele><time>2026-04-02T11:17:58.714Z</time></trkpt><trkpt lat="43.0325182" lon="12.3074554"><ele>265.5</ele><time>2026-04-02T11:18:01.712Z</time></trkpt><trkpt lat="43.0324588" lon="12.3074857"><ele>265.0</ele><time>2026-04-02T11:18:03.717Z</time></trkpt><trkpt lat="43.032412" lon="12.3075777"><ele>264.5</ele><time>2026-04-02T11:18:07.712Z</time></trkpt><trkpt lat="43.0324302" lon="12.3076864"><ele>264.0</ele><time>2026-04-02T11:18:09.718Z</time></trkpt><trkpt lat="43.0324697" lon="12.3078002"><ele>264.0</ele><time>2026-04-02T11:18:11.709Z</time></trkpt><trkpt lat="43.0325148" lon="12.3079277"><ele>264.0</ele><time>2026-04-02T11:18:13.711Z</time></trkpt><trkpt lat="43.0325852" lon="12.308068"><ele>264.0</ele><time>2026-04-02T11:18:15.711Z</time></trkpt><trkpt lat="43.0326499" lon="12.3082022"><ele>264.0</ele><time>2026-04-02T11:18:17.721Z</time></trkpt><trkpt lat="43.0327204" lon="12.3083417"><ele>263.5</ele><time>2026-04-02T11:18:19.717Z</time></trkpt><trkpt lat="43.0327592" lon="12.3084144"><ele>263.0</ele><time>2026-04-02T11:18:20.712Z</time></trkpt><trkpt lat="43.0328027" lon="12.308486"><ele>262.5</ele><time>2026-04-02T11:18:21.709Z</time></trkpt><trkpt lat="43.0328466" lon="12.3085563"><ele>262.0</ele><time>2026-04-02T11:18:22.714Z</time></trkpt><trkpt lat="43.0329223" lon="12.308698"><ele>261.5</ele><time>2026-04-02T11:18:24.714Z</time></trkpt><trkpt lat="43.0329691" lon="12.3087823"><ele>261.0</ele><time>2026-04-02T11:18:25.711Z</time></trkpt><trkpt lat="43.0330145" lon="12.3088689"><ele>261.1666666666667</ele><time>2026-04-02T11:18:26.716Z</time></trkpt><trkpt lat="43.0330673" lon="12.3089562"><ele>261.3333333333333</ele><time>2026-04-02T11:18:27.713Z</time></trkpt><trkpt lat="43.0331166" lon="12.3090528"><ele>261.5</ele><time>2026-04-02T11:18:28.714Z</time></trkpt><trkpt lat="43.0331679" lon="12.3091539"><ele>261.66666666666663</ele><time>2026-04-02T11:18:29.708Z</time></trkpt><trkpt lat="43.0332145" lon="12.3092502"><ele>261.8333333333333</ele><time>2026-04-02T11:18:30.712Z</time></trkpt><trkpt lat="43.0332667" lon="12.3093523"><ele>262.0</ele><time>2026-04-02T11:18:31.708Z</time></trkpt><trkpt lat="43.0333106" lon="12.30944"><ele>262.0</ele><time>2026-04-02T11:18:32.714Z</time></trkpt><trkpt lat="43.0333522" lon="12.3095268"><ele>262.0</ele><time>2026-04-02T11:18:33.708Z</time></trkpt><trkpt lat="43.0333991" lon="12.3096091"><ele>262.0</ele><time>2026-04-02T11:18:34.712Z</time></trkpt><trkpt lat="43.0334429" lon="12.3097008"><ele>262.0</ele><time>2026-04-02T11:18:35.713Z</time></trkpt><trkpt lat="43.0334988" lon="12.309803"><ele>262.0</ele><time>2026-04-02T11:18:36.714Z</time></trkpt><trkpt lat="43.0335518" lon="12.3099022"><ele>262.0</ele><time>2026-04-02T11:18:37.711Z</time></trkpt><trkpt lat="43.0336051" lon="12.3100055"><ele>260.8</ele><time>2026-04-02T11:18:38.713Z</time></trkpt><trkpt lat="43.0336624" lon="12.3101098"><ele>259.6</ele><time>2026-04-02T11:18:39.71Z</time></trkpt><trkpt lat="43.0337207" lon="12.3102258"><ele>258.40000000000003</ele><time>2026-04-02T11:18:40.717Z</time></trkpt><trkpt lat="43.0337888" lon="12.3103455"><ele>257.2</ele><time>2026-04-02T11:18:41.715Z</time></trkpt><trkpt lat="43.0338567" lon="12.3104541"><ele>256.0</ele><time>2026-04-02T11:18:42.711Z</time></trkpt><trkpt lat="43.0339078" lon="12.3105538"><ele>256.66666666666663</ele><time>2026-04-02T11:18:43.711Z</time></trkpt><trkpt lat="43.0339673" lon="12.3106528"><ele>257.3333333333333</ele><time>2026-04-02T11:18:44.715Z</time></trkpt><trkpt lat="43.034022" lon="12.310741"><ele>258.0</ele><time>2026-04-02T11:18:45.712Z</time></trkpt><trkpt lat="43.0340741" lon="12.3108298"><ele>258.6666666666667</ele><time>2026-04-02T11:18:46.712Z</time></trkpt><trkpt lat="43.0341244" lon="12.310905"><ele>259.33333333333337</ele><time>2026-04-02T11:18:47.712Z</time></trkpt><trkpt lat="43.0341856" lon="12.3109651"><ele>260.0</ele><time>2026-04-02T11:18:48.715Z</time></trkpt><trkpt lat="43.0342533" lon="12.311014"><ele>260.0</ele><time>2026-04-02T11:18:49.711Z</time></trkpt><trkpt lat="43.0343367" lon="12.3110458"><ele>260.0</ele><time>2026-04-02T11:18:50.714Z</time></trkpt><trkpt lat="43.0344398" lon="12.3110542"><ele>260.0</ele><time>2026-04-02T11:18:51.718Z</time></trkpt><trkpt lat="43.0345371" lon="12.3110555"><ele>260.0</ele><time>2026-04-02T11:18:52.713Z</time></trkpt><trkpt lat="43.0346355" lon="12.3110581"><ele>260.0</ele><time>2026-04-02T11:18:53.72Z</time></trkpt><trkpt lat="43.0347332" lon="12.3110417"><ele>260.0</ele><time>2026-04-02T11:18:54.712Z</time></trkpt><trkpt lat="43.0348262" lon="12.3110256"><ele>260.0</ele><time>2026-04-02T11:18:55.713Z</time></trkpt><trkpt lat="43.0349225" lon="12.311009"><ele>260.0</ele><time>2026-04-02T11:18:56.716Z</time></trkpt><trkpt lat="43.0350295" lon="12.3109979"><ele>260.0</ele><time>2026-04-02T11:18:57.716Z</time></trkpt><trkpt lat="43.0351616" lon="12.3109802"><ele>260.0</ele><time>2026-04-02T11:18:58.711Z</time></trkpt><trkpt lat="43.0352748" lon="12.3109762"><ele>260.6</ele><time>2026-04-02T11:18:59.711Z</time></trkpt><trkpt lat="43.0353814" lon="12.3109763"><ele>261.2</ele><time>2026-04-02T11:19:00.713Z</time></trkpt><trkpt lat="43.0354819" lon="12.3109746"><ele>261.8</ele><time>2026-04-02T11:19:01.713Z</time></trkpt><trkpt lat="43.0355772" lon="12.3109653"><ele>262.4</ele><time>2026-04-02T11:19:02.713Z</time></trkpt><trkpt lat="43.0356536" lon="12.3109598"><ele>263.0</ele><time>2026-04-02T11:19:03.709Z</time></trkpt><trkpt lat="43.0357358" lon="12.3109394"><ele>262.6666666666667</ele><time>2026-04-02T11:19:04.712Z</time></trkpt><trkpt lat="43.0358201" lon="12.3109308"><ele>262.33333333333337</ele><time>2026-04-02T11:19:05.712Z</time></trkpt><trkpt lat="43.0359111" lon="12.3109045"><ele>262.0</ele><time>2026-04-02T11:19:06.71Z</time></trkpt><trkpt lat="43.0359933" lon="12.310888"><ele>261.6666666666667</ele><time>2026-04-02T11:19:07.714Z</time></trkpt><trkpt lat="43.036065" lon="12.3108611"><ele>261.3333333333333</ele><time>2026-04-02T11:19:08.716Z</time></trkpt><trkpt lat="43.0361434" lon="12.3108155"><ele>261.0</ele><time>2026-04-02T11:19:09.713Z</time></trkpt><trkpt lat="43.0362174" lon="12.3107584"><ele>261.0</ele><time>2026-04-02T11:19:10.711Z</time></trkpt><trkpt lat="43.0363014" lon="12.3107046"><ele>261.0</ele><time>2026-04-02T11:19:11.713Z</time></trkpt><trkpt lat="43.036384" lon="12.3106471"><ele>261.0</ele><time>2026-04-02T11:19:12.719Z</time></trkpt><trkpt lat="43.0364712" lon="12.3106035"><ele>261.0</ele><time>2026-04-02T11:19:13.712Z</time></trkpt><trkpt lat="43.0365667" lon="12.3105525"><ele>261.0</ele><time>2026-04-02T11:19:14.711Z</time></trkpt><trkpt lat="43.0366631" lon="12.3105306"><ele>261.40000000000003</ele><time>2026-04-02T11:19:15.709Z</time></trkpt><trkpt lat="43.0367576" lon="12.3104889"><ele>261.8</ele><time>2026-04-02T11:19:16.712Z</time></trkpt><trkpt lat="43.0368558" lon="12.3104544"><ele>262.20000000000005</ele><time>2026-04-02T11:19:17.712Z</time></trkpt><trkpt lat="43.0369555" lon="12.3104263"><ele>262.6</ele><time>2026-04-02T11:19:18.712Z</time></trkpt><trkpt lat="43.0370498" lon="12.3103976"><ele>263.0</ele><time>2026-04-02T11:19:19.713Z</time></trkpt><trkpt lat="43.0371471" lon="12.3103677"><ele>263.0</ele><time>2026-04-02T11:19:20.718Z</time></trkpt><trkpt lat="43.0372469" lon="12.3103386"><ele>263.0</ele><time>2026-04-02T11:19:21.714Z</time></trkpt><trkpt lat="43.0373504" lon="12.3103123"><ele>263.0</ele><time>2026-04-02T11:19:22.71Z</time></trkpt><trkpt lat="43.0374536" lon="12.3102837"><ele>263.0</ele><time>2026-04-02T11:19:23.714Z</time></trkpt><trkpt lat="43.0375537" lon="12.3102584"><ele>263.0</ele><time>2026-04-02T11:19:24.717Z</time></trkpt><trkpt lat="43.0376568" lon="12.3102333"><ele>262.8</ele><time>2026-04-02T11:19:25.71Z</time></trkpt><trkpt lat="43.0377592" lon="12.3102092"><ele>262.6</ele><time>2026-04-02T11:19:26.718Z</time></trkpt><trkpt lat="43.0378662" lon="12.3101829"><ele>262.4</ele><time>2026-04-02T11:19:27.718Z</time></trkpt><trkpt lat="43.037969" lon="12.3101581"><ele>262.2</ele><time>2026-04-02T11:19:28.716Z</time></trkpt><trkpt lat="43.0380756" lon="12.3101416"><ele>262.0</ele><time>2026-04-02T11:19:29.709Z</time></trkpt><trkpt lat="43.0381811" lon="12.3101238"><ele>262.0</ele><time>2026-04-02T11:19:30.716Z</time></trkpt><trkpt lat="43.0382896" lon="12.3100998"><ele>262.0</ele><time>2026-04-02T11:19:31.71Z</time></trkpt><trkpt lat="43.0384008" lon="12.3100741"><ele>262.0</ele><time>2026-04-02T11:19:32.711Z</time></trkpt><trkpt lat="43.0385115" lon="12.3100485"><ele>262.0</ele><time>2026-04-02T11:19:33.712Z</time></trkpt><trkpt lat="43.0386216" lon="12.3100225"><ele>262.0</ele><time>2026-04-02T11:19:34.714Z</time></trkpt><trkpt lat="43.0387342" lon="12.3100004"><ele>261.6</ele><time>2026-04-02T11:19:35.712Z</time></trkpt><trkpt lat="43.0388384" lon="12.3099738"><ele>261.2</ele><time>2026-04-02T11:19:36.711Z</time></trkpt><trkpt lat="43.0389428" lon="12.3099551"><ele>260.8</ele><time>2026-04-02T11:19:37.709Z</time></trkpt><trkpt lat="43.0390543" lon="12.309927"><ele>260.4</ele><time>2026-04-02T11:19:38.715Z</time></trkpt><trkpt lat="43.0391601" lon="12.3099025"><ele>260.0</ele><time>2026-04-02T11:19:39.712Z</time></trkpt><trkpt lat="43.0392636" lon="12.3098788"><ele>260.4</ele><time>2026-04-02T11:19:40.709Z</time></trkpt><trkpt lat="43.0393674" lon="12.3098395"><ele>260.8</ele><time>2026-04-02T11:19:41.712Z</time></trkpt><trkpt lat="43.0394662" lon="12.3097972"><ele>261.2</ele><time>2026-04-02T11:19:42.717Z</time></trkpt><trkpt lat="43.0395679" lon="12.3097529"><ele>261.6</ele><time>2026-04-02T11:19:43.715Z</time></trkpt><trkpt lat="43.0396666" lon="12.3096961"><ele>262.0</ele><time>2026-04-02T11:19:44.71Z</time></trkpt><trkpt lat="43.0397575" lon="12.3096312"><ele>262.0</ele><time>2026-04-02T11:19:45.711Z</time></trkpt><trkpt lat="43.0398376" lon="12.3095662"><ele>262.0</ele><time>2026-04-02T11:19:46.709Z</time></trkpt><trkpt lat="43.0399159" lon="12.3095153"><ele>262.0</ele><time>2026-04-02T11:19:47.712Z</time></trkpt><trkpt lat="43.0399884" lon="12.3094721"><ele>262.0</ele><time>2026-04-02T11:19:48.711Z</time></trkpt><trkpt lat="43.0400514" lon="12.3094668"><ele>262.0</ele><time>2026-04-02T11:19:49.714Z</time></trkpt><trkpt lat="43.0401166" lon="12.3094536"><ele>262.0</ele><time>2026-04-02T11:19:50.712Z</time></trkpt><trkpt lat="43.040185" lon="12.3094315"><ele>261.5</ele><time>2026-04-02T11:19:51.711Z</time></trkpt><trkpt lat="43.040265" lon="12.3094125"><ele>261.0</ele><time>2026-04-02T11:19:52.712Z</time></trkpt><trkpt lat="43.0403453" lon="12.3093869"><ele>260.5</ele><time>2026-04-02T11:19:53.711Z</time></trkpt><trkpt lat="43.0404168" lon="12.309357"><ele>260.0</ele><time>2026-04-02T11:19:54.711Z</time></trkpt><trkpt lat="43.0404955" lon="12.3093285"><ele>259.5</ele><time>2026-04-02T11:19:55.71Z</time></trkpt><trkpt lat="43.0405733" lon="12.3092995"><ele>259.0</ele><time>2026-04-02T11:19:56.711Z</time></trkpt><trkpt lat="43.0406489" lon="12.3092737"><ele>259.0</ele><time>2026-04-02T11:19:57.711Z</time></trkpt><trkpt lat="43.0407278" lon="12.3092678"><ele>259.0</ele><time>2026-04-02T11:19:58.712Z</time></trkpt><trkpt lat="43.0407948" lon="12.3092491"><ele>259.0</ele><time>2026-04-02T11:19:59.713Z</time></trkpt><trkpt lat="43.0409053" lon="12.3092147"><ele>259.0</ele><time>2026-04-02T11:20:01.714Z</time></trkpt><trkpt lat="43.0410166" lon="12.3091785"><ele>259.0</ele><time>2026-04-02T11:20:03.716Z</time></trkpt><trkpt lat="43.0411131" lon="12.30914"><ele>259.0</ele><time>2026-04-02T11:20:05.711Z</time></trkpt><trkpt lat="43.0412195" lon="12.3090909"><ele>259.0</ele><time>2026-04-02T11:20:07.714Z</time></trkpt><trkpt lat="43.0413271" lon="12.3090989"><ele>259.0</ele><time>2026-04-02T11:20:09.716Z</time></trkpt><trkpt lat="43.0414177" lon="12.3092295"><ele>259.0</ele><time>2026-04-02T11:20:11.71Z</time></trkpt><trkpt lat="43.0414643" lon="12.3093138"><ele>259.0</ele><time>2026-04-02T11:20:12.71Z</time></trkpt><trkpt lat="43.0415108" lon="12.3094222"><ele>259.0</ele><time>2026-04-02T11:20:13.711Z</time></trkpt><trkpt lat="43.0415629" lon="12.309542"><ele>259.0</ele><time>2026-04-02T11:20:14.712Z</time></trkpt><trkpt lat="43.0416112" lon="12.3096647"><ele>259.0</ele><time>2026-04-02T11:20:15.712Z</time></trkpt><trkpt lat="43.0416635" lon="12.3097943"><ele>259.0</ele><time>2026-04-02T11:20:16.713Z</time></trkpt><trkpt lat="43.04171" lon="12.3099164"><ele>259.0</ele><time>2026-04-02T11:20:17.711Z</time></trkpt><trkpt lat="43.0417555" lon="12.3100405"><ele>258.0</ele><time>2026-04-02T11:20:18.711Z</time></trkpt><trkpt lat="43.0418118" lon="12.3101677"><ele>257.0</ele><time>2026-04-02T11:20:19.71Z</time></trkpt><trkpt lat="43.0418702" lon="12.3102888"><ele>255.99999999999997</ele><time>2026-04-02T11:20:20.715Z</time></trkpt><trkpt lat="43.041931" lon="12.3104186"><ele>255.0</ele><time>2026-04-02T11:20:21.71Z</time></trkpt><trkpt lat="43.0419894" lon="12.3105533"><ele>254.0</ele><time>2026-04-02T11:20:22.712Z</time></trkpt><trkpt lat="43.0420497" lon="12.3106938"><ele>253.5</ele><time>2026-04-02T11:20:23.711Z</time></trkpt><trkpt lat="43.0421019" lon="12.3108314"><ele>253.0</ele><time>2026-04-02T11:20:24.714Z</time></trkpt><trkpt lat="43.0421571" lon="12.3109699"><ele>252.5</ele><time>2026-04-02T11:20:25.711Z</time></trkpt><trkpt lat="43.0422128" lon="12.3111081"><ele>252.0</ele><time>2026-04-02T11:20:26.713Z</time></trkpt><trkpt lat="43.0422691" lon="12.3112467"><ele>252.0</ele><time>2026-04-02T11:20:27.711Z</time></trkpt><trkpt lat="43.0423298" lon="12.3113839"><ele>252.0</ele><time>2026-04-02T11:20:28.712Z</time></trkpt><trkpt lat="43.0423943" lon="12.3115249"><ele>252.0</ele><time>2026-04-02T11:20:29.709Z</time></trkpt><trkpt lat="43.0424503" lon="12.311655"><ele>252.0</ele><time>2026-04-02T11:20:30.714Z</time></trkpt><trkpt lat="43.0425082" lon="12.3117894"><ele>252.25</ele><time>2026-04-02T11:20:31.713Z</time></trkpt><trkpt lat="43.0425615" lon="12.3119262"><ele>252.5</ele><time>2026-04-02T11:20:32.711Z</time></trkpt><trkpt lat="43.0426189" lon="12.3120683"><ele>252.75</ele><time>2026-04-02T11:20:33.713Z</time></trkpt><trkpt lat="43.0426874" lon="12.3122111"><ele>253.0</ele><time>2026-04-02T11:20:34.714Z</time></trkpt><trkpt lat="43.0427504" lon="12.3123508"><ele>252.60000000000002</ele><time>2026-04-02T11:20:35.714Z</time></trkpt><trkpt lat="43.0428093" lon="12.3124813"><ele>252.20000000000002</ele><time>2026-04-02T11:20:36.71Z</time></trkpt><trkpt lat="43.0428714" lon="12.3126133"><ele>251.8</ele><time>2026-04-02T11:20:37.711Z</time></trkpt><trkpt lat="43.0429264" lon="12.3127282"><ele>251.4</ele><time>2026-04-02T11:20:38.711Z</time></trkpt><trkpt lat="43.0429747" lon="12.3128414"><ele>251.0</ele><time>2026-04-02T11:20:39.711Z</time></trkpt><trkpt lat="43.0430229" lon="12.3129501"><ele>251.0</ele><time>2026-04-02T11:20:40.71Z</time></trkpt><trkpt lat="43.0430611" lon="12.3130533"><ele>251.00000000000003</ele><time>2026-04-02T11:20:41.712Z</time></trkpt><trkpt lat="43.0431126" lon="12.3131605"><ele>251.00000000000003</ele><time>2026-04-02T11:20:42.715Z</time></trkpt><trkpt lat="43.0431465" lon="12.3132813"><ele>251.0</ele><time>2026-04-02T11:20:43.71Z</time></trkpt><trkpt lat="43.0432031" lon="12.3134071"><ele>251.0</ele><time>2026-04-02T11:20:44.711Z</time></trkpt><trkpt lat="43.0432572" lon="12.3135346"><ele>251.5</ele><time>2026-04-02T11:20:45.715Z</time></trkpt><trkpt lat="43.0433247" lon="12.3136621"><ele>252.0</ele><time>2026-04-02T11:20:46.712Z</time></trkpt><trkpt lat="43.0433842" lon="12.3137828"><ele>252.5</ele><time>2026-04-02T11:20:47.711Z</time></trkpt><trkpt lat="43.0434402" lon="12.3139236"><ele>253.0</ele><time>2026-04-02T11:20:48.712Z</time></trkpt><trkpt lat="43.0435057" lon="12.3140577"><ele>254.25</ele><time>2026-04-02T11:20:49.711Z</time></trkpt><trkpt lat="43.0435602" lon="12.3141882"><ele>255.5</ele><time>2026-04-02T11:20:50.713Z</time></trkpt><trkpt lat="43.0436333" lon="12.3143468"><ele>256.75</ele><time>2026-04-02T11:20:51.712Z</time></trkpt><trkpt lat="43.0437109" lon="12.3145152"><ele>258.0</ele><time>2026-04-02T11:20:52.713Z</time></trkpt><trkpt lat="43.0437959" lon="12.3147039"><ele>257.6666666666667</ele><time>2026-04-02T11:20:53.717Z</time></trkpt><trkpt lat="43.04389" lon="12.3149045"><ele>257.33333333333337</ele><time>2026-04-02T11:20:54.711Z</time></trkpt><trkpt lat="43.0439834" lon="12.3151326"><ele>257.0</ele><time>2026-04-02T11:20:55.719Z</time></trkpt><trkpt lat="43.044079" lon="12.3153661"><ele>257.6666666666667</ele><time>2026-04-02T11:20:56.714Z</time></trkpt><trkpt lat="43.0441637" lon="12.3155671"><ele>258.3333333333333</ele><time>2026-04-02T11:20:57.714Z</time></trkpt><trkpt lat="43.0442334" lon="12.3157409"><ele>259.0</ele><time>2026-04-02T11:20:58.718Z</time></trkpt><trkpt lat="43.0443008" lon="12.315911"><ele>259.25</ele><time>2026-04-02T11:20:59.718Z</time></trkpt><trkpt lat="43.0443676" lon="12.3160744"><ele>259.5</ele><time>2026-04-02T11:21:00.712Z</time></trkpt><trkpt lat="43.0444369" lon="12.3162402"><ele>259.75</ele><time>2026-04-02T11:21:01.719Z</time></trkpt><trkpt lat="43.0445012" lon="12.3164131"><ele>260.0</ele><time>2026-04-02T11:21:02.714Z</time></trkpt><trkpt lat="43.044566" lon="12.3166025"><ele>260.0</ele><time>2026-04-02T11:21:03.712Z</time></trkpt><trkpt lat="43.04464" lon="12.3167959"><ele>260.0</ele><time>2026-04-02T11:21:04.714Z</time></trkpt><trkpt lat="43.0447166" lon="12.3170127"><ele>260.0</ele><time>2026-04-02T11:21:05.715Z</time></trkpt><trkpt lat="43.0447916" lon="12.3172408"><ele>260.6666666666667</ele><time>2026-04-02T11:21:06.714Z</time></trkpt><trkpt lat="43.044863" lon="12.3174443"><ele>261.3333333333333</ele><time>2026-04-02T11:21:07.713Z</time></trkpt><trkpt lat="43.0449302" lon="12.3176332"><ele>262.0</ele><time>2026-04-02T11:21:08.719Z</time></trkpt><trkpt lat="43.0449952" lon="12.3178138"><ele>262.0</ele><time>2026-04-02T11:21:09.721Z</time></trkpt><trkpt lat="43.0450637" lon="12.3179921"><ele>262.0</ele><time>2026-04-02T11:21:10.711Z</time></trkpt><trkpt lat="43.0451306" lon="12.3181695"><ele>262.0</ele><time>2026-04-02T11:21:11.711Z</time></trkpt><trkpt lat="43.0451837" lon="12.3183358"><ele>262.0</ele><time>2026-04-02T11:21:12.715Z</time></trkpt><trkpt lat="43.0452355" lon="12.3184907"><ele>262.6</ele><time>2026-04-02T11:21:13.715Z</time></trkpt><trkpt lat="43.0452862" lon="12.3186272"><ele>263.2</ele><time>2026-04-02T11:21:14.718Z</time></trkpt><trkpt lat="43.0453307" lon="12.3187466"><ele>263.8</ele><time>2026-04-02T11:21:15.712Z</time></trkpt><trkpt lat="43.0453765" lon="12.3188602"><ele>264.4</ele><time>2026-04-02T11:21:16.711Z</time></trkpt><trkpt lat="43.045416" lon="12.3189595"><ele>265.0</ele><time>2026-04-02T11:21:17.711Z</time></trkpt><trkpt lat="43.0454402" lon="12.3190397"><ele>265.4</ele><time>2026-04-02T11:21:18.718Z</time></trkpt><trkpt lat="43.045492" lon="12.3191541"><ele>265.8</ele><time>2026-04-02T11:21:20.713Z</time></trkpt><trkpt lat="43.0455911" lon="12.3191855"><ele>266.2</ele><time>2026-04-02T11:21:22.715Z</time></trkpt><trkpt lat="43.0456613" lon="12.3191758"><ele>266.6</ele><time>2026-04-02T11:21:23.71Z</time></trkpt><trkpt lat="43.0457446" lon="12.3191555"><ele>267.0</ele><time>2026-04-02T11:21:24.713Z</time></trkpt><trkpt lat="43.0458373" lon="12.3191249"><ele>267.25</ele><time>2026-04-02T11:21:25.714Z</time></trkpt><trkpt lat="43.0459413" lon="12.3190916"><ele>267.5</ele><time>2026-04-02T11:21:26.712Z</time></trkpt><trkpt lat="43.0460533" lon="12.3190523"><ele>267.75</ele><time>2026-04-02T11:21:27.714Z</time></trkpt><trkpt lat="43.0461745" lon="12.3190012"><ele>268.0</ele><time>2026-04-02T11:21:28.713Z</time></trkpt><trkpt lat="43.0462975" lon="12.3189598"><ele>268.0</ele><time>2026-04-02T11:21:29.713Z</time></trkpt><trkpt lat="43.0464191" lon="12.318914"><ele>268.0</ele><time>2026-04-02T11:21:30.712Z</time></trkpt><trkpt lat="43.0465394" lon="12.3188628"><ele>268.0</ele><time>2026-04-02T11:21:31.713Z</time></trkpt><trkpt lat="43.0466558" lon="12.3188127"><ele>268.0</ele><time>2026-04-02T11:21:32.712Z</time></trkpt><trkpt lat="43.0467649" lon="12.3187644"><ele>267.3333333333333</ele><time>2026-04-02T11:21:33.717Z</time></trkpt><trkpt lat="43.0468557" lon="12.3187295"><ele>266.66666666666663</ele><time>2026-04-02T11:21:34.71Z</time></trkpt><trkpt lat="43.04693" lon="12.318719"><ele>266.0</ele><time>2026-04-02T11:21:35.71Z</time></trkpt><trkpt lat="43.0470015" lon="12.3187526"><ele>265.3333333333333</ele><time>2026-04-02T11:21:36.711Z</time></trkpt><trkpt lat="43.0470624" lon="12.3188309"><ele>264.6666666666667</ele><time>2026-04-02T11:21:37.71Z</time></trkpt><trkpt lat="43.0471109" lon="12.3189522"><ele>264.0</ele><time>2026-04-02T11:21:38.714Z</time></trkpt><trkpt lat="43.0471513" lon="12.3190897"><ele>264.0</ele><time>2026-04-02T11:21:39.714Z</time></trkpt><trkpt lat="43.0471938" lon="12.3192394"><ele>264.0</ele><time>2026-04-02T11:21:40.714Z</time></trkpt><trkpt lat="43.0472372" lon="12.3194054"><ele>264.0</ele><time>2026-04-02T11:21:41.713Z</time></trkpt><trkpt lat="43.0472766" lon="12.3195603"><ele>264.0</ele><time>2026-04-02T11:21:42.712Z</time></trkpt><trkpt lat="43.0473253" lon="12.3197285"><ele>264.75</ele><time>2026-04-02T11:21:43.714Z</time></trkpt><trkpt lat="43.0473744" lon="12.3198992"><ele>265.5</ele><time>2026-04-02T11:21:44.713Z</time></trkpt><trkpt lat="43.0474226" lon="12.3200732"><ele>266.25</ele><time>2026-04-02T11:21:45.712Z</time></trkpt><trkpt lat="43.0474759" lon="12.3202565"><ele>267.0</ele><time>2026-04-02T11:21:46.712Z</time></trkpt><trkpt lat="43.0475251" lon="12.3204445"><ele>269.0</ele><time>2026-04-02T11:21:47.713Z</time></trkpt><trkpt lat="43.0475801" lon="12.3206335"><ele>271.0</ele><time>2026-04-02T11:21:48.713Z</time></trkpt><trkpt lat="43.0476345" lon="12.3208161"><ele>273.0</ele><time>2026-04-02T11:21:49.718Z</time></trkpt><trkpt lat="43.0476866" lon="12.3210012"><ele>275.0</ele><time>2026-04-02T11:21:50.715Z</time></trkpt><trkpt lat="43.0477416" lon="12.321189"><ele>275.0</ele><time>2026-04-02T11:21:51.709Z</time></trkpt><trkpt lat="43.0477953" lon="12.321367"><ele>275.0</ele><time>2026-04-02T11:21:52.714Z</time></trkpt><trkpt lat="43.0478613" lon="12.3215385"><ele>275.0</ele><time>2026-04-02T11:21:53.711Z</time></trkpt><trkpt lat="43.047927" lon="12.3216997"><ele>275.0</ele><time>2026-04-02T11:21:54.712Z</time></trkpt><trkpt lat="43.0480138" lon="12.3218579"><ele>276.25</ele><time>2026-04-02T11:21:55.716Z</time></trkpt><trkpt lat="43.0481169" lon="12.3220015"><ele>277.5</ele><time>2026-04-02T11:21:56.712Z</time></trkpt><trkpt lat="43.0482277" lon="12.322135"><ele>278.75</ele><time>2026-04-02T11:21:57.711Z</time></trkpt><trkpt lat="43.0483391" lon="12.3222572"><ele>280.0</ele><time>2026-04-02T11:21:58.717Z</time></trkpt><trkpt lat="43.0484596" lon="12.32237"><ele>280.5</ele><time>2026-04-02T11:21:59.712Z</time></trkpt><trkpt lat="43.0485656" lon="12.3224773"><ele>281.0</ele><time>2026-04-02T11:22:00.713Z</time></trkpt><trkpt lat="43.0486468" lon="12.3225858"><ele>281.5</ele><time>2026-04-02T11:22:01.711Z</time></trkpt><trkpt lat="43.0487174" lon="12.3227134"><ele>282.0</ele><time>2026-04-02T11:22:02.712Z</time></trkpt><trkpt lat="43.0487798" lon="12.3228676"><ele>282.0</ele><time>2026-04-02T11:22:03.711Z</time></trkpt><trkpt lat="43.0488407" lon="12.323036"><ele>282.0</ele><time>2026-04-02T11:22:04.712Z</time></trkpt><trkpt lat="43.0489073" lon="12.3232155"><ele>282.0</ele><time>2026-04-02T11:22:05.716Z</time></trkpt><trkpt lat="43.0489836" lon="12.3233988"><ele>282.0</ele><time>2026-04-02T11:22:06.711Z</time></trkpt><trkpt lat="43.0490741" lon="12.3235722"><ele>281.6666666666667</ele><time>2026-04-02T11:22:07.712Z</time></trkpt><trkpt lat="43.049176" lon="12.3237506"><ele>281.33333333333337</ele><time>2026-04-02T11:22:08.712Z</time></trkpt><trkpt lat="43.0492733" lon="12.3239301"><ele>281.0</ele><time>2026-04-02T11:22:09.713Z</time></trkpt><trkpt lat="43.049362" lon="12.3241068"><ele>281.0</ele><time>2026-04-02T11:22:10.713Z</time></trkpt><trkpt lat="43.0494494" lon="12.3242823"><ele>281.0</ele><time>2026-04-02T11:22:11.71Z</time></trkpt><trkpt lat="43.0495363" lon="12.3244389"><ele>281.0</ele><time>2026-04-02T11:22:12.716Z</time></trkpt><trkpt lat="43.0496174" lon="12.324579"><ele>281.0</ele><time>2026-04-02T11:22:13.71Z</time></trkpt><trkpt lat="43.0496943" lon="12.3247013"><ele>282.2</ele><time>2026-04-02T11:22:14.712Z</time></trkpt><trkpt lat="43.0497739" lon="12.3248044"><ele>283.40000000000003</ele><time>2026-04-02T11:22:15.712Z</time></trkpt><trkpt lat="43.0498415" lon="12.3249025"><ele>284.6</ele><time>2026-04-02T11:22:16.712Z</time></trkpt><trkpt lat="43.0498856" lon="12.3250043"><ele>285.8</ele><time>2026-04-02T11:22:17.717Z</time></trkpt><trkpt lat="43.0499271" lon="12.3250953"><ele>287.0</ele><time>2026-04-02T11:22:18.717Z</time></trkpt><trkpt lat="43.0499355" lon="12.3252112"><ele>287.0</ele><time>2026-04-02T11:22:19.709Z</time></trkpt><trkpt lat="43.0499346" lon="12.3253271"><ele>287.0</ele><time>2026-04-02T11:22:20.717Z</time></trkpt><trkpt lat="43.0498575" lon="12.325449"><ele>287.0</ele><time>2026-04-02T11:22:21.71Z</time></trkpt><trkpt lat="43.0497954" lon="12.3255673"><ele>287.0</ele><time>2026-04-02T11:22:22.715Z</time></trkpt><trkpt lat="43.0497352" lon="12.3257114"><ele>287.0</ele><time>2026-04-02T11:22:23.713Z</time></trkpt><trkpt lat="43.0496621" lon="12.3258391"><ele>288.2</ele><time>2026-04-02T11:22:24.709Z</time></trkpt><trkpt lat="43.0495911" lon="12.3259658"><ele>289.4</ele><time>2026-04-02T11:22:25.711Z</time></trkpt><trkpt lat="43.049513" lon="12.326095"><ele>290.6</ele><time>2026-04-02T11:22:26.712Z</time></trkpt><trkpt lat="43.0494493" lon="12.326208"><ele>291.8</ele><time>2026-04-02T11:22:27.714Z</time></trkpt><trkpt lat="43.0493893" lon="12.3263059"><ele>293.0</ele><time>2026-04-02T11:22:28.714Z</time></trkpt><trkpt lat="43.0493544" lon="12.3264086"><ele>293.0</ele><time>2026-04-02T11:22:29.712Z</time></trkpt><trkpt lat="43.0493533" lon="12.326514"><ele>293.0</ele><time>2026-04-02T11:22:30.712Z</time></trkpt><trkpt lat="43.0493804" lon="12.3266045"><ele>293.0</ele><time>2026-04-02T11:22:31.715Z</time></trkpt><trkpt lat="43.0494456" lon="12.3266961"><ele>293.0</ele><time>2026-04-02T11:22:32.711Z</time></trkpt><trkpt lat="43.0495349" lon="12.3267768"><ele>293.0</ele><time>2026-04-02T11:22:33.712Z</time></trkpt><trkpt lat="43.049631" lon="12.3268656"><ele>293.0</ele><time>2026-04-02T11:22:34.711Z</time></trkpt><trkpt lat="43.0497323" lon="12.3269701"><ele>293.0</ele><time>2026-04-02T11:22:35.714Z</time></trkpt><trkpt lat="43.0498413" lon="12.3270741"><ele>293.0</ele><time>2026-04-02T11:22:36.713Z</time></trkpt><trkpt lat="43.0499636" lon="12.3271735"><ele>293.0</ele><time>2026-04-02T11:22:37.712Z</time></trkpt><trkpt lat="43.0500834" lon="12.3272836"><ele>293.33333333333337</ele><time>2026-04-02T11:22:38.713Z</time></trkpt><trkpt lat="43.0502111" lon="12.3274032"><ele>293.6666666666667</ele><time>2026-04-02T11:22:39.708Z</time></trkpt><trkpt lat="43.0503516" lon="12.3275252"><ele>294.0</ele><time>2026-04-02T11:22:40.713Z</time></trkpt><trkpt lat="43.0504708" lon="12.3276413"><ele>294.0</ele><time>2026-04-02T11:22:41.71Z</time></trkpt><trkpt lat="43.0505763" lon="12.3277516"><ele>294.0</ele><time>2026-04-02T11:22:42.713Z</time></trkpt><trkpt lat="43.0506726" lon="12.3278555"><ele>294.0</ele><time>2026-04-02T11:22:43.715Z</time></trkpt><trkpt lat="43.0507691" lon="12.3279357"><ele>294.0</ele><time>2026-04-02T11:22:44.709Z</time></trkpt><trkpt lat="43.0508613" lon="12.3280067"><ele>294.4</ele><time>2026-04-02T11:22:45.712Z</time></trkpt><trkpt lat="43.050952" lon="12.328076"><ele>294.79999999999995</ele><time>2026-04-02T11:22:46.715Z</time></trkpt><trkpt lat="43.0510304" lon="12.3281643"><ele>295.20000000000005</ele><time>2026-04-02T11:22:47.719Z</time></trkpt><trkpt lat="43.0510944" lon="12.3282605"><ele>295.6</ele><time>2026-04-02T11:22:48.714Z</time></trkpt><trkpt lat="43.0511412" lon="12.3283578"><ele>296.0</ele><time>2026-04-02T11:22:49.712Z</time></trkpt><trkpt lat="43.0511844" lon="12.3284506"><ele>296.0</ele><time>2026-04-02T11:22:50.712Z</time></trkpt><trkpt lat="43.051226" lon="12.3285426"><ele>296.0</ele><time>2026-04-02T11:22:51.708Z</time></trkpt><trkpt lat="43.0512572" lon="12.3286251"><ele>296.0</ele><time>2026-04-02T11:22:52.713Z</time></trkpt><trkpt lat="43.0513055" lon="12.3287522"><ele>296.0</ele><time>2026-04-02T11:22:54.714Z</time></trkpt><trkpt lat="43.0513455" lon="12.3288542"><ele>296.0</ele><time>2026-04-02T11:22:57.711Z</time></trkpt><trkpt lat="43.0514121" lon="12.3288365"><ele>296.0</ele><time>2026-04-02T11:22:59.714Z</time></trkpt><trkpt lat="43.0514383" lon="12.3287126"><ele>296.0</ele><time>2026-04-02T11:23:01.712Z</time></trkpt><trkpt lat="43.0515259" lon="12.3286615"><ele>296.0</ele><time>2026-04-02T11:23:03.71Z</time></trkpt><trkpt lat="43.0515999" lon="12.3286819"><ele>296.0</ele><time>2026-04-02T11:23:04.711Z</time></trkpt><trkpt lat="43.051689" lon="12.3287079"><ele>296.0</ele><time>2026-04-02T11:23:05.712Z</time></trkpt><trkpt lat="43.051781" lon="12.3287467"><ele>296.0</ele><time>2026-04-02T11:23:06.712Z</time></trkpt><trkpt lat="43.0518663" lon="12.328789"><ele>296.0</ele><time>2026-04-02T11:23:07.715Z</time></trkpt><trkpt lat="43.0519586" lon="12.3288215"><ele>296.1666666666667</ele><time>2026-04-02T11:23:08.712Z</time></trkpt><trkpt lat="43.0520486" lon="12.3288542"><ele>296.33333333333337</ele><time>2026-04-02T11:23:09.723Z</time></trkpt><trkpt lat="43.0521232" lon="12.3288906"><ele>296.5</ele><time>2026-04-02T11:23:10.712Z</time></trkpt><trkpt lat="43.0521981" lon="12.3289202"><ele>296.6666666666667</ele><time>2026-04-02T11:23:11.713Z</time></trkpt><trkpt lat="43.0522678" lon="12.3289475"><ele>296.8333333333333</ele><time>2026-04-02T11:23:12.711Z</time></trkpt><trkpt lat="43.0523722" lon="12.3289835"><ele>297.0</ele><time>2026-04-02T11:23:14.712Z</time></trkpt><trkpt lat="43.0524372" lon="12.3290169"><ele>296.6666666666667</ele><time>2026-04-02T11:23:18.711Z</time></trkpt><trkpt lat="43.0525058" lon="12.3290506"><ele>296.3333333333333</ele><time>2026-04-02T11:24:02.712Z</time></trkpt><trkpt lat="43.0525694" lon="12.3289946"><ele>296.0</ele><time>2026-04-02T11:24:06.712Z</time></trkpt><trkpt lat="43.0525871" lon="12.32887"><ele>295.66666666666663</ele><time>2026-04-02T11:24:07.712Z</time></trkpt><trkpt lat="43.0525954" lon="12.3287577"><ele>295.3333333333333</ele><time>2026-04-02T11:24:08.712Z</time></trkpt><trkpt lat="43.0525978" lon="12.3286304"><ele>295.0</ele><time>2026-04-02T11:24:09.719Z</time></trkpt><trkpt lat="43.0526028" lon="12.3285028"><ele>295.0</ele><time>2026-04-02T11:24:10.71Z</time></trkpt><trkpt lat="43.0526075" lon="12.3283891"><ele>295.0</ele><time>2026-04-02T11:24:11.715Z</time></trkpt><trkpt lat="43.0526199" lon="12.3282527"><ele>295.0</ele><time>2026-04-02T11:24:12.71Z</time></trkpt><trkpt lat="43.0526389" lon="12.3280968"><ele>295.0</ele><time>2026-04-02T11:24:13.713Z</time></trkpt><trkpt lat="43.0526667" lon="12.3279308"><ele>295.0</ele><time>2026-04-02T11:24:14.712Z</time></trkpt><trkpt lat="43.0527012" lon="12.3277659"><ele>295.0</ele><time>2026-04-02T11:24:15.711Z</time></trkpt><trkpt lat="43.0527336" lon="12.3275854"><ele>295.0</ele><time>2026-04-02T11:24:16.71Z</time></trkpt><trkpt lat="43.0527734" lon="12.3273986"><ele>295.0</ele><time>2026-04-02T11:24:17.711Z</time></trkpt><trkpt lat="43.052815" lon="12.3272138"><ele>295.0</ele><time>2026-04-02T11:24:18.715Z</time></trkpt><trkpt lat="43.0528497" lon="12.3270267"><ele>294.5</ele><time>2026-04-02T11:24:19.709Z</time></trkpt><trkpt lat="43.0528918" lon="12.3268255"><ele>294.0</ele><time>2026-04-02T11:24:20.712Z</time></trkpt><trkpt lat="43.0529273" lon="12.3266332"><ele>293.5</ele><time>2026-04-02T11:24:21.712Z</time></trkpt><trkpt lat="43.0529633" lon="12.3264523"><ele>293.0</ele><time>2026-04-02T11:24:22.711Z</time></trkpt><trkpt lat="43.0530021" lon="12.3262733"><ele>292.5</ele><time>2026-04-02T11:24:23.712Z</time></trkpt><trkpt lat="43.0530479" lon="12.3260979"><ele>292.0</ele><time>2026-04-02T11:24:24.711Z</time></trkpt><trkpt lat="43.053101" lon="12.3259669"><ele>291.5</ele><time>2026-04-02T11:24:25.711Z</time></trkpt><trkpt lat="43.053162" lon="12.3258287"><ele>291.0</ele><time>2026-04-02T11:24:26.714Z</time></trkpt><trkpt lat="43.0532165" lon="12.3256905"><ele>291.0</ele><time>2026-04-02T11:24:27.712Z</time></trkpt><trkpt lat="43.0532685" lon="12.3255763"><ele>291.0</ele><time>2026-04-02T11:24:28.711Z</time></trkpt><trkpt lat="43.0533216" lon="12.3254492"><ele>291.0</ele><time>2026-04-02T11:24:29.712Z</time></trkpt><trkpt lat="43.0533722" lon="12.3253433"><ele>291.0</ele><time>2026-04-02T11:24:30.714Z</time></trkpt><trkpt lat="43.0534119" lon="12.3252587"><ele>291.0</ele><time>2026-04-02T11:24:31.71Z</time></trkpt><trkpt lat="43.0534715" lon="12.3251133"><ele>289.5</ele><time>2026-04-02T11:24:33.712Z</time></trkpt><trkpt lat="43.0536459" lon="12.3252414"><ele>288.0</ele><time>2026-04-02T11:24:39.72Z</time></trkpt><trkpt lat="43.0537327" lon="12.3253577"><ele>286.5</ele><time>2026-04-02T11:24:41.715Z</time></trkpt><trkpt lat="43.0538038" lon="12.3254482"><ele>285.0</ele><time>2026-04-02T11:24:43.709Z</time></trkpt><trkpt lat="43.0538706" lon="12.3255316"><ele>285.0</ele><time>2026-04-02T11:24:45.71Z</time></trkpt><trkpt lat="43.0539404" lon="12.3255959"><ele>286.0</ele><time>2026-04-02T11:24:47.714Z</time></trkpt><trkpt lat="43.053994" lon="12.3256464"><ele>286.0</ele><time>2026-04-02T11:24:49.714Z</time></trkpt><trkpt lat="43.0540559" lon="12.3257252"><ele>286.0</ele><time>2026-04-02T11:24:51.711Z</time></trkpt><trkpt lat="43.0541347" lon="12.32577"><ele>278.0</ele><time>2026-04-02T11:24:53.713Z</time></trkpt></trkseg></trk></gpx>